<?xml version="1.0" encoding="UTF-8" standalone="no" ?>
<gpx xmlns="http://www.topografix.com/GPX/1/1" xmlns:xsi="http://www.w3.org/2001/XMLSchema-instance" xsi:schemaLocation="http://www.topografix.com/GPX/1/1 http://www.topografix.com/GPX/1/1/gpx.xsd" version="1.1" creator="VisuGPX - https://www.visugpx.com">
  <metadata>
    <name>Beuil marche Jour 2</name>
  </metadata>
  <trk>
    <name><![CDATA[Beuil marche]]></name>
    <trkseg>
      <trkpt lat="44.09511" lon="6.98922">
        <ele>1463</ele>
        <time>2022-07-26T06:51:24Z</time>
      </trkpt>
      <trkpt lat="44.09512" lon="6.98921">
        <ele>1463</ele>
        <time>2022-07-26T06:51:25Z</time>
      </trkpt>
      <trkpt lat="44.09513" lon="6.98919">
        <ele>1463</ele>
        <time>2022-07-26T06:51:26Z</time>
      </trkpt>
      <trkpt lat="44.09513" lon="6.98918">
        <ele>1463</ele>
        <time>2022-07-26T06:51:27Z</time>
      </trkpt>
      <trkpt lat="44.09513" lon="6.98917">
        <ele>1463</ele>
        <time>2022-07-26T06:51:28Z</time>
      </trkpt>
      <trkpt lat="44.09512" lon="6.98916">
        <ele>1463</ele>
        <time>2022-07-26T06:51:29Z</time>
      </trkpt>
      <trkpt lat="44.09512" lon="6.98915">
        <ele>1463</ele>
        <time>2022-07-26T06:51:30Z</time>
      </trkpt>
      <trkpt lat="44.09511" lon="6.98915">
        <ele>1463</ele>
        <time>2022-07-26T06:51:31Z</time>
      </trkpt>
      <trkpt lat="44.0951" lon="6.98915">
        <ele>1463</ele>
        <time>2022-07-26T06:51:32Z</time>
      </trkpt>
      <trkpt lat="44.09509" lon="6.98915">
        <ele>1462</ele>
        <time>2022-07-26T06:51:33Z</time>
      </trkpt>
      <trkpt lat="44.09508" lon="6.98916">
        <ele>1462</ele>
        <time>2022-07-26T06:51:34Z</time>
      </trkpt>
      <trkpt lat="44.09507" lon="6.98917">
        <ele>1462</ele>
        <time>2022-07-26T06:51:35Z</time>
      </trkpt>
      <trkpt lat="44.09506" lon="6.98918">
        <ele>1462</ele>
        <time>2022-07-26T06:51:36Z</time>
      </trkpt>
      <trkpt lat="44.09505" lon="6.98919">
        <ele>1462</ele>
        <time>2022-07-26T06:51:37Z</time>
      </trkpt>
      <trkpt lat="44.09504" lon="6.9892">
        <ele>1461</ele>
        <time>2022-07-26T06:51:38Z</time>
      </trkpt>
      <trkpt lat="44.09503" lon="6.98921">
        <ele>1461</ele>
        <time>2022-07-26T06:51:39Z</time>
      </trkpt>
      <trkpt lat="44.09502" lon="6.98922">
        <ele>1461</ele>
        <time>2022-07-26T06:51:40Z</time>
      </trkpt>
      <trkpt lat="44.09502" lon="6.98923">
        <ele>1461</ele>
        <time>2022-07-26T06:51:41Z</time>
      </trkpt>
      <trkpt lat="44.09502" lon="6.98925">
        <ele>1461</ele>
        <time>2022-07-26T06:51:42Z</time>
      </trkpt>
      <trkpt lat="44.09502" lon="6.98927">
        <ele>1460</ele>
        <time>2022-07-26T06:51:43Z</time>
      </trkpt>
      <trkpt lat="44.09501" lon="6.98929">
        <ele>1460</ele>
        <time>2022-07-26T06:51:44Z</time>
      </trkpt>
      <trkpt lat="44.09501" lon="6.98931">
        <ele>1460</ele>
        <time>2022-07-26T06:51:45Z</time>
      </trkpt>
      <trkpt lat="44.09501" lon="6.98933">
        <ele>1460</ele>
        <time>2022-07-26T06:51:46Z</time>
      </trkpt>
      <trkpt lat="44.095" lon="6.98934">
        <ele>1460</ele>
        <time>2022-07-26T06:51:47Z</time>
      </trkpt>
      <trkpt lat="44.09499" lon="6.98936">
        <ele>1459</ele>
        <time>2022-07-26T06:51:48Z</time>
      </trkpt>
      <trkpt lat="44.09499" lon="6.98937">
        <ele>1459</ele>
        <time>2022-07-26T06:51:49Z</time>
      </trkpt>
      <trkpt lat="44.09498" lon="6.98939">
        <ele>1459</ele>
        <time>2022-07-26T06:51:50Z</time>
      </trkpt>
      <trkpt lat="44.09497" lon="6.9894">
        <ele>1459</ele>
        <time>2022-07-26T06:51:51Z</time>
      </trkpt>
      <trkpt lat="44.09496" lon="6.98941">
        <ele>1459</ele>
        <time>2022-07-26T06:51:52Z</time>
      </trkpt>
      <trkpt lat="44.09496" lon="6.98943">
        <ele>1458</ele>
        <time>2022-07-26T06:51:53Z</time>
      </trkpt>
      <trkpt lat="44.09495" lon="6.98944">
        <ele>1458</ele>
        <time>2022-07-26T06:51:54Z</time>
      </trkpt>
      <trkpt lat="44.09495" lon="6.98945">
        <ele>1458</ele>
        <time>2022-07-26T06:51:55Z</time>
      </trkpt>
      <trkpt lat="44.09495" lon="6.98947">
        <ele>1458</ele>
        <time>2022-07-26T06:51:56Z</time>
      </trkpt>
      <trkpt lat="44.09494" lon="6.98948">
        <ele>1458</ele>
        <time>2022-07-26T06:51:57Z</time>
      </trkpt>
      <trkpt lat="44.09494" lon="6.98949">
        <ele>1458</ele>
        <time>2022-07-26T06:51:58Z</time>
      </trkpt>
      <trkpt lat="44.09494" lon="6.9895">
        <ele>1458</ele>
        <time>2022-07-26T06:51:59Z</time>
      </trkpt>
      <trkpt lat="44.09495" lon="6.98952">
        <ele>1458</ele>
        <time>2022-07-26T06:52:00Z</time>
      </trkpt>
      <trkpt lat="44.09495" lon="6.98953">
        <ele>1458</ele>
        <time>2022-07-26T06:52:01Z</time>
      </trkpt>
      <trkpt lat="44.09495" lon="6.98954">
        <ele>1458</ele>
        <time>2022-07-26T06:52:02Z</time>
      </trkpt>
      <trkpt lat="44.09495" lon="6.98956">
        <ele>1458</ele>
        <time>2022-07-26T06:52:03Z</time>
      </trkpt>
      <trkpt lat="44.09494" lon="6.98957">
        <ele>1458</ele>
        <time>2022-07-26T06:52:04Z</time>
      </trkpt>
      <trkpt lat="44.09494" lon="6.98958">
        <ele>1458</ele>
        <time>2022-07-26T06:52:05Z</time>
      </trkpt>
      <trkpt lat="44.09493" lon="6.98959">
        <ele>1458</ele>
        <time>2022-07-26T06:52:06Z</time>
      </trkpt>
      <trkpt lat="44.09492" lon="6.9896">
        <ele>1458</ele>
        <time>2022-07-26T06:52:07Z</time>
      </trkpt>
      <trkpt lat="44.09492" lon="6.98961">
        <ele>1458</ele>
        <time>2022-07-26T06:52:08Z</time>
      </trkpt>
      <trkpt lat="44.09491" lon="6.98962">
        <ele>1458</ele>
        <time>2022-07-26T06:52:09Z</time>
      </trkpt>
      <trkpt lat="44.09491" lon="6.98964">
        <ele>1458</ele>
        <time>2022-07-26T06:52:10Z</time>
      </trkpt>
      <trkpt lat="44.0949" lon="6.98965">
        <ele>1458</ele>
        <time>2022-07-26T06:52:11Z</time>
      </trkpt>
      <trkpt lat="44.0949" lon="6.98967">
        <ele>1458</ele>
        <time>2022-07-26T06:52:12Z</time>
      </trkpt>
      <trkpt lat="44.09489" lon="6.98968">
        <ele>1458</ele>
        <time>2022-07-26T06:52:13Z</time>
      </trkpt>
      <trkpt lat="44.09489" lon="6.9897">
        <ele>1458</ele>
        <time>2022-07-26T06:52:14Z</time>
      </trkpt>
      <trkpt lat="44.09488" lon="6.98972">
        <ele>1458</ele>
        <time>2022-07-26T06:52:15Z</time>
      </trkpt>
      <trkpt lat="44.09488" lon="6.98973">
        <ele>1458</ele>
        <time>2022-07-26T06:52:16Z</time>
      </trkpt>
      <trkpt lat="44.09487" lon="6.98975">
        <ele>1458</ele>
        <time>2022-07-26T06:52:17Z</time>
      </trkpt>
      <trkpt lat="44.09486" lon="6.98977">
        <ele>1458</ele>
        <time>2022-07-26T06:52:18Z</time>
      </trkpt>
      <trkpt lat="44.09486" lon="6.98978">
        <ele>1458</ele>
        <time>2022-07-26T06:52:19Z</time>
      </trkpt>
      <trkpt lat="44.09485" lon="6.9898">
        <ele>1458</ele>
        <time>2022-07-26T06:52:20Z</time>
      </trkpt>
      <trkpt lat="44.09484" lon="6.98982">
        <ele>1458</ele>
        <time>2022-07-26T06:52:21Z</time>
      </trkpt>
      <trkpt lat="44.09483" lon="6.98984">
        <ele>1458</ele>
        <time>2022-07-26T06:52:22Z</time>
      </trkpt>
      <trkpt lat="44.09483" lon="6.98986">
        <ele>1458</ele>
        <time>2022-07-26T06:52:23Z</time>
      </trkpt>
      <trkpt lat="44.09482" lon="6.98988">
        <ele>1458</ele>
        <time>2022-07-26T06:52:24Z</time>
      </trkpt>
      <trkpt lat="44.09482" lon="6.98989">
        <ele>1458</ele>
        <time>2022-07-26T06:52:25Z</time>
      </trkpt>
      <trkpt lat="44.09481" lon="6.98991">
        <ele>1458</ele>
        <time>2022-07-26T06:52:26Z</time>
      </trkpt>
      <trkpt lat="44.09481" lon="6.98993">
        <ele>1459</ele>
        <time>2022-07-26T06:52:27Z</time>
      </trkpt>
      <trkpt lat="44.0948" lon="6.98995">
        <ele>1459</ele>
        <time>2022-07-26T06:52:28Z</time>
      </trkpt>
      <trkpt lat="44.0948" lon="6.98996">
        <ele>1459</ele>
        <time>2022-07-26T06:52:29Z</time>
      </trkpt>
      <trkpt lat="44.09479" lon="6.98998">
        <ele>1459</ele>
        <time>2022-07-26T06:52:30Z</time>
      </trkpt>
      <trkpt lat="44.09479" lon="6.98999">
        <ele>1459</ele>
        <time>2022-07-26T06:52:31Z</time>
      </trkpt>
      <trkpt lat="44.09478" lon="6.99">
        <ele>1459</ele>
        <time>2022-07-26T06:52:32Z</time>
      </trkpt>
      <trkpt lat="44.09477" lon="6.99002">
        <ele>1459</ele>
        <time>2022-07-26T06:52:33Z</time>
      </trkpt>
      <trkpt lat="44.09476" lon="6.99003">
        <ele>1459</ele>
        <time>2022-07-26T06:52:34Z</time>
      </trkpt>
      <trkpt lat="44.09475" lon="6.99004">
        <ele>1459</ele>
        <time>2022-07-26T06:52:35Z</time>
      </trkpt>
      <trkpt lat="44.09475" lon="6.99005">
        <ele>1459</ele>
        <time>2022-07-26T06:52:36Z</time>
      </trkpt>
      <trkpt lat="44.09474" lon="6.99006">
        <ele>1459</ele>
        <time>2022-07-26T06:52:37Z</time>
      </trkpt>
      <trkpt lat="44.09474" lon="6.99008">
        <ele>1459</ele>
        <time>2022-07-26T06:52:38Z</time>
      </trkpt>
      <trkpt lat="44.09474" lon="6.99009">
        <ele>1459</ele>
        <time>2022-07-26T06:52:39Z</time>
      </trkpt>
      <trkpt lat="44.09473" lon="6.9901">
        <ele>1459</ele>
        <time>2022-07-26T06:52:40Z</time>
      </trkpt>
      <trkpt lat="44.09473" lon="6.99011">
        <ele>1459</ele>
        <time>2022-07-26T06:52:41Z</time>
      </trkpt>
      <trkpt lat="44.09472" lon="6.99012">
        <ele>1460</ele>
        <time>2022-07-26T06:52:42Z</time>
      </trkpt>
      <trkpt lat="44.09471" lon="6.99013">
        <ele>1460</ele>
        <time>2022-07-26T06:52:43Z</time>
      </trkpt>
      <trkpt lat="44.0947" lon="6.99014">
        <ele>1460</ele>
        <time>2022-07-26T06:52:44Z</time>
      </trkpt>
      <trkpt lat="44.09468" lon="6.99014">
        <ele>1460</ele>
        <time>2022-07-26T06:52:45Z</time>
      </trkpt>
      <trkpt lat="44.09467" lon="6.99015">
        <ele>1460</ele>
        <time>2022-07-26T06:52:46Z</time>
      </trkpt>
      <trkpt lat="44.09466" lon="6.99016">
        <ele>1460</ele>
        <time>2022-07-26T06:52:47Z</time>
      </trkpt>
      <trkpt lat="44.09465" lon="6.99017">
        <ele>1460</ele>
        <time>2022-07-26T06:52:48Z</time>
      </trkpt>
      <trkpt lat="44.09464" lon="6.99017">
        <ele>1460</ele>
        <time>2022-07-26T06:52:49Z</time>
      </trkpt>
      <trkpt lat="44.09463" lon="6.99018">
        <ele>1460</ele>
        <time>2022-07-26T06:52:50Z</time>
      </trkpt>
      <trkpt lat="44.09462" lon="6.99019">
        <ele>1460</ele>
        <time>2022-07-26T06:52:51Z</time>
      </trkpt>
      <trkpt lat="44.0946" lon="6.99019">
        <ele>1460</ele>
        <time>2022-07-26T06:52:52Z</time>
      </trkpt>
      <trkpt lat="44.09459" lon="6.9902">
        <ele>1460</ele>
        <time>2022-07-26T06:52:53Z</time>
      </trkpt>
      <trkpt lat="44.09458" lon="6.99021">
        <ele>1460</ele>
        <time>2022-07-26T06:52:54Z</time>
      </trkpt>
      <trkpt lat="44.09457" lon="6.99021">
        <ele>1460</ele>
        <time>2022-07-26T06:52:55Z</time>
      </trkpt>
      <trkpt lat="44.09456" lon="6.99022">
        <ele>1460</ele>
        <time>2022-07-26T06:52:56Z</time>
      </trkpt>
      <trkpt lat="44.09455" lon="6.99022">
        <ele>1460</ele>
        <time>2022-07-26T06:52:57Z</time>
      </trkpt>
      <trkpt lat="44.09454" lon="6.99022">
        <ele>1460</ele>
        <time>2022-07-26T06:52:58Z</time>
      </trkpt>
      <trkpt lat="44.09453" lon="6.99023">
        <ele>1460</ele>
        <time>2022-07-26T06:52:59Z</time>
      </trkpt>
      <trkpt lat="44.09452" lon="6.99023">
        <ele>1460</ele>
        <time>2022-07-26T06:53:00Z</time>
      </trkpt>
      <trkpt lat="44.0945" lon="6.99022">
        <ele>1460</ele>
        <time>2022-07-26T06:53:01Z</time>
      </trkpt>
      <trkpt lat="44.09449" lon="6.99022">
        <ele>1460</ele>
        <time>2022-07-26T06:53:02Z</time>
      </trkpt>
      <trkpt lat="44.09448" lon="6.99022">
        <ele>1459</ele>
        <time>2022-07-26T06:53:03Z</time>
      </trkpt>
      <trkpt lat="44.09447" lon="6.99021">
        <ele>1459</ele>
        <time>2022-07-26T06:53:04Z</time>
      </trkpt>
      <trkpt lat="44.09447" lon="6.99021">
        <ele>1459</ele>
        <time>2022-07-26T06:53:05Z</time>
      </trkpt>
      <trkpt lat="44.09447" lon="6.9902">
        <ele>1459</ele>
        <time>2022-07-26T06:53:06Z</time>
      </trkpt>
      <trkpt lat="44.09448" lon="6.9902">
        <ele>1459</ele>
        <time>2022-07-26T06:53:07Z</time>
      </trkpt>
      <trkpt lat="44.09448" lon="6.99019">
        <ele>1459</ele>
        <time>2022-07-26T06:53:08Z</time>
      </trkpt>
      <trkpt lat="44.09449" lon="6.99019">
        <ele>1459</ele>
        <time>2022-07-26T06:53:09Z</time>
      </trkpt>
      <trkpt lat="44.0945" lon="6.99018">
        <ele>1459</ele>
        <time>2022-07-26T06:53:10Z</time>
      </trkpt>
      <trkpt lat="44.09452" lon="6.99017">
        <ele>1459</ele>
        <time>2022-07-26T06:53:11Z</time>
      </trkpt>
      <trkpt lat="44.09453" lon="6.99017">
        <ele>1459</ele>
        <time>2022-07-26T06:53:12Z</time>
      </trkpt>
      <trkpt lat="44.09454" lon="6.99016">
        <ele>1458</ele>
        <time>2022-07-26T06:53:13Z</time>
      </trkpt>
      <trkpt lat="44.09455" lon="6.99015">
        <ele>1458</ele>
        <time>2022-07-26T06:53:14Z</time>
      </trkpt>
      <trkpt lat="44.09455" lon="6.99014">
        <ele>1458</ele>
        <time>2022-07-26T06:53:15Z</time>
      </trkpt>
      <trkpt lat="44.09456" lon="6.99014">
        <ele>1458</ele>
        <time>2022-07-26T06:53:16Z</time>
      </trkpt>
      <trkpt lat="44.09457" lon="6.99013">
        <ele>1458</ele>
        <time>2022-07-26T06:53:17Z</time>
      </trkpt>
      <trkpt lat="44.09457" lon="6.99012">
        <ele>1458</ele>
        <time>2022-07-26T06:53:18Z</time>
      </trkpt>
      <trkpt lat="44.09457" lon="6.99011">
        <ele>1458</ele>
        <time>2022-07-26T06:53:19Z</time>
      </trkpt>
      <trkpt lat="44.09457" lon="6.9901">
        <ele>1458</ele>
        <time>2022-07-26T06:53:20Z</time>
      </trkpt>
      <trkpt lat="44.09456" lon="6.99009">
        <ele>1458</ele>
        <time>2022-07-26T06:53:21Z</time>
      </trkpt>
      <trkpt lat="44.09456" lon="6.99008">
        <ele>1458</ele>
        <time>2022-07-26T06:53:22Z</time>
      </trkpt>
      <trkpt lat="44.09454" lon="6.99007">
        <ele>1457</ele>
        <time>2022-07-26T06:53:23Z</time>
      </trkpt>
      <trkpt lat="44.09453" lon="6.99006">
        <ele>1457</ele>
        <time>2022-07-26T06:53:24Z</time>
      </trkpt>
      <trkpt lat="44.09452" lon="6.99005">
        <ele>1457</ele>
        <time>2022-07-26T06:53:25Z</time>
      </trkpt>
      <trkpt lat="44.09451" lon="6.99004">
        <ele>1457</ele>
        <time>2022-07-26T06:53:26Z</time>
      </trkpt>
      <trkpt lat="44.09449" lon="6.99002">
        <ele>1457</ele>
        <time>2022-07-26T06:53:27Z</time>
      </trkpt>
      <trkpt lat="44.09448" lon="6.99001">
        <ele>1456</ele>
        <time>2022-07-26T06:53:28Z</time>
      </trkpt>
      <trkpt lat="44.09447" lon="6.99">
        <ele>1456</ele>
        <time>2022-07-26T06:53:29Z</time>
      </trkpt>
      <trkpt lat="44.09446" lon="6.98998">
        <ele>1456</ele>
        <time>2022-07-26T06:53:30Z</time>
      </trkpt>
      <trkpt lat="44.09446" lon="6.98998">
        <ele>1456</ele>
        <time>2022-07-26T06:53:31Z</time>
      </trkpt>
      <trkpt lat="44.09445" lon="6.98998">
        <ele>1456</ele>
        <time>2022-07-26T06:53:32Z</time>
      </trkpt>
      <trkpt lat="44.09444" lon="6.98998">
        <ele>1455</ele>
        <time>2022-07-26T06:53:33Z</time>
      </trkpt>
      <trkpt lat="44.09444" lon="6.98999">
        <ele>1455</ele>
        <time>2022-07-26T06:53:34Z</time>
      </trkpt>
      <trkpt lat="44.09444" lon="6.99">
        <ele>1455</ele>
        <time>2022-07-26T06:53:35Z</time>
      </trkpt>
      <trkpt lat="44.09443" lon="6.99001">
        <ele>1455</ele>
        <time>2022-07-26T06:53:36Z</time>
      </trkpt>
      <trkpt lat="44.09443" lon="6.99002">
        <ele>1455</ele>
        <time>2022-07-26T06:53:37Z</time>
      </trkpt>
      <trkpt lat="44.09442" lon="6.99004">
        <ele>1455</ele>
        <time>2022-07-26T06:53:38Z</time>
      </trkpt>
      <trkpt lat="44.09442" lon="6.99005">
        <ele>1455</ele>
        <time>2022-07-26T06:53:39Z</time>
      </trkpt>
      <trkpt lat="44.09441" lon="6.99007">
        <ele>1455</ele>
        <time>2022-07-26T06:53:40Z</time>
      </trkpt>
      <trkpt lat="44.0944" lon="6.99008">
        <ele>1455</ele>
        <time>2022-07-26T06:53:41Z</time>
      </trkpt>
      <trkpt lat="44.09439" lon="6.99009">
        <ele>1455</ele>
        <time>2022-07-26T06:53:42Z</time>
      </trkpt>
      <trkpt lat="44.09439" lon="6.9901">
        <ele>1454</ele>
        <time>2022-07-26T06:53:43Z</time>
      </trkpt>
      <trkpt lat="44.09438" lon="6.99011">
        <ele>1454</ele>
        <time>2022-07-26T06:53:44Z</time>
      </trkpt>
      <trkpt lat="44.09437" lon="6.99012">
        <ele>1453</ele>
        <time>2022-07-26T06:53:45Z</time>
      </trkpt>
      <trkpt lat="44.09436" lon="6.99013">
        <ele>1453</ele>
        <time>2022-07-26T06:53:46Z</time>
      </trkpt>
      <trkpt lat="44.09435" lon="6.99014">
        <ele>1453</ele>
        <time>2022-07-26T06:53:47Z</time>
      </trkpt>
      <trkpt lat="44.09434" lon="6.99015">
        <ele>1453</ele>
        <time>2022-07-26T06:53:48Z</time>
      </trkpt>
      <trkpt lat="44.09433" lon="6.99016">
        <ele>1453</ele>
        <time>2022-07-26T06:53:49Z</time>
      </trkpt>
      <trkpt lat="44.09432" lon="6.99017">
        <ele>1453</ele>
        <time>2022-07-26T06:53:50Z</time>
      </trkpt>
      <trkpt lat="44.09431" lon="6.99018">
        <ele>1453</ele>
        <time>2022-07-26T06:53:51Z</time>
      </trkpt>
      <trkpt lat="44.0943" lon="6.99019">
        <ele>1453</ele>
        <time>2022-07-26T06:53:52Z</time>
      </trkpt>
      <trkpt lat="44.09429" lon="6.9902">
        <ele>1452</ele>
        <time>2022-07-26T06:53:53Z</time>
      </trkpt>
      <trkpt lat="44.09428" lon="6.99021">
        <ele>1452</ele>
        <time>2022-07-26T06:53:54Z</time>
      </trkpt>
      <trkpt lat="44.09427" lon="6.99021">
        <ele>1452</ele>
        <time>2022-07-26T06:53:55Z</time>
      </trkpt>
      <trkpt lat="44.09426" lon="6.99022">
        <ele>1452</ele>
        <time>2022-07-26T06:53:56Z</time>
      </trkpt>
      <trkpt lat="44.09425" lon="6.99022">
        <ele>1452</ele>
        <time>2022-07-26T06:53:57Z</time>
      </trkpt>
      <trkpt lat="44.09425" lon="6.99023">
        <ele>1452</ele>
        <time>2022-07-26T06:53:58Z</time>
      </trkpt>
      <trkpt lat="44.09424" lon="6.99023">
        <ele>1452</ele>
        <time>2022-07-26T06:53:59Z</time>
      </trkpt>
      <trkpt lat="44.09424" lon="6.99024">
        <ele>1452</ele>
        <time>2022-07-26T06:54:00Z</time>
      </trkpt>
      <trkpt lat="44.09423" lon="6.99024">
        <ele>1452</ele>
        <time>2022-07-26T06:54:01Z</time>
      </trkpt>
      <trkpt lat="44.09422" lon="6.99025">
        <ele>1452</ele>
        <time>2022-07-26T06:54:02Z</time>
      </trkpt>
      <trkpt lat="44.09421" lon="6.99026">
        <ele>1451</ele>
        <time>2022-07-26T06:54:03Z</time>
      </trkpt>
      <trkpt lat="44.0942" lon="6.99026">
        <ele>1451</ele>
        <time>2022-07-26T06:54:04Z</time>
      </trkpt>
      <trkpt lat="44.0942" lon="6.99027">
        <ele>1451</ele>
        <time>2022-07-26T06:54:05Z</time>
      </trkpt>
      <trkpt lat="44.09419" lon="6.99028">
        <ele>1451</ele>
        <time>2022-07-26T06:54:06Z</time>
      </trkpt>
      <trkpt lat="44.09418" lon="6.99029">
        <ele>1451</ele>
        <time>2022-07-26T06:54:07Z</time>
      </trkpt>
      <trkpt lat="44.09418" lon="6.9903">
        <ele>1451</ele>
        <time>2022-07-26T06:54:08Z</time>
      </trkpt>
      <trkpt lat="44.09418" lon="6.99031">
        <ele>1451</ele>
        <time>2022-07-26T06:54:09Z</time>
      </trkpt>
      <trkpt lat="44.09418" lon="6.99032">
        <ele>1451</ele>
        <time>2022-07-26T06:54:10Z</time>
      </trkpt>
      <trkpt lat="44.09418" lon="6.99034">
        <ele>1451</ele>
        <time>2022-07-26T06:54:11Z</time>
      </trkpt>
      <trkpt lat="44.09418" lon="6.99035">
        <ele>1451</ele>
        <time>2022-07-26T06:54:12Z</time>
      </trkpt>
      <trkpt lat="44.09417" lon="6.99037">
        <ele>1451</ele>
        <time>2022-07-26T06:54:13Z</time>
      </trkpt>
      <trkpt lat="44.09417" lon="6.99038">
        <ele>1451</ele>
        <time>2022-07-26T06:54:14Z</time>
      </trkpt>
      <trkpt lat="44.09417" lon="6.99039">
        <ele>1451</ele>
        <time>2022-07-26T06:54:15Z</time>
      </trkpt>
      <trkpt lat="44.09417" lon="6.99041">
        <ele>1451</ele>
        <time>2022-07-26T06:54:16Z</time>
      </trkpt>
      <trkpt lat="44.09416" lon="6.99042">
        <ele>1451</ele>
        <time>2022-07-26T06:54:17Z</time>
      </trkpt>
      <trkpt lat="44.09416" lon="6.99043">
        <ele>1450</ele>
        <time>2022-07-26T06:54:18Z</time>
      </trkpt>
      <trkpt lat="44.09415" lon="6.99044">
        <ele>1450</ele>
        <time>2022-07-26T06:54:19Z</time>
      </trkpt>
      <trkpt lat="44.09414" lon="6.99045">
        <ele>1450</ele>
        <time>2022-07-26T06:54:20Z</time>
      </trkpt>
      <trkpt lat="44.09414" lon="6.99046">
        <ele>1450</ele>
        <time>2022-07-26T06:54:21Z</time>
      </trkpt>
      <trkpt lat="44.09413" lon="6.99047">
        <ele>1450</ele>
        <time>2022-07-26T06:54:22Z</time>
      </trkpt>
      <trkpt lat="44.09412" lon="6.99048">
        <ele>1450</ele>
        <time>2022-07-26T06:54:23Z</time>
      </trkpt>
      <trkpt lat="44.09411" lon="6.99049">
        <ele>1450</ele>
        <time>2022-07-26T06:54:24Z</time>
      </trkpt>
      <trkpt lat="44.0941" lon="6.99051">
        <ele>1450</ele>
        <time>2022-07-26T06:54:25Z</time>
      </trkpt>
      <trkpt lat="44.0941" lon="6.99052">
        <ele>1450</ele>
        <time>2022-07-26T06:54:26Z</time>
      </trkpt>
      <trkpt lat="44.09409" lon="6.99053">
        <ele>1450</ele>
        <time>2022-07-26T06:54:27Z</time>
      </trkpt>
      <trkpt lat="44.09408" lon="6.99054">
        <ele>1449</ele>
        <time>2022-07-26T06:54:28Z</time>
      </trkpt>
      <trkpt lat="44.09407" lon="6.99055">
        <ele>1449</ele>
        <time>2022-07-26T06:54:29Z</time>
      </trkpt>
      <trkpt lat="44.09406" lon="6.99056">
        <ele>1449</ele>
        <time>2022-07-26T06:54:30Z</time>
      </trkpt>
      <trkpt lat="44.09405" lon="6.99056">
        <ele>1449</ele>
        <time>2022-07-26T06:54:31Z</time>
      </trkpt>
      <trkpt lat="44.09404" lon="6.99056">
        <ele>1449</ele>
        <time>2022-07-26T06:54:32Z</time>
      </trkpt>
      <trkpt lat="44.09403" lon="6.99057">
        <ele>1449</ele>
        <time>2022-07-26T06:54:33Z</time>
      </trkpt>
      <trkpt lat="44.09403" lon="6.99058">
        <ele>1449</ele>
        <time>2022-07-26T06:54:34Z</time>
      </trkpt>
      <trkpt lat="44.09403" lon="6.9906">
        <ele>1449</ele>
        <time>2022-07-26T06:54:35Z</time>
      </trkpt>
      <trkpt lat="44.09403" lon="6.99062">
        <ele>1449</ele>
        <time>2022-07-26T06:54:36Z</time>
      </trkpt>
      <trkpt lat="44.09402" lon="6.99063">
        <ele>1449</ele>
        <time>2022-07-26T06:54:37Z</time>
      </trkpt>
      <trkpt lat="44.09401" lon="6.99064">
        <ele>1448</ele>
        <time>2022-07-26T06:54:38Z</time>
      </trkpt>
      <trkpt lat="44.09399" lon="6.99064">
        <ele>1448</ele>
        <time>2022-07-26T06:54:39Z</time>
      </trkpt>
      <trkpt lat="44.09397" lon="6.99064">
        <ele>1448</ele>
        <time>2022-07-26T06:54:40Z</time>
      </trkpt>
      <trkpt lat="44.09396" lon="6.99064">
        <ele>1448</ele>
        <time>2022-07-26T06:54:41Z</time>
      </trkpt>
      <trkpt lat="44.09394" lon="6.99064">
        <ele>1448</ele>
        <time>2022-07-26T06:54:42Z</time>
      </trkpt>
      <trkpt lat="44.09393" lon="6.99063">
        <ele>1448</ele>
        <time>2022-07-26T06:54:43Z</time>
      </trkpt>
      <trkpt lat="44.09392" lon="6.99063">
        <ele>1448</ele>
        <time>2022-07-26T06:54:44Z</time>
      </trkpt>
      <trkpt lat="44.09391" lon="6.99061">
        <ele>1448</ele>
        <time>2022-07-26T06:54:45Z</time>
      </trkpt>
      <trkpt lat="44.09391" lon="6.9906">
        <ele>1448</ele>
        <time>2022-07-26T06:54:46Z</time>
      </trkpt>
      <trkpt lat="44.0939" lon="6.99059">
        <ele>1448</ele>
        <time>2022-07-26T06:54:47Z</time>
      </trkpt>
      <trkpt lat="44.0939" lon="6.99058">
        <ele>1447</ele>
        <time>2022-07-26T06:54:48Z</time>
      </trkpt>
      <trkpt lat="44.0939" lon="6.99057">
        <ele>1447</ele>
        <time>2022-07-26T06:54:49Z</time>
      </trkpt>
      <trkpt lat="44.0939" lon="6.99056">
        <ele>1447</ele>
        <time>2022-07-26T06:54:50Z</time>
      </trkpt>
      <trkpt lat="44.0939" lon="6.99055">
        <ele>1447</ele>
        <time>2022-07-26T06:54:51Z</time>
      </trkpt>
      <trkpt lat="44.09391" lon="6.99055">
        <ele>1447</ele>
        <time>2022-07-26T06:54:52Z</time>
      </trkpt>
      <trkpt lat="44.09392" lon="6.99054">
        <ele>1446</ele>
        <time>2022-07-26T06:54:53Z</time>
      </trkpt>
      <trkpt lat="44.09393" lon="6.99054">
        <ele>1446</ele>
        <time>2022-07-26T06:54:54Z</time>
      </trkpt>
      <trkpt lat="44.09394" lon="6.99054">
        <ele>1446</ele>
        <time>2022-07-26T06:54:55Z</time>
      </trkpt>
      <trkpt lat="44.09394" lon="6.99053">
        <ele>1446</ele>
        <time>2022-07-26T06:54:56Z</time>
      </trkpt>
      <trkpt lat="44.09394" lon="6.99051">
        <ele>1446</ele>
        <time>2022-07-26T06:54:57Z</time>
      </trkpt>
      <trkpt lat="44.09393" lon="6.99049">
        <ele>1445</ele>
        <time>2022-07-26T06:54:58Z</time>
      </trkpt>
      <trkpt lat="44.09393" lon="6.99047">
        <ele>1445</ele>
        <time>2022-07-26T06:54:59Z</time>
      </trkpt>
      <trkpt lat="44.09392" lon="6.99045">
        <ele>1445</ele>
        <time>2022-07-26T06:55:00Z</time>
      </trkpt>
      <trkpt lat="44.09391" lon="6.99042">
        <ele>1445</ele>
        <time>2022-07-26T06:55:01Z</time>
      </trkpt>
      <trkpt lat="44.0939" lon="6.9904">
        <ele>1445</ele>
        <time>2022-07-26T06:55:02Z</time>
      </trkpt>
      <trkpt lat="44.09389" lon="6.99038">
        <ele>1444</ele>
        <time>2022-07-26T06:55:03Z</time>
      </trkpt>
      <trkpt lat="44.09388" lon="6.99037">
        <ele>1444</ele>
        <time>2022-07-26T06:55:04Z</time>
      </trkpt>
      <trkpt lat="44.09387" lon="6.99036">
        <ele>1444</ele>
        <time>2022-07-26T06:55:05Z</time>
      </trkpt>
      <trkpt lat="44.09386" lon="6.99035">
        <ele>1444</ele>
        <time>2022-07-26T06:55:06Z</time>
      </trkpt>
      <trkpt lat="44.09386" lon="6.99034">
        <ele>1444</ele>
        <time>2022-07-26T06:55:07Z</time>
      </trkpt>
      <trkpt lat="44.09385" lon="6.99034">
        <ele>1443</ele>
        <time>2022-07-26T06:55:08Z</time>
      </trkpt>
      <trkpt lat="44.09384" lon="6.99033">
        <ele>1443</ele>
        <time>2022-07-26T06:55:09Z</time>
      </trkpt>
      <trkpt lat="44.09384" lon="6.99034">
        <ele>1443</ele>
        <time>2022-07-26T06:55:10Z</time>
      </trkpt>
      <trkpt lat="44.09383" lon="6.99034">
        <ele>1443</ele>
        <time>2022-07-26T06:55:11Z</time>
      </trkpt>
      <trkpt lat="44.09382" lon="6.99035">
        <ele>1443</ele>
        <time>2022-07-26T06:55:12Z</time>
      </trkpt>
      <trkpt lat="44.09381" lon="6.99035">
        <ele>1442</ele>
        <time>2022-07-26T06:55:13Z</time>
      </trkpt>
      <trkpt lat="44.0938" lon="6.99036">
        <ele>1442</ele>
        <time>2022-07-26T06:55:14Z</time>
      </trkpt>
      <trkpt lat="44.09379" lon="6.99037">
        <ele>1442</ele>
        <time>2022-07-26T06:55:15Z</time>
      </trkpt>
      <trkpt lat="44.09379" lon="6.99039">
        <ele>1442</ele>
        <time>2022-07-26T06:55:16Z</time>
      </trkpt>
      <trkpt lat="44.09379" lon="6.9904">
        <ele>1442</ele>
        <time>2022-07-26T06:55:17Z</time>
      </trkpt>
      <trkpt lat="44.09378" lon="6.99041">
        <ele>1441</ele>
        <time>2022-07-26T06:55:18Z</time>
      </trkpt>
      <trkpt lat="44.09378" lon="6.99042">
        <ele>1441</ele>
        <time>2022-07-26T06:55:19Z</time>
      </trkpt>
      <trkpt lat="44.09378" lon="6.99043">
        <ele>1441</ele>
        <time>2022-07-26T06:55:20Z</time>
      </trkpt>
      <trkpt lat="44.09377" lon="6.99044">
        <ele>1441</ele>
        <time>2022-07-26T06:55:21Z</time>
      </trkpt>
      <trkpt lat="44.09376" lon="6.99044">
        <ele>1441</ele>
        <time>2022-07-26T06:55:22Z</time>
      </trkpt>
      <trkpt lat="44.09376" lon="6.99044">
        <ele>1440</ele>
        <time>2022-07-26T06:55:23Z</time>
      </trkpt>
      <trkpt lat="44.09374" lon="6.99044">
        <ele>1440</ele>
        <time>2022-07-26T06:55:24Z</time>
      </trkpt>
      <trkpt lat="44.09373" lon="6.99044">
        <ele>1440</ele>
        <time>2022-07-26T06:55:25Z</time>
      </trkpt>
      <trkpt lat="44.09372" lon="6.99045">
        <ele>1440</ele>
        <time>2022-07-26T06:55:26Z</time>
      </trkpt>
      <trkpt lat="44.09371" lon="6.99045">
        <ele>1440</ele>
        <time>2022-07-26T06:55:27Z</time>
      </trkpt>
      <trkpt lat="44.0937" lon="6.99046">
        <ele>1440</ele>
        <time>2022-07-26T06:55:28Z</time>
      </trkpt>
      <trkpt lat="44.09369" lon="6.99047">
        <ele>1440</ele>
        <time>2022-07-26T06:55:29Z</time>
      </trkpt>
      <trkpt lat="44.09367" lon="6.99049">
        <ele>1440</ele>
        <time>2022-07-26T06:55:30Z</time>
      </trkpt>
      <trkpt lat="44.09366" lon="6.9905">
        <ele>1440</ele>
        <time>2022-07-26T06:55:31Z</time>
      </trkpt>
      <trkpt lat="44.09366" lon="6.99051">
        <ele>1440</ele>
        <time>2022-07-26T06:55:32Z</time>
      </trkpt>
      <trkpt lat="44.09365" lon="6.99052">
        <ele>1439</ele>
        <time>2022-07-26T06:55:33Z</time>
      </trkpt>
      <trkpt lat="44.09364" lon="6.99054">
        <ele>1439</ele>
        <time>2022-07-26T06:55:34Z</time>
      </trkpt>
      <trkpt lat="44.09364" lon="6.99056">
        <ele>1439</ele>
        <time>2022-07-26T06:55:35Z</time>
      </trkpt>
      <trkpt lat="44.09363" lon="6.99058">
        <ele>1439</ele>
        <time>2022-07-26T06:55:36Z</time>
      </trkpt>
      <trkpt lat="44.09363" lon="6.99059">
        <ele>1439</ele>
        <time>2022-07-26T06:55:37Z</time>
      </trkpt>
      <trkpt lat="44.09363" lon="6.99061">
        <ele>1439</ele>
        <time>2022-07-26T06:55:38Z</time>
      </trkpt>
      <trkpt lat="44.09362" lon="6.99062">
        <ele>1439</ele>
        <time>2022-07-26T06:55:39Z</time>
      </trkpt>
      <trkpt lat="44.09362" lon="6.99063">
        <ele>1439</ele>
        <time>2022-07-26T06:55:40Z</time>
      </trkpt>
      <trkpt lat="44.09362" lon="6.99064">
        <ele>1439</ele>
        <time>2022-07-26T06:55:41Z</time>
      </trkpt>
      <trkpt lat="44.09362" lon="6.99065">
        <ele>1439</ele>
        <time>2022-07-26T06:55:42Z</time>
      </trkpt>
      <trkpt lat="44.09362" lon="6.99066">
        <ele>1438</ele>
        <time>2022-07-26T06:55:43Z</time>
      </trkpt>
      <trkpt lat="44.09362" lon="6.99067">
        <ele>1438</ele>
        <time>2022-07-26T06:55:44Z</time>
      </trkpt>
      <trkpt lat="44.09361" lon="6.99068">
        <ele>1438</ele>
        <time>2022-07-26T06:55:45Z</time>
      </trkpt>
      <trkpt lat="44.09361" lon="6.99069">
        <ele>1438</ele>
        <time>2022-07-26T06:55:46Z</time>
      </trkpt>
      <trkpt lat="44.09361" lon="6.9907">
        <ele>1438</ele>
        <time>2022-07-26T06:55:47Z</time>
      </trkpt>
      <trkpt lat="44.0936" lon="6.99071">
        <ele>1438</ele>
        <time>2022-07-26T06:55:48Z</time>
      </trkpt>
      <trkpt lat="44.0936" lon="6.99073">
        <ele>1438</ele>
        <time>2022-07-26T06:55:49Z</time>
      </trkpt>
      <trkpt lat="44.0936" lon="6.99074">
        <ele>1438</ele>
        <time>2022-07-26T06:55:50Z</time>
      </trkpt>
      <trkpt lat="44.0936" lon="6.99076">
        <ele>1438</ele>
        <time>2022-07-26T06:55:51Z</time>
      </trkpt>
      <trkpt lat="44.0936" lon="6.99078">
        <ele>1438</ele>
        <time>2022-07-26T06:55:52Z</time>
      </trkpt>
      <trkpt lat="44.0936" lon="6.9908">
        <ele>1438</ele>
        <time>2022-07-26T06:55:53Z</time>
      </trkpt>
      <trkpt lat="44.09359" lon="6.99082">
        <ele>1438</ele>
        <time>2022-07-26T06:55:54Z</time>
      </trkpt>
      <trkpt lat="44.09359" lon="6.99085">
        <ele>1438</ele>
        <time>2022-07-26T06:55:55Z</time>
      </trkpt>
      <trkpt lat="44.09358" lon="6.99087">
        <ele>1438</ele>
        <time>2022-07-26T06:55:56Z</time>
      </trkpt>
      <trkpt lat="44.09358" lon="6.99089">
        <ele>1438</ele>
        <time>2022-07-26T06:55:57Z</time>
      </trkpt>
      <trkpt lat="44.09358" lon="6.99091">
        <ele>1438</ele>
        <time>2022-07-26T06:55:58Z</time>
      </trkpt>
      <trkpt lat="44.09359" lon="6.99093">
        <ele>1438</ele>
        <time>2022-07-26T06:55:59Z</time>
      </trkpt>
      <trkpt lat="44.0936" lon="6.99095">
        <ele>1438</ele>
        <time>2022-07-26T06:56:00Z</time>
      </trkpt>
      <trkpt lat="44.09361" lon="6.99096">
        <ele>1438</ele>
        <time>2022-07-26T06:56:01Z</time>
      </trkpt>
      <trkpt lat="44.09362" lon="6.99098">
        <ele>1438</ele>
        <time>2022-07-26T06:56:02Z</time>
      </trkpt>
      <trkpt lat="44.09362" lon="6.99101">
        <ele>1438</ele>
        <time>2022-07-26T06:56:03Z</time>
      </trkpt>
      <trkpt lat="44.09362" lon="6.99103">
        <ele>1438</ele>
        <time>2022-07-26T06:56:04Z</time>
      </trkpt>
      <trkpt lat="44.09362" lon="6.99106">
        <ele>1438</ele>
        <time>2022-07-26T06:56:05Z</time>
      </trkpt>
      <trkpt lat="44.09361" lon="6.99109">
        <ele>1438</ele>
        <time>2022-07-26T06:56:06Z</time>
      </trkpt>
      <trkpt lat="44.09361" lon="6.99111">
        <ele>1438</ele>
        <time>2022-07-26T06:56:07Z</time>
      </trkpt>
      <trkpt lat="44.09361" lon="6.99114">
        <ele>1438</ele>
        <time>2022-07-26T06:56:08Z</time>
      </trkpt>
      <trkpt lat="44.09361" lon="6.99116">
        <ele>1438</ele>
        <time>2022-07-26T06:56:09Z</time>
      </trkpt>
      <trkpt lat="44.09361" lon="6.99118">
        <ele>1438</ele>
        <time>2022-07-26T06:56:10Z</time>
      </trkpt>
      <trkpt lat="44.09361" lon="6.9912">
        <ele>1438</ele>
        <time>2022-07-26T06:56:11Z</time>
      </trkpt>
      <trkpt lat="44.09362" lon="6.99122">
        <ele>1438</ele>
        <time>2022-07-26T06:56:12Z</time>
      </trkpt>
      <trkpt lat="44.09362" lon="6.99124">
        <ele>1438</ele>
        <time>2022-07-26T06:56:13Z</time>
      </trkpt>
      <trkpt lat="44.09362" lon="6.99126">
        <ele>1438</ele>
        <time>2022-07-26T06:56:14Z</time>
      </trkpt>
      <trkpt lat="44.09363" lon="6.99128">
        <ele>1438</ele>
        <time>2022-07-26T06:56:15Z</time>
      </trkpt>
      <trkpt lat="44.09363" lon="6.9913">
        <ele>1438</ele>
        <time>2022-07-26T06:56:16Z</time>
      </trkpt>
      <trkpt lat="44.09363" lon="6.99132">
        <ele>1439</ele>
        <time>2022-07-26T06:56:17Z</time>
      </trkpt>
      <trkpt lat="44.09363" lon="6.99134">
        <ele>1439</ele>
        <time>2022-07-26T06:56:18Z</time>
      </trkpt>
      <trkpt lat="44.09364" lon="6.99136">
        <ele>1439</ele>
        <time>2022-07-26T06:56:19Z</time>
      </trkpt>
      <trkpt lat="44.09364" lon="6.99138">
        <ele>1439</ele>
        <time>2022-07-26T06:56:20Z</time>
      </trkpt>
      <trkpt lat="44.09364" lon="6.99139">
        <ele>1439</ele>
        <time>2022-07-26T06:56:21Z</time>
      </trkpt>
      <trkpt lat="44.09364" lon="6.99141">
        <ele>1439</ele>
        <time>2022-07-26T06:56:22Z</time>
      </trkpt>
      <trkpt lat="44.09364" lon="6.99143">
        <ele>1439</ele>
        <time>2022-07-26T06:56:23Z</time>
      </trkpt>
      <trkpt lat="44.09365" lon="6.99144">
        <ele>1439</ele>
        <time>2022-07-26T06:56:24Z</time>
      </trkpt>
      <trkpt lat="44.09365" lon="6.99146">
        <ele>1439</ele>
        <time>2022-07-26T06:56:25Z</time>
      </trkpt>
      <trkpt lat="44.09365" lon="6.99148">
        <ele>1439</ele>
        <time>2022-07-26T06:56:26Z</time>
      </trkpt>
      <trkpt lat="44.09365" lon="6.9915">
        <ele>1439</ele>
        <time>2022-07-26T06:56:27Z</time>
      </trkpt>
      <trkpt lat="44.09365" lon="6.99152">
        <ele>1439</ele>
        <time>2022-07-26T06:56:28Z</time>
      </trkpt>
      <trkpt lat="44.09365" lon="6.99153">
        <ele>1439</ele>
        <time>2022-07-26T06:56:29Z</time>
      </trkpt>
      <trkpt lat="44.09365" lon="6.99155">
        <ele>1439</ele>
        <time>2022-07-26T06:56:30Z</time>
      </trkpt>
      <trkpt lat="44.09366" lon="6.99157">
        <ele>1439</ele>
        <time>2022-07-26T06:56:31Z</time>
      </trkpt>
      <trkpt lat="44.09366" lon="6.99158">
        <ele>1439</ele>
        <time>2022-07-26T06:56:32Z</time>
      </trkpt>
      <trkpt lat="44.09366" lon="6.9916">
        <ele>1439</ele>
        <time>2022-07-26T06:56:33Z</time>
      </trkpt>
      <trkpt lat="44.09367" lon="6.99161">
        <ele>1439</ele>
        <time>2022-07-26T06:56:34Z</time>
      </trkpt>
      <trkpt lat="44.09367" lon="6.99163">
        <ele>1439</ele>
        <time>2022-07-26T06:56:35Z</time>
      </trkpt>
      <trkpt lat="44.09367" lon="6.99164">
        <ele>1439</ele>
        <time>2022-07-26T06:56:36Z</time>
      </trkpt>
      <trkpt lat="44.09368" lon="6.99166">
        <ele>1439</ele>
        <time>2022-07-26T06:56:37Z</time>
      </trkpt>
      <trkpt lat="44.09368" lon="6.99167">
        <ele>1439</ele>
        <time>2022-07-26T06:56:38Z</time>
      </trkpt>
      <trkpt lat="44.09368" lon="6.99169">
        <ele>1439</ele>
        <time>2022-07-26T06:56:39Z</time>
      </trkpt>
      <trkpt lat="44.09369" lon="6.9917">
        <ele>1439</ele>
        <time>2022-07-26T06:56:40Z</time>
      </trkpt>
      <trkpt lat="44.09369" lon="6.99171">
        <ele>1439</ele>
        <time>2022-07-26T06:56:41Z</time>
      </trkpt>
      <trkpt lat="44.09369" lon="6.99173">
        <ele>1439</ele>
        <time>2022-07-26T06:56:42Z</time>
      </trkpt>
      <trkpt lat="44.09369" lon="6.99174">
        <ele>1439</ele>
        <time>2022-07-26T06:56:43Z</time>
      </trkpt>
      <trkpt lat="44.09369" lon="6.99175">
        <ele>1439</ele>
        <time>2022-07-26T06:56:44Z</time>
      </trkpt>
      <trkpt lat="44.0937" lon="6.99177">
        <ele>1439</ele>
        <time>2022-07-26T06:56:45Z</time>
      </trkpt>
      <trkpt lat="44.0937" lon="6.99178">
        <ele>1439</ele>
        <time>2022-07-26T06:56:46Z</time>
      </trkpt>
      <trkpt lat="44.0937" lon="6.99179">
        <ele>1440</ele>
        <time>2022-07-26T06:56:47Z</time>
      </trkpt>
      <trkpt lat="44.0937" lon="6.99181">
        <ele>1440</ele>
        <time>2022-07-26T06:56:48Z</time>
      </trkpt>
      <trkpt lat="44.0937" lon="6.99182">
        <ele>1440</ele>
        <time>2022-07-26T06:56:49Z</time>
      </trkpt>
      <trkpt lat="44.0937" lon="6.99183">
        <ele>1440</ele>
        <time>2022-07-26T06:56:50Z</time>
      </trkpt>
      <trkpt lat="44.09371" lon="6.99185">
        <ele>1440</ele>
        <time>2022-07-26T06:56:51Z</time>
      </trkpt>
      <trkpt lat="44.0937" lon="6.99185">
        <ele>1440</ele>
        <time>2022-07-26T06:57:04Z</time>
      </trkpt>
      <trkpt lat="44.0937" lon="6.99185">
        <ele>1440</ele>
        <time>2022-07-26T06:57:05Z</time>
      </trkpt>
      <trkpt lat="44.09369" lon="6.99186">
        <ele>1440</ele>
        <time>2022-07-26T06:57:06Z</time>
      </trkpt>
      <trkpt lat="44.09369" lon="6.99186">
        <ele>1441</ele>
        <time>2022-07-26T06:57:07Z</time>
      </trkpt>
      <trkpt lat="44.09368" lon="6.99186">
        <ele>1440</ele>
        <time>2022-07-26T06:57:08Z</time>
      </trkpt>
      <trkpt lat="44.09368" lon="6.99187">
        <ele>1440</ele>
        <time>2022-07-26T06:57:09Z</time>
      </trkpt>
      <trkpt lat="44.09367" lon="6.99188">
        <ele>1440</ele>
        <time>2022-07-26T06:57:10Z</time>
      </trkpt>
      <trkpt lat="44.09367" lon="6.99188">
        <ele>1440</ele>
        <time>2022-07-26T06:57:11Z</time>
      </trkpt>
      <trkpt lat="44.09367" lon="6.99189">
        <ele>1440</ele>
        <time>2022-07-26T06:57:12Z</time>
      </trkpt>
      <trkpt lat="44.09366" lon="6.99191">
        <ele>1440</ele>
        <time>2022-07-26T06:57:13Z</time>
      </trkpt>
      <trkpt lat="44.09366" lon="6.99191">
        <ele>1440</ele>
        <time>2022-07-26T06:57:14Z</time>
      </trkpt>
      <trkpt lat="44.09366" lon="6.99192">
        <ele>1440</ele>
        <time>2022-07-26T06:57:15Z</time>
      </trkpt>
      <trkpt lat="44.09367" lon="6.99193">
        <ele>1440</ele>
        <time>2022-07-26T06:57:16Z</time>
      </trkpt>
      <trkpt lat="44.09367" lon="6.99194">
        <ele>1440</ele>
        <time>2022-07-26T06:57:17Z</time>
      </trkpt>
      <trkpt lat="44.09367" lon="6.99195">
        <ele>1440</ele>
        <time>2022-07-26T06:57:18Z</time>
      </trkpt>
      <trkpt lat="44.09367" lon="6.99195">
        <ele>1440</ele>
        <time>2022-07-26T06:57:19Z</time>
      </trkpt>
      <trkpt lat="44.09368" lon="6.99197">
        <ele>1440</ele>
        <time>2022-07-26T06:57:20Z</time>
      </trkpt>
      <trkpt lat="44.09368" lon="6.99198">
        <ele>1440</ele>
        <time>2022-07-26T06:57:21Z</time>
      </trkpt>
      <trkpt lat="44.09369" lon="6.99199">
        <ele>1440</ele>
        <time>2022-07-26T06:57:22Z</time>
      </trkpt>
      <trkpt lat="44.09369" lon="6.99201">
        <ele>1439</ele>
        <time>2022-07-26T06:57:23Z</time>
      </trkpt>
      <trkpt lat="44.09369" lon="6.99202">
        <ele>1439</ele>
        <time>2022-07-26T06:57:24Z</time>
      </trkpt>
      <trkpt lat="44.09369" lon="6.99204">
        <ele>1439</ele>
        <time>2022-07-26T06:57:25Z</time>
      </trkpt>
      <trkpt lat="44.09369" lon="6.99205">
        <ele>1439</ele>
        <time>2022-07-26T06:57:26Z</time>
      </trkpt>
      <trkpt lat="44.09368" lon="6.99206">
        <ele>1439</ele>
        <time>2022-07-26T06:57:27Z</time>
      </trkpt>
      <trkpt lat="44.09367" lon="6.99206">
        <ele>1438</ele>
        <time>2022-07-26T06:57:28Z</time>
      </trkpt>
      <trkpt lat="44.09366" lon="6.99207">
        <ele>1438</ele>
        <time>2022-07-26T06:57:29Z</time>
      </trkpt>
      <trkpt lat="44.09365" lon="6.99207">
        <ele>1438</ele>
        <time>2022-07-26T06:57:30Z</time>
      </trkpt>
      <trkpt lat="44.09363" lon="6.99208">
        <ele>1438</ele>
        <time>2022-07-26T06:57:31Z</time>
      </trkpt>
      <trkpt lat="44.09361" lon="6.99208">
        <ele>1435</ele>
        <time>2022-07-26T06:57:41Z</time>
      </trkpt>
      <trkpt lat="44.0936" lon="6.99209">
        <ele>1435</ele>
        <time>2022-07-26T06:57:42Z</time>
      </trkpt>
      <trkpt lat="44.09359" lon="6.9921">
        <ele>1435</ele>
        <time>2022-07-26T06:57:43Z</time>
      </trkpt>
      <trkpt lat="44.09358" lon="6.9921">
        <ele>1435</ele>
        <time>2022-07-26T06:57:44Z</time>
      </trkpt>
      <trkpt lat="44.09357" lon="6.99211">
        <ele>1435</ele>
        <time>2022-07-26T06:57:45Z</time>
      </trkpt>
      <trkpt lat="44.09357" lon="6.99211">
        <ele>1435</ele>
        <time>2022-07-26T06:57:46Z</time>
      </trkpt>
      <trkpt lat="44.09357" lon="6.99211">
        <ele>1435</ele>
        <time>2022-07-26T06:57:47Z</time>
      </trkpt>
      <trkpt lat="44.09356" lon="6.99211">
        <ele>1434</ele>
        <time>2022-07-26T06:57:48Z</time>
      </trkpt>
      <trkpt lat="44.09355" lon="6.99212">
        <ele>1434</ele>
        <time>2022-07-26T06:57:49Z</time>
      </trkpt>
      <trkpt lat="44.09355" lon="6.99212">
        <ele>1434</ele>
        <time>2022-07-26T06:57:50Z</time>
      </trkpt>
      <trkpt lat="44.09354" lon="6.99213">
        <ele>1434</ele>
        <time>2022-07-26T06:57:51Z</time>
      </trkpt>
      <trkpt lat="44.09354" lon="6.99213">
        <ele>1434</ele>
        <time>2022-07-26T06:57:52Z</time>
      </trkpt>
      <trkpt lat="44.09353" lon="6.99214">
        <ele>1434</ele>
        <time>2022-07-26T06:57:53Z</time>
      </trkpt>
      <trkpt lat="44.09352" lon="6.99214">
        <ele>1434</ele>
        <time>2022-07-26T06:57:54Z</time>
      </trkpt>
      <trkpt lat="44.09352" lon="6.99214">
        <ele>1434</ele>
        <time>2022-07-26T06:57:55Z</time>
      </trkpt>
      <trkpt lat="44.09351" lon="6.99214">
        <ele>1434</ele>
        <time>2022-07-26T06:57:56Z</time>
      </trkpt>
      <trkpt lat="44.0935" lon="6.99215">
        <ele>1434</ele>
        <time>2022-07-26T06:57:57Z</time>
      </trkpt>
      <trkpt lat="44.0935" lon="6.99215">
        <ele>1433</ele>
        <time>2022-07-26T06:57:58Z</time>
      </trkpt>
      <trkpt lat="44.0935" lon="6.99216">
        <ele>1433</ele>
        <time>2022-07-26T06:57:59Z</time>
      </trkpt>
      <trkpt lat="44.0935" lon="6.99216">
        <ele>1433</ele>
        <time>2022-07-26T06:58:00Z</time>
      </trkpt>
      <trkpt lat="44.0935" lon="6.99217">
        <ele>1433</ele>
        <time>2022-07-26T06:58:01Z</time>
      </trkpt>
      <trkpt lat="44.09351" lon="6.99218">
        <ele>1433</ele>
        <time>2022-07-26T06:58:02Z</time>
      </trkpt>
      <trkpt lat="44.09352" lon="6.99219">
        <ele>1432</ele>
        <time>2022-07-26T06:58:03Z</time>
      </trkpt>
      <trkpt lat="44.09353" lon="6.99219">
        <ele>1432</ele>
        <time>2022-07-26T06:58:04Z</time>
      </trkpt>
      <trkpt lat="44.09354" lon="6.9922">
        <ele>1432</ele>
        <time>2022-07-26T06:58:05Z</time>
      </trkpt>
      <trkpt lat="44.09355" lon="6.99221">
        <ele>1432</ele>
        <time>2022-07-26T06:58:06Z</time>
      </trkpt>
      <trkpt lat="44.09356" lon="6.99222">
        <ele>1432</ele>
        <time>2022-07-26T06:58:07Z</time>
      </trkpt>
      <trkpt lat="44.09357" lon="6.99223">
        <ele>1431</ele>
        <time>2022-07-26T06:58:08Z</time>
      </trkpt>
      <trkpt lat="44.09358" lon="6.99224">
        <ele>1431</ele>
        <time>2022-07-26T06:58:09Z</time>
      </trkpt>
      <trkpt lat="44.09359" lon="6.99224">
        <ele>1431</ele>
        <time>2022-07-26T06:58:10Z</time>
      </trkpt>
      <trkpt lat="44.09359" lon="6.99225">
        <ele>1431</ele>
        <time>2022-07-26T06:58:11Z</time>
      </trkpt>
      <trkpt lat="44.0936" lon="6.99226">
        <ele>1431</ele>
        <time>2022-07-26T06:58:12Z</time>
      </trkpt>
      <trkpt lat="44.0936" lon="6.99226">
        <ele>1430</ele>
        <time>2022-07-26T06:58:13Z</time>
      </trkpt>
      <trkpt lat="44.0936" lon="6.99227">
        <ele>1430</ele>
        <time>2022-07-26T06:58:14Z</time>
      </trkpt>
      <trkpt lat="44.09359" lon="6.99227">
        <ele>1430</ele>
        <time>2022-07-26T06:58:15Z</time>
      </trkpt>
      <trkpt lat="44.09359" lon="6.99228">
        <ele>1430</ele>
        <time>2022-07-26T06:58:16Z</time>
      </trkpt>
      <trkpt lat="44.09358" lon="6.99228">
        <ele>1430</ele>
        <time>2022-07-26T06:58:17Z</time>
      </trkpt>
      <trkpt lat="44.09358" lon="6.99228">
        <ele>1429</ele>
        <time>2022-07-26T06:58:18Z</time>
      </trkpt>
      <trkpt lat="44.09358" lon="6.99228">
        <ele>1429</ele>
        <time>2022-07-26T06:58:19Z</time>
      </trkpt>
      <trkpt lat="44.09358" lon="6.99228">
        <ele>1429</ele>
        <time>2022-07-26T06:58:20Z</time>
      </trkpt>
      <trkpt lat="44.09357" lon="6.99228">
        <ele>1429</ele>
        <time>2022-07-26T06:58:21Z</time>
      </trkpt>
      <trkpt lat="44.09356" lon="6.99228">
        <ele>1429</ele>
        <time>2022-07-26T06:58:22Z</time>
      </trkpt>
      <trkpt lat="44.09355" lon="6.99228">
        <ele>1428</ele>
        <time>2022-07-26T06:58:23Z</time>
      </trkpt>
      <trkpt lat="44.09354" lon="6.99228">
        <ele>1428</ele>
        <time>2022-07-26T06:58:24Z</time>
      </trkpt>
      <trkpt lat="44.09353" lon="6.99228">
        <ele>1428</ele>
        <time>2022-07-26T06:58:25Z</time>
      </trkpt>
      <trkpt lat="44.09352" lon="6.99228">
        <ele>1428</ele>
        <time>2022-07-26T06:58:26Z</time>
      </trkpt>
      <trkpt lat="44.09352" lon="6.99229">
        <ele>1428</ele>
        <time>2022-07-26T06:58:27Z</time>
      </trkpt>
      <trkpt lat="44.09351" lon="6.99229">
        <ele>1427</ele>
        <time>2022-07-26T06:58:28Z</time>
      </trkpt>
      <trkpt lat="44.09351" lon="6.99229">
        <ele>1427</ele>
        <time>2022-07-26T06:58:29Z</time>
      </trkpt>
      <trkpt lat="44.0935" lon="6.99229">
        <ele>1427</ele>
        <time>2022-07-26T06:58:30Z</time>
      </trkpt>
      <trkpt lat="44.09349" lon="6.99229">
        <ele>1427</ele>
        <time>2022-07-26T06:58:31Z</time>
      </trkpt>
      <trkpt lat="44.09349" lon="6.99229">
        <ele>1427</ele>
        <time>2022-07-26T06:58:32Z</time>
      </trkpt>
      <trkpt lat="44.09348" lon="6.99229">
        <ele>1426</ele>
        <time>2022-07-26T06:58:33Z</time>
      </trkpt>
      <trkpt lat="44.09348" lon="6.99229">
        <ele>1426</ele>
        <time>2022-07-26T06:58:34Z</time>
      </trkpt>
      <trkpt lat="44.09347" lon="6.9923">
        <ele>1426</ele>
        <time>2022-07-26T06:58:35Z</time>
      </trkpt>
      <trkpt lat="44.09347" lon="6.99231">
        <ele>1426</ele>
        <time>2022-07-26T06:58:36Z</time>
      </trkpt>
      <trkpt lat="44.09347" lon="6.99232">
        <ele>1426</ele>
        <time>2022-07-26T06:58:37Z</time>
      </trkpt>
      <trkpt lat="44.09347" lon="6.99233">
        <ele>1425</ele>
        <time>2022-07-26T06:58:38Z</time>
      </trkpt>
      <trkpt lat="44.09348" lon="6.99235">
        <ele>1425</ele>
        <time>2022-07-26T06:58:39Z</time>
      </trkpt>
      <trkpt lat="44.09348" lon="6.99236">
        <ele>1425</ele>
        <time>2022-07-26T06:58:40Z</time>
      </trkpt>
      <trkpt lat="44.09349" lon="6.99237">
        <ele>1425</ele>
        <time>2022-07-26T06:58:41Z</time>
      </trkpt>
      <trkpt lat="44.09349" lon="6.99238">
        <ele>1425</ele>
        <time>2022-07-26T06:58:42Z</time>
      </trkpt>
      <trkpt lat="44.09349" lon="6.99239">
        <ele>1424</ele>
        <time>2022-07-26T06:58:43Z</time>
      </trkpt>
      <trkpt lat="44.09349" lon="6.9924">
        <ele>1424</ele>
        <time>2022-07-26T06:58:44Z</time>
      </trkpt>
      <trkpt lat="44.09348" lon="6.99241">
        <ele>1424</ele>
        <time>2022-07-26T06:58:45Z</time>
      </trkpt>
      <trkpt lat="44.09348" lon="6.99241">
        <ele>1424</ele>
        <time>2022-07-26T06:58:46Z</time>
      </trkpt>
      <trkpt lat="44.09347" lon="6.99241">
        <ele>1424</ele>
        <time>2022-07-26T06:58:47Z</time>
      </trkpt>
      <trkpt lat="44.09346" lon="6.99241">
        <ele>1423</ele>
        <time>2022-07-26T06:58:48Z</time>
      </trkpt>
      <trkpt lat="44.09345" lon="6.99241">
        <ele>1423</ele>
        <time>2022-07-26T06:58:49Z</time>
      </trkpt>
      <trkpt lat="44.09344" lon="6.99242">
        <ele>1423</ele>
        <time>2022-07-26T06:58:50Z</time>
      </trkpt>
      <trkpt lat="44.09343" lon="6.99242">
        <ele>1423</ele>
        <time>2022-07-26T06:58:51Z</time>
      </trkpt>
      <trkpt lat="44.09342" lon="6.99241">
        <ele>1423</ele>
        <time>2022-07-26T06:58:52Z</time>
      </trkpt>
      <trkpt lat="44.09341" lon="6.99241">
        <ele>1422</ele>
        <time>2022-07-26T06:58:53Z</time>
      </trkpt>
      <trkpt lat="44.09341" lon="6.9924">
        <ele>1422</ele>
        <time>2022-07-26T06:58:54Z</time>
      </trkpt>
      <trkpt lat="44.0934" lon="6.99239">
        <ele>1422</ele>
        <time>2022-07-26T06:58:55Z</time>
      </trkpt>
      <trkpt lat="44.09339" lon="6.99238">
        <ele>1422</ele>
        <time>2022-07-26T06:58:56Z</time>
      </trkpt>
      <trkpt lat="44.09339" lon="6.99236">
        <ele>1422</ele>
        <time>2022-07-26T06:58:57Z</time>
      </trkpt>
      <trkpt lat="44.09338" lon="6.99235">
        <ele>1421</ele>
        <time>2022-07-26T06:58:58Z</time>
      </trkpt>
      <trkpt lat="44.09338" lon="6.99233">
        <ele>1421</ele>
        <time>2022-07-26T06:58:59Z</time>
      </trkpt>
      <trkpt lat="44.09338" lon="6.99233">
        <ele>1421</ele>
        <time>2022-07-26T06:59:00Z</time>
      </trkpt>
      <trkpt lat="44.09338" lon="6.99232">
        <ele>1421</ele>
        <time>2022-07-26T06:59:01Z</time>
      </trkpt>
      <trkpt lat="44.09337" lon="6.99231">
        <ele>1421</ele>
        <time>2022-07-26T06:59:02Z</time>
      </trkpt>
      <trkpt lat="44.09337" lon="6.99231">
        <ele>1420</ele>
        <time>2022-07-26T06:59:03Z</time>
      </trkpt>
      <trkpt lat="44.09337" lon="6.9923">
        <ele>1420</ele>
        <time>2022-07-26T06:59:04Z</time>
      </trkpt>
      <trkpt lat="44.09336" lon="6.99229">
        <ele>1419</ele>
        <time>2022-07-26T06:59:05Z</time>
      </trkpt>
      <trkpt lat="44.09336" lon="6.99229">
        <ele>1419</ele>
        <time>2022-07-26T06:59:06Z</time>
      </trkpt>
      <trkpt lat="44.09336" lon="6.99228">
        <ele>1419</ele>
        <time>2022-07-26T06:59:07Z</time>
      </trkpt>
      <trkpt lat="44.09336" lon="6.99228">
        <ele>1418</ele>
        <time>2022-07-26T06:59:08Z</time>
      </trkpt>
      <trkpt lat="44.09335" lon="6.99227">
        <ele>1418</ele>
        <time>2022-07-26T06:59:09Z</time>
      </trkpt>
      <trkpt lat="44.09335" lon="6.99226">
        <ele>1418</ele>
        <time>2022-07-26T06:59:10Z</time>
      </trkpt>
      <trkpt lat="44.09334" lon="6.99226">
        <ele>1418</ele>
        <time>2022-07-26T06:59:11Z</time>
      </trkpt>
      <trkpt lat="44.09334" lon="6.99225">
        <ele>1418</ele>
        <time>2022-07-26T06:59:12Z</time>
      </trkpt>
      <trkpt lat="44.09334" lon="6.99224">
        <ele>1417</ele>
        <time>2022-07-26T06:59:13Z</time>
      </trkpt>
      <trkpt lat="44.09334" lon="6.99224">
        <ele>1417</ele>
        <time>2022-07-26T06:59:14Z</time>
      </trkpt>
      <trkpt lat="44.09333" lon="6.99223">
        <ele>1417</ele>
        <time>2022-07-26T06:59:15Z</time>
      </trkpt>
      <trkpt lat="44.09333" lon="6.99222">
        <ele>1417</ele>
        <time>2022-07-26T06:59:16Z</time>
      </trkpt>
      <trkpt lat="44.09332" lon="6.99221">
        <ele>1417</ele>
        <time>2022-07-26T06:59:17Z</time>
      </trkpt>
      <trkpt lat="44.09332" lon="6.9922">
        <ele>1416</ele>
        <time>2022-07-26T06:59:18Z</time>
      </trkpt>
      <trkpt lat="44.09331" lon="6.99219">
        <ele>1416</ele>
        <time>2022-07-26T06:59:19Z</time>
      </trkpt>
      <trkpt lat="44.0933" lon="6.99218">
        <ele>1416</ele>
        <time>2022-07-26T06:59:20Z</time>
      </trkpt>
      <trkpt lat="44.0933" lon="6.99217">
        <ele>1416</ele>
        <time>2022-07-26T06:59:21Z</time>
      </trkpt>
      <trkpt lat="44.09329" lon="6.99216">
        <ele>1416</ele>
        <time>2022-07-26T06:59:22Z</time>
      </trkpt>
      <trkpt lat="44.09329" lon="6.99215">
        <ele>1415</ele>
        <time>2022-07-26T06:59:23Z</time>
      </trkpt>
      <trkpt lat="44.09328" lon="6.99214">
        <ele>1415</ele>
        <time>2022-07-26T06:59:24Z</time>
      </trkpt>
      <trkpt lat="44.09328" lon="6.99213">
        <ele>1415</ele>
        <time>2022-07-26T06:59:25Z</time>
      </trkpt>
      <trkpt lat="44.09327" lon="6.99212">
        <ele>1415</ele>
        <time>2022-07-26T06:59:26Z</time>
      </trkpt>
      <trkpt lat="44.09327" lon="6.99211">
        <ele>1415</ele>
        <time>2022-07-26T06:59:27Z</time>
      </trkpt>
      <trkpt lat="44.09326" lon="6.9921">
        <ele>1414</ele>
        <time>2022-07-26T06:59:28Z</time>
      </trkpt>
      <trkpt lat="44.09325" lon="6.99209">
        <ele>1414</ele>
        <time>2022-07-26T06:59:29Z</time>
      </trkpt>
      <trkpt lat="44.09325" lon="6.99208">
        <ele>1414</ele>
        <time>2022-07-26T06:59:30Z</time>
      </trkpt>
      <trkpt lat="44.09324" lon="6.99207">
        <ele>1414</ele>
        <time>2022-07-26T06:59:31Z</time>
      </trkpt>
      <trkpt lat="44.09323" lon="6.99206">
        <ele>1414</ele>
        <time>2022-07-26T06:59:32Z</time>
      </trkpt>
      <trkpt lat="44.09323" lon="6.99206">
        <ele>1413</ele>
        <time>2022-07-26T06:59:33Z</time>
      </trkpt>
      <trkpt lat="44.09322" lon="6.99205">
        <ele>1413</ele>
        <time>2022-07-26T06:59:34Z</time>
      </trkpt>
      <trkpt lat="44.09321" lon="6.99204">
        <ele>1413</ele>
        <time>2022-07-26T06:59:35Z</time>
      </trkpt>
      <trkpt lat="44.09321" lon="6.99203">
        <ele>1413</ele>
        <time>2022-07-26T06:59:36Z</time>
      </trkpt>
      <trkpt lat="44.0932" lon="6.99202">
        <ele>1413</ele>
        <time>2022-07-26T06:59:37Z</time>
      </trkpt>
      <trkpt lat="44.0932" lon="6.99201">
        <ele>1412</ele>
        <time>2022-07-26T06:59:38Z</time>
      </trkpt>
      <trkpt lat="44.0932" lon="6.992">
        <ele>1412</ele>
        <time>2022-07-26T06:59:39Z</time>
      </trkpt>
      <trkpt lat="44.0932" lon="6.99199">
        <ele>1412</ele>
        <time>2022-07-26T06:59:40Z</time>
      </trkpt>
      <trkpt lat="44.0932" lon="6.99198">
        <ele>1412</ele>
        <time>2022-07-26T06:59:41Z</time>
      </trkpt>
      <trkpt lat="44.09319" lon="6.99197">
        <ele>1412</ele>
        <time>2022-07-26T06:59:42Z</time>
      </trkpt>
      <trkpt lat="44.09319" lon="6.99195">
        <ele>1411</ele>
        <time>2022-07-26T06:59:43Z</time>
      </trkpt>
      <trkpt lat="44.09319" lon="6.99194">
        <ele>1411</ele>
        <time>2022-07-26T06:59:44Z</time>
      </trkpt>
      <trkpt lat="44.09319" lon="6.99193">
        <ele>1411</ele>
        <time>2022-07-26T06:59:45Z</time>
      </trkpt>
      <trkpt lat="44.09319" lon="6.99192">
        <ele>1411</ele>
        <time>2022-07-26T06:59:46Z</time>
      </trkpt>
      <trkpt lat="44.09318" lon="6.9919">
        <ele>1411</ele>
        <time>2022-07-26T06:59:47Z</time>
      </trkpt>
      <trkpt lat="44.09318" lon="6.99189">
        <ele>1410</ele>
        <time>2022-07-26T06:59:48Z</time>
      </trkpt>
      <trkpt lat="44.09318" lon="6.99188">
        <ele>1410</ele>
        <time>2022-07-26T06:59:49Z</time>
      </trkpt>
      <trkpt lat="44.09318" lon="6.99187">
        <ele>1410</ele>
        <time>2022-07-26T06:59:50Z</time>
      </trkpt>
      <trkpt lat="44.09317" lon="6.99186">
        <ele>1410</ele>
        <time>2022-07-26T06:59:51Z</time>
      </trkpt>
      <trkpt lat="44.09317" lon="6.99185">
        <ele>1410</ele>
        <time>2022-07-26T06:59:52Z</time>
      </trkpt>
      <trkpt lat="44.09317" lon="6.99184">
        <ele>1409</ele>
        <time>2022-07-26T06:59:53Z</time>
      </trkpt>
      <trkpt lat="44.09316" lon="6.99183">
        <ele>1409</ele>
        <time>2022-07-26T06:59:54Z</time>
      </trkpt>
      <trkpt lat="44.09316" lon="6.99182">
        <ele>1409</ele>
        <time>2022-07-26T06:59:55Z</time>
      </trkpt>
      <trkpt lat="44.09316" lon="6.9918">
        <ele>1409</ele>
        <time>2022-07-26T06:59:56Z</time>
      </trkpt>
      <trkpt lat="44.09316" lon="6.99179">
        <ele>1409</ele>
        <time>2022-07-26T06:59:57Z</time>
      </trkpt>
      <trkpt lat="44.09316" lon="6.99178">
        <ele>1408</ele>
        <time>2022-07-26T06:59:58Z</time>
      </trkpt>
      <trkpt lat="44.09316" lon="6.99176">
        <ele>1408</ele>
        <time>2022-07-26T06:59:59Z</time>
      </trkpt>
      <trkpt lat="44.09316" lon="6.99175">
        <ele>1408</ele>
        <time>2022-07-26T07:00:00Z</time>
      </trkpt>
      <trkpt lat="44.09316" lon="6.99174">
        <ele>1408</ele>
        <time>2022-07-26T07:00:01Z</time>
      </trkpt>
      <trkpt lat="44.09317" lon="6.99173">
        <ele>1408</ele>
        <time>2022-07-26T07:00:02Z</time>
      </trkpt>
      <trkpt lat="44.09317" lon="6.99173">
        <ele>1407</ele>
        <time>2022-07-26T07:00:03Z</time>
      </trkpt>
      <trkpt lat="44.09318" lon="6.99171">
        <ele>1407</ele>
        <time>2022-07-26T07:00:04Z</time>
      </trkpt>
      <trkpt lat="44.09319" lon="6.9917">
        <ele>1407</ele>
        <time>2022-07-26T07:00:05Z</time>
      </trkpt>
      <trkpt lat="44.09319" lon="6.99169">
        <ele>1407</ele>
        <time>2022-07-26T07:00:06Z</time>
      </trkpt>
      <trkpt lat="44.0932" lon="6.99168">
        <ele>1407</ele>
        <time>2022-07-26T07:00:07Z</time>
      </trkpt>
      <trkpt lat="44.0932" lon="6.99167">
        <ele>1406</ele>
        <time>2022-07-26T07:00:08Z</time>
      </trkpt>
      <trkpt lat="44.0932" lon="6.99166">
        <ele>1406</ele>
        <time>2022-07-26T07:00:09Z</time>
      </trkpt>
      <trkpt lat="44.0932" lon="6.99164">
        <ele>1406</ele>
        <time>2022-07-26T07:00:10Z</time>
      </trkpt>
      <trkpt lat="44.0932" lon="6.99163">
        <ele>1406</ele>
        <time>2022-07-26T07:00:11Z</time>
      </trkpt>
      <trkpt lat="44.0932" lon="6.99162">
        <ele>1406</ele>
        <time>2022-07-26T07:00:12Z</time>
      </trkpt>
      <trkpt lat="44.0932" lon="6.99161">
        <ele>1406</ele>
        <time>2022-07-26T07:00:13Z</time>
      </trkpt>
      <trkpt lat="44.0932" lon="6.99159">
        <ele>1406</ele>
        <time>2022-07-26T07:00:14Z</time>
      </trkpt>
      <trkpt lat="44.0932" lon="6.99158">
        <ele>1406</ele>
        <time>2022-07-26T07:00:15Z</time>
      </trkpt>
      <trkpt lat="44.0932" lon="6.99156">
        <ele>1406</ele>
        <time>2022-07-26T07:00:16Z</time>
      </trkpt>
      <trkpt lat="44.0932" lon="6.99155">
        <ele>1406</ele>
        <time>2022-07-26T07:00:17Z</time>
      </trkpt>
      <trkpt lat="44.0932" lon="6.99153">
        <ele>1405</ele>
        <time>2022-07-26T07:00:18Z</time>
      </trkpt>
      <trkpt lat="44.09319" lon="6.99152">
        <ele>1405</ele>
        <time>2022-07-26T07:00:19Z</time>
      </trkpt>
      <trkpt lat="44.09319" lon="6.99151">
        <ele>1404</ele>
        <time>2022-07-26T07:00:20Z</time>
      </trkpt>
      <trkpt lat="44.09319" lon="6.9915">
        <ele>1404</ele>
        <time>2022-07-26T07:00:21Z</time>
      </trkpt>
      <trkpt lat="44.09319" lon="6.99149">
        <ele>1404</ele>
        <time>2022-07-26T07:00:22Z</time>
      </trkpt>
      <trkpt lat="44.09319" lon="6.99148">
        <ele>1403</ele>
        <time>2022-07-26T07:00:23Z</time>
      </trkpt>
      <trkpt lat="44.09319" lon="6.99147">
        <ele>1403</ele>
        <time>2022-07-26T07:00:24Z</time>
      </trkpt>
      <trkpt lat="44.09319" lon="6.99146">
        <ele>1402</ele>
        <time>2022-07-26T07:00:25Z</time>
      </trkpt>
      <trkpt lat="44.09319" lon="6.99146">
        <ele>1402</ele>
        <time>2022-07-26T07:00:26Z</time>
      </trkpt>
      <trkpt lat="44.09319" lon="6.99145">
        <ele>1402</ele>
        <time>2022-07-26T07:00:27Z</time>
      </trkpt>
      <trkpt lat="44.09319" lon="6.99144">
        <ele>1401</ele>
        <time>2022-07-26T07:00:28Z</time>
      </trkpt>
      <trkpt lat="44.09319" lon="6.99143">
        <ele>1401</ele>
        <time>2022-07-26T07:00:29Z</time>
      </trkpt>
      <trkpt lat="44.09319" lon="6.99142">
        <ele>1401</ele>
        <time>2022-07-26T07:00:30Z</time>
      </trkpt>
      <trkpt lat="44.09319" lon="6.99141">
        <ele>1401</ele>
        <time>2022-07-26T07:00:31Z</time>
      </trkpt>
      <trkpt lat="44.09319" lon="6.99139">
        <ele>1401</ele>
        <time>2022-07-26T07:00:32Z</time>
      </trkpt>
      <trkpt lat="44.09319" lon="6.99138">
        <ele>1400</ele>
        <time>2022-07-26T07:00:33Z</time>
      </trkpt>
      <trkpt lat="44.09318" lon="6.99137">
        <ele>1400</ele>
        <time>2022-07-26T07:00:34Z</time>
      </trkpt>
      <trkpt lat="44.09317" lon="6.99136">
        <ele>1400</ele>
        <time>2022-07-26T07:00:35Z</time>
      </trkpt>
      <trkpt lat="44.09317" lon="6.99135">
        <ele>1400</ele>
        <time>2022-07-26T07:00:36Z</time>
      </trkpt>
      <trkpt lat="44.09316" lon="6.99135">
        <ele>1400</ele>
        <time>2022-07-26T07:00:37Z</time>
      </trkpt>
      <trkpt lat="44.09315" lon="6.99134">
        <ele>1399</ele>
        <time>2022-07-26T07:00:38Z</time>
      </trkpt>
      <trkpt lat="44.09314" lon="6.99134">
        <ele>1399</ele>
        <time>2022-07-26T07:00:39Z</time>
      </trkpt>
      <trkpt lat="44.09313" lon="6.99133">
        <ele>1399</ele>
        <time>2022-07-26T07:00:40Z</time>
      </trkpt>
      <trkpt lat="44.09312" lon="6.99133">
        <ele>1399</ele>
        <time>2022-07-26T07:00:41Z</time>
      </trkpt>
      <trkpt lat="44.0931" lon="6.99133">
        <ele>1397</ele>
        <time>2022-07-26T07:00:55Z</time>
      </trkpt>
      <trkpt lat="44.09309" lon="6.99133">
        <ele>1397</ele>
        <time>2022-07-26T07:00:56Z</time>
      </trkpt>
      <trkpt lat="44.09308" lon="6.99133">
        <ele>1397</ele>
        <time>2022-07-26T07:00:57Z</time>
      </trkpt>
      <trkpt lat="44.09308" lon="6.99133">
        <ele>1397</ele>
        <time>2022-07-26T07:00:58Z</time>
      </trkpt>
      <trkpt lat="44.09307" lon="6.99134">
        <ele>1397</ele>
        <time>2022-07-26T07:00:59Z</time>
      </trkpt>
      <trkpt lat="44.09307" lon="6.99135">
        <ele>1397</ele>
        <time>2022-07-26T07:01:00Z</time>
      </trkpt>
      <trkpt lat="44.09307" lon="6.99136">
        <ele>1397</ele>
        <time>2022-07-26T07:01:01Z</time>
      </trkpt>
      <trkpt lat="44.09306" lon="6.99137">
        <ele>1397</ele>
        <time>2022-07-26T07:01:02Z</time>
      </trkpt>
      <trkpt lat="44.09306" lon="6.99138">
        <ele>1396</ele>
        <time>2022-07-26T07:01:03Z</time>
      </trkpt>
      <trkpt lat="44.09305" lon="6.9914">
        <ele>1396</ele>
        <time>2022-07-26T07:01:04Z</time>
      </trkpt>
      <trkpt lat="44.09305" lon="6.99141">
        <ele>1396</ele>
        <time>2022-07-26T07:01:05Z</time>
      </trkpt>
      <trkpt lat="44.09305" lon="6.99142">
        <ele>1396</ele>
        <time>2022-07-26T07:01:06Z</time>
      </trkpt>
      <trkpt lat="44.09304" lon="6.99143">
        <ele>1396</ele>
        <time>2022-07-26T07:01:07Z</time>
      </trkpt>
      <trkpt lat="44.09304" lon="6.99145">
        <ele>1395</ele>
        <time>2022-07-26T07:01:08Z</time>
      </trkpt>
      <trkpt lat="44.09303" lon="6.99146">
        <ele>1395</ele>
        <time>2022-07-26T07:01:09Z</time>
      </trkpt>
      <trkpt lat="44.09303" lon="6.99147">
        <ele>1395</ele>
        <time>2022-07-26T07:01:10Z</time>
      </trkpt>
      <trkpt lat="44.09303" lon="6.99148">
        <ele>1395</ele>
        <time>2022-07-26T07:01:11Z</time>
      </trkpt>
      <trkpt lat="44.09302" lon="6.9915">
        <ele>1395</ele>
        <time>2022-07-26T07:01:12Z</time>
      </trkpt>
      <trkpt lat="44.09302" lon="6.99151">
        <ele>1394</ele>
        <time>2022-07-26T07:01:13Z</time>
      </trkpt>
      <trkpt lat="44.09302" lon="6.99153">
        <ele>1394</ele>
        <time>2022-07-26T07:01:14Z</time>
      </trkpt>
      <trkpt lat="44.09302" lon="6.99154">
        <ele>1394</ele>
        <time>2022-07-26T07:01:15Z</time>
      </trkpt>
      <trkpt lat="44.09301" lon="6.99155">
        <ele>1394</ele>
        <time>2022-07-26T07:01:16Z</time>
      </trkpt>
      <trkpt lat="44.09301" lon="6.99157">
        <ele>1394</ele>
        <time>2022-07-26T07:01:17Z</time>
      </trkpt>
      <trkpt lat="44.09301" lon="6.99158">
        <ele>1393</ele>
        <time>2022-07-26T07:01:18Z</time>
      </trkpt>
      <trkpt lat="44.093" lon="6.99159">
        <ele>1393</ele>
        <time>2022-07-26T07:01:19Z</time>
      </trkpt>
      <trkpt lat="44.09299" lon="6.9916">
        <ele>1393</ele>
        <time>2022-07-26T07:01:20Z</time>
      </trkpt>
      <trkpt lat="44.09299" lon="6.99161">
        <ele>1393</ele>
        <time>2022-07-26T07:01:21Z</time>
      </trkpt>
      <trkpt lat="44.09298" lon="6.99162">
        <ele>1393</ele>
        <time>2022-07-26T07:01:22Z</time>
      </trkpt>
      <trkpt lat="44.09297" lon="6.99162">
        <ele>1392</ele>
        <time>2022-07-26T07:01:23Z</time>
      </trkpt>
      <trkpt lat="44.09296" lon="6.99163">
        <ele>1392</ele>
        <time>2022-07-26T07:01:24Z</time>
      </trkpt>
      <trkpt lat="44.09295" lon="6.99163">
        <ele>1392</ele>
        <time>2022-07-26T07:01:25Z</time>
      </trkpt>
      <trkpt lat="44.09294" lon="6.99164">
        <ele>1392</ele>
        <time>2022-07-26T07:01:26Z</time>
      </trkpt>
      <trkpt lat="44.09294" lon="6.99164">
        <ele>1392</ele>
        <time>2022-07-26T07:01:27Z</time>
      </trkpt>
      <trkpt lat="44.09293" lon="6.99165">
        <ele>1391</ele>
        <time>2022-07-26T07:01:28Z</time>
      </trkpt>
      <trkpt lat="44.09292" lon="6.99165">
        <ele>1391</ele>
        <time>2022-07-26T07:01:29Z</time>
      </trkpt>
      <trkpt lat="44.09291" lon="6.99166">
        <ele>1391</ele>
        <time>2022-07-26T07:01:30Z</time>
      </trkpt>
      <trkpt lat="44.0929" lon="6.99166">
        <ele>1391</ele>
        <time>2022-07-26T07:01:31Z</time>
      </trkpt>
      <trkpt lat="44.09289" lon="6.99167">
        <ele>1391</ele>
        <time>2022-07-26T07:01:32Z</time>
      </trkpt>
      <trkpt lat="44.09288" lon="6.99168">
        <ele>1390</ele>
        <time>2022-07-26T07:01:33Z</time>
      </trkpt>
      <trkpt lat="44.09287" lon="6.99169">
        <ele>1390</ele>
        <time>2022-07-26T07:01:34Z</time>
      </trkpt>
      <trkpt lat="44.09286" lon="6.9917">
        <ele>1390</ele>
        <time>2022-07-26T07:01:35Z</time>
      </trkpt>
      <trkpt lat="44.09285" lon="6.99171">
        <ele>1390</ele>
        <time>2022-07-26T07:01:36Z</time>
      </trkpt>
      <trkpt lat="44.09285" lon="6.99172">
        <ele>1390</ele>
        <time>2022-07-26T07:01:37Z</time>
      </trkpt>
      <trkpt lat="44.09284" lon="6.99174">
        <ele>1389</ele>
        <time>2022-07-26T07:01:38Z</time>
      </trkpt>
      <trkpt lat="44.09284" lon="6.99175">
        <ele>1389</ele>
        <time>2022-07-26T07:01:39Z</time>
      </trkpt>
      <trkpt lat="44.09284" lon="6.99176">
        <ele>1389</ele>
        <time>2022-07-26T07:01:40Z</time>
      </trkpt>
      <trkpt lat="44.09283" lon="6.99176">
        <ele>1389</ele>
        <time>2022-07-26T07:01:41Z</time>
      </trkpt>
      <trkpt lat="44.09283" lon="6.99177">
        <ele>1389</ele>
        <time>2022-07-26T07:01:42Z</time>
      </trkpt>
      <trkpt lat="44.09283" lon="6.99178">
        <ele>1388</ele>
        <time>2022-07-26T07:01:43Z</time>
      </trkpt>
      <trkpt lat="44.09283" lon="6.99179">
        <ele>1388</ele>
        <time>2022-07-26T07:01:44Z</time>
      </trkpt>
      <trkpt lat="44.09283" lon="6.9918">
        <ele>1388</ele>
        <time>2022-07-26T07:01:45Z</time>
      </trkpt>
      <trkpt lat="44.09283" lon="6.99182">
        <ele>1388</ele>
        <time>2022-07-26T07:01:46Z</time>
      </trkpt>
      <trkpt lat="44.09282" lon="6.99183">
        <ele>1388</ele>
        <time>2022-07-26T07:01:47Z</time>
      </trkpt>
      <trkpt lat="44.09282" lon="6.99183">
        <ele>1387</ele>
        <time>2022-07-26T07:01:48Z</time>
      </trkpt>
      <trkpt lat="44.09281" lon="6.99184">
        <ele>1387</ele>
        <time>2022-07-26T07:01:49Z</time>
      </trkpt>
      <trkpt lat="44.09281" lon="6.99184">
        <ele>1387</ele>
        <time>2022-07-26T07:01:50Z</time>
      </trkpt>
      <trkpt lat="44.0928" lon="6.99185">
        <ele>1387</ele>
        <time>2022-07-26T07:01:51Z</time>
      </trkpt>
      <trkpt lat="44.0928" lon="6.99185">
        <ele>1387</ele>
        <time>2022-07-26T07:01:52Z</time>
      </trkpt>
      <trkpt lat="44.09279" lon="6.99184">
        <ele>1386</ele>
        <time>2022-07-26T07:01:53Z</time>
      </trkpt>
      <trkpt lat="44.09279" lon="6.99184">
        <ele>1386</ele>
        <time>2022-07-26T07:01:54Z</time>
      </trkpt>
      <trkpt lat="44.09278" lon="6.99183">
        <ele>1386</ele>
        <time>2022-07-26T07:01:55Z</time>
      </trkpt>
      <trkpt lat="44.09278" lon="6.99182">
        <ele>1386</ele>
        <time>2022-07-26T07:01:56Z</time>
      </trkpt>
      <trkpt lat="44.09278" lon="6.99181">
        <ele>1386</ele>
        <time>2022-07-26T07:01:57Z</time>
      </trkpt>
      <trkpt lat="44.09278" lon="6.9918">
        <ele>1385</ele>
        <time>2022-07-26T07:01:58Z</time>
      </trkpt>
      <trkpt lat="44.09278" lon="6.99178">
        <ele>1385</ele>
        <time>2022-07-26T07:01:59Z</time>
      </trkpt>
      <trkpt lat="44.09278" lon="6.99176">
        <ele>1384</ele>
        <time>2022-07-26T07:02:00Z</time>
      </trkpt>
      <trkpt lat="44.09278" lon="6.99175">
        <ele>1384</ele>
        <time>2022-07-26T07:02:01Z</time>
      </trkpt>
      <trkpt lat="44.09278" lon="6.99174">
        <ele>1384</ele>
        <time>2022-07-26T07:02:02Z</time>
      </trkpt>
      <trkpt lat="44.09278" lon="6.99172">
        <ele>1384</ele>
        <time>2022-07-26T07:02:03Z</time>
      </trkpt>
      <trkpt lat="44.09279" lon="6.99171">
        <ele>1384</ele>
        <time>2022-07-26T07:02:04Z</time>
      </trkpt>
      <trkpt lat="44.09279" lon="6.9917">
        <ele>1384</ele>
        <time>2022-07-26T07:02:05Z</time>
      </trkpt>
      <trkpt lat="44.09279" lon="6.99169">
        <ele>1384</ele>
        <time>2022-07-26T07:02:06Z</time>
      </trkpt>
      <trkpt lat="44.09279" lon="6.99168">
        <ele>1384</ele>
        <time>2022-07-26T07:02:07Z</time>
      </trkpt>
      <trkpt lat="44.0928" lon="6.99167">
        <ele>1383</ele>
        <time>2022-07-26T07:02:08Z</time>
      </trkpt>
      <trkpt lat="44.0928" lon="6.99166">
        <ele>1383</ele>
        <time>2022-07-26T07:02:09Z</time>
      </trkpt>
      <trkpt lat="44.0928" lon="6.99165">
        <ele>1383</ele>
        <time>2022-07-26T07:02:10Z</time>
      </trkpt>
      <trkpt lat="44.0928" lon="6.99164">
        <ele>1383</ele>
        <time>2022-07-26T07:02:11Z</time>
      </trkpt>
      <trkpt lat="44.0928" lon="6.99163">
        <ele>1383</ele>
        <time>2022-07-26T07:02:12Z</time>
      </trkpt>
      <trkpt lat="44.0928" lon="6.99163">
        <ele>1383</ele>
        <time>2022-07-26T07:02:13Z</time>
      </trkpt>
      <trkpt lat="44.09279" lon="6.99162">
        <ele>1383</ele>
        <time>2022-07-26T07:02:14Z</time>
      </trkpt>
      <trkpt lat="44.09279" lon="6.99162">
        <ele>1383</ele>
        <time>2022-07-26T07:02:15Z</time>
      </trkpt>
      <trkpt lat="44.09278" lon="6.99162">
        <ele>1383</ele>
        <time>2022-07-26T07:02:16Z</time>
      </trkpt>
      <trkpt lat="44.09278" lon="6.99163">
        <ele>1383</ele>
        <time>2022-07-26T07:02:17Z</time>
      </trkpt>
      <trkpt lat="44.09277" lon="6.99163">
        <ele>1382</ele>
        <time>2022-07-26T07:02:18Z</time>
      </trkpt>
      <trkpt lat="44.09277" lon="6.99164">
        <ele>1382</ele>
        <time>2022-07-26T07:02:19Z</time>
      </trkpt>
      <trkpt lat="44.09276" lon="6.99165">
        <ele>1382</ele>
        <time>2022-07-26T07:02:20Z</time>
      </trkpt>
      <trkpt lat="44.09275" lon="6.99166">
        <ele>1382</ele>
        <time>2022-07-26T07:02:21Z</time>
      </trkpt>
      <trkpt lat="44.09274" lon="6.99167">
        <ele>1382</ele>
        <time>2022-07-26T07:02:22Z</time>
      </trkpt>
      <trkpt lat="44.09272" lon="6.99168">
        <ele>1381</ele>
        <time>2022-07-26T07:02:23Z</time>
      </trkpt>
      <trkpt lat="44.09271" lon="6.99169">
        <ele>1381</ele>
        <time>2022-07-26T07:02:24Z</time>
      </trkpt>
      <trkpt lat="44.0927" lon="6.99171">
        <ele>1381</ele>
        <time>2022-07-26T07:02:25Z</time>
      </trkpt>
      <trkpt lat="44.09269" lon="6.99172">
        <ele>1381</ele>
        <time>2022-07-26T07:02:26Z</time>
      </trkpt>
      <trkpt lat="44.09268" lon="6.99173">
        <ele>1381</ele>
        <time>2022-07-26T07:02:27Z</time>
      </trkpt>
      <trkpt lat="44.09268" lon="6.99175">
        <ele>1380</ele>
        <time>2022-07-26T07:02:28Z</time>
      </trkpt>
      <trkpt lat="44.09268" lon="6.99177">
        <ele>1380</ele>
        <time>2022-07-26T07:02:29Z</time>
      </trkpt>
      <trkpt lat="44.09268" lon="6.99178">
        <ele>1380</ele>
        <time>2022-07-26T07:02:30Z</time>
      </trkpt>
      <trkpt lat="44.09268" lon="6.9918">
        <ele>1380</ele>
        <time>2022-07-26T07:02:31Z</time>
      </trkpt>
      <trkpt lat="44.09268" lon="6.99183">
        <ele>1380</ele>
        <time>2022-07-26T07:02:32Z</time>
      </trkpt>
      <trkpt lat="44.09268" lon="6.99185">
        <ele>1380</ele>
        <time>2022-07-26T07:02:33Z</time>
      </trkpt>
      <trkpt lat="44.09268" lon="6.99187">
        <ele>1380</ele>
        <time>2022-07-26T07:02:34Z</time>
      </trkpt>
      <trkpt lat="44.09268" lon="6.99189">
        <ele>1380</ele>
        <time>2022-07-26T07:02:35Z</time>
      </trkpt>
      <trkpt lat="44.09269" lon="6.99191">
        <ele>1380</ele>
        <time>2022-07-26T07:02:36Z</time>
      </trkpt>
      <trkpt lat="44.09269" lon="6.99193">
        <ele>1380</ele>
        <time>2022-07-26T07:02:37Z</time>
      </trkpt>
      <trkpt lat="44.09269" lon="6.99194">
        <ele>1380</ele>
        <time>2022-07-26T07:02:38Z</time>
      </trkpt>
      <trkpt lat="44.09268" lon="6.99196">
        <ele>1380</ele>
        <time>2022-07-26T07:02:39Z</time>
      </trkpt>
      <trkpt lat="44.09268" lon="6.99197">
        <ele>1380</ele>
        <time>2022-07-26T07:02:40Z</time>
      </trkpt>
      <trkpt lat="44.09268" lon="6.99199">
        <ele>1380</ele>
        <time>2022-07-26T07:02:41Z</time>
      </trkpt>
      <trkpt lat="44.09268" lon="6.992">
        <ele>1380</ele>
        <time>2022-07-26T07:02:42Z</time>
      </trkpt>
      <trkpt lat="44.09268" lon="6.99202">
        <ele>1379</ele>
        <time>2022-07-26T07:02:43Z</time>
      </trkpt>
      <trkpt lat="44.09268" lon="6.99204">
        <ele>1379</ele>
        <time>2022-07-26T07:02:44Z</time>
      </trkpt>
      <trkpt lat="44.09268" lon="6.99205">
        <ele>1379</ele>
        <time>2022-07-26T07:02:45Z</time>
      </trkpt>
      <trkpt lat="44.09268" lon="6.99207">
        <ele>1379</ele>
        <time>2022-07-26T07:02:46Z</time>
      </trkpt>
      <trkpt lat="44.09269" lon="6.99209">
        <ele>1379</ele>
        <time>2022-07-26T07:02:47Z</time>
      </trkpt>
      <trkpt lat="44.09269" lon="6.99211">
        <ele>1379</ele>
        <time>2022-07-26T07:02:48Z</time>
      </trkpt>
      <trkpt lat="44.09269" lon="6.99212">
        <ele>1379</ele>
        <time>2022-07-26T07:02:49Z</time>
      </trkpt>
      <trkpt lat="44.09269" lon="6.99214">
        <ele>1379</ele>
        <time>2022-07-26T07:02:50Z</time>
      </trkpt>
      <trkpt lat="44.09269" lon="6.99216">
        <ele>1379</ele>
        <time>2022-07-26T07:02:51Z</time>
      </trkpt>
      <trkpt lat="44.0927" lon="6.99218">
        <ele>1379</ele>
        <time>2022-07-26T07:02:52Z</time>
      </trkpt>
      <trkpt lat="44.0927" lon="6.9922">
        <ele>1378</ele>
        <time>2022-07-26T07:02:53Z</time>
      </trkpt>
      <trkpt lat="44.0927" lon="6.99222">
        <ele>1378</ele>
        <time>2022-07-26T07:02:54Z</time>
      </trkpt>
      <trkpt lat="44.0927" lon="6.99223">
        <ele>1378</ele>
        <time>2022-07-26T07:02:55Z</time>
      </trkpt>
      <trkpt lat="44.0927" lon="6.99225">
        <ele>1378</ele>
        <time>2022-07-26T07:02:56Z</time>
      </trkpt>
      <trkpt lat="44.0927" lon="6.99227">
        <ele>1378</ele>
        <time>2022-07-26T07:02:57Z</time>
      </trkpt>
      <trkpt lat="44.0927" lon="6.99228">
        <ele>1378</ele>
        <time>2022-07-26T07:02:58Z</time>
      </trkpt>
      <trkpt lat="44.0927" lon="6.9923">
        <ele>1378</ele>
        <time>2022-07-26T07:02:59Z</time>
      </trkpt>
      <trkpt lat="44.09271" lon="6.99231">
        <ele>1378</ele>
        <time>2022-07-26T07:03:00Z</time>
      </trkpt>
      <trkpt lat="44.09271" lon="6.99233">
        <ele>1378</ele>
        <time>2022-07-26T07:03:01Z</time>
      </trkpt>
      <trkpt lat="44.09271" lon="6.99235">
        <ele>1378</ele>
        <time>2022-07-26T07:03:02Z</time>
      </trkpt>
      <trkpt lat="44.09272" lon="6.99237">
        <ele>1377</ele>
        <time>2022-07-26T07:03:03Z</time>
      </trkpt>
      <trkpt lat="44.09272" lon="6.99239">
        <ele>1377</ele>
        <time>2022-07-26T07:03:04Z</time>
      </trkpt>
      <trkpt lat="44.09272" lon="6.9924">
        <ele>1377</ele>
        <time>2022-07-26T07:03:05Z</time>
      </trkpt>
      <trkpt lat="44.09273" lon="6.99242">
        <ele>1377</ele>
        <time>2022-07-26T07:03:06Z</time>
      </trkpt>
      <trkpt lat="44.09273" lon="6.99244">
        <ele>1377</ele>
        <time>2022-07-26T07:03:07Z</time>
      </trkpt>
      <trkpt lat="44.09273" lon="6.99246">
        <ele>1376</ele>
        <time>2022-07-26T07:03:18Z</time>
      </trkpt>
      <trkpt lat="44.09273" lon="6.99247">
        <ele>1376</ele>
        <time>2022-07-26T07:03:19Z</time>
      </trkpt>
      <trkpt lat="44.09273" lon="6.99248">
        <ele>1376</ele>
        <time>2022-07-26T07:03:20Z</time>
      </trkpt>
      <trkpt lat="44.09273" lon="6.99247">
        <ele>1376</ele>
        <time>2022-07-26T07:03:21Z</time>
      </trkpt>
      <trkpt lat="44.09273" lon="6.99247">
        <ele>1376</ele>
        <time>2022-07-26T07:03:22Z</time>
      </trkpt>
      <trkpt lat="44.09272" lon="6.99246">
        <ele>1376</ele>
        <time>2022-07-26T07:03:23Z</time>
      </trkpt>
      <trkpt lat="44.09272" lon="6.99246">
        <ele>1376</ele>
        <time>2022-07-26T07:03:24Z</time>
      </trkpt>
      <trkpt lat="44.09272" lon="6.99244">
        <ele>1376</ele>
        <time>2022-07-26T07:03:25Z</time>
      </trkpt>
      <trkpt lat="44.09271" lon="6.99243">
        <ele>1376</ele>
        <time>2022-07-26T07:03:26Z</time>
      </trkpt>
      <trkpt lat="44.09271" lon="6.99242">
        <ele>1376</ele>
        <time>2022-07-26T07:03:27Z</time>
      </trkpt>
      <trkpt lat="44.09271" lon="6.99241">
        <ele>1375</ele>
        <time>2022-07-26T07:03:28Z</time>
      </trkpt>
      <trkpt lat="44.09271" lon="6.9924">
        <ele>1375</ele>
        <time>2022-07-26T07:03:29Z</time>
      </trkpt>
      <trkpt lat="44.09271" lon="6.99239">
        <ele>1375</ele>
        <time>2022-07-26T07:03:30Z</time>
      </trkpt>
      <trkpt lat="44.0927" lon="6.99238">
        <ele>1375</ele>
        <time>2022-07-26T07:03:31Z</time>
      </trkpt>
      <trkpt lat="44.0927" lon="6.99237">
        <ele>1375</ele>
        <time>2022-07-26T07:03:32Z</time>
      </trkpt>
      <trkpt lat="44.09269" lon="6.99236">
        <ele>1375</ele>
        <time>2022-07-26T07:03:33Z</time>
      </trkpt>
      <trkpt lat="44.09269" lon="6.99236">
        <ele>1375</ele>
        <time>2022-07-26T07:03:34Z</time>
      </trkpt>
      <trkpt lat="44.09268" lon="6.99236">
        <ele>1375</ele>
        <time>2022-07-26T07:03:35Z</time>
      </trkpt>
      <trkpt lat="44.09268" lon="6.99237">
        <ele>1375</ele>
        <time>2022-07-26T07:03:36Z</time>
      </trkpt>
      <trkpt lat="44.09267" lon="6.99237">
        <ele>1375</ele>
        <time>2022-07-26T07:03:37Z</time>
      </trkpt>
      <trkpt lat="44.09267" lon="6.99238">
        <ele>1374</ele>
        <time>2022-07-26T07:03:38Z</time>
      </trkpt>
      <trkpt lat="44.09266" lon="6.99239">
        <ele>1374</ele>
        <time>2022-07-26T07:03:39Z</time>
      </trkpt>
      <trkpt lat="44.09266" lon="6.99239">
        <ele>1374</ele>
        <time>2022-07-26T07:03:40Z</time>
      </trkpt>
      <trkpt lat="44.09266" lon="6.9924">
        <ele>1374</ele>
        <time>2022-07-26T07:03:41Z</time>
      </trkpt>
      <trkpt lat="44.09265" lon="6.99241">
        <ele>1374</ele>
        <time>2022-07-26T07:03:42Z</time>
      </trkpt>
      <trkpt lat="44.09265" lon="6.99242">
        <ele>1373</ele>
        <time>2022-07-26T07:03:43Z</time>
      </trkpt>
      <trkpt lat="44.09265" lon="6.99243">
        <ele>1373</ele>
        <time>2022-07-26T07:03:44Z</time>
      </trkpt>
      <trkpt lat="44.09264" lon="6.99244">
        <ele>1372</ele>
        <time>2022-07-26T07:03:50Z</time>
      </trkpt>
      <trkpt lat="44.09264" lon="6.99246">
        <ele>1372</ele>
        <time>2022-07-26T07:03:51Z</time>
      </trkpt>
      <trkpt lat="44.09263" lon="6.99247">
        <ele>1372</ele>
        <time>2022-07-26T07:03:52Z</time>
      </trkpt>
      <trkpt lat="44.09263" lon="6.99248">
        <ele>1371</ele>
        <time>2022-07-26T07:03:53Z</time>
      </trkpt>
      <trkpt lat="44.09262" lon="6.9925">
        <ele>1371</ele>
        <time>2022-07-26T07:03:54Z</time>
      </trkpt>
      <trkpt lat="44.09262" lon="6.99251">
        <ele>1371</ele>
        <time>2022-07-26T07:03:55Z</time>
      </trkpt>
      <trkpt lat="44.09261" lon="6.99253">
        <ele>1371</ele>
        <time>2022-07-26T07:03:56Z</time>
      </trkpt>
      <trkpt lat="44.0926" lon="6.99254">
        <ele>1371</ele>
        <time>2022-07-26T07:03:57Z</time>
      </trkpt>
      <trkpt lat="44.09259" lon="6.99256">
        <ele>1371</ele>
        <time>2022-07-26T07:03:58Z</time>
      </trkpt>
      <trkpt lat="44.09259" lon="6.99257">
        <ele>1371</ele>
        <time>2022-07-26T07:03:59Z</time>
      </trkpt>
      <trkpt lat="44.09258" lon="6.99258">
        <ele>1371</ele>
        <time>2022-07-26T07:04:00Z</time>
      </trkpt>
      <trkpt lat="44.09257" lon="6.99259">
        <ele>1371</ele>
        <time>2022-07-26T07:04:01Z</time>
      </trkpt>
      <trkpt lat="44.09257" lon="6.9926">
        <ele>1371</ele>
        <time>2022-07-26T07:04:02Z</time>
      </trkpt>
      <trkpt lat="44.09256" lon="6.99261">
        <ele>1370</ele>
        <time>2022-07-26T07:04:03Z</time>
      </trkpt>
      <trkpt lat="44.09256" lon="6.99262">
        <ele>1370</ele>
        <time>2022-07-26T07:04:04Z</time>
      </trkpt>
      <trkpt lat="44.09255" lon="6.99263">
        <ele>1370</ele>
        <time>2022-07-26T07:04:05Z</time>
      </trkpt>
      <trkpt lat="44.09255" lon="6.99264">
        <ele>1370</ele>
        <time>2022-07-26T07:04:06Z</time>
      </trkpt>
      <trkpt lat="44.09255" lon="6.99265">
        <ele>1370</ele>
        <time>2022-07-26T07:04:07Z</time>
      </trkpt>
      <trkpt lat="44.09254" lon="6.99266">
        <ele>1369</ele>
        <time>2022-07-26T07:04:08Z</time>
      </trkpt>
      <trkpt lat="44.09254" lon="6.99267">
        <ele>1369</ele>
        <time>2022-07-26T07:04:09Z</time>
      </trkpt>
      <trkpt lat="44.09254" lon="6.99268">
        <ele>1369</ele>
        <time>2022-07-26T07:04:10Z</time>
      </trkpt>
      <trkpt lat="44.09254" lon="6.99269">
        <ele>1369</ele>
        <time>2022-07-26T07:04:11Z</time>
      </trkpt>
      <trkpt lat="44.09254" lon="6.99271">
        <ele>1369</ele>
        <time>2022-07-26T07:04:12Z</time>
      </trkpt>
      <trkpt lat="44.09253" lon="6.99272">
        <ele>1368</ele>
        <time>2022-07-26T07:04:13Z</time>
      </trkpt>
      <trkpt lat="44.09253" lon="6.99273">
        <ele>1368</ele>
        <time>2022-07-26T07:04:14Z</time>
      </trkpt>
      <trkpt lat="44.09253" lon="6.99273">
        <ele>1367</ele>
        <time>2022-07-26T07:04:15Z</time>
      </trkpt>
      <trkpt lat="44.09252" lon="6.99274">
        <ele>1367</ele>
        <time>2022-07-26T07:04:16Z</time>
      </trkpt>
      <trkpt lat="44.09252" lon="6.99275">
        <ele>1367</ele>
        <time>2022-07-26T07:04:17Z</time>
      </trkpt>
      <trkpt lat="44.09252" lon="6.99276">
        <ele>1366</ele>
        <time>2022-07-26T07:04:18Z</time>
      </trkpt>
      <trkpt lat="44.09251" lon="6.99277">
        <ele>1366</ele>
        <time>2022-07-26T07:04:19Z</time>
      </trkpt>
      <trkpt lat="44.09251" lon="6.99278">
        <ele>1366</ele>
        <time>2022-07-26T07:04:20Z</time>
      </trkpt>
      <trkpt lat="44.0925" lon="6.99279">
        <ele>1366</ele>
        <time>2022-07-26T07:04:21Z</time>
      </trkpt>
      <trkpt lat="44.0925" lon="6.9928">
        <ele>1366</ele>
        <time>2022-07-26T07:04:22Z</time>
      </trkpt>
      <trkpt lat="44.09249" lon="6.99282">
        <ele>1365</ele>
        <time>2022-07-26T07:04:23Z</time>
      </trkpt>
      <trkpt lat="44.09249" lon="6.99283">
        <ele>1365</ele>
        <time>2022-07-26T07:04:24Z</time>
      </trkpt>
      <trkpt lat="44.09248" lon="6.99284">
        <ele>1365</ele>
        <time>2022-07-26T07:04:25Z</time>
      </trkpt>
      <trkpt lat="44.09247" lon="6.99285">
        <ele>1365</ele>
        <time>2022-07-26T07:04:26Z</time>
      </trkpt>
      <trkpt lat="44.09247" lon="6.99286">
        <ele>1365</ele>
        <time>2022-07-26T07:04:27Z</time>
      </trkpt>
      <trkpt lat="44.09246" lon="6.99286">
        <ele>1364</ele>
        <time>2022-07-26T07:04:28Z</time>
      </trkpt>
      <trkpt lat="44.09245" lon="6.99287">
        <ele>1364</ele>
        <time>2022-07-26T07:04:29Z</time>
      </trkpt>
      <trkpt lat="44.09245" lon="6.99288">
        <ele>1364</ele>
        <time>2022-07-26T07:04:30Z</time>
      </trkpt>
      <trkpt lat="44.09244" lon="6.99289">
        <ele>1364</ele>
        <time>2022-07-26T07:04:31Z</time>
      </trkpt>
      <trkpt lat="44.09243" lon="6.9929">
        <ele>1364</ele>
        <time>2022-07-26T07:04:32Z</time>
      </trkpt>
      <trkpt lat="44.09242" lon="6.9929">
        <ele>1363</ele>
        <time>2022-07-26T07:04:33Z</time>
      </trkpt>
      <trkpt lat="44.09241" lon="6.99291">
        <ele>1363</ele>
        <time>2022-07-26T07:04:34Z</time>
      </trkpt>
      <trkpt lat="44.09241" lon="6.99292">
        <ele>1363</ele>
        <time>2022-07-26T07:04:35Z</time>
      </trkpt>
      <trkpt lat="44.0924" lon="6.99292">
        <ele>1363</ele>
        <time>2022-07-26T07:04:36Z</time>
      </trkpt>
      <trkpt lat="44.09238" lon="6.99293">
        <ele>1363</ele>
        <time>2022-07-26T07:04:37Z</time>
      </trkpt>
      <trkpt lat="44.09237" lon="6.99293">
        <ele>1362</ele>
        <time>2022-07-26T07:04:38Z</time>
      </trkpt>
      <trkpt lat="44.09236" lon="6.99293">
        <ele>1362</ele>
        <time>2022-07-26T07:04:39Z</time>
      </trkpt>
      <trkpt lat="44.09234" lon="6.99293">
        <ele>1362</ele>
        <time>2022-07-26T07:04:40Z</time>
      </trkpt>
      <trkpt lat="44.09233" lon="6.99293">
        <ele>1362</ele>
        <time>2022-07-26T07:04:41Z</time>
      </trkpt>
      <trkpt lat="44.09232" lon="6.99293">
        <ele>1362</ele>
        <time>2022-07-26T07:04:42Z</time>
      </trkpt>
      <trkpt lat="44.09231" lon="6.99293">
        <ele>1361</ele>
        <time>2022-07-26T07:04:43Z</time>
      </trkpt>
      <trkpt lat="44.0923" lon="6.99293">
        <ele>1361</ele>
        <time>2022-07-26T07:04:44Z</time>
      </trkpt>
      <trkpt lat="44.09229" lon="6.99293">
        <ele>1361</ele>
        <time>2022-07-26T07:04:45Z</time>
      </trkpt>
      <trkpt lat="44.09228" lon="6.99293">
        <ele>1361</ele>
        <time>2022-07-26T07:04:46Z</time>
      </trkpt>
      <trkpt lat="44.09226" lon="6.99292">
        <ele>1361</ele>
        <time>2022-07-26T07:04:47Z</time>
      </trkpt>
      <trkpt lat="44.09225" lon="6.99292">
        <ele>1360</ele>
        <time>2022-07-26T07:04:48Z</time>
      </trkpt>
      <trkpt lat="44.09224" lon="6.99292">
        <ele>1360</ele>
        <time>2022-07-26T07:04:49Z</time>
      </trkpt>
      <trkpt lat="44.09223" lon="6.99291">
        <ele>1360</ele>
        <time>2022-07-26T07:04:50Z</time>
      </trkpt>
      <trkpt lat="44.09221" lon="6.9929">
        <ele>1360</ele>
        <time>2022-07-26T07:04:51Z</time>
      </trkpt>
      <trkpt lat="44.0922" lon="6.99289">
        <ele>1360</ele>
        <time>2022-07-26T07:04:52Z</time>
      </trkpt>
      <trkpt lat="44.09219" lon="6.99289">
        <ele>1359</ele>
        <time>2022-07-26T07:04:53Z</time>
      </trkpt>
      <trkpt lat="44.09217" lon="6.99288">
        <ele>1359</ele>
        <time>2022-07-26T07:04:54Z</time>
      </trkpt>
      <trkpt lat="44.09216" lon="6.99288">
        <ele>1358</ele>
        <time>2022-07-26T07:04:55Z</time>
      </trkpt>
      <trkpt lat="44.09215" lon="6.99288">
        <ele>1358</ele>
        <time>2022-07-26T07:04:56Z</time>
      </trkpt>
      <trkpt lat="44.09213" lon="6.99288">
        <ele>1358</ele>
        <time>2022-07-26T07:04:57Z</time>
      </trkpt>
      <trkpt lat="44.09212" lon="6.99288">
        <ele>1357</ele>
        <time>2022-07-26T07:04:58Z</time>
      </trkpt>
      <trkpt lat="44.09211" lon="6.99289">
        <ele>1357</ele>
        <time>2022-07-26T07:04:59Z</time>
      </trkpt>
      <trkpt lat="44.0921" lon="6.99289">
        <ele>1357</ele>
        <time>2022-07-26T07:05:00Z</time>
      </trkpt>
      <trkpt lat="44.09209" lon="6.9929">
        <ele>1357</ele>
        <time>2022-07-26T07:05:01Z</time>
      </trkpt>
      <trkpt lat="44.09208" lon="6.99292">
        <ele>1357</ele>
        <time>2022-07-26T07:05:02Z</time>
      </trkpt>
      <trkpt lat="44.09207" lon="6.99293">
        <ele>1356</ele>
        <time>2022-07-26T07:05:03Z</time>
      </trkpt>
      <trkpt lat="44.09206" lon="6.99295">
        <ele>1356</ele>
        <time>2022-07-26T07:05:04Z</time>
      </trkpt>
      <trkpt lat="44.09205" lon="6.99297">
        <ele>1356</ele>
        <time>2022-07-26T07:05:05Z</time>
      </trkpt>
      <trkpt lat="44.09205" lon="6.99298">
        <ele>1356</ele>
        <time>2022-07-26T07:05:06Z</time>
      </trkpt>
      <trkpt lat="44.09204" lon="6.993">
        <ele>1356</ele>
        <time>2022-07-26T07:05:07Z</time>
      </trkpt>
      <trkpt lat="44.09204" lon="6.99302">
        <ele>1356</ele>
        <time>2022-07-26T07:05:08Z</time>
      </trkpt>
      <trkpt lat="44.09203" lon="6.99304">
        <ele>1356</ele>
        <time>2022-07-26T07:05:09Z</time>
      </trkpt>
      <trkpt lat="44.09203" lon="6.99306">
        <ele>1356</ele>
        <time>2022-07-26T07:05:10Z</time>
      </trkpt>
      <trkpt lat="44.09203" lon="6.99308">
        <ele>1356</ele>
        <time>2022-07-26T07:05:11Z</time>
      </trkpt>
      <trkpt lat="44.09203" lon="6.9931">
        <ele>1356</ele>
        <time>2022-07-26T07:05:12Z</time>
      </trkpt>
      <trkpt lat="44.09204" lon="6.99312">
        <ele>1355</ele>
        <time>2022-07-26T07:05:13Z</time>
      </trkpt>
      <trkpt lat="44.09204" lon="6.99315">
        <ele>1355</ele>
        <time>2022-07-26T07:05:14Z</time>
      </trkpt>
      <trkpt lat="44.09204" lon="6.99317">
        <ele>1355</ele>
        <time>2022-07-26T07:05:15Z</time>
      </trkpt>
      <trkpt lat="44.09205" lon="6.99319">
        <ele>1355</ele>
        <time>2022-07-26T07:05:16Z</time>
      </trkpt>
      <trkpt lat="44.09205" lon="6.99322">
        <ele>1355</ele>
        <time>2022-07-26T07:05:17Z</time>
      </trkpt>
      <trkpt lat="44.09206" lon="6.99324">
        <ele>1355</ele>
        <time>2022-07-26T07:05:18Z</time>
      </trkpt>
      <trkpt lat="44.09206" lon="6.99327">
        <ele>1355</ele>
        <time>2022-07-26T07:05:19Z</time>
      </trkpt>
      <trkpt lat="44.09206" lon="6.99329">
        <ele>1355</ele>
        <time>2022-07-26T07:05:20Z</time>
      </trkpt>
      <trkpt lat="44.09206" lon="6.99331">
        <ele>1355</ele>
        <time>2022-07-26T07:05:21Z</time>
      </trkpt>
      <trkpt lat="44.09205" lon="6.99333">
        <ele>1355</ele>
        <time>2022-07-26T07:05:22Z</time>
      </trkpt>
      <trkpt lat="44.09205" lon="6.99335">
        <ele>1355</ele>
        <time>2022-07-26T07:05:23Z</time>
      </trkpt>
      <trkpt lat="44.09205" lon="6.99337">
        <ele>1355</ele>
        <time>2022-07-26T07:05:24Z</time>
      </trkpt>
      <trkpt lat="44.09205" lon="6.9934">
        <ele>1355</ele>
        <time>2022-07-26T07:05:25Z</time>
      </trkpt>
      <trkpt lat="44.09205" lon="6.99342">
        <ele>1355</ele>
        <time>2022-07-26T07:05:26Z</time>
      </trkpt>
      <trkpt lat="44.09205" lon="6.99344">
        <ele>1355</ele>
        <time>2022-07-26T07:05:27Z</time>
      </trkpt>
      <trkpt lat="44.09205" lon="6.99346">
        <ele>1355</ele>
        <time>2022-07-26T07:05:28Z</time>
      </trkpt>
      <trkpt lat="44.09205" lon="6.99348">
        <ele>1355</ele>
        <time>2022-07-26T07:05:29Z</time>
      </trkpt>
      <trkpt lat="44.09205" lon="6.9935">
        <ele>1355</ele>
        <time>2022-07-26T07:05:30Z</time>
      </trkpt>
      <trkpt lat="44.09204" lon="6.99352">
        <ele>1355</ele>
        <time>2022-07-26T07:05:31Z</time>
      </trkpt>
      <trkpt lat="44.09204" lon="6.99353">
        <ele>1355</ele>
        <time>2022-07-26T07:05:32Z</time>
      </trkpt>
      <trkpt lat="44.09204" lon="6.99355">
        <ele>1355</ele>
        <time>2022-07-26T07:05:33Z</time>
      </trkpt>
      <trkpt lat="44.09203" lon="6.99357">
        <ele>1355</ele>
        <time>2022-07-26T07:05:34Z</time>
      </trkpt>
      <trkpt lat="44.09203" lon="6.99358">
        <ele>1355</ele>
        <time>2022-07-26T07:05:35Z</time>
      </trkpt>
      <trkpt lat="44.09202" lon="6.9936">
        <ele>1355</ele>
        <time>2022-07-26T07:05:36Z</time>
      </trkpt>
      <trkpt lat="44.09202" lon="6.99361">
        <ele>1355</ele>
        <time>2022-07-26T07:05:37Z</time>
      </trkpt>
      <trkpt lat="44.09201" lon="6.99363">
        <ele>1354</ele>
        <time>2022-07-26T07:05:38Z</time>
      </trkpt>
      <trkpt lat="44.09201" lon="6.99364">
        <ele>1354</ele>
        <time>2022-07-26T07:05:39Z</time>
      </trkpt>
      <trkpt lat="44.092" lon="6.99366">
        <ele>1354</ele>
        <time>2022-07-26T07:05:40Z</time>
      </trkpt>
      <trkpt lat="44.092" lon="6.99367">
        <ele>1354</ele>
        <time>2022-07-26T07:05:41Z</time>
      </trkpt>
      <trkpt lat="44.09199" lon="6.99369">
        <ele>1354</ele>
        <time>2022-07-26T07:05:42Z</time>
      </trkpt>
      <trkpt lat="44.09199" lon="6.99371">
        <ele>1354</ele>
        <time>2022-07-26T07:05:43Z</time>
      </trkpt>
      <trkpt lat="44.09199" lon="6.99373">
        <ele>1354</ele>
        <time>2022-07-26T07:05:44Z</time>
      </trkpt>
      <trkpt lat="44.09198" lon="6.99375">
        <ele>1354</ele>
        <time>2022-07-26T07:05:45Z</time>
      </trkpt>
      <trkpt lat="44.09198" lon="6.99376">
        <ele>1354</ele>
        <time>2022-07-26T07:05:46Z</time>
      </trkpt>
      <trkpt lat="44.09197" lon="6.99378">
        <ele>1354</ele>
        <time>2022-07-26T07:05:47Z</time>
      </trkpt>
      <trkpt lat="44.09197" lon="6.99379">
        <ele>1354</ele>
        <time>2022-07-26T07:05:48Z</time>
      </trkpt>
      <trkpt lat="44.09196" lon="6.9938">
        <ele>1354</ele>
        <time>2022-07-26T07:05:49Z</time>
      </trkpt>
      <trkpt lat="44.09195" lon="6.99381">
        <ele>1354</ele>
        <time>2022-07-26T07:05:50Z</time>
      </trkpt>
      <trkpt lat="44.09194" lon="6.99383">
        <ele>1354</ele>
        <time>2022-07-26T07:05:51Z</time>
      </trkpt>
      <trkpt lat="44.09193" lon="6.99384">
        <ele>1354</ele>
        <time>2022-07-26T07:05:52Z</time>
      </trkpt>
      <trkpt lat="44.09192" lon="6.99386">
        <ele>1354</ele>
        <time>2022-07-26T07:05:53Z</time>
      </trkpt>
      <trkpt lat="44.09192" lon="6.99387">
        <ele>1354</ele>
        <time>2022-07-26T07:05:54Z</time>
      </trkpt>
      <trkpt lat="44.09191" lon="6.99389">
        <ele>1354</ele>
        <time>2022-07-26T07:05:55Z</time>
      </trkpt>
      <trkpt lat="44.09191" lon="6.9939">
        <ele>1354</ele>
        <time>2022-07-26T07:05:56Z</time>
      </trkpt>
      <trkpt lat="44.0919" lon="6.99392">
        <ele>1354</ele>
        <time>2022-07-26T07:05:57Z</time>
      </trkpt>
      <trkpt lat="44.09189" lon="6.99393">
        <ele>1354</ele>
        <time>2022-07-26T07:05:58Z</time>
      </trkpt>
      <trkpt lat="44.09188" lon="6.99394">
        <ele>1354</ele>
        <time>2022-07-26T07:05:59Z</time>
      </trkpt>
      <trkpt lat="44.09187" lon="6.99395">
        <ele>1354</ele>
        <time>2022-07-26T07:06:00Z</time>
      </trkpt>
      <trkpt lat="44.09186" lon="6.99396">
        <ele>1354</ele>
        <time>2022-07-26T07:06:01Z</time>
      </trkpt>
      <trkpt lat="44.09185" lon="6.99397">
        <ele>1354</ele>
        <time>2022-07-26T07:06:02Z</time>
      </trkpt>
      <trkpt lat="44.09184" lon="6.99399">
        <ele>1354</ele>
        <time>2022-07-26T07:06:03Z</time>
      </trkpt>
      <trkpt lat="44.09183" lon="6.994">
        <ele>1354</ele>
        <time>2022-07-26T07:06:04Z</time>
      </trkpt>
      <trkpt lat="44.09182" lon="6.99401">
        <ele>1354</ele>
        <time>2022-07-26T07:06:05Z</time>
      </trkpt>
      <trkpt lat="44.09182" lon="6.99403">
        <ele>1354</ele>
        <time>2022-07-26T07:06:06Z</time>
      </trkpt>
      <trkpt lat="44.09181" lon="6.99404">
        <ele>1354</ele>
        <time>2022-07-26T07:06:07Z</time>
      </trkpt>
      <trkpt lat="44.0918" lon="6.99405">
        <ele>1354</ele>
        <time>2022-07-26T07:06:08Z</time>
      </trkpt>
      <trkpt lat="44.09179" lon="6.99406">
        <ele>1354</ele>
        <time>2022-07-26T07:06:09Z</time>
      </trkpt>
      <trkpt lat="44.09178" lon="6.99407">
        <ele>1354</ele>
        <time>2022-07-26T07:06:10Z</time>
      </trkpt>
      <trkpt lat="44.09178" lon="6.99407">
        <ele>1354</ele>
        <time>2022-07-26T07:06:11Z</time>
      </trkpt>
      <trkpt lat="44.09177" lon="6.99408">
        <ele>1354</ele>
        <time>2022-07-26T07:06:12Z</time>
      </trkpt>
      <trkpt lat="44.09177" lon="6.99408">
        <ele>1354</ele>
        <time>2022-07-26T07:06:13Z</time>
      </trkpt>
      <trkpt lat="44.09176" lon="6.99409">
        <ele>1354</ele>
        <time>2022-07-26T07:06:14Z</time>
      </trkpt>
      <trkpt lat="44.09175" lon="6.9941">
        <ele>1354</ele>
        <time>2022-07-26T07:06:15Z</time>
      </trkpt>
      <trkpt lat="44.09175" lon="6.99411">
        <ele>1354</ele>
        <time>2022-07-26T07:06:16Z</time>
      </trkpt>
      <trkpt lat="44.09174" lon="6.99412">
        <ele>1354</ele>
        <time>2022-07-26T07:06:17Z</time>
      </trkpt>
      <trkpt lat="44.09173" lon="6.99413">
        <ele>1354</ele>
        <time>2022-07-26T07:06:18Z</time>
      </trkpt>
      <trkpt lat="44.09173" lon="6.99414">
        <ele>1354</ele>
        <time>2022-07-26T07:06:19Z</time>
      </trkpt>
      <trkpt lat="44.09172" lon="6.99415">
        <ele>1354</ele>
        <time>2022-07-26T07:06:20Z</time>
      </trkpt>
      <trkpt lat="44.09171" lon="6.99417">
        <ele>1354</ele>
        <time>2022-07-26T07:06:21Z</time>
      </trkpt>
      <trkpt lat="44.0917" lon="6.99418">
        <ele>1354</ele>
        <time>2022-07-26T07:06:22Z</time>
      </trkpt>
      <trkpt lat="44.09169" lon="6.99418">
        <ele>1354</ele>
        <time>2022-07-26T07:06:23Z</time>
      </trkpt>
      <trkpt lat="44.09168" lon="6.99419">
        <ele>1354</ele>
        <time>2022-07-26T07:06:24Z</time>
      </trkpt>
      <trkpt lat="44.09168" lon="6.9942">
        <ele>1354</ele>
        <time>2022-07-26T07:06:25Z</time>
      </trkpt>
      <trkpt lat="44.09167" lon="6.99421">
        <ele>1354</ele>
        <time>2022-07-26T07:06:26Z</time>
      </trkpt>
      <trkpt lat="44.09166" lon="6.99422">
        <ele>1354</ele>
        <time>2022-07-26T07:06:27Z</time>
      </trkpt>
      <trkpt lat="44.09165" lon="6.99423">
        <ele>1354</ele>
        <time>2022-07-26T07:06:28Z</time>
      </trkpt>
      <trkpt lat="44.09165" lon="6.99424">
        <ele>1354</ele>
        <time>2022-07-26T07:06:29Z</time>
      </trkpt>
      <trkpt lat="44.09164" lon="6.99425">
        <ele>1354</ele>
        <time>2022-07-26T07:06:30Z</time>
      </trkpt>
      <trkpt lat="44.09163" lon="6.99426">
        <ele>1354</ele>
        <time>2022-07-26T07:06:31Z</time>
      </trkpt>
      <trkpt lat="44.09163" lon="6.99427">
        <ele>1354</ele>
        <time>2022-07-26T07:06:32Z</time>
      </trkpt>
      <trkpt lat="44.09162" lon="6.99428">
        <ele>1354</ele>
        <time>2022-07-26T07:06:33Z</time>
      </trkpt>
      <trkpt lat="44.09161" lon="6.99428">
        <ele>1354</ele>
        <time>2022-07-26T07:06:34Z</time>
      </trkpt>
      <trkpt lat="44.09161" lon="6.99429">
        <ele>1354</ele>
        <time>2022-07-26T07:06:35Z</time>
      </trkpt>
      <trkpt lat="44.0916" lon="6.9943">
        <ele>1354</ele>
        <time>2022-07-26T07:06:36Z</time>
      </trkpt>
      <trkpt lat="44.09159" lon="6.99432">
        <ele>1354</ele>
        <time>2022-07-26T07:06:37Z</time>
      </trkpt>
      <trkpt lat="44.09159" lon="6.99433">
        <ele>1354</ele>
        <time>2022-07-26T07:06:38Z</time>
      </trkpt>
      <trkpt lat="44.09158" lon="6.99434">
        <ele>1354</ele>
        <time>2022-07-26T07:06:39Z</time>
      </trkpt>
      <trkpt lat="44.09157" lon="6.99435">
        <ele>1354</ele>
        <time>2022-07-26T07:06:40Z</time>
      </trkpt>
      <trkpt lat="44.09156" lon="6.99436">
        <ele>1354</ele>
        <time>2022-07-26T07:06:41Z</time>
      </trkpt>
      <trkpt lat="44.09155" lon="6.99436">
        <ele>1354</ele>
        <time>2022-07-26T07:06:42Z</time>
      </trkpt>
      <trkpt lat="44.09154" lon="6.99437">
        <ele>1354</ele>
        <time>2022-07-26T07:06:43Z</time>
      </trkpt>
      <trkpt lat="44.09153" lon="6.99437">
        <ele>1354</ele>
        <time>2022-07-26T07:06:44Z</time>
      </trkpt>
      <trkpt lat="44.09152" lon="6.99437">
        <ele>1354</ele>
        <time>2022-07-26T07:06:45Z</time>
      </trkpt>
      <trkpt lat="44.0915" lon="6.99437">
        <ele>1354</ele>
        <time>2022-07-26T07:06:46Z</time>
      </trkpt>
      <trkpt lat="44.09149" lon="6.99436">
        <ele>1354</ele>
        <time>2022-07-26T07:06:47Z</time>
      </trkpt>
      <trkpt lat="44.09148" lon="6.99436">
        <ele>1353</ele>
        <time>2022-07-26T07:06:48Z</time>
      </trkpt>
      <trkpt lat="44.09147" lon="6.99436">
        <ele>1353</ele>
        <time>2022-07-26T07:06:49Z</time>
      </trkpt>
      <trkpt lat="44.09145" lon="6.99435">
        <ele>1353</ele>
        <time>2022-07-26T07:06:50Z</time>
      </trkpt>
      <trkpt lat="44.09144" lon="6.99435">
        <ele>1353</ele>
        <time>2022-07-26T07:06:51Z</time>
      </trkpt>
      <trkpt lat="44.09143" lon="6.99435">
        <ele>1353</ele>
        <time>2022-07-26T07:06:52Z</time>
      </trkpt>
      <trkpt lat="44.09142" lon="6.99435">
        <ele>1353</ele>
        <time>2022-07-26T07:06:53Z</time>
      </trkpt>
      <trkpt lat="44.09141" lon="6.99435">
        <ele>1353</ele>
        <time>2022-07-26T07:06:54Z</time>
      </trkpt>
      <trkpt lat="44.0914" lon="6.99434">
        <ele>1353</ele>
        <time>2022-07-26T07:06:55Z</time>
      </trkpt>
      <trkpt lat="44.09139" lon="6.99434">
        <ele>1353</ele>
        <time>2022-07-26T07:06:56Z</time>
      </trkpt>
      <trkpt lat="44.09137" lon="6.99433">
        <ele>1353</ele>
        <time>2022-07-26T07:06:57Z</time>
      </trkpt>
      <trkpt lat="44.09136" lon="6.99433">
        <ele>1353</ele>
        <time>2022-07-26T07:06:58Z</time>
      </trkpt>
      <trkpt lat="44.09135" lon="6.99432">
        <ele>1353</ele>
        <time>2022-07-26T07:06:59Z</time>
      </trkpt>
      <trkpt lat="44.09134" lon="6.99432">
        <ele>1353</ele>
        <time>2022-07-26T07:07:00Z</time>
      </trkpt>
      <trkpt lat="44.09133" lon="6.99432">
        <ele>1353</ele>
        <time>2022-07-26T07:07:01Z</time>
      </trkpt>
      <trkpt lat="44.09132" lon="6.99431">
        <ele>1353</ele>
        <time>2022-07-26T07:07:02Z</time>
      </trkpt>
      <trkpt lat="44.0913" lon="6.99432">
        <ele>1352</ele>
        <time>2022-07-26T07:07:17Z</time>
      </trkpt>
      <trkpt lat="44.0913" lon="6.99432">
        <ele>1352</ele>
        <time>2022-07-26T07:07:18Z</time>
      </trkpt>
      <trkpt lat="44.09129" lon="6.99432">
        <ele>1352</ele>
        <time>2022-07-26T07:07:19Z</time>
      </trkpt>
      <trkpt lat="44.09129" lon="6.99432">
        <ele>1352</ele>
        <time>2022-07-26T07:07:20Z</time>
      </trkpt>
      <trkpt lat="44.09128" lon="6.99432">
        <ele>1352</ele>
        <time>2022-07-26T07:07:21Z</time>
      </trkpt>
      <trkpt lat="44.09127" lon="6.99432">
        <ele>1352</ele>
        <time>2022-07-26T07:07:22Z</time>
      </trkpt>
      <trkpt lat="44.09127" lon="6.99433">
        <ele>1352</ele>
        <time>2022-07-26T07:07:23Z</time>
      </trkpt>
      <trkpt lat="44.09126" lon="6.99433">
        <ele>1352</ele>
        <time>2022-07-26T07:07:24Z</time>
      </trkpt>
      <trkpt lat="44.09125" lon="6.99433">
        <ele>1352</ele>
        <time>2022-07-26T07:07:25Z</time>
      </trkpt>
      <trkpt lat="44.09124" lon="6.99434">
        <ele>1352</ele>
        <time>2022-07-26T07:07:26Z</time>
      </trkpt>
      <trkpt lat="44.09123" lon="6.99434">
        <ele>1352</ele>
        <time>2022-07-26T07:07:27Z</time>
      </trkpt>
      <trkpt lat="44.09122" lon="6.99434">
        <ele>1352</ele>
        <time>2022-07-26T07:07:28Z</time>
      </trkpt>
      <trkpt lat="44.09121" lon="6.99434">
        <ele>1352</ele>
        <time>2022-07-26T07:07:29Z</time>
      </trkpt>
      <trkpt lat="44.0912" lon="6.99435">
        <ele>1352</ele>
        <time>2022-07-26T07:07:30Z</time>
      </trkpt>
      <trkpt lat="44.09118" lon="6.99435">
        <ele>1352</ele>
        <time>2022-07-26T07:07:31Z</time>
      </trkpt>
      <trkpt lat="44.09118" lon="6.99435">
        <ele>1352</ele>
        <time>2022-07-26T07:07:32Z</time>
      </trkpt>
      <trkpt lat="44.09117" lon="6.99435">
        <ele>1352</ele>
        <time>2022-07-26T07:07:33Z</time>
      </trkpt>
      <trkpt lat="44.09116" lon="6.99435">
        <ele>1352</ele>
        <time>2022-07-26T07:07:34Z</time>
      </trkpt>
      <trkpt lat="44.09115" lon="6.99436">
        <ele>1352</ele>
        <time>2022-07-26T07:07:35Z</time>
      </trkpt>
      <trkpt lat="44.09114" lon="6.99436">
        <ele>1352</ele>
        <time>2022-07-26T07:07:36Z</time>
      </trkpt>
      <trkpt lat="44.09113" lon="6.99436">
        <ele>1352</ele>
        <time>2022-07-26T07:07:37Z</time>
      </trkpt>
      <trkpt lat="44.09112" lon="6.99437">
        <ele>1352</ele>
        <time>2022-07-26T07:07:38Z</time>
      </trkpt>
      <trkpt lat="44.09111" lon="6.99437">
        <ele>1352</ele>
        <time>2022-07-26T07:07:39Z</time>
      </trkpt>
      <trkpt lat="44.0911" lon="6.99438">
        <ele>1352</ele>
        <time>2022-07-26T07:07:40Z</time>
      </trkpt>
      <trkpt lat="44.09109" lon="6.99438">
        <ele>1352</ele>
        <time>2022-07-26T07:07:41Z</time>
      </trkpt>
      <trkpt lat="44.09109" lon="6.99439">
        <ele>1352</ele>
        <time>2022-07-26T07:07:42Z</time>
      </trkpt>
      <trkpt lat="44.09108" lon="6.99439">
        <ele>1352</ele>
        <time>2022-07-26T07:07:43Z</time>
      </trkpt>
      <trkpt lat="44.09107" lon="6.99439">
        <ele>1352</ele>
        <time>2022-07-26T07:07:44Z</time>
      </trkpt>
      <trkpt lat="44.09106" lon="6.99439">
        <ele>1352</ele>
        <time>2022-07-26T07:07:45Z</time>
      </trkpt>
      <trkpt lat="44.09105" lon="6.99439">
        <ele>1352</ele>
        <time>2022-07-26T07:07:46Z</time>
      </trkpt>
      <trkpt lat="44.09104" lon="6.99439">
        <ele>1352</ele>
        <time>2022-07-26T07:07:47Z</time>
      </trkpt>
      <trkpt lat="44.09103" lon="6.99439">
        <ele>1352</ele>
        <time>2022-07-26T07:07:48Z</time>
      </trkpt>
      <trkpt lat="44.09102" lon="6.99439">
        <ele>1352</ele>
        <time>2022-07-26T07:07:49Z</time>
      </trkpt>
      <trkpt lat="44.091" lon="6.99439">
        <ele>1352</ele>
        <time>2022-07-26T07:07:50Z</time>
      </trkpt>
      <trkpt lat="44.09099" lon="6.99439">
        <ele>1352</ele>
        <time>2022-07-26T07:07:51Z</time>
      </trkpt>
      <trkpt lat="44.09098" lon="6.99438">
        <ele>1352</ele>
        <time>2022-07-26T07:07:52Z</time>
      </trkpt>
      <trkpt lat="44.09097" lon="6.99438">
        <ele>1352</ele>
        <time>2022-07-26T07:07:53Z</time>
      </trkpt>
      <trkpt lat="44.09095" lon="6.99438">
        <ele>1352</ele>
        <time>2022-07-26T07:07:54Z</time>
      </trkpt>
      <trkpt lat="44.09094" lon="6.99439">
        <ele>1352</ele>
        <time>2022-07-26T07:07:55Z</time>
      </trkpt>
      <trkpt lat="44.09093" lon="6.99439">
        <ele>1352</ele>
        <time>2022-07-26T07:07:56Z</time>
      </trkpt>
      <trkpt lat="44.09092" lon="6.99439">
        <ele>1352</ele>
        <time>2022-07-26T07:07:57Z</time>
      </trkpt>
      <trkpt lat="44.09091" lon="6.99439">
        <ele>1352</ele>
        <time>2022-07-26T07:07:58Z</time>
      </trkpt>
      <trkpt lat="44.0909" lon="6.99439">
        <ele>1352</ele>
        <time>2022-07-26T07:07:59Z</time>
      </trkpt>
      <trkpt lat="44.09089" lon="6.99439">
        <ele>1352</ele>
        <time>2022-07-26T07:08:00Z</time>
      </trkpt>
      <trkpt lat="44.09088" lon="6.99439">
        <ele>1352</ele>
        <time>2022-07-26T07:08:01Z</time>
      </trkpt>
      <trkpt lat="44.09087" lon="6.99439">
        <ele>1352</ele>
        <time>2022-07-26T07:08:02Z</time>
      </trkpt>
      <trkpt lat="44.09085" lon="6.99439">
        <ele>1352</ele>
        <time>2022-07-26T07:08:03Z</time>
      </trkpt>
      <trkpt lat="44.09084" lon="6.99438">
        <ele>1352</ele>
        <time>2022-07-26T07:08:04Z</time>
      </trkpt>
      <trkpt lat="44.09083" lon="6.99438">
        <ele>1352</ele>
        <time>2022-07-26T07:08:05Z</time>
      </trkpt>
      <trkpt lat="44.09081" lon="6.99438">
        <ele>1352</ele>
        <time>2022-07-26T07:08:06Z</time>
      </trkpt>
      <trkpt lat="44.0908" lon="6.99438">
        <ele>1352</ele>
        <time>2022-07-26T07:08:07Z</time>
      </trkpt>
      <trkpt lat="44.09079" lon="6.99437">
        <ele>1352</ele>
        <time>2022-07-26T07:08:08Z</time>
      </trkpt>
      <trkpt lat="44.09078" lon="6.99437">
        <ele>1352</ele>
        <time>2022-07-26T07:08:09Z</time>
      </trkpt>
      <trkpt lat="44.09076" lon="6.99438">
        <ele>1352</ele>
        <time>2022-07-26T07:08:10Z</time>
      </trkpt>
      <trkpt lat="44.09075" lon="6.99438">
        <ele>1352</ele>
        <time>2022-07-26T07:08:11Z</time>
      </trkpt>
      <trkpt lat="44.09074" lon="6.99438">
        <ele>1352</ele>
        <time>2022-07-26T07:08:12Z</time>
      </trkpt>
      <trkpt lat="44.09074" lon="6.99439">
        <ele>1352</ele>
        <time>2022-07-26T07:08:13Z</time>
      </trkpt>
      <trkpt lat="44.09073" lon="6.99439">
        <ele>1352</ele>
        <time>2022-07-26T07:08:14Z</time>
      </trkpt>
      <trkpt lat="44.09072" lon="6.9944">
        <ele>1352</ele>
        <time>2022-07-26T07:08:15Z</time>
      </trkpt>
      <trkpt lat="44.09071" lon="6.9944">
        <ele>1352</ele>
        <time>2022-07-26T07:08:16Z</time>
      </trkpt>
      <trkpt lat="44.0907" lon="6.99441">
        <ele>1352</ele>
        <time>2022-07-26T07:08:17Z</time>
      </trkpt>
      <trkpt lat="44.09069" lon="6.99441">
        <ele>1352</ele>
        <time>2022-07-26T07:08:18Z</time>
      </trkpt>
      <trkpt lat="44.09068" lon="6.99442">
        <ele>1352</ele>
        <time>2022-07-26T07:08:19Z</time>
      </trkpt>
      <trkpt lat="44.09067" lon="6.99442">
        <ele>1352</ele>
        <time>2022-07-26T07:08:20Z</time>
      </trkpt>
      <trkpt lat="44.09066" lon="6.99443">
        <ele>1352</ele>
        <time>2022-07-26T07:08:21Z</time>
      </trkpt>
      <trkpt lat="44.09065" lon="6.99443">
        <ele>1352</ele>
        <time>2022-07-26T07:08:22Z</time>
      </trkpt>
      <trkpt lat="44.09064" lon="6.99443">
        <ele>1352</ele>
        <time>2022-07-26T07:08:23Z</time>
      </trkpt>
      <trkpt lat="44.09063" lon="6.99443">
        <ele>1352</ele>
        <time>2022-07-26T07:08:24Z</time>
      </trkpt>
      <trkpt lat="44.09062" lon="6.99444">
        <ele>1352</ele>
        <time>2022-07-26T07:08:25Z</time>
      </trkpt>
      <trkpt lat="44.09061" lon="6.99444">
        <ele>1352</ele>
        <time>2022-07-26T07:08:26Z</time>
      </trkpt>
      <trkpt lat="44.09061" lon="6.99444">
        <ele>1352</ele>
        <time>2022-07-26T07:08:27Z</time>
      </trkpt>
      <trkpt lat="44.0906" lon="6.99445">
        <ele>1352</ele>
        <time>2022-07-26T07:08:28Z</time>
      </trkpt>
      <trkpt lat="44.09059" lon="6.99445">
        <ele>1352</ele>
        <time>2022-07-26T07:08:29Z</time>
      </trkpt>
      <trkpt lat="44.09058" lon="6.99446">
        <ele>1352</ele>
        <time>2022-07-26T07:08:30Z</time>
      </trkpt>
      <trkpt lat="44.09057" lon="6.99446">
        <ele>1352</ele>
        <time>2022-07-26T07:08:31Z</time>
      </trkpt>
      <trkpt lat="44.09057" lon="6.99446">
        <ele>1352</ele>
        <time>2022-07-26T07:08:32Z</time>
      </trkpt>
      <trkpt lat="44.09055" lon="6.99445">
        <ele>1352</ele>
        <time>2022-07-26T07:08:33Z</time>
      </trkpt>
      <trkpt lat="44.09054" lon="6.99445">
        <ele>1352</ele>
        <time>2022-07-26T07:08:34Z</time>
      </trkpt>
      <trkpt lat="44.09053" lon="6.99445">
        <ele>1352</ele>
        <time>2022-07-26T07:08:35Z</time>
      </trkpt>
      <trkpt lat="44.09051" lon="6.99445">
        <ele>1352</ele>
        <time>2022-07-26T07:08:36Z</time>
      </trkpt>
      <trkpt lat="44.0905" lon="6.99445">
        <ele>1352</ele>
        <time>2022-07-26T07:08:37Z</time>
      </trkpt>
      <trkpt lat="44.09048" lon="6.99445">
        <ele>1352</ele>
        <time>2022-07-26T07:08:38Z</time>
      </trkpt>
      <trkpt lat="44.09047" lon="6.99445">
        <ele>1352</ele>
        <time>2022-07-26T07:08:39Z</time>
      </trkpt>
      <trkpt lat="44.09045" lon="6.99445">
        <ele>1352</ele>
        <time>2022-07-26T07:08:40Z</time>
      </trkpt>
      <trkpt lat="44.09044" lon="6.99446">
        <ele>1352</ele>
        <time>2022-07-26T07:08:41Z</time>
      </trkpt>
      <trkpt lat="44.09043" lon="6.99446">
        <ele>1352</ele>
        <time>2022-07-26T07:08:42Z</time>
      </trkpt>
      <trkpt lat="44.09042" lon="6.99447">
        <ele>1352</ele>
        <time>2022-07-26T07:08:43Z</time>
      </trkpt>
      <trkpt lat="44.0904" lon="6.99447">
        <ele>1352</ele>
        <time>2022-07-26T07:08:44Z</time>
      </trkpt>
      <trkpt lat="44.09039" lon="6.99448">
        <ele>1352</ele>
        <time>2022-07-26T07:08:45Z</time>
      </trkpt>
      <trkpt lat="44.09038" lon="6.99448">
        <ele>1352</ele>
        <time>2022-07-26T07:08:46Z</time>
      </trkpt>
      <trkpt lat="44.09036" lon="6.99448">
        <ele>1352</ele>
        <time>2022-07-26T07:08:47Z</time>
      </trkpt>
      <trkpt lat="44.09035" lon="6.99449">
        <ele>1352</ele>
        <time>2022-07-26T07:08:48Z</time>
      </trkpt>
      <trkpt lat="44.09034" lon="6.99449">
        <ele>1352</ele>
        <time>2022-07-26T07:08:49Z</time>
      </trkpt>
      <trkpt lat="44.09032" lon="6.9945">
        <ele>1352</ele>
        <time>2022-07-26T07:08:50Z</time>
      </trkpt>
      <trkpt lat="44.09031" lon="6.9945">
        <ele>1352</ele>
        <time>2022-07-26T07:08:51Z</time>
      </trkpt>
      <trkpt lat="44.0903" lon="6.99451">
        <ele>1352</ele>
        <time>2022-07-26T07:08:52Z</time>
      </trkpt>
      <trkpt lat="44.09029" lon="6.99452">
        <ele>1352</ele>
        <time>2022-07-26T07:08:53Z</time>
      </trkpt>
      <trkpt lat="44.09028" lon="6.99453">
        <ele>1352</ele>
        <time>2022-07-26T07:08:54Z</time>
      </trkpt>
      <trkpt lat="44.09027" lon="6.99454">
        <ele>1352</ele>
        <time>2022-07-26T07:08:55Z</time>
      </trkpt>
      <trkpt lat="44.09026" lon="6.99455">
        <ele>1352</ele>
        <time>2022-07-26T07:08:56Z</time>
      </trkpt>
      <trkpt lat="44.09025" lon="6.99456">
        <ele>1353</ele>
        <time>2022-07-26T07:08:57Z</time>
      </trkpt>
      <trkpt lat="44.09024" lon="6.99456">
        <ele>1353</ele>
        <time>2022-07-26T07:08:58Z</time>
      </trkpt>
      <trkpt lat="44.09022" lon="6.99457">
        <ele>1353</ele>
        <time>2022-07-26T07:08:59Z</time>
      </trkpt>
      <trkpt lat="44.09021" lon="6.99458">
        <ele>1353</ele>
        <time>2022-07-26T07:09:00Z</time>
      </trkpt>
      <trkpt lat="44.0902" lon="6.99459">
        <ele>1353</ele>
        <time>2022-07-26T07:09:01Z</time>
      </trkpt>
      <trkpt lat="44.09018" lon="6.99459">
        <ele>1353</ele>
        <time>2022-07-26T07:09:02Z</time>
      </trkpt>
      <trkpt lat="44.09017" lon="6.9946">
        <ele>1353</ele>
        <time>2022-07-26T07:09:03Z</time>
      </trkpt>
      <trkpt lat="44.09016" lon="6.99461">
        <ele>1353</ele>
        <time>2022-07-26T07:09:04Z</time>
      </trkpt>
      <trkpt lat="44.09015" lon="6.99461">
        <ele>1353</ele>
        <time>2022-07-26T07:09:05Z</time>
      </trkpt>
      <trkpt lat="44.09014" lon="6.99462">
        <ele>1353</ele>
        <time>2022-07-26T07:09:06Z</time>
      </trkpt>
      <trkpt lat="44.09013" lon="6.99462">
        <ele>1353</ele>
        <time>2022-07-26T07:09:07Z</time>
      </trkpt>
      <trkpt lat="44.09012" lon="6.99462">
        <ele>1353</ele>
        <time>2022-07-26T07:09:08Z</time>
      </trkpt>
      <trkpt lat="44.09011" lon="6.99463">
        <ele>1353</ele>
        <time>2022-07-26T07:09:09Z</time>
      </trkpt>
      <trkpt lat="44.09009" lon="6.99463">
        <ele>1353</ele>
        <time>2022-07-26T07:09:10Z</time>
      </trkpt>
      <trkpt lat="44.09008" lon="6.99463">
        <ele>1353</ele>
        <time>2022-07-26T07:09:11Z</time>
      </trkpt>
      <trkpt lat="44.09007" lon="6.99464">
        <ele>1353</ele>
        <time>2022-07-26T07:09:12Z</time>
      </trkpt>
      <trkpt lat="44.09005" lon="6.99464">
        <ele>1353</ele>
        <time>2022-07-26T07:09:13Z</time>
      </trkpt>
      <trkpt lat="44.09004" lon="6.99464">
        <ele>1353</ele>
        <time>2022-07-26T07:09:14Z</time>
      </trkpt>
      <trkpt lat="44.09003" lon="6.99465">
        <ele>1353</ele>
        <time>2022-07-26T07:09:15Z</time>
      </trkpt>
      <trkpt lat="44.09002" lon="6.99465">
        <ele>1353</ele>
        <time>2022-07-26T07:09:16Z</time>
      </trkpt>
      <trkpt lat="44.09" lon="6.99465">
        <ele>1353</ele>
        <time>2022-07-26T07:09:17Z</time>
      </trkpt>
      <trkpt lat="44.08999" lon="6.99465">
        <ele>1353</ele>
        <time>2022-07-26T07:09:18Z</time>
      </trkpt>
      <trkpt lat="44.08998" lon="6.99466">
        <ele>1353</ele>
        <time>2022-07-26T07:09:19Z</time>
      </trkpt>
      <trkpt lat="44.08997" lon="6.99466">
        <ele>1353</ele>
        <time>2022-07-26T07:09:20Z</time>
      </trkpt>
      <trkpt lat="44.08996" lon="6.99466">
        <ele>1353</ele>
        <time>2022-07-26T07:09:21Z</time>
      </trkpt>
      <trkpt lat="44.08994" lon="6.99467">
        <ele>1354</ele>
        <time>2022-07-26T07:09:22Z</time>
      </trkpt>
      <trkpt lat="44.08993" lon="6.99467">
        <ele>1354</ele>
        <time>2022-07-26T07:09:23Z</time>
      </trkpt>
      <trkpt lat="44.08992" lon="6.99468">
        <ele>1354</ele>
        <time>2022-07-26T07:09:24Z</time>
      </trkpt>
      <trkpt lat="44.08991" lon="6.99468">
        <ele>1354</ele>
        <time>2022-07-26T07:09:25Z</time>
      </trkpt>
      <trkpt lat="44.0899" lon="6.99469">
        <ele>1354</ele>
        <time>2022-07-26T07:09:26Z</time>
      </trkpt>
      <trkpt lat="44.08989" lon="6.99469">
        <ele>1354</ele>
        <time>2022-07-26T07:09:27Z</time>
      </trkpt>
      <trkpt lat="44.08987" lon="6.9947">
        <ele>1354</ele>
        <time>2022-07-26T07:09:28Z</time>
      </trkpt>
      <trkpt lat="44.08986" lon="6.99471">
        <ele>1354</ele>
        <time>2022-07-26T07:09:29Z</time>
      </trkpt>
      <trkpt lat="44.08985" lon="6.99471">
        <ele>1354</ele>
        <time>2022-07-26T07:09:30Z</time>
      </trkpt>
      <trkpt lat="44.08984" lon="6.99472">
        <ele>1354</ele>
        <time>2022-07-26T07:09:31Z</time>
      </trkpt>
      <trkpt lat="44.08983" lon="6.99473">
        <ele>1354</ele>
        <time>2022-07-26T07:09:32Z</time>
      </trkpt>
      <trkpt lat="44.08982" lon="6.99474">
        <ele>1354</ele>
        <time>2022-07-26T07:09:33Z</time>
      </trkpt>
      <trkpt lat="44.0898" lon="6.99474">
        <ele>1354</ele>
        <time>2022-07-26T07:09:34Z</time>
      </trkpt>
      <trkpt lat="44.08979" lon="6.99475">
        <ele>1354</ele>
        <time>2022-07-26T07:09:35Z</time>
      </trkpt>
      <trkpt lat="44.08978" lon="6.99475">
        <ele>1354</ele>
        <time>2022-07-26T07:09:36Z</time>
      </trkpt>
      <trkpt lat="44.08976" lon="6.99476">
        <ele>1355</ele>
        <time>2022-07-26T07:09:37Z</time>
      </trkpt>
      <trkpt lat="44.08975" lon="6.99476">
        <ele>1355</ele>
        <time>2022-07-26T07:09:38Z</time>
      </trkpt>
      <trkpt lat="44.08974" lon="6.99477">
        <ele>1355</ele>
        <time>2022-07-26T07:09:39Z</time>
      </trkpt>
      <trkpt lat="44.08973" lon="6.99477">
        <ele>1355</ele>
        <time>2022-07-26T07:09:40Z</time>
      </trkpt>
      <trkpt lat="44.08972" lon="6.99478">
        <ele>1355</ele>
        <time>2022-07-26T07:09:41Z</time>
      </trkpt>
      <trkpt lat="44.08971" lon="6.99478">
        <ele>1355</ele>
        <time>2022-07-26T07:09:42Z</time>
      </trkpt>
      <trkpt lat="44.08969" lon="6.99479">
        <ele>1355</ele>
        <time>2022-07-26T07:09:43Z</time>
      </trkpt>
      <trkpt lat="44.08968" lon="6.99479">
        <ele>1355</ele>
        <time>2022-07-26T07:09:44Z</time>
      </trkpt>
      <trkpt lat="44.08967" lon="6.9948">
        <ele>1355</ele>
        <time>2022-07-26T07:09:45Z</time>
      </trkpt>
      <trkpt lat="44.08966" lon="6.9948">
        <ele>1355</ele>
        <time>2022-07-26T07:09:46Z</time>
      </trkpt>
      <trkpt lat="44.08965" lon="6.99481">
        <ele>1355</ele>
        <time>2022-07-26T07:09:47Z</time>
      </trkpt>
      <trkpt lat="44.08964" lon="6.99481">
        <ele>1355</ele>
        <time>2022-07-26T07:09:48Z</time>
      </trkpt>
      <trkpt lat="44.08963" lon="6.99482">
        <ele>1355</ele>
        <time>2022-07-26T07:09:49Z</time>
      </trkpt>
      <trkpt lat="44.08961" lon="6.99482">
        <ele>1355</ele>
        <time>2022-07-26T07:09:50Z</time>
      </trkpt>
      <trkpt lat="44.0896" lon="6.99483">
        <ele>1355</ele>
        <time>2022-07-26T07:09:51Z</time>
      </trkpt>
      <trkpt lat="44.08959" lon="6.99483">
        <ele>1355</ele>
        <time>2022-07-26T07:09:52Z</time>
      </trkpt>
      <trkpt lat="44.08958" lon="6.99484">
        <ele>1355</ele>
        <time>2022-07-26T07:09:53Z</time>
      </trkpt>
      <trkpt lat="44.08957" lon="6.99484">
        <ele>1355</ele>
        <time>2022-07-26T07:09:54Z</time>
      </trkpt>
      <trkpt lat="44.08956" lon="6.99484">
        <ele>1355</ele>
        <time>2022-07-26T07:09:55Z</time>
      </trkpt>
      <trkpt lat="44.08955" lon="6.99485">
        <ele>1355</ele>
        <time>2022-07-26T07:09:56Z</time>
      </trkpt>
      <trkpt lat="44.08954" lon="6.99485">
        <ele>1355</ele>
        <time>2022-07-26T07:09:57Z</time>
      </trkpt>
      <trkpt lat="44.08953" lon="6.99486">
        <ele>1355</ele>
        <time>2022-07-26T07:09:58Z</time>
      </trkpt>
      <trkpt lat="44.08951" lon="6.99486">
        <ele>1355</ele>
        <time>2022-07-26T07:09:59Z</time>
      </trkpt>
      <trkpt lat="44.0895" lon="6.99487">
        <ele>1355</ele>
        <time>2022-07-26T07:10:00Z</time>
      </trkpt>
      <trkpt lat="44.08949" lon="6.99488">
        <ele>1355</ele>
        <time>2022-07-26T07:10:01Z</time>
      </trkpt>
      <trkpt lat="44.08948" lon="6.99488">
        <ele>1355</ele>
        <time>2022-07-26T07:10:02Z</time>
      </trkpt>
      <trkpt lat="44.08947" lon="6.99489">
        <ele>1355</ele>
        <time>2022-07-26T07:10:03Z</time>
      </trkpt>
      <trkpt lat="44.08946" lon="6.99489">
        <ele>1355</ele>
        <time>2022-07-26T07:10:04Z</time>
      </trkpt>
      <trkpt lat="44.08945" lon="6.9949">
        <ele>1355</ele>
        <time>2022-07-26T07:10:05Z</time>
      </trkpt>
      <trkpt lat="44.08944" lon="6.99491">
        <ele>1355</ele>
        <time>2022-07-26T07:10:06Z</time>
      </trkpt>
      <trkpt lat="44.08943" lon="6.99492">
        <ele>1355</ele>
        <time>2022-07-26T07:10:07Z</time>
      </trkpt>
      <trkpt lat="44.08942" lon="6.99493">
        <ele>1355</ele>
        <time>2022-07-26T07:10:08Z</time>
      </trkpt>
      <trkpt lat="44.08941" lon="6.99494">
        <ele>1355</ele>
        <time>2022-07-26T07:10:09Z</time>
      </trkpt>
      <trkpt lat="44.0894" lon="6.99495">
        <ele>1355</ele>
        <time>2022-07-26T07:10:10Z</time>
      </trkpt>
      <trkpt lat="44.08939" lon="6.99496">
        <ele>1355</ele>
        <time>2022-07-26T07:10:11Z</time>
      </trkpt>
      <trkpt lat="44.08938" lon="6.99496">
        <ele>1356</ele>
        <time>2022-07-26T07:10:12Z</time>
      </trkpt>
      <trkpt lat="44.08937" lon="6.99497">
        <ele>1356</ele>
        <time>2022-07-26T07:10:13Z</time>
      </trkpt>
      <trkpt lat="44.08936" lon="6.99498">
        <ele>1356</ele>
        <time>2022-07-26T07:10:14Z</time>
      </trkpt>
      <trkpt lat="44.08935" lon="6.99499">
        <ele>1356</ele>
        <time>2022-07-26T07:10:15Z</time>
      </trkpt>
      <trkpt lat="44.08934" lon="6.995">
        <ele>1356</ele>
        <time>2022-07-26T07:10:16Z</time>
      </trkpt>
      <trkpt lat="44.08933" lon="6.99501">
        <ele>1356</ele>
        <time>2022-07-26T07:10:17Z</time>
      </trkpt>
      <trkpt lat="44.08932" lon="6.99502">
        <ele>1356</ele>
        <time>2022-07-26T07:10:18Z</time>
      </trkpt>
      <trkpt lat="44.08931" lon="6.99503">
        <ele>1356</ele>
        <time>2022-07-26T07:10:19Z</time>
      </trkpt>
      <trkpt lat="44.0893" lon="6.99504">
        <ele>1356</ele>
        <time>2022-07-26T07:10:20Z</time>
      </trkpt>
      <trkpt lat="44.08928" lon="6.99504">
        <ele>1356</ele>
        <time>2022-07-26T07:10:21Z</time>
      </trkpt>
      <trkpt lat="44.08927" lon="6.99505">
        <ele>1356</ele>
        <time>2022-07-26T07:10:22Z</time>
      </trkpt>
      <trkpt lat="44.08925" lon="6.99506">
        <ele>1356</ele>
        <time>2022-07-26T07:10:23Z</time>
      </trkpt>
      <trkpt lat="44.08924" lon="6.99507">
        <ele>1356</ele>
        <time>2022-07-26T07:10:24Z</time>
      </trkpt>
      <trkpt lat="44.08923" lon="6.99508">
        <ele>1356</ele>
        <time>2022-07-26T07:10:25Z</time>
      </trkpt>
      <trkpt lat="44.08921" lon="6.99508">
        <ele>1356</ele>
        <time>2022-07-26T07:10:26Z</time>
      </trkpt>
      <trkpt lat="44.0892" lon="6.99509">
        <ele>1356</ele>
        <time>2022-07-26T07:10:27Z</time>
      </trkpt>
      <trkpt lat="44.08919" lon="6.9951">
        <ele>1356</ele>
        <time>2022-07-26T07:10:28Z</time>
      </trkpt>
      <trkpt lat="44.08918" lon="6.99511">
        <ele>1356</ele>
        <time>2022-07-26T07:10:29Z</time>
      </trkpt>
      <trkpt lat="44.08917" lon="6.99512">
        <ele>1356</ele>
        <time>2022-07-26T07:10:30Z</time>
      </trkpt>
      <trkpt lat="44.08916" lon="6.99512">
        <ele>1356</ele>
        <time>2022-07-26T07:10:31Z</time>
      </trkpt>
      <trkpt lat="44.08915" lon="6.99513">
        <ele>1356</ele>
        <time>2022-07-26T07:10:32Z</time>
      </trkpt>
      <trkpt lat="44.08914" lon="6.99514">
        <ele>1356</ele>
        <time>2022-07-26T07:10:33Z</time>
      </trkpt>
      <trkpt lat="44.08913" lon="6.99515">
        <ele>1356</ele>
        <time>2022-07-26T07:10:34Z</time>
      </trkpt>
      <trkpt lat="44.08912" lon="6.99516">
        <ele>1356</ele>
        <time>2022-07-26T07:10:35Z</time>
      </trkpt>
      <trkpt lat="44.08911" lon="6.99517">
        <ele>1356</ele>
        <time>2022-07-26T07:10:36Z</time>
      </trkpt>
      <trkpt lat="44.0891" lon="6.99518">
        <ele>1356</ele>
        <time>2022-07-26T07:10:37Z</time>
      </trkpt>
      <trkpt lat="44.08909" lon="6.99519">
        <ele>1356</ele>
        <time>2022-07-26T07:10:38Z</time>
      </trkpt>
      <trkpt lat="44.08908" lon="6.9952">
        <ele>1356</ele>
        <time>2022-07-26T07:10:39Z</time>
      </trkpt>
      <trkpt lat="44.08907" lon="6.99521">
        <ele>1356</ele>
        <time>2022-07-26T07:10:40Z</time>
      </trkpt>
      <trkpt lat="44.08906" lon="6.99522">
        <ele>1356</ele>
        <time>2022-07-26T07:10:41Z</time>
      </trkpt>
      <trkpt lat="44.08905" lon="6.99523">
        <ele>1356</ele>
        <time>2022-07-26T07:10:42Z</time>
      </trkpt>
      <trkpt lat="44.08904" lon="6.99524">
        <ele>1356</ele>
        <time>2022-07-26T07:10:43Z</time>
      </trkpt>
      <trkpt lat="44.08903" lon="6.99524">
        <ele>1356</ele>
        <time>2022-07-26T07:10:44Z</time>
      </trkpt>
      <trkpt lat="44.08902" lon="6.99525">
        <ele>1356</ele>
        <time>2022-07-26T07:10:45Z</time>
      </trkpt>
      <trkpt lat="44.08901" lon="6.99526">
        <ele>1356</ele>
        <time>2022-07-26T07:10:46Z</time>
      </trkpt>
      <trkpt lat="44.08901" lon="6.99527">
        <ele>1356</ele>
        <time>2022-07-26T07:10:47Z</time>
      </trkpt>
      <trkpt lat="44.089" lon="6.99527">
        <ele>1356</ele>
        <time>2022-07-26T07:10:48Z</time>
      </trkpt>
      <trkpt lat="44.08899" lon="6.99528">
        <ele>1356</ele>
        <time>2022-07-26T07:10:49Z</time>
      </trkpt>
      <trkpt lat="44.08898" lon="6.99529">
        <ele>1356</ele>
        <time>2022-07-26T07:10:50Z</time>
      </trkpt>
      <trkpt lat="44.08897" lon="6.9953">
        <ele>1356</ele>
        <time>2022-07-26T07:10:51Z</time>
      </trkpt>
      <trkpt lat="44.08896" lon="6.99531">
        <ele>1356</ele>
        <time>2022-07-26T07:10:52Z</time>
      </trkpt>
      <trkpt lat="44.08895" lon="6.99532">
        <ele>1356</ele>
        <time>2022-07-26T07:10:53Z</time>
      </trkpt>
      <trkpt lat="44.08894" lon="6.99532">
        <ele>1356</ele>
        <time>2022-07-26T07:10:54Z</time>
      </trkpt>
      <trkpt lat="44.08893" lon="6.99533">
        <ele>1356</ele>
        <time>2022-07-26T07:10:55Z</time>
      </trkpt>
      <trkpt lat="44.08891" lon="6.99534">
        <ele>1356</ele>
        <time>2022-07-26T07:10:56Z</time>
      </trkpt>
      <trkpt lat="44.0889" lon="6.99535">
        <ele>1357</ele>
        <time>2022-07-26T07:10:57Z</time>
      </trkpt>
      <trkpt lat="44.08889" lon="6.99536">
        <ele>1357</ele>
        <time>2022-07-26T07:10:58Z</time>
      </trkpt>
      <trkpt lat="44.08888" lon="6.99536">
        <ele>1357</ele>
        <time>2022-07-26T07:10:59Z</time>
      </trkpt>
      <trkpt lat="44.08887" lon="6.99537">
        <ele>1357</ele>
        <time>2022-07-26T07:11:00Z</time>
      </trkpt>
      <trkpt lat="44.08886" lon="6.99538">
        <ele>1357</ele>
        <time>2022-07-26T07:11:01Z</time>
      </trkpt>
      <trkpt lat="44.08885" lon="6.99539">
        <ele>1357</ele>
        <time>2022-07-26T07:11:02Z</time>
      </trkpt>
      <trkpt lat="44.08885" lon="6.9954">
        <ele>1357</ele>
        <time>2022-07-26T07:11:03Z</time>
      </trkpt>
      <trkpt lat="44.08884" lon="6.99541">
        <ele>1357</ele>
        <time>2022-07-26T07:11:04Z</time>
      </trkpt>
      <trkpt lat="44.08883" lon="6.99542">
        <ele>1357</ele>
        <time>2022-07-26T07:11:05Z</time>
      </trkpt>
      <trkpt lat="44.08882" lon="6.99543">
        <ele>1357</ele>
        <time>2022-07-26T07:11:06Z</time>
      </trkpt>
      <trkpt lat="44.08881" lon="6.99544">
        <ele>1357</ele>
        <time>2022-07-26T07:11:07Z</time>
      </trkpt>
      <trkpt lat="44.0888" lon="6.99545">
        <ele>1357</ele>
        <time>2022-07-26T07:11:08Z</time>
      </trkpt>
      <trkpt lat="44.08879" lon="6.99545">
        <ele>1357</ele>
        <time>2022-07-26T07:11:09Z</time>
      </trkpt>
      <trkpt lat="44.08878" lon="6.99546">
        <ele>1357</ele>
        <time>2022-07-26T07:11:10Z</time>
      </trkpt>
      <trkpt lat="44.08876" lon="6.99546">
        <ele>1357</ele>
        <time>2022-07-26T07:11:11Z</time>
      </trkpt>
      <trkpt lat="44.08875" lon="6.99547">
        <ele>1357</ele>
        <time>2022-07-26T07:11:12Z</time>
      </trkpt>
      <trkpt lat="44.08874" lon="6.99548">
        <ele>1357</ele>
        <time>2022-07-26T07:11:13Z</time>
      </trkpt>
      <trkpt lat="44.08873" lon="6.99549">
        <ele>1357</ele>
        <time>2022-07-26T07:11:14Z</time>
      </trkpt>
      <trkpt lat="44.08872" lon="6.99549">
        <ele>1357</ele>
        <time>2022-07-26T07:11:15Z</time>
      </trkpt>
      <trkpt lat="44.0887" lon="6.9955">
        <ele>1357</ele>
        <time>2022-07-26T07:11:16Z</time>
      </trkpt>
      <trkpt lat="44.08869" lon="6.99551">
        <ele>1357</ele>
        <time>2022-07-26T07:11:17Z</time>
      </trkpt>
      <trkpt lat="44.08868" lon="6.99552">
        <ele>1357</ele>
        <time>2022-07-26T07:11:18Z</time>
      </trkpt>
      <trkpt lat="44.08867" lon="6.99553">
        <ele>1357</ele>
        <time>2022-07-26T07:11:19Z</time>
      </trkpt>
      <trkpt lat="44.08866" lon="6.99554">
        <ele>1357</ele>
        <time>2022-07-26T07:11:20Z</time>
      </trkpt>
      <trkpt lat="44.08865" lon="6.99555">
        <ele>1357</ele>
        <time>2022-07-26T07:11:21Z</time>
      </trkpt>
      <trkpt lat="44.08864" lon="6.99556">
        <ele>1357</ele>
        <time>2022-07-26T07:11:22Z</time>
      </trkpt>
      <trkpt lat="44.08863" lon="6.99557">
        <ele>1357</ele>
        <time>2022-07-26T07:11:23Z</time>
      </trkpt>
      <trkpt lat="44.08862" lon="6.99558">
        <ele>1357</ele>
        <time>2022-07-26T07:11:24Z</time>
      </trkpt>
      <trkpt lat="44.08861" lon="6.99558">
        <ele>1357</ele>
        <time>2022-07-26T07:11:25Z</time>
      </trkpt>
      <trkpt lat="44.0886" lon="6.99559">
        <ele>1357</ele>
        <time>2022-07-26T07:11:26Z</time>
      </trkpt>
      <trkpt lat="44.08859" lon="6.9956">
        <ele>1357</ele>
        <time>2022-07-26T07:11:27Z</time>
      </trkpt>
      <trkpt lat="44.08858" lon="6.9956">
        <ele>1357</ele>
        <time>2022-07-26T07:11:28Z</time>
      </trkpt>
      <trkpt lat="44.08857" lon="6.99561">
        <ele>1357</ele>
        <time>2022-07-26T07:11:29Z</time>
      </trkpt>
      <trkpt lat="44.08856" lon="6.99562">
        <ele>1357</ele>
        <time>2022-07-26T07:11:30Z</time>
      </trkpt>
      <trkpt lat="44.08854" lon="6.99563">
        <ele>1357</ele>
        <time>2022-07-26T07:11:31Z</time>
      </trkpt>
      <trkpt lat="44.08853" lon="6.99563">
        <ele>1357</ele>
        <time>2022-07-26T07:11:32Z</time>
      </trkpt>
      <trkpt lat="44.08852" lon="6.99564">
        <ele>1357</ele>
        <time>2022-07-26T07:11:33Z</time>
      </trkpt>
      <trkpt lat="44.08851" lon="6.99565">
        <ele>1357</ele>
        <time>2022-07-26T07:11:34Z</time>
      </trkpt>
      <trkpt lat="44.0885" lon="6.99565">
        <ele>1357</ele>
        <time>2022-07-26T07:11:35Z</time>
      </trkpt>
      <trkpt lat="44.08849" lon="6.99566">
        <ele>1357</ele>
        <time>2022-07-26T07:11:36Z</time>
      </trkpt>
      <trkpt lat="44.08849" lon="6.99567">
        <ele>1357</ele>
        <time>2022-07-26T07:11:37Z</time>
      </trkpt>
      <trkpt lat="44.08848" lon="6.99567">
        <ele>1357</ele>
        <time>2022-07-26T07:11:38Z</time>
      </trkpt>
      <trkpt lat="44.08847" lon="6.99568">
        <ele>1357</ele>
        <time>2022-07-26T07:11:39Z</time>
      </trkpt>
      <trkpt lat="44.08846" lon="6.99568">
        <ele>1357</ele>
        <time>2022-07-26T07:11:40Z</time>
      </trkpt>
      <trkpt lat="44.08845" lon="6.99569">
        <ele>1357</ele>
        <time>2022-07-26T07:11:41Z</time>
      </trkpt>
      <trkpt lat="44.08845" lon="6.9957">
        <ele>1357</ele>
        <time>2022-07-26T07:11:42Z</time>
      </trkpt>
      <trkpt lat="44.08843" lon="6.9957">
        <ele>1357</ele>
        <time>2022-07-26T07:11:43Z</time>
      </trkpt>
      <trkpt lat="44.08842" lon="6.99571">
        <ele>1357</ele>
        <time>2022-07-26T07:11:44Z</time>
      </trkpt>
      <trkpt lat="44.08841" lon="6.99571">
        <ele>1357</ele>
        <time>2022-07-26T07:11:45Z</time>
      </trkpt>
      <trkpt lat="44.0884" lon="6.99571">
        <ele>1357</ele>
        <time>2022-07-26T07:11:46Z</time>
      </trkpt>
      <trkpt lat="44.08839" lon="6.99571">
        <ele>1357</ele>
        <time>2022-07-26T07:11:47Z</time>
      </trkpt>
      <trkpt lat="44.08838" lon="6.99572">
        <ele>1357</ele>
        <time>2022-07-26T07:11:48Z</time>
      </trkpt>
      <trkpt lat="44.08837" lon="6.99572">
        <ele>1357</ele>
        <time>2022-07-26T07:11:49Z</time>
      </trkpt>
      <trkpt lat="44.08836" lon="6.99573">
        <ele>1357</ele>
        <time>2022-07-26T07:11:50Z</time>
      </trkpt>
      <trkpt lat="44.08835" lon="6.99574">
        <ele>1357</ele>
        <time>2022-07-26T07:11:51Z</time>
      </trkpt>
      <trkpt lat="44.08834" lon="6.99575">
        <ele>1357</ele>
        <time>2022-07-26T07:11:52Z</time>
      </trkpt>
      <trkpt lat="44.08834" lon="6.99575">
        <ele>1357</ele>
        <time>2022-07-26T07:11:53Z</time>
      </trkpt>
      <trkpt lat="44.08833" lon="6.99576">
        <ele>1357</ele>
        <time>2022-07-26T07:11:54Z</time>
      </trkpt>
      <trkpt lat="44.08833" lon="6.99577">
        <ele>1357</ele>
        <time>2022-07-26T07:11:55Z</time>
      </trkpt>
      <trkpt lat="44.08832" lon="6.99578">
        <ele>1357</ele>
        <time>2022-07-26T07:11:56Z</time>
      </trkpt>
      <trkpt lat="44.08831" lon="6.9958">
        <ele>1356</ele>
        <time>2022-07-26T07:12:13Z</time>
      </trkpt>
      <trkpt lat="44.08831" lon="6.99581">
        <ele>1356</ele>
        <time>2022-07-26T07:12:14Z</time>
      </trkpt>
      <trkpt lat="44.08831" lon="6.99582">
        <ele>1356</ele>
        <time>2022-07-26T07:12:15Z</time>
      </trkpt>
      <trkpt lat="44.08832" lon="6.99583">
        <ele>1356</ele>
        <time>2022-07-26T07:12:16Z</time>
      </trkpt>
      <trkpt lat="44.08832" lon="6.99584">
        <ele>1356</ele>
        <time>2022-07-26T07:12:17Z</time>
      </trkpt>
      <trkpt lat="44.08833" lon="6.99584">
        <ele>1355</ele>
        <time>2022-07-26T07:12:18Z</time>
      </trkpt>
      <trkpt lat="44.08833" lon="6.99585">
        <ele>1355</ele>
        <time>2022-07-26T07:12:19Z</time>
      </trkpt>
      <trkpt lat="44.08834" lon="6.99586">
        <ele>1355</ele>
        <time>2022-07-26T07:12:20Z</time>
      </trkpt>
      <trkpt lat="44.08834" lon="6.99587">
        <ele>1355</ele>
        <time>2022-07-26T07:12:21Z</time>
      </trkpt>
      <trkpt lat="44.08835" lon="6.99588">
        <ele>1355</ele>
        <time>2022-07-26T07:12:22Z</time>
      </trkpt>
      <trkpt lat="44.08835" lon="6.99589">
        <ele>1355</ele>
        <time>2022-07-26T07:12:23Z</time>
      </trkpt>
      <trkpt lat="44.08835" lon="6.9959">
        <ele>1355</ele>
        <time>2022-07-26T07:12:24Z</time>
      </trkpt>
      <trkpt lat="44.08835" lon="6.99592">
        <ele>1355</ele>
        <time>2022-07-26T07:12:25Z</time>
      </trkpt>
      <trkpt lat="44.08835" lon="6.99593">
        <ele>1355</ele>
        <time>2022-07-26T07:12:26Z</time>
      </trkpt>
      <trkpt lat="44.08836" lon="6.99595">
        <ele>1355</ele>
        <time>2022-07-26T07:12:27Z</time>
      </trkpt>
      <trkpt lat="44.08836" lon="6.99596">
        <ele>1354</ele>
        <time>2022-07-26T07:12:28Z</time>
      </trkpt>
      <trkpt lat="44.08836" lon="6.99598">
        <ele>1354</ele>
        <time>2022-07-26T07:12:29Z</time>
      </trkpt>
      <trkpt lat="44.08837" lon="6.99599">
        <ele>1354</ele>
        <time>2022-07-26T07:12:30Z</time>
      </trkpt>
      <trkpt lat="44.08837" lon="6.99601">
        <ele>1354</ele>
        <time>2022-07-26T07:12:31Z</time>
      </trkpt>
      <trkpt lat="44.08838" lon="6.99603">
        <ele>1354</ele>
        <time>2022-07-26T07:12:32Z</time>
      </trkpt>
      <trkpt lat="44.08838" lon="6.99605">
        <ele>1354</ele>
        <time>2022-07-26T07:12:33Z</time>
      </trkpt>
      <trkpt lat="44.08838" lon="6.99607">
        <ele>1354</ele>
        <time>2022-07-26T07:12:34Z</time>
      </trkpt>
      <trkpt lat="44.08839" lon="6.99608">
        <ele>1354</ele>
        <time>2022-07-26T07:12:35Z</time>
      </trkpt>
      <trkpt lat="44.08839" lon="6.9961">
        <ele>1354</ele>
        <time>2022-07-26T07:12:36Z</time>
      </trkpt>
      <trkpt lat="44.08839" lon="6.99612">
        <ele>1354</ele>
        <time>2022-07-26T07:12:37Z</time>
      </trkpt>
      <trkpt lat="44.0884" lon="6.99614">
        <ele>1353</ele>
        <time>2022-07-26T07:12:38Z</time>
      </trkpt>
      <trkpt lat="44.0884" lon="6.99616">
        <ele>1353</ele>
        <time>2022-07-26T07:12:39Z</time>
      </trkpt>
      <trkpt lat="44.0884" lon="6.99618">
        <ele>1353</ele>
        <time>2022-07-26T07:12:40Z</time>
      </trkpt>
      <trkpt lat="44.0884" lon="6.99619">
        <ele>1353</ele>
        <time>2022-07-26T07:12:41Z</time>
      </trkpt>
      <trkpt lat="44.0884" lon="6.99621">
        <ele>1353</ele>
        <time>2022-07-26T07:12:42Z</time>
      </trkpt>
      <trkpt lat="44.0884" lon="6.99623">
        <ele>1352</ele>
        <time>2022-07-26T07:12:43Z</time>
      </trkpt>
      <trkpt lat="44.0884" lon="6.99625">
        <ele>1352</ele>
        <time>2022-07-26T07:12:44Z</time>
      </trkpt>
      <trkpt lat="44.0884" lon="6.99626">
        <ele>1352</ele>
        <time>2022-07-26T07:12:45Z</time>
      </trkpt>
      <trkpt lat="44.0884" lon="6.99628">
        <ele>1352</ele>
        <time>2022-07-26T07:12:46Z</time>
      </trkpt>
      <trkpt lat="44.0884" lon="6.9963">
        <ele>1352</ele>
        <time>2022-07-26T07:12:47Z</time>
      </trkpt>
      <trkpt lat="44.08839" lon="6.99632">
        <ele>1351</ele>
        <time>2022-07-26T07:12:48Z</time>
      </trkpt>
      <trkpt lat="44.08839" lon="6.99633">
        <ele>1351</ele>
        <time>2022-07-26T07:12:49Z</time>
      </trkpt>
      <trkpt lat="44.08839" lon="6.99635">
        <ele>1350</ele>
        <time>2022-07-26T07:12:50Z</time>
      </trkpt>
      <trkpt lat="44.08838" lon="6.99637">
        <ele>1350</ele>
        <time>2022-07-26T07:12:51Z</time>
      </trkpt>
      <trkpt lat="44.08838" lon="6.99638">
        <ele>1350</ele>
        <time>2022-07-26T07:12:52Z</time>
      </trkpt>
      <trkpt lat="44.08837" lon="6.9964">
        <ele>1350</ele>
        <time>2022-07-26T07:12:53Z</time>
      </trkpt>
      <trkpt lat="44.08837" lon="6.99641">
        <ele>1350</ele>
        <time>2022-07-26T07:12:54Z</time>
      </trkpt>
      <trkpt lat="44.08836" lon="6.99643">
        <ele>1350</ele>
        <time>2022-07-26T07:12:55Z</time>
      </trkpt>
      <trkpt lat="44.08835" lon="6.99644">
        <ele>1350</ele>
        <time>2022-07-26T07:12:56Z</time>
      </trkpt>
      <trkpt lat="44.08835" lon="6.99646">
        <ele>1350</ele>
        <time>2022-07-26T07:12:57Z</time>
      </trkpt>
      <trkpt lat="44.08834" lon="6.99647">
        <ele>1349</ele>
        <time>2022-07-26T07:12:58Z</time>
      </trkpt>
      <trkpt lat="44.08833" lon="6.99648">
        <ele>1349</ele>
        <time>2022-07-26T07:12:59Z</time>
      </trkpt>
      <trkpt lat="44.08833" lon="6.9965">
        <ele>1349</ele>
        <time>2022-07-26T07:13:00Z</time>
      </trkpt>
      <trkpt lat="44.08832" lon="6.99651">
        <ele>1349</ele>
        <time>2022-07-26T07:13:01Z</time>
      </trkpt>
      <trkpt lat="44.08832" lon="6.99653">
        <ele>1349</ele>
        <time>2022-07-26T07:13:02Z</time>
      </trkpt>
      <trkpt lat="44.08831" lon="6.99654">
        <ele>1349</ele>
        <time>2022-07-26T07:13:03Z</time>
      </trkpt>
      <trkpt lat="44.08831" lon="6.99656">
        <ele>1349</ele>
        <time>2022-07-26T07:13:04Z</time>
      </trkpt>
      <trkpt lat="44.0883" lon="6.99658">
        <ele>1349</ele>
        <time>2022-07-26T07:13:05Z</time>
      </trkpt>
      <trkpt lat="44.0883" lon="6.99659">
        <ele>1349</ele>
        <time>2022-07-26T07:13:06Z</time>
      </trkpt>
      <trkpt lat="44.08829" lon="6.99661">
        <ele>1349</ele>
        <time>2022-07-26T07:13:07Z</time>
      </trkpt>
      <trkpt lat="44.08829" lon="6.99662">
        <ele>1349</ele>
        <time>2022-07-26T07:13:08Z</time>
      </trkpt>
      <trkpt lat="44.08828" lon="6.99664">
        <ele>1349</ele>
        <time>2022-07-26T07:13:09Z</time>
      </trkpt>
      <trkpt lat="44.08828" lon="6.99665">
        <ele>1349</ele>
        <time>2022-07-26T07:13:10Z</time>
      </trkpt>
      <trkpt lat="44.08828" lon="6.99667">
        <ele>1349</ele>
        <time>2022-07-26T07:13:11Z</time>
      </trkpt>
      <trkpt lat="44.08828" lon="6.99669">
        <ele>1349</ele>
        <time>2022-07-26T07:13:12Z</time>
      </trkpt>
      <trkpt lat="44.08828" lon="6.9967">
        <ele>1348</ele>
        <time>2022-07-26T07:13:13Z</time>
      </trkpt>
      <trkpt lat="44.08828" lon="6.99672">
        <ele>1348</ele>
        <time>2022-07-26T07:13:14Z</time>
      </trkpt>
      <trkpt lat="44.08829" lon="6.99674">
        <ele>1348</ele>
        <time>2022-07-26T07:13:15Z</time>
      </trkpt>
      <trkpt lat="44.08829" lon="6.99676">
        <ele>1348</ele>
        <time>2022-07-26T07:13:16Z</time>
      </trkpt>
      <trkpt lat="44.0883" lon="6.99677">
        <ele>1348</ele>
        <time>2022-07-26T07:13:17Z</time>
      </trkpt>
      <trkpt lat="44.0883" lon="6.99679">
        <ele>1348</ele>
        <time>2022-07-26T07:13:18Z</time>
      </trkpt>
      <trkpt lat="44.08831" lon="6.99681">
        <ele>1348</ele>
        <time>2022-07-26T07:13:19Z</time>
      </trkpt>
      <trkpt lat="44.08831" lon="6.99683">
        <ele>1348</ele>
        <time>2022-07-26T07:13:20Z</time>
      </trkpt>
      <trkpt lat="44.08832" lon="6.99684">
        <ele>1348</ele>
        <time>2022-07-26T07:13:21Z</time>
      </trkpt>
      <trkpt lat="44.08833" lon="6.99686">
        <ele>1348</ele>
        <time>2022-07-26T07:13:22Z</time>
      </trkpt>
      <trkpt lat="44.08834" lon="6.99688">
        <ele>1348</ele>
        <time>2022-07-26T07:13:32Z</time>
      </trkpt>
      <trkpt lat="44.08835" lon="6.99689">
        <ele>1348</ele>
        <time>2022-07-26T07:13:33Z</time>
      </trkpt>
      <trkpt lat="44.08835" lon="6.9969">
        <ele>1348</ele>
        <time>2022-07-26T07:13:34Z</time>
      </trkpt>
      <trkpt lat="44.08835" lon="6.9969">
        <ele>1348</ele>
        <time>2022-07-26T07:13:35Z</time>
      </trkpt>
      <trkpt lat="44.08835" lon="6.99691">
        <ele>1348</ele>
        <time>2022-07-26T07:13:36Z</time>
      </trkpt>
      <trkpt lat="44.08835" lon="6.99691">
        <ele>1348</ele>
        <time>2022-07-26T07:18:59Z</time>
      </trkpt>
      <trkpt lat="44.08835" lon="6.99691">
        <ele>1348</ele>
        <time>2022-07-26T07:19:00Z</time>
      </trkpt>
      <trkpt lat="44.08835" lon="6.9969">
        <ele>1348</ele>
        <time>2022-07-26T07:19:01Z</time>
      </trkpt>
      <trkpt lat="44.08835" lon="6.9969">
        <ele>1348</ele>
        <time>2022-07-26T07:19:02Z</time>
      </trkpt>
      <trkpt lat="44.08835" lon="6.9969">
        <ele>1348</ele>
        <time>2022-07-26T07:19:03Z</time>
      </trkpt>
      <trkpt lat="44.08834" lon="6.9969">
        <ele>1348</ele>
        <time>2022-07-26T07:19:04Z</time>
      </trkpt>
      <trkpt lat="44.08834" lon="6.9969">
        <ele>1348</ele>
        <time>2022-07-26T07:19:05Z</time>
      </trkpt>
      <trkpt lat="44.08834" lon="6.99689">
        <ele>1348</ele>
        <time>2022-07-26T07:19:06Z</time>
      </trkpt>
      <trkpt lat="44.08836" lon="6.9969">
        <ele>1348</ele>
        <time>2022-07-26T07:33:02Z</time>
      </trkpt>
      <trkpt lat="44.08836" lon="6.99691">
        <ele>1348</ele>
        <time>2022-07-26T07:33:03Z</time>
      </trkpt>
      <trkpt lat="44.08837" lon="6.99692">
        <ele>1348</ele>
        <time>2022-07-26T07:33:04Z</time>
      </trkpt>
      <trkpt lat="44.08838" lon="6.99694">
        <ele>1349</ele>
        <time>2022-07-26T07:33:19Z</time>
      </trkpt>
      <trkpt lat="44.08838" lon="6.99695">
        <ele>1349</ele>
        <time>2022-07-26T07:33:20Z</time>
      </trkpt>
      <trkpt lat="44.08839" lon="6.99697">
        <ele>1349</ele>
        <time>2022-07-26T07:33:21Z</time>
      </trkpt>
      <trkpt lat="44.08839" lon="6.99698">
        <ele>1349</ele>
        <time>2022-07-26T07:33:22Z</time>
      </trkpt>
      <trkpt lat="44.0884" lon="6.99699">
        <ele>1349</ele>
        <time>2022-07-26T07:33:23Z</time>
      </trkpt>
      <trkpt lat="44.08841" lon="6.99701">
        <ele>1349</ele>
        <time>2022-07-26T07:33:24Z</time>
      </trkpt>
      <trkpt lat="44.08842" lon="6.99702">
        <ele>1349</ele>
        <time>2022-07-26T07:33:25Z</time>
      </trkpt>
      <trkpt lat="44.08843" lon="6.99704">
        <ele>1349</ele>
        <time>2022-07-26T07:33:26Z</time>
      </trkpt>
      <trkpt lat="44.08844" lon="6.99706">
        <ele>1349</ele>
        <time>2022-07-26T07:33:27Z</time>
      </trkpt>
      <trkpt lat="44.08845" lon="6.99708">
        <ele>1349</ele>
        <time>2022-07-26T07:33:28Z</time>
      </trkpt>
      <trkpt lat="44.08846" lon="6.99711">
        <ele>1349</ele>
        <time>2022-07-26T07:33:29Z</time>
      </trkpt>
      <trkpt lat="44.08846" lon="6.99713">
        <ele>1349</ele>
        <time>2022-07-26T07:33:30Z</time>
      </trkpt>
      <trkpt lat="44.08847" lon="6.99715">
        <ele>1349</ele>
        <time>2022-07-26T07:33:31Z</time>
      </trkpt>
      <trkpt lat="44.08848" lon="6.99717">
        <ele>1349</ele>
        <time>2022-07-26T07:33:32Z</time>
      </trkpt>
      <trkpt lat="44.08848" lon="6.99719">
        <ele>1349</ele>
        <time>2022-07-26T07:33:33Z</time>
      </trkpt>
      <trkpt lat="44.08848" lon="6.99721">
        <ele>1349</ele>
        <time>2022-07-26T07:33:34Z</time>
      </trkpt>
      <trkpt lat="44.08849" lon="6.99723">
        <ele>1349</ele>
        <time>2022-07-26T07:33:35Z</time>
      </trkpt>
      <trkpt lat="44.08849" lon="6.99724">
        <ele>1349</ele>
        <time>2022-07-26T07:33:36Z</time>
      </trkpt>
      <trkpt lat="44.08849" lon="6.99726">
        <ele>1349</ele>
        <time>2022-07-26T07:33:37Z</time>
      </trkpt>
      <trkpt lat="44.08849" lon="6.99728">
        <ele>1349</ele>
        <time>2022-07-26T07:33:38Z</time>
      </trkpt>
      <trkpt lat="44.08849" lon="6.99729">
        <ele>1349</ele>
        <time>2022-07-26T07:33:39Z</time>
      </trkpt>
      <trkpt lat="44.08849" lon="6.99731">
        <ele>1349</ele>
        <time>2022-07-26T07:33:40Z</time>
      </trkpt>
      <trkpt lat="44.08849" lon="6.99732">
        <ele>1349</ele>
        <time>2022-07-26T07:33:41Z</time>
      </trkpt>
      <trkpt lat="44.08849" lon="6.99734">
        <ele>1350</ele>
        <time>2022-07-26T07:33:42Z</time>
      </trkpt>
      <trkpt lat="44.08849" lon="6.99736">
        <ele>1350</ele>
        <time>2022-07-26T07:33:43Z</time>
      </trkpt>
      <trkpt lat="44.0885" lon="6.99738">
        <ele>1350</ele>
        <time>2022-07-26T07:33:44Z</time>
      </trkpt>
      <trkpt lat="44.0885" lon="6.99739">
        <ele>1350</ele>
        <time>2022-07-26T07:33:45Z</time>
      </trkpt>
      <trkpt lat="44.0885" lon="6.99741">
        <ele>1350</ele>
        <time>2022-07-26T07:33:46Z</time>
      </trkpt>
      <trkpt lat="44.0885" lon="6.99743">
        <ele>1350</ele>
        <time>2022-07-26T07:33:47Z</time>
      </trkpt>
      <trkpt lat="44.08851" lon="6.99745">
        <ele>1350</ele>
        <time>2022-07-26T07:33:48Z</time>
      </trkpt>
      <trkpt lat="44.08851" lon="6.99747">
        <ele>1350</ele>
        <time>2022-07-26T07:33:49Z</time>
      </trkpt>
      <trkpt lat="44.08851" lon="6.99749">
        <ele>1351</ele>
        <time>2022-07-26T07:33:50Z</time>
      </trkpt>
      <trkpt lat="44.08851" lon="6.99751">
        <ele>1351</ele>
        <time>2022-07-26T07:33:51Z</time>
      </trkpt>
      <trkpt lat="44.08851" lon="6.99752">
        <ele>1352</ele>
        <time>2022-07-26T07:33:52Z</time>
      </trkpt>
      <trkpt lat="44.08852" lon="6.99754">
        <ele>1352</ele>
        <time>2022-07-26T07:33:53Z</time>
      </trkpt>
      <trkpt lat="44.08852" lon="6.99755">
        <ele>1352</ele>
        <time>2022-07-26T07:33:54Z</time>
      </trkpt>
      <trkpt lat="44.08852" lon="6.99756">
        <ele>1352</ele>
        <time>2022-07-26T07:33:55Z</time>
      </trkpt>
      <trkpt lat="44.08852" lon="6.99758">
        <ele>1352</ele>
        <time>2022-07-26T07:33:56Z</time>
      </trkpt>
      <trkpt lat="44.08852" lon="6.99759">
        <ele>1352</ele>
        <time>2022-07-26T07:33:57Z</time>
      </trkpt>
      <trkpt lat="44.08852" lon="6.99761">
        <ele>1352</ele>
        <time>2022-07-26T07:33:58Z</time>
      </trkpt>
      <trkpt lat="44.08852" lon="6.99762">
        <ele>1352</ele>
        <time>2022-07-26T07:33:59Z</time>
      </trkpt>
      <trkpt lat="44.08852" lon="6.99764">
        <ele>1352</ele>
        <time>2022-07-26T07:34:00Z</time>
      </trkpt>
      <trkpt lat="44.08853" lon="6.99766">
        <ele>1352</ele>
        <time>2022-07-26T07:34:01Z</time>
      </trkpt>
      <trkpt lat="44.08853" lon="6.99767">
        <ele>1353</ele>
        <time>2022-07-26T07:34:02Z</time>
      </trkpt>
      <trkpt lat="44.08853" lon="6.99769">
        <ele>1353</ele>
        <time>2022-07-26T07:34:03Z</time>
      </trkpt>
      <trkpt lat="44.08853" lon="6.99771">
        <ele>1353</ele>
        <time>2022-07-26T07:34:04Z</time>
      </trkpt>
      <trkpt lat="44.08853" lon="6.99772">
        <ele>1353</ele>
        <time>2022-07-26T07:34:05Z</time>
      </trkpt>
      <trkpt lat="44.08853" lon="6.99774">
        <ele>1353</ele>
        <time>2022-07-26T07:34:06Z</time>
      </trkpt>
      <trkpt lat="44.08854" lon="6.99775">
        <ele>1354</ele>
        <time>2022-07-26T07:34:07Z</time>
      </trkpt>
      <trkpt lat="44.08854" lon="6.99777">
        <ele>1354</ele>
        <time>2022-07-26T07:34:08Z</time>
      </trkpt>
      <trkpt lat="44.08854" lon="6.99778">
        <ele>1354</ele>
        <time>2022-07-26T07:34:09Z</time>
      </trkpt>
      <trkpt lat="44.08854" lon="6.99779">
        <ele>1354</ele>
        <time>2022-07-26T07:34:10Z</time>
      </trkpt>
      <trkpt lat="44.08854" lon="6.99781">
        <ele>1354</ele>
        <time>2022-07-26T07:34:11Z</time>
      </trkpt>
      <trkpt lat="44.08854" lon="6.99782">
        <ele>1354</ele>
        <time>2022-07-26T07:34:12Z</time>
      </trkpt>
      <trkpt lat="44.08853" lon="6.99783">
        <ele>1354</ele>
        <time>2022-07-26T07:34:13Z</time>
      </trkpt>
      <trkpt lat="44.08853" lon="6.99785">
        <ele>1354</ele>
        <time>2022-07-26T07:34:14Z</time>
      </trkpt>
      <trkpt lat="44.08853" lon="6.99786">
        <ele>1354</ele>
        <time>2022-07-26T07:34:15Z</time>
      </trkpt>
      <trkpt lat="44.08853" lon="6.99787">
        <ele>1354</ele>
        <time>2022-07-26T07:34:16Z</time>
      </trkpt>
      <trkpt lat="44.08853" lon="6.99789">
        <ele>1355</ele>
        <time>2022-07-26T07:34:17Z</time>
      </trkpt>
      <trkpt lat="44.08853" lon="6.9979">
        <ele>1355</ele>
        <time>2022-07-26T07:34:18Z</time>
      </trkpt>
      <trkpt lat="44.08852" lon="6.99791">
        <ele>1355</ele>
        <time>2022-07-26T07:34:19Z</time>
      </trkpt>
      <trkpt lat="44.08852" lon="6.99792">
        <ele>1355</ele>
        <time>2022-07-26T07:34:20Z</time>
      </trkpt>
      <trkpt lat="44.08851" lon="6.99794">
        <ele>1355</ele>
        <time>2022-07-26T07:34:21Z</time>
      </trkpt>
      <trkpt lat="44.08851" lon="6.99795">
        <ele>1355</ele>
        <time>2022-07-26T07:34:22Z</time>
      </trkpt>
      <trkpt lat="44.08851" lon="6.99796">
        <ele>1355</ele>
        <time>2022-07-26T07:34:23Z</time>
      </trkpt>
      <trkpt lat="44.08851" lon="6.99798">
        <ele>1355</ele>
        <time>2022-07-26T07:34:24Z</time>
      </trkpt>
      <trkpt lat="44.08851" lon="6.99799">
        <ele>1355</ele>
        <time>2022-07-26T07:34:25Z</time>
      </trkpt>
      <trkpt lat="44.08851" lon="6.99801">
        <ele>1355</ele>
        <time>2022-07-26T07:34:26Z</time>
      </trkpt>
      <trkpt lat="44.08851" lon="6.99803">
        <ele>1356</ele>
        <time>2022-07-26T07:34:27Z</time>
      </trkpt>
      <trkpt lat="44.08851" lon="6.99804">
        <ele>1356</ele>
        <time>2022-07-26T07:34:28Z</time>
      </trkpt>
      <trkpt lat="44.08851" lon="6.99806">
        <ele>1356</ele>
        <time>2022-07-26T07:34:29Z</time>
      </trkpt>
      <trkpt lat="44.08851" lon="6.99808">
        <ele>1356</ele>
        <time>2022-07-26T07:34:30Z</time>
      </trkpt>
      <trkpt lat="44.08851" lon="6.9981">
        <ele>1356</ele>
        <time>2022-07-26T07:34:31Z</time>
      </trkpt>
      <trkpt lat="44.08851" lon="6.99811">
        <ele>1356</ele>
        <time>2022-07-26T07:34:32Z</time>
      </trkpt>
      <trkpt lat="44.0885" lon="6.99813">
        <ele>1356</ele>
        <time>2022-07-26T07:34:33Z</time>
      </trkpt>
      <trkpt lat="44.0885" lon="6.99815">
        <ele>1356</ele>
        <time>2022-07-26T07:34:34Z</time>
      </trkpt>
      <trkpt lat="44.0885" lon="6.99816">
        <ele>1356</ele>
        <time>2022-07-26T07:34:35Z</time>
      </trkpt>
      <trkpt lat="44.0885" lon="6.99818">
        <ele>1356</ele>
        <time>2022-07-26T07:34:36Z</time>
      </trkpt>
      <trkpt lat="44.0885" lon="6.9982">
        <ele>1357</ele>
        <time>2022-07-26T07:34:37Z</time>
      </trkpt>
      <trkpt lat="44.0885" lon="6.99821">
        <ele>1357</ele>
        <time>2022-07-26T07:34:38Z</time>
      </trkpt>
      <trkpt lat="44.0885" lon="6.99823">
        <ele>1357</ele>
        <time>2022-07-26T07:34:39Z</time>
      </trkpt>
      <trkpt lat="44.0885" lon="6.99825">
        <ele>1357</ele>
        <time>2022-07-26T07:34:40Z</time>
      </trkpt>
      <trkpt lat="44.0885" lon="6.99826">
        <ele>1357</ele>
        <time>2022-07-26T07:34:41Z</time>
      </trkpt>
      <trkpt lat="44.08849" lon="6.99828">
        <ele>1357</ele>
        <time>2022-07-26T07:34:42Z</time>
      </trkpt>
      <trkpt lat="44.08849" lon="6.99829">
        <ele>1357</ele>
        <time>2022-07-26T07:34:43Z</time>
      </trkpt>
      <trkpt lat="44.08849" lon="6.99831">
        <ele>1357</ele>
        <time>2022-07-26T07:34:44Z</time>
      </trkpt>
      <trkpt lat="44.08849" lon="6.99832">
        <ele>1357</ele>
        <time>2022-07-26T07:34:45Z</time>
      </trkpt>
      <trkpt lat="44.08848" lon="6.99833">
        <ele>1357</ele>
        <time>2022-07-26T07:34:46Z</time>
      </trkpt>
      <trkpt lat="44.08848" lon="6.99835">
        <ele>1358</ele>
        <time>2022-07-26T07:34:47Z</time>
      </trkpt>
      <trkpt lat="44.08848" lon="6.99836">
        <ele>1358</ele>
        <time>2022-07-26T07:34:48Z</time>
      </trkpt>
      <trkpt lat="44.08848" lon="6.99838">
        <ele>1358</ele>
        <time>2022-07-26T07:34:49Z</time>
      </trkpt>
      <trkpt lat="44.08847" lon="6.99839">
        <ele>1358</ele>
        <time>2022-07-26T07:34:50Z</time>
      </trkpt>
      <trkpt lat="44.08847" lon="6.99841">
        <ele>1358</ele>
        <time>2022-07-26T07:34:51Z</time>
      </trkpt>
      <trkpt lat="44.08847" lon="6.99842">
        <ele>1358</ele>
        <time>2022-07-26T07:34:52Z</time>
      </trkpt>
      <trkpt lat="44.08846" lon="6.99844">
        <ele>1358</ele>
        <time>2022-07-26T07:34:53Z</time>
      </trkpt>
      <trkpt lat="44.08846" lon="6.99846">
        <ele>1358</ele>
        <time>2022-07-26T07:34:54Z</time>
      </trkpt>
      <trkpt lat="44.08846" lon="6.99847">
        <ele>1358</ele>
        <time>2022-07-26T07:34:55Z</time>
      </trkpt>
      <trkpt lat="44.08845" lon="6.99849">
        <ele>1358</ele>
        <time>2022-07-26T07:34:56Z</time>
      </trkpt>
      <trkpt lat="44.08845" lon="6.9985">
        <ele>1359</ele>
        <time>2022-07-26T07:34:57Z</time>
      </trkpt>
      <trkpt lat="44.08845" lon="6.99852">
        <ele>1359</ele>
        <time>2022-07-26T07:34:58Z</time>
      </trkpt>
      <trkpt lat="44.08845" lon="6.99853">
        <ele>1359</ele>
        <time>2022-07-26T07:34:59Z</time>
      </trkpt>
      <trkpt lat="44.08846" lon="6.99855">
        <ele>1359</ele>
        <time>2022-07-26T07:35:00Z</time>
      </trkpt>
      <trkpt lat="44.08846" lon="6.99856">
        <ele>1359</ele>
        <time>2022-07-26T07:35:01Z</time>
      </trkpt>
      <trkpt lat="44.08846" lon="6.99857">
        <ele>1359</ele>
        <time>2022-07-26T07:35:02Z</time>
      </trkpt>
      <trkpt lat="44.08846" lon="6.99859">
        <ele>1359</ele>
        <time>2022-07-26T07:35:03Z</time>
      </trkpt>
      <trkpt lat="44.08846" lon="6.9986">
        <ele>1359</ele>
        <time>2022-07-26T07:35:04Z</time>
      </trkpt>
      <trkpt lat="44.08846" lon="6.99862">
        <ele>1359</ele>
        <time>2022-07-26T07:35:05Z</time>
      </trkpt>
      <trkpt lat="44.08846" lon="6.99864">
        <ele>1359</ele>
        <time>2022-07-26T07:35:06Z</time>
      </trkpt>
      <trkpt lat="44.08847" lon="6.99865">
        <ele>1359</ele>
        <time>2022-07-26T07:35:07Z</time>
      </trkpt>
      <trkpt lat="44.08847" lon="6.99867">
        <ele>1359</ele>
        <time>2022-07-26T07:35:08Z</time>
      </trkpt>
      <trkpt lat="44.08847" lon="6.99869">
        <ele>1359</ele>
        <time>2022-07-26T07:35:09Z</time>
      </trkpt>
      <trkpt lat="44.08847" lon="6.99871">
        <ele>1359</ele>
        <time>2022-07-26T07:35:10Z</time>
      </trkpt>
      <trkpt lat="44.08847" lon="6.99872">
        <ele>1359</ele>
        <time>2022-07-26T07:35:11Z</time>
      </trkpt>
      <trkpt lat="44.08848" lon="6.99874">
        <ele>1360</ele>
        <time>2022-07-26T07:35:12Z</time>
      </trkpt>
      <trkpt lat="44.08848" lon="6.99876">
        <ele>1360</ele>
        <time>2022-07-26T07:35:13Z</time>
      </trkpt>
      <trkpt lat="44.08848" lon="6.99877">
        <ele>1360</ele>
        <time>2022-07-26T07:35:14Z</time>
      </trkpt>
      <trkpt lat="44.08848" lon="6.99879">
        <ele>1360</ele>
        <time>2022-07-26T07:35:15Z</time>
      </trkpt>
      <trkpt lat="44.08848" lon="6.99881">
        <ele>1360</ele>
        <time>2022-07-26T07:35:16Z</time>
      </trkpt>
      <trkpt lat="44.08848" lon="6.99882">
        <ele>1360</ele>
        <time>2022-07-26T07:35:17Z</time>
      </trkpt>
      <trkpt lat="44.08849" lon="6.99884">
        <ele>1360</ele>
        <time>2022-07-26T07:35:18Z</time>
      </trkpt>
      <trkpt lat="44.08849" lon="6.99885">
        <ele>1360</ele>
        <time>2022-07-26T07:35:19Z</time>
      </trkpt>
      <trkpt lat="44.08849" lon="6.99887">
        <ele>1360</ele>
        <time>2022-07-26T07:35:20Z</time>
      </trkpt>
      <trkpt lat="44.0885" lon="6.99889">
        <ele>1360</ele>
        <time>2022-07-26T07:35:21Z</time>
      </trkpt>
      <trkpt lat="44.0885" lon="6.9989">
        <ele>1361</ele>
        <time>2022-07-26T07:35:22Z</time>
      </trkpt>
      <trkpt lat="44.0885" lon="6.99891">
        <ele>1361</ele>
        <time>2022-07-26T07:35:23Z</time>
      </trkpt>
      <trkpt lat="44.0885" lon="6.99893">
        <ele>1361</ele>
        <time>2022-07-26T07:35:24Z</time>
      </trkpt>
      <trkpt lat="44.0885" lon="6.99894">
        <ele>1361</ele>
        <time>2022-07-26T07:35:25Z</time>
      </trkpt>
      <trkpt lat="44.0885" lon="6.99895">
        <ele>1361</ele>
        <time>2022-07-26T07:35:26Z</time>
      </trkpt>
      <trkpt lat="44.0885" lon="6.99896">
        <ele>1361</ele>
        <time>2022-07-26T07:35:27Z</time>
      </trkpt>
      <trkpt lat="44.0885" lon="6.99897">
        <ele>1361</ele>
        <time>2022-07-26T07:35:28Z</time>
      </trkpt>
      <trkpt lat="44.0885" lon="6.99898">
        <ele>1361</ele>
        <time>2022-07-26T07:35:29Z</time>
      </trkpt>
      <trkpt lat="44.0885" lon="6.99899">
        <ele>1361</ele>
        <time>2022-07-26T07:35:30Z</time>
      </trkpt>
      <trkpt lat="44.08851" lon="6.999">
        <ele>1361</ele>
        <time>2022-07-26T07:35:31Z</time>
      </trkpt>
      <trkpt lat="44.08851" lon="6.99901">
        <ele>1362</ele>
        <time>2022-07-26T07:35:32Z</time>
      </trkpt>
      <trkpt lat="44.08852" lon="6.99902">
        <ele>1362</ele>
        <time>2022-07-26T07:35:33Z</time>
      </trkpt>
      <trkpt lat="44.08853" lon="6.99904">
        <ele>1362</ele>
        <time>2022-07-26T07:35:34Z</time>
      </trkpt>
      <trkpt lat="44.08854" lon="6.99905">
        <ele>1362</ele>
        <time>2022-07-26T07:35:35Z</time>
      </trkpt>
      <trkpt lat="44.08854" lon="6.99906">
        <ele>1362</ele>
        <time>2022-07-26T07:35:36Z</time>
      </trkpt>
      <trkpt lat="44.08855" lon="6.99907">
        <ele>1362</ele>
        <time>2022-07-26T07:35:37Z</time>
      </trkpt>
      <trkpt lat="44.08855" lon="6.99909">
        <ele>1362</ele>
        <time>2022-07-26T07:35:38Z</time>
      </trkpt>
      <trkpt lat="44.08856" lon="6.9991">
        <ele>1362</ele>
        <time>2022-07-26T07:35:39Z</time>
      </trkpt>
      <trkpt lat="44.08856" lon="6.99911">
        <ele>1362</ele>
        <time>2022-07-26T07:35:40Z</time>
      </trkpt>
      <trkpt lat="44.08856" lon="6.99913">
        <ele>1362</ele>
        <time>2022-07-26T07:35:41Z</time>
      </trkpt>
      <trkpt lat="44.08857" lon="6.99914">
        <ele>1363</ele>
        <time>2022-07-26T07:35:42Z</time>
      </trkpt>
      <trkpt lat="44.08857" lon="6.99915">
        <ele>1363</ele>
        <time>2022-07-26T07:35:43Z</time>
      </trkpt>
      <trkpt lat="44.08858" lon="6.99917">
        <ele>1363</ele>
        <time>2022-07-26T07:35:44Z</time>
      </trkpt>
      <trkpt lat="44.08858" lon="6.99918">
        <ele>1363</ele>
        <time>2022-07-26T07:35:45Z</time>
      </trkpt>
      <trkpt lat="44.08858" lon="6.99919">
        <ele>1363</ele>
        <time>2022-07-26T07:35:46Z</time>
      </trkpt>
      <trkpt lat="44.08858" lon="6.9992">
        <ele>1363</ele>
        <time>2022-07-26T07:35:47Z</time>
      </trkpt>
      <trkpt lat="44.08858" lon="6.99921">
        <ele>1363</ele>
        <time>2022-07-26T07:35:48Z</time>
      </trkpt>
      <trkpt lat="44.08859" lon="6.99922">
        <ele>1363</ele>
        <time>2022-07-26T07:35:49Z</time>
      </trkpt>
      <trkpt lat="44.08859" lon="6.99924">
        <ele>1363</ele>
        <time>2022-07-26T07:35:50Z</time>
      </trkpt>
      <trkpt lat="44.08859" lon="6.99925">
        <ele>1363</ele>
        <time>2022-07-26T07:35:51Z</time>
      </trkpt>
      <trkpt lat="44.0886" lon="6.99926">
        <ele>1364</ele>
        <time>2022-07-26T07:35:52Z</time>
      </trkpt>
      <trkpt lat="44.0886" lon="6.99928">
        <ele>1364</ele>
        <time>2022-07-26T07:35:53Z</time>
      </trkpt>
      <trkpt lat="44.0886" lon="6.99929">
        <ele>1364</ele>
        <time>2022-07-26T07:35:54Z</time>
      </trkpt>
      <trkpt lat="44.0886" lon="6.99931">
        <ele>1364</ele>
        <time>2022-07-26T07:35:55Z</time>
      </trkpt>
      <trkpt lat="44.0886" lon="6.99932">
        <ele>1364</ele>
        <time>2022-07-26T07:35:56Z</time>
      </trkpt>
      <trkpt lat="44.08861" lon="6.99934">
        <ele>1364</ele>
        <time>2022-07-26T07:35:57Z</time>
      </trkpt>
      <trkpt lat="44.08861" lon="6.99935">
        <ele>1364</ele>
        <time>2022-07-26T07:35:58Z</time>
      </trkpt>
      <trkpt lat="44.08861" lon="6.99937">
        <ele>1364</ele>
        <time>2022-07-26T07:35:59Z</time>
      </trkpt>
      <trkpt lat="44.08862" lon="6.99938">
        <ele>1364</ele>
        <time>2022-07-26T07:36:00Z</time>
      </trkpt>
      <trkpt lat="44.08862" lon="6.99939">
        <ele>1364</ele>
        <time>2022-07-26T07:36:01Z</time>
      </trkpt>
      <trkpt lat="44.08862" lon="6.99941">
        <ele>1365</ele>
        <time>2022-07-26T07:36:02Z</time>
      </trkpt>
      <trkpt lat="44.08862" lon="6.99942">
        <ele>1365</ele>
        <time>2022-07-26T07:36:03Z</time>
      </trkpt>
      <trkpt lat="44.08862" lon="6.99943">
        <ele>1365</ele>
        <time>2022-07-26T07:36:04Z</time>
      </trkpt>
      <trkpt lat="44.08863" lon="6.99944">
        <ele>1365</ele>
        <time>2022-07-26T07:36:05Z</time>
      </trkpt>
      <trkpt lat="44.08863" lon="6.99945">
        <ele>1365</ele>
        <time>2022-07-26T07:36:06Z</time>
      </trkpt>
      <trkpt lat="44.08864" lon="6.99946">
        <ele>1365</ele>
        <time>2022-07-26T07:36:07Z</time>
      </trkpt>
      <trkpt lat="44.08864" lon="6.99947">
        <ele>1365</ele>
        <time>2022-07-26T07:36:08Z</time>
      </trkpt>
      <trkpt lat="44.08864" lon="6.99948">
        <ele>1365</ele>
        <time>2022-07-26T07:36:09Z</time>
      </trkpt>
      <trkpt lat="44.08865" lon="6.99949">
        <ele>1365</ele>
        <time>2022-07-26T07:36:10Z</time>
      </trkpt>
      <trkpt lat="44.08865" lon="6.9995">
        <ele>1365</ele>
        <time>2022-07-26T07:36:11Z</time>
      </trkpt>
      <trkpt lat="44.08866" lon="6.99951">
        <ele>1366</ele>
        <time>2022-07-26T07:36:12Z</time>
      </trkpt>
      <trkpt lat="44.08866" lon="6.99952">
        <ele>1366</ele>
        <time>2022-07-26T07:36:13Z</time>
      </trkpt>
      <trkpt lat="44.08867" lon="6.99953">
        <ele>1366</ele>
        <time>2022-07-26T07:36:14Z</time>
      </trkpt>
      <trkpt lat="44.08867" lon="6.99954">
        <ele>1366</ele>
        <time>2022-07-26T07:36:15Z</time>
      </trkpt>
      <trkpt lat="44.08868" lon="6.99956">
        <ele>1366</ele>
        <time>2022-07-26T07:36:16Z</time>
      </trkpt>
      <trkpt lat="44.08869" lon="6.99957">
        <ele>1366</ele>
        <time>2022-07-26T07:36:17Z</time>
      </trkpt>
      <trkpt lat="44.08869" lon="6.99958">
        <ele>1366</ele>
        <time>2022-07-26T07:36:18Z</time>
      </trkpt>
      <trkpt lat="44.0887" lon="6.99959">
        <ele>1366</ele>
        <time>2022-07-26T07:36:19Z</time>
      </trkpt>
      <trkpt lat="44.08871" lon="6.9996">
        <ele>1366</ele>
        <time>2022-07-26T07:36:20Z</time>
      </trkpt>
      <trkpt lat="44.08871" lon="6.99961">
        <ele>1366</ele>
        <time>2022-07-26T07:36:21Z</time>
      </trkpt>
      <trkpt lat="44.08871" lon="6.99962">
        <ele>1367</ele>
        <time>2022-07-26T07:36:22Z</time>
      </trkpt>
      <trkpt lat="44.08872" lon="6.99964">
        <ele>1367</ele>
        <time>2022-07-26T07:36:23Z</time>
      </trkpt>
      <trkpt lat="44.08872" lon="6.99965">
        <ele>1367</ele>
        <time>2022-07-26T07:36:24Z</time>
      </trkpt>
      <trkpt lat="44.08873" lon="6.99966">
        <ele>1367</ele>
        <time>2022-07-26T07:36:25Z</time>
      </trkpt>
      <trkpt lat="44.08873" lon="6.99968">
        <ele>1367</ele>
        <time>2022-07-26T07:36:26Z</time>
      </trkpt>
      <trkpt lat="44.08874" lon="6.99969">
        <ele>1367</ele>
        <time>2022-07-26T07:36:27Z</time>
      </trkpt>
      <trkpt lat="44.08874" lon="6.9997">
        <ele>1367</ele>
        <time>2022-07-26T07:36:28Z</time>
      </trkpt>
      <trkpt lat="44.08874" lon="6.99972">
        <ele>1367</ele>
        <time>2022-07-26T07:36:29Z</time>
      </trkpt>
      <trkpt lat="44.08875" lon="6.99973">
        <ele>1367</ele>
        <time>2022-07-26T07:36:30Z</time>
      </trkpt>
      <trkpt lat="44.08875" lon="6.99974">
        <ele>1367</ele>
        <time>2022-07-26T07:36:31Z</time>
      </trkpt>
      <trkpt lat="44.08876" lon="6.99975">
        <ele>1367</ele>
        <time>2022-07-26T07:36:32Z</time>
      </trkpt>
      <trkpt lat="44.08877" lon="6.99976">
        <ele>1367</ele>
        <time>2022-07-26T07:36:33Z</time>
      </trkpt>
      <trkpt lat="44.08877" lon="6.99977">
        <ele>1367</ele>
        <time>2022-07-26T07:36:34Z</time>
      </trkpt>
      <trkpt lat="44.08878" lon="6.99978">
        <ele>1367</ele>
        <time>2022-07-26T07:36:35Z</time>
      </trkpt>
      <trkpt lat="44.08878" lon="6.99979">
        <ele>1367</ele>
        <time>2022-07-26T07:36:36Z</time>
      </trkpt>
      <trkpt lat="44.08879" lon="6.9998">
        <ele>1367</ele>
        <time>2022-07-26T07:36:37Z</time>
      </trkpt>
      <trkpt lat="44.0888" lon="6.99981">
        <ele>1367</ele>
        <time>2022-07-26T07:36:38Z</time>
      </trkpt>
      <trkpt lat="44.0888" lon="6.99982">
        <ele>1367</ele>
        <time>2022-07-26T07:36:39Z</time>
      </trkpt>
      <trkpt lat="44.08881" lon="6.99983">
        <ele>1368</ele>
        <time>2022-07-26T07:36:40Z</time>
      </trkpt>
      <trkpt lat="44.08882" lon="6.99984">
        <ele>1368</ele>
        <time>2022-07-26T07:36:41Z</time>
      </trkpt>
      <trkpt lat="44.08882" lon="6.99985">
        <ele>1369</ele>
        <time>2022-07-26T07:36:42Z</time>
      </trkpt>
      <trkpt lat="44.08883" lon="6.99986">
        <ele>1369</ele>
        <time>2022-07-26T07:36:43Z</time>
      </trkpt>
      <trkpt lat="44.08883" lon="6.99987">
        <ele>1369</ele>
        <time>2022-07-26T07:36:44Z</time>
      </trkpt>
      <trkpt lat="44.08884" lon="6.99988">
        <ele>1369</ele>
        <time>2022-07-26T07:36:45Z</time>
      </trkpt>
      <trkpt lat="44.08884" lon="6.99989">
        <ele>1369</ele>
        <time>2022-07-26T07:36:46Z</time>
      </trkpt>
      <trkpt lat="44.08885" lon="6.9999">
        <ele>1369</ele>
        <time>2022-07-26T07:36:47Z</time>
      </trkpt>
      <trkpt lat="44.08886" lon="6.9999">
        <ele>1369</ele>
        <time>2022-07-26T07:36:48Z</time>
      </trkpt>
      <trkpt lat="44.08887" lon="6.99991">
        <ele>1369</ele>
        <time>2022-07-26T07:36:49Z</time>
      </trkpt>
      <trkpt lat="44.08888" lon="6.99992">
        <ele>1369</ele>
        <time>2022-07-26T07:36:50Z</time>
      </trkpt>
      <trkpt lat="44.08888" lon="6.99992">
        <ele>1369</ele>
        <time>2022-07-26T07:36:51Z</time>
      </trkpt>
      <trkpt lat="44.08889" lon="6.99993">
        <ele>1369</ele>
        <time>2022-07-26T07:36:52Z</time>
      </trkpt>
      <trkpt lat="44.0889" lon="6.99994">
        <ele>1369</ele>
        <time>2022-07-26T07:36:53Z</time>
      </trkpt>
      <trkpt lat="44.08891" lon="6.99995">
        <ele>1369</ele>
        <time>2022-07-26T07:36:54Z</time>
      </trkpt>
      <trkpt lat="44.08891" lon="6.99996">
        <ele>1369</ele>
        <time>2022-07-26T07:36:55Z</time>
      </trkpt>
      <trkpt lat="44.08892" lon="6.99997">
        <ele>1369</ele>
        <time>2022-07-26T07:36:56Z</time>
      </trkpt>
      <trkpt lat="44.08892" lon="6.99998">
        <ele>1370</ele>
        <time>2022-07-26T07:36:57Z</time>
      </trkpt>
      <trkpt lat="44.08893" lon="6.99999">
        <ele>1370</ele>
        <time>2022-07-26T07:36:58Z</time>
      </trkpt>
      <trkpt lat="44.08893" lon="7">
        <ele>1370</ele>
        <time>2022-07-26T07:36:59Z</time>
      </trkpt>
      <trkpt lat="44.08894" lon="7.00001">
        <ele>1370</ele>
        <time>2022-07-26T07:37:00Z</time>
      </trkpt>
      <trkpt lat="44.08894" lon="7.00003">
        <ele>1370</ele>
        <time>2022-07-26T07:37:01Z</time>
      </trkpt>
      <trkpt lat="44.08895" lon="7.00004">
        <ele>1371</ele>
        <time>2022-07-26T07:37:02Z</time>
      </trkpt>
      <trkpt lat="44.08895" lon="7.00005">
        <ele>1371</ele>
        <time>2022-07-26T07:37:03Z</time>
      </trkpt>
      <trkpt lat="44.08896" lon="7.00007">
        <ele>1371</ele>
        <time>2022-07-26T07:37:04Z</time>
      </trkpt>
      <trkpt lat="44.08896" lon="7.00008">
        <ele>1371</ele>
        <time>2022-07-26T07:37:05Z</time>
      </trkpt>
      <trkpt lat="44.08897" lon="7.00009">
        <ele>1371</ele>
        <time>2022-07-26T07:37:06Z</time>
      </trkpt>
      <trkpt lat="44.08897" lon="7.0001">
        <ele>1371</ele>
        <time>2022-07-26T07:37:07Z</time>
      </trkpt>
      <trkpt lat="44.08898" lon="7.00012">
        <ele>1371</ele>
        <time>2022-07-26T07:37:08Z</time>
      </trkpt>
      <trkpt lat="44.08898" lon="7.00013">
        <ele>1371</ele>
        <time>2022-07-26T07:37:09Z</time>
      </trkpt>
      <trkpt lat="44.08899" lon="7.00014">
        <ele>1371</ele>
        <time>2022-07-26T07:37:10Z</time>
      </trkpt>
      <trkpt lat="44.08899" lon="7.00015">
        <ele>1371</ele>
        <time>2022-07-26T07:37:11Z</time>
      </trkpt>
      <trkpt lat="44.089" lon="7.00016">
        <ele>1371</ele>
        <time>2022-07-26T07:37:12Z</time>
      </trkpt>
      <trkpt lat="44.089" lon="7.00017">
        <ele>1371</ele>
        <time>2022-07-26T07:37:13Z</time>
      </trkpt>
      <trkpt lat="44.08901" lon="7.00019">
        <ele>1371</ele>
        <time>2022-07-26T07:37:14Z</time>
      </trkpt>
      <trkpt lat="44.08901" lon="7.0002">
        <ele>1371</ele>
        <time>2022-07-26T07:37:15Z</time>
      </trkpt>
      <trkpt lat="44.08902" lon="7.00021">
        <ele>1371</ele>
        <time>2022-07-26T07:37:16Z</time>
      </trkpt>
      <trkpt lat="44.08902" lon="7.00022">
        <ele>1372</ele>
        <time>2022-07-26T07:37:17Z</time>
      </trkpt>
      <trkpt lat="44.08903" lon="7.00023">
        <ele>1372</ele>
        <time>2022-07-26T07:37:18Z</time>
      </trkpt>
      <trkpt lat="44.08903" lon="7.00024">
        <ele>1372</ele>
        <time>2022-07-26T07:37:19Z</time>
      </trkpt>
      <trkpt lat="44.08904" lon="7.00025">
        <ele>1372</ele>
        <time>2022-07-26T07:37:20Z</time>
      </trkpt>
      <trkpt lat="44.08904" lon="7.00026">
        <ele>1372</ele>
        <time>2022-07-26T07:37:21Z</time>
      </trkpt>
      <trkpt lat="44.08905" lon="7.00027">
        <ele>1372</ele>
        <time>2022-07-26T07:37:22Z</time>
      </trkpt>
      <trkpt lat="44.08905" lon="7.00029">
        <ele>1372</ele>
        <time>2022-07-26T07:37:23Z</time>
      </trkpt>
      <trkpt lat="44.08906" lon="7.0003">
        <ele>1372</ele>
        <time>2022-07-26T07:37:24Z</time>
      </trkpt>
      <trkpt lat="44.08906" lon="7.00031">
        <ele>1372</ele>
        <time>2022-07-26T07:37:25Z</time>
      </trkpt>
      <trkpt lat="44.08907" lon="7.00032">
        <ele>1372</ele>
        <time>2022-07-26T07:37:26Z</time>
      </trkpt>
      <trkpt lat="44.08907" lon="7.00033">
        <ele>1373</ele>
        <time>2022-07-26T07:37:27Z</time>
      </trkpt>
      <trkpt lat="44.08907" lon="7.00035">
        <ele>1373</ele>
        <time>2022-07-26T07:37:28Z</time>
      </trkpt>
      <trkpt lat="44.08908" lon="7.00036">
        <ele>1373</ele>
        <time>2022-07-26T07:37:29Z</time>
      </trkpt>
      <trkpt lat="44.08908" lon="7.00037">
        <ele>1373</ele>
        <time>2022-07-26T07:37:30Z</time>
      </trkpt>
      <trkpt lat="44.08909" lon="7.00039">
        <ele>1373</ele>
        <time>2022-07-26T07:37:31Z</time>
      </trkpt>
      <trkpt lat="44.08909" lon="7.0004">
        <ele>1374</ele>
        <time>2022-07-26T07:37:32Z</time>
      </trkpt>
      <trkpt lat="44.0891" lon="7.00041">
        <ele>1374</ele>
        <time>2022-07-26T07:37:33Z</time>
      </trkpt>
      <trkpt lat="44.0891" lon="7.00042">
        <ele>1374</ele>
        <time>2022-07-26T07:37:34Z</time>
      </trkpt>
      <trkpt lat="44.0891" lon="7.00043">
        <ele>1374</ele>
        <time>2022-07-26T07:37:35Z</time>
      </trkpt>
      <trkpt lat="44.0891" lon="7.00045">
        <ele>1374</ele>
        <time>2022-07-26T07:37:36Z</time>
      </trkpt>
      <trkpt lat="44.08911" lon="7.00046">
        <ele>1374</ele>
        <time>2022-07-26T07:37:37Z</time>
      </trkpt>
      <trkpt lat="44.08911" lon="7.00047">
        <ele>1374</ele>
        <time>2022-07-26T07:37:38Z</time>
      </trkpt>
      <trkpt lat="44.08911" lon="7.00048">
        <ele>1374</ele>
        <time>2022-07-26T07:37:39Z</time>
      </trkpt>
      <trkpt lat="44.08911" lon="7.00049">
        <ele>1374</ele>
        <time>2022-07-26T07:37:40Z</time>
      </trkpt>
      <trkpt lat="44.08912" lon="7.0005">
        <ele>1374</ele>
        <time>2022-07-26T07:37:41Z</time>
      </trkpt>
      <trkpt lat="44.08912" lon="7.0005">
        <ele>1375</ele>
        <time>2022-07-26T07:37:42Z</time>
      </trkpt>
      <trkpt lat="44.08912" lon="7.00051">
        <ele>1375</ele>
        <time>2022-07-26T07:37:43Z</time>
      </trkpt>
      <trkpt lat="44.08912" lon="7.00052">
        <ele>1375</ele>
        <time>2022-07-26T07:37:44Z</time>
      </trkpt>
      <trkpt lat="44.08913" lon="7.00053">
        <ele>1375</ele>
        <time>2022-07-26T07:37:45Z</time>
      </trkpt>
      <trkpt lat="44.08913" lon="7.00054">
        <ele>1375</ele>
        <time>2022-07-26T07:37:46Z</time>
      </trkpt>
      <trkpt lat="44.08913" lon="7.00055">
        <ele>1375</ele>
        <time>2022-07-26T07:37:47Z</time>
      </trkpt>
      <trkpt lat="44.08913" lon="7.00056">
        <ele>1375</ele>
        <time>2022-07-26T07:37:48Z</time>
      </trkpt>
      <trkpt lat="44.08914" lon="7.00057">
        <ele>1375</ele>
        <time>2022-07-26T07:37:49Z</time>
      </trkpt>
      <trkpt lat="44.08914" lon="7.00058">
        <ele>1375</ele>
        <time>2022-07-26T07:37:50Z</time>
      </trkpt>
      <trkpt lat="44.08914" lon="7.00059">
        <ele>1375</ele>
        <time>2022-07-26T07:37:51Z</time>
      </trkpt>
      <trkpt lat="44.08914" lon="7.00059">
        <ele>1376</ele>
        <time>2022-07-26T07:37:52Z</time>
      </trkpt>
      <trkpt lat="44.08914" lon="7.0006">
        <ele>1376</ele>
        <time>2022-07-26T07:37:53Z</time>
      </trkpt>
      <trkpt lat="44.08915" lon="7.00061">
        <ele>1376</ele>
        <time>2022-07-26T07:37:54Z</time>
      </trkpt>
      <trkpt lat="44.08915" lon="7.00062">
        <ele>1376</ele>
        <time>2022-07-26T07:37:55Z</time>
      </trkpt>
      <trkpt lat="44.08915" lon="7.00063">
        <ele>1376</ele>
        <time>2022-07-26T07:37:56Z</time>
      </trkpt>
      <trkpt lat="44.08915" lon="7.00064">
        <ele>1377</ele>
        <time>2022-07-26T07:37:57Z</time>
      </trkpt>
      <trkpt lat="44.08916" lon="7.00065">
        <ele>1377</ele>
        <time>2022-07-26T07:37:58Z</time>
      </trkpt>
      <trkpt lat="44.08916" lon="7.00066">
        <ele>1377</ele>
        <time>2022-07-26T07:37:59Z</time>
      </trkpt>
      <trkpt lat="44.08916" lon="7.00066">
        <ele>1377</ele>
        <time>2022-07-26T07:38:00Z</time>
      </trkpt>
      <trkpt lat="44.08916" lon="7.00067">
        <ele>1377</ele>
        <time>2022-07-26T07:38:01Z</time>
      </trkpt>
      <trkpt lat="44.08917" lon="7.00068">
        <ele>1377</ele>
        <time>2022-07-26T07:38:02Z</time>
      </trkpt>
      <trkpt lat="44.08917" lon="7.00069">
        <ele>1377</ele>
        <time>2022-07-26T07:38:03Z</time>
      </trkpt>
      <trkpt lat="44.08918" lon="7.0007">
        <ele>1377</ele>
        <time>2022-07-26T07:38:04Z</time>
      </trkpt>
      <trkpt lat="44.08918" lon="7.00071">
        <ele>1377</ele>
        <time>2022-07-26T07:38:05Z</time>
      </trkpt>
      <trkpt lat="44.08919" lon="7.00071">
        <ele>1377</ele>
        <time>2022-07-26T07:38:06Z</time>
      </trkpt>
      <trkpt lat="44.08919" lon="7.00072">
        <ele>1378</ele>
        <time>2022-07-26T07:38:07Z</time>
      </trkpt>
      <trkpt lat="44.0892" lon="7.00073">
        <ele>1378</ele>
        <time>2022-07-26T07:38:08Z</time>
      </trkpt>
      <trkpt lat="44.0892" lon="7.00073">
        <ele>1378</ele>
        <time>2022-07-26T07:38:09Z</time>
      </trkpt>
      <trkpt lat="44.08921" lon="7.00074">
        <ele>1378</ele>
        <time>2022-07-26T07:38:10Z</time>
      </trkpt>
      <trkpt lat="44.08921" lon="7.00074">
        <ele>1378</ele>
        <time>2022-07-26T07:38:11Z</time>
      </trkpt>
      <trkpt lat="44.08922" lon="7.00075">
        <ele>1378</ele>
        <time>2022-07-26T07:38:12Z</time>
      </trkpt>
      <trkpt lat="44.08922" lon="7.00076">
        <ele>1378</ele>
        <time>2022-07-26T07:38:13Z</time>
      </trkpt>
      <trkpt lat="44.08923" lon="7.00077">
        <ele>1378</ele>
        <time>2022-07-26T07:38:14Z</time>
      </trkpt>
      <trkpt lat="44.08923" lon="7.00078">
        <ele>1378</ele>
        <time>2022-07-26T07:38:15Z</time>
      </trkpt>
      <trkpt lat="44.08924" lon="7.00079">
        <ele>1378</ele>
        <time>2022-07-26T07:38:16Z</time>
      </trkpt>
      <trkpt lat="44.08925" lon="7.0008">
        <ele>1379</ele>
        <time>2022-07-26T07:38:17Z</time>
      </trkpt>
      <trkpt lat="44.08925" lon="7.00081">
        <ele>1379</ele>
        <time>2022-07-26T07:38:18Z</time>
      </trkpt>
      <trkpt lat="44.08926" lon="7.00082">
        <ele>1379</ele>
        <time>2022-07-26T07:38:19Z</time>
      </trkpt>
      <trkpt lat="44.08926" lon="7.00083">
        <ele>1379</ele>
        <time>2022-07-26T07:38:20Z</time>
      </trkpt>
      <trkpt lat="44.08926" lon="7.00085">
        <ele>1379</ele>
        <time>2022-07-26T07:38:21Z</time>
      </trkpt>
      <trkpt lat="44.08927" lon="7.00086">
        <ele>1380</ele>
        <time>2022-07-26T07:38:22Z</time>
      </trkpt>
      <trkpt lat="44.08927" lon="7.00087">
        <ele>1380</ele>
        <time>2022-07-26T07:38:23Z</time>
      </trkpt>
      <trkpt lat="44.08927" lon="7.00089">
        <ele>1380</ele>
        <time>2022-07-26T07:38:24Z</time>
      </trkpt>
      <trkpt lat="44.08927" lon="7.0009">
        <ele>1380</ele>
        <time>2022-07-26T07:38:25Z</time>
      </trkpt>
      <trkpt lat="44.08928" lon="7.00091">
        <ele>1380</ele>
        <time>2022-07-26T07:38:26Z</time>
      </trkpt>
      <trkpt lat="44.08928" lon="7.00092">
        <ele>1380</ele>
        <time>2022-07-26T07:38:27Z</time>
      </trkpt>
      <trkpt lat="44.08929" lon="7.00093">
        <ele>1380</ele>
        <time>2022-07-26T07:38:28Z</time>
      </trkpt>
      <trkpt lat="44.08929" lon="7.00094">
        <ele>1380</ele>
        <time>2022-07-26T07:38:29Z</time>
      </trkpt>
      <trkpt lat="44.0893" lon="7.00096">
        <ele>1380</ele>
        <time>2022-07-26T07:38:30Z</time>
      </trkpt>
      <trkpt lat="44.0893" lon="7.00097">
        <ele>1380</ele>
        <time>2022-07-26T07:38:31Z</time>
      </trkpt>
      <trkpt lat="44.0893" lon="7.00098">
        <ele>1381</ele>
        <time>2022-07-26T07:38:32Z</time>
      </trkpt>
      <trkpt lat="44.08931" lon="7.00099">
        <ele>1381</ele>
        <time>2022-07-26T07:38:33Z</time>
      </trkpt>
      <trkpt lat="44.08931" lon="7.001">
        <ele>1381</ele>
        <time>2022-07-26T07:38:34Z</time>
      </trkpt>
      <trkpt lat="44.08932" lon="7.00102">
        <ele>1381</ele>
        <time>2022-07-26T07:38:35Z</time>
      </trkpt>
      <trkpt lat="44.08932" lon="7.00103">
        <ele>1381</ele>
        <time>2022-07-26T07:38:36Z</time>
      </trkpt>
      <trkpt lat="44.08932" lon="7.00104">
        <ele>1381</ele>
        <time>2022-07-26T07:38:37Z</time>
      </trkpt>
      <trkpt lat="44.08932" lon="7.00105">
        <ele>1381</ele>
        <time>2022-07-26T07:38:38Z</time>
      </trkpt>
      <trkpt lat="44.08932" lon="7.00106">
        <ele>1381</ele>
        <time>2022-07-26T07:38:39Z</time>
      </trkpt>
      <trkpt lat="44.08932" lon="7.00107">
        <ele>1381</ele>
        <time>2022-07-26T07:38:40Z</time>
      </trkpt>
      <trkpt lat="44.08932" lon="7.00108">
        <ele>1381</ele>
        <time>2022-07-26T07:38:41Z</time>
      </trkpt>
      <trkpt lat="44.08933" lon="7.00109">
        <ele>1382</ele>
        <time>2022-07-26T07:38:42Z</time>
      </trkpt>
      <trkpt lat="44.08933" lon="7.0011">
        <ele>1382</ele>
        <time>2022-07-26T07:38:43Z</time>
      </trkpt>
      <trkpt lat="44.08933" lon="7.0011">
        <ele>1382</ele>
        <time>2022-07-26T07:38:44Z</time>
      </trkpt>
      <trkpt lat="44.08933" lon="7.0011">
        <ele>1382</ele>
        <time>2022-07-26T07:38:45Z</time>
      </trkpt>
      <trkpt lat="44.08933" lon="7.00111">
        <ele>1382</ele>
        <time>2022-07-26T07:38:46Z</time>
      </trkpt>
      <trkpt lat="44.08933" lon="7.00111">
        <ele>1382</ele>
        <time>2022-07-26T07:38:47Z</time>
      </trkpt>
      <trkpt lat="44.08934" lon="7.00112">
        <ele>1382</ele>
        <time>2022-07-26T07:38:48Z</time>
      </trkpt>
      <trkpt lat="44.08934" lon="7.00112">
        <ele>1382</ele>
        <time>2022-07-26T07:38:49Z</time>
      </trkpt>
      <trkpt lat="44.08934" lon="7.00113">
        <ele>1382</ele>
        <time>2022-07-26T07:38:50Z</time>
      </trkpt>
      <trkpt lat="44.08934" lon="7.00114">
        <ele>1382</ele>
        <time>2022-07-26T07:38:51Z</time>
      </trkpt>
      <trkpt lat="44.08934" lon="7.00115">
        <ele>1382</ele>
        <time>2022-07-26T07:38:52Z</time>
      </trkpt>
      <trkpt lat="44.08933" lon="7.00116">
        <ele>1382</ele>
        <time>2022-07-26T07:38:53Z</time>
      </trkpt>
      <trkpt lat="44.08933" lon="7.00117">
        <ele>1382</ele>
        <time>2022-07-26T07:38:54Z</time>
      </trkpt>
      <trkpt lat="44.08933" lon="7.00118">
        <ele>1382</ele>
        <time>2022-07-26T07:38:55Z</time>
      </trkpt>
      <trkpt lat="44.08933" lon="7.00119">
        <ele>1382</ele>
        <time>2022-07-26T07:38:56Z</time>
      </trkpt>
      <trkpt lat="44.08932" lon="7.0012">
        <ele>1382</ele>
        <time>2022-07-26T07:38:57Z</time>
      </trkpt>
      <trkpt lat="44.08932" lon="7.00122">
        <ele>1382</ele>
        <time>2022-07-26T07:38:58Z</time>
      </trkpt>
      <trkpt lat="44.08932" lon="7.00122">
        <ele>1382</ele>
        <time>2022-07-26T07:38:59Z</time>
      </trkpt>
      <trkpt lat="44.08932" lon="7.00123">
        <ele>1382</ele>
        <time>2022-07-26T07:39:00Z</time>
      </trkpt>
      <trkpt lat="44.08932" lon="7.00124">
        <ele>1382</ele>
        <time>2022-07-26T07:39:01Z</time>
      </trkpt>
      <trkpt lat="44.08932" lon="7.00125">
        <ele>1382</ele>
        <time>2022-07-26T07:39:02Z</time>
      </trkpt>
      <trkpt lat="44.08932" lon="7.00126">
        <ele>1382</ele>
        <time>2022-07-26T07:39:03Z</time>
      </trkpt>
      <trkpt lat="44.08932" lon="7.00127">
        <ele>1382</ele>
        <time>2022-07-26T07:39:04Z</time>
      </trkpt>
      <trkpt lat="44.08932" lon="7.00128">
        <ele>1382</ele>
        <time>2022-07-26T07:39:05Z</time>
      </trkpt>
      <trkpt lat="44.08932" lon="7.00129">
        <ele>1382</ele>
        <time>2022-07-26T07:39:06Z</time>
      </trkpt>
      <trkpt lat="44.08932" lon="7.00131">
        <ele>1382</ele>
        <time>2022-07-26T07:39:07Z</time>
      </trkpt>
      <trkpt lat="44.08932" lon="7.00132">
        <ele>1382</ele>
        <time>2022-07-26T07:39:08Z</time>
      </trkpt>
      <trkpt lat="44.08932" lon="7.00133">
        <ele>1382</ele>
        <time>2022-07-26T07:39:09Z</time>
      </trkpt>
      <trkpt lat="44.08932" lon="7.00134">
        <ele>1382</ele>
        <time>2022-07-26T07:39:10Z</time>
      </trkpt>
      <trkpt lat="44.08932" lon="7.00135">
        <ele>1382</ele>
        <time>2022-07-26T07:39:11Z</time>
      </trkpt>
      <trkpt lat="44.08932" lon="7.00136">
        <ele>1383</ele>
        <time>2022-07-26T07:39:12Z</time>
      </trkpt>
      <trkpt lat="44.08932" lon="7.00137">
        <ele>1383</ele>
        <time>2022-07-26T07:39:13Z</time>
      </trkpt>
      <trkpt lat="44.08931" lon="7.00137">
        <ele>1383</ele>
        <time>2022-07-26T07:39:14Z</time>
      </trkpt>
      <trkpt lat="44.08931" lon="7.00138">
        <ele>1383</ele>
        <time>2022-07-26T07:39:15Z</time>
      </trkpt>
      <trkpt lat="44.08931" lon="7.00139">
        <ele>1383</ele>
        <time>2022-07-26T07:39:16Z</time>
      </trkpt>
      <trkpt lat="44.08931" lon="7.0014">
        <ele>1383</ele>
        <time>2022-07-26T07:39:17Z</time>
      </trkpt>
      <trkpt lat="44.08931" lon="7.00141">
        <ele>1383</ele>
        <time>2022-07-26T07:39:18Z</time>
      </trkpt>
      <trkpt lat="44.08931" lon="7.00142">
        <ele>1383</ele>
        <time>2022-07-26T07:39:19Z</time>
      </trkpt>
      <trkpt lat="44.08931" lon="7.00142">
        <ele>1383</ele>
        <time>2022-07-26T07:39:20Z</time>
      </trkpt>
      <trkpt lat="44.08931" lon="7.00143">
        <ele>1383</ele>
        <time>2022-07-26T07:39:21Z</time>
      </trkpt>
      <trkpt lat="44.08931" lon="7.00144">
        <ele>1383</ele>
        <time>2022-07-26T07:39:22Z</time>
      </trkpt>
      <trkpt lat="44.08931" lon="7.00145">
        <ele>1383</ele>
        <time>2022-07-26T07:39:23Z</time>
      </trkpt>
      <trkpt lat="44.08931" lon="7.00146">
        <ele>1383</ele>
        <time>2022-07-26T07:39:24Z</time>
      </trkpt>
      <trkpt lat="44.08931" lon="7.00147">
        <ele>1383</ele>
        <time>2022-07-26T07:39:25Z</time>
      </trkpt>
      <trkpt lat="44.08931" lon="7.00148">
        <ele>1383</ele>
        <time>2022-07-26T07:39:26Z</time>
      </trkpt>
      <trkpt lat="44.08931" lon="7.00149">
        <ele>1384</ele>
        <time>2022-07-26T07:39:27Z</time>
      </trkpt>
      <trkpt lat="44.08932" lon="7.0015">
        <ele>1384</ele>
        <time>2022-07-26T07:39:28Z</time>
      </trkpt>
      <trkpt lat="44.08932" lon="7.00151">
        <ele>1384</ele>
        <time>2022-07-26T07:39:29Z</time>
      </trkpt>
      <trkpt lat="44.08932" lon="7.00152">
        <ele>1384</ele>
        <time>2022-07-26T07:39:30Z</time>
      </trkpt>
      <trkpt lat="44.08932" lon="7.00152">
        <ele>1384</ele>
        <time>2022-07-26T07:39:31Z</time>
      </trkpt>
      <trkpt lat="44.08931" lon="7.00152">
        <ele>1384</ele>
        <time>2022-07-26T07:39:32Z</time>
      </trkpt>
      <trkpt lat="44.08931" lon="7.00153">
        <ele>1384</ele>
        <time>2022-07-26T07:39:33Z</time>
      </trkpt>
      <trkpt lat="44.08931" lon="7.00153">
        <ele>1384</ele>
        <time>2022-07-26T07:39:34Z</time>
      </trkpt>
      <trkpt lat="44.08931" lon="7.00153">
        <ele>1385</ele>
        <time>2022-07-26T07:39:35Z</time>
      </trkpt>
      <trkpt lat="44.08931" lon="7.00153">
        <ele>1385</ele>
        <time>2022-07-26T07:39:36Z</time>
      </trkpt>
      <trkpt lat="44.08931" lon="7.00153">
        <ele>1386</ele>
        <time>2022-07-26T07:39:37Z</time>
      </trkpt>
      <trkpt lat="44.0893" lon="7.00153">
        <ele>1386</ele>
        <time>2022-07-26T07:39:38Z</time>
      </trkpt>
      <trkpt lat="44.08929" lon="7.00153">
        <ele>1386</ele>
        <time>2022-07-26T07:39:39Z</time>
      </trkpt>
      <trkpt lat="44.08929" lon="7.00152">
        <ele>1386</ele>
        <time>2022-07-26T07:39:40Z</time>
      </trkpt>
      <trkpt lat="44.08929" lon="7.00152">
        <ele>1386</ele>
        <time>2022-07-26T07:39:41Z</time>
      </trkpt>
      <trkpt lat="44.08928" lon="7.00151">
        <ele>1386</ele>
        <time>2022-07-26T07:39:42Z</time>
      </trkpt>
      <trkpt lat="44.08928" lon="7.0015">
        <ele>1386</ele>
        <time>2022-07-26T07:39:43Z</time>
      </trkpt>
      <trkpt lat="44.08927" lon="7.00149">
        <ele>1386</ele>
        <time>2022-07-26T07:39:44Z</time>
      </trkpt>
      <trkpt lat="44.08927" lon="7.00148">
        <ele>1386</ele>
        <time>2022-07-26T07:39:45Z</time>
      </trkpt>
      <trkpt lat="44.08926" lon="7.00148">
        <ele>1386</ele>
        <time>2022-07-26T07:39:46Z</time>
      </trkpt>
      <trkpt lat="44.08926" lon="7.00147">
        <ele>1387</ele>
        <time>2022-07-26T07:39:47Z</time>
      </trkpt>
      <trkpt lat="44.08925" lon="7.00146">
        <ele>1387</ele>
        <time>2022-07-26T07:39:48Z</time>
      </trkpt>
      <trkpt lat="44.08925" lon="7.00146">
        <ele>1387</ele>
        <time>2022-07-26T07:39:49Z</time>
      </trkpt>
      <trkpt lat="44.08924" lon="7.00145">
        <ele>1387</ele>
        <time>2022-07-26T07:39:50Z</time>
      </trkpt>
      <trkpt lat="44.08924" lon="7.00144">
        <ele>1387</ele>
        <time>2022-07-26T07:39:51Z</time>
      </trkpt>
      <trkpt lat="44.08923" lon="7.00144">
        <ele>1388</ele>
        <time>2022-07-26T07:39:52Z</time>
      </trkpt>
      <trkpt lat="44.08923" lon="7.00143">
        <ele>1388</ele>
        <time>2022-07-26T07:39:53Z</time>
      </trkpt>
      <trkpt lat="44.08923" lon="7.00143">
        <ele>1388</ele>
        <time>2022-07-26T07:39:54Z</time>
      </trkpt>
      <trkpt lat="44.08922" lon="7.00142">
        <ele>1388</ele>
        <time>2022-07-26T07:39:55Z</time>
      </trkpt>
      <trkpt lat="44.08922" lon="7.00142">
        <ele>1388</ele>
        <time>2022-07-26T07:39:56Z</time>
      </trkpt>
      <trkpt lat="44.08921" lon="7.0014">
        <ele>1389</ele>
        <time>2022-07-26T07:40:02Z</time>
      </trkpt>
      <trkpt lat="44.0892" lon="7.0014">
        <ele>1389</ele>
        <time>2022-07-26T07:40:03Z</time>
      </trkpt>
      <trkpt lat="44.08919" lon="7.00139">
        <ele>1389</ele>
        <time>2022-07-26T07:40:04Z</time>
      </trkpt>
      <trkpt lat="44.08918" lon="7.00139">
        <ele>1389</ele>
        <time>2022-07-26T07:40:05Z</time>
      </trkpt>
      <trkpt lat="44.08918" lon="7.00139">
        <ele>1389</ele>
        <time>2022-07-26T07:40:06Z</time>
      </trkpt>
      <trkpt lat="44.08917" lon="7.00138">
        <ele>1390</ele>
        <time>2022-07-26T07:40:07Z</time>
      </trkpt>
      <trkpt lat="44.08917" lon="7.00138">
        <ele>1390</ele>
        <time>2022-07-26T07:40:08Z</time>
      </trkpt>
      <trkpt lat="44.08916" lon="7.00138">
        <ele>1390</ele>
        <time>2022-07-26T07:40:09Z</time>
      </trkpt>
      <trkpt lat="44.08916" lon="7.00137">
        <ele>1390</ele>
        <time>2022-07-26T07:40:10Z</time>
      </trkpt>
      <trkpt lat="44.08916" lon="7.00136">
        <ele>1390</ele>
        <time>2022-07-26T07:40:11Z</time>
      </trkpt>
      <trkpt lat="44.08916" lon="7.00135">
        <ele>1390</ele>
        <time>2022-07-26T07:40:12Z</time>
      </trkpt>
      <trkpt lat="44.08916" lon="7.00135">
        <ele>1390</ele>
        <time>2022-07-26T07:40:13Z</time>
      </trkpt>
      <trkpt lat="44.08916" lon="7.00134">
        <ele>1390</ele>
        <time>2022-07-26T07:40:14Z</time>
      </trkpt>
      <trkpt lat="44.08916" lon="7.00133">
        <ele>1390</ele>
        <time>2022-07-26T07:40:15Z</time>
      </trkpt>
      <trkpt lat="44.08916" lon="7.00132">
        <ele>1390</ele>
        <time>2022-07-26T07:40:16Z</time>
      </trkpt>
      <trkpt lat="44.08916" lon="7.00131">
        <ele>1391</ele>
        <time>2022-07-26T07:40:17Z</time>
      </trkpt>
      <trkpt lat="44.08916" lon="7.0013">
        <ele>1391</ele>
        <time>2022-07-26T07:40:18Z</time>
      </trkpt>
      <trkpt lat="44.08916" lon="7.00129">
        <ele>1391</ele>
        <time>2022-07-26T07:40:19Z</time>
      </trkpt>
      <trkpt lat="44.08916" lon="7.00128">
        <ele>1391</ele>
        <time>2022-07-26T07:40:20Z</time>
      </trkpt>
      <trkpt lat="44.08916" lon="7.00127">
        <ele>1391</ele>
        <time>2022-07-26T07:40:21Z</time>
      </trkpt>
      <trkpt lat="44.08916" lon="7.00126">
        <ele>1392</ele>
        <time>2022-07-26T07:40:22Z</time>
      </trkpt>
      <trkpt lat="44.08916" lon="7.00125">
        <ele>1392</ele>
        <time>2022-07-26T07:40:23Z</time>
      </trkpt>
      <trkpt lat="44.08915" lon="7.00124">
        <ele>1392</ele>
        <time>2022-07-26T07:40:24Z</time>
      </trkpt>
      <trkpt lat="44.08915" lon="7.00123">
        <ele>1392</ele>
        <time>2022-07-26T07:40:25Z</time>
      </trkpt>
      <trkpt lat="44.08914" lon="7.00122">
        <ele>1392</ele>
        <time>2022-07-26T07:40:26Z</time>
      </trkpt>
      <trkpt lat="44.08913" lon="7.00121">
        <ele>1393</ele>
        <time>2022-07-26T07:40:27Z</time>
      </trkpt>
      <trkpt lat="44.08912" lon="7.00121">
        <ele>1393</ele>
        <time>2022-07-26T07:40:28Z</time>
      </trkpt>
      <trkpt lat="44.08911" lon="7.0012">
        <ele>1393</ele>
        <time>2022-07-26T07:40:29Z</time>
      </trkpt>
      <trkpt lat="44.0891" lon="7.00119">
        <ele>1393</ele>
        <time>2022-07-26T07:40:30Z</time>
      </trkpt>
      <trkpt lat="44.08909" lon="7.00118">
        <ele>1393</ele>
        <time>2022-07-26T07:40:31Z</time>
      </trkpt>
      <trkpt lat="44.08908" lon="7.00118">
        <ele>1393</ele>
        <time>2022-07-26T07:40:32Z</time>
      </trkpt>
      <trkpt lat="44.08908" lon="7.00118">
        <ele>1393</ele>
        <time>2022-07-26T07:40:33Z</time>
      </trkpt>
      <trkpt lat="44.08907" lon="7.00118">
        <ele>1393</ele>
        <time>2022-07-26T07:40:34Z</time>
      </trkpt>
      <trkpt lat="44.08907" lon="7.00118">
        <ele>1393</ele>
        <time>2022-07-26T07:40:35Z</time>
      </trkpt>
      <trkpt lat="44.08906" lon="7.00118">
        <ele>1393</ele>
        <time>2022-07-26T07:40:36Z</time>
      </trkpt>
      <trkpt lat="44.08905" lon="7.00119">
        <ele>1394</ele>
        <time>2022-07-26T07:40:37Z</time>
      </trkpt>
      <trkpt lat="44.08904" lon="7.00119">
        <ele>1394</ele>
        <time>2022-07-26T07:40:38Z</time>
      </trkpt>
      <trkpt lat="44.08904" lon="7.0012">
        <ele>1394</ele>
        <time>2022-07-26T07:40:39Z</time>
      </trkpt>
      <trkpt lat="44.08904" lon="7.0012">
        <ele>1394</ele>
        <time>2022-07-26T07:40:40Z</time>
      </trkpt>
      <trkpt lat="44.08904" lon="7.00121">
        <ele>1394</ele>
        <time>2022-07-26T07:40:41Z</time>
      </trkpt>
      <trkpt lat="44.08904" lon="7.00122">
        <ele>1395</ele>
        <time>2022-07-26T07:40:42Z</time>
      </trkpt>
      <trkpt lat="44.08904" lon="7.00123">
        <ele>1395</ele>
        <time>2022-07-26T07:40:43Z</time>
      </trkpt>
      <trkpt lat="44.08904" lon="7.00123">
        <ele>1395</ele>
        <time>2022-07-26T07:40:44Z</time>
      </trkpt>
      <trkpt lat="44.08905" lon="7.00124">
        <ele>1395</ele>
        <time>2022-07-26T07:40:45Z</time>
      </trkpt>
      <trkpt lat="44.08905" lon="7.00125">
        <ele>1395</ele>
        <time>2022-07-26T07:40:46Z</time>
      </trkpt>
      <trkpt lat="44.08906" lon="7.00126">
        <ele>1395</ele>
        <time>2022-07-26T07:40:47Z</time>
      </trkpt>
      <trkpt lat="44.08906" lon="7.00128">
        <ele>1395</ele>
        <time>2022-07-26T07:40:48Z</time>
      </trkpt>
      <trkpt lat="44.08906" lon="7.00129">
        <ele>1395</ele>
        <time>2022-07-26T07:40:49Z</time>
      </trkpt>
      <trkpt lat="44.08907" lon="7.00131">
        <ele>1395</ele>
        <time>2022-07-26T07:40:50Z</time>
      </trkpt>
      <trkpt lat="44.08907" lon="7.00132">
        <ele>1395</ele>
        <time>2022-07-26T07:40:51Z</time>
      </trkpt>
      <trkpt lat="44.08907" lon="7.00134">
        <ele>1396</ele>
        <time>2022-07-26T07:40:52Z</time>
      </trkpt>
      <trkpt lat="44.08908" lon="7.0014">
        <ele>1398</ele>
        <time>2022-07-26T07:41:16Z</time>
      </trkpt>
      <trkpt lat="44.08909" lon="7.00143">
        <ele>1398</ele>
        <time>2022-07-26T07:41:17Z</time>
      </trkpt>
      <trkpt lat="44.08909" lon="7.00145">
        <ele>1398</ele>
        <time>2022-07-26T07:41:18Z</time>
      </trkpt>
      <trkpt lat="44.08909" lon="7.00147">
        <ele>1398</ele>
        <time>2022-07-26T07:41:19Z</time>
      </trkpt>
      <trkpt lat="44.0891" lon="7.00149">
        <ele>1398</ele>
        <time>2022-07-26T07:41:20Z</time>
      </trkpt>
      <trkpt lat="44.0891" lon="7.0015">
        <ele>1398</ele>
        <time>2022-07-26T07:41:21Z</time>
      </trkpt>
      <trkpt lat="44.0891" lon="7.00151">
        <ele>1399</ele>
        <time>2022-07-26T07:41:22Z</time>
      </trkpt>
      <trkpt lat="44.08911" lon="7.00155">
        <ele>1401</ele>
        <time>2022-07-26T07:41:58Z</time>
      </trkpt>
      <trkpt lat="44.08911" lon="7.00156">
        <ele>1401</ele>
        <time>2022-07-26T07:41:59Z</time>
      </trkpt>
      <trkpt lat="44.0891" lon="7.00157">
        <ele>1401</ele>
        <time>2022-07-26T07:42:00Z</time>
      </trkpt>
      <trkpt lat="44.08911" lon="7.00158">
        <ele>1401</ele>
        <time>2022-07-26T07:42:01Z</time>
      </trkpt>
      <trkpt lat="44.08911" lon="7.00159">
        <ele>1401</ele>
        <time>2022-07-26T07:42:02Z</time>
      </trkpt>
      <trkpt lat="44.08912" lon="7.0016">
        <ele>1401</ele>
        <time>2022-07-26T07:42:03Z</time>
      </trkpt>
      <trkpt lat="44.08913" lon="7.00161">
        <ele>1401</ele>
        <time>2022-07-26T07:42:04Z</time>
      </trkpt>
      <trkpt lat="44.08913" lon="7.00163">
        <ele>1401</ele>
        <time>2022-07-26T07:42:05Z</time>
      </trkpt>
      <trkpt lat="44.08914" lon="7.00164">
        <ele>1401</ele>
        <time>2022-07-26T07:42:06Z</time>
      </trkpt>
      <trkpt lat="44.08915" lon="7.00165">
        <ele>1401</ele>
        <time>2022-07-26T07:42:07Z</time>
      </trkpt>
      <trkpt lat="44.08915" lon="7.00166">
        <ele>1401</ele>
        <time>2022-07-26T07:42:08Z</time>
      </trkpt>
      <trkpt lat="44.08915" lon="7.00168">
        <ele>1401</ele>
        <time>2022-07-26T07:42:09Z</time>
      </trkpt>
      <trkpt lat="44.08916" lon="7.00169">
        <ele>1401</ele>
        <time>2022-07-26T07:42:10Z</time>
      </trkpt>
      <trkpt lat="44.08916" lon="7.0017">
        <ele>1401</ele>
        <time>2022-07-26T07:42:11Z</time>
      </trkpt>
      <trkpt lat="44.08916" lon="7.00172">
        <ele>1401</ele>
        <time>2022-07-26T07:42:12Z</time>
      </trkpt>
      <trkpt lat="44.08916" lon="7.00173">
        <ele>1401</ele>
        <time>2022-07-26T07:42:13Z</time>
      </trkpt>
      <trkpt lat="44.08916" lon="7.00175">
        <ele>1401</ele>
        <time>2022-07-26T07:42:14Z</time>
      </trkpt>
      <trkpt lat="44.08916" lon="7.00176">
        <ele>1401</ele>
        <time>2022-07-26T07:42:15Z</time>
      </trkpt>
      <trkpt lat="44.08916" lon="7.00178">
        <ele>1401</ele>
        <time>2022-07-26T07:42:16Z</time>
      </trkpt>
      <trkpt lat="44.08916" lon="7.00179">
        <ele>1402</ele>
        <time>2022-07-26T07:42:17Z</time>
      </trkpt>
      <trkpt lat="44.08916" lon="7.0018">
        <ele>1402</ele>
        <time>2022-07-26T07:42:18Z</time>
      </trkpt>
      <trkpt lat="44.08916" lon="7.00181">
        <ele>1402</ele>
        <time>2022-07-26T07:42:19Z</time>
      </trkpt>
      <trkpt lat="44.08917" lon="7.00182">
        <ele>1403</ele>
        <time>2022-07-26T07:42:20Z</time>
      </trkpt>
      <trkpt lat="44.08917" lon="7.00183">
        <ele>1403</ele>
        <time>2022-07-26T07:42:21Z</time>
      </trkpt>
      <trkpt lat="44.08917" lon="7.00184">
        <ele>1404</ele>
        <time>2022-07-26T07:42:22Z</time>
      </trkpt>
      <trkpt lat="44.08917" lon="7.00186">
        <ele>1404</ele>
        <time>2022-07-26T07:42:23Z</time>
      </trkpt>
      <trkpt lat="44.08917" lon="7.00187">
        <ele>1404</ele>
        <time>2022-07-26T07:42:24Z</time>
      </trkpt>
      <trkpt lat="44.08917" lon="7.00188">
        <ele>1404</ele>
        <time>2022-07-26T07:42:25Z</time>
      </trkpt>
      <trkpt lat="44.08917" lon="7.0019">
        <ele>1404</ele>
        <time>2022-07-26T07:42:26Z</time>
      </trkpt>
      <trkpt lat="44.08918" lon="7.00191">
        <ele>1405</ele>
        <time>2022-07-26T07:42:27Z</time>
      </trkpt>
      <trkpt lat="44.08918" lon="7.00192">
        <ele>1405</ele>
        <time>2022-07-26T07:42:28Z</time>
      </trkpt>
      <trkpt lat="44.08918" lon="7.00193">
        <ele>1405</ele>
        <time>2022-07-26T07:42:29Z</time>
      </trkpt>
      <trkpt lat="44.08918" lon="7.00194">
        <ele>1405</ele>
        <time>2022-07-26T07:42:30Z</time>
      </trkpt>
      <trkpt lat="44.08918" lon="7.00195">
        <ele>1405</ele>
        <time>2022-07-26T07:42:31Z</time>
      </trkpt>
      <trkpt lat="44.08918" lon="7.00196">
        <ele>1406</ele>
        <time>2022-07-26T07:42:32Z</time>
      </trkpt>
      <trkpt lat="44.08918" lon="7.00197">
        <ele>1406</ele>
        <time>2022-07-26T07:42:33Z</time>
      </trkpt>
      <trkpt lat="44.08919" lon="7.00198">
        <ele>1406</ele>
        <time>2022-07-26T07:42:34Z</time>
      </trkpt>
      <trkpt lat="44.08919" lon="7.00199">
        <ele>1406</ele>
        <time>2022-07-26T07:42:35Z</time>
      </trkpt>
      <trkpt lat="44.08919" lon="7.00201">
        <ele>1406</ele>
        <time>2022-07-26T07:42:36Z</time>
      </trkpt>
      <trkpt lat="44.08919" lon="7.00202">
        <ele>1407</ele>
        <time>2022-07-26T07:42:37Z</time>
      </trkpt>
      <trkpt lat="44.08919" lon="7.00203">
        <ele>1407</ele>
        <time>2022-07-26T07:42:38Z</time>
      </trkpt>
      <trkpt lat="44.08919" lon="7.00204">
        <ele>1407</ele>
        <time>2022-07-26T07:42:39Z</time>
      </trkpt>
      <trkpt lat="44.08919" lon="7.00205">
        <ele>1407</ele>
        <time>2022-07-26T07:42:40Z</time>
      </trkpt>
      <trkpt lat="44.0892" lon="7.00207">
        <ele>1407</ele>
        <time>2022-07-26T07:42:41Z</time>
      </trkpt>
      <trkpt lat="44.0892" lon="7.00208">
        <ele>1407</ele>
        <time>2022-07-26T07:42:42Z</time>
      </trkpt>
      <trkpt lat="44.0892" lon="7.00209">
        <ele>1407</ele>
        <time>2022-07-26T07:42:43Z</time>
      </trkpt>
      <trkpt lat="44.0892" lon="7.0021">
        <ele>1407</ele>
        <time>2022-07-26T07:42:44Z</time>
      </trkpt>
      <trkpt lat="44.08921" lon="7.00211">
        <ele>1407</ele>
        <time>2022-07-26T07:42:45Z</time>
      </trkpt>
      <trkpt lat="44.08921" lon="7.00213">
        <ele>1407</ele>
        <time>2022-07-26T07:42:46Z</time>
      </trkpt>
      <trkpt lat="44.08921" lon="7.00213">
        <ele>1408</ele>
        <time>2022-07-26T07:42:47Z</time>
      </trkpt>
      <trkpt lat="44.08921" lon="7.00214">
        <ele>1408</ele>
        <time>2022-07-26T07:42:48Z</time>
      </trkpt>
      <trkpt lat="44.08922" lon="7.00216">
        <ele>1408</ele>
        <time>2022-07-26T07:42:49Z</time>
      </trkpt>
      <trkpt lat="44.08922" lon="7.00217">
        <ele>1408</ele>
        <time>2022-07-26T07:42:50Z</time>
      </trkpt>
      <trkpt lat="44.08922" lon="7.00219">
        <ele>1408</ele>
        <time>2022-07-26T07:42:51Z</time>
      </trkpt>
      <trkpt lat="44.08923" lon="7.0022">
        <ele>1409</ele>
        <time>2022-07-26T07:42:52Z</time>
      </trkpt>
      <trkpt lat="44.08923" lon="7.00222">
        <ele>1409</ele>
        <time>2022-07-26T07:42:53Z</time>
      </trkpt>
      <trkpt lat="44.08923" lon="7.00223">
        <ele>1409</ele>
        <time>2022-07-26T07:42:54Z</time>
      </trkpt>
      <trkpt lat="44.08923" lon="7.00224">
        <ele>1409</ele>
        <time>2022-07-26T07:42:55Z</time>
      </trkpt>
      <trkpt lat="44.08922" lon="7.00225">
        <ele>1409</ele>
        <time>2022-07-26T07:42:56Z</time>
      </trkpt>
      <trkpt lat="44.08922" lon="7.00226">
        <ele>1410</ele>
        <time>2022-07-26T07:42:57Z</time>
      </trkpt>
      <trkpt lat="44.08921" lon="7.00227">
        <ele>1410</ele>
        <time>2022-07-26T07:42:58Z</time>
      </trkpt>
      <trkpt lat="44.0892" lon="7.00229">
        <ele>1410</ele>
        <time>2022-07-26T07:42:59Z</time>
      </trkpt>
      <trkpt lat="44.0892" lon="7.0023">
        <ele>1410</ele>
        <time>2022-07-26T07:43:00Z</time>
      </trkpt>
      <trkpt lat="44.0892" lon="7.00231">
        <ele>1410</ele>
        <time>2022-07-26T07:43:01Z</time>
      </trkpt>
      <trkpt lat="44.08919" lon="7.00233">
        <ele>1411</ele>
        <time>2022-07-26T07:43:02Z</time>
      </trkpt>
      <trkpt lat="44.08919" lon="7.00234">
        <ele>1411</ele>
        <time>2022-07-26T07:43:03Z</time>
      </trkpt>
      <trkpt lat="44.08919" lon="7.00235">
        <ele>1411</ele>
        <time>2022-07-26T07:43:04Z</time>
      </trkpt>
      <trkpt lat="44.08918" lon="7.00236">
        <ele>1411</ele>
        <time>2022-07-26T07:43:05Z</time>
      </trkpt>
      <trkpt lat="44.08918" lon="7.00238">
        <ele>1411</ele>
        <time>2022-07-26T07:43:06Z</time>
      </trkpt>
      <trkpt lat="44.08917" lon="7.00239">
        <ele>1411</ele>
        <time>2022-07-26T07:43:07Z</time>
      </trkpt>
      <trkpt lat="44.08917" lon="7.00239">
        <ele>1411</ele>
        <time>2022-07-26T07:43:08Z</time>
      </trkpt>
      <trkpt lat="44.08916" lon="7.0024">
        <ele>1411</ele>
        <time>2022-07-26T07:43:09Z</time>
      </trkpt>
      <trkpt lat="44.08916" lon="7.00241">
        <ele>1412</ele>
        <time>2022-07-26T07:43:10Z</time>
      </trkpt>
      <trkpt lat="44.08915" lon="7.00242">
        <ele>1412</ele>
        <time>2022-07-26T07:43:11Z</time>
      </trkpt>
      <trkpt lat="44.08915" lon="7.00243">
        <ele>1413</ele>
        <time>2022-07-26T07:43:12Z</time>
      </trkpt>
      <trkpt lat="44.08914" lon="7.00244">
        <ele>1413</ele>
        <time>2022-07-26T07:43:13Z</time>
      </trkpt>
      <trkpt lat="44.08914" lon="7.00244">
        <ele>1413</ele>
        <time>2022-07-26T07:43:14Z</time>
      </trkpt>
      <trkpt lat="44.08913" lon="7.00245">
        <ele>1413</ele>
        <time>2022-07-26T07:43:15Z</time>
      </trkpt>
      <trkpt lat="44.08913" lon="7.00246">
        <ele>1413</ele>
        <time>2022-07-26T07:43:16Z</time>
      </trkpt>
      <trkpt lat="44.08912" lon="7.00247">
        <ele>1414</ele>
        <time>2022-07-26T07:43:17Z</time>
      </trkpt>
      <trkpt lat="44.08912" lon="7.00247">
        <ele>1414</ele>
        <time>2022-07-26T07:43:18Z</time>
      </trkpt>
      <trkpt lat="44.08911" lon="7.00248">
        <ele>1414</ele>
        <time>2022-07-26T07:43:19Z</time>
      </trkpt>
      <trkpt lat="44.08911" lon="7.00248">
        <ele>1414</ele>
        <time>2022-07-26T07:43:20Z</time>
      </trkpt>
      <trkpt lat="44.0891" lon="7.00249">
        <ele>1414</ele>
        <time>2022-07-26T07:43:21Z</time>
      </trkpt>
      <trkpt lat="44.0891" lon="7.0025">
        <ele>1415</ele>
        <time>2022-07-26T07:43:22Z</time>
      </trkpt>
      <trkpt lat="44.0891" lon="7.0025">
        <ele>1415</ele>
        <time>2022-07-26T07:43:23Z</time>
      </trkpt>
      <trkpt lat="44.08909" lon="7.00251">
        <ele>1415</ele>
        <time>2022-07-26T07:43:24Z</time>
      </trkpt>
      <trkpt lat="44.08909" lon="7.00251">
        <ele>1415</ele>
        <time>2022-07-26T07:43:25Z</time>
      </trkpt>
      <trkpt lat="44.08909" lon="7.00251">
        <ele>1415</ele>
        <time>2022-07-26T07:43:26Z</time>
      </trkpt>
      <trkpt lat="44.08909" lon="7.00252">
        <ele>1416</ele>
        <time>2022-07-26T07:43:27Z</time>
      </trkpt>
      <trkpt lat="44.08908" lon="7.00253">
        <ele>1416</ele>
        <time>2022-07-26T07:43:28Z</time>
      </trkpt>
      <trkpt lat="44.08908" lon="7.00253">
        <ele>1416</ele>
        <time>2022-07-26T07:43:29Z</time>
      </trkpt>
      <trkpt lat="44.08907" lon="7.00254">
        <ele>1416</ele>
        <time>2022-07-26T07:43:30Z</time>
      </trkpt>
      <trkpt lat="44.08906" lon="7.00255">
        <ele>1416</ele>
        <time>2022-07-26T07:43:31Z</time>
      </trkpt>
      <trkpt lat="44.08906" lon="7.00255">
        <ele>1416</ele>
        <time>2022-07-26T07:43:32Z</time>
      </trkpt>
      <trkpt lat="44.08906" lon="7.00256">
        <ele>1416</ele>
        <time>2022-07-26T07:43:33Z</time>
      </trkpt>
      <trkpt lat="44.08905" lon="7.00257">
        <ele>1416</ele>
        <time>2022-07-26T07:43:34Z</time>
      </trkpt>
      <trkpt lat="44.08905" lon="7.00257">
        <ele>1416</ele>
        <time>2022-07-26T07:43:35Z</time>
      </trkpt>
      <trkpt lat="44.08905" lon="7.00258">
        <ele>1416</ele>
        <time>2022-07-26T07:43:36Z</time>
      </trkpt>
      <trkpt lat="44.08904" lon="7.00258">
        <ele>1417</ele>
        <time>2022-07-26T07:43:37Z</time>
      </trkpt>
      <trkpt lat="44.08904" lon="7.00259">
        <ele>1417</ele>
        <time>2022-07-26T07:43:38Z</time>
      </trkpt>
      <trkpt lat="44.08903" lon="7.0026">
        <ele>1417</ele>
        <time>2022-07-26T07:43:39Z</time>
      </trkpt>
      <trkpt lat="44.08903" lon="7.00261">
        <ele>1417</ele>
        <time>2022-07-26T07:43:40Z</time>
      </trkpt>
      <trkpt lat="44.08903" lon="7.00262">
        <ele>1417</ele>
        <time>2022-07-26T07:43:41Z</time>
      </trkpt>
      <trkpt lat="44.08902" lon="7.00262">
        <ele>1418</ele>
        <time>2022-07-26T07:43:42Z</time>
      </trkpt>
      <trkpt lat="44.08902" lon="7.00263">
        <ele>1418</ele>
        <time>2022-07-26T07:43:43Z</time>
      </trkpt>
      <trkpt lat="44.08902" lon="7.00264">
        <ele>1419</ele>
        <time>2022-07-26T07:43:44Z</time>
      </trkpt>
      <trkpt lat="44.08901" lon="7.00265">
        <ele>1419</ele>
        <time>2022-07-26T07:43:45Z</time>
      </trkpt>
      <trkpt lat="44.08901" lon="7.00265">
        <ele>1420</ele>
        <time>2022-07-26T07:43:46Z</time>
      </trkpt>
      <trkpt lat="44.08901" lon="7.00266">
        <ele>1421</ele>
        <time>2022-07-26T07:43:47Z</time>
      </trkpt>
      <trkpt lat="44.08901" lon="7.00267">
        <ele>1421</ele>
        <time>2022-07-26T07:43:48Z</time>
      </trkpt>
      <trkpt lat="44.089" lon="7.00268">
        <ele>1421</ele>
        <time>2022-07-26T07:43:49Z</time>
      </trkpt>
      <trkpt lat="44.089" lon="7.00269">
        <ele>1421</ele>
        <time>2022-07-26T07:43:50Z</time>
      </trkpt>
      <trkpt lat="44.089" lon="7.0027">
        <ele>1421</ele>
        <time>2022-07-26T07:43:51Z</time>
      </trkpt>
      <trkpt lat="44.089" lon="7.00272">
        <ele>1422</ele>
        <time>2022-07-26T07:43:52Z</time>
      </trkpt>
      <trkpt lat="44.089" lon="7.00273">
        <ele>1422</ele>
        <time>2022-07-26T07:43:53Z</time>
      </trkpt>
      <trkpt lat="44.089" lon="7.00274">
        <ele>1422</ele>
        <time>2022-07-26T07:43:54Z</time>
      </trkpt>
      <trkpt lat="44.089" lon="7.00276">
        <ele>1422</ele>
        <time>2022-07-26T07:43:55Z</time>
      </trkpt>
      <trkpt lat="44.089" lon="7.00277">
        <ele>1422</ele>
        <time>2022-07-26T07:43:56Z</time>
      </trkpt>
      <trkpt lat="44.08899" lon="7.0028">
        <ele>1423</ele>
        <time>2022-07-26T07:44:06Z</time>
      </trkpt>
      <trkpt lat="44.08898" lon="7.00282">
        <ele>1424</ele>
        <time>2022-07-26T07:44:07Z</time>
      </trkpt>
      <trkpt lat="44.08897" lon="7.00283">
        <ele>1424</ele>
        <time>2022-07-26T07:44:08Z</time>
      </trkpt>
      <trkpt lat="44.08897" lon="7.00284">
        <ele>1424</ele>
        <time>2022-07-26T07:44:09Z</time>
      </trkpt>
      <trkpt lat="44.08897" lon="7.00284">
        <ele>1424</ele>
        <time>2022-07-26T07:44:10Z</time>
      </trkpt>
      <trkpt lat="44.08897" lon="7.00285">
        <ele>1424</ele>
        <time>2022-07-26T07:44:11Z</time>
      </trkpt>
      <trkpt lat="44.08896" lon="7.00285">
        <ele>1425</ele>
        <time>2022-07-26T07:44:12Z</time>
      </trkpt>
      <trkpt lat="44.08896" lon="7.00286">
        <ele>1425</ele>
        <time>2022-07-26T07:44:13Z</time>
      </trkpt>
      <trkpt lat="44.08896" lon="7.00287">
        <ele>1425</ele>
        <time>2022-07-26T07:44:14Z</time>
      </trkpt>
      <trkpt lat="44.08896" lon="7.00288">
        <ele>1425</ele>
        <time>2022-07-26T07:44:15Z</time>
      </trkpt>
      <trkpt lat="44.08896" lon="7.0029">
        <ele>1425</ele>
        <time>2022-07-26T07:44:16Z</time>
      </trkpt>
      <trkpt lat="44.08896" lon="7.00291">
        <ele>1426</ele>
        <time>2022-07-26T07:44:17Z</time>
      </trkpt>
      <trkpt lat="44.08896" lon="7.00292">
        <ele>1426</ele>
        <time>2022-07-26T07:44:18Z</time>
      </trkpt>
      <trkpt lat="44.08896" lon="7.00294">
        <ele>1426</ele>
        <time>2022-07-26T07:44:19Z</time>
      </trkpt>
      <trkpt lat="44.08896" lon="7.00296">
        <ele>1426</ele>
        <time>2022-07-26T07:44:20Z</time>
      </trkpt>
      <trkpt lat="44.08895" lon="7.00298">
        <ele>1426</ele>
        <time>2022-07-26T07:44:21Z</time>
      </trkpt>
      <trkpt lat="44.08895" lon="7.00301">
        <ele>1427</ele>
        <time>2022-07-26T07:44:22Z</time>
      </trkpt>
      <trkpt lat="44.08895" lon="7.00302">
        <ele>1427</ele>
        <time>2022-07-26T07:44:23Z</time>
      </trkpt>
      <trkpt lat="44.08895" lon="7.00303">
        <ele>1427</ele>
        <time>2022-07-26T07:44:24Z</time>
      </trkpt>
      <trkpt lat="44.08895" lon="7.00303">
        <ele>1427</ele>
        <time>2022-07-26T07:44:25Z</time>
      </trkpt>
      <trkpt lat="44.08895" lon="7.00303">
        <ele>1427</ele>
        <time>2022-07-26T07:44:26Z</time>
      </trkpt>
      <trkpt lat="44.08895" lon="7.00304">
        <ele>1428</ele>
        <time>2022-07-26T07:44:27Z</time>
      </trkpt>
      <trkpt lat="44.08895" lon="7.00304">
        <ele>1428</ele>
        <time>2022-07-26T07:44:28Z</time>
      </trkpt>
      <trkpt lat="44.08895" lon="7.00305">
        <ele>1428</ele>
        <time>2022-07-26T07:44:29Z</time>
      </trkpt>
      <trkpt lat="44.08895" lon="7.00307">
        <ele>1428</ele>
        <time>2022-07-26T07:44:30Z</time>
      </trkpt>
      <trkpt lat="44.08895" lon="7.00307">
        <ele>1428</ele>
        <time>2022-07-26T07:44:31Z</time>
      </trkpt>
      <trkpt lat="44.08895" lon="7.00308">
        <ele>1429</ele>
        <time>2022-07-26T07:44:32Z</time>
      </trkpt>
      <trkpt lat="44.08895" lon="7.00309">
        <ele>1429</ele>
        <time>2022-07-26T07:44:33Z</time>
      </trkpt>
      <trkpt lat="44.08895" lon="7.0031">
        <ele>1429</ele>
        <time>2022-07-26T07:44:34Z</time>
      </trkpt>
      <trkpt lat="44.08895" lon="7.0031">
        <ele>1429</ele>
        <time>2022-07-26T07:44:35Z</time>
      </trkpt>
      <trkpt lat="44.08894" lon="7.00311">
        <ele>1429</ele>
        <time>2022-07-26T07:44:36Z</time>
      </trkpt>
      <trkpt lat="44.08894" lon="7.00311">
        <ele>1429</ele>
        <time>2022-07-26T07:44:37Z</time>
      </trkpt>
      <trkpt lat="44.08894" lon="7.00312">
        <ele>1429</ele>
        <time>2022-07-26T07:44:38Z</time>
      </trkpt>
      <trkpt lat="44.08894" lon="7.00312">
        <ele>1429</ele>
        <time>2022-07-26T07:44:39Z</time>
      </trkpt>
      <trkpt lat="44.08894" lon="7.00313">
        <ele>1429</ele>
        <time>2022-07-26T07:44:40Z</time>
      </trkpt>
      <trkpt lat="44.08894" lon="7.00313">
        <ele>1429</ele>
        <time>2022-07-26T07:44:41Z</time>
      </trkpt>
      <trkpt lat="44.08894" lon="7.00314">
        <ele>1430</ele>
        <time>2022-07-26T07:44:42Z</time>
      </trkpt>
      <trkpt lat="44.08894" lon="7.00315">
        <ele>1430</ele>
        <time>2022-07-26T07:44:43Z</time>
      </trkpt>
      <trkpt lat="44.08895" lon="7.00316">
        <ele>1430</ele>
        <time>2022-07-26T07:44:44Z</time>
      </trkpt>
      <trkpt lat="44.08895" lon="7.00318">
        <ele>1430</ele>
        <time>2022-07-26T07:44:45Z</time>
      </trkpt>
      <trkpt lat="44.08896" lon="7.00319">
        <ele>1430</ele>
        <time>2022-07-26T07:44:46Z</time>
      </trkpt>
      <trkpt lat="44.08897" lon="7.00321">
        <ele>1430</ele>
        <time>2022-07-26T07:44:47Z</time>
      </trkpt>
      <trkpt lat="44.08897" lon="7.00322">
        <ele>1430</ele>
        <time>2022-07-26T07:44:48Z</time>
      </trkpt>
      <trkpt lat="44.08897" lon="7.00323">
        <ele>1430</ele>
        <time>2022-07-26T07:44:49Z</time>
      </trkpt>
      <trkpt lat="44.08897" lon="7.00324">
        <ele>1430</ele>
        <time>2022-07-26T07:44:50Z</time>
      </trkpt>
      <trkpt lat="44.08897" lon="7.00325">
        <ele>1430</ele>
        <time>2022-07-26T07:44:51Z</time>
      </trkpt>
      <trkpt lat="44.08897" lon="7.00326">
        <ele>1431</ele>
        <time>2022-07-26T07:44:52Z</time>
      </trkpt>
      <trkpt lat="44.08897" lon="7.00327">
        <ele>1431</ele>
        <time>2022-07-26T07:44:53Z</time>
      </trkpt>
      <trkpt lat="44.08898" lon="7.00328">
        <ele>1431</ele>
        <time>2022-07-26T07:44:54Z</time>
      </trkpt>
      <trkpt lat="44.08898" lon="7.00329">
        <ele>1431</ele>
        <time>2022-07-26T07:44:55Z</time>
      </trkpt>
      <trkpt lat="44.08898" lon="7.0033">
        <ele>1431</ele>
        <time>2022-07-26T07:44:56Z</time>
      </trkpt>
      <trkpt lat="44.08898" lon="7.00331">
        <ele>1432</ele>
        <time>2022-07-26T07:44:57Z</time>
      </trkpt>
      <trkpt lat="44.08898" lon="7.00332">
        <ele>1432</ele>
        <time>2022-07-26T07:44:58Z</time>
      </trkpt>
      <trkpt lat="44.08898" lon="7.00334">
        <ele>1432</ele>
        <time>2022-07-26T07:44:59Z</time>
      </trkpt>
      <trkpt lat="44.08899" lon="7.00335">
        <ele>1432</ele>
        <time>2022-07-26T07:45:00Z</time>
      </trkpt>
      <trkpt lat="44.08899" lon="7.00336">
        <ele>1432</ele>
        <time>2022-07-26T07:45:01Z</time>
      </trkpt>
      <trkpt lat="44.08899" lon="7.00337">
        <ele>1433</ele>
        <time>2022-07-26T07:45:02Z</time>
      </trkpt>
      <trkpt lat="44.08899" lon="7.00338">
        <ele>1433</ele>
        <time>2022-07-26T07:45:03Z</time>
      </trkpt>
      <trkpt lat="44.08899" lon="7.00339">
        <ele>1433</ele>
        <time>2022-07-26T07:45:04Z</time>
      </trkpt>
      <trkpt lat="44.08898" lon="7.0034">
        <ele>1433</ele>
        <time>2022-07-26T07:45:05Z</time>
      </trkpt>
      <trkpt lat="44.08898" lon="7.00341">
        <ele>1433</ele>
        <time>2022-07-26T07:45:06Z</time>
      </trkpt>
      <trkpt lat="44.08898" lon="7.00342">
        <ele>1433</ele>
        <time>2022-07-26T07:45:07Z</time>
      </trkpt>
      <trkpt lat="44.08898" lon="7.00343">
        <ele>1433</ele>
        <time>2022-07-26T07:45:08Z</time>
      </trkpt>
      <trkpt lat="44.08898" lon="7.00345">
        <ele>1433</ele>
        <time>2022-07-26T07:45:09Z</time>
      </trkpt>
      <trkpt lat="44.08898" lon="7.00346">
        <ele>1433</ele>
        <time>2022-07-26T07:45:10Z</time>
      </trkpt>
      <trkpt lat="44.08898" lon="7.00348">
        <ele>1433</ele>
        <time>2022-07-26T07:45:11Z</time>
      </trkpt>
      <trkpt lat="44.08898" lon="7.00348">
        <ele>1434</ele>
        <time>2022-07-26T07:45:12Z</time>
      </trkpt>
      <trkpt lat="44.08898" lon="7.00348">
        <ele>1434</ele>
        <time>2022-07-26T07:45:13Z</time>
      </trkpt>
      <trkpt lat="44.08898" lon="7.00349">
        <ele>1434</ele>
        <time>2022-07-26T07:45:14Z</time>
      </trkpt>
      <trkpt lat="44.08899" lon="7.00349">
        <ele>1434</ele>
        <time>2022-07-26T07:45:15Z</time>
      </trkpt>
      <trkpt lat="44.08899" lon="7.00349">
        <ele>1434</ele>
        <time>2022-07-26T07:45:16Z</time>
      </trkpt>
      <trkpt lat="44.08899" lon="7.0035">
        <ele>1435</ele>
        <time>2022-07-26T07:45:17Z</time>
      </trkpt>
      <trkpt lat="44.089" lon="7.00352">
        <ele>1435</ele>
        <time>2022-07-26T07:45:18Z</time>
      </trkpt>
      <trkpt lat="44.089" lon="7.00353">
        <ele>1435</ele>
        <time>2022-07-26T07:45:19Z</time>
      </trkpt>
      <trkpt lat="44.089" lon="7.00354">
        <ele>1435</ele>
        <time>2022-07-26T07:45:20Z</time>
      </trkpt>
      <trkpt lat="44.089" lon="7.00355">
        <ele>1435</ele>
        <time>2022-07-26T07:45:21Z</time>
      </trkpt>
      <trkpt lat="44.089" lon="7.00356">
        <ele>1436</ele>
        <time>2022-07-26T07:45:22Z</time>
      </trkpt>
      <trkpt lat="44.089" lon="7.00358">
        <ele>1436</ele>
        <time>2022-07-26T07:45:23Z</time>
      </trkpt>
      <trkpt lat="44.089" lon="7.00359">
        <ele>1436</ele>
        <time>2022-07-26T07:45:24Z</time>
      </trkpt>
      <trkpt lat="44.08901" lon="7.0036">
        <ele>1437</ele>
        <time>2022-07-26T07:45:25Z</time>
      </trkpt>
      <trkpt lat="44.08901" lon="7.00362">
        <ele>1437</ele>
        <time>2022-07-26T07:45:26Z</time>
      </trkpt>
      <trkpt lat="44.08901" lon="7.00363">
        <ele>1438</ele>
        <time>2022-07-26T07:45:27Z</time>
      </trkpt>
      <trkpt lat="44.08901" lon="7.00364">
        <ele>1438</ele>
        <time>2022-07-26T07:45:28Z</time>
      </trkpt>
      <trkpt lat="44.08901" lon="7.00366">
        <ele>1438</ele>
        <time>2022-07-26T07:45:34Z</time>
      </trkpt>
      <trkpt lat="44.08901" lon="7.00368">
        <ele>1438</ele>
        <time>2022-07-26T07:45:35Z</time>
      </trkpt>
      <trkpt lat="44.08901" lon="7.00369">
        <ele>1438</ele>
        <time>2022-07-26T07:45:36Z</time>
      </trkpt>
      <trkpt lat="44.08901" lon="7.00371">
        <ele>1439</ele>
        <time>2022-07-26T07:45:37Z</time>
      </trkpt>
      <trkpt lat="44.08901" lon="7.00372">
        <ele>1439</ele>
        <time>2022-07-26T07:45:38Z</time>
      </trkpt>
      <trkpt lat="44.08901" lon="7.00373">
        <ele>1439</ele>
        <time>2022-07-26T07:45:39Z</time>
      </trkpt>
      <trkpt lat="44.08901" lon="7.00375">
        <ele>1439</ele>
        <time>2022-07-26T07:45:40Z</time>
      </trkpt>
      <trkpt lat="44.08901" lon="7.00376">
        <ele>1439</ele>
        <time>2022-07-26T07:45:41Z</time>
      </trkpt>
      <trkpt lat="44.08901" lon="7.00378">
        <ele>1440</ele>
        <time>2022-07-26T07:45:42Z</time>
      </trkpt>
      <trkpt lat="44.08901" lon="7.00379">
        <ele>1440</ele>
        <time>2022-07-26T07:45:43Z</time>
      </trkpt>
      <trkpt lat="44.08901" lon="7.0038">
        <ele>1440</ele>
        <time>2022-07-26T07:45:44Z</time>
      </trkpt>
      <trkpt lat="44.08901" lon="7.00381">
        <ele>1440</ele>
        <time>2022-07-26T07:45:45Z</time>
      </trkpt>
      <trkpt lat="44.08901" lon="7.00383">
        <ele>1440</ele>
        <time>2022-07-26T07:45:46Z</time>
      </trkpt>
      <trkpt lat="44.08901" lon="7.00384">
        <ele>1441</ele>
        <time>2022-07-26T07:45:47Z</time>
      </trkpt>
      <trkpt lat="44.08901" lon="7.00385">
        <ele>1441</ele>
        <time>2022-07-26T07:45:48Z</time>
      </trkpt>
      <trkpt lat="44.08901" lon="7.00387">
        <ele>1441</ele>
        <time>2022-07-26T07:45:49Z</time>
      </trkpt>
      <trkpt lat="44.08901" lon="7.00388">
        <ele>1441</ele>
        <time>2022-07-26T07:45:50Z</time>
      </trkpt>
      <trkpt lat="44.08902" lon="7.00389">
        <ele>1441</ele>
        <time>2022-07-26T07:45:51Z</time>
      </trkpt>
      <trkpt lat="44.08902" lon="7.0039">
        <ele>1441</ele>
        <time>2022-07-26T07:45:52Z</time>
      </trkpt>
      <trkpt lat="44.08903" lon="7.00391">
        <ele>1441</ele>
        <time>2022-07-26T07:45:53Z</time>
      </trkpt>
      <trkpt lat="44.08904" lon="7.00391">
        <ele>1441</ele>
        <time>2022-07-26T07:45:54Z</time>
      </trkpt>
      <trkpt lat="44.08905" lon="7.00392">
        <ele>1441</ele>
        <time>2022-07-26T07:45:55Z</time>
      </trkpt>
      <trkpt lat="44.08906" lon="7.00392">
        <ele>1441</ele>
        <time>2022-07-26T07:45:56Z</time>
      </trkpt>
      <trkpt lat="44.08907" lon="7.00392">
        <ele>1442</ele>
        <time>2022-07-26T07:45:57Z</time>
      </trkpt>
      <trkpt lat="44.08907" lon="7.00392">
        <ele>1442</ele>
        <time>2022-07-26T07:45:58Z</time>
      </trkpt>
      <trkpt lat="44.08908" lon="7.00392">
        <ele>1442</ele>
        <time>2022-07-26T07:45:59Z</time>
      </trkpt>
      <trkpt lat="44.08909" lon="7.00393">
        <ele>1442</ele>
        <time>2022-07-26T07:46:00Z</time>
      </trkpt>
      <trkpt lat="44.08909" lon="7.00393">
        <ele>1442</ele>
        <time>2022-07-26T07:46:01Z</time>
      </trkpt>
      <trkpt lat="44.08909" lon="7.00394">
        <ele>1442</ele>
        <time>2022-07-26T07:46:02Z</time>
      </trkpt>
      <trkpt lat="44.0891" lon="7.00394">
        <ele>1442</ele>
        <time>2022-07-26T07:46:03Z</time>
      </trkpt>
      <trkpt lat="44.0891" lon="7.00395">
        <ele>1442</ele>
        <time>2022-07-26T07:46:04Z</time>
      </trkpt>
      <trkpt lat="44.08911" lon="7.00396">
        <ele>1442</ele>
        <time>2022-07-26T07:46:05Z</time>
      </trkpt>
      <trkpt lat="44.08911" lon="7.00397">
        <ele>1442</ele>
        <time>2022-07-26T07:46:06Z</time>
      </trkpt>
      <trkpt lat="44.08911" lon="7.00398">
        <ele>1443</ele>
        <time>2022-07-26T07:46:07Z</time>
      </trkpt>
      <trkpt lat="44.08912" lon="7.00399">
        <ele>1443</ele>
        <time>2022-07-26T07:46:08Z</time>
      </trkpt>
      <trkpt lat="44.08913" lon="7.00399">
        <ele>1443</ele>
        <time>2022-07-26T07:46:09Z</time>
      </trkpt>
      <trkpt lat="44.08914" lon="7.00399">
        <ele>1443</ele>
        <time>2022-07-26T07:46:10Z</time>
      </trkpt>
      <trkpt lat="44.08915" lon="7.00399">
        <ele>1443</ele>
        <time>2022-07-26T07:46:11Z</time>
      </trkpt>
      <trkpt lat="44.08916" lon="7.004">
        <ele>1444</ele>
        <time>2022-07-26T07:46:12Z</time>
      </trkpt>
      <trkpt lat="44.08917" lon="7.004">
        <ele>1444</ele>
        <time>2022-07-26T07:46:13Z</time>
      </trkpt>
      <trkpt lat="44.08918" lon="7.004">
        <ele>1444</ele>
        <time>2022-07-26T07:46:14Z</time>
      </trkpt>
      <trkpt lat="44.08919" lon="7.00401">
        <ele>1444</ele>
        <time>2022-07-26T07:46:15Z</time>
      </trkpt>
      <trkpt lat="44.0892" lon="7.00401">
        <ele>1444</ele>
        <time>2022-07-26T07:46:16Z</time>
      </trkpt>
      <trkpt lat="44.08921" lon="7.00402">
        <ele>1444</ele>
        <time>2022-07-26T07:46:17Z</time>
      </trkpt>
      <trkpt lat="44.08921" lon="7.00403">
        <ele>1444</ele>
        <time>2022-07-26T07:46:18Z</time>
      </trkpt>
      <trkpt lat="44.08922" lon="7.00404">
        <ele>1444</ele>
        <time>2022-07-26T07:46:19Z</time>
      </trkpt>
      <trkpt lat="44.08923" lon="7.00404">
        <ele>1444</ele>
        <time>2022-07-26T07:46:20Z</time>
      </trkpt>
      <trkpt lat="44.08923" lon="7.00405">
        <ele>1444</ele>
        <time>2022-07-26T07:46:21Z</time>
      </trkpt>
      <trkpt lat="44.08924" lon="7.00406">
        <ele>1445</ele>
        <time>2022-07-26T07:46:22Z</time>
      </trkpt>
      <trkpt lat="44.08925" lon="7.00407">
        <ele>1445</ele>
        <time>2022-07-26T07:46:23Z</time>
      </trkpt>
      <trkpt lat="44.08925" lon="7.00408">
        <ele>1445</ele>
        <time>2022-07-26T07:46:24Z</time>
      </trkpt>
      <trkpt lat="44.08926" lon="7.00408">
        <ele>1445</ele>
        <time>2022-07-26T07:46:25Z</time>
      </trkpt>
      <trkpt lat="44.08926" lon="7.0041">
        <ele>1445</ele>
        <time>2022-07-26T07:46:26Z</time>
      </trkpt>
      <trkpt lat="44.08927" lon="7.00411">
        <ele>1445</ele>
        <time>2022-07-26T07:46:27Z</time>
      </trkpt>
      <trkpt lat="44.08928" lon="7.00412">
        <ele>1445</ele>
        <time>2022-07-26T07:46:28Z</time>
      </trkpt>
      <trkpt lat="44.08928" lon="7.00413">
        <ele>1445</ele>
        <time>2022-07-26T07:46:29Z</time>
      </trkpt>
      <trkpt lat="44.08929" lon="7.00414">
        <ele>1445</ele>
        <time>2022-07-26T07:46:30Z</time>
      </trkpt>
      <trkpt lat="44.0893" lon="7.00416">
        <ele>1445</ele>
        <time>2022-07-26T07:46:31Z</time>
      </trkpt>
      <trkpt lat="44.0893" lon="7.00417">
        <ele>1446</ele>
        <time>2022-07-26T07:46:32Z</time>
      </trkpt>
      <trkpt lat="44.08931" lon="7.00418">
        <ele>1446</ele>
        <time>2022-07-26T07:46:33Z</time>
      </trkpt>
      <trkpt lat="44.08932" lon="7.00419">
        <ele>1446</ele>
        <time>2022-07-26T07:46:34Z</time>
      </trkpt>
      <trkpt lat="44.08933" lon="7.0042">
        <ele>1446</ele>
        <time>2022-07-26T07:46:35Z</time>
      </trkpt>
      <trkpt lat="44.08934" lon="7.00421">
        <ele>1446</ele>
        <time>2022-07-26T07:46:36Z</time>
      </trkpt>
      <trkpt lat="44.08935" lon="7.00421">
        <ele>1446</ele>
        <time>2022-07-26T07:46:37Z</time>
      </trkpt>
      <trkpt lat="44.08935" lon="7.00422">
        <ele>1446</ele>
        <time>2022-07-26T07:46:38Z</time>
      </trkpt>
      <trkpt lat="44.08936" lon="7.00423">
        <ele>1446</ele>
        <time>2022-07-26T07:46:39Z</time>
      </trkpt>
      <trkpt lat="44.08937" lon="7.00424">
        <ele>1446</ele>
        <time>2022-07-26T07:46:40Z</time>
      </trkpt>
      <trkpt lat="44.08938" lon="7.00425">
        <ele>1446</ele>
        <time>2022-07-26T07:46:41Z</time>
      </trkpt>
      <trkpt lat="44.08938" lon="7.00425">
        <ele>1447</ele>
        <time>2022-07-26T07:46:42Z</time>
      </trkpt>
      <trkpt lat="44.08938" lon="7.00425">
        <ele>1447</ele>
        <time>2022-07-26T07:46:43Z</time>
      </trkpt>
      <trkpt lat="44.08939" lon="7.00425">
        <ele>1447</ele>
        <time>2022-07-26T07:46:44Z</time>
      </trkpt>
      <trkpt lat="44.08939" lon="7.00426">
        <ele>1447</ele>
        <time>2022-07-26T07:46:45Z</time>
      </trkpt>
      <trkpt lat="44.08939" lon="7.00426">
        <ele>1447</ele>
        <time>2022-07-26T07:46:46Z</time>
      </trkpt>
      <trkpt lat="44.0894" lon="7.00426">
        <ele>1447</ele>
        <time>2022-07-26T07:46:47Z</time>
      </trkpt>
      <trkpt lat="44.08941" lon="7.00427">
        <ele>1447</ele>
        <time>2022-07-26T07:46:48Z</time>
      </trkpt>
      <trkpt lat="44.08941" lon="7.00427">
        <ele>1447</ele>
        <time>2022-07-26T07:46:49Z</time>
      </trkpt>
      <trkpt lat="44.08942" lon="7.00428">
        <ele>1447</ele>
        <time>2022-07-26T07:46:50Z</time>
      </trkpt>
      <trkpt lat="44.08943" lon="7.00429">
        <ele>1447</ele>
        <time>2022-07-26T07:46:51Z</time>
      </trkpt>
      <trkpt lat="44.08943" lon="7.0043">
        <ele>1447</ele>
        <time>2022-07-26T07:46:52Z</time>
      </trkpt>
      <trkpt lat="44.08944" lon="7.00431">
        <ele>1447</ele>
        <time>2022-07-26T07:46:53Z</time>
      </trkpt>
      <trkpt lat="44.08944" lon="7.00432">
        <ele>1447</ele>
        <time>2022-07-26T07:46:54Z</time>
      </trkpt>
      <trkpt lat="44.08945" lon="7.00433">
        <ele>1447</ele>
        <time>2022-07-26T07:46:55Z</time>
      </trkpt>
      <trkpt lat="44.08945" lon="7.00435">
        <ele>1447</ele>
        <time>2022-07-26T07:46:56Z</time>
      </trkpt>
      <trkpt lat="44.08946" lon="7.00436">
        <ele>1447</ele>
        <time>2022-07-26T07:46:57Z</time>
      </trkpt>
      <trkpt lat="44.08947" lon="7.00437">
        <ele>1447</ele>
        <time>2022-07-26T07:46:58Z</time>
      </trkpt>
      <trkpt lat="44.08947" lon="7.00439">
        <ele>1447</ele>
        <time>2022-07-26T07:46:59Z</time>
      </trkpt>
      <trkpt lat="44.08948" lon="7.0044">
        <ele>1447</ele>
        <time>2022-07-26T07:47:00Z</time>
      </trkpt>
      <trkpt lat="44.08948" lon="7.00442">
        <ele>1447</ele>
        <time>2022-07-26T07:47:01Z</time>
      </trkpt>
      <trkpt lat="44.08949" lon="7.00443">
        <ele>1447</ele>
        <time>2022-07-26T07:47:02Z</time>
      </trkpt>
      <trkpt lat="44.08949" lon="7.00445">
        <ele>1447</ele>
        <time>2022-07-26T07:47:03Z</time>
      </trkpt>
      <trkpt lat="44.0895" lon="7.00446">
        <ele>1447</ele>
        <time>2022-07-26T07:47:04Z</time>
      </trkpt>
      <trkpt lat="44.0895" lon="7.00447">
        <ele>1447</ele>
        <time>2022-07-26T07:47:05Z</time>
      </trkpt>
      <trkpt lat="44.08951" lon="7.00448">
        <ele>1447</ele>
        <time>2022-07-26T07:47:06Z</time>
      </trkpt>
      <trkpt lat="44.08951" lon="7.00449">
        <ele>1448</ele>
        <time>2022-07-26T07:47:07Z</time>
      </trkpt>
      <trkpt lat="44.08952" lon="7.0045">
        <ele>1448</ele>
        <time>2022-07-26T07:47:08Z</time>
      </trkpt>
      <trkpt lat="44.08952" lon="7.0045">
        <ele>1448</ele>
        <time>2022-07-26T07:47:09Z</time>
      </trkpt>
      <trkpt lat="44.08953" lon="7.0045">
        <ele>1448</ele>
        <time>2022-07-26T07:47:10Z</time>
      </trkpt>
      <trkpt lat="44.08953" lon="7.00451">
        <ele>1448</ele>
        <time>2022-07-26T07:47:11Z</time>
      </trkpt>
      <trkpt lat="44.08954" lon="7.00451">
        <ele>1448</ele>
        <time>2022-07-26T07:47:12Z</time>
      </trkpt>
      <trkpt lat="44.08954" lon="7.00451">
        <ele>1448</ele>
        <time>2022-07-26T07:47:13Z</time>
      </trkpt>
      <trkpt lat="44.08955" lon="7.00451">
        <ele>1448</ele>
        <time>2022-07-26T07:47:14Z</time>
      </trkpt>
      <trkpt lat="44.08956" lon="7.00452">
        <ele>1448</ele>
        <time>2022-07-26T07:47:15Z</time>
      </trkpt>
      <trkpt lat="44.08958" lon="7.00452">
        <ele>1448</ele>
        <time>2022-07-26T07:47:16Z</time>
      </trkpt>
      <trkpt lat="44.08959" lon="7.00452">
        <ele>1448</ele>
        <time>2022-07-26T07:47:17Z</time>
      </trkpt>
      <trkpt lat="44.08961" lon="7.00453">
        <ele>1448</ele>
        <time>2022-07-26T07:47:18Z</time>
      </trkpt>
      <trkpt lat="44.08962" lon="7.00452">
        <ele>1448</ele>
        <time>2022-07-26T07:47:19Z</time>
      </trkpt>
      <trkpt lat="44.08964" lon="7.00452">
        <ele>1448</ele>
        <time>2022-07-26T07:47:20Z</time>
      </trkpt>
      <trkpt lat="44.08964" lon="7.00452">
        <ele>1448</ele>
        <time>2022-07-26T07:47:21Z</time>
      </trkpt>
      <trkpt lat="44.08965" lon="7.00451">
        <ele>1448</ele>
        <time>2022-07-26T07:47:22Z</time>
      </trkpt>
      <trkpt lat="44.08966" lon="7.00451">
        <ele>1448</ele>
        <time>2022-07-26T07:47:23Z</time>
      </trkpt>
      <trkpt lat="44.08967" lon="7.00451">
        <ele>1448</ele>
        <time>2022-07-26T07:47:24Z</time>
      </trkpt>
      <trkpt lat="44.08967" lon="7.0045">
        <ele>1448</ele>
        <time>2022-07-26T07:47:25Z</time>
      </trkpt>
      <trkpt lat="44.08968" lon="7.00451">
        <ele>1448</ele>
        <time>2022-07-26T07:47:26Z</time>
      </trkpt>
      <trkpt lat="44.08969" lon="7.00451">
        <ele>1449</ele>
        <time>2022-07-26T07:47:27Z</time>
      </trkpt>
      <trkpt lat="44.0897" lon="7.00451">
        <ele>1449</ele>
        <time>2022-07-26T07:47:28Z</time>
      </trkpt>
      <trkpt lat="44.08971" lon="7.00451">
        <ele>1449</ele>
        <time>2022-07-26T07:47:29Z</time>
      </trkpt>
      <trkpt lat="44.08971" lon="7.00451">
        <ele>1449</ele>
        <time>2022-07-26T07:47:30Z</time>
      </trkpt>
      <trkpt lat="44.08972" lon="7.00451">
        <ele>1449</ele>
        <time>2022-07-26T07:47:31Z</time>
      </trkpt>
      <trkpt lat="44.08973" lon="7.00452">
        <ele>1449</ele>
        <time>2022-07-26T07:47:32Z</time>
      </trkpt>
      <trkpt lat="44.08974" lon="7.00452">
        <ele>1449</ele>
        <time>2022-07-26T07:47:33Z</time>
      </trkpt>
      <trkpt lat="44.08975" lon="7.00453">
        <ele>1449</ele>
        <time>2022-07-26T07:47:34Z</time>
      </trkpt>
      <trkpt lat="44.08975" lon="7.00454">
        <ele>1449</ele>
        <time>2022-07-26T07:47:35Z</time>
      </trkpt>
      <trkpt lat="44.08976" lon="7.00454">
        <ele>1449</ele>
        <time>2022-07-26T07:47:36Z</time>
      </trkpt>
      <trkpt lat="44.08976" lon="7.00455">
        <ele>1450</ele>
        <time>2022-07-26T07:47:37Z</time>
      </trkpt>
      <trkpt lat="44.08977" lon="7.00456">
        <ele>1450</ele>
        <time>2022-07-26T07:47:38Z</time>
      </trkpt>
      <trkpt lat="44.08977" lon="7.00456">
        <ele>1450</ele>
        <time>2022-07-26T07:47:39Z</time>
      </trkpt>
      <trkpt lat="44.08978" lon="7.00457">
        <ele>1450</ele>
        <time>2022-07-26T07:47:40Z</time>
      </trkpt>
      <trkpt lat="44.08978" lon="7.00458">
        <ele>1450</ele>
        <time>2022-07-26T07:47:41Z</time>
      </trkpt>
      <trkpt lat="44.08979" lon="7.00459">
        <ele>1450</ele>
        <time>2022-07-26T07:47:42Z</time>
      </trkpt>
      <trkpt lat="44.0898" lon="7.00459">
        <ele>1450</ele>
        <time>2022-07-26T07:47:43Z</time>
      </trkpt>
      <trkpt lat="44.0898" lon="7.0046">
        <ele>1450</ele>
        <time>2022-07-26T07:47:44Z</time>
      </trkpt>
      <trkpt lat="44.08981" lon="7.00461">
        <ele>1450</ele>
        <time>2022-07-26T07:47:45Z</time>
      </trkpt>
      <trkpt lat="44.08982" lon="7.00462">
        <ele>1450</ele>
        <time>2022-07-26T07:47:46Z</time>
      </trkpt>
      <trkpt lat="44.08982" lon="7.00463">
        <ele>1451</ele>
        <time>2022-07-26T07:47:47Z</time>
      </trkpt>
      <trkpt lat="44.08983" lon="7.00464">
        <ele>1451</ele>
        <time>2022-07-26T07:47:48Z</time>
      </trkpt>
      <trkpt lat="44.08983" lon="7.00465">
        <ele>1451</ele>
        <time>2022-07-26T07:47:49Z</time>
      </trkpt>
      <trkpt lat="44.08984" lon="7.00466">
        <ele>1451</ele>
        <time>2022-07-26T07:47:50Z</time>
      </trkpt>
      <trkpt lat="44.08985" lon="7.00467">
        <ele>1451</ele>
        <time>2022-07-26T07:47:51Z</time>
      </trkpt>
      <trkpt lat="44.08986" lon="7.00467">
        <ele>1452</ele>
        <time>2022-07-26T07:47:52Z</time>
      </trkpt>
      <trkpt lat="44.08986" lon="7.00468">
        <ele>1452</ele>
        <time>2022-07-26T07:47:53Z</time>
      </trkpt>
      <trkpt lat="44.08987" lon="7.00469">
        <ele>1452</ele>
        <time>2022-07-26T07:47:54Z</time>
      </trkpt>
      <trkpt lat="44.08987" lon="7.00469">
        <ele>1452</ele>
        <time>2022-07-26T07:47:55Z</time>
      </trkpt>
      <trkpt lat="44.08988" lon="7.0047">
        <ele>1452</ele>
        <time>2022-07-26T07:47:56Z</time>
      </trkpt>
      <trkpt lat="44.08988" lon="7.0047">
        <ele>1452</ele>
        <time>2022-07-26T07:47:57Z</time>
      </trkpt>
      <trkpt lat="44.08989" lon="7.0047">
        <ele>1452</ele>
        <time>2022-07-26T07:47:58Z</time>
      </trkpt>
      <trkpt lat="44.08989" lon="7.00471">
        <ele>1452</ele>
        <time>2022-07-26T07:47:59Z</time>
      </trkpt>
      <trkpt lat="44.0899" lon="7.00472">
        <ele>1452</ele>
        <time>2022-07-26T07:48:00Z</time>
      </trkpt>
      <trkpt lat="44.0899" lon="7.00473">
        <ele>1452</ele>
        <time>2022-07-26T07:48:01Z</time>
      </trkpt>
      <trkpt lat="44.08991" lon="7.00473">
        <ele>1453</ele>
        <time>2022-07-26T07:48:02Z</time>
      </trkpt>
      <trkpt lat="44.08992" lon="7.00474">
        <ele>1453</ele>
        <time>2022-07-26T07:48:03Z</time>
      </trkpt>
      <trkpt lat="44.08992" lon="7.00475">
        <ele>1453</ele>
        <time>2022-07-26T07:48:04Z</time>
      </trkpt>
      <trkpt lat="44.08993" lon="7.00476">
        <ele>1454</ele>
        <time>2022-07-26T07:48:05Z</time>
      </trkpt>
      <trkpt lat="44.08994" lon="7.00476">
        <ele>1454</ele>
        <time>2022-07-26T07:48:06Z</time>
      </trkpt>
      <trkpt lat="44.08995" lon="7.00477">
        <ele>1455</ele>
        <time>2022-07-26T07:48:07Z</time>
      </trkpt>
      <trkpt lat="44.08996" lon="7.00478">
        <ele>1455</ele>
        <time>2022-07-26T07:48:08Z</time>
      </trkpt>
      <trkpt lat="44.08996" lon="7.00479">
        <ele>1455</ele>
        <time>2022-07-26T07:48:09Z</time>
      </trkpt>
      <trkpt lat="44.08996" lon="7.00479">
        <ele>1455</ele>
        <time>2022-07-26T07:48:10Z</time>
      </trkpt>
      <trkpt lat="44.08997" lon="7.0048">
        <ele>1455</ele>
        <time>2022-07-26T07:48:11Z</time>
      </trkpt>
      <trkpt lat="44.08998" lon="7.00481">
        <ele>1455</ele>
        <time>2022-07-26T07:48:12Z</time>
      </trkpt>
      <trkpt lat="44.08998" lon="7.00481">
        <ele>1455</ele>
        <time>2022-07-26T07:48:13Z</time>
      </trkpt>
      <trkpt lat="44.08999" lon="7.00481">
        <ele>1455</ele>
        <time>2022-07-26T07:48:14Z</time>
      </trkpt>
      <trkpt lat="44.08999" lon="7.00481">
        <ele>1455</ele>
        <time>2022-07-26T07:48:15Z</time>
      </trkpt>
      <trkpt lat="44.08999" lon="7.00481">
        <ele>1455</ele>
        <time>2022-07-26T07:48:16Z</time>
      </trkpt>
      <trkpt lat="44.08999" lon="7.00482">
        <ele>1456</ele>
        <time>2022-07-26T07:48:17Z</time>
      </trkpt>
      <trkpt lat="44.09" lon="7.00483">
        <ele>1456</ele>
        <time>2022-07-26T07:48:18Z</time>
      </trkpt>
      <trkpt lat="44.08999" lon="7.00483">
        <ele>1456</ele>
        <time>2022-07-26T07:48:19Z</time>
      </trkpt>
      <trkpt lat="44.08999" lon="7.00484">
        <ele>1456</ele>
        <time>2022-07-26T07:48:20Z</time>
      </trkpt>
      <trkpt lat="44.08999" lon="7.00485">
        <ele>1456</ele>
        <time>2022-07-26T07:48:21Z</time>
      </trkpt>
      <trkpt lat="44.08999" lon="7.00485">
        <ele>1457</ele>
        <time>2022-07-26T07:48:22Z</time>
      </trkpt>
      <trkpt lat="44.09" lon="7.00486">
        <ele>1457</ele>
        <time>2022-07-26T07:48:23Z</time>
      </trkpt>
      <trkpt lat="44.09" lon="7.00487">
        <ele>1457</ele>
        <time>2022-07-26T07:48:24Z</time>
      </trkpt>
      <trkpt lat="44.09" lon="7.00487">
        <ele>1457</ele>
        <time>2022-07-26T07:48:25Z</time>
      </trkpt>
      <trkpt lat="44.09001" lon="7.00488">
        <ele>1457</ele>
        <time>2022-07-26T07:48:26Z</time>
      </trkpt>
      <trkpt lat="44.09002" lon="7.00489">
        <ele>1458</ele>
        <time>2022-07-26T07:48:27Z</time>
      </trkpt>
      <trkpt lat="44.09003" lon="7.0049">
        <ele>1458</ele>
        <time>2022-07-26T07:48:28Z</time>
      </trkpt>
      <trkpt lat="44.09004" lon="7.0049">
        <ele>1458</ele>
        <time>2022-07-26T07:48:29Z</time>
      </trkpt>
      <trkpt lat="44.09004" lon="7.00491">
        <ele>1458</ele>
        <time>2022-07-26T07:48:30Z</time>
      </trkpt>
      <trkpt lat="44.09005" lon="7.00492">
        <ele>1458</ele>
        <time>2022-07-26T07:48:31Z</time>
      </trkpt>
      <trkpt lat="44.09006" lon="7.00493">
        <ele>1458</ele>
        <time>2022-07-26T07:48:32Z</time>
      </trkpt>
      <trkpt lat="44.09006" lon="7.00493">
        <ele>1458</ele>
        <time>2022-07-26T07:48:33Z</time>
      </trkpt>
      <trkpt lat="44.09006" lon="7.00494">
        <ele>1458</ele>
        <time>2022-07-26T07:48:34Z</time>
      </trkpt>
      <trkpt lat="44.09006" lon="7.00494">
        <ele>1458</ele>
        <time>2022-07-26T07:48:35Z</time>
      </trkpt>
      <trkpt lat="44.09007" lon="7.00495">
        <ele>1458</ele>
        <time>2022-07-26T07:48:36Z</time>
      </trkpt>
      <trkpt lat="44.09007" lon="7.00495">
        <ele>1459</ele>
        <time>2022-07-26T07:48:37Z</time>
      </trkpt>
      <trkpt lat="44.09008" lon="7.00496">
        <ele>1459</ele>
        <time>2022-07-26T07:48:38Z</time>
      </trkpt>
      <trkpt lat="44.09009" lon="7.00497">
        <ele>1459</ele>
        <time>2022-07-26T07:48:39Z</time>
      </trkpt>
      <trkpt lat="44.0901" lon="7.00498">
        <ele>1459</ele>
        <time>2022-07-26T07:48:40Z</time>
      </trkpt>
      <trkpt lat="44.09011" lon="7.00498">
        <ele>1459</ele>
        <time>2022-07-26T07:48:41Z</time>
      </trkpt>
      <trkpt lat="44.09012" lon="7.00499">
        <ele>1460</ele>
        <time>2022-07-26T07:48:42Z</time>
      </trkpt>
      <trkpt lat="44.09013" lon="7.005">
        <ele>1460</ele>
        <time>2022-07-26T07:48:43Z</time>
      </trkpt>
      <trkpt lat="44.09014" lon="7.005">
        <ele>1460</ele>
        <time>2022-07-26T07:48:44Z</time>
      </trkpt>
      <trkpt lat="44.09015" lon="7.00501">
        <ele>1460</ele>
        <time>2022-07-26T07:48:45Z</time>
      </trkpt>
      <trkpt lat="44.09015" lon="7.00502">
        <ele>1460</ele>
        <time>2022-07-26T07:48:46Z</time>
      </trkpt>
      <trkpt lat="44.09016" lon="7.00503">
        <ele>1461</ele>
        <time>2022-07-26T07:48:47Z</time>
      </trkpt>
      <trkpt lat="44.09016" lon="7.00503">
        <ele>1461</ele>
        <time>2022-07-26T07:48:48Z</time>
      </trkpt>
      <trkpt lat="44.09017" lon="7.00504">
        <ele>1461</ele>
        <time>2022-07-26T07:48:49Z</time>
      </trkpt>
      <trkpt lat="44.09017" lon="7.00505">
        <ele>1461</ele>
        <time>2022-07-26T07:48:50Z</time>
      </trkpt>
      <trkpt lat="44.09018" lon="7.00506">
        <ele>1461</ele>
        <time>2022-07-26T07:48:51Z</time>
      </trkpt>
      <trkpt lat="44.09018" lon="7.00506">
        <ele>1461</ele>
        <time>2022-07-26T07:48:52Z</time>
      </trkpt>
      <trkpt lat="44.09019" lon="7.00507">
        <ele>1461</ele>
        <time>2022-07-26T07:48:53Z</time>
      </trkpt>
      <trkpt lat="44.0902" lon="7.00508">
        <ele>1461</ele>
        <time>2022-07-26T07:48:54Z</time>
      </trkpt>
      <trkpt lat="44.0902" lon="7.00509">
        <ele>1461</ele>
        <time>2022-07-26T07:48:55Z</time>
      </trkpt>
      <trkpt lat="44.09021" lon="7.0051">
        <ele>1461</ele>
        <time>2022-07-26T07:48:56Z</time>
      </trkpt>
      <trkpt lat="44.09022" lon="7.00511">
        <ele>1462</ele>
        <time>2022-07-26T07:48:57Z</time>
      </trkpt>
      <trkpt lat="44.09022" lon="7.00512">
        <ele>1462</ele>
        <time>2022-07-26T07:48:58Z</time>
      </trkpt>
      <trkpt lat="44.09023" lon="7.00513">
        <ele>1462</ele>
        <time>2022-07-26T07:48:59Z</time>
      </trkpt>
      <trkpt lat="44.09024" lon="7.00513">
        <ele>1462</ele>
        <time>2022-07-26T07:49:00Z</time>
      </trkpt>
      <trkpt lat="44.09025" lon="7.00514">
        <ele>1462</ele>
        <time>2022-07-26T07:49:01Z</time>
      </trkpt>
      <trkpt lat="44.09025" lon="7.00515">
        <ele>1463</ele>
        <time>2022-07-26T07:49:02Z</time>
      </trkpt>
      <trkpt lat="44.09025" lon="7.00516">
        <ele>1463</ele>
        <time>2022-07-26T07:49:03Z</time>
      </trkpt>
      <trkpt lat="44.09026" lon="7.00516">
        <ele>1463</ele>
        <time>2022-07-26T07:49:04Z</time>
      </trkpt>
      <trkpt lat="44.09027" lon="7.00517">
        <ele>1463</ele>
        <time>2022-07-26T07:49:05Z</time>
      </trkpt>
      <trkpt lat="44.09027" lon="7.00518">
        <ele>1463</ele>
        <time>2022-07-26T07:49:06Z</time>
      </trkpt>
      <trkpt lat="44.09028" lon="7.00518">
        <ele>1464</ele>
        <time>2022-07-26T07:49:07Z</time>
      </trkpt>
      <trkpt lat="44.09028" lon="7.00519">
        <ele>1464</ele>
        <time>2022-07-26T07:49:08Z</time>
      </trkpt>
      <trkpt lat="44.09029" lon="7.00519">
        <ele>1464</ele>
        <time>2022-07-26T07:49:09Z</time>
      </trkpt>
      <trkpt lat="44.0903" lon="7.0052">
        <ele>1464</ele>
        <time>2022-07-26T07:49:10Z</time>
      </trkpt>
      <trkpt lat="44.09031" lon="7.0052">
        <ele>1464</ele>
        <time>2022-07-26T07:49:11Z</time>
      </trkpt>
      <trkpt lat="44.09031" lon="7.00521">
        <ele>1464</ele>
        <time>2022-07-26T07:49:12Z</time>
      </trkpt>
      <trkpt lat="44.09032" lon="7.00522">
        <ele>1464</ele>
        <time>2022-07-26T07:49:13Z</time>
      </trkpt>
      <trkpt lat="44.09033" lon="7.00522">
        <ele>1464</ele>
        <time>2022-07-26T07:49:14Z</time>
      </trkpt>
      <trkpt lat="44.09034" lon="7.00523">
        <ele>1464</ele>
        <time>2022-07-26T07:49:15Z</time>
      </trkpt>
      <trkpt lat="44.09034" lon="7.00523">
        <ele>1464</ele>
        <time>2022-07-26T07:49:16Z</time>
      </trkpt>
      <trkpt lat="44.09035" lon="7.00524">
        <ele>1465</ele>
        <time>2022-07-26T07:49:17Z</time>
      </trkpt>
      <trkpt lat="44.09036" lon="7.00525">
        <ele>1465</ele>
        <time>2022-07-26T07:49:18Z</time>
      </trkpt>
      <trkpt lat="44.09036" lon="7.00525">
        <ele>1465</ele>
        <time>2022-07-26T07:49:19Z</time>
      </trkpt>
      <trkpt lat="44.09037" lon="7.00525">
        <ele>1465</ele>
        <time>2022-07-26T07:49:20Z</time>
      </trkpt>
      <trkpt lat="44.09038" lon="7.00526">
        <ele>1465</ele>
        <time>2022-07-26T07:49:21Z</time>
      </trkpt>
      <trkpt lat="44.09039" lon="7.00526">
        <ele>1465</ele>
        <time>2022-07-26T07:49:22Z</time>
      </trkpt>
      <trkpt lat="44.09039" lon="7.00527">
        <ele>1465</ele>
        <time>2022-07-26T07:49:23Z</time>
      </trkpt>
      <trkpt lat="44.0904" lon="7.00527">
        <ele>1465</ele>
        <time>2022-07-26T07:49:24Z</time>
      </trkpt>
      <trkpt lat="44.09041" lon="7.00528">
        <ele>1465</ele>
        <time>2022-07-26T07:49:25Z</time>
      </trkpt>
      <trkpt lat="44.09041" lon="7.00529">
        <ele>1465</ele>
        <time>2022-07-26T07:49:26Z</time>
      </trkpt>
      <trkpt lat="44.09042" lon="7.00529">
        <ele>1466</ele>
        <time>2022-07-26T07:49:27Z</time>
      </trkpt>
      <trkpt lat="44.09043" lon="7.0053">
        <ele>1466</ele>
        <time>2022-07-26T07:49:28Z</time>
      </trkpt>
      <trkpt lat="44.09043" lon="7.00531">
        <ele>1466</ele>
        <time>2022-07-26T07:49:29Z</time>
      </trkpt>
      <trkpt lat="44.09044" lon="7.00532">
        <ele>1466</ele>
        <time>2022-07-26T07:49:30Z</time>
      </trkpt>
      <trkpt lat="44.09045" lon="7.00532">
        <ele>1466</ele>
        <time>2022-07-26T07:49:31Z</time>
      </trkpt>
      <trkpt lat="44.09046" lon="7.00533">
        <ele>1467</ele>
        <time>2022-07-26T07:49:32Z</time>
      </trkpt>
      <trkpt lat="44.09047" lon="7.00533">
        <ele>1467</ele>
        <time>2022-07-26T07:49:33Z</time>
      </trkpt>
      <trkpt lat="44.09047" lon="7.00533">
        <ele>1467</ele>
        <time>2022-07-26T07:49:34Z</time>
      </trkpt>
      <trkpt lat="44.09048" lon="7.00534">
        <ele>1467</ele>
        <time>2022-07-26T07:49:35Z</time>
      </trkpt>
      <trkpt lat="44.09048" lon="7.00534">
        <ele>1467</ele>
        <time>2022-07-26T07:49:36Z</time>
      </trkpt>
      <trkpt lat="44.09049" lon="7.00534">
        <ele>1467</ele>
        <time>2022-07-26T07:49:37Z</time>
      </trkpt>
      <trkpt lat="44.09049" lon="7.00534">
        <ele>1467</ele>
        <time>2022-07-26T07:49:38Z</time>
      </trkpt>
      <trkpt lat="44.0905" lon="7.00534">
        <ele>1467</ele>
        <time>2022-07-26T07:49:39Z</time>
      </trkpt>
      <trkpt lat="44.09051" lon="7.00535">
        <ele>1467</ele>
        <time>2022-07-26T07:49:40Z</time>
      </trkpt>
      <trkpt lat="44.09052" lon="7.00536">
        <ele>1467</ele>
        <time>2022-07-26T07:49:41Z</time>
      </trkpt>
      <trkpt lat="44.09053" lon="7.00536">
        <ele>1468</ele>
        <time>2022-07-26T07:49:42Z</time>
      </trkpt>
      <trkpt lat="44.09054" lon="7.00537">
        <ele>1468</ele>
        <time>2022-07-26T07:49:43Z</time>
      </trkpt>
      <trkpt lat="44.09055" lon="7.00539">
        <ele>1468</ele>
        <time>2022-07-26T07:49:44Z</time>
      </trkpt>
      <trkpt lat="44.09056" lon="7.0054">
        <ele>1468</ele>
        <time>2022-07-26T07:49:45Z</time>
      </trkpt>
      <trkpt lat="44.09057" lon="7.00541">
        <ele>1468</ele>
        <time>2022-07-26T07:49:46Z</time>
      </trkpt>
      <trkpt lat="44.09058" lon="7.00542">
        <ele>1469</ele>
        <time>2022-07-26T07:49:47Z</time>
      </trkpt>
      <trkpt lat="44.09059" lon="7.00543">
        <ele>1469</ele>
        <time>2022-07-26T07:49:48Z</time>
      </trkpt>
      <trkpt lat="44.0906" lon="7.00544">
        <ele>1469</ele>
        <time>2022-07-26T07:49:49Z</time>
      </trkpt>
      <trkpt lat="44.09061" lon="7.00545">
        <ele>1469</ele>
        <time>2022-07-26T07:49:50Z</time>
      </trkpt>
      <trkpt lat="44.09062" lon="7.00545">
        <ele>1469</ele>
        <time>2022-07-26T07:49:51Z</time>
      </trkpt>
      <trkpt lat="44.09063" lon="7.00546">
        <ele>1469</ele>
        <time>2022-07-26T07:49:52Z</time>
      </trkpt>
      <trkpt lat="44.09064" lon="7.00547">
        <ele>1469</ele>
        <time>2022-07-26T07:49:53Z</time>
      </trkpt>
      <trkpt lat="44.09065" lon="7.00548">
        <ele>1469</ele>
        <time>2022-07-26T07:49:54Z</time>
      </trkpt>
      <trkpt lat="44.09066" lon="7.00549">
        <ele>1469</ele>
        <time>2022-07-26T07:49:55Z</time>
      </trkpt>
      <trkpt lat="44.09066" lon="7.0055">
        <ele>1469</ele>
        <time>2022-07-26T07:49:56Z</time>
      </trkpt>
      <trkpt lat="44.09067" lon="7.00551">
        <ele>1470</ele>
        <time>2022-07-26T07:49:57Z</time>
      </trkpt>
      <trkpt lat="44.09068" lon="7.00552">
        <ele>1470</ele>
        <time>2022-07-26T07:49:58Z</time>
      </trkpt>
      <trkpt lat="44.09069" lon="7.00553">
        <ele>1470</ele>
        <time>2022-07-26T07:49:59Z</time>
      </trkpt>
      <trkpt lat="44.09069" lon="7.00553">
        <ele>1470</ele>
        <time>2022-07-26T07:50:00Z</time>
      </trkpt>
      <trkpt lat="44.0907" lon="7.00554">
        <ele>1470</ele>
        <time>2022-07-26T07:50:01Z</time>
      </trkpt>
      <trkpt lat="44.09071" lon="7.00555">
        <ele>1470</ele>
        <time>2022-07-26T07:50:02Z</time>
      </trkpt>
      <trkpt lat="44.09071" lon="7.00556">
        <ele>1470</ele>
        <time>2022-07-26T07:50:03Z</time>
      </trkpt>
      <trkpt lat="44.09072" lon="7.00557">
        <ele>1470</ele>
        <time>2022-07-26T07:50:04Z</time>
      </trkpt>
      <trkpt lat="44.09072" lon="7.00558">
        <ele>1471</ele>
        <time>2022-07-26T07:50:05Z</time>
      </trkpt>
      <trkpt lat="44.09073" lon="7.00558">
        <ele>1471</ele>
        <time>2022-07-26T07:50:06Z</time>
      </trkpt>
      <trkpt lat="44.09073" lon="7.00559">
        <ele>1472</ele>
        <time>2022-07-26T07:50:07Z</time>
      </trkpt>
      <trkpt lat="44.09074" lon="7.0056">
        <ele>1472</ele>
        <time>2022-07-26T07:50:08Z</time>
      </trkpt>
      <trkpt lat="44.09074" lon="7.00561">
        <ele>1472</ele>
        <time>2022-07-26T07:50:09Z</time>
      </trkpt>
      <trkpt lat="44.09074" lon="7.00561">
        <ele>1472</ele>
        <time>2022-07-26T07:50:10Z</time>
      </trkpt>
      <trkpt lat="44.09075" lon="7.00562">
        <ele>1472</ele>
        <time>2022-07-26T07:50:11Z</time>
      </trkpt>
      <trkpt lat="44.09075" lon="7.00563">
        <ele>1472</ele>
        <time>2022-07-26T07:50:12Z</time>
      </trkpt>
      <trkpt lat="44.09076" lon="7.00564">
        <ele>1472</ele>
        <time>2022-07-26T07:50:13Z</time>
      </trkpt>
      <trkpt lat="44.09077" lon="7.00565">
        <ele>1472</ele>
        <time>2022-07-26T07:50:14Z</time>
      </trkpt>
      <trkpt lat="44.09078" lon="7.00565">
        <ele>1472</ele>
        <time>2022-07-26T07:50:15Z</time>
      </trkpt>
      <trkpt lat="44.09078" lon="7.00566">
        <ele>1472</ele>
        <time>2022-07-26T07:50:16Z</time>
      </trkpt>
      <trkpt lat="44.09079" lon="7.00567">
        <ele>1473</ele>
        <time>2022-07-26T07:50:17Z</time>
      </trkpt>
      <trkpt lat="44.0908" lon="7.00568">
        <ele>1473</ele>
        <time>2022-07-26T07:50:18Z</time>
      </trkpt>
      <trkpt lat="44.09081" lon="7.00568">
        <ele>1473</ele>
        <time>2022-07-26T07:50:19Z</time>
      </trkpt>
      <trkpt lat="44.09082" lon="7.00569">
        <ele>1473</ele>
        <time>2022-07-26T07:50:20Z</time>
      </trkpt>
      <trkpt lat="44.09082" lon="7.0057">
        <ele>1473</ele>
        <time>2022-07-26T07:50:21Z</time>
      </trkpt>
      <trkpt lat="44.09082" lon="7.0057">
        <ele>1474</ele>
        <time>2022-07-26T07:50:22Z</time>
      </trkpt>
      <trkpt lat="44.09082" lon="7.0057">
        <ele>1474</ele>
        <time>2022-07-26T07:50:23Z</time>
      </trkpt>
      <trkpt lat="44.09083" lon="7.0057">
        <ele>1474</ele>
        <time>2022-07-26T07:50:24Z</time>
      </trkpt>
      <trkpt lat="44.09083" lon="7.00571">
        <ele>1474</ele>
        <time>2022-07-26T07:50:25Z</time>
      </trkpt>
      <trkpt lat="44.09084" lon="7.00572">
        <ele>1474</ele>
        <time>2022-07-26T07:50:26Z</time>
      </trkpt>
      <trkpt lat="44.09084" lon="7.00573">
        <ele>1474</ele>
        <time>2022-07-26T07:50:27Z</time>
      </trkpt>
      <trkpt lat="44.09085" lon="7.00574">
        <ele>1474</ele>
        <time>2022-07-26T07:50:28Z</time>
      </trkpt>
      <trkpt lat="44.09085" lon="7.00575">
        <ele>1474</ele>
        <time>2022-07-26T07:50:29Z</time>
      </trkpt>
      <trkpt lat="44.09085" lon="7.00576">
        <ele>1474</ele>
        <time>2022-07-26T07:50:30Z</time>
      </trkpt>
      <trkpt lat="44.09086" lon="7.00577">
        <ele>1474</ele>
        <time>2022-07-26T07:50:31Z</time>
      </trkpt>
      <trkpt lat="44.09086" lon="7.00578">
        <ele>1474</ele>
        <time>2022-07-26T07:50:32Z</time>
      </trkpt>
      <trkpt lat="44.09087" lon="7.00579">
        <ele>1474</ele>
        <time>2022-07-26T07:50:33Z</time>
      </trkpt>
      <trkpt lat="44.09087" lon="7.0058">
        <ele>1474</ele>
        <time>2022-07-26T07:50:34Z</time>
      </trkpt>
      <trkpt lat="44.09088" lon="7.00581">
        <ele>1474</ele>
        <time>2022-07-26T07:50:35Z</time>
      </trkpt>
      <trkpt lat="44.09088" lon="7.00582">
        <ele>1474</ele>
        <time>2022-07-26T07:50:36Z</time>
      </trkpt>
      <trkpt lat="44.09089" lon="7.00583">
        <ele>1475</ele>
        <time>2022-07-26T07:50:37Z</time>
      </trkpt>
      <trkpt lat="44.09089" lon="7.00584">
        <ele>1475</ele>
        <time>2022-07-26T07:50:38Z</time>
      </trkpt>
      <trkpt lat="44.0909" lon="7.00584">
        <ele>1475</ele>
        <time>2022-07-26T07:50:39Z</time>
      </trkpt>
      <trkpt lat="44.0909" lon="7.00585">
        <ele>1475</ele>
        <time>2022-07-26T07:50:40Z</time>
      </trkpt>
      <trkpt lat="44.09091" lon="7.00585">
        <ele>1475</ele>
        <time>2022-07-26T07:50:41Z</time>
      </trkpt>
      <trkpt lat="44.09092" lon="7.00586">
        <ele>1476</ele>
        <time>2022-07-26T07:50:42Z</time>
      </trkpt>
      <trkpt lat="44.09092" lon="7.00587">
        <ele>1476</ele>
        <time>2022-07-26T07:50:43Z</time>
      </trkpt>
      <trkpt lat="44.09093" lon="7.00588">
        <ele>1476</ele>
        <time>2022-07-26T07:50:44Z</time>
      </trkpt>
      <trkpt lat="44.09093" lon="7.00589">
        <ele>1476</ele>
        <time>2022-07-26T07:50:45Z</time>
      </trkpt>
      <trkpt lat="44.09094" lon="7.0059">
        <ele>1476</ele>
        <time>2022-07-26T07:50:46Z</time>
      </trkpt>
      <trkpt lat="44.09095" lon="7.00591">
        <ele>1476</ele>
        <time>2022-07-26T07:50:47Z</time>
      </trkpt>
      <trkpt lat="44.09095" lon="7.00592">
        <ele>1476</ele>
        <time>2022-07-26T07:50:48Z</time>
      </trkpt>
      <trkpt lat="44.09096" lon="7.00593">
        <ele>1476</ele>
        <time>2022-07-26T07:50:49Z</time>
      </trkpt>
      <trkpt lat="44.09097" lon="7.00594">
        <ele>1476</ele>
        <time>2022-07-26T07:50:50Z</time>
      </trkpt>
      <trkpt lat="44.09098" lon="7.00595">
        <ele>1476</ele>
        <time>2022-07-26T07:50:51Z</time>
      </trkpt>
      <trkpt lat="44.09099" lon="7.00596">
        <ele>1477</ele>
        <time>2022-07-26T07:50:52Z</time>
      </trkpt>
      <trkpt lat="44.09099" lon="7.00597">
        <ele>1477</ele>
        <time>2022-07-26T07:50:53Z</time>
      </trkpt>
      <trkpt lat="44.091" lon="7.00597">
        <ele>1477</ele>
        <time>2022-07-26T07:50:54Z</time>
      </trkpt>
      <trkpt lat="44.09101" lon="7.00598">
        <ele>1477</ele>
        <time>2022-07-26T07:50:55Z</time>
      </trkpt>
      <trkpt lat="44.09102" lon="7.00599">
        <ele>1477</ele>
        <time>2022-07-26T07:50:56Z</time>
      </trkpt>
      <trkpt lat="44.09102" lon="7.006">
        <ele>1478</ele>
        <time>2022-07-26T07:50:57Z</time>
      </trkpt>
      <trkpt lat="44.09103" lon="7.006">
        <ele>1478</ele>
        <time>2022-07-26T07:50:58Z</time>
      </trkpt>
      <trkpt lat="44.09104" lon="7.00601">
        <ele>1478</ele>
        <time>2022-07-26T07:50:59Z</time>
      </trkpt>
      <trkpt lat="44.09105" lon="7.00602">
        <ele>1478</ele>
        <time>2022-07-26T07:51:00Z</time>
      </trkpt>
      <trkpt lat="44.09105" lon="7.00603">
        <ele>1478</ele>
        <time>2022-07-26T07:51:01Z</time>
      </trkpt>
      <trkpt lat="44.09105" lon="7.00603">
        <ele>1478</ele>
        <time>2022-07-26T07:51:02Z</time>
      </trkpt>
      <trkpt lat="44.09106" lon="7.00604">
        <ele>1478</ele>
        <time>2022-07-26T07:51:03Z</time>
      </trkpt>
      <trkpt lat="44.09107" lon="7.00605">
        <ele>1478</ele>
        <time>2022-07-26T07:51:04Z</time>
      </trkpt>
      <trkpt lat="44.09107" lon="7.00605">
        <ele>1478</ele>
        <time>2022-07-26T07:51:05Z</time>
      </trkpt>
      <trkpt lat="44.09108" lon="7.00606">
        <ele>1478</ele>
        <time>2022-07-26T07:51:06Z</time>
      </trkpt>
      <trkpt lat="44.09108" lon="7.00607">
        <ele>1479</ele>
        <time>2022-07-26T07:51:07Z</time>
      </trkpt>
      <trkpt lat="44.09109" lon="7.00608">
        <ele>1479</ele>
        <time>2022-07-26T07:51:08Z</time>
      </trkpt>
      <trkpt lat="44.0911" lon="7.00609">
        <ele>1479</ele>
        <time>2022-07-26T07:51:09Z</time>
      </trkpt>
      <trkpt lat="44.0911" lon="7.00609">
        <ele>1479</ele>
        <time>2022-07-26T07:51:10Z</time>
      </trkpt>
      <trkpt lat="44.09111" lon="7.0061">
        <ele>1479</ele>
        <time>2022-07-26T07:51:11Z</time>
      </trkpt>
      <trkpt lat="44.09112" lon="7.0061">
        <ele>1480</ele>
        <time>2022-07-26T07:51:12Z</time>
      </trkpt>
      <trkpt lat="44.09113" lon="7.00611">
        <ele>1480</ele>
        <time>2022-07-26T07:51:13Z</time>
      </trkpt>
      <trkpt lat="44.09113" lon="7.00611">
        <ele>1480</ele>
        <time>2022-07-26T07:51:14Z</time>
      </trkpt>
      <trkpt lat="44.09114" lon="7.00612">
        <ele>1480</ele>
        <time>2022-07-26T07:51:15Z</time>
      </trkpt>
      <trkpt lat="44.09115" lon="7.00612">
        <ele>1480</ele>
        <time>2022-07-26T07:51:16Z</time>
      </trkpt>
      <trkpt lat="44.09116" lon="7.00613">
        <ele>1480</ele>
        <time>2022-07-26T07:51:17Z</time>
      </trkpt>
      <trkpt lat="44.09116" lon="7.00614">
        <ele>1480</ele>
        <time>2022-07-26T07:51:18Z</time>
      </trkpt>
      <trkpt lat="44.09117" lon="7.00615">
        <ele>1480</ele>
        <time>2022-07-26T07:51:19Z</time>
      </trkpt>
      <trkpt lat="44.09118" lon="7.00616">
        <ele>1480</ele>
        <time>2022-07-26T07:51:20Z</time>
      </trkpt>
      <trkpt lat="44.09118" lon="7.00617">
        <ele>1480</ele>
        <time>2022-07-26T07:51:21Z</time>
      </trkpt>
      <trkpt lat="44.09119" lon="7.00618">
        <ele>1481</ele>
        <time>2022-07-26T07:51:22Z</time>
      </trkpt>
      <trkpt lat="44.0912" lon="7.00619">
        <ele>1481</ele>
        <time>2022-07-26T07:51:23Z</time>
      </trkpt>
      <trkpt lat="44.09121" lon="7.0062">
        <ele>1481</ele>
        <time>2022-07-26T07:51:24Z</time>
      </trkpt>
      <trkpt lat="44.09122" lon="7.00621">
        <ele>1481</ele>
        <time>2022-07-26T07:51:25Z</time>
      </trkpt>
      <trkpt lat="44.09122" lon="7.00622">
        <ele>1481</ele>
        <time>2022-07-26T07:51:26Z</time>
      </trkpt>
      <trkpt lat="44.09123" lon="7.00623">
        <ele>1481</ele>
        <time>2022-07-26T07:51:27Z</time>
      </trkpt>
      <trkpt lat="44.09124" lon="7.00624">
        <ele>1481</ele>
        <time>2022-07-26T07:51:28Z</time>
      </trkpt>
      <trkpt lat="44.09125" lon="7.00625">
        <ele>1481</ele>
        <time>2022-07-26T07:51:29Z</time>
      </trkpt>
      <trkpt lat="44.09126" lon="7.00626">
        <ele>1481</ele>
        <time>2022-07-26T07:51:30Z</time>
      </trkpt>
      <trkpt lat="44.09126" lon="7.00627">
        <ele>1481</ele>
        <time>2022-07-26T07:51:31Z</time>
      </trkpt>
      <trkpt lat="44.09127" lon="7.00627">
        <ele>1482</ele>
        <time>2022-07-26T07:51:32Z</time>
      </trkpt>
      <trkpt lat="44.09127" lon="7.00628">
        <ele>1482</ele>
        <time>2022-07-26T07:51:33Z</time>
      </trkpt>
      <trkpt lat="44.09128" lon="7.00629">
        <ele>1482</ele>
        <time>2022-07-26T07:51:34Z</time>
      </trkpt>
      <trkpt lat="44.09129" lon="7.00629">
        <ele>1482</ele>
        <time>2022-07-26T07:51:35Z</time>
      </trkpt>
      <trkpt lat="44.09129" lon="7.0063">
        <ele>1482</ele>
        <time>2022-07-26T07:51:36Z</time>
      </trkpt>
      <trkpt lat="44.0913" lon="7.00631">
        <ele>1482</ele>
        <time>2022-07-26T07:51:37Z</time>
      </trkpt>
      <trkpt lat="44.0913" lon="7.00632">
        <ele>1482</ele>
        <time>2022-07-26T07:51:38Z</time>
      </trkpt>
      <trkpt lat="44.09131" lon="7.00633">
        <ele>1482</ele>
        <time>2022-07-26T07:51:39Z</time>
      </trkpt>
      <trkpt lat="44.09131" lon="7.00634">
        <ele>1482</ele>
        <time>2022-07-26T07:51:40Z</time>
      </trkpt>
      <trkpt lat="44.09132" lon="7.00635">
        <ele>1482</ele>
        <time>2022-07-26T07:51:41Z</time>
      </trkpt>
      <trkpt lat="44.09133" lon="7.00635">
        <ele>1483</ele>
        <time>2022-07-26T07:51:42Z</time>
      </trkpt>
      <trkpt lat="44.09133" lon="7.00636">
        <ele>1483</ele>
        <time>2022-07-26T07:51:43Z</time>
      </trkpt>
      <trkpt lat="44.09134" lon="7.00636">
        <ele>1483</ele>
        <time>2022-07-26T07:51:44Z</time>
      </trkpt>
      <trkpt lat="44.09135" lon="7.00637">
        <ele>1483</ele>
        <time>2022-07-26T07:51:45Z</time>
      </trkpt>
      <trkpt lat="44.09135" lon="7.00637">
        <ele>1483</ele>
        <time>2022-07-26T07:51:46Z</time>
      </trkpt>
      <trkpt lat="44.09136" lon="7.00638">
        <ele>1484</ele>
        <time>2022-07-26T07:51:47Z</time>
      </trkpt>
      <trkpt lat="44.09136" lon="7.00639">
        <ele>1484</ele>
        <time>2022-07-26T07:51:48Z</time>
      </trkpt>
      <trkpt lat="44.09137" lon="7.0064">
        <ele>1484</ele>
        <time>2022-07-26T07:51:49Z</time>
      </trkpt>
      <trkpt lat="44.09138" lon="7.00641">
        <ele>1484</ele>
        <time>2022-07-26T07:51:50Z</time>
      </trkpt>
      <trkpt lat="44.09138" lon="7.00642">
        <ele>1484</ele>
        <time>2022-07-26T07:51:51Z</time>
      </trkpt>
      <trkpt lat="44.09139" lon="7.00643">
        <ele>1484</ele>
        <time>2022-07-26T07:51:52Z</time>
      </trkpt>
      <trkpt lat="44.0914" lon="7.00645">
        <ele>1484</ele>
        <time>2022-07-26T07:51:53Z</time>
      </trkpt>
      <trkpt lat="44.09141" lon="7.00646">
        <ele>1484</ele>
        <time>2022-07-26T07:51:54Z</time>
      </trkpt>
      <trkpt lat="44.09142" lon="7.00647">
        <ele>1484</ele>
        <time>2022-07-26T07:51:55Z</time>
      </trkpt>
      <trkpt lat="44.09142" lon="7.00648">
        <ele>1484</ele>
        <time>2022-07-26T07:51:56Z</time>
      </trkpt>
      <trkpt lat="44.09143" lon="7.0065">
        <ele>1485</ele>
        <time>2022-07-26T07:51:57Z</time>
      </trkpt>
      <trkpt lat="44.09144" lon="7.00651">
        <ele>1485</ele>
        <time>2022-07-26T07:51:58Z</time>
      </trkpt>
      <trkpt lat="44.09144" lon="7.00652">
        <ele>1485</ele>
        <time>2022-07-26T07:51:59Z</time>
      </trkpt>
      <trkpt lat="44.09145" lon="7.00653">
        <ele>1485</ele>
        <time>2022-07-26T07:52:00Z</time>
      </trkpt>
      <trkpt lat="44.09146" lon="7.00654">
        <ele>1485</ele>
        <time>2022-07-26T07:52:01Z</time>
      </trkpt>
      <trkpt lat="44.09147" lon="7.00655">
        <ele>1486</ele>
        <time>2022-07-26T07:52:02Z</time>
      </trkpt>
      <trkpt lat="44.09147" lon="7.00656">
        <ele>1486</ele>
        <time>2022-07-26T07:52:03Z</time>
      </trkpt>
      <trkpt lat="44.09148" lon="7.00657">
        <ele>1486</ele>
        <time>2022-07-26T07:52:04Z</time>
      </trkpt>
      <trkpt lat="44.09148" lon="7.00658">
        <ele>1486</ele>
        <time>2022-07-26T07:52:05Z</time>
      </trkpt>
      <trkpt lat="44.09148" lon="7.00659">
        <ele>1486</ele>
        <time>2022-07-26T07:52:06Z</time>
      </trkpt>
      <trkpt lat="44.09149" lon="7.0066">
        <ele>1486</ele>
        <time>2022-07-26T07:52:07Z</time>
      </trkpt>
      <trkpt lat="44.09149" lon="7.00662">
        <ele>1486</ele>
        <time>2022-07-26T07:52:08Z</time>
      </trkpt>
      <trkpt lat="44.09149" lon="7.00663">
        <ele>1486</ele>
        <time>2022-07-26T07:52:09Z</time>
      </trkpt>
      <trkpt lat="44.09149" lon="7.00664">
        <ele>1486</ele>
        <time>2022-07-26T07:52:10Z</time>
      </trkpt>
      <trkpt lat="44.09149" lon="7.00665">
        <ele>1486</ele>
        <time>2022-07-26T07:52:11Z</time>
      </trkpt>
      <trkpt lat="44.09149" lon="7.00666">
        <ele>1487</ele>
        <time>2022-07-26T07:52:12Z</time>
      </trkpt>
      <trkpt lat="44.0915" lon="7.00667">
        <ele>1487</ele>
        <time>2022-07-26T07:52:13Z</time>
      </trkpt>
      <trkpt lat="44.09151" lon="7.00668">
        <ele>1487</ele>
        <time>2022-07-26T07:52:14Z</time>
      </trkpt>
      <trkpt lat="44.09152" lon="7.00668">
        <ele>1487</ele>
        <time>2022-07-26T07:52:15Z</time>
      </trkpt>
      <trkpt lat="44.09153" lon="7.00669">
        <ele>1487</ele>
        <time>2022-07-26T07:52:16Z</time>
      </trkpt>
      <trkpt lat="44.09154" lon="7.00669">
        <ele>1487</ele>
        <time>2022-07-26T07:52:17Z</time>
      </trkpt>
      <trkpt lat="44.09155" lon="7.0067">
        <ele>1487</ele>
        <time>2022-07-26T07:52:18Z</time>
      </trkpt>
      <trkpt lat="44.09157" lon="7.0067">
        <ele>1487</ele>
        <time>2022-07-26T07:52:19Z</time>
      </trkpt>
      <trkpt lat="44.09158" lon="7.00671">
        <ele>1487</ele>
        <time>2022-07-26T07:52:20Z</time>
      </trkpt>
      <trkpt lat="44.09159" lon="7.00672">
        <ele>1487</ele>
        <time>2022-07-26T07:52:21Z</time>
      </trkpt>
      <trkpt lat="44.0916" lon="7.00673">
        <ele>1488</ele>
        <time>2022-07-26T07:52:22Z</time>
      </trkpt>
      <trkpt lat="44.0916" lon="7.00673">
        <ele>1488</ele>
        <time>2022-07-26T07:52:23Z</time>
      </trkpt>
      <trkpt lat="44.09161" lon="7.00673">
        <ele>1488</ele>
        <time>2022-07-26T07:52:24Z</time>
      </trkpt>
      <trkpt lat="44.09162" lon="7.00674">
        <ele>1488</ele>
        <time>2022-07-26T07:52:25Z</time>
      </trkpt>
      <trkpt lat="44.09162" lon="7.00674">
        <ele>1488</ele>
        <time>2022-07-26T07:52:26Z</time>
      </trkpt>
      <trkpt lat="44.09163" lon="7.00674">
        <ele>1488</ele>
        <time>2022-07-26T07:52:27Z</time>
      </trkpt>
      <trkpt lat="44.09163" lon="7.00674">
        <ele>1488</ele>
        <time>2022-07-26T07:52:28Z</time>
      </trkpt>
      <trkpt lat="44.09164" lon="7.00675">
        <ele>1488</ele>
        <time>2022-07-26T07:52:29Z</time>
      </trkpt>
      <trkpt lat="44.09165" lon="7.00675">
        <ele>1488</ele>
        <time>2022-07-26T07:52:30Z</time>
      </trkpt>
      <trkpt lat="44.09165" lon="7.00676">
        <ele>1488</ele>
        <time>2022-07-26T07:52:31Z</time>
      </trkpt>
      <trkpt lat="44.09166" lon="7.00677">
        <ele>1488</ele>
        <time>2022-07-26T07:52:32Z</time>
      </trkpt>
      <trkpt lat="44.09166" lon="7.00678">
        <ele>1488</ele>
        <time>2022-07-26T07:52:33Z</time>
      </trkpt>
      <trkpt lat="44.09167" lon="7.00679">
        <ele>1488</ele>
        <time>2022-07-26T07:52:34Z</time>
      </trkpt>
      <trkpt lat="44.09167" lon="7.0068">
        <ele>1489</ele>
        <time>2022-07-26T07:52:35Z</time>
      </trkpt>
      <trkpt lat="44.09168" lon="7.00681">
        <ele>1489</ele>
        <time>2022-07-26T07:52:36Z</time>
      </trkpt>
      <trkpt lat="44.09168" lon="7.00682">
        <ele>1490</ele>
        <time>2022-07-26T07:52:37Z</time>
      </trkpt>
      <trkpt lat="44.09169" lon="7.00683">
        <ele>1490</ele>
        <time>2022-07-26T07:52:38Z</time>
      </trkpt>
      <trkpt lat="44.09169" lon="7.00683">
        <ele>1490</ele>
        <time>2022-07-26T07:52:39Z</time>
      </trkpt>
      <trkpt lat="44.0917" lon="7.00684">
        <ele>1490</ele>
        <time>2022-07-26T07:52:40Z</time>
      </trkpt>
      <trkpt lat="44.09171" lon="7.00685">
        <ele>1490</ele>
        <time>2022-07-26T07:52:41Z</time>
      </trkpt>
      <trkpt lat="44.09171" lon="7.00686">
        <ele>1490</ele>
        <time>2022-07-26T07:52:42Z</time>
      </trkpt>
      <trkpt lat="44.09172" lon="7.00686">
        <ele>1490</ele>
        <time>2022-07-26T07:52:43Z</time>
      </trkpt>
      <trkpt lat="44.09173" lon="7.00687">
        <ele>1490</ele>
        <time>2022-07-26T07:52:44Z</time>
      </trkpt>
      <trkpt lat="44.09173" lon="7.00688">
        <ele>1490</ele>
        <time>2022-07-26T07:52:45Z</time>
      </trkpt>
      <trkpt lat="44.09173" lon="7.00689">
        <ele>1490</ele>
        <time>2022-07-26T07:52:46Z</time>
      </trkpt>
      <trkpt lat="44.09174" lon="7.0069">
        <ele>1491</ele>
        <time>2022-07-26T07:52:47Z</time>
      </trkpt>
      <trkpt lat="44.09174" lon="7.00691">
        <ele>1491</ele>
        <time>2022-07-26T07:52:48Z</time>
      </trkpt>
      <trkpt lat="44.09174" lon="7.00692">
        <ele>1491</ele>
        <time>2022-07-26T07:52:49Z</time>
      </trkpt>
      <trkpt lat="44.09174" lon="7.00693">
        <ele>1491</ele>
        <time>2022-07-26T07:52:50Z</time>
      </trkpt>
      <trkpt lat="44.09175" lon="7.00694">
        <ele>1491</ele>
        <time>2022-07-26T07:52:51Z</time>
      </trkpt>
      <trkpt lat="44.09175" lon="7.00694">
        <ele>1492</ele>
        <time>2022-07-26T07:52:52Z</time>
      </trkpt>
      <trkpt lat="44.09175" lon="7.00695">
        <ele>1492</ele>
        <time>2022-07-26T07:52:53Z</time>
      </trkpt>
      <trkpt lat="44.09176" lon="7.00696">
        <ele>1492</ele>
        <time>2022-07-26T07:52:54Z</time>
      </trkpt>
      <trkpt lat="44.09176" lon="7.00697">
        <ele>1492</ele>
        <time>2022-07-26T07:52:55Z</time>
      </trkpt>
      <trkpt lat="44.09177" lon="7.00698">
        <ele>1492</ele>
        <time>2022-07-26T07:52:56Z</time>
      </trkpt>
      <trkpt lat="44.09178" lon="7.00699">
        <ele>1492</ele>
        <time>2022-07-26T07:52:57Z</time>
      </trkpt>
      <trkpt lat="44.09178" lon="7.007">
        <ele>1492</ele>
        <time>2022-07-26T07:52:58Z</time>
      </trkpt>
      <trkpt lat="44.09179" lon="7.00701">
        <ele>1492</ele>
        <time>2022-07-26T07:52:59Z</time>
      </trkpt>
      <trkpt lat="44.0918" lon="7.00702">
        <ele>1492</ele>
        <time>2022-07-26T07:53:00Z</time>
      </trkpt>
      <trkpt lat="44.09181" lon="7.00703">
        <ele>1492</ele>
        <time>2022-07-26T07:53:01Z</time>
      </trkpt>
      <trkpt lat="44.09181" lon="7.00703">
        <ele>1493</ele>
        <time>2022-07-26T07:53:02Z</time>
      </trkpt>
      <trkpt lat="44.09181" lon="7.00704">
        <ele>1493</ele>
        <time>2022-07-26T07:53:03Z</time>
      </trkpt>
      <trkpt lat="44.09182" lon="7.00705">
        <ele>1493</ele>
        <time>2022-07-26T07:53:04Z</time>
      </trkpt>
      <trkpt lat="44.09182" lon="7.00706">
        <ele>1493</ele>
        <time>2022-07-26T07:53:05Z</time>
      </trkpt>
      <trkpt lat="44.09182" lon="7.00707">
        <ele>1493</ele>
        <time>2022-07-26T07:53:06Z</time>
      </trkpt>
      <trkpt lat="44.09183" lon="7.00708">
        <ele>1494</ele>
        <time>2022-07-26T07:53:07Z</time>
      </trkpt>
      <trkpt lat="44.09183" lon="7.00709">
        <ele>1494</ele>
        <time>2022-07-26T07:53:08Z</time>
      </trkpt>
      <trkpt lat="44.09184" lon="7.00711">
        <ele>1494</ele>
        <time>2022-07-26T07:53:09Z</time>
      </trkpt>
      <trkpt lat="44.09184" lon="7.00712">
        <ele>1494</ele>
        <time>2022-07-26T07:53:10Z</time>
      </trkpt>
      <trkpt lat="44.09186" lon="7.00713">
        <ele>1494</ele>
        <time>2022-07-26T07:53:11Z</time>
      </trkpt>
      <trkpt lat="44.09187" lon="7.00715">
        <ele>1494</ele>
        <time>2022-07-26T07:53:12Z</time>
      </trkpt>
      <trkpt lat="44.09188" lon="7.00715">
        <ele>1494</ele>
        <time>2022-07-26T07:53:13Z</time>
      </trkpt>
      <trkpt lat="44.0919" lon="7.00716">
        <ele>1494</ele>
        <time>2022-07-26T07:53:14Z</time>
      </trkpt>
      <trkpt lat="44.09191" lon="7.00717">
        <ele>1494</ele>
        <time>2022-07-26T07:53:15Z</time>
      </trkpt>
      <trkpt lat="44.09192" lon="7.00718">
        <ele>1494</ele>
        <time>2022-07-26T07:53:16Z</time>
      </trkpt>
      <trkpt lat="44.09194" lon="7.00719">
        <ele>1495</ele>
        <time>2022-07-26T07:53:17Z</time>
      </trkpt>
      <trkpt lat="44.09195" lon="7.00719">
        <ele>1495</ele>
        <time>2022-07-26T07:53:18Z</time>
      </trkpt>
      <trkpt lat="44.09196" lon="7.0072">
        <ele>1495</ele>
        <time>2022-07-26T07:53:19Z</time>
      </trkpt>
      <trkpt lat="44.09197" lon="7.00721">
        <ele>1495</ele>
        <time>2022-07-26T07:53:20Z</time>
      </trkpt>
      <trkpt lat="44.09197" lon="7.00721">
        <ele>1495</ele>
        <time>2022-07-26T07:53:21Z</time>
      </trkpt>
      <trkpt lat="44.09198" lon="7.00722">
        <ele>1495</ele>
        <time>2022-07-26T07:53:22Z</time>
      </trkpt>
      <trkpt lat="44.09199" lon="7.00723">
        <ele>1495</ele>
        <time>2022-07-26T07:53:23Z</time>
      </trkpt>
      <trkpt lat="44.092" lon="7.00724">
        <ele>1495</ele>
        <time>2022-07-26T07:53:24Z</time>
      </trkpt>
      <trkpt lat="44.092" lon="7.00725">
        <ele>1495</ele>
        <time>2022-07-26T07:53:25Z</time>
      </trkpt>
      <trkpt lat="44.09201" lon="7.00726">
        <ele>1495</ele>
        <time>2022-07-26T07:53:26Z</time>
      </trkpt>
      <trkpt lat="44.09201" lon="7.00726">
        <ele>1495</ele>
        <time>2022-07-26T07:53:27Z</time>
      </trkpt>
      <trkpt lat="44.09202" lon="7.00727">
        <ele>1495</ele>
        <time>2022-07-26T07:53:28Z</time>
      </trkpt>
      <trkpt lat="44.09202" lon="7.00728">
        <ele>1495</ele>
        <time>2022-07-26T07:53:29Z</time>
      </trkpt>
      <trkpt lat="44.09203" lon="7.00729">
        <ele>1495</ele>
        <time>2022-07-26T07:53:30Z</time>
      </trkpt>
      <trkpt lat="44.09204" lon="7.00729">
        <ele>1495</ele>
        <time>2022-07-26T07:53:31Z</time>
      </trkpt>
      <trkpt lat="44.09205" lon="7.00731">
        <ele>1497</ele>
        <time>2022-07-26T07:53:48Z</time>
      </trkpt>
      <trkpt lat="44.09206" lon="7.00732">
        <ele>1497</ele>
        <time>2022-07-26T07:53:49Z</time>
      </trkpt>
      <trkpt lat="44.09206" lon="7.00733">
        <ele>1497</ele>
        <time>2022-07-26T07:53:50Z</time>
      </trkpt>
      <trkpt lat="44.09207" lon="7.00734">
        <ele>1497</ele>
        <time>2022-07-26T07:53:51Z</time>
      </trkpt>
      <trkpt lat="44.09208" lon="7.00735">
        <ele>1497</ele>
        <time>2022-07-26T07:53:52Z</time>
      </trkpt>
      <trkpt lat="44.09209" lon="7.00736">
        <ele>1497</ele>
        <time>2022-07-26T07:53:53Z</time>
      </trkpt>
      <trkpt lat="44.09209" lon="7.00737">
        <ele>1497</ele>
        <time>2022-07-26T07:53:54Z</time>
      </trkpt>
      <trkpt lat="44.0921" lon="7.00738">
        <ele>1497</ele>
        <time>2022-07-26T07:53:55Z</time>
      </trkpt>
      <trkpt lat="44.09211" lon="7.00739">
        <ele>1497</ele>
        <time>2022-07-26T07:53:56Z</time>
      </trkpt>
      <trkpt lat="44.09212" lon="7.00741">
        <ele>1497</ele>
        <time>2022-07-26T07:53:57Z</time>
      </trkpt>
      <trkpt lat="44.09213" lon="7.00742">
        <ele>1497</ele>
        <time>2022-07-26T07:53:58Z</time>
      </trkpt>
      <trkpt lat="44.09214" lon="7.00744">
        <ele>1497</ele>
        <time>2022-07-26T07:53:59Z</time>
      </trkpt>
      <trkpt lat="44.09215" lon="7.00745">
        <ele>1497</ele>
        <time>2022-07-26T07:54:00Z</time>
      </trkpt>
      <trkpt lat="44.09216" lon="7.00747">
        <ele>1497</ele>
        <time>2022-07-26T07:54:01Z</time>
      </trkpt>
      <trkpt lat="44.09216" lon="7.00748">
        <ele>1497</ele>
        <time>2022-07-26T07:54:02Z</time>
      </trkpt>
      <trkpt lat="44.09217" lon="7.00749">
        <ele>1497</ele>
        <time>2022-07-26T07:54:03Z</time>
      </trkpt>
      <trkpt lat="44.09217" lon="7.0075">
        <ele>1497</ele>
        <time>2022-07-26T07:54:04Z</time>
      </trkpt>
      <trkpt lat="44.09217" lon="7.00752">
        <ele>1497</ele>
        <time>2022-07-26T07:54:05Z</time>
      </trkpt>
      <trkpt lat="44.09217" lon="7.00753">
        <ele>1497</ele>
        <time>2022-07-26T07:54:06Z</time>
      </trkpt>
      <trkpt lat="44.09218" lon="7.00755">
        <ele>1497</ele>
        <time>2022-07-26T07:54:07Z</time>
      </trkpt>
      <trkpt lat="44.09218" lon="7.00756">
        <ele>1497</ele>
        <time>2022-07-26T07:54:08Z</time>
      </trkpt>
      <trkpt lat="44.09219" lon="7.00758">
        <ele>1497</ele>
        <time>2022-07-26T07:54:09Z</time>
      </trkpt>
      <trkpt lat="44.0922" lon="7.00759">
        <ele>1497</ele>
        <time>2022-07-26T07:54:10Z</time>
      </trkpt>
      <trkpt lat="44.09221" lon="7.0076">
        <ele>1497</ele>
        <time>2022-07-26T07:54:11Z</time>
      </trkpt>
      <trkpt lat="44.09222" lon="7.0076">
        <ele>1497</ele>
        <time>2022-07-26T07:54:12Z</time>
      </trkpt>
      <trkpt lat="44.09223" lon="7.00761">
        <ele>1497</ele>
        <time>2022-07-26T07:54:13Z</time>
      </trkpt>
      <trkpt lat="44.09224" lon="7.00761">
        <ele>1497</ele>
        <time>2022-07-26T07:54:14Z</time>
      </trkpt>
      <trkpt lat="44.09225" lon="7.00762">
        <ele>1497</ele>
        <time>2022-07-26T07:54:15Z</time>
      </trkpt>
      <trkpt lat="44.09226" lon="7.00763">
        <ele>1497</ele>
        <time>2022-07-26T07:54:16Z</time>
      </trkpt>
      <trkpt lat="44.09227" lon="7.00764">
        <ele>1497</ele>
        <time>2022-07-26T07:54:17Z</time>
      </trkpt>
      <trkpt lat="44.09229" lon="7.00765">
        <ele>1497</ele>
        <time>2022-07-26T07:54:18Z</time>
      </trkpt>
      <trkpt lat="44.0923" lon="7.00766">
        <ele>1497</ele>
        <time>2022-07-26T07:54:19Z</time>
      </trkpt>
      <trkpt lat="44.09231" lon="7.00767">
        <ele>1497</ele>
        <time>2022-07-26T07:54:20Z</time>
      </trkpt>
      <trkpt lat="44.09232" lon="7.00769">
        <ele>1497</ele>
        <time>2022-07-26T07:54:21Z</time>
      </trkpt>
      <trkpt lat="44.09233" lon="7.0077">
        <ele>1497</ele>
        <time>2022-07-26T07:54:22Z</time>
      </trkpt>
      <trkpt lat="44.09234" lon="7.00771">
        <ele>1497</ele>
        <time>2022-07-26T07:54:23Z</time>
      </trkpt>
      <trkpt lat="44.09235" lon="7.00772">
        <ele>1497</ele>
        <time>2022-07-26T07:54:24Z</time>
      </trkpt>
      <trkpt lat="44.09236" lon="7.00773">
        <ele>1497</ele>
        <time>2022-07-26T07:54:25Z</time>
      </trkpt>
      <trkpt lat="44.09237" lon="7.00774">
        <ele>1497</ele>
        <time>2022-07-26T07:54:26Z</time>
      </trkpt>
      <trkpt lat="44.09237" lon="7.00775">
        <ele>1498</ele>
        <time>2022-07-26T07:54:27Z</time>
      </trkpt>
      <trkpt lat="44.09238" lon="7.00776">
        <ele>1498</ele>
        <time>2022-07-26T07:54:28Z</time>
      </trkpt>
      <trkpt lat="44.09239" lon="7.00777">
        <ele>1498</ele>
        <time>2022-07-26T07:54:29Z</time>
      </trkpt>
      <trkpt lat="44.0924" lon="7.00779">
        <ele>1498</ele>
        <time>2022-07-26T07:54:30Z</time>
      </trkpt>
      <trkpt lat="44.09242" lon="7.0078">
        <ele>1498</ele>
        <time>2022-07-26T07:54:31Z</time>
      </trkpt>
      <trkpt lat="44.09243" lon="7.00782">
        <ele>1498</ele>
        <time>2022-07-26T07:54:32Z</time>
      </trkpt>
      <trkpt lat="44.09244" lon="7.00783">
        <ele>1498</ele>
        <time>2022-07-26T07:54:33Z</time>
      </trkpt>
      <trkpt lat="44.09245" lon="7.00784">
        <ele>1498</ele>
        <time>2022-07-26T07:54:34Z</time>
      </trkpt>
      <trkpt lat="44.09246" lon="7.00786">
        <ele>1498</ele>
        <time>2022-07-26T07:54:35Z</time>
      </trkpt>
      <trkpt lat="44.09247" lon="7.00787">
        <ele>1498</ele>
        <time>2022-07-26T07:54:36Z</time>
      </trkpt>
      <trkpt lat="44.09247" lon="7.00788">
        <ele>1498</ele>
        <time>2022-07-26T07:54:37Z</time>
      </trkpt>
      <trkpt lat="44.09248" lon="7.00789">
        <ele>1498</ele>
        <time>2022-07-26T07:54:38Z</time>
      </trkpt>
      <trkpt lat="44.09249" lon="7.0079">
        <ele>1498</ele>
        <time>2022-07-26T07:54:39Z</time>
      </trkpt>
      <trkpt lat="44.09249" lon="7.00791">
        <ele>1498</ele>
        <time>2022-07-26T07:54:40Z</time>
      </trkpt>
      <trkpt lat="44.09249" lon="7.00791">
        <ele>1498</ele>
        <time>2022-07-26T07:54:41Z</time>
      </trkpt>
      <trkpt lat="44.0925" lon="7.00792">
        <ele>1499</ele>
        <time>2022-07-26T07:54:42Z</time>
      </trkpt>
      <trkpt lat="44.0925" lon="7.00793">
        <ele>1499</ele>
        <time>2022-07-26T07:54:43Z</time>
      </trkpt>
      <trkpt lat="44.09251" lon="7.00794">
        <ele>1499</ele>
        <time>2022-07-26T07:54:44Z</time>
      </trkpt>
      <trkpt lat="44.09251" lon="7.00795">
        <ele>1499</ele>
        <time>2022-07-26T07:54:45Z</time>
      </trkpt>
      <trkpt lat="44.09252" lon="7.00797">
        <ele>1499</ele>
        <time>2022-07-26T07:54:46Z</time>
      </trkpt>
      <trkpt lat="44.09252" lon="7.00798">
        <ele>1499</ele>
        <time>2022-07-26T07:54:47Z</time>
      </trkpt>
      <trkpt lat="44.09252" lon="7.00799">
        <ele>1499</ele>
        <time>2022-07-26T07:54:48Z</time>
      </trkpt>
      <trkpt lat="44.09253" lon="7.008">
        <ele>1499</ele>
        <time>2022-07-26T07:54:49Z</time>
      </trkpt>
      <trkpt lat="44.09253" lon="7.00802">
        <ele>1499</ele>
        <time>2022-07-26T07:54:50Z</time>
      </trkpt>
      <trkpt lat="44.09253" lon="7.00803">
        <ele>1499</ele>
        <time>2022-07-26T07:54:51Z</time>
      </trkpt>
      <trkpt lat="44.09254" lon="7.00804">
        <ele>1500</ele>
        <time>2022-07-26T07:54:52Z</time>
      </trkpt>
      <trkpt lat="44.09254" lon="7.00805">
        <ele>1500</ele>
        <time>2022-07-26T07:54:53Z</time>
      </trkpt>
      <trkpt lat="44.09255" lon="7.00806">
        <ele>1500</ele>
        <time>2022-07-26T07:54:54Z</time>
      </trkpt>
      <trkpt lat="44.09255" lon="7.00806">
        <ele>1500</ele>
        <time>2022-07-26T07:54:55Z</time>
      </trkpt>
      <trkpt lat="44.09256" lon="7.00807">
        <ele>1500</ele>
        <time>2022-07-26T07:54:56Z</time>
      </trkpt>
      <trkpt lat="44.09257" lon="7.00807">
        <ele>1501</ele>
        <time>2022-07-26T07:54:57Z</time>
      </trkpt>
      <trkpt lat="44.09257" lon="7.00807">
        <ele>1501</ele>
        <time>2022-07-26T07:54:58Z</time>
      </trkpt>
      <trkpt lat="44.09258" lon="7.00808">
        <ele>1501</ele>
        <time>2022-07-26T07:54:59Z</time>
      </trkpt>
      <trkpt lat="44.09259" lon="7.00808">
        <ele>1501</ele>
        <time>2022-07-26T07:55:00Z</time>
      </trkpt>
      <trkpt lat="44.0926" lon="7.00808">
        <ele>1501</ele>
        <time>2022-07-26T07:55:01Z</time>
      </trkpt>
      <trkpt lat="44.09261" lon="7.00809">
        <ele>1501</ele>
        <time>2022-07-26T07:55:02Z</time>
      </trkpt>
      <trkpt lat="44.09262" lon="7.0081">
        <ele>1502</ele>
        <time>2022-07-26T07:55:08Z</time>
      </trkpt>
      <trkpt lat="44.09261" lon="7.00811">
        <ele>1502</ele>
        <time>2022-07-26T07:55:09Z</time>
      </trkpt>
      <trkpt lat="44.09261" lon="7.00811">
        <ele>1502</ele>
        <time>2022-07-26T07:55:10Z</time>
      </trkpt>
      <trkpt lat="44.09261" lon="7.00811">
        <ele>1502</ele>
        <time>2022-07-26T07:55:11Z</time>
      </trkpt>
      <trkpt lat="44.0926" lon="7.00811">
        <ele>1503</ele>
        <time>2022-07-26T07:55:12Z</time>
      </trkpt>
      <trkpt lat="44.09259" lon="7.0081">
        <ele>1503</ele>
        <time>2022-07-26T07:55:13Z</time>
      </trkpt>
      <trkpt lat="44.09259" lon="7.0081">
        <ele>1503</ele>
        <time>2022-07-26T07:55:14Z</time>
      </trkpt>
      <trkpt lat="44.09258" lon="7.00809">
        <ele>1503</ele>
        <time>2022-07-26T07:55:15Z</time>
      </trkpt>
      <trkpt lat="44.09257" lon="7.00808">
        <ele>1503</ele>
        <time>2022-07-26T07:55:16Z</time>
      </trkpt>
      <trkpt lat="44.09256" lon="7.00807">
        <ele>1504</ele>
        <time>2022-07-26T07:55:17Z</time>
      </trkpt>
      <trkpt lat="44.09255" lon="7.00807">
        <ele>1504</ele>
        <time>2022-07-26T07:55:18Z</time>
      </trkpt>
      <trkpt lat="44.09254" lon="7.00806">
        <ele>1504</ele>
        <time>2022-07-26T07:55:19Z</time>
      </trkpt>
      <trkpt lat="44.09253" lon="7.00805">
        <ele>1504</ele>
        <time>2022-07-26T07:55:20Z</time>
      </trkpt>
      <trkpt lat="44.09252" lon="7.00804">
        <ele>1504</ele>
        <time>2022-07-26T07:55:21Z</time>
      </trkpt>
      <trkpt lat="44.09252" lon="7.00804">
        <ele>1504</ele>
        <time>2022-07-26T07:55:22Z</time>
      </trkpt>
      <trkpt lat="44.09251" lon="7.00803">
        <ele>1504</ele>
        <time>2022-07-26T07:55:23Z</time>
      </trkpt>
      <trkpt lat="44.0925" lon="7.00803">
        <ele>1504</ele>
        <time>2022-07-26T07:55:24Z</time>
      </trkpt>
      <trkpt lat="44.0925" lon="7.00802">
        <ele>1504</ele>
        <time>2022-07-26T07:55:25Z</time>
      </trkpt>
      <trkpt lat="44.09249" lon="7.00801">
        <ele>1504</ele>
        <time>2022-07-26T07:55:26Z</time>
      </trkpt>
      <trkpt lat="44.09249" lon="7.00801">
        <ele>1505</ele>
        <time>2022-07-26T07:55:27Z</time>
      </trkpt>
      <trkpt lat="44.09249" lon="7.008">
        <ele>1505</ele>
        <time>2022-07-26T07:55:28Z</time>
      </trkpt>
      <trkpt lat="44.09248" lon="7.008">
        <ele>1505</ele>
        <time>2022-07-26T07:55:29Z</time>
      </trkpt>
      <trkpt lat="44.09247" lon="7.00799">
        <ele>1506</ele>
        <time>2022-07-26T07:55:30Z</time>
      </trkpt>
      <trkpt lat="44.09247" lon="7.00798">
        <ele>1506</ele>
        <time>2022-07-26T07:55:31Z</time>
      </trkpt>
      <trkpt lat="44.09245" lon="7.00796">
        <ele>1509</ele>
        <time>2022-07-26T07:57:26Z</time>
      </trkpt>
      <trkpt lat="44.09245" lon="7.00796">
        <ele>1509</ele>
        <time>2022-07-26T07:57:27Z</time>
      </trkpt>
      <trkpt lat="44.09244" lon="7.00795">
        <ele>1509</ele>
        <time>2022-07-26T07:57:28Z</time>
      </trkpt>
      <trkpt lat="44.09243" lon="7.00798">
        <ele>1509</ele>
        <time>2022-07-26T08:06:48Z</time>
      </trkpt>
      <trkpt lat="44.09243" lon="7.00799">
        <ele>1509</ele>
        <time>2022-07-26T08:06:49Z</time>
      </trkpt>
      <trkpt lat="44.09243" lon="7.008">
        <ele>1509</ele>
        <time>2022-07-26T08:06:50Z</time>
      </trkpt>
      <trkpt lat="44.09243" lon="7.00801">
        <ele>1509</ele>
        <time>2022-07-26T08:06:51Z</time>
      </trkpt>
      <trkpt lat="44.09243" lon="7.00801">
        <ele>1509</ele>
        <time>2022-07-26T08:06:52Z</time>
      </trkpt>
      <trkpt lat="44.09244" lon="7.00805">
        <ele>1509</ele>
        <time>2022-07-26T08:14:37Z</time>
      </trkpt>
      <trkpt lat="44.09244" lon="7.00807">
        <ele>1509</ele>
        <time>2022-07-26T08:14:38Z</time>
      </trkpt>
      <trkpt lat="44.09244" lon="7.00809">
        <ele>1509</ele>
        <time>2022-07-26T08:14:39Z</time>
      </trkpt>
      <trkpt lat="44.09244" lon="7.0081">
        <ele>1509</ele>
        <time>2022-07-26T08:14:40Z</time>
      </trkpt>
      <trkpt lat="44.09245" lon="7.00811">
        <ele>1509</ele>
        <time>2022-07-26T08:14:41Z</time>
      </trkpt>
      <trkpt lat="44.09245" lon="7.00811">
        <ele>1509</ele>
        <time>2022-07-26T08:14:42Z</time>
      </trkpt>
      <trkpt lat="44.09245" lon="7.00811">
        <ele>1509</ele>
        <time>2022-07-26T08:14:43Z</time>
      </trkpt>
      <trkpt lat="44.09246" lon="7.00812">
        <ele>1509</ele>
        <time>2022-07-26T08:14:44Z</time>
      </trkpt>
      <trkpt lat="44.09247" lon="7.00813">
        <ele>1509</ele>
        <time>2022-07-26T08:14:45Z</time>
      </trkpt>
      <trkpt lat="44.09248" lon="7.00813">
        <ele>1509</ele>
        <time>2022-07-26T08:14:46Z</time>
      </trkpt>
      <trkpt lat="44.09248" lon="7.00814">
        <ele>1509</ele>
        <time>2022-07-26T08:14:47Z</time>
      </trkpt>
      <trkpt lat="44.09249" lon="7.00814">
        <ele>1509</ele>
        <time>2022-07-26T08:14:48Z</time>
      </trkpt>
      <trkpt lat="44.09249" lon="7.00815">
        <ele>1509</ele>
        <time>2022-07-26T08:14:49Z</time>
      </trkpt>
      <trkpt lat="44.0925" lon="7.00815">
        <ele>1509</ele>
        <time>2022-07-26T08:14:50Z</time>
      </trkpt>
      <trkpt lat="44.0925" lon="7.00815">
        <ele>1509</ele>
        <time>2022-07-26T08:14:51Z</time>
      </trkpt>
      <trkpt lat="44.09251" lon="7.00815">
        <ele>1509</ele>
        <time>2022-07-26T08:14:52Z</time>
      </trkpt>
      <trkpt lat="44.09252" lon="7.00816">
        <ele>1509</ele>
        <time>2022-07-26T08:14:53Z</time>
      </trkpt>
      <trkpt lat="44.09253" lon="7.00816">
        <ele>1509</ele>
        <time>2022-07-26T08:14:54Z</time>
      </trkpt>
      <trkpt lat="44.09253" lon="7.00816">
        <ele>1509</ele>
        <time>2022-07-26T08:14:55Z</time>
      </trkpt>
      <trkpt lat="44.09254" lon="7.00817">
        <ele>1509</ele>
        <time>2022-07-26T08:14:56Z</time>
      </trkpt>
      <trkpt lat="44.09255" lon="7.00817">
        <ele>1509</ele>
        <time>2022-07-26T08:14:57Z</time>
      </trkpt>
      <trkpt lat="44.09256" lon="7.00818">
        <ele>1509</ele>
        <time>2022-07-26T08:14:58Z</time>
      </trkpt>
      <trkpt lat="44.09257" lon="7.00818">
        <ele>1509</ele>
        <time>2022-07-26T08:14:59Z</time>
      </trkpt>
      <trkpt lat="44.09257" lon="7.00818">
        <ele>1509</ele>
        <time>2022-07-26T08:15:00Z</time>
      </trkpt>
      <trkpt lat="44.09258" lon="7.00819">
        <ele>1509</ele>
        <time>2022-07-26T08:15:01Z</time>
      </trkpt>
      <trkpt lat="44.09259" lon="7.0082">
        <ele>1510</ele>
        <time>2022-07-26T08:15:02Z</time>
      </trkpt>
      <trkpt lat="44.09259" lon="7.0082">
        <ele>1510</ele>
        <time>2022-07-26T08:15:03Z</time>
      </trkpt>
      <trkpt lat="44.09259" lon="7.0082">
        <ele>1510</ele>
        <time>2022-07-26T08:15:04Z</time>
      </trkpt>
      <trkpt lat="44.0926" lon="7.00821">
        <ele>1510</ele>
        <time>2022-07-26T08:15:05Z</time>
      </trkpt>
      <trkpt lat="44.0926" lon="7.00821">
        <ele>1510</ele>
        <time>2022-07-26T08:15:06Z</time>
      </trkpt>
      <trkpt lat="44.09261" lon="7.00822">
        <ele>1510</ele>
        <time>2022-07-26T08:15:07Z</time>
      </trkpt>
      <trkpt lat="44.09261" lon="7.00822">
        <ele>1510</ele>
        <time>2022-07-26T08:15:08Z</time>
      </trkpt>
      <trkpt lat="44.09262" lon="7.00823">
        <ele>1510</ele>
        <time>2022-07-26T08:15:09Z</time>
      </trkpt>
      <trkpt lat="44.09262" lon="7.00823">
        <ele>1510</ele>
        <time>2022-07-26T08:15:10Z</time>
      </trkpt>
      <trkpt lat="44.09263" lon="7.00824">
        <ele>1510</ele>
        <time>2022-07-26T08:15:11Z</time>
      </trkpt>
      <trkpt lat="44.09263" lon="7.00824">
        <ele>1511</ele>
        <time>2022-07-26T08:15:12Z</time>
      </trkpt>
      <trkpt lat="44.09264" lon="7.00825">
        <ele>1511</ele>
        <time>2022-07-26T08:15:13Z</time>
      </trkpt>
      <trkpt lat="44.09264" lon="7.00825">
        <ele>1511</ele>
        <time>2022-07-26T08:15:14Z</time>
      </trkpt>
      <trkpt lat="44.09265" lon="7.00826">
        <ele>1511</ele>
        <time>2022-07-26T08:15:15Z</time>
      </trkpt>
      <trkpt lat="44.09265" lon="7.00827">
        <ele>1511</ele>
        <time>2022-07-26T08:15:16Z</time>
      </trkpt>
      <trkpt lat="44.09266" lon="7.00828">
        <ele>1511</ele>
        <time>2022-07-26T08:15:17Z</time>
      </trkpt>
      <trkpt lat="44.09266" lon="7.00829">
        <ele>1511</ele>
        <time>2022-07-26T08:15:18Z</time>
      </trkpt>
      <trkpt lat="44.09267" lon="7.00829">
        <ele>1511</ele>
        <time>2022-07-26T08:15:19Z</time>
      </trkpt>
      <trkpt lat="44.09268" lon="7.0083">
        <ele>1511</ele>
        <time>2022-07-26T08:15:20Z</time>
      </trkpt>
      <trkpt lat="44.09268" lon="7.0083">
        <ele>1511</ele>
        <time>2022-07-26T08:15:21Z</time>
      </trkpt>
      <trkpt lat="44.09269" lon="7.00831">
        <ele>1512</ele>
        <time>2022-07-26T08:15:22Z</time>
      </trkpt>
      <trkpt lat="44.09269" lon="7.00831">
        <ele>1512</ele>
        <time>2022-07-26T08:15:23Z</time>
      </trkpt>
      <trkpt lat="44.0927" lon="7.00832">
        <ele>1512</ele>
        <time>2022-07-26T08:15:24Z</time>
      </trkpt>
      <trkpt lat="44.09271" lon="7.00832">
        <ele>1512</ele>
        <time>2022-07-26T08:15:25Z</time>
      </trkpt>
      <trkpt lat="44.09271" lon="7.00833">
        <ele>1512</ele>
        <time>2022-07-26T08:15:26Z</time>
      </trkpt>
      <trkpt lat="44.09272" lon="7.00834">
        <ele>1512</ele>
        <time>2022-07-26T08:15:27Z</time>
      </trkpt>
      <trkpt lat="44.09272" lon="7.00834">
        <ele>1512</ele>
        <time>2022-07-26T08:15:28Z</time>
      </trkpt>
      <trkpt lat="44.09273" lon="7.00835">
        <ele>1512</ele>
        <time>2022-07-26T08:15:29Z</time>
      </trkpt>
      <trkpt lat="44.09274" lon="7.00835">
        <ele>1512</ele>
        <time>2022-07-26T08:15:30Z</time>
      </trkpt>
      <trkpt lat="44.09275" lon="7.00836">
        <ele>1512</ele>
        <time>2022-07-26T08:15:31Z</time>
      </trkpt>
      <trkpt lat="44.09275" lon="7.00837">
        <ele>1513</ele>
        <time>2022-07-26T08:15:32Z</time>
      </trkpt>
      <trkpt lat="44.09276" lon="7.00837">
        <ele>1513</ele>
        <time>2022-07-26T08:15:33Z</time>
      </trkpt>
      <trkpt lat="44.09277" lon="7.00838">
        <ele>1513</ele>
        <time>2022-07-26T08:15:34Z</time>
      </trkpt>
      <trkpt lat="44.09278" lon="7.00838">
        <ele>1513</ele>
        <time>2022-07-26T08:15:35Z</time>
      </trkpt>
      <trkpt lat="44.09279" lon="7.00839">
        <ele>1513</ele>
        <time>2022-07-26T08:15:36Z</time>
      </trkpt>
      <trkpt lat="44.0928" lon="7.0084">
        <ele>1513</ele>
        <time>2022-07-26T08:15:37Z</time>
      </trkpt>
      <trkpt lat="44.09281" lon="7.00841">
        <ele>1513</ele>
        <time>2022-07-26T08:15:38Z</time>
      </trkpt>
      <trkpt lat="44.09281" lon="7.00841">
        <ele>1513</ele>
        <time>2022-07-26T08:15:39Z</time>
      </trkpt>
      <trkpt lat="44.09282" lon="7.00842">
        <ele>1513</ele>
        <time>2022-07-26T08:15:40Z</time>
      </trkpt>
      <trkpt lat="44.09283" lon="7.00843">
        <ele>1513</ele>
        <time>2022-07-26T08:15:41Z</time>
      </trkpt>
      <trkpt lat="44.09283" lon="7.00843">
        <ele>1514</ele>
        <time>2022-07-26T08:15:42Z</time>
      </trkpt>
      <trkpt lat="44.09284" lon="7.00844">
        <ele>1514</ele>
        <time>2022-07-26T08:15:43Z</time>
      </trkpt>
      <trkpt lat="44.09285" lon="7.00845">
        <ele>1514</ele>
        <time>2022-07-26T08:15:44Z</time>
      </trkpt>
      <trkpt lat="44.09285" lon="7.00845">
        <ele>1514</ele>
        <time>2022-07-26T08:15:45Z</time>
      </trkpt>
      <trkpt lat="44.09286" lon="7.00846">
        <ele>1514</ele>
        <time>2022-07-26T08:15:46Z</time>
      </trkpt>
      <trkpt lat="44.09287" lon="7.00846">
        <ele>1514</ele>
        <time>2022-07-26T08:15:47Z</time>
      </trkpt>
      <trkpt lat="44.09288" lon="7.00847">
        <ele>1514</ele>
        <time>2022-07-26T08:15:48Z</time>
      </trkpt>
      <trkpt lat="44.09289" lon="7.00847">
        <ele>1514</ele>
        <time>2022-07-26T08:15:49Z</time>
      </trkpt>
      <trkpt lat="44.0929" lon="7.00848">
        <ele>1514</ele>
        <time>2022-07-26T08:15:50Z</time>
      </trkpt>
      <trkpt lat="44.0929" lon="7.00848">
        <ele>1514</ele>
        <time>2022-07-26T08:15:51Z</time>
      </trkpt>
      <trkpt lat="44.09291" lon="7.00849">
        <ele>1514</ele>
        <time>2022-07-26T08:15:52Z</time>
      </trkpt>
      <trkpt lat="44.09292" lon="7.00849">
        <ele>1514</ele>
        <time>2022-07-26T08:15:53Z</time>
      </trkpt>
      <trkpt lat="44.09292" lon="7.0085">
        <ele>1514</ele>
        <time>2022-07-26T08:15:54Z</time>
      </trkpt>
      <trkpt lat="44.09293" lon="7.00851">
        <ele>1514</ele>
        <time>2022-07-26T08:15:55Z</time>
      </trkpt>
      <trkpt lat="44.09294" lon="7.00851">
        <ele>1514</ele>
        <time>2022-07-26T08:15:56Z</time>
      </trkpt>
      <trkpt lat="44.09294" lon="7.00852">
        <ele>1514</ele>
        <time>2022-07-26T08:15:57Z</time>
      </trkpt>
      <trkpt lat="44.09295" lon="7.00853">
        <ele>1514</ele>
        <time>2022-07-26T08:15:58Z</time>
      </trkpt>
      <trkpt lat="44.09295" lon="7.00853">
        <ele>1514</ele>
        <time>2022-07-26T08:15:59Z</time>
      </trkpt>
      <trkpt lat="44.09296" lon="7.00854">
        <ele>1514</ele>
        <time>2022-07-26T08:16:00Z</time>
      </trkpt>
      <trkpt lat="44.09296" lon="7.00854">
        <ele>1514</ele>
        <time>2022-07-26T08:16:01Z</time>
      </trkpt>
      <trkpt lat="44.09297" lon="7.00855">
        <ele>1515</ele>
        <time>2022-07-26T08:16:02Z</time>
      </trkpt>
      <trkpt lat="44.09298" lon="7.00856">
        <ele>1515</ele>
        <time>2022-07-26T08:16:03Z</time>
      </trkpt>
      <trkpt lat="44.09298" lon="7.00857">
        <ele>1515</ele>
        <time>2022-07-26T08:16:04Z</time>
      </trkpt>
      <trkpt lat="44.09299" lon="7.00857">
        <ele>1515</ele>
        <time>2022-07-26T08:16:05Z</time>
      </trkpt>
      <trkpt lat="44.093" lon="7.00858">
        <ele>1515</ele>
        <time>2022-07-26T08:16:06Z</time>
      </trkpt>
      <trkpt lat="44.09301" lon="7.00859">
        <ele>1516</ele>
        <time>2022-07-26T08:16:07Z</time>
      </trkpt>
      <trkpt lat="44.09301" lon="7.0086">
        <ele>1516</ele>
        <time>2022-07-26T08:16:08Z</time>
      </trkpt>
      <trkpt lat="44.09302" lon="7.00861">
        <ele>1516</ele>
        <time>2022-07-26T08:16:09Z</time>
      </trkpt>
      <trkpt lat="44.09303" lon="7.00862">
        <ele>1516</ele>
        <time>2022-07-26T08:16:10Z</time>
      </trkpt>
      <trkpt lat="44.09303" lon="7.00863">
        <ele>1516</ele>
        <time>2022-07-26T08:16:11Z</time>
      </trkpt>
      <trkpt lat="44.09304" lon="7.00863">
        <ele>1516</ele>
        <time>2022-07-26T08:16:12Z</time>
      </trkpt>
      <trkpt lat="44.09304" lon="7.00864">
        <ele>1516</ele>
        <time>2022-07-26T08:16:13Z</time>
      </trkpt>
      <trkpt lat="44.09305" lon="7.00865">
        <ele>1516</ele>
        <time>2022-07-26T08:16:14Z</time>
      </trkpt>
      <trkpt lat="44.09306" lon="7.00866">
        <ele>1516</ele>
        <time>2022-07-26T08:16:15Z</time>
      </trkpt>
      <trkpt lat="44.09306" lon="7.00866">
        <ele>1516</ele>
        <time>2022-07-26T08:16:16Z</time>
      </trkpt>
      <trkpt lat="44.09307" lon="7.00867">
        <ele>1517</ele>
        <time>2022-07-26T08:16:17Z</time>
      </trkpt>
      <trkpt lat="44.09307" lon="7.00868">
        <ele>1517</ele>
        <time>2022-07-26T08:16:18Z</time>
      </trkpt>
      <trkpt lat="44.09308" lon="7.00868">
        <ele>1517</ele>
        <time>2022-07-26T08:16:19Z</time>
      </trkpt>
      <trkpt lat="44.09309" lon="7.00869">
        <ele>1517</ele>
        <time>2022-07-26T08:16:20Z</time>
      </trkpt>
      <trkpt lat="44.09309" lon="7.0087">
        <ele>1517</ele>
        <time>2022-07-26T08:16:21Z</time>
      </trkpt>
      <trkpt lat="44.0931" lon="7.0087">
        <ele>1517</ele>
        <time>2022-07-26T08:16:22Z</time>
      </trkpt>
      <trkpt lat="44.09311" lon="7.00871">
        <ele>1517</ele>
        <time>2022-07-26T08:16:23Z</time>
      </trkpt>
      <trkpt lat="44.09311" lon="7.00871">
        <ele>1517</ele>
        <time>2022-07-26T08:16:24Z</time>
      </trkpt>
      <trkpt lat="44.09312" lon="7.00872">
        <ele>1517</ele>
        <time>2022-07-26T08:16:25Z</time>
      </trkpt>
      <trkpt lat="44.09313" lon="7.00872">
        <ele>1517</ele>
        <time>2022-07-26T08:16:26Z</time>
      </trkpt>
      <trkpt lat="44.09313" lon="7.00873">
        <ele>1518</ele>
        <time>2022-07-26T08:16:27Z</time>
      </trkpt>
      <trkpt lat="44.09314" lon="7.00874">
        <ele>1518</ele>
        <time>2022-07-26T08:16:28Z</time>
      </trkpt>
      <trkpt lat="44.09315" lon="7.00875">
        <ele>1518</ele>
        <time>2022-07-26T08:16:29Z</time>
      </trkpt>
      <trkpt lat="44.09315" lon="7.00876">
        <ele>1518</ele>
        <time>2022-07-26T08:16:30Z</time>
      </trkpt>
      <trkpt lat="44.09316" lon="7.00877">
        <ele>1518</ele>
        <time>2022-07-26T08:16:31Z</time>
      </trkpt>
      <trkpt lat="44.09317" lon="7.00878">
        <ele>1518</ele>
        <time>2022-07-26T08:16:32Z</time>
      </trkpt>
      <trkpt lat="44.09318" lon="7.00879">
        <ele>1518</ele>
        <time>2022-07-26T08:16:33Z</time>
      </trkpt>
      <trkpt lat="44.09318" lon="7.0088">
        <ele>1518</ele>
        <time>2022-07-26T08:16:34Z</time>
      </trkpt>
      <trkpt lat="44.09319" lon="7.00881">
        <ele>1518</ele>
        <time>2022-07-26T08:16:35Z</time>
      </trkpt>
      <trkpt lat="44.0932" lon="7.00881">
        <ele>1518</ele>
        <time>2022-07-26T08:16:36Z</time>
      </trkpt>
      <trkpt lat="44.09321" lon="7.00882">
        <ele>1518</ele>
        <time>2022-07-26T08:16:37Z</time>
      </trkpt>
      <trkpt lat="44.09321" lon="7.00883">
        <ele>1518</ele>
        <time>2022-07-26T08:16:38Z</time>
      </trkpt>
      <trkpt lat="44.09322" lon="7.00883">
        <ele>1518</ele>
        <time>2022-07-26T08:16:39Z</time>
      </trkpt>
      <trkpt lat="44.09322" lon="7.00883">
        <ele>1518</ele>
        <time>2022-07-26T08:16:40Z</time>
      </trkpt>
      <trkpt lat="44.09323" lon="7.00884">
        <ele>1518</ele>
        <time>2022-07-26T08:16:41Z</time>
      </trkpt>
      <trkpt lat="44.09324" lon="7.00884">
        <ele>1519</ele>
        <time>2022-07-26T08:16:42Z</time>
      </trkpt>
      <trkpt lat="44.09324" lon="7.00885">
        <ele>1519</ele>
        <time>2022-07-26T08:16:43Z</time>
      </trkpt>
      <trkpt lat="44.09325" lon="7.00885">
        <ele>1519</ele>
        <time>2022-07-26T08:16:44Z</time>
      </trkpt>
      <trkpt lat="44.09326" lon="7.00886">
        <ele>1519</ele>
        <time>2022-07-26T08:16:45Z</time>
      </trkpt>
      <trkpt lat="44.09326" lon="7.00887">
        <ele>1519</ele>
        <time>2022-07-26T08:16:46Z</time>
      </trkpt>
      <trkpt lat="44.09327" lon="7.00888">
        <ele>1519</ele>
        <time>2022-07-26T08:16:47Z</time>
      </trkpt>
      <trkpt lat="44.09328" lon="7.00888">
        <ele>1519</ele>
        <time>2022-07-26T08:16:48Z</time>
      </trkpt>
      <trkpt lat="44.09329" lon="7.00889">
        <ele>1519</ele>
        <time>2022-07-26T08:16:49Z</time>
      </trkpt>
      <trkpt lat="44.0933" lon="7.0089">
        <ele>1519</ele>
        <time>2022-07-26T08:16:50Z</time>
      </trkpt>
      <trkpt lat="44.0933" lon="7.0089">
        <ele>1519</ele>
        <time>2022-07-26T08:16:51Z</time>
      </trkpt>
      <trkpt lat="44.09331" lon="7.00891">
        <ele>1520</ele>
        <time>2022-07-26T08:16:52Z</time>
      </trkpt>
      <trkpt lat="44.09332" lon="7.00892">
        <ele>1520</ele>
        <time>2022-07-26T08:16:53Z</time>
      </trkpt>
      <trkpt lat="44.09333" lon="7.00892">
        <ele>1520</ele>
        <time>2022-07-26T08:16:54Z</time>
      </trkpt>
      <trkpt lat="44.09333" lon="7.00893">
        <ele>1520</ele>
        <time>2022-07-26T08:16:55Z</time>
      </trkpt>
      <trkpt lat="44.09334" lon="7.00894">
        <ele>1520</ele>
        <time>2022-07-26T08:16:56Z</time>
      </trkpt>
      <trkpt lat="44.09335" lon="7.00895">
        <ele>1521</ele>
        <time>2022-07-26T08:16:57Z</time>
      </trkpt>
      <trkpt lat="44.09335" lon="7.00895">
        <ele>1521</ele>
        <time>2022-07-26T08:16:58Z</time>
      </trkpt>
      <trkpt lat="44.09335" lon="7.00896">
        <ele>1521</ele>
        <time>2022-07-26T08:16:59Z</time>
      </trkpt>
      <trkpt lat="44.09336" lon="7.00896">
        <ele>1521</ele>
        <time>2022-07-26T08:17:00Z</time>
      </trkpt>
      <trkpt lat="44.09337" lon="7.00897">
        <ele>1521</ele>
        <time>2022-07-26T08:17:01Z</time>
      </trkpt>
      <trkpt lat="44.09337" lon="7.00897">
        <ele>1521</ele>
        <time>2022-07-26T08:17:02Z</time>
      </trkpt>
      <trkpt lat="44.09338" lon="7.00898">
        <ele>1521</ele>
        <time>2022-07-26T08:17:03Z</time>
      </trkpt>
      <trkpt lat="44.09339" lon="7.00899">
        <ele>1521</ele>
        <time>2022-07-26T08:17:04Z</time>
      </trkpt>
      <trkpt lat="44.09339" lon="7.00899">
        <ele>1521</ele>
        <time>2022-07-26T08:17:05Z</time>
      </trkpt>
      <trkpt lat="44.0934" lon="7.009">
        <ele>1521</ele>
        <time>2022-07-26T08:17:06Z</time>
      </trkpt>
      <trkpt lat="44.09341" lon="7.00901">
        <ele>1522</ele>
        <time>2022-07-26T08:17:07Z</time>
      </trkpt>
      <trkpt lat="44.09341" lon="7.00901">
        <ele>1522</ele>
        <time>2022-07-26T08:17:08Z</time>
      </trkpt>
      <trkpt lat="44.09342" lon="7.00902">
        <ele>1522</ele>
        <time>2022-07-26T08:17:09Z</time>
      </trkpt>
      <trkpt lat="44.09342" lon="7.00902">
        <ele>1522</ele>
        <time>2022-07-26T08:17:10Z</time>
      </trkpt>
      <trkpt lat="44.09343" lon="7.00903">
        <ele>1522</ele>
        <time>2022-07-26T08:17:11Z</time>
      </trkpt>
      <trkpt lat="44.09344" lon="7.00904">
        <ele>1522</ele>
        <time>2022-07-26T08:17:12Z</time>
      </trkpt>
      <trkpt lat="44.09344" lon="7.00905">
        <ele>1522</ele>
        <time>2022-07-26T08:17:13Z</time>
      </trkpt>
      <trkpt lat="44.09345" lon="7.00906">
        <ele>1522</ele>
        <time>2022-07-26T08:17:14Z</time>
      </trkpt>
      <trkpt lat="44.09345" lon="7.00907">
        <ele>1523</ele>
        <time>2022-07-26T08:17:15Z</time>
      </trkpt>
      <trkpt lat="44.09346" lon="7.00907">
        <ele>1523</ele>
        <time>2022-07-26T08:17:16Z</time>
      </trkpt>
      <trkpt lat="44.09347" lon="7.00908">
        <ele>1524</ele>
        <time>2022-07-26T08:17:17Z</time>
      </trkpt>
      <trkpt lat="44.09348" lon="7.00908">
        <ele>1524</ele>
        <time>2022-07-26T08:17:18Z</time>
      </trkpt>
      <trkpt lat="44.09349" lon="7.00908">
        <ele>1524</ele>
        <time>2022-07-26T08:17:19Z</time>
      </trkpt>
      <trkpt lat="44.0935" lon="7.00909">
        <ele>1524</ele>
        <time>2022-07-26T08:17:20Z</time>
      </trkpt>
      <trkpt lat="44.09351" lon="7.0091">
        <ele>1524</ele>
        <time>2022-07-26T08:17:21Z</time>
      </trkpt>
      <trkpt lat="44.09351" lon="7.00911">
        <ele>1524</ele>
        <time>2022-07-26T08:17:22Z</time>
      </trkpt>
      <trkpt lat="44.09351" lon="7.00912">
        <ele>1524</ele>
        <time>2022-07-26T08:17:23Z</time>
      </trkpt>
      <trkpt lat="44.09352" lon="7.00913">
        <ele>1524</ele>
        <time>2022-07-26T08:17:24Z</time>
      </trkpt>
      <trkpt lat="44.09352" lon="7.00914">
        <ele>1524</ele>
        <time>2022-07-26T08:17:25Z</time>
      </trkpt>
      <trkpt lat="44.09353" lon="7.00914">
        <ele>1524</ele>
        <time>2022-07-26T08:17:26Z</time>
      </trkpt>
      <trkpt lat="44.09354" lon="7.00915">
        <ele>1525</ele>
        <time>2022-07-26T08:17:27Z</time>
      </trkpt>
      <trkpt lat="44.09355" lon="7.00916">
        <ele>1525</ele>
        <time>2022-07-26T08:17:28Z</time>
      </trkpt>
      <trkpt lat="44.09355" lon="7.00917">
        <ele>1525</ele>
        <time>2022-07-26T08:17:29Z</time>
      </trkpt>
      <trkpt lat="44.09356" lon="7.00918">
        <ele>1525</ele>
        <time>2022-07-26T08:17:30Z</time>
      </trkpt>
      <trkpt lat="44.09357" lon="7.00919">
        <ele>1525</ele>
        <time>2022-07-26T08:17:31Z</time>
      </trkpt>
      <trkpt lat="44.09358" lon="7.0092">
        <ele>1525</ele>
        <time>2022-07-26T08:17:32Z</time>
      </trkpt>
      <trkpt lat="44.09358" lon="7.00921">
        <ele>1525</ele>
        <time>2022-07-26T08:17:33Z</time>
      </trkpt>
      <trkpt lat="44.09358" lon="7.00921">
        <ele>1525</ele>
        <time>2022-07-26T08:17:34Z</time>
      </trkpt>
      <trkpt lat="44.09359" lon="7.00922">
        <ele>1525</ele>
        <time>2022-07-26T08:17:35Z</time>
      </trkpt>
      <trkpt lat="44.09359" lon="7.00923">
        <ele>1525</ele>
        <time>2022-07-26T08:17:36Z</time>
      </trkpt>
      <trkpt lat="44.09359" lon="7.00924">
        <ele>1526</ele>
        <time>2022-07-26T08:17:37Z</time>
      </trkpt>
      <trkpt lat="44.09359" lon="7.00925">
        <ele>1526</ele>
        <time>2022-07-26T08:17:38Z</time>
      </trkpt>
      <trkpt lat="44.09359" lon="7.00925">
        <ele>1526</ele>
        <time>2022-07-26T08:17:39Z</time>
      </trkpt>
      <trkpt lat="44.09359" lon="7.00926">
        <ele>1526</ele>
        <time>2022-07-26T08:17:40Z</time>
      </trkpt>
      <trkpt lat="44.09359" lon="7.00926">
        <ele>1526</ele>
        <time>2022-07-26T08:17:41Z</time>
      </trkpt>
      <trkpt lat="44.09359" lon="7.00927">
        <ele>1526</ele>
        <time>2022-07-26T08:17:42Z</time>
      </trkpt>
      <trkpt lat="44.09359" lon="7.00928">
        <ele>1526</ele>
        <time>2022-07-26T08:17:43Z</time>
      </trkpt>
      <trkpt lat="44.0936" lon="7.00928">
        <ele>1526</ele>
        <time>2022-07-26T08:17:44Z</time>
      </trkpt>
      <trkpt lat="44.0936" lon="7.00929">
        <ele>1526</ele>
        <time>2022-07-26T08:17:45Z</time>
      </trkpt>
      <trkpt lat="44.0936" lon="7.0093">
        <ele>1526</ele>
        <time>2022-07-26T08:17:46Z</time>
      </trkpt>
      <trkpt lat="44.0936" lon="7.0093">
        <ele>1527</ele>
        <time>2022-07-26T08:17:47Z</time>
      </trkpt>
      <trkpt lat="44.09361" lon="7.0093">
        <ele>1527</ele>
        <time>2022-07-26T08:17:48Z</time>
      </trkpt>
      <trkpt lat="44.09361" lon="7.00931">
        <ele>1527</ele>
        <time>2022-07-26T08:17:49Z</time>
      </trkpt>
      <trkpt lat="44.09362" lon="7.00931">
        <ele>1527</ele>
        <time>2022-07-26T08:17:50Z</time>
      </trkpt>
      <trkpt lat="44.09362" lon="7.00932">
        <ele>1527</ele>
        <time>2022-07-26T08:17:51Z</time>
      </trkpt>
      <trkpt lat="44.09363" lon="7.00933">
        <ele>1528</ele>
        <time>2022-07-26T08:17:52Z</time>
      </trkpt>
      <trkpt lat="44.09363" lon="7.00934">
        <ele>1528</ele>
        <time>2022-07-26T08:17:53Z</time>
      </trkpt>
      <trkpt lat="44.09364" lon="7.00934">
        <ele>1528</ele>
        <time>2022-07-26T08:17:54Z</time>
      </trkpt>
      <trkpt lat="44.09364" lon="7.00935">
        <ele>1528</ele>
        <time>2022-07-26T08:17:55Z</time>
      </trkpt>
      <trkpt lat="44.09365" lon="7.00936">
        <ele>1528</ele>
        <time>2022-07-26T08:17:56Z</time>
      </trkpt>
      <trkpt lat="44.09365" lon="7.00937">
        <ele>1529</ele>
        <time>2022-07-26T08:17:57Z</time>
      </trkpt>
      <trkpt lat="44.09366" lon="7.00938">
        <ele>1529</ele>
        <time>2022-07-26T08:17:58Z</time>
      </trkpt>
      <trkpt lat="44.09366" lon="7.00939">
        <ele>1529</ele>
        <time>2022-07-26T08:17:59Z</time>
      </trkpt>
      <trkpt lat="44.09367" lon="7.0094">
        <ele>1529</ele>
        <time>2022-07-26T08:18:00Z</time>
      </trkpt>
      <trkpt lat="44.09367" lon="7.00941">
        <ele>1529</ele>
        <time>2022-07-26T08:18:01Z</time>
      </trkpt>
      <trkpt lat="44.09367" lon="7.00942">
        <ele>1529</ele>
        <time>2022-07-26T08:18:02Z</time>
      </trkpt>
      <trkpt lat="44.09368" lon="7.00943">
        <ele>1529</ele>
        <time>2022-07-26T08:18:03Z</time>
      </trkpt>
      <trkpt lat="44.09368" lon="7.00943">
        <ele>1529</ele>
        <time>2022-07-26T08:18:04Z</time>
      </trkpt>
      <trkpt lat="44.09368" lon="7.00944">
        <ele>1529</ele>
        <time>2022-07-26T08:18:05Z</time>
      </trkpt>
      <trkpt lat="44.09368" lon="7.00945">
        <ele>1529</ele>
        <time>2022-07-26T08:18:06Z</time>
      </trkpt>
      <trkpt lat="44.09369" lon="7.00945">
        <ele>1530</ele>
        <time>2022-07-26T08:18:07Z</time>
      </trkpt>
      <trkpt lat="44.09369" lon="7.00946">
        <ele>1530</ele>
        <time>2022-07-26T08:18:08Z</time>
      </trkpt>
      <trkpt lat="44.09369" lon="7.00947">
        <ele>1530</ele>
        <time>2022-07-26T08:18:09Z</time>
      </trkpt>
      <trkpt lat="44.09369" lon="7.00947">
        <ele>1530</ele>
        <time>2022-07-26T08:18:10Z</time>
      </trkpt>
      <trkpt lat="44.09369" lon="7.00948">
        <ele>1530</ele>
        <time>2022-07-26T08:18:11Z</time>
      </trkpt>
      <trkpt lat="44.0937" lon="7.00949">
        <ele>1531</ele>
        <time>2022-07-26T08:18:12Z</time>
      </trkpt>
      <trkpt lat="44.0937" lon="7.0095">
        <ele>1531</ele>
        <time>2022-07-26T08:18:13Z</time>
      </trkpt>
      <trkpt lat="44.09371" lon="7.00951">
        <ele>1531</ele>
        <time>2022-07-26T08:18:14Z</time>
      </trkpt>
      <trkpt lat="44.09372" lon="7.00952">
        <ele>1531</ele>
        <time>2022-07-26T08:18:15Z</time>
      </trkpt>
      <trkpt lat="44.09372" lon="7.00953">
        <ele>1531</ele>
        <time>2022-07-26T08:18:16Z</time>
      </trkpt>
      <trkpt lat="44.09373" lon="7.00954">
        <ele>1532</ele>
        <time>2022-07-26T08:18:17Z</time>
      </trkpt>
      <trkpt lat="44.09374" lon="7.00955">
        <ele>1532</ele>
        <time>2022-07-26T08:18:18Z</time>
      </trkpt>
      <trkpt lat="44.09374" lon="7.00956">
        <ele>1532</ele>
        <time>2022-07-26T08:18:19Z</time>
      </trkpt>
      <trkpt lat="44.09375" lon="7.00957">
        <ele>1532</ele>
        <time>2022-07-26T08:18:20Z</time>
      </trkpt>
      <trkpt lat="44.09375" lon="7.00958">
        <ele>1532</ele>
        <time>2022-07-26T08:18:21Z</time>
      </trkpt>
      <trkpt lat="44.09376" lon="7.00959">
        <ele>1532</ele>
        <time>2022-07-26T08:18:22Z</time>
      </trkpt>
      <trkpt lat="44.09376" lon="7.00959">
        <ele>1532</ele>
        <time>2022-07-26T08:18:23Z</time>
      </trkpt>
      <trkpt lat="44.09376" lon="7.0096">
        <ele>1532</ele>
        <time>2022-07-26T08:18:24Z</time>
      </trkpt>
      <trkpt lat="44.09376" lon="7.00961">
        <ele>1532</ele>
        <time>2022-07-26T08:18:25Z</time>
      </trkpt>
      <trkpt lat="44.09376" lon="7.00962">
        <ele>1532</ele>
        <time>2022-07-26T08:18:26Z</time>
      </trkpt>
      <trkpt lat="44.09377" lon="7.00962">
        <ele>1533</ele>
        <time>2022-07-26T08:18:27Z</time>
      </trkpt>
      <trkpt lat="44.09377" lon="7.00963">
        <ele>1533</ele>
        <time>2022-07-26T08:18:28Z</time>
      </trkpt>
      <trkpt lat="44.09377" lon="7.00964">
        <ele>1533</ele>
        <time>2022-07-26T08:18:29Z</time>
      </trkpt>
      <trkpt lat="44.09378" lon="7.00965">
        <ele>1533</ele>
        <time>2022-07-26T08:18:30Z</time>
      </trkpt>
      <trkpt lat="44.09378" lon="7.00967">
        <ele>1533</ele>
        <time>2022-07-26T08:18:31Z</time>
      </trkpt>
      <trkpt lat="44.09378" lon="7.00968">
        <ele>1533</ele>
        <time>2022-07-26T08:18:32Z</time>
      </trkpt>
      <trkpt lat="44.09379" lon="7.00969">
        <ele>1533</ele>
        <time>2022-07-26T08:18:33Z</time>
      </trkpt>
      <trkpt lat="44.0938" lon="7.0097">
        <ele>1533</ele>
        <time>2022-07-26T08:18:34Z</time>
      </trkpt>
      <trkpt lat="44.0938" lon="7.00972">
        <ele>1533</ele>
        <time>2022-07-26T08:18:35Z</time>
      </trkpt>
      <trkpt lat="44.09381" lon="7.00974">
        <ele>1533</ele>
        <time>2022-07-26T08:18:36Z</time>
      </trkpt>
      <trkpt lat="44.09382" lon="7.00975">
        <ele>1534</ele>
        <time>2022-07-26T08:18:37Z</time>
      </trkpt>
      <trkpt lat="44.09383" lon="7.00976">
        <ele>1534</ele>
        <time>2022-07-26T08:18:38Z</time>
      </trkpt>
      <trkpt lat="44.09384" lon="7.00978">
        <ele>1534</ele>
        <time>2022-07-26T08:18:39Z</time>
      </trkpt>
      <trkpt lat="44.09384" lon="7.00979">
        <ele>1534</ele>
        <time>2022-07-26T08:18:40Z</time>
      </trkpt>
      <trkpt lat="44.09385" lon="7.0098">
        <ele>1534</ele>
        <time>2022-07-26T08:18:41Z</time>
      </trkpt>
      <trkpt lat="44.09386" lon="7.00981">
        <ele>1535</ele>
        <time>2022-07-26T08:18:42Z</time>
      </trkpt>
      <trkpt lat="44.09387" lon="7.00982">
        <ele>1535</ele>
        <time>2022-07-26T08:18:43Z</time>
      </trkpt>
      <trkpt lat="44.09387" lon="7.00982">
        <ele>1535</ele>
        <time>2022-07-26T08:18:44Z</time>
      </trkpt>
      <trkpt lat="44.09388" lon="7.00983">
        <ele>1535</ele>
        <time>2022-07-26T08:18:45Z</time>
      </trkpt>
      <trkpt lat="44.09388" lon="7.00984">
        <ele>1535</ele>
        <time>2022-07-26T08:18:46Z</time>
      </trkpt>
      <trkpt lat="44.09389" lon="7.00985">
        <ele>1536</ele>
        <time>2022-07-26T08:18:47Z</time>
      </trkpt>
      <trkpt lat="44.09389" lon="7.00985">
        <ele>1536</ele>
        <time>2022-07-26T08:18:48Z</time>
      </trkpt>
      <trkpt lat="44.09389" lon="7.00986">
        <ele>1536</ele>
        <time>2022-07-26T08:18:49Z</time>
      </trkpt>
      <trkpt lat="44.09389" lon="7.00987">
        <ele>1536</ele>
        <time>2022-07-26T08:18:50Z</time>
      </trkpt>
      <trkpt lat="44.0939" lon="7.00988">
        <ele>1536</ele>
        <time>2022-07-26T08:18:51Z</time>
      </trkpt>
      <trkpt lat="44.0939" lon="7.00989">
        <ele>1536</ele>
        <time>2022-07-26T08:18:52Z</time>
      </trkpt>
      <trkpt lat="44.09391" lon="7.00991">
        <ele>1536</ele>
        <time>2022-07-26T08:18:53Z</time>
      </trkpt>
      <trkpt lat="44.09392" lon="7.00992">
        <ele>1536</ele>
        <time>2022-07-26T08:18:54Z</time>
      </trkpt>
      <trkpt lat="44.09393" lon="7.00993">
        <ele>1536</ele>
        <time>2022-07-26T08:18:55Z</time>
      </trkpt>
      <trkpt lat="44.09393" lon="7.00994">
        <ele>1536</ele>
        <time>2022-07-26T08:18:56Z</time>
      </trkpt>
      <trkpt lat="44.09394" lon="7.00995">
        <ele>1537</ele>
        <time>2022-07-26T08:18:57Z</time>
      </trkpt>
      <trkpt lat="44.09395" lon="7.00997">
        <ele>1537</ele>
        <time>2022-07-26T08:18:58Z</time>
      </trkpt>
      <trkpt lat="44.09396" lon="7.00998">
        <ele>1537</ele>
        <time>2022-07-26T08:18:59Z</time>
      </trkpt>
      <trkpt lat="44.09396" lon="7.00999">
        <ele>1537</ele>
        <time>2022-07-26T08:19:00Z</time>
      </trkpt>
      <trkpt lat="44.09397" lon="7.01001">
        <ele>1537</ele>
        <time>2022-07-26T08:19:01Z</time>
      </trkpt>
      <trkpt lat="44.09397" lon="7.01002">
        <ele>1538</ele>
        <time>2022-07-26T08:19:02Z</time>
      </trkpt>
      <trkpt lat="44.09398" lon="7.01004">
        <ele>1538</ele>
        <time>2022-07-26T08:19:03Z</time>
      </trkpt>
      <trkpt lat="44.09398" lon="7.01006">
        <ele>1538</ele>
        <time>2022-07-26T08:19:04Z</time>
      </trkpt>
      <trkpt lat="44.09399" lon="7.01008">
        <ele>1538</ele>
        <time>2022-07-26T08:19:05Z</time>
      </trkpt>
      <trkpt lat="44.09399" lon="7.0101">
        <ele>1538</ele>
        <time>2022-07-26T08:19:06Z</time>
      </trkpt>
      <trkpt lat="44.094" lon="7.01011">
        <ele>1538</ele>
        <time>2022-07-26T08:19:07Z</time>
      </trkpt>
      <trkpt lat="44.09401" lon="7.01012">
        <ele>1538</ele>
        <time>2022-07-26T08:19:08Z</time>
      </trkpt>
      <trkpt lat="44.09402" lon="7.01013">
        <ele>1538</ele>
        <time>2022-07-26T08:19:09Z</time>
      </trkpt>
      <trkpt lat="44.09403" lon="7.01014">
        <ele>1538</ele>
        <time>2022-07-26T08:19:10Z</time>
      </trkpt>
      <trkpt lat="44.09403" lon="7.01015">
        <ele>1538</ele>
        <time>2022-07-26T08:19:11Z</time>
      </trkpt>
      <trkpt lat="44.09404" lon="7.01015">
        <ele>1538</ele>
        <time>2022-07-26T08:19:12Z</time>
      </trkpt>
      <trkpt lat="44.09404" lon="7.01016">
        <ele>1538</ele>
        <time>2022-07-26T08:19:13Z</time>
      </trkpt>
      <trkpt lat="44.09405" lon="7.01017">
        <ele>1538</ele>
        <time>2022-07-26T08:19:14Z</time>
      </trkpt>
      <trkpt lat="44.09405" lon="7.01018">
        <ele>1538</ele>
        <time>2022-07-26T08:19:15Z</time>
      </trkpt>
      <trkpt lat="44.09406" lon="7.01018">
        <ele>1538</ele>
        <time>2022-07-26T08:19:16Z</time>
      </trkpt>
      <trkpt lat="44.09407" lon="7.01019">
        <ele>1539</ele>
        <time>2022-07-26T08:19:17Z</time>
      </trkpt>
      <trkpt lat="44.09407" lon="7.0102">
        <ele>1539</ele>
        <time>2022-07-26T08:19:18Z</time>
      </trkpt>
      <trkpt lat="44.09408" lon="7.01021">
        <ele>1539</ele>
        <time>2022-07-26T08:19:19Z</time>
      </trkpt>
      <trkpt lat="44.09408" lon="7.01023">
        <ele>1539</ele>
        <time>2022-07-26T08:19:20Z</time>
      </trkpt>
      <trkpt lat="44.09409" lon="7.01024">
        <ele>1539</ele>
        <time>2022-07-26T08:19:21Z</time>
      </trkpt>
      <trkpt lat="44.0941" lon="7.01025">
        <ele>1539</ele>
        <time>2022-07-26T08:19:22Z</time>
      </trkpt>
      <trkpt lat="44.0941" lon="7.01026">
        <ele>1539</ele>
        <time>2022-07-26T08:19:23Z</time>
      </trkpt>
      <trkpt lat="44.09411" lon="7.01027">
        <ele>1539</ele>
        <time>2022-07-26T08:19:24Z</time>
      </trkpt>
      <trkpt lat="44.09412" lon="7.01028">
        <ele>1539</ele>
        <time>2022-07-26T08:19:25Z</time>
      </trkpt>
      <trkpt lat="44.09412" lon="7.01029">
        <ele>1539</ele>
        <time>2022-07-26T08:19:26Z</time>
      </trkpt>
      <trkpt lat="44.09413" lon="7.01031">
        <ele>1539</ele>
        <time>2022-07-26T08:19:27Z</time>
      </trkpt>
      <trkpt lat="44.09413" lon="7.01032">
        <ele>1539</ele>
        <time>2022-07-26T08:19:28Z</time>
      </trkpt>
      <trkpt lat="44.09414" lon="7.01033">
        <ele>1539</ele>
        <time>2022-07-26T08:19:29Z</time>
      </trkpt>
      <trkpt lat="44.09414" lon="7.01035">
        <ele>1539</ele>
        <time>2022-07-26T08:19:30Z</time>
      </trkpt>
      <trkpt lat="44.09414" lon="7.01037">
        <ele>1539</ele>
        <time>2022-07-26T08:19:31Z</time>
      </trkpt>
      <trkpt lat="44.09415" lon="7.01038">
        <ele>1539</ele>
        <time>2022-07-26T08:19:32Z</time>
      </trkpt>
      <trkpt lat="44.09415" lon="7.0104">
        <ele>1539</ele>
        <time>2022-07-26T08:19:33Z</time>
      </trkpt>
      <trkpt lat="44.09415" lon="7.01042">
        <ele>1539</ele>
        <time>2022-07-26T08:19:34Z</time>
      </trkpt>
      <trkpt lat="44.09416" lon="7.01044">
        <ele>1540</ele>
        <time>2022-07-26T08:19:35Z</time>
      </trkpt>
      <trkpt lat="44.09416" lon="7.01045">
        <ele>1540</ele>
        <time>2022-07-26T08:19:36Z</time>
      </trkpt>
      <trkpt lat="44.09416" lon="7.01047">
        <ele>1541</ele>
        <time>2022-07-26T08:19:37Z</time>
      </trkpt>
      <trkpt lat="44.09417" lon="7.01049">
        <ele>1541</ele>
        <time>2022-07-26T08:19:38Z</time>
      </trkpt>
      <trkpt lat="44.09417" lon="7.0105">
        <ele>1541</ele>
        <time>2022-07-26T08:19:39Z</time>
      </trkpt>
      <trkpt lat="44.09418" lon="7.01052">
        <ele>1541</ele>
        <time>2022-07-26T08:19:40Z</time>
      </trkpt>
      <trkpt lat="44.09419" lon="7.01053">
        <ele>1541</ele>
        <time>2022-07-26T08:19:41Z</time>
      </trkpt>
      <trkpt lat="44.09419" lon="7.01055">
        <ele>1541</ele>
        <time>2022-07-26T08:19:42Z</time>
      </trkpt>
      <trkpt lat="44.09419" lon="7.01056">
        <ele>1541</ele>
        <time>2022-07-26T08:19:43Z</time>
      </trkpt>
      <trkpt lat="44.0942" lon="7.01058">
        <ele>1541</ele>
        <time>2022-07-26T08:19:44Z</time>
      </trkpt>
      <trkpt lat="44.0942" lon="7.01059">
        <ele>1541</ele>
        <time>2022-07-26T08:19:45Z</time>
      </trkpt>
      <trkpt lat="44.0942" lon="7.01061">
        <ele>1541</ele>
        <time>2022-07-26T08:19:46Z</time>
      </trkpt>
      <trkpt lat="44.0942" lon="7.01062">
        <ele>1541</ele>
        <time>2022-07-26T08:19:47Z</time>
      </trkpt>
      <trkpt lat="44.0942" lon="7.01064">
        <ele>1541</ele>
        <time>2022-07-26T08:19:48Z</time>
      </trkpt>
      <trkpt lat="44.09421" lon="7.01066">
        <ele>1541</ele>
        <time>2022-07-26T08:19:49Z</time>
      </trkpt>
      <trkpt lat="44.09421" lon="7.01068">
        <ele>1541</ele>
        <time>2022-07-26T08:19:50Z</time>
      </trkpt>
      <trkpt lat="44.09422" lon="7.01069">
        <ele>1541</ele>
        <time>2022-07-26T08:19:51Z</time>
      </trkpt>
      <trkpt lat="44.09422" lon="7.01071">
        <ele>1541</ele>
        <time>2022-07-26T08:19:52Z</time>
      </trkpt>
      <trkpt lat="44.09423" lon="7.01072">
        <ele>1541</ele>
        <time>2022-07-26T08:19:53Z</time>
      </trkpt>
      <trkpt lat="44.09424" lon="7.01073">
        <ele>1541</ele>
        <time>2022-07-26T08:19:54Z</time>
      </trkpt>
      <trkpt lat="44.09425" lon="7.01074">
        <ele>1541</ele>
        <time>2022-07-26T08:19:55Z</time>
      </trkpt>
      <trkpt lat="44.09427" lon="7.01075">
        <ele>1541</ele>
        <time>2022-07-26T08:19:56Z</time>
      </trkpt>
      <trkpt lat="44.09428" lon="7.01076">
        <ele>1542</ele>
        <time>2022-07-26T08:19:57Z</time>
      </trkpt>
      <trkpt lat="44.09429" lon="7.01077">
        <ele>1542</ele>
        <time>2022-07-26T08:19:58Z</time>
      </trkpt>
      <trkpt lat="44.0943" lon="7.01078">
        <ele>1542</ele>
        <time>2022-07-26T08:19:59Z</time>
      </trkpt>
      <trkpt lat="44.09431" lon="7.01079">
        <ele>1542</ele>
        <time>2022-07-26T08:20:00Z</time>
      </trkpt>
      <trkpt lat="44.09432" lon="7.0108">
        <ele>1542</ele>
        <time>2022-07-26T08:20:01Z</time>
      </trkpt>
      <trkpt lat="44.09432" lon="7.01081">
        <ele>1542</ele>
        <time>2022-07-26T08:20:02Z</time>
      </trkpt>
      <trkpt lat="44.09433" lon="7.01082">
        <ele>1542</ele>
        <time>2022-07-26T08:20:03Z</time>
      </trkpt>
      <trkpt lat="44.09433" lon="7.01084">
        <ele>1542</ele>
        <time>2022-07-26T08:20:04Z</time>
      </trkpt>
      <trkpt lat="44.09434" lon="7.01085">
        <ele>1542</ele>
        <time>2022-07-26T08:20:05Z</time>
      </trkpt>
      <trkpt lat="44.09434" lon="7.01086">
        <ele>1542</ele>
        <time>2022-07-26T08:20:06Z</time>
      </trkpt>
      <trkpt lat="44.09434" lon="7.01087">
        <ele>1543</ele>
        <time>2022-07-26T08:20:07Z</time>
      </trkpt>
      <trkpt lat="44.09435" lon="7.01087">
        <ele>1543</ele>
        <time>2022-07-26T08:20:08Z</time>
      </trkpt>
      <trkpt lat="44.09435" lon="7.01089">
        <ele>1543</ele>
        <time>2022-07-26T08:20:09Z</time>
      </trkpt>
      <trkpt lat="44.09435" lon="7.0109">
        <ele>1543</ele>
        <time>2022-07-26T08:20:10Z</time>
      </trkpt>
      <trkpt lat="44.09434" lon="7.01091">
        <ele>1543</ele>
        <time>2022-07-26T08:20:11Z</time>
      </trkpt>
      <trkpt lat="44.09434" lon="7.01092">
        <ele>1543</ele>
        <time>2022-07-26T08:20:12Z</time>
      </trkpt>
      <trkpt lat="44.09435" lon="7.01093">
        <ele>1543</ele>
        <time>2022-07-26T08:20:13Z</time>
      </trkpt>
      <trkpt lat="44.09435" lon="7.01094">
        <ele>1543</ele>
        <time>2022-07-26T08:20:14Z</time>
      </trkpt>
      <trkpt lat="44.09435" lon="7.01095">
        <ele>1543</ele>
        <time>2022-07-26T08:20:15Z</time>
      </trkpt>
      <trkpt lat="44.09435" lon="7.01096">
        <ele>1543</ele>
        <time>2022-07-26T08:20:16Z</time>
      </trkpt>
      <trkpt lat="44.09435" lon="7.01097">
        <ele>1544</ele>
        <time>2022-07-26T08:20:17Z</time>
      </trkpt>
      <trkpt lat="44.09436" lon="7.01098">
        <ele>1544</ele>
        <time>2022-07-26T08:20:18Z</time>
      </trkpt>
      <trkpt lat="44.09436" lon="7.01099">
        <ele>1544</ele>
        <time>2022-07-26T08:20:19Z</time>
      </trkpt>
      <trkpt lat="44.09437" lon="7.011">
        <ele>1544</ele>
        <time>2022-07-26T08:20:20Z</time>
      </trkpt>
      <trkpt lat="44.09437" lon="7.01101">
        <ele>1544</ele>
        <time>2022-07-26T08:20:21Z</time>
      </trkpt>
      <trkpt lat="44.09438" lon="7.01102">
        <ele>1545</ele>
        <time>2022-07-26T08:20:22Z</time>
      </trkpt>
      <trkpt lat="44.09439" lon="7.01103">
        <ele>1545</ele>
        <time>2022-07-26T08:20:23Z</time>
      </trkpt>
      <trkpt lat="44.09439" lon="7.01104">
        <ele>1545</ele>
        <time>2022-07-26T08:20:24Z</time>
      </trkpt>
      <trkpt lat="44.0944" lon="7.01105">
        <ele>1545</ele>
        <time>2022-07-26T08:20:25Z</time>
      </trkpt>
      <trkpt lat="44.09441" lon="7.01106">
        <ele>1545</ele>
        <time>2022-07-26T08:20:26Z</time>
      </trkpt>
      <trkpt lat="44.09441" lon="7.01107">
        <ele>1545</ele>
        <time>2022-07-26T08:20:27Z</time>
      </trkpt>
      <trkpt lat="44.09442" lon="7.01108">
        <ele>1545</ele>
        <time>2022-07-26T08:20:28Z</time>
      </trkpt>
      <trkpt lat="44.09443" lon="7.01109">
        <ele>1545</ele>
        <time>2022-07-26T08:20:29Z</time>
      </trkpt>
      <trkpt lat="44.09444" lon="7.0111">
        <ele>1545</ele>
        <time>2022-07-26T08:20:30Z</time>
      </trkpt>
      <trkpt lat="44.09444" lon="7.01112">
        <ele>1545</ele>
        <time>2022-07-26T08:20:31Z</time>
      </trkpt>
      <trkpt lat="44.09445" lon="7.01113">
        <ele>1546</ele>
        <time>2022-07-26T08:20:32Z</time>
      </trkpt>
      <trkpt lat="44.09445" lon="7.01115">
        <ele>1546</ele>
        <time>2022-07-26T08:20:33Z</time>
      </trkpt>
      <trkpt lat="44.09446" lon="7.01116">
        <ele>1546</ele>
        <time>2022-07-26T08:20:34Z</time>
      </trkpt>
      <trkpt lat="44.09446" lon="7.01118">
        <ele>1546</ele>
        <time>2022-07-26T08:20:35Z</time>
      </trkpt>
      <trkpt lat="44.09447" lon="7.01119">
        <ele>1546</ele>
        <time>2022-07-26T08:20:36Z</time>
      </trkpt>
      <trkpt lat="44.09447" lon="7.0112">
        <ele>1547</ele>
        <time>2022-07-26T08:20:37Z</time>
      </trkpt>
      <trkpt lat="44.09448" lon="7.01121">
        <ele>1547</ele>
        <time>2022-07-26T08:20:38Z</time>
      </trkpt>
      <trkpt lat="44.09448" lon="7.01122">
        <ele>1547</ele>
        <time>2022-07-26T08:20:39Z</time>
      </trkpt>
      <trkpt lat="44.09448" lon="7.01123">
        <ele>1547</ele>
        <time>2022-07-26T08:20:40Z</time>
      </trkpt>
      <trkpt lat="44.09449" lon="7.01124">
        <ele>1547</ele>
        <time>2022-07-26T08:20:41Z</time>
      </trkpt>
      <trkpt lat="44.09449" lon="7.01125">
        <ele>1548</ele>
        <time>2022-07-26T08:20:42Z</time>
      </trkpt>
      <trkpt lat="44.09449" lon="7.01125">
        <ele>1548</ele>
        <time>2022-07-26T08:20:43Z</time>
      </trkpt>
      <trkpt lat="44.09449" lon="7.01126">
        <ele>1548</ele>
        <time>2022-07-26T08:20:44Z</time>
      </trkpt>
      <trkpt lat="44.09449" lon="7.01126">
        <ele>1548</ele>
        <time>2022-07-26T08:20:45Z</time>
      </trkpt>
      <trkpt lat="44.0945" lon="7.01127">
        <ele>1548</ele>
        <time>2022-07-26T08:20:46Z</time>
      </trkpt>
      <trkpt lat="44.0945" lon="7.01128">
        <ele>1549</ele>
        <time>2022-07-26T08:20:47Z</time>
      </trkpt>
      <trkpt lat="44.09451" lon="7.01129">
        <ele>1549</ele>
        <time>2022-07-26T08:20:48Z</time>
      </trkpt>
      <trkpt lat="44.09451" lon="7.0113">
        <ele>1549</ele>
        <time>2022-07-26T08:20:49Z</time>
      </trkpt>
      <trkpt lat="44.09452" lon="7.01132">
        <ele>1549</ele>
        <time>2022-07-26T08:20:50Z</time>
      </trkpt>
      <trkpt lat="44.09453" lon="7.01133">
        <ele>1549</ele>
        <time>2022-07-26T08:20:51Z</time>
      </trkpt>
      <trkpt lat="44.09453" lon="7.01135">
        <ele>1549</ele>
        <time>2022-07-26T08:20:52Z</time>
      </trkpt>
      <trkpt lat="44.09454" lon="7.01137">
        <ele>1549</ele>
        <time>2022-07-26T08:20:53Z</time>
      </trkpt>
      <trkpt lat="44.09455" lon="7.01138">
        <ele>1549</ele>
        <time>2022-07-26T08:20:54Z</time>
      </trkpt>
      <trkpt lat="44.09456" lon="7.0114">
        <ele>1549</ele>
        <time>2022-07-26T08:20:55Z</time>
      </trkpt>
      <trkpt lat="44.09456" lon="7.01141">
        <ele>1549</ele>
        <time>2022-07-26T08:20:56Z</time>
      </trkpt>
      <trkpt lat="44.09456" lon="7.01143">
        <ele>1550</ele>
        <time>2022-07-26T08:20:57Z</time>
      </trkpt>
      <trkpt lat="44.09457" lon="7.01144">
        <ele>1550</ele>
        <time>2022-07-26T08:20:58Z</time>
      </trkpt>
      <trkpt lat="44.09457" lon="7.01145">
        <ele>1550</ele>
        <time>2022-07-26T08:20:59Z</time>
      </trkpt>
      <trkpt lat="44.09458" lon="7.01147">
        <ele>1550</ele>
        <time>2022-07-26T08:21:00Z</time>
      </trkpt>
      <trkpt lat="44.09458" lon="7.01148">
        <ele>1550</ele>
        <time>2022-07-26T08:21:01Z</time>
      </trkpt>
      <trkpt lat="44.09459" lon="7.01149">
        <ele>1551</ele>
        <time>2022-07-26T08:21:02Z</time>
      </trkpt>
      <trkpt lat="44.0946" lon="7.0115">
        <ele>1551</ele>
        <time>2022-07-26T08:21:03Z</time>
      </trkpt>
      <trkpt lat="44.09461" lon="7.01151">
        <ele>1551</ele>
        <time>2022-07-26T08:21:04Z</time>
      </trkpt>
      <trkpt lat="44.09462" lon="7.01152">
        <ele>1551</ele>
        <time>2022-07-26T08:21:05Z</time>
      </trkpt>
      <trkpt lat="44.09463" lon="7.01153">
        <ele>1551</ele>
        <time>2022-07-26T08:21:06Z</time>
      </trkpt>
      <trkpt lat="44.09463" lon="7.01155">
        <ele>1551</ele>
        <time>2022-07-26T08:21:07Z</time>
      </trkpt>
      <trkpt lat="44.09464" lon="7.01156">
        <ele>1551</ele>
        <time>2022-07-26T08:21:08Z</time>
      </trkpt>
      <trkpt lat="44.09465" lon="7.01157">
        <ele>1551</ele>
        <time>2022-07-26T08:21:09Z</time>
      </trkpt>
      <trkpt lat="44.09465" lon="7.01159">
        <ele>1551</ele>
        <time>2022-07-26T08:21:10Z</time>
      </trkpt>
      <trkpt lat="44.09466" lon="7.0116">
        <ele>1551</ele>
        <time>2022-07-26T08:21:11Z</time>
      </trkpt>
      <trkpt lat="44.09466" lon="7.01161">
        <ele>1552</ele>
        <time>2022-07-26T08:21:12Z</time>
      </trkpt>
      <trkpt lat="44.09466" lon="7.01162">
        <ele>1552</ele>
        <time>2022-07-26T08:21:13Z</time>
      </trkpt>
      <trkpt lat="44.09467" lon="7.01163">
        <ele>1552</ele>
        <time>2022-07-26T08:21:14Z</time>
      </trkpt>
      <trkpt lat="44.09467" lon="7.01165">
        <ele>1552</ele>
        <time>2022-07-26T08:21:15Z</time>
      </trkpt>
      <trkpt lat="44.09468" lon="7.01166">
        <ele>1552</ele>
        <time>2022-07-26T08:21:16Z</time>
      </trkpt>
      <trkpt lat="44.09468" lon="7.01167">
        <ele>1553</ele>
        <time>2022-07-26T08:21:17Z</time>
      </trkpt>
      <trkpt lat="44.09468" lon="7.01169">
        <ele>1553</ele>
        <time>2022-07-26T08:21:18Z</time>
      </trkpt>
      <trkpt lat="44.09468" lon="7.0117">
        <ele>1553</ele>
        <time>2022-07-26T08:21:19Z</time>
      </trkpt>
      <trkpt lat="44.09469" lon="7.01171">
        <ele>1553</ele>
        <time>2022-07-26T08:21:20Z</time>
      </trkpt>
      <trkpt lat="44.09469" lon="7.01173">
        <ele>1553</ele>
        <time>2022-07-26T08:21:21Z</time>
      </trkpt>
      <trkpt lat="44.09469" lon="7.01174">
        <ele>1553</ele>
        <time>2022-07-26T08:21:22Z</time>
      </trkpt>
      <trkpt lat="44.09469" lon="7.01175">
        <ele>1553</ele>
        <time>2022-07-26T08:21:23Z</time>
      </trkpt>
      <trkpt lat="44.09469" lon="7.01177">
        <ele>1553</ele>
        <time>2022-07-26T08:21:24Z</time>
      </trkpt>
      <trkpt lat="44.0947" lon="7.01178">
        <ele>1553</ele>
        <time>2022-07-26T08:21:25Z</time>
      </trkpt>
      <trkpt lat="44.0947" lon="7.01179">
        <ele>1553</ele>
        <time>2022-07-26T08:21:26Z</time>
      </trkpt>
      <trkpt lat="44.09471" lon="7.0118">
        <ele>1554</ele>
        <time>2022-07-26T08:21:27Z</time>
      </trkpt>
      <trkpt lat="44.09472" lon="7.01181">
        <ele>1554</ele>
        <time>2022-07-26T08:21:28Z</time>
      </trkpt>
      <trkpt lat="44.09472" lon="7.01182">
        <ele>1554</ele>
        <time>2022-07-26T08:21:29Z</time>
      </trkpt>
      <trkpt lat="44.09473" lon="7.01182">
        <ele>1554</ele>
        <time>2022-07-26T08:21:30Z</time>
      </trkpt>
      <trkpt lat="44.09474" lon="7.01182">
        <ele>1554</ele>
        <time>2022-07-26T08:21:31Z</time>
      </trkpt>
      <trkpt lat="44.09475" lon="7.01182">
        <ele>1554</ele>
        <time>2022-07-26T08:21:32Z</time>
      </trkpt>
      <trkpt lat="44.09476" lon="7.01183">
        <ele>1554</ele>
        <time>2022-07-26T08:21:33Z</time>
      </trkpt>
      <trkpt lat="44.09476" lon="7.01183">
        <ele>1554</ele>
        <time>2022-07-26T08:21:34Z</time>
      </trkpt>
      <trkpt lat="44.09477" lon="7.01184">
        <ele>1554</ele>
        <time>2022-07-26T08:21:35Z</time>
      </trkpt>
      <trkpt lat="44.09478" lon="7.01184">
        <ele>1554</ele>
        <time>2022-07-26T08:21:36Z</time>
      </trkpt>
      <trkpt lat="44.09478" lon="7.01185">
        <ele>1555</ele>
        <time>2022-07-26T08:21:37Z</time>
      </trkpt>
      <trkpt lat="44.09479" lon="7.01186">
        <ele>1555</ele>
        <time>2022-07-26T08:21:38Z</time>
      </trkpt>
      <trkpt lat="44.0948" lon="7.01187">
        <ele>1555</ele>
        <time>2022-07-26T08:21:39Z</time>
      </trkpt>
      <trkpt lat="44.09481" lon="7.01189">
        <ele>1555</ele>
        <time>2022-07-26T08:21:40Z</time>
      </trkpt>
      <trkpt lat="44.09482" lon="7.0119">
        <ele>1555</ele>
        <time>2022-07-26T08:21:41Z</time>
      </trkpt>
      <trkpt lat="44.09483" lon="7.01192">
        <ele>1555</ele>
        <time>2022-07-26T08:21:42Z</time>
      </trkpt>
      <trkpt lat="44.09484" lon="7.01193">
        <ele>1555</ele>
        <time>2022-07-26T08:21:43Z</time>
      </trkpt>
      <trkpt lat="44.09485" lon="7.01194">
        <ele>1555</ele>
        <time>2022-07-26T08:21:44Z</time>
      </trkpt>
      <trkpt lat="44.09486" lon="7.01195">
        <ele>1555</ele>
        <time>2022-07-26T08:21:45Z</time>
      </trkpt>
      <trkpt lat="44.09486" lon="7.01197">
        <ele>1555</ele>
        <time>2022-07-26T08:21:46Z</time>
      </trkpt>
      <trkpt lat="44.09487" lon="7.01198">
        <ele>1556</ele>
        <time>2022-07-26T08:21:47Z</time>
      </trkpt>
      <trkpt lat="44.09488" lon="7.01199">
        <ele>1556</ele>
        <time>2022-07-26T08:21:48Z</time>
      </trkpt>
      <trkpt lat="44.09488" lon="7.012">
        <ele>1556</ele>
        <time>2022-07-26T08:21:49Z</time>
      </trkpt>
      <trkpt lat="44.09489" lon="7.01201">
        <ele>1556</ele>
        <time>2022-07-26T08:21:50Z</time>
      </trkpt>
      <trkpt lat="44.0949" lon="7.01202">
        <ele>1556</ele>
        <time>2022-07-26T08:21:51Z</time>
      </trkpt>
      <trkpt lat="44.0949" lon="7.01203">
        <ele>1556</ele>
        <time>2022-07-26T08:21:52Z</time>
      </trkpt>
      <trkpt lat="44.09491" lon="7.01204">
        <ele>1556</ele>
        <time>2022-07-26T08:21:53Z</time>
      </trkpt>
      <trkpt lat="44.09492" lon="7.01205">
        <ele>1556</ele>
        <time>2022-07-26T08:21:54Z</time>
      </trkpt>
      <trkpt lat="44.09493" lon="7.01206">
        <ele>1556</ele>
        <time>2022-07-26T08:21:55Z</time>
      </trkpt>
      <trkpt lat="44.09494" lon="7.01207">
        <ele>1556</ele>
        <time>2022-07-26T08:21:56Z</time>
      </trkpt>
      <trkpt lat="44.09495" lon="7.01208">
        <ele>1556</ele>
        <time>2022-07-26T08:21:57Z</time>
      </trkpt>
      <trkpt lat="44.09497" lon="7.0121">
        <ele>1556</ele>
        <time>2022-07-26T08:21:58Z</time>
      </trkpt>
      <trkpt lat="44.09498" lon="7.01211">
        <ele>1556</ele>
        <time>2022-07-26T08:21:59Z</time>
      </trkpt>
      <trkpt lat="44.09499" lon="7.01212">
        <ele>1557</ele>
        <time>2022-07-26T08:22:00Z</time>
      </trkpt>
      <trkpt lat="44.09499" lon="7.01213">
        <ele>1557</ele>
        <time>2022-07-26T08:22:01Z</time>
      </trkpt>
      <trkpt lat="44.095" lon="7.01214">
        <ele>1558</ele>
        <time>2022-07-26T08:22:02Z</time>
      </trkpt>
      <trkpt lat="44.09501" lon="7.01215">
        <ele>1558</ele>
        <time>2022-07-26T08:22:03Z</time>
      </trkpt>
      <trkpt lat="44.09502" lon="7.01216">
        <ele>1558</ele>
        <time>2022-07-26T08:22:04Z</time>
      </trkpt>
      <trkpt lat="44.09502" lon="7.01218">
        <ele>1558</ele>
        <time>2022-07-26T08:22:05Z</time>
      </trkpt>
      <trkpt lat="44.09503" lon="7.01219">
        <ele>1558</ele>
        <time>2022-07-26T08:22:06Z</time>
      </trkpt>
      <trkpt lat="44.09504" lon="7.01221">
        <ele>1559</ele>
        <time>2022-07-26T08:22:07Z</time>
      </trkpt>
      <trkpt lat="44.09504" lon="7.01222">
        <ele>1559</ele>
        <time>2022-07-26T08:22:08Z</time>
      </trkpt>
      <trkpt lat="44.09505" lon="7.01223">
        <ele>1559</ele>
        <time>2022-07-26T08:22:09Z</time>
      </trkpt>
      <trkpt lat="44.09505" lon="7.01225">
        <ele>1559</ele>
        <time>2022-07-26T08:22:10Z</time>
      </trkpt>
      <trkpt lat="44.09506" lon="7.01226">
        <ele>1559</ele>
        <time>2022-07-26T08:22:11Z</time>
      </trkpt>
      <trkpt lat="44.09507" lon="7.01227">
        <ele>1559</ele>
        <time>2022-07-26T08:22:12Z</time>
      </trkpt>
      <trkpt lat="44.09507" lon="7.01228">
        <ele>1559</ele>
        <time>2022-07-26T08:22:13Z</time>
      </trkpt>
      <trkpt lat="44.09508" lon="7.01229">
        <ele>1559</ele>
        <time>2022-07-26T08:22:14Z</time>
      </trkpt>
      <trkpt lat="44.09509" lon="7.0123">
        <ele>1559</ele>
        <time>2022-07-26T08:22:15Z</time>
      </trkpt>
      <trkpt lat="44.09509" lon="7.01231">
        <ele>1559</ele>
        <time>2022-07-26T08:22:16Z</time>
      </trkpt>
      <trkpt lat="44.0951" lon="7.01232">
        <ele>1560</ele>
        <time>2022-07-26T08:22:17Z</time>
      </trkpt>
      <trkpt lat="44.09511" lon="7.01233">
        <ele>1560</ele>
        <time>2022-07-26T08:22:18Z</time>
      </trkpt>
      <trkpt lat="44.09511" lon="7.01234">
        <ele>1560</ele>
        <time>2022-07-26T08:22:19Z</time>
      </trkpt>
      <trkpt lat="44.09512" lon="7.01235">
        <ele>1560</ele>
        <time>2022-07-26T08:22:20Z</time>
      </trkpt>
      <trkpt lat="44.09513" lon="7.01236">
        <ele>1560</ele>
        <time>2022-07-26T08:22:21Z</time>
      </trkpt>
      <trkpt lat="44.09514" lon="7.01237">
        <ele>1560</ele>
        <time>2022-07-26T08:22:22Z</time>
      </trkpt>
      <trkpt lat="44.09515" lon="7.01238">
        <ele>1560</ele>
        <time>2022-07-26T08:22:23Z</time>
      </trkpt>
      <trkpt lat="44.09515" lon="7.01239">
        <ele>1560</ele>
        <time>2022-07-26T08:22:24Z</time>
      </trkpt>
      <trkpt lat="44.09516" lon="7.0124">
        <ele>1560</ele>
        <time>2022-07-26T08:22:25Z</time>
      </trkpt>
      <trkpt lat="44.09517" lon="7.01242">
        <ele>1560</ele>
        <time>2022-07-26T08:22:26Z</time>
      </trkpt>
      <trkpt lat="44.09518" lon="7.01243">
        <ele>1561</ele>
        <time>2022-07-26T08:22:27Z</time>
      </trkpt>
      <trkpt lat="44.09519" lon="7.01244">
        <ele>1561</ele>
        <time>2022-07-26T08:22:28Z</time>
      </trkpt>
      <trkpt lat="44.09519" lon="7.01244">
        <ele>1561</ele>
        <time>2022-07-26T08:22:29Z</time>
      </trkpt>
      <trkpt lat="44.0952" lon="7.01245">
        <ele>1561</ele>
        <time>2022-07-26T08:22:30Z</time>
      </trkpt>
      <trkpt lat="44.09521" lon="7.01246">
        <ele>1561</ele>
        <time>2022-07-26T08:22:31Z</time>
      </trkpt>
      <trkpt lat="44.09522" lon="7.01247">
        <ele>1562</ele>
        <time>2022-07-26T08:22:32Z</time>
      </trkpt>
      <trkpt lat="44.09522" lon="7.01248">
        <ele>1562</ele>
        <time>2022-07-26T08:22:33Z</time>
      </trkpt>
      <trkpt lat="44.09523" lon="7.01248">
        <ele>1562</ele>
        <time>2022-07-26T08:22:34Z</time>
      </trkpt>
      <trkpt lat="44.09524" lon="7.01249">
        <ele>1562</ele>
        <time>2022-07-26T08:22:35Z</time>
      </trkpt>
      <trkpt lat="44.09524" lon="7.0125">
        <ele>1562</ele>
        <time>2022-07-26T08:22:36Z</time>
      </trkpt>
      <trkpt lat="44.09525" lon="7.01251">
        <ele>1562</ele>
        <time>2022-07-26T08:22:37Z</time>
      </trkpt>
      <trkpt lat="44.09526" lon="7.01251">
        <ele>1562</ele>
        <time>2022-07-26T08:22:38Z</time>
      </trkpt>
      <trkpt lat="44.09526" lon="7.01252">
        <ele>1562</ele>
        <time>2022-07-26T08:22:39Z</time>
      </trkpt>
      <trkpt lat="44.09526" lon="7.01253">
        <ele>1562</ele>
        <time>2022-07-26T08:22:40Z</time>
      </trkpt>
      <trkpt lat="44.09527" lon="7.01254">
        <ele>1562</ele>
        <time>2022-07-26T08:22:41Z</time>
      </trkpt>
      <trkpt lat="44.09527" lon="7.01255">
        <ele>1563</ele>
        <time>2022-07-26T08:22:42Z</time>
      </trkpt>
      <trkpt lat="44.09528" lon="7.01256">
        <ele>1563</ele>
        <time>2022-07-26T08:22:43Z</time>
      </trkpt>
      <trkpt lat="44.09528" lon="7.01257">
        <ele>1563</ele>
        <time>2022-07-26T08:22:44Z</time>
      </trkpt>
      <trkpt lat="44.09529" lon="7.01258">
        <ele>1563</ele>
        <time>2022-07-26T08:22:45Z</time>
      </trkpt>
      <trkpt lat="44.0953" lon="7.01259">
        <ele>1563</ele>
        <time>2022-07-26T08:22:46Z</time>
      </trkpt>
      <trkpt lat="44.09531" lon="7.0126">
        <ele>1563</ele>
        <time>2022-07-26T08:22:47Z</time>
      </trkpt>
      <trkpt lat="44.09532" lon="7.01261">
        <ele>1563</ele>
        <time>2022-07-26T08:22:48Z</time>
      </trkpt>
      <trkpt lat="44.09533" lon="7.01262">
        <ele>1563</ele>
        <time>2022-07-26T08:22:49Z</time>
      </trkpt>
      <trkpt lat="44.09533" lon="7.01263">
        <ele>1563</ele>
        <time>2022-07-26T08:22:50Z</time>
      </trkpt>
      <trkpt lat="44.09534" lon="7.01264">
        <ele>1563</ele>
        <time>2022-07-26T08:22:51Z</time>
      </trkpt>
      <trkpt lat="44.09535" lon="7.01265">
        <ele>1564</ele>
        <time>2022-07-26T08:22:52Z</time>
      </trkpt>
      <trkpt lat="44.09535" lon="7.01266">
        <ele>1564</ele>
        <time>2022-07-26T08:22:53Z</time>
      </trkpt>
      <trkpt lat="44.09536" lon="7.01267">
        <ele>1564</ele>
        <time>2022-07-26T08:22:54Z</time>
      </trkpt>
      <trkpt lat="44.09537" lon="7.01268">
        <ele>1564</ele>
        <time>2022-07-26T08:22:55Z</time>
      </trkpt>
      <trkpt lat="44.09537" lon="7.01269">
        <ele>1564</ele>
        <time>2022-07-26T08:22:56Z</time>
      </trkpt>
      <trkpt lat="44.09538" lon="7.0127">
        <ele>1564</ele>
        <time>2022-07-26T08:22:57Z</time>
      </trkpt>
      <trkpt lat="44.09539" lon="7.01271">
        <ele>1564</ele>
        <time>2022-07-26T08:22:58Z</time>
      </trkpt>
      <trkpt lat="44.09539" lon="7.01272">
        <ele>1564</ele>
        <time>2022-07-26T08:22:59Z</time>
      </trkpt>
      <trkpt lat="44.0954" lon="7.01272">
        <ele>1564</ele>
        <time>2022-07-26T08:23:00Z</time>
      </trkpt>
      <trkpt lat="44.0954" lon="7.01274">
        <ele>1564</ele>
        <time>2022-07-26T08:23:01Z</time>
      </trkpt>
      <trkpt lat="44.09541" lon="7.01275">
        <ele>1565</ele>
        <time>2022-07-26T08:23:02Z</time>
      </trkpt>
      <trkpt lat="44.09541" lon="7.01276">
        <ele>1565</ele>
        <time>2022-07-26T08:23:03Z</time>
      </trkpt>
      <trkpt lat="44.09542" lon="7.01278">
        <ele>1565</ele>
        <time>2022-07-26T08:23:04Z</time>
      </trkpt>
      <trkpt lat="44.09542" lon="7.01279">
        <ele>1565</ele>
        <time>2022-07-26T08:23:05Z</time>
      </trkpt>
      <trkpt lat="44.09543" lon="7.0128">
        <ele>1565</ele>
        <time>2022-07-26T08:23:06Z</time>
      </trkpt>
      <trkpt lat="44.09544" lon="7.01281">
        <ele>1565</ele>
        <time>2022-07-26T08:23:07Z</time>
      </trkpt>
      <trkpt lat="44.09544" lon="7.01282">
        <ele>1565</ele>
        <time>2022-07-26T08:23:08Z</time>
      </trkpt>
      <trkpt lat="44.09545" lon="7.01283">
        <ele>1565</ele>
        <time>2022-07-26T08:23:09Z</time>
      </trkpt>
      <trkpt lat="44.09546" lon="7.01284">
        <ele>1565</ele>
        <time>2022-07-26T08:23:10Z</time>
      </trkpt>
      <trkpt lat="44.09547" lon="7.01285">
        <ele>1565</ele>
        <time>2022-07-26T08:23:11Z</time>
      </trkpt>
      <trkpt lat="44.09547" lon="7.01286">
        <ele>1565</ele>
        <time>2022-07-26T08:23:12Z</time>
      </trkpt>
      <trkpt lat="44.09548" lon="7.01287">
        <ele>1565</ele>
        <time>2022-07-26T08:23:13Z</time>
      </trkpt>
      <trkpt lat="44.09548" lon="7.01288">
        <ele>1565</ele>
        <time>2022-07-26T08:23:14Z</time>
      </trkpt>
      <trkpt lat="44.09549" lon="7.01289">
        <ele>1565</ele>
        <time>2022-07-26T08:23:15Z</time>
      </trkpt>
      <trkpt lat="44.0955" lon="7.01291">
        <ele>1565</ele>
        <time>2022-07-26T08:23:16Z</time>
      </trkpt>
      <trkpt lat="44.0955" lon="7.01292">
        <ele>1566</ele>
        <time>2022-07-26T08:23:17Z</time>
      </trkpt>
      <trkpt lat="44.09551" lon="7.01293">
        <ele>1566</ele>
        <time>2022-07-26T08:23:18Z</time>
      </trkpt>
      <trkpt lat="44.09552" lon="7.01294">
        <ele>1566</ele>
        <time>2022-07-26T08:23:19Z</time>
      </trkpt>
      <trkpt lat="44.09552" lon="7.01295">
        <ele>1566</ele>
        <time>2022-07-26T08:23:20Z</time>
      </trkpt>
      <trkpt lat="44.09553" lon="7.01295">
        <ele>1566</ele>
        <time>2022-07-26T08:23:21Z</time>
      </trkpt>
      <trkpt lat="44.09553" lon="7.01296">
        <ele>1566</ele>
        <time>2022-07-26T08:23:22Z</time>
      </trkpt>
      <trkpt lat="44.09553" lon="7.01297">
        <ele>1566</ele>
        <time>2022-07-26T08:23:23Z</time>
      </trkpt>
      <trkpt lat="44.09554" lon="7.01298">
        <ele>1566</ele>
        <time>2022-07-26T08:23:24Z</time>
      </trkpt>
      <trkpt lat="44.09554" lon="7.01299">
        <ele>1566</ele>
        <time>2022-07-26T08:23:25Z</time>
      </trkpt>
      <trkpt lat="44.09554" lon="7.013">
        <ele>1566</ele>
        <time>2022-07-26T08:23:26Z</time>
      </trkpt>
      <trkpt lat="44.09554" lon="7.01303">
        <ele>1568</ele>
        <time>2022-07-26T08:23:33Z</time>
      </trkpt>
      <trkpt lat="44.09554" lon="7.01304">
        <ele>1568</ele>
        <time>2022-07-26T08:23:34Z</time>
      </trkpt>
      <trkpt lat="44.09554" lon="7.01305">
        <ele>1568</ele>
        <time>2022-07-26T08:23:35Z</time>
      </trkpt>
      <trkpt lat="44.09554" lon="7.01306">
        <ele>1568</ele>
        <time>2022-07-26T08:23:36Z</time>
      </trkpt>
      <trkpt lat="44.09554" lon="7.01307">
        <ele>1568</ele>
        <time>2022-07-26T08:23:37Z</time>
      </trkpt>
      <trkpt lat="44.09555" lon="7.01308">
        <ele>1568</ele>
        <time>2022-07-26T08:23:38Z</time>
      </trkpt>
      <trkpt lat="44.09555" lon="7.01309">
        <ele>1568</ele>
        <time>2022-07-26T08:23:39Z</time>
      </trkpt>
      <trkpt lat="44.09556" lon="7.01309">
        <ele>1568</ele>
        <time>2022-07-26T08:23:40Z</time>
      </trkpt>
      <trkpt lat="44.09556" lon="7.0131">
        <ele>1568</ele>
        <time>2022-07-26T08:23:41Z</time>
      </trkpt>
      <trkpt lat="44.09557" lon="7.01311">
        <ele>1569</ele>
        <time>2022-07-26T08:23:42Z</time>
      </trkpt>
      <trkpt lat="44.09557" lon="7.01311">
        <ele>1569</ele>
        <time>2022-07-26T08:23:43Z</time>
      </trkpt>
      <trkpt lat="44.09558" lon="7.01312">
        <ele>1569</ele>
        <time>2022-07-26T08:23:44Z</time>
      </trkpt>
      <trkpt lat="44.09558" lon="7.01313">
        <ele>1569</ele>
        <time>2022-07-26T08:23:45Z</time>
      </trkpt>
      <trkpt lat="44.09558" lon="7.01314">
        <ele>1569</ele>
        <time>2022-07-26T08:23:46Z</time>
      </trkpt>
      <trkpt lat="44.09558" lon="7.01315">
        <ele>1570</ele>
        <time>2022-07-26T08:23:47Z</time>
      </trkpt>
      <trkpt lat="44.09558" lon="7.01317">
        <ele>1570</ele>
        <time>2022-07-26T08:23:48Z</time>
      </trkpt>
      <trkpt lat="44.09559" lon="7.01318">
        <ele>1570</ele>
        <time>2022-07-26T08:23:49Z</time>
      </trkpt>
      <trkpt lat="44.09559" lon="7.01319">
        <ele>1570</ele>
        <time>2022-07-26T08:23:50Z</time>
      </trkpt>
      <trkpt lat="44.09559" lon="7.01319">
        <ele>1570</ele>
        <time>2022-07-26T08:23:51Z</time>
      </trkpt>
      <trkpt lat="44.09559" lon="7.0132">
        <ele>1571</ele>
        <time>2022-07-26T08:23:52Z</time>
      </trkpt>
      <trkpt lat="44.09559" lon="7.01322">
        <ele>1571</ele>
        <time>2022-07-26T08:23:53Z</time>
      </trkpt>
      <trkpt lat="44.0956" lon="7.01323">
        <ele>1571</ele>
        <time>2022-07-26T08:23:54Z</time>
      </trkpt>
      <trkpt lat="44.0956" lon="7.01324">
        <ele>1571</ele>
        <time>2022-07-26T08:23:55Z</time>
      </trkpt>
      <trkpt lat="44.09561" lon="7.01325">
        <ele>1571</ele>
        <time>2022-07-26T08:23:56Z</time>
      </trkpt>
      <trkpt lat="44.09561" lon="7.01326">
        <ele>1572</ele>
        <time>2022-07-26T08:23:57Z</time>
      </trkpt>
      <trkpt lat="44.09562" lon="7.01327">
        <ele>1572</ele>
        <time>2022-07-26T08:23:58Z</time>
      </trkpt>
      <trkpt lat="44.09562" lon="7.01328">
        <ele>1572</ele>
        <time>2022-07-26T08:23:59Z</time>
      </trkpt>
      <trkpt lat="44.09562" lon="7.01329">
        <ele>1572</ele>
        <time>2022-07-26T08:24:00Z</time>
      </trkpt>
      <trkpt lat="44.09562" lon="7.0133">
        <ele>1572</ele>
        <time>2022-07-26T08:24:01Z</time>
      </trkpt>
      <trkpt lat="44.09562" lon="7.0133">
        <ele>1573</ele>
        <time>2022-07-26T08:24:02Z</time>
      </trkpt>
      <trkpt lat="44.09563" lon="7.01332">
        <ele>1573</ele>
        <time>2022-07-26T08:24:03Z</time>
      </trkpt>
      <trkpt lat="44.09563" lon="7.01333">
        <ele>1573</ele>
        <time>2022-07-26T08:24:04Z</time>
      </trkpt>
      <trkpt lat="44.09564" lon="7.01334">
        <ele>1574</ele>
        <time>2022-07-26T08:24:05Z</time>
      </trkpt>
      <trkpt lat="44.09565" lon="7.01335">
        <ele>1574</ele>
        <time>2022-07-26T08:24:06Z</time>
      </trkpt>
      <trkpt lat="44.09566" lon="7.01336">
        <ele>1575</ele>
        <time>2022-07-26T08:24:07Z</time>
      </trkpt>
      <trkpt lat="44.09566" lon="7.01338">
        <ele>1575</ele>
        <time>2022-07-26T08:24:08Z</time>
      </trkpt>
      <trkpt lat="44.09567" lon="7.0134">
        <ele>1575</ele>
        <time>2022-07-26T08:24:09Z</time>
      </trkpt>
      <trkpt lat="44.09568" lon="7.01342">
        <ele>1575</ele>
        <time>2022-07-26T08:24:10Z</time>
      </trkpt>
      <trkpt lat="44.09568" lon="7.01343">
        <ele>1575</ele>
        <time>2022-07-26T08:24:11Z</time>
      </trkpt>
      <trkpt lat="44.09568" lon="7.01345">
        <ele>1576</ele>
        <time>2022-07-26T08:24:12Z</time>
      </trkpt>
      <trkpt lat="44.09569" lon="7.01347">
        <ele>1576</ele>
        <time>2022-07-26T08:24:13Z</time>
      </trkpt>
      <trkpt lat="44.0957" lon="7.01349">
        <ele>1576</ele>
        <time>2022-07-26T08:24:14Z</time>
      </trkpt>
      <trkpt lat="44.0957" lon="7.0135">
        <ele>1576</ele>
        <time>2022-07-26T08:24:15Z</time>
      </trkpt>
      <trkpt lat="44.09571" lon="7.01352">
        <ele>1576</ele>
        <time>2022-07-26T08:24:16Z</time>
      </trkpt>
      <trkpt lat="44.09571" lon="7.01353">
        <ele>1576</ele>
        <time>2022-07-26T08:24:17Z</time>
      </trkpt>
      <trkpt lat="44.09572" lon="7.01355">
        <ele>1576</ele>
        <time>2022-07-26T08:24:18Z</time>
      </trkpt>
      <trkpt lat="44.09572" lon="7.01356">
        <ele>1576</ele>
        <time>2022-07-26T08:24:19Z</time>
      </trkpt>
      <trkpt lat="44.09572" lon="7.01357">
        <ele>1576</ele>
        <time>2022-07-26T08:24:20Z</time>
      </trkpt>
      <trkpt lat="44.09572" lon="7.01359">
        <ele>1576</ele>
        <time>2022-07-26T08:24:21Z</time>
      </trkpt>
      <trkpt lat="44.09572" lon="7.0136">
        <ele>1577</ele>
        <time>2022-07-26T08:24:22Z</time>
      </trkpt>
      <trkpt lat="44.09572" lon="7.01361">
        <ele>1577</ele>
        <time>2022-07-26T08:24:23Z</time>
      </trkpt>
      <trkpt lat="44.09573" lon="7.01362">
        <ele>1577</ele>
        <time>2022-07-26T08:24:24Z</time>
      </trkpt>
      <trkpt lat="44.09573" lon="7.01363">
        <ele>1577</ele>
        <time>2022-07-26T08:24:25Z</time>
      </trkpt>
      <trkpt lat="44.09573" lon="7.01364">
        <ele>1577</ele>
        <time>2022-07-26T08:24:26Z</time>
      </trkpt>
      <trkpt lat="44.09573" lon="7.01366">
        <ele>1578</ele>
        <time>2022-07-26T08:24:27Z</time>
      </trkpt>
      <trkpt lat="44.09573" lon="7.01367">
        <ele>1578</ele>
        <time>2022-07-26T08:24:28Z</time>
      </trkpt>
      <trkpt lat="44.09574" lon="7.01368">
        <ele>1578</ele>
        <time>2022-07-26T08:24:29Z</time>
      </trkpt>
      <trkpt lat="44.09574" lon="7.01369">
        <ele>1578</ele>
        <time>2022-07-26T08:24:30Z</time>
      </trkpt>
      <trkpt lat="44.09574" lon="7.0137">
        <ele>1578</ele>
        <time>2022-07-26T08:24:31Z</time>
      </trkpt>
      <trkpt lat="44.09575" lon="7.0137">
        <ele>1578</ele>
        <time>2022-07-26T08:24:32Z</time>
      </trkpt>
      <trkpt lat="44.09575" lon="7.01371">
        <ele>1578</ele>
        <time>2022-07-26T08:24:33Z</time>
      </trkpt>
      <trkpt lat="44.09575" lon="7.01372">
        <ele>1578</ele>
        <time>2022-07-26T08:24:34Z</time>
      </trkpt>
      <trkpt lat="44.09575" lon="7.01372">
        <ele>1578</ele>
        <time>2022-07-26T08:24:35Z</time>
      </trkpt>
      <trkpt lat="44.09575" lon="7.01373">
        <ele>1578</ele>
        <time>2022-07-26T08:24:36Z</time>
      </trkpt>
      <trkpt lat="44.09575" lon="7.01374">
        <ele>1579</ele>
        <time>2022-07-26T08:24:37Z</time>
      </trkpt>
      <trkpt lat="44.09575" lon="7.01375">
        <ele>1579</ele>
        <time>2022-07-26T08:24:38Z</time>
      </trkpt>
      <trkpt lat="44.09575" lon="7.01376">
        <ele>1579</ele>
        <time>2022-07-26T08:24:39Z</time>
      </trkpt>
      <trkpt lat="44.09576" lon="7.01377">
        <ele>1579</ele>
        <time>2022-07-26T08:24:40Z</time>
      </trkpt>
      <trkpt lat="44.09576" lon="7.01378">
        <ele>1579</ele>
        <time>2022-07-26T08:24:41Z</time>
      </trkpt>
      <trkpt lat="44.09576" lon="7.0138">
        <ele>1580</ele>
        <time>2022-07-26T08:24:42Z</time>
      </trkpt>
      <trkpt lat="44.09576" lon="7.01381">
        <ele>1580</ele>
        <time>2022-07-26T08:24:43Z</time>
      </trkpt>
      <trkpt lat="44.09577" lon="7.01383">
        <ele>1580</ele>
        <time>2022-07-26T08:24:44Z</time>
      </trkpt>
      <trkpt lat="44.09577" lon="7.01384">
        <ele>1580</ele>
        <time>2022-07-26T08:24:45Z</time>
      </trkpt>
      <trkpt lat="44.09577" lon="7.01385">
        <ele>1580</ele>
        <time>2022-07-26T08:24:46Z</time>
      </trkpt>
      <trkpt lat="44.09577" lon="7.01386">
        <ele>1581</ele>
        <time>2022-07-26T08:24:47Z</time>
      </trkpt>
      <trkpt lat="44.09577" lon="7.01387">
        <ele>1581</ele>
        <time>2022-07-26T08:24:48Z</time>
      </trkpt>
      <trkpt lat="44.09577" lon="7.01388">
        <ele>1581</ele>
        <time>2022-07-26T08:24:49Z</time>
      </trkpt>
      <trkpt lat="44.09578" lon="7.0139">
        <ele>1581</ele>
        <time>2022-07-26T08:24:50Z</time>
      </trkpt>
      <trkpt lat="44.09578" lon="7.0139">
        <ele>1581</ele>
        <time>2022-07-26T08:24:51Z</time>
      </trkpt>
      <trkpt lat="44.09578" lon="7.01391">
        <ele>1582</ele>
        <time>2022-07-26T08:24:52Z</time>
      </trkpt>
      <trkpt lat="44.09579" lon="7.01392">
        <ele>1582</ele>
        <time>2022-07-26T08:24:53Z</time>
      </trkpt>
      <trkpt lat="44.09579" lon="7.01393">
        <ele>1582</ele>
        <time>2022-07-26T08:24:54Z</time>
      </trkpt>
      <trkpt lat="44.0958" lon="7.01394">
        <ele>1582</ele>
        <time>2022-07-26T08:24:55Z</time>
      </trkpt>
      <trkpt lat="44.0958" lon="7.01395">
        <ele>1582</ele>
        <time>2022-07-26T08:24:56Z</time>
      </trkpt>
      <trkpt lat="44.09581" lon="7.01397">
        <ele>1582</ele>
        <time>2022-07-26T08:24:57Z</time>
      </trkpt>
      <trkpt lat="44.09581" lon="7.01398">
        <ele>1582</ele>
        <time>2022-07-26T08:24:58Z</time>
      </trkpt>
      <trkpt lat="44.09582" lon="7.01399">
        <ele>1582</ele>
        <time>2022-07-26T08:24:59Z</time>
      </trkpt>
      <trkpt lat="44.09583" lon="7.014">
        <ele>1582</ele>
        <time>2022-07-26T08:25:00Z</time>
      </trkpt>
      <trkpt lat="44.09583" lon="7.01401">
        <ele>1582</ele>
        <time>2022-07-26T08:25:01Z</time>
      </trkpt>
      <trkpt lat="44.09584" lon="7.01402">
        <ele>1583</ele>
        <time>2022-07-26T08:25:02Z</time>
      </trkpt>
      <trkpt lat="44.09585" lon="7.01403">
        <ele>1583</ele>
        <time>2022-07-26T08:25:03Z</time>
      </trkpt>
      <trkpt lat="44.09585" lon="7.01404">
        <ele>1583</ele>
        <time>2022-07-26T08:25:04Z</time>
      </trkpt>
      <trkpt lat="44.09586" lon="7.01405">
        <ele>1583</ele>
        <time>2022-07-26T08:25:05Z</time>
      </trkpt>
      <trkpt lat="44.09587" lon="7.01407">
        <ele>1583</ele>
        <time>2022-07-26T08:25:06Z</time>
      </trkpt>
      <trkpt lat="44.09588" lon="7.01408">
        <ele>1584</ele>
        <time>2022-07-26T08:25:07Z</time>
      </trkpt>
      <trkpt lat="44.09588" lon="7.01409">
        <ele>1584</ele>
        <time>2022-07-26T08:25:08Z</time>
      </trkpt>
      <trkpt lat="44.09589" lon="7.0141">
        <ele>1584</ele>
        <time>2022-07-26T08:25:09Z</time>
      </trkpt>
      <trkpt lat="44.0959" lon="7.01411">
        <ele>1584</ele>
        <time>2022-07-26T08:25:10Z</time>
      </trkpt>
      <trkpt lat="44.09591" lon="7.01412">
        <ele>1584</ele>
        <time>2022-07-26T08:25:11Z</time>
      </trkpt>
      <trkpt lat="44.09592" lon="7.01413">
        <ele>1584</ele>
        <time>2022-07-26T08:25:12Z</time>
      </trkpt>
      <trkpt lat="44.09592" lon="7.01414">
        <ele>1584</ele>
        <time>2022-07-26T08:25:13Z</time>
      </trkpt>
      <trkpt lat="44.09593" lon="7.01415">
        <ele>1584</ele>
        <time>2022-07-26T08:25:14Z</time>
      </trkpt>
      <trkpt lat="44.09594" lon="7.01416">
        <ele>1584</ele>
        <time>2022-07-26T08:25:15Z</time>
      </trkpt>
      <trkpt lat="44.09594" lon="7.01417">
        <ele>1584</ele>
        <time>2022-07-26T08:25:16Z</time>
      </trkpt>
      <trkpt lat="44.09595" lon="7.01418">
        <ele>1585</ele>
        <time>2022-07-26T08:25:17Z</time>
      </trkpt>
      <trkpt lat="44.09596" lon="7.01419">
        <ele>1585</ele>
        <time>2022-07-26T08:25:18Z</time>
      </trkpt>
      <trkpt lat="44.09596" lon="7.0142">
        <ele>1585</ele>
        <time>2022-07-26T08:25:19Z</time>
      </trkpt>
      <trkpt lat="44.09597" lon="7.01421">
        <ele>1585</ele>
        <time>2022-07-26T08:25:20Z</time>
      </trkpt>
      <trkpt lat="44.09597" lon="7.01422">
        <ele>1585</ele>
        <time>2022-07-26T08:25:21Z</time>
      </trkpt>
      <trkpt lat="44.09598" lon="7.01423">
        <ele>1585</ele>
        <time>2022-07-26T08:25:22Z</time>
      </trkpt>
      <trkpt lat="44.09598" lon="7.01424">
        <ele>1585</ele>
        <time>2022-07-26T08:25:23Z</time>
      </trkpt>
      <trkpt lat="44.09599" lon="7.01425">
        <ele>1585</ele>
        <time>2022-07-26T08:25:24Z</time>
      </trkpt>
      <trkpt lat="44.09599" lon="7.01426">
        <ele>1585</ele>
        <time>2022-07-26T08:25:25Z</time>
      </trkpt>
      <trkpt lat="44.096" lon="7.01427">
        <ele>1585</ele>
        <time>2022-07-26T08:25:26Z</time>
      </trkpt>
      <trkpt lat="44.09601" lon="7.01428">
        <ele>1586</ele>
        <time>2022-07-26T08:25:27Z</time>
      </trkpt>
      <trkpt lat="44.09601" lon="7.01429">
        <ele>1586</ele>
        <time>2022-07-26T08:25:28Z</time>
      </trkpt>
      <trkpt lat="44.09602" lon="7.01431">
        <ele>1586</ele>
        <time>2022-07-26T08:25:29Z</time>
      </trkpt>
      <trkpt lat="44.09602" lon="7.01432">
        <ele>1586</ele>
        <time>2022-07-26T08:25:30Z</time>
      </trkpt>
      <trkpt lat="44.09603" lon="7.01433">
        <ele>1586</ele>
        <time>2022-07-26T08:25:31Z</time>
      </trkpt>
      <trkpt lat="44.09603" lon="7.01434">
        <ele>1586</ele>
        <time>2022-07-26T08:25:32Z</time>
      </trkpt>
      <trkpt lat="44.09604" lon="7.01435">
        <ele>1586</ele>
        <time>2022-07-26T08:25:33Z</time>
      </trkpt>
      <trkpt lat="44.09604" lon="7.01437">
        <ele>1586</ele>
        <time>2022-07-26T08:25:34Z</time>
      </trkpt>
      <trkpt lat="44.09604" lon="7.01437">
        <ele>1586</ele>
        <time>2022-07-26T08:25:35Z</time>
      </trkpt>
      <trkpt lat="44.09605" lon="7.01438">
        <ele>1586</ele>
        <time>2022-07-26T08:25:36Z</time>
      </trkpt>
      <trkpt lat="44.09605" lon="7.01439">
        <ele>1587</ele>
        <time>2022-07-26T08:25:37Z</time>
      </trkpt>
      <trkpt lat="44.09606" lon="7.0144">
        <ele>1587</ele>
        <time>2022-07-26T08:25:38Z</time>
      </trkpt>
      <trkpt lat="44.09606" lon="7.01441">
        <ele>1587</ele>
        <time>2022-07-26T08:25:39Z</time>
      </trkpt>
      <trkpt lat="44.09607" lon="7.01442">
        <ele>1587</ele>
        <time>2022-07-26T08:25:40Z</time>
      </trkpt>
      <trkpt lat="44.09607" lon="7.01442">
        <ele>1587</ele>
        <time>2022-07-26T08:25:41Z</time>
      </trkpt>
      <trkpt lat="44.09608" lon="7.01443">
        <ele>1588</ele>
        <time>2022-07-26T08:25:42Z</time>
      </trkpt>
      <trkpt lat="44.09608" lon="7.01443">
        <ele>1588</ele>
        <time>2022-07-26T08:25:43Z</time>
      </trkpt>
      <trkpt lat="44.09609" lon="7.01444">
        <ele>1588</ele>
        <time>2022-07-26T08:25:44Z</time>
      </trkpt>
      <trkpt lat="44.09609" lon="7.01445">
        <ele>1588</ele>
        <time>2022-07-26T08:25:45Z</time>
      </trkpt>
      <trkpt lat="44.09609" lon="7.01445">
        <ele>1588</ele>
        <time>2022-07-26T08:25:46Z</time>
      </trkpt>
      <trkpt lat="44.09609" lon="7.01446">
        <ele>1588</ele>
        <time>2022-07-26T08:25:47Z</time>
      </trkpt>
      <trkpt lat="44.0961" lon="7.01447">
        <ele>1588</ele>
        <time>2022-07-26T08:25:48Z</time>
      </trkpt>
      <trkpt lat="44.0961" lon="7.01448">
        <ele>1588</ele>
        <time>2022-07-26T08:25:49Z</time>
      </trkpt>
      <trkpt lat="44.0961" lon="7.01449">
        <ele>1588</ele>
        <time>2022-07-26T08:25:50Z</time>
      </trkpt>
      <trkpt lat="44.09611" lon="7.0145">
        <ele>1588</ele>
        <time>2022-07-26T08:25:51Z</time>
      </trkpt>
      <trkpt lat="44.09611" lon="7.01451">
        <ele>1589</ele>
        <time>2022-07-26T08:25:52Z</time>
      </trkpt>
      <trkpt lat="44.09611" lon="7.01452">
        <ele>1589</ele>
        <time>2022-07-26T08:25:53Z</time>
      </trkpt>
      <trkpt lat="44.09612" lon="7.01454">
        <ele>1589</ele>
        <time>2022-07-26T08:25:54Z</time>
      </trkpt>
      <trkpt lat="44.09612" lon="7.01455">
        <ele>1589</ele>
        <time>2022-07-26T08:25:55Z</time>
      </trkpt>
      <trkpt lat="44.09613" lon="7.01456">
        <ele>1589</ele>
        <time>2022-07-26T08:25:56Z</time>
      </trkpt>
      <trkpt lat="44.09613" lon="7.01458">
        <ele>1590</ele>
        <time>2022-07-26T08:25:57Z</time>
      </trkpt>
      <trkpt lat="44.09614" lon="7.01459">
        <ele>1590</ele>
        <time>2022-07-26T08:25:58Z</time>
      </trkpt>
      <trkpt lat="44.09614" lon="7.0146">
        <ele>1590</ele>
        <time>2022-07-26T08:25:59Z</time>
      </trkpt>
      <trkpt lat="44.09615" lon="7.01462">
        <ele>1590</ele>
        <time>2022-07-26T08:26:00Z</time>
      </trkpt>
      <trkpt lat="44.09616" lon="7.01463">
        <ele>1590</ele>
        <time>2022-07-26T08:26:01Z</time>
      </trkpt>
      <trkpt lat="44.09616" lon="7.01464">
        <ele>1590</ele>
        <time>2022-07-26T08:26:02Z</time>
      </trkpt>
      <trkpt lat="44.09617" lon="7.01465">
        <ele>1590</ele>
        <time>2022-07-26T08:26:03Z</time>
      </trkpt>
      <trkpt lat="44.09617" lon="7.01466">
        <ele>1590</ele>
        <time>2022-07-26T08:26:04Z</time>
      </trkpt>
      <trkpt lat="44.09618" lon="7.01468">
        <ele>1590</ele>
        <time>2022-07-26T08:26:05Z</time>
      </trkpt>
      <trkpt lat="44.09619" lon="7.01469">
        <ele>1590</ele>
        <time>2022-07-26T08:26:06Z</time>
      </trkpt>
      <trkpt lat="44.09619" lon="7.0147">
        <ele>1591</ele>
        <time>2022-07-26T08:26:07Z</time>
      </trkpt>
      <trkpt lat="44.0962" lon="7.01471">
        <ele>1591</ele>
        <time>2022-07-26T08:26:08Z</time>
      </trkpt>
      <trkpt lat="44.0962" lon="7.01472">
        <ele>1591</ele>
        <time>2022-07-26T08:26:09Z</time>
      </trkpt>
      <trkpt lat="44.09621" lon="7.01473">
        <ele>1591</ele>
        <time>2022-07-26T08:26:10Z</time>
      </trkpt>
      <trkpt lat="44.09621" lon="7.01474">
        <ele>1591</ele>
        <time>2022-07-26T08:26:11Z</time>
      </trkpt>
      <trkpt lat="44.09621" lon="7.01476">
        <ele>1591</ele>
        <time>2022-07-26T08:26:12Z</time>
      </trkpt>
      <trkpt lat="44.09622" lon="7.01477">
        <ele>1591</ele>
        <time>2022-07-26T08:26:13Z</time>
      </trkpt>
      <trkpt lat="44.09622" lon="7.01479">
        <ele>1591</ele>
        <time>2022-07-26T08:26:14Z</time>
      </trkpt>
      <trkpt lat="44.09622" lon="7.0148">
        <ele>1592</ele>
        <time>2022-07-26T08:26:15Z</time>
      </trkpt>
      <trkpt lat="44.09623" lon="7.01482">
        <ele>1592</ele>
        <time>2022-07-26T08:26:16Z</time>
      </trkpt>
      <trkpt lat="44.09623" lon="7.01483">
        <ele>1593</ele>
        <time>2022-07-26T08:26:17Z</time>
      </trkpt>
      <trkpt lat="44.09623" lon="7.01485">
        <ele>1593</ele>
        <time>2022-07-26T08:26:18Z</time>
      </trkpt>
      <trkpt lat="44.09624" lon="7.01486">
        <ele>1593</ele>
        <time>2022-07-26T08:26:19Z</time>
      </trkpt>
      <trkpt lat="44.09624" lon="7.01488">
        <ele>1593</ele>
        <time>2022-07-26T08:26:20Z</time>
      </trkpt>
      <trkpt lat="44.09624" lon="7.01489">
        <ele>1593</ele>
        <time>2022-07-26T08:26:21Z</time>
      </trkpt>
      <trkpt lat="44.09625" lon="7.01491">
        <ele>1593</ele>
        <time>2022-07-26T08:26:22Z</time>
      </trkpt>
      <trkpt lat="44.09625" lon="7.01492">
        <ele>1593</ele>
        <time>2022-07-26T08:26:23Z</time>
      </trkpt>
      <trkpt lat="44.09626" lon="7.01494">
        <ele>1593</ele>
        <time>2022-07-26T08:26:24Z</time>
      </trkpt>
      <trkpt lat="44.09626" lon="7.01496">
        <ele>1595</ele>
        <time>2022-07-26T08:26:38Z</time>
      </trkpt>
      <trkpt lat="44.09626" lon="7.01496">
        <ele>1595</ele>
        <time>2022-07-26T08:26:39Z</time>
      </trkpt>
      <trkpt lat="44.09625" lon="7.01497">
        <ele>1595</ele>
        <time>2022-07-26T08:26:40Z</time>
      </trkpt>
      <trkpt lat="44.09625" lon="7.01497">
        <ele>1595</ele>
        <time>2022-07-26T08:26:41Z</time>
      </trkpt>
      <trkpt lat="44.09625" lon="7.01497">
        <ele>1595</ele>
        <time>2022-07-26T08:26:42Z</time>
      </trkpt>
      <trkpt lat="44.09624" lon="7.01497">
        <ele>1595</ele>
        <time>2022-07-26T08:26:43Z</time>
      </trkpt>
      <trkpt lat="44.09624" lon="7.01497">
        <ele>1595</ele>
        <time>2022-07-26T08:26:44Z</time>
      </trkpt>
      <trkpt lat="44.09624" lon="7.01497">
        <ele>1595</ele>
        <time>2022-07-26T08:26:45Z</time>
      </trkpt>
      <trkpt lat="44.09624" lon="7.01495">
        <ele>1596</ele>
        <time>2022-07-26T08:28:01Z</time>
      </trkpt>
      <trkpt lat="44.09624" lon="7.01494">
        <ele>1596</ele>
        <time>2022-07-26T08:28:02Z</time>
      </trkpt>
      <trkpt lat="44.09624" lon="7.01494">
        <ele>1596</ele>
        <time>2022-07-26T08:28:03Z</time>
      </trkpt>
      <trkpt lat="44.09624" lon="7.01494">
        <ele>1596</ele>
        <time>2022-07-26T08:28:04Z</time>
      </trkpt>
      <trkpt lat="44.09625" lon="7.01495">
        <ele>1596</ele>
        <time>2022-07-26T08:28:05Z</time>
      </trkpt>
      <trkpt lat="44.09625" lon="7.01496">
        <ele>1596</ele>
        <time>2022-07-26T08:28:06Z</time>
      </trkpt>
      <trkpt lat="44.09626" lon="7.01497">
        <ele>1596</ele>
        <time>2022-07-26T08:28:07Z</time>
      </trkpt>
      <trkpt lat="44.09626" lon="7.01498">
        <ele>1596</ele>
        <time>2022-07-26T08:28:08Z</time>
      </trkpt>
      <trkpt lat="44.09627" lon="7.01499">
        <ele>1596</ele>
        <time>2022-07-26T08:28:09Z</time>
      </trkpt>
      <trkpt lat="44.09628" lon="7.015">
        <ele>1596</ele>
        <time>2022-07-26T08:28:10Z</time>
      </trkpt>
      <trkpt lat="44.09628" lon="7.01501">
        <ele>1596</ele>
        <time>2022-07-26T08:28:11Z</time>
      </trkpt>
      <trkpt lat="44.09629" lon="7.01502">
        <ele>1596</ele>
        <time>2022-07-26T08:28:12Z</time>
      </trkpt>
      <trkpt lat="44.09629" lon="7.01504">
        <ele>1596</ele>
        <time>2022-07-26T08:28:13Z</time>
      </trkpt>
      <trkpt lat="44.0963" lon="7.01505">
        <ele>1596</ele>
        <time>2022-07-26T08:28:14Z</time>
      </trkpt>
      <trkpt lat="44.0963" lon="7.01506">
        <ele>1596</ele>
        <time>2022-07-26T08:28:15Z</time>
      </trkpt>
      <trkpt lat="44.09631" lon="7.01507">
        <ele>1596</ele>
        <time>2022-07-26T08:28:16Z</time>
      </trkpt>
      <trkpt lat="44.09631" lon="7.01509">
        <ele>1596</ele>
        <time>2022-07-26T08:28:17Z</time>
      </trkpt>
      <trkpt lat="44.09632" lon="7.0151">
        <ele>1596</ele>
        <time>2022-07-26T08:28:18Z</time>
      </trkpt>
      <trkpt lat="44.09632" lon="7.01511">
        <ele>1596</ele>
        <time>2022-07-26T08:28:19Z</time>
      </trkpt>
      <trkpt lat="44.09632" lon="7.01513">
        <ele>1596</ele>
        <time>2022-07-26T08:28:20Z</time>
      </trkpt>
      <trkpt lat="44.09633" lon="7.01514">
        <ele>1596</ele>
        <time>2022-07-26T08:28:21Z</time>
      </trkpt>
      <trkpt lat="44.09634" lon="7.01515">
        <ele>1596</ele>
        <time>2022-07-26T08:28:22Z</time>
      </trkpt>
      <trkpt lat="44.09634" lon="7.01516">
        <ele>1596</ele>
        <time>2022-07-26T08:28:23Z</time>
      </trkpt>
      <trkpt lat="44.09635" lon="7.01517">
        <ele>1596</ele>
        <time>2022-07-26T08:28:24Z</time>
      </trkpt>
      <trkpt lat="44.09636" lon="7.01518">
        <ele>1596</ele>
        <time>2022-07-26T08:28:25Z</time>
      </trkpt>
      <trkpt lat="44.09636" lon="7.01519">
        <ele>1596</ele>
        <time>2022-07-26T08:28:26Z</time>
      </trkpt>
      <trkpt lat="44.09637" lon="7.0152">
        <ele>1596</ele>
        <time>2022-07-26T08:28:27Z</time>
      </trkpt>
      <trkpt lat="44.09637" lon="7.01522">
        <ele>1596</ele>
        <time>2022-07-26T08:28:28Z</time>
      </trkpt>
      <trkpt lat="44.09638" lon="7.01523">
        <ele>1596</ele>
        <time>2022-07-26T08:28:29Z</time>
      </trkpt>
      <trkpt lat="44.09638" lon="7.01524">
        <ele>1596</ele>
        <time>2022-07-26T08:28:30Z</time>
      </trkpt>
      <trkpt lat="44.09639" lon="7.01525">
        <ele>1596</ele>
        <time>2022-07-26T08:28:31Z</time>
      </trkpt>
      <trkpt lat="44.0964" lon="7.01526">
        <ele>1597</ele>
        <time>2022-07-26T08:28:32Z</time>
      </trkpt>
      <trkpt lat="44.0964" lon="7.01527">
        <ele>1597</ele>
        <time>2022-07-26T08:28:33Z</time>
      </trkpt>
      <trkpt lat="44.09641" lon="7.01528">
        <ele>1597</ele>
        <time>2022-07-26T08:28:34Z</time>
      </trkpt>
      <trkpt lat="44.09642" lon="7.01529">
        <ele>1597</ele>
        <time>2022-07-26T08:28:35Z</time>
      </trkpt>
      <trkpt lat="44.09643" lon="7.0153">
        <ele>1597</ele>
        <time>2022-07-26T08:28:36Z</time>
      </trkpt>
      <trkpt lat="44.09644" lon="7.01531">
        <ele>1597</ele>
        <time>2022-07-26T08:28:37Z</time>
      </trkpt>
      <trkpt lat="44.09645" lon="7.01533">
        <ele>1597</ele>
        <time>2022-07-26T08:28:38Z</time>
      </trkpt>
      <trkpt lat="44.09645" lon="7.01534">
        <ele>1597</ele>
        <time>2022-07-26T08:28:39Z</time>
      </trkpt>
      <trkpt lat="44.09646" lon="7.01535">
        <ele>1597</ele>
        <time>2022-07-26T08:28:40Z</time>
      </trkpt>
      <trkpt lat="44.09647" lon="7.01536">
        <ele>1597</ele>
        <time>2022-07-26T08:28:41Z</time>
      </trkpt>
      <trkpt lat="44.09647" lon="7.01538">
        <ele>1597</ele>
        <time>2022-07-26T08:28:42Z</time>
      </trkpt>
      <trkpt lat="44.09648" lon="7.01539">
        <ele>1597</ele>
        <time>2022-07-26T08:28:43Z</time>
      </trkpt>
      <trkpt lat="44.09649" lon="7.0154">
        <ele>1597</ele>
        <time>2022-07-26T08:28:44Z</time>
      </trkpt>
      <trkpt lat="44.0965" lon="7.01541">
        <ele>1597</ele>
        <time>2022-07-26T08:28:45Z</time>
      </trkpt>
      <trkpt lat="44.09651" lon="7.01542">
        <ele>1597</ele>
        <time>2022-07-26T08:28:46Z</time>
      </trkpt>
      <trkpt lat="44.09651" lon="7.01544">
        <ele>1598</ele>
        <time>2022-07-26T08:28:47Z</time>
      </trkpt>
      <trkpt lat="44.09652" lon="7.01545">
        <ele>1598</ele>
        <time>2022-07-26T08:28:48Z</time>
      </trkpt>
      <trkpt lat="44.09653" lon="7.01546">
        <ele>1598</ele>
        <time>2022-07-26T08:28:49Z</time>
      </trkpt>
      <trkpt lat="44.09653" lon="7.01548">
        <ele>1598</ele>
        <time>2022-07-26T08:28:50Z</time>
      </trkpt>
      <trkpt lat="44.09654" lon="7.01549">
        <ele>1598</ele>
        <time>2022-07-26T08:28:51Z</time>
      </trkpt>
      <trkpt lat="44.09655" lon="7.01551">
        <ele>1598</ele>
        <time>2022-07-26T08:28:52Z</time>
      </trkpt>
      <trkpt lat="44.09655" lon="7.01552">
        <ele>1598</ele>
        <time>2022-07-26T08:28:53Z</time>
      </trkpt>
      <trkpt lat="44.09656" lon="7.01553">
        <ele>1598</ele>
        <time>2022-07-26T08:28:54Z</time>
      </trkpt>
      <trkpt lat="44.09656" lon="7.01555">
        <ele>1598</ele>
        <time>2022-07-26T08:28:55Z</time>
      </trkpt>
      <trkpt lat="44.09657" lon="7.01556">
        <ele>1598</ele>
        <time>2022-07-26T08:28:56Z</time>
      </trkpt>
      <trkpt lat="44.09657" lon="7.01557">
        <ele>1598</ele>
        <time>2022-07-26T08:28:57Z</time>
      </trkpt>
      <trkpt lat="44.09657" lon="7.01558">
        <ele>1598</ele>
        <time>2022-07-26T08:28:58Z</time>
      </trkpt>
      <trkpt lat="44.09658" lon="7.01559">
        <ele>1598</ele>
        <time>2022-07-26T08:28:59Z</time>
      </trkpt>
      <trkpt lat="44.09658" lon="7.0156">
        <ele>1598</ele>
        <time>2022-07-26T08:29:00Z</time>
      </trkpt>
      <trkpt lat="44.09658" lon="7.01562">
        <ele>1598</ele>
        <time>2022-07-26T08:29:01Z</time>
      </trkpt>
      <trkpt lat="44.09659" lon="7.01563">
        <ele>1599</ele>
        <time>2022-07-26T08:29:02Z</time>
      </trkpt>
      <trkpt lat="44.09659" lon="7.01564">
        <ele>1599</ele>
        <time>2022-07-26T08:29:03Z</time>
      </trkpt>
      <trkpt lat="44.0966" lon="7.01565">
        <ele>1599</ele>
        <time>2022-07-26T08:29:04Z</time>
      </trkpt>
      <trkpt lat="44.09661" lon="7.01567">
        <ele>1599</ele>
        <time>2022-07-26T08:29:05Z</time>
      </trkpt>
      <trkpt lat="44.09661" lon="7.01569">
        <ele>1599</ele>
        <time>2022-07-26T08:29:06Z</time>
      </trkpt>
      <trkpt lat="44.09662" lon="7.0157">
        <ele>1599</ele>
        <time>2022-07-26T08:29:07Z</time>
      </trkpt>
      <trkpt lat="44.09663" lon="7.01571">
        <ele>1599</ele>
        <time>2022-07-26T08:29:08Z</time>
      </trkpt>
      <trkpt lat="44.09663" lon="7.01573">
        <ele>1599</ele>
        <time>2022-07-26T08:29:09Z</time>
      </trkpt>
      <trkpt lat="44.09664" lon="7.01574">
        <ele>1599</ele>
        <time>2022-07-26T08:29:10Z</time>
      </trkpt>
      <trkpt lat="44.09664" lon="7.01575">
        <ele>1599</ele>
        <time>2022-07-26T08:29:11Z</time>
      </trkpt>
      <trkpt lat="44.09665" lon="7.01576">
        <ele>1599</ele>
        <time>2022-07-26T08:29:12Z</time>
      </trkpt>
      <trkpt lat="44.09665" lon="7.01578">
        <ele>1599</ele>
        <time>2022-07-26T08:29:13Z</time>
      </trkpt>
      <trkpt lat="44.09665" lon="7.01579">
        <ele>1599</ele>
        <time>2022-07-26T08:29:14Z</time>
      </trkpt>
      <trkpt lat="44.09666" lon="7.0158">
        <ele>1599</ele>
        <time>2022-07-26T08:29:15Z</time>
      </trkpt>
      <trkpt lat="44.09666" lon="7.01581">
        <ele>1599</ele>
        <time>2022-07-26T08:29:16Z</time>
      </trkpt>
      <trkpt lat="44.09667" lon="7.01582">
        <ele>1600</ele>
        <time>2022-07-26T08:29:17Z</time>
      </trkpt>
      <trkpt lat="44.09667" lon="7.01583">
        <ele>1600</ele>
        <time>2022-07-26T08:29:18Z</time>
      </trkpt>
      <trkpt lat="44.09668" lon="7.01585">
        <ele>1600</ele>
        <time>2022-07-26T08:29:19Z</time>
      </trkpt>
      <trkpt lat="44.09668" lon="7.01585">
        <ele>1600</ele>
        <time>2022-07-26T08:29:20Z</time>
      </trkpt>
      <trkpt lat="44.09669" lon="7.01586">
        <ele>1600</ele>
        <time>2022-07-26T08:29:21Z</time>
      </trkpt>
      <trkpt lat="44.09669" lon="7.01587">
        <ele>1600</ele>
        <time>2022-07-26T08:29:22Z</time>
      </trkpt>
      <trkpt lat="44.0967" lon="7.01588">
        <ele>1600</ele>
        <time>2022-07-26T08:29:23Z</time>
      </trkpt>
      <trkpt lat="44.09671" lon="7.01589">
        <ele>1600</ele>
        <time>2022-07-26T08:29:24Z</time>
      </trkpt>
      <trkpt lat="44.09671" lon="7.01591">
        <ele>1600</ele>
        <time>2022-07-26T08:29:25Z</time>
      </trkpt>
      <trkpt lat="44.09672" lon="7.01592">
        <ele>1600</ele>
        <time>2022-07-26T08:29:26Z</time>
      </trkpt>
      <trkpt lat="44.09672" lon="7.01593">
        <ele>1600</ele>
        <time>2022-07-26T08:29:27Z</time>
      </trkpt>
      <trkpt lat="44.09673" lon="7.01594">
        <ele>1600</ele>
        <time>2022-07-26T08:29:28Z</time>
      </trkpt>
      <trkpt lat="44.09673" lon="7.01595">
        <ele>1600</ele>
        <time>2022-07-26T08:29:29Z</time>
      </trkpt>
      <trkpt lat="44.09673" lon="7.01596">
        <ele>1600</ele>
        <time>2022-07-26T08:29:30Z</time>
      </trkpt>
      <trkpt lat="44.09673" lon="7.01598">
        <ele>1600</ele>
        <time>2022-07-26T08:29:31Z</time>
      </trkpt>
      <trkpt lat="44.09674" lon="7.01599">
        <ele>1601</ele>
        <time>2022-07-26T08:29:32Z</time>
      </trkpt>
      <trkpt lat="44.09674" lon="7.016">
        <ele>1601</ele>
        <time>2022-07-26T08:29:33Z</time>
      </trkpt>
      <trkpt lat="44.09674" lon="7.01601">
        <ele>1601</ele>
        <time>2022-07-26T08:29:34Z</time>
      </trkpt>
      <trkpt lat="44.09675" lon="7.01602">
        <ele>1601</ele>
        <time>2022-07-26T08:29:35Z</time>
      </trkpt>
      <trkpt lat="44.09675" lon="7.01603">
        <ele>1601</ele>
        <time>2022-07-26T08:29:36Z</time>
      </trkpt>
      <trkpt lat="44.09675" lon="7.01604">
        <ele>1601</ele>
        <time>2022-07-26T08:29:37Z</time>
      </trkpt>
      <trkpt lat="44.09675" lon="7.01605">
        <ele>1601</ele>
        <time>2022-07-26T08:29:38Z</time>
      </trkpt>
      <trkpt lat="44.09676" lon="7.01606">
        <ele>1601</ele>
        <time>2022-07-26T08:29:39Z</time>
      </trkpt>
      <trkpt lat="44.09677" lon="7.01608">
        <ele>1601</ele>
        <time>2022-07-26T08:29:40Z</time>
      </trkpt>
      <trkpt lat="44.09677" lon="7.01609">
        <ele>1601</ele>
        <time>2022-07-26T08:29:41Z</time>
      </trkpt>
      <trkpt lat="44.09678" lon="7.0161">
        <ele>1601</ele>
        <time>2022-07-26T08:29:42Z</time>
      </trkpt>
      <trkpt lat="44.09678" lon="7.01611">
        <ele>1601</ele>
        <time>2022-07-26T08:29:43Z</time>
      </trkpt>
      <trkpt lat="44.09679" lon="7.01612">
        <ele>1601</ele>
        <time>2022-07-26T08:29:44Z</time>
      </trkpt>
      <trkpt lat="44.09679" lon="7.01613">
        <ele>1601</ele>
        <time>2022-07-26T08:29:45Z</time>
      </trkpt>
      <trkpt lat="44.0968" lon="7.01614">
        <ele>1601</ele>
        <time>2022-07-26T08:29:46Z</time>
      </trkpt>
      <trkpt lat="44.0968" lon="7.01614">
        <ele>1601</ele>
        <time>2022-07-26T08:29:47Z</time>
      </trkpt>
      <trkpt lat="44.09681" lon="7.01615">
        <ele>1601</ele>
        <time>2022-07-26T08:29:48Z</time>
      </trkpt>
      <trkpt lat="44.09682" lon="7.01616">
        <ele>1601</ele>
        <time>2022-07-26T08:29:49Z</time>
      </trkpt>
      <trkpt lat="44.09683" lon="7.01617">
        <ele>1601</ele>
        <time>2022-07-26T08:29:50Z</time>
      </trkpt>
      <trkpt lat="44.09683" lon="7.01617">
        <ele>1601</ele>
        <time>2022-07-26T08:29:51Z</time>
      </trkpt>
      <trkpt lat="44.09684" lon="7.01618">
        <ele>1601</ele>
        <time>2022-07-26T08:29:52Z</time>
      </trkpt>
      <trkpt lat="44.09685" lon="7.01619">
        <ele>1601</ele>
        <time>2022-07-26T08:29:53Z</time>
      </trkpt>
      <trkpt lat="44.09686" lon="7.0162">
        <ele>1601</ele>
        <time>2022-07-26T08:29:54Z</time>
      </trkpt>
      <trkpt lat="44.09686" lon="7.01622">
        <ele>1601</ele>
        <time>2022-07-26T08:29:55Z</time>
      </trkpt>
      <trkpt lat="44.09687" lon="7.01623">
        <ele>1601</ele>
        <time>2022-07-26T08:29:56Z</time>
      </trkpt>
      <trkpt lat="44.09687" lon="7.01624">
        <ele>1601</ele>
        <time>2022-07-26T08:29:57Z</time>
      </trkpt>
      <trkpt lat="44.09687" lon="7.01626">
        <ele>1601</ele>
        <time>2022-07-26T08:29:58Z</time>
      </trkpt>
      <trkpt lat="44.09687" lon="7.01627">
        <ele>1601</ele>
        <time>2022-07-26T08:29:59Z</time>
      </trkpt>
      <trkpt lat="44.09687" lon="7.01628">
        <ele>1601</ele>
        <time>2022-07-26T08:30:00Z</time>
      </trkpt>
      <trkpt lat="44.09688" lon="7.0163">
        <ele>1601</ele>
        <time>2022-07-26T08:30:01Z</time>
      </trkpt>
      <trkpt lat="44.09688" lon="7.01631">
        <ele>1602</ele>
        <time>2022-07-26T08:30:02Z</time>
      </trkpt>
      <trkpt lat="44.09689" lon="7.01632">
        <ele>1602</ele>
        <time>2022-07-26T08:30:03Z</time>
      </trkpt>
      <trkpt lat="44.0969" lon="7.01634">
        <ele>1602</ele>
        <time>2022-07-26T08:30:04Z</time>
      </trkpt>
      <trkpt lat="44.09691" lon="7.01635">
        <ele>1602</ele>
        <time>2022-07-26T08:30:05Z</time>
      </trkpt>
      <trkpt lat="44.09692" lon="7.01636">
        <ele>1602</ele>
        <time>2022-07-26T08:30:06Z</time>
      </trkpt>
      <trkpt lat="44.09693" lon="7.01638">
        <ele>1602</ele>
        <time>2022-07-26T08:30:07Z</time>
      </trkpt>
      <trkpt lat="44.09694" lon="7.01639">
        <ele>1602</ele>
        <time>2022-07-26T08:30:08Z</time>
      </trkpt>
      <trkpt lat="44.09694" lon="7.0164">
        <ele>1602</ele>
        <time>2022-07-26T08:30:09Z</time>
      </trkpt>
      <trkpt lat="44.09695" lon="7.01641">
        <ele>1602</ele>
        <time>2022-07-26T08:30:10Z</time>
      </trkpt>
      <trkpt lat="44.09695" lon="7.01643">
        <ele>1602</ele>
        <time>2022-07-26T08:30:11Z</time>
      </trkpt>
      <trkpt lat="44.09696" lon="7.01644">
        <ele>1602</ele>
        <time>2022-07-26T08:30:12Z</time>
      </trkpt>
      <trkpt lat="44.09696" lon="7.01645">
        <ele>1602</ele>
        <time>2022-07-26T08:30:13Z</time>
      </trkpt>
      <trkpt lat="44.09697" lon="7.01647">
        <ele>1602</ele>
        <time>2022-07-26T08:30:14Z</time>
      </trkpt>
      <trkpt lat="44.09698" lon="7.01648">
        <ele>1602</ele>
        <time>2022-07-26T08:30:15Z</time>
      </trkpt>
      <trkpt lat="44.09698" lon="7.0165">
        <ele>1602</ele>
        <time>2022-07-26T08:30:16Z</time>
      </trkpt>
      <trkpt lat="44.09699" lon="7.01651">
        <ele>1602</ele>
        <time>2022-07-26T08:30:17Z</time>
      </trkpt>
      <trkpt lat="44.097" lon="7.01653">
        <ele>1601</ele>
        <time>2022-07-26T08:30:18Z</time>
      </trkpt>
      <trkpt lat="44.09701" lon="7.01654">
        <ele>1601</ele>
        <time>2022-07-26T08:30:19Z</time>
      </trkpt>
      <trkpt lat="44.09702" lon="7.01655">
        <ele>1601</ele>
        <time>2022-07-26T08:30:20Z</time>
      </trkpt>
      <trkpt lat="44.09704" lon="7.01657">
        <ele>1601</ele>
        <time>2022-07-26T08:30:21Z</time>
      </trkpt>
      <trkpt lat="44.09705" lon="7.01658">
        <ele>1601</ele>
        <time>2022-07-26T08:30:22Z</time>
      </trkpt>
      <trkpt lat="44.09705" lon="7.01659">
        <ele>1601</ele>
        <time>2022-07-26T08:30:23Z</time>
      </trkpt>
      <trkpt lat="44.09706" lon="7.01661">
        <ele>1601</ele>
        <time>2022-07-26T08:30:24Z</time>
      </trkpt>
      <trkpt lat="44.09707" lon="7.01662">
        <ele>1601</ele>
        <time>2022-07-26T08:30:25Z</time>
      </trkpt>
      <trkpt lat="44.09708" lon="7.01663">
        <ele>1601</ele>
        <time>2022-07-26T08:30:26Z</time>
      </trkpt>
      <trkpt lat="44.09708" lon="7.01665">
        <ele>1601</ele>
        <time>2022-07-26T08:30:27Z</time>
      </trkpt>
      <trkpt lat="44.09709" lon="7.01666">
        <ele>1601</ele>
        <time>2022-07-26T08:30:28Z</time>
      </trkpt>
      <trkpt lat="44.0971" lon="7.01667">
        <ele>1601</ele>
        <time>2022-07-26T08:30:29Z</time>
      </trkpt>
      <trkpt lat="44.0971" lon="7.01669">
        <ele>1601</ele>
        <time>2022-07-26T08:30:30Z</time>
      </trkpt>
      <trkpt lat="44.09711" lon="7.0167">
        <ele>1601</ele>
        <time>2022-07-26T08:30:31Z</time>
      </trkpt>
      <trkpt lat="44.09711" lon="7.01671">
        <ele>1602</ele>
        <time>2022-07-26T08:30:32Z</time>
      </trkpt>
      <trkpt lat="44.09712" lon="7.01673">
        <ele>1602</ele>
        <time>2022-07-26T08:30:33Z</time>
      </trkpt>
      <trkpt lat="44.09713" lon="7.01674">
        <ele>1602</ele>
        <time>2022-07-26T08:30:34Z</time>
      </trkpt>
      <trkpt lat="44.09713" lon="7.01675">
        <ele>1602</ele>
        <time>2022-07-26T08:30:35Z</time>
      </trkpt>
      <trkpt lat="44.09714" lon="7.01676">
        <ele>1602</ele>
        <time>2022-07-26T08:30:36Z</time>
      </trkpt>
      <trkpt lat="44.09714" lon="7.01678">
        <ele>1602</ele>
        <time>2022-07-26T08:30:37Z</time>
      </trkpt>
      <trkpt lat="44.09714" lon="7.01679">
        <ele>1602</ele>
        <time>2022-07-26T08:30:38Z</time>
      </trkpt>
      <trkpt lat="44.09715" lon="7.01681">
        <ele>1602</ele>
        <time>2022-07-26T08:30:39Z</time>
      </trkpt>
      <trkpt lat="44.09715" lon="7.01682">
        <ele>1602</ele>
        <time>2022-07-26T08:30:40Z</time>
      </trkpt>
      <trkpt lat="44.09715" lon="7.01684">
        <ele>1602</ele>
        <time>2022-07-26T08:30:41Z</time>
      </trkpt>
      <trkpt lat="44.09715" lon="7.01686">
        <ele>1602</ele>
        <time>2022-07-26T08:30:42Z</time>
      </trkpt>
      <trkpt lat="44.09716" lon="7.01688">
        <ele>1602</ele>
        <time>2022-07-26T08:30:43Z</time>
      </trkpt>
      <trkpt lat="44.09716" lon="7.0169">
        <ele>1602</ele>
        <time>2022-07-26T08:30:44Z</time>
      </trkpt>
      <trkpt lat="44.09715" lon="7.01692">
        <ele>1602</ele>
        <time>2022-07-26T08:30:45Z</time>
      </trkpt>
      <trkpt lat="44.09715" lon="7.01694">
        <ele>1602</ele>
        <time>2022-07-26T08:30:46Z</time>
      </trkpt>
      <trkpt lat="44.09714" lon="7.01695">
        <ele>1602</ele>
        <time>2022-07-26T08:30:47Z</time>
      </trkpt>
      <trkpt lat="44.09713" lon="7.01696">
        <ele>1602</ele>
        <time>2022-07-26T08:30:48Z</time>
      </trkpt>
      <trkpt lat="44.09713" lon="7.01697">
        <ele>1602</ele>
        <time>2022-07-26T08:30:49Z</time>
      </trkpt>
      <trkpt lat="44.09713" lon="7.01699">
        <ele>1602</ele>
        <time>2022-07-26T08:30:50Z</time>
      </trkpt>
      <trkpt lat="44.09713" lon="7.017">
        <ele>1602</ele>
        <time>2022-07-26T08:30:51Z</time>
      </trkpt>
      <trkpt lat="44.09713" lon="7.01702">
        <ele>1602</ele>
        <time>2022-07-26T08:30:52Z</time>
      </trkpt>
      <trkpt lat="44.09714" lon="7.01703">
        <ele>1601</ele>
        <time>2022-07-26T08:30:53Z</time>
      </trkpt>
      <trkpt lat="44.09714" lon="7.01705">
        <ele>1601</ele>
        <time>2022-07-26T08:30:54Z</time>
      </trkpt>
      <trkpt lat="44.09714" lon="7.01706">
        <ele>1601</ele>
        <time>2022-07-26T08:30:55Z</time>
      </trkpt>
      <trkpt lat="44.09715" lon="7.01707">
        <ele>1601</ele>
        <time>2022-07-26T08:30:56Z</time>
      </trkpt>
      <trkpt lat="44.09715" lon="7.01708">
        <ele>1601</ele>
        <time>2022-07-26T08:30:57Z</time>
      </trkpt>
      <trkpt lat="44.09716" lon="7.01709">
        <ele>1601</ele>
        <time>2022-07-26T08:30:58Z</time>
      </trkpt>
      <trkpt lat="44.09717" lon="7.01709">
        <ele>1601</ele>
        <time>2022-07-26T08:30:59Z</time>
      </trkpt>
      <trkpt lat="44.09718" lon="7.01709">
        <ele>1601</ele>
        <time>2022-07-26T08:31:00Z</time>
      </trkpt>
      <trkpt lat="44.09719" lon="7.0171">
        <ele>1601</ele>
        <time>2022-07-26T08:31:01Z</time>
      </trkpt>
      <trkpt lat="44.0972" lon="7.0171">
        <ele>1601</ele>
        <time>2022-07-26T08:31:02Z</time>
      </trkpt>
      <trkpt lat="44.09721" lon="7.0171">
        <ele>1601</ele>
        <time>2022-07-26T08:31:03Z</time>
      </trkpt>
      <trkpt lat="44.09721" lon="7.01711">
        <ele>1601</ele>
        <time>2022-07-26T08:31:04Z</time>
      </trkpt>
      <trkpt lat="44.09722" lon="7.01711">
        <ele>1601</ele>
        <time>2022-07-26T08:31:05Z</time>
      </trkpt>
      <trkpt lat="44.09723" lon="7.01712">
        <ele>1601</ele>
        <time>2022-07-26T08:31:06Z</time>
      </trkpt>
      <trkpt lat="44.09724" lon="7.01713">
        <ele>1601</ele>
        <time>2022-07-26T08:31:07Z</time>
      </trkpt>
      <trkpt lat="44.09724" lon="7.01714">
        <ele>1601</ele>
        <time>2022-07-26T08:31:08Z</time>
      </trkpt>
      <trkpt lat="44.09725" lon="7.01715">
        <ele>1601</ele>
        <time>2022-07-26T08:31:09Z</time>
      </trkpt>
      <trkpt lat="44.09726" lon="7.01716">
        <ele>1601</ele>
        <time>2022-07-26T08:31:10Z</time>
      </trkpt>
      <trkpt lat="44.09726" lon="7.01717">
        <ele>1601</ele>
        <time>2022-07-26T08:31:11Z</time>
      </trkpt>
      <trkpt lat="44.09727" lon="7.01718">
        <ele>1601</ele>
        <time>2022-07-26T08:31:12Z</time>
      </trkpt>
      <trkpt lat="44.09728" lon="7.01718">
        <ele>1601</ele>
        <time>2022-07-26T08:31:13Z</time>
      </trkpt>
      <trkpt lat="44.09728" lon="7.01719">
        <ele>1601</ele>
        <time>2022-07-26T08:31:14Z</time>
      </trkpt>
      <trkpt lat="44.09729" lon="7.01719">
        <ele>1601</ele>
        <time>2022-07-26T08:31:15Z</time>
      </trkpt>
      <trkpt lat="44.0973" lon="7.0172">
        <ele>1601</ele>
        <time>2022-07-26T08:31:16Z</time>
      </trkpt>
      <trkpt lat="44.09731" lon="7.0172">
        <ele>1601</ele>
        <time>2022-07-26T08:31:17Z</time>
      </trkpt>
      <trkpt lat="44.09732" lon="7.01721">
        <ele>1601</ele>
        <time>2022-07-26T08:31:18Z</time>
      </trkpt>
      <trkpt lat="44.09733" lon="7.01721">
        <ele>1601</ele>
        <time>2022-07-26T08:31:19Z</time>
      </trkpt>
      <trkpt lat="44.09733" lon="7.01722">
        <ele>1601</ele>
        <time>2022-07-26T08:31:20Z</time>
      </trkpt>
      <trkpt lat="44.09734" lon="7.01723">
        <ele>1601</ele>
        <time>2022-07-26T08:31:21Z</time>
      </trkpt>
      <trkpt lat="44.09735" lon="7.01723">
        <ele>1601</ele>
        <time>2022-07-26T08:31:22Z</time>
      </trkpt>
      <trkpt lat="44.09736" lon="7.01724">
        <ele>1601</ele>
        <time>2022-07-26T08:31:23Z</time>
      </trkpt>
      <trkpt lat="44.09736" lon="7.01725">
        <ele>1601</ele>
        <time>2022-07-26T08:31:24Z</time>
      </trkpt>
      <trkpt lat="44.09737" lon="7.01727">
        <ele>1601</ele>
        <time>2022-07-26T08:31:25Z</time>
      </trkpt>
      <trkpt lat="44.09738" lon="7.01728">
        <ele>1601</ele>
        <time>2022-07-26T08:31:26Z</time>
      </trkpt>
      <trkpt lat="44.09739" lon="7.01729">
        <ele>1601</ele>
        <time>2022-07-26T08:31:27Z</time>
      </trkpt>
      <trkpt lat="44.0974" lon="7.0173">
        <ele>1601</ele>
        <time>2022-07-26T08:31:28Z</time>
      </trkpt>
      <trkpt lat="44.09741" lon="7.01731">
        <ele>1601</ele>
        <time>2022-07-26T08:31:29Z</time>
      </trkpt>
      <trkpt lat="44.09742" lon="7.01732">
        <ele>1601</ele>
        <time>2022-07-26T08:31:30Z</time>
      </trkpt>
      <trkpt lat="44.09743" lon="7.01733">
        <ele>1601</ele>
        <time>2022-07-26T08:31:31Z</time>
      </trkpt>
      <trkpt lat="44.09745" lon="7.01734">
        <ele>1601</ele>
        <time>2022-07-26T08:31:32Z</time>
      </trkpt>
      <trkpt lat="44.09746" lon="7.01734">
        <ele>1601</ele>
        <time>2022-07-26T08:31:33Z</time>
      </trkpt>
      <trkpt lat="44.09747" lon="7.01735">
        <ele>1601</ele>
        <time>2022-07-26T08:31:34Z</time>
      </trkpt>
      <trkpt lat="44.09749" lon="7.01736">
        <ele>1601</ele>
        <time>2022-07-26T08:31:35Z</time>
      </trkpt>
      <trkpt lat="44.0975" lon="7.01736">
        <ele>1601</ele>
        <time>2022-07-26T08:31:36Z</time>
      </trkpt>
      <trkpt lat="44.09751" lon="7.01736">
        <ele>1602</ele>
        <time>2022-07-26T08:31:37Z</time>
      </trkpt>
      <trkpt lat="44.09752" lon="7.01737">
        <ele>1602</ele>
        <time>2022-07-26T08:31:38Z</time>
      </trkpt>
      <trkpt lat="44.09752" lon="7.01737">
        <ele>1602</ele>
        <time>2022-07-26T08:31:39Z</time>
      </trkpt>
      <trkpt lat="44.09753" lon="7.01737">
        <ele>1602</ele>
        <time>2022-07-26T08:31:40Z</time>
      </trkpt>
      <trkpt lat="44.09753" lon="7.01737">
        <ele>1602</ele>
        <time>2022-07-26T08:31:41Z</time>
      </trkpt>
      <trkpt lat="44.09754" lon="7.01738">
        <ele>1602</ele>
        <time>2022-07-26T08:31:42Z</time>
      </trkpt>
      <trkpt lat="44.09754" lon="7.01738">
        <ele>1602</ele>
        <time>2022-07-26T08:31:43Z</time>
      </trkpt>
      <trkpt lat="44.09755" lon="7.01738">
        <ele>1602</ele>
        <time>2022-07-26T08:31:44Z</time>
      </trkpt>
      <trkpt lat="44.09756" lon="7.01738">
        <ele>1602</ele>
        <time>2022-07-26T08:31:45Z</time>
      </trkpt>
      <trkpt lat="44.09757" lon="7.01739">
        <ele>1602</ele>
        <time>2022-07-26T08:31:46Z</time>
      </trkpt>
      <trkpt lat="44.09758" lon="7.01739">
        <ele>1602</ele>
        <time>2022-07-26T08:31:47Z</time>
      </trkpt>
      <trkpt lat="44.09759" lon="7.01739">
        <ele>1602</ele>
        <time>2022-07-26T08:31:48Z</time>
      </trkpt>
      <trkpt lat="44.0976" lon="7.0174">
        <ele>1602</ele>
        <time>2022-07-26T08:31:49Z</time>
      </trkpt>
      <trkpt lat="44.09761" lon="7.0174">
        <ele>1602</ele>
        <time>2022-07-26T08:31:50Z</time>
      </trkpt>
      <trkpt lat="44.09762" lon="7.0174">
        <ele>1602</ele>
        <time>2022-07-26T08:31:51Z</time>
      </trkpt>
      <trkpt lat="44.09763" lon="7.0174">
        <ele>1602</ele>
        <time>2022-07-26T08:31:52Z</time>
      </trkpt>
      <trkpt lat="44.09764" lon="7.01741">
        <ele>1602</ele>
        <time>2022-07-26T08:31:53Z</time>
      </trkpt>
      <trkpt lat="44.09765" lon="7.01741">
        <ele>1602</ele>
        <time>2022-07-26T08:31:54Z</time>
      </trkpt>
      <trkpt lat="44.09766" lon="7.01741">
        <ele>1602</ele>
        <time>2022-07-26T08:31:55Z</time>
      </trkpt>
      <trkpt lat="44.09767" lon="7.01741">
        <ele>1602</ele>
        <time>2022-07-26T08:31:56Z</time>
      </trkpt>
      <trkpt lat="44.09768" lon="7.01742">
        <ele>1602</ele>
        <time>2022-07-26T08:31:57Z</time>
      </trkpt>
      <trkpt lat="44.09769" lon="7.01742">
        <ele>1601</ele>
        <time>2022-07-26T08:31:58Z</time>
      </trkpt>
      <trkpt lat="44.0977" lon="7.01743">
        <ele>1601</ele>
        <time>2022-07-26T08:31:59Z</time>
      </trkpt>
      <trkpt lat="44.09771" lon="7.01743">
        <ele>1601</ele>
        <time>2022-07-26T08:32:00Z</time>
      </trkpt>
      <trkpt lat="44.09772" lon="7.01744">
        <ele>1601</ele>
        <time>2022-07-26T08:32:01Z</time>
      </trkpt>
      <trkpt lat="44.09774" lon="7.01744">
        <ele>1601</ele>
        <time>2022-07-26T08:32:02Z</time>
      </trkpt>
      <trkpt lat="44.09775" lon="7.01744">
        <ele>1601</ele>
        <time>2022-07-26T08:32:03Z</time>
      </trkpt>
      <trkpt lat="44.09776" lon="7.01745">
        <ele>1601</ele>
        <time>2022-07-26T08:32:04Z</time>
      </trkpt>
      <trkpt lat="44.09777" lon="7.01745">
        <ele>1601</ele>
        <time>2022-07-26T08:32:05Z</time>
      </trkpt>
      <trkpt lat="44.09778" lon="7.01745">
        <ele>1601</ele>
        <time>2022-07-26T08:32:06Z</time>
      </trkpt>
      <trkpt lat="44.0978" lon="7.01746">
        <ele>1601</ele>
        <time>2022-07-26T08:32:07Z</time>
      </trkpt>
      <trkpt lat="44.09781" lon="7.01746">
        <ele>1600</ele>
        <time>2022-07-26T08:32:08Z</time>
      </trkpt>
      <trkpt lat="44.09782" lon="7.01746">
        <ele>1600</ele>
        <time>2022-07-26T08:32:09Z</time>
      </trkpt>
      <trkpt lat="44.09783" lon="7.01746">
        <ele>1600</ele>
        <time>2022-07-26T08:32:10Z</time>
      </trkpt>
      <trkpt lat="44.09784" lon="7.01746">
        <ele>1600</ele>
        <time>2022-07-26T08:32:11Z</time>
      </trkpt>
      <trkpt lat="44.09785" lon="7.01746">
        <ele>1600</ele>
        <time>2022-07-26T08:32:12Z</time>
      </trkpt>
      <trkpt lat="44.09786" lon="7.01746">
        <ele>1600</ele>
        <time>2022-07-26T08:32:13Z</time>
      </trkpt>
      <trkpt lat="44.09787" lon="7.01746">
        <ele>1600</ele>
        <time>2022-07-26T08:32:14Z</time>
      </trkpt>
      <trkpt lat="44.09788" lon="7.01746">
        <ele>1600</ele>
        <time>2022-07-26T08:32:15Z</time>
      </trkpt>
      <trkpt lat="44.09789" lon="7.01746">
        <ele>1600</ele>
        <time>2022-07-26T08:32:16Z</time>
      </trkpt>
      <trkpt lat="44.0979" lon="7.01747">
        <ele>1600</ele>
        <time>2022-07-26T08:32:17Z</time>
      </trkpt>
      <trkpt lat="44.09791" lon="7.01747">
        <ele>1599</ele>
        <time>2022-07-26T08:32:18Z</time>
      </trkpt>
      <trkpt lat="44.09792" lon="7.01747">
        <ele>1599</ele>
        <time>2022-07-26T08:32:19Z</time>
      </trkpt>
      <trkpt lat="44.09793" lon="7.01747">
        <ele>1599</ele>
        <time>2022-07-26T08:32:20Z</time>
      </trkpt>
      <trkpt lat="44.09794" lon="7.01747">
        <ele>1599</ele>
        <time>2022-07-26T08:32:21Z</time>
      </trkpt>
      <trkpt lat="44.09795" lon="7.01747">
        <ele>1599</ele>
        <time>2022-07-26T08:32:22Z</time>
      </trkpt>
      <trkpt lat="44.09796" lon="7.01748">
        <ele>1599</ele>
        <time>2022-07-26T08:32:23Z</time>
      </trkpt>
      <trkpt lat="44.09797" lon="7.01748">
        <ele>1599</ele>
        <time>2022-07-26T08:32:24Z</time>
      </trkpt>
      <trkpt lat="44.09799" lon="7.01748">
        <ele>1599</ele>
        <time>2022-07-26T08:32:25Z</time>
      </trkpt>
      <trkpt lat="44.098" lon="7.01749">
        <ele>1599</ele>
        <time>2022-07-26T08:32:26Z</time>
      </trkpt>
      <trkpt lat="44.09801" lon="7.01749">
        <ele>1599</ele>
        <time>2022-07-26T08:32:27Z</time>
      </trkpt>
      <trkpt lat="44.09802" lon="7.01749">
        <ele>1599</ele>
        <time>2022-07-26T08:32:28Z</time>
      </trkpt>
      <trkpt lat="44.09803" lon="7.01749">
        <ele>1599</ele>
        <time>2022-07-26T08:32:29Z</time>
      </trkpt>
      <trkpt lat="44.09804" lon="7.0175">
        <ele>1599</ele>
        <time>2022-07-26T08:32:30Z</time>
      </trkpt>
      <trkpt lat="44.09805" lon="7.0175">
        <ele>1599</ele>
        <time>2022-07-26T08:32:31Z</time>
      </trkpt>
      <trkpt lat="44.09806" lon="7.01751">
        <ele>1599</ele>
        <time>2022-07-26T08:32:32Z</time>
      </trkpt>
      <trkpt lat="44.09807" lon="7.01752">
        <ele>1599</ele>
        <time>2022-07-26T08:32:33Z</time>
      </trkpt>
      <trkpt lat="44.09808" lon="7.01753">
        <ele>1599</ele>
        <time>2022-07-26T08:32:34Z</time>
      </trkpt>
      <trkpt lat="44.09809" lon="7.01754">
        <ele>1599</ele>
        <time>2022-07-26T08:32:35Z</time>
      </trkpt>
      <trkpt lat="44.0981" lon="7.01754">
        <ele>1599</ele>
        <time>2022-07-26T08:32:36Z</time>
      </trkpt>
      <trkpt lat="44.09812" lon="7.01755">
        <ele>1599</ele>
        <time>2022-07-26T08:32:37Z</time>
      </trkpt>
      <trkpt lat="44.09813" lon="7.01755">
        <ele>1598</ele>
        <time>2022-07-26T08:32:38Z</time>
      </trkpt>
      <trkpt lat="44.09815" lon="7.01756">
        <ele>1598</ele>
        <time>2022-07-26T08:32:39Z</time>
      </trkpt>
      <trkpt lat="44.09816" lon="7.01756">
        <ele>1598</ele>
        <time>2022-07-26T08:32:40Z</time>
      </trkpt>
      <trkpt lat="44.09817" lon="7.01756">
        <ele>1598</ele>
        <time>2022-07-26T08:32:41Z</time>
      </trkpt>
      <trkpt lat="44.09819" lon="7.01757">
        <ele>1598</ele>
        <time>2022-07-26T08:32:42Z</time>
      </trkpt>
      <trkpt lat="44.0982" lon="7.01757">
        <ele>1598</ele>
        <time>2022-07-26T08:32:43Z</time>
      </trkpt>
      <trkpt lat="44.09821" lon="7.01758">
        <ele>1598</ele>
        <time>2022-07-26T08:32:44Z</time>
      </trkpt>
      <trkpt lat="44.09822" lon="7.01759">
        <ele>1598</ele>
        <time>2022-07-26T08:32:45Z</time>
      </trkpt>
      <trkpt lat="44.09823" lon="7.0176">
        <ele>1598</ele>
        <time>2022-07-26T08:32:46Z</time>
      </trkpt>
      <trkpt lat="44.09824" lon="7.01761">
        <ele>1598</ele>
        <time>2022-07-26T08:32:47Z</time>
      </trkpt>
      <trkpt lat="44.09825" lon="7.01762">
        <ele>1598</ele>
        <time>2022-07-26T08:32:48Z</time>
      </trkpt>
      <trkpt lat="44.09825" lon="7.01763">
        <ele>1598</ele>
        <time>2022-07-26T08:32:49Z</time>
      </trkpt>
      <trkpt lat="44.09826" lon="7.01764">
        <ele>1598</ele>
        <time>2022-07-26T08:32:50Z</time>
      </trkpt>
      <trkpt lat="44.09826" lon="7.01765">
        <ele>1598</ele>
        <time>2022-07-26T08:32:51Z</time>
      </trkpt>
      <trkpt lat="44.09826" lon="7.01766">
        <ele>1598</ele>
        <time>2022-07-26T08:32:52Z</time>
      </trkpt>
      <trkpt lat="44.09826" lon="7.01767">
        <ele>1598</ele>
        <time>2022-07-26T08:32:53Z</time>
      </trkpt>
      <trkpt lat="44.09826" lon="7.01768">
        <ele>1598</ele>
        <time>2022-07-26T08:32:54Z</time>
      </trkpt>
      <trkpt lat="44.09826" lon="7.0177">
        <ele>1598</ele>
        <time>2022-07-26T08:32:55Z</time>
      </trkpt>
      <trkpt lat="44.09827" lon="7.01771">
        <ele>1598</ele>
        <time>2022-07-26T08:32:56Z</time>
      </trkpt>
      <trkpt lat="44.09827" lon="7.01772">
        <ele>1598</ele>
        <time>2022-07-26T08:32:57Z</time>
      </trkpt>
      <trkpt lat="44.09828" lon="7.01774">
        <ele>1598</ele>
        <time>2022-07-26T08:32:58Z</time>
      </trkpt>
      <trkpt lat="44.09828" lon="7.01775">
        <ele>1598</ele>
        <time>2022-07-26T08:32:59Z</time>
      </trkpt>
      <trkpt lat="44.09829" lon="7.01776">
        <ele>1598</ele>
        <time>2022-07-26T08:33:00Z</time>
      </trkpt>
      <trkpt lat="44.09829" lon="7.01777">
        <ele>1598</ele>
        <time>2022-07-26T08:33:01Z</time>
      </trkpt>
      <trkpt lat="44.09829" lon="7.01778">
        <ele>1598</ele>
        <time>2022-07-26T08:33:02Z</time>
      </trkpt>
      <trkpt lat="44.0983" lon="7.01778">
        <ele>1598</ele>
        <time>2022-07-26T08:33:03Z</time>
      </trkpt>
      <trkpt lat="44.09831" lon="7.01779">
        <ele>1598</ele>
        <time>2022-07-26T08:33:04Z</time>
      </trkpt>
      <trkpt lat="44.09831" lon="7.0178">
        <ele>1598</ele>
        <time>2022-07-26T08:33:05Z</time>
      </trkpt>
      <trkpt lat="44.09832" lon="7.0178">
        <ele>1598</ele>
        <time>2022-07-26T08:33:06Z</time>
      </trkpt>
      <trkpt lat="44.09833" lon="7.0178">
        <ele>1598</ele>
        <time>2022-07-26T08:33:07Z</time>
      </trkpt>
      <trkpt lat="44.09834" lon="7.01781">
        <ele>1598</ele>
        <time>2022-07-26T08:33:08Z</time>
      </trkpt>
      <trkpt lat="44.09835" lon="7.01781">
        <ele>1598</ele>
        <time>2022-07-26T08:33:09Z</time>
      </trkpt>
      <trkpt lat="44.09836" lon="7.01782">
        <ele>1598</ele>
        <time>2022-07-26T08:33:10Z</time>
      </trkpt>
      <trkpt lat="44.09837" lon="7.01782">
        <ele>1598</ele>
        <time>2022-07-26T08:33:11Z</time>
      </trkpt>
      <trkpt lat="44.09837" lon="7.01783">
        <ele>1598</ele>
        <time>2022-07-26T08:33:12Z</time>
      </trkpt>
      <trkpt lat="44.09838" lon="7.01784">
        <ele>1598</ele>
        <time>2022-07-26T08:33:13Z</time>
      </trkpt>
      <trkpt lat="44.09838" lon="7.01785">
        <ele>1598</ele>
        <time>2022-07-26T08:33:14Z</time>
      </trkpt>
      <trkpt lat="44.09839" lon="7.01786">
        <ele>1598</ele>
        <time>2022-07-26T08:33:15Z</time>
      </trkpt>
      <trkpt lat="44.0984" lon="7.01788">
        <ele>1598</ele>
        <time>2022-07-26T08:33:16Z</time>
      </trkpt>
      <trkpt lat="44.0984" lon="7.01789">
        <ele>1598</ele>
        <time>2022-07-26T08:33:17Z</time>
      </trkpt>
      <trkpt lat="44.09841" lon="7.0179">
        <ele>1598</ele>
        <time>2022-07-26T08:33:18Z</time>
      </trkpt>
      <trkpt lat="44.09842" lon="7.01791">
        <ele>1598</ele>
        <time>2022-07-26T08:33:19Z</time>
      </trkpt>
      <trkpt lat="44.09842" lon="7.01792">
        <ele>1598</ele>
        <time>2022-07-26T08:33:20Z</time>
      </trkpt>
      <trkpt lat="44.09843" lon="7.01792">
        <ele>1598</ele>
        <time>2022-07-26T08:33:21Z</time>
      </trkpt>
      <trkpt lat="44.09843" lon="7.01793">
        <ele>1599</ele>
        <time>2022-07-26T08:33:22Z</time>
      </trkpt>
      <trkpt lat="44.09844" lon="7.01793">
        <ele>1599</ele>
        <time>2022-07-26T08:33:23Z</time>
      </trkpt>
      <trkpt lat="44.09845" lon="7.01793">
        <ele>1599</ele>
        <time>2022-07-26T08:33:24Z</time>
      </trkpt>
      <trkpt lat="44.09846" lon="7.01794">
        <ele>1599</ele>
        <time>2022-07-26T08:33:25Z</time>
      </trkpt>
      <trkpt lat="44.09846" lon="7.01794">
        <ele>1599</ele>
        <time>2022-07-26T08:33:26Z</time>
      </trkpt>
      <trkpt lat="44.09847" lon="7.01795">
        <ele>1599</ele>
        <time>2022-07-26T08:33:27Z</time>
      </trkpt>
      <trkpt lat="44.09848" lon="7.01795">
        <ele>1599</ele>
        <time>2022-07-26T08:33:28Z</time>
      </trkpt>
      <trkpt lat="44.09848" lon="7.01795">
        <ele>1599</ele>
        <time>2022-07-26T08:33:29Z</time>
      </trkpt>
      <trkpt lat="44.09849" lon="7.01796">
        <ele>1599</ele>
        <time>2022-07-26T08:33:30Z</time>
      </trkpt>
      <trkpt lat="44.09849" lon="7.01796">
        <ele>1599</ele>
        <time>2022-07-26T08:33:31Z</time>
      </trkpt>
      <trkpt lat="44.0985" lon="7.01796">
        <ele>1599</ele>
        <time>2022-07-26T08:33:32Z</time>
      </trkpt>
      <trkpt lat="44.0985" lon="7.01796">
        <ele>1599</ele>
        <time>2022-07-26T08:33:33Z</time>
      </trkpt>
      <trkpt lat="44.09851" lon="7.01797">
        <ele>1599</ele>
        <time>2022-07-26T08:33:34Z</time>
      </trkpt>
      <trkpt lat="44.09852" lon="7.01797">
        <ele>1599</ele>
        <time>2022-07-26T08:33:35Z</time>
      </trkpt>
      <trkpt lat="44.09852" lon="7.01797">
        <ele>1599</ele>
        <time>2022-07-26T08:33:36Z</time>
      </trkpt>
      <trkpt lat="44.09853" lon="7.01798">
        <ele>1599</ele>
        <time>2022-07-26T08:33:37Z</time>
      </trkpt>
      <trkpt lat="44.09854" lon="7.01798">
        <ele>1599</ele>
        <time>2022-07-26T08:33:38Z</time>
      </trkpt>
      <trkpt lat="44.09855" lon="7.01799">
        <ele>1599</ele>
        <time>2022-07-26T08:33:39Z</time>
      </trkpt>
      <trkpt lat="44.09855" lon="7.01799">
        <ele>1599</ele>
        <time>2022-07-26T08:33:40Z</time>
      </trkpt>
      <trkpt lat="44.09856" lon="7.01799">
        <ele>1599</ele>
        <time>2022-07-26T08:33:41Z</time>
      </trkpt>
      <trkpt lat="44.09857" lon="7.01799">
        <ele>1600</ele>
        <time>2022-07-26T08:33:42Z</time>
      </trkpt>
      <trkpt lat="44.09858" lon="7.01799">
        <ele>1600</ele>
        <time>2022-07-26T08:33:43Z</time>
      </trkpt>
      <trkpt lat="44.09858" lon="7.01799">
        <ele>1600</ele>
        <time>2022-07-26T08:33:44Z</time>
      </trkpt>
      <trkpt lat="44.09859" lon="7.01799">
        <ele>1600</ele>
        <time>2022-07-26T08:33:45Z</time>
      </trkpt>
      <trkpt lat="44.0986" lon="7.018">
        <ele>1600</ele>
        <time>2022-07-26T08:33:46Z</time>
      </trkpt>
      <trkpt lat="44.09861" lon="7.018">
        <ele>1600</ele>
        <time>2022-07-26T08:33:47Z</time>
      </trkpt>
      <trkpt lat="44.09863" lon="7.01801">
        <ele>1600</ele>
        <time>2022-07-26T08:33:48Z</time>
      </trkpt>
      <trkpt lat="44.09863" lon="7.01802">
        <ele>1600</ele>
        <time>2022-07-26T08:33:49Z</time>
      </trkpt>
      <trkpt lat="44.09864" lon="7.01802">
        <ele>1600</ele>
        <time>2022-07-26T08:33:50Z</time>
      </trkpt>
      <trkpt lat="44.09865" lon="7.01803">
        <ele>1600</ele>
        <time>2022-07-26T08:33:51Z</time>
      </trkpt>
      <trkpt lat="44.09866" lon="7.01804">
        <ele>1601</ele>
        <time>2022-07-26T08:33:52Z</time>
      </trkpt>
      <trkpt lat="44.09866" lon="7.01805">
        <ele>1601</ele>
        <time>2022-07-26T08:33:53Z</time>
      </trkpt>
      <trkpt lat="44.09867" lon="7.01805">
        <ele>1601</ele>
        <time>2022-07-26T08:33:54Z</time>
      </trkpt>
      <trkpt lat="44.09868" lon="7.01806">
        <ele>1601</ele>
        <time>2022-07-26T08:33:55Z</time>
      </trkpt>
      <trkpt lat="44.09869" lon="7.01807">
        <ele>1601</ele>
        <time>2022-07-26T08:33:56Z</time>
      </trkpt>
      <trkpt lat="44.0987" lon="7.01808">
        <ele>1601</ele>
        <time>2022-07-26T08:33:57Z</time>
      </trkpt>
      <trkpt lat="44.09871" lon="7.01808">
        <ele>1601</ele>
        <time>2022-07-26T08:33:58Z</time>
      </trkpt>
      <trkpt lat="44.09872" lon="7.01809">
        <ele>1601</ele>
        <time>2022-07-26T08:33:59Z</time>
      </trkpt>
      <trkpt lat="44.09873" lon="7.0181">
        <ele>1601</ele>
        <time>2022-07-26T08:34:00Z</time>
      </trkpt>
      <trkpt lat="44.09874" lon="7.0181">
        <ele>1601</ele>
        <time>2022-07-26T08:34:01Z</time>
      </trkpt>
      <trkpt lat="44.09875" lon="7.0181">
        <ele>1601</ele>
        <time>2022-07-26T08:34:02Z</time>
      </trkpt>
      <trkpt lat="44.09876" lon="7.0181">
        <ele>1601</ele>
        <time>2022-07-26T08:34:03Z</time>
      </trkpt>
      <trkpt lat="44.09876" lon="7.0181">
        <ele>1601</ele>
        <time>2022-07-26T08:34:04Z</time>
      </trkpt>
      <trkpt lat="44.09877" lon="7.0181">
        <ele>1601</ele>
        <time>2022-07-26T08:34:05Z</time>
      </trkpt>
      <trkpt lat="44.09878" lon="7.0181">
        <ele>1601</ele>
        <time>2022-07-26T08:34:06Z</time>
      </trkpt>
      <trkpt lat="44.09879" lon="7.0181">
        <ele>1602</ele>
        <time>2022-07-26T08:34:07Z</time>
      </trkpt>
      <trkpt lat="44.0988" lon="7.01811">
        <ele>1602</ele>
        <time>2022-07-26T08:34:08Z</time>
      </trkpt>
      <trkpt lat="44.09881" lon="7.01811">
        <ele>1602</ele>
        <time>2022-07-26T08:34:09Z</time>
      </trkpt>
      <trkpt lat="44.09883" lon="7.01812">
        <ele>1602</ele>
        <time>2022-07-26T08:34:10Z</time>
      </trkpt>
      <trkpt lat="44.09884" lon="7.01814">
        <ele>1602</ele>
        <time>2022-07-26T08:34:11Z</time>
      </trkpt>
      <trkpt lat="44.09885" lon="7.01815">
        <ele>1602</ele>
        <time>2022-07-26T08:34:12Z</time>
      </trkpt>
      <trkpt lat="44.09886" lon="7.01816">
        <ele>1602</ele>
        <time>2022-07-26T08:34:13Z</time>
      </trkpt>
      <trkpt lat="44.09887" lon="7.01817">
        <ele>1602</ele>
        <time>2022-07-26T08:34:14Z</time>
      </trkpt>
      <trkpt lat="44.09888" lon="7.01818">
        <ele>1602</ele>
        <time>2022-07-26T08:34:15Z</time>
      </trkpt>
      <trkpt lat="44.09889" lon="7.01819">
        <ele>1602</ele>
        <time>2022-07-26T08:34:16Z</time>
      </trkpt>
      <trkpt lat="44.0989" lon="7.0182">
        <ele>1603</ele>
        <time>2022-07-26T08:34:17Z</time>
      </trkpt>
      <trkpt lat="44.09891" lon="7.0182">
        <ele>1603</ele>
        <time>2022-07-26T08:34:18Z</time>
      </trkpt>
      <trkpt lat="44.09892" lon="7.01821">
        <ele>1603</ele>
        <time>2022-07-26T08:34:19Z</time>
      </trkpt>
      <trkpt lat="44.09893" lon="7.01821">
        <ele>1603</ele>
        <time>2022-07-26T08:34:20Z</time>
      </trkpt>
      <trkpt lat="44.09894" lon="7.01821">
        <ele>1603</ele>
        <time>2022-07-26T08:34:21Z</time>
      </trkpt>
      <trkpt lat="44.09895" lon="7.0182">
        <ele>1603</ele>
        <time>2022-07-26T08:34:22Z</time>
      </trkpt>
      <trkpt lat="44.09897" lon="7.01821">
        <ele>1603</ele>
        <time>2022-07-26T08:34:23Z</time>
      </trkpt>
      <trkpt lat="44.09898" lon="7.01821">
        <ele>1603</ele>
        <time>2022-07-26T08:34:24Z</time>
      </trkpt>
      <trkpt lat="44.09899" lon="7.01821">
        <ele>1603</ele>
        <time>2022-07-26T08:34:25Z</time>
      </trkpt>
      <trkpt lat="44.099" lon="7.01822">
        <ele>1603</ele>
        <time>2022-07-26T08:34:26Z</time>
      </trkpt>
      <trkpt lat="44.09901" lon="7.01822">
        <ele>1603</ele>
        <time>2022-07-26T08:34:27Z</time>
      </trkpt>
      <trkpt lat="44.09902" lon="7.01823">
        <ele>1603</ele>
        <time>2022-07-26T08:34:28Z</time>
      </trkpt>
      <trkpt lat="44.09903" lon="7.01824">
        <ele>1603</ele>
        <time>2022-07-26T08:34:29Z</time>
      </trkpt>
      <trkpt lat="44.09904" lon="7.01826">
        <ele>1603</ele>
        <time>2022-07-26T08:34:30Z</time>
      </trkpt>
      <trkpt lat="44.09905" lon="7.01827">
        <ele>1603</ele>
        <time>2022-07-26T08:34:31Z</time>
      </trkpt>
      <trkpt lat="44.09906" lon="7.01828">
        <ele>1604</ele>
        <time>2022-07-26T08:34:32Z</time>
      </trkpt>
      <trkpt lat="44.09908" lon="7.01829">
        <ele>1604</ele>
        <time>2022-07-26T08:34:33Z</time>
      </trkpt>
      <trkpt lat="44.09909" lon="7.01829">
        <ele>1604</ele>
        <time>2022-07-26T08:34:34Z</time>
      </trkpt>
      <trkpt lat="44.0991" lon="7.0183">
        <ele>1604</ele>
        <time>2022-07-26T08:34:35Z</time>
      </trkpt>
      <trkpt lat="44.09911" lon="7.01831">
        <ele>1604</ele>
        <time>2022-07-26T08:34:36Z</time>
      </trkpt>
      <trkpt lat="44.09913" lon="7.01832">
        <ele>1604</ele>
        <time>2022-07-26T08:34:37Z</time>
      </trkpt>
      <trkpt lat="44.09914" lon="7.01832">
        <ele>1604</ele>
        <time>2022-07-26T08:34:38Z</time>
      </trkpt>
      <trkpt lat="44.09915" lon="7.01833">
        <ele>1604</ele>
        <time>2022-07-26T08:34:39Z</time>
      </trkpt>
      <trkpt lat="44.09916" lon="7.01834">
        <ele>1604</ele>
        <time>2022-07-26T08:34:40Z</time>
      </trkpt>
      <trkpt lat="44.09918" lon="7.01834">
        <ele>1604</ele>
        <time>2022-07-26T08:34:41Z</time>
      </trkpt>
      <trkpt lat="44.09919" lon="7.01834">
        <ele>1604</ele>
        <time>2022-07-26T08:34:42Z</time>
      </trkpt>
      <trkpt lat="44.0992" lon="7.01835">
        <ele>1604</ele>
        <time>2022-07-26T08:34:43Z</time>
      </trkpt>
      <trkpt lat="44.09921" lon="7.01835">
        <ele>1604</ele>
        <time>2022-07-26T08:34:44Z</time>
      </trkpt>
      <trkpt lat="44.09922" lon="7.01835">
        <ele>1604</ele>
        <time>2022-07-26T08:34:45Z</time>
      </trkpt>
      <trkpt lat="44.09924" lon="7.01835">
        <ele>1604</ele>
        <time>2022-07-26T08:34:46Z</time>
      </trkpt>
      <trkpt lat="44.09925" lon="7.01835">
        <ele>1605</ele>
        <time>2022-07-26T08:34:47Z</time>
      </trkpt>
      <trkpt lat="44.09926" lon="7.01835">
        <ele>1605</ele>
        <time>2022-07-26T08:34:48Z</time>
      </trkpt>
      <trkpt lat="44.09927" lon="7.01836">
        <ele>1605</ele>
        <time>2022-07-26T08:34:49Z</time>
      </trkpt>
      <trkpt lat="44.09928" lon="7.01836">
        <ele>1605</ele>
        <time>2022-07-26T08:34:50Z</time>
      </trkpt>
      <trkpt lat="44.0993" lon="7.01836">
        <ele>1605</ele>
        <time>2022-07-26T08:34:51Z</time>
      </trkpt>
      <trkpt lat="44.09931" lon="7.01836">
        <ele>1605</ele>
        <time>2022-07-26T08:34:52Z</time>
      </trkpt>
      <trkpt lat="44.09933" lon="7.01836">
        <ele>1605</ele>
        <time>2022-07-26T08:34:53Z</time>
      </trkpt>
      <trkpt lat="44.09934" lon="7.01836">
        <ele>1605</ele>
        <time>2022-07-26T08:34:54Z</time>
      </trkpt>
      <trkpt lat="44.09935" lon="7.01836">
        <ele>1605</ele>
        <time>2022-07-26T08:34:55Z</time>
      </trkpt>
      <trkpt lat="44.09937" lon="7.01836">
        <ele>1605</ele>
        <time>2022-07-26T08:34:56Z</time>
      </trkpt>
      <trkpt lat="44.09938" lon="7.01836">
        <ele>1606</ele>
        <time>2022-07-26T08:34:57Z</time>
      </trkpt>
      <trkpt lat="44.09939" lon="7.01836">
        <ele>1606</ele>
        <time>2022-07-26T08:34:58Z</time>
      </trkpt>
      <trkpt lat="44.09939" lon="7.01837">
        <ele>1606</ele>
        <time>2022-07-26T08:34:59Z</time>
      </trkpt>
      <trkpt lat="44.0994" lon="7.01837">
        <ele>1606</ele>
        <time>2022-07-26T08:35:00Z</time>
      </trkpt>
      <trkpt lat="44.09941" lon="7.01837">
        <ele>1606</ele>
        <time>2022-07-26T08:35:01Z</time>
      </trkpt>
      <trkpt lat="44.09942" lon="7.01837">
        <ele>1606</ele>
        <time>2022-07-26T08:35:02Z</time>
      </trkpt>
      <trkpt lat="44.09943" lon="7.01838">
        <ele>1606</ele>
        <time>2022-07-26T08:35:03Z</time>
      </trkpt>
      <trkpt lat="44.09944" lon="7.01839">
        <ele>1606</ele>
        <time>2022-07-26T08:35:04Z</time>
      </trkpt>
      <trkpt lat="44.09945" lon="7.0184">
        <ele>1606</ele>
        <time>2022-07-26T08:35:05Z</time>
      </trkpt>
      <trkpt lat="44.09946" lon="7.0184">
        <ele>1606</ele>
        <time>2022-07-26T08:35:06Z</time>
      </trkpt>
      <trkpt lat="44.09947" lon="7.01841">
        <ele>1606</ele>
        <time>2022-07-26T08:35:07Z</time>
      </trkpt>
      <trkpt lat="44.09947" lon="7.01842">
        <ele>1606</ele>
        <time>2022-07-26T08:35:08Z</time>
      </trkpt>
      <trkpt lat="44.09948" lon="7.01843">
        <ele>1606</ele>
        <time>2022-07-26T08:35:09Z</time>
      </trkpt>
      <trkpt lat="44.09949" lon="7.01844">
        <ele>1606</ele>
        <time>2022-07-26T08:35:10Z</time>
      </trkpt>
      <trkpt lat="44.09949" lon="7.01845">
        <ele>1606</ele>
        <time>2022-07-26T08:35:11Z</time>
      </trkpt>
      <trkpt lat="44.0995" lon="7.01846">
        <ele>1607</ele>
        <time>2022-07-26T08:35:12Z</time>
      </trkpt>
      <trkpt lat="44.09951" lon="7.01847">
        <ele>1607</ele>
        <time>2022-07-26T08:35:13Z</time>
      </trkpt>
      <trkpt lat="44.09951" lon="7.01848">
        <ele>1607</ele>
        <time>2022-07-26T08:35:14Z</time>
      </trkpt>
      <trkpt lat="44.09952" lon="7.0185">
        <ele>1607</ele>
        <time>2022-07-26T08:35:15Z</time>
      </trkpt>
      <trkpt lat="44.09953" lon="7.01851">
        <ele>1607</ele>
        <time>2022-07-26T08:35:16Z</time>
      </trkpt>
      <trkpt lat="44.09953" lon="7.01852">
        <ele>1607</ele>
        <time>2022-07-26T08:35:17Z</time>
      </trkpt>
      <trkpt lat="44.09954" lon="7.01853">
        <ele>1607</ele>
        <time>2022-07-26T08:35:18Z</time>
      </trkpt>
      <trkpt lat="44.09955" lon="7.01855">
        <ele>1607</ele>
        <time>2022-07-26T08:35:19Z</time>
      </trkpt>
      <trkpt lat="44.09955" lon="7.01856">
        <ele>1607</ele>
        <time>2022-07-26T08:35:20Z</time>
      </trkpt>
      <trkpt lat="44.09956" lon="7.01857">
        <ele>1607</ele>
        <time>2022-07-26T08:35:21Z</time>
      </trkpt>
      <trkpt lat="44.09957" lon="7.01857">
        <ele>1608</ele>
        <time>2022-07-26T08:35:22Z</time>
      </trkpt>
      <trkpt lat="44.09957" lon="7.01858">
        <ele>1608</ele>
        <time>2022-07-26T08:35:23Z</time>
      </trkpt>
      <trkpt lat="44.09958" lon="7.01859">
        <ele>1608</ele>
        <time>2022-07-26T08:35:24Z</time>
      </trkpt>
      <trkpt lat="44.09959" lon="7.0186">
        <ele>1608</ele>
        <time>2022-07-26T08:35:25Z</time>
      </trkpt>
      <trkpt lat="44.09959" lon="7.01862">
        <ele>1608</ele>
        <time>2022-07-26T08:35:26Z</time>
      </trkpt>
      <trkpt lat="44.0996" lon="7.01863">
        <ele>1608</ele>
        <time>2022-07-26T08:35:27Z</time>
      </trkpt>
      <trkpt lat="44.0996" lon="7.01864">
        <ele>1608</ele>
        <time>2022-07-26T08:35:28Z</time>
      </trkpt>
      <trkpt lat="44.09961" lon="7.01865">
        <ele>1608</ele>
        <time>2022-07-26T08:35:29Z</time>
      </trkpt>
      <trkpt lat="44.09962" lon="7.01866">
        <ele>1609</ele>
        <time>2022-07-26T08:35:30Z</time>
      </trkpt>
      <trkpt lat="44.09963" lon="7.01866">
        <ele>1609</ele>
        <time>2022-07-26T08:35:31Z</time>
      </trkpt>
      <trkpt lat="44.09963" lon="7.01867">
        <ele>1610</ele>
        <time>2022-07-26T08:35:32Z</time>
      </trkpt>
      <trkpt lat="44.09964" lon="7.01868">
        <ele>1610</ele>
        <time>2022-07-26T08:35:33Z</time>
      </trkpt>
      <trkpt lat="44.09965" lon="7.01869">
        <ele>1610</ele>
        <time>2022-07-26T08:35:34Z</time>
      </trkpt>
      <trkpt lat="44.09966" lon="7.0187">
        <ele>1610</ele>
        <time>2022-07-26T08:35:35Z</time>
      </trkpt>
      <trkpt lat="44.09967" lon="7.0187">
        <ele>1610</ele>
        <time>2022-07-26T08:35:36Z</time>
      </trkpt>
      <trkpt lat="44.09967" lon="7.01871">
        <ele>1610</ele>
        <time>2022-07-26T08:35:37Z</time>
      </trkpt>
      <trkpt lat="44.09968" lon="7.01872">
        <ele>1610</ele>
        <time>2022-07-26T08:35:38Z</time>
      </trkpt>
      <trkpt lat="44.09968" lon="7.01873">
        <ele>1610</ele>
        <time>2022-07-26T08:35:39Z</time>
      </trkpt>
      <trkpt lat="44.09969" lon="7.01874">
        <ele>1610</ele>
        <time>2022-07-26T08:35:40Z</time>
      </trkpt>
      <trkpt lat="44.0997" lon="7.01876">
        <ele>1610</ele>
        <time>2022-07-26T08:35:41Z</time>
      </trkpt>
      <trkpt lat="44.0997" lon="7.01877">
        <ele>1611</ele>
        <time>2022-07-26T08:35:42Z</time>
      </trkpt>
      <trkpt lat="44.09971" lon="7.01878">
        <ele>1611</ele>
        <time>2022-07-26T08:35:43Z</time>
      </trkpt>
      <trkpt lat="44.09972" lon="7.01879">
        <ele>1611</ele>
        <time>2022-07-26T08:35:44Z</time>
      </trkpt>
      <trkpt lat="44.09973" lon="7.0188">
        <ele>1611</ele>
        <time>2022-07-26T08:35:45Z</time>
      </trkpt>
      <trkpt lat="44.09974" lon="7.0188">
        <ele>1611</ele>
        <time>2022-07-26T08:35:46Z</time>
      </trkpt>
      <trkpt lat="44.09975" lon="7.01881">
        <ele>1611</ele>
        <time>2022-07-26T08:35:47Z</time>
      </trkpt>
      <trkpt lat="44.09976" lon="7.01882">
        <ele>1611</ele>
        <time>2022-07-26T08:35:48Z</time>
      </trkpt>
      <trkpt lat="44.09977" lon="7.01883">
        <ele>1611</ele>
        <time>2022-07-26T08:35:49Z</time>
      </trkpt>
      <trkpt lat="44.09979" lon="7.01884">
        <ele>1611</ele>
        <time>2022-07-26T08:35:50Z</time>
      </trkpt>
      <trkpt lat="44.09979" lon="7.01885">
        <ele>1611</ele>
        <time>2022-07-26T08:35:51Z</time>
      </trkpt>
      <trkpt lat="44.0998" lon="7.01886">
        <ele>1612</ele>
        <time>2022-07-26T08:35:52Z</time>
      </trkpt>
      <trkpt lat="44.09981" lon="7.01887">
        <ele>1612</ele>
        <time>2022-07-26T08:35:53Z</time>
      </trkpt>
      <trkpt lat="44.09981" lon="7.01889">
        <ele>1612</ele>
        <time>2022-07-26T08:35:54Z</time>
      </trkpt>
      <trkpt lat="44.09981" lon="7.0189">
        <ele>1612</ele>
        <time>2022-07-26T08:35:55Z</time>
      </trkpt>
      <trkpt lat="44.09981" lon="7.01892">
        <ele>1612</ele>
        <time>2022-07-26T08:35:56Z</time>
      </trkpt>
      <trkpt lat="44.09982" lon="7.01893">
        <ele>1612</ele>
        <time>2022-07-26T08:35:57Z</time>
      </trkpt>
      <trkpt lat="44.09982" lon="7.01894">
        <ele>1612</ele>
        <time>2022-07-26T08:35:58Z</time>
      </trkpt>
      <trkpt lat="44.09983" lon="7.01896">
        <ele>1612</ele>
        <time>2022-07-26T08:35:59Z</time>
      </trkpt>
      <trkpt lat="44.09983" lon="7.01897">
        <ele>1612</ele>
        <time>2022-07-26T08:36:00Z</time>
      </trkpt>
      <trkpt lat="44.09984" lon="7.01898">
        <ele>1612</ele>
        <time>2022-07-26T08:36:01Z</time>
      </trkpt>
      <trkpt lat="44.09985" lon="7.01899">
        <ele>1612</ele>
        <time>2022-07-26T08:36:02Z</time>
      </trkpt>
      <trkpt lat="44.09986" lon="7.019">
        <ele>1612</ele>
        <time>2022-07-26T08:36:03Z</time>
      </trkpt>
      <trkpt lat="44.09987" lon="7.01901">
        <ele>1612</ele>
        <time>2022-07-26T08:36:04Z</time>
      </trkpt>
      <trkpt lat="44.09988" lon="7.01902">
        <ele>1612</ele>
        <time>2022-07-26T08:36:05Z</time>
      </trkpt>
      <trkpt lat="44.09989" lon="7.01902">
        <ele>1612</ele>
        <time>2022-07-26T08:36:06Z</time>
      </trkpt>
      <trkpt lat="44.09991" lon="7.01902">
        <ele>1613</ele>
        <time>2022-07-26T08:36:07Z</time>
      </trkpt>
      <trkpt lat="44.09992" lon="7.01902">
        <ele>1613</ele>
        <time>2022-07-26T08:36:08Z</time>
      </trkpt>
      <trkpt lat="44.09993" lon="7.01902">
        <ele>1613</ele>
        <time>2022-07-26T08:36:09Z</time>
      </trkpt>
      <trkpt lat="44.09995" lon="7.01902">
        <ele>1613</ele>
        <time>2022-07-26T08:36:10Z</time>
      </trkpt>
      <trkpt lat="44.09996" lon="7.01902">
        <ele>1613</ele>
        <time>2022-07-26T08:36:11Z</time>
      </trkpt>
      <trkpt lat="44.09997" lon="7.01902">
        <ele>1613</ele>
        <time>2022-07-26T08:36:12Z</time>
      </trkpt>
      <trkpt lat="44.09999" lon="7.01903">
        <ele>1613</ele>
        <time>2022-07-26T08:36:13Z</time>
      </trkpt>
      <trkpt lat="44.1" lon="7.01903">
        <ele>1613</ele>
        <time>2022-07-26T08:36:14Z</time>
      </trkpt>
      <trkpt lat="44.10001" lon="7.01903">
        <ele>1613</ele>
        <time>2022-07-26T08:36:15Z</time>
      </trkpt>
      <trkpt lat="44.10003" lon="7.01904">
        <ele>1613</ele>
        <time>2022-07-26T08:36:16Z</time>
      </trkpt>
      <trkpt lat="44.10004" lon="7.01904">
        <ele>1613</ele>
        <time>2022-07-26T08:36:17Z</time>
      </trkpt>
      <trkpt lat="44.10005" lon="7.01904">
        <ele>1613</ele>
        <time>2022-07-26T08:36:18Z</time>
      </trkpt>
      <trkpt lat="44.10006" lon="7.01904">
        <ele>1613</ele>
        <time>2022-07-26T08:36:19Z</time>
      </trkpt>
      <trkpt lat="44.10007" lon="7.01905">
        <ele>1613</ele>
        <time>2022-07-26T08:36:20Z</time>
      </trkpt>
      <trkpt lat="44.10008" lon="7.01905">
        <ele>1613</ele>
        <time>2022-07-26T08:36:21Z</time>
      </trkpt>
      <trkpt lat="44.10009" lon="7.01905">
        <ele>1614</ele>
        <time>2022-07-26T08:36:22Z</time>
      </trkpt>
      <trkpt lat="44.10011" lon="7.01905">
        <ele>1614</ele>
        <time>2022-07-26T08:36:23Z</time>
      </trkpt>
      <trkpt lat="44.10012" lon="7.01906">
        <ele>1614</ele>
        <time>2022-07-26T08:36:24Z</time>
      </trkpt>
      <trkpt lat="44.10013" lon="7.01906">
        <ele>1614</ele>
        <time>2022-07-26T08:36:25Z</time>
      </trkpt>
      <trkpt lat="44.10014" lon="7.01907">
        <ele>1614</ele>
        <time>2022-07-26T08:36:26Z</time>
      </trkpt>
      <trkpt lat="44.10015" lon="7.01907">
        <ele>1614</ele>
        <time>2022-07-26T08:36:27Z</time>
      </trkpt>
      <trkpt lat="44.10016" lon="7.01908">
        <ele>1614</ele>
        <time>2022-07-26T08:36:28Z</time>
      </trkpt>
      <trkpt lat="44.10017" lon="7.01909">
        <ele>1614</ele>
        <time>2022-07-26T08:36:29Z</time>
      </trkpt>
      <trkpt lat="44.10018" lon="7.01909">
        <ele>1614</ele>
        <time>2022-07-26T08:36:30Z</time>
      </trkpt>
      <trkpt lat="44.10019" lon="7.0191">
        <ele>1614</ele>
        <time>2022-07-26T08:36:31Z</time>
      </trkpt>
      <trkpt lat="44.1002" lon="7.01911">
        <ele>1615</ele>
        <time>2022-07-26T08:36:32Z</time>
      </trkpt>
      <trkpt lat="44.10021" lon="7.01912">
        <ele>1615</ele>
        <time>2022-07-26T08:36:33Z</time>
      </trkpt>
      <trkpt lat="44.10022" lon="7.01913">
        <ele>1615</ele>
        <time>2022-07-26T08:36:34Z</time>
      </trkpt>
      <trkpt lat="44.10023" lon="7.01914">
        <ele>1615</ele>
        <time>2022-07-26T08:36:35Z</time>
      </trkpt>
      <trkpt lat="44.10024" lon="7.01914">
        <ele>1615</ele>
        <time>2022-07-26T08:36:36Z</time>
      </trkpt>
      <trkpt lat="44.10025" lon="7.01915">
        <ele>1615</ele>
        <time>2022-07-26T08:36:37Z</time>
      </trkpt>
      <trkpt lat="44.10026" lon="7.01916">
        <ele>1615</ele>
        <time>2022-07-26T08:36:38Z</time>
      </trkpt>
      <trkpt lat="44.10027" lon="7.01917">
        <ele>1615</ele>
        <time>2022-07-26T08:36:39Z</time>
      </trkpt>
      <trkpt lat="44.10028" lon="7.01917">
        <ele>1615</ele>
        <time>2022-07-26T08:36:40Z</time>
      </trkpt>
      <trkpt lat="44.10029" lon="7.01918">
        <ele>1615</ele>
        <time>2022-07-26T08:36:41Z</time>
      </trkpt>
      <trkpt lat="44.1003" lon="7.01918">
        <ele>1615</ele>
        <time>2022-07-26T08:36:42Z</time>
      </trkpt>
      <trkpt lat="44.10031" lon="7.01919">
        <ele>1615</ele>
        <time>2022-07-26T08:36:43Z</time>
      </trkpt>
      <trkpt lat="44.10032" lon="7.0192">
        <ele>1615</ele>
        <time>2022-07-26T08:36:44Z</time>
      </trkpt>
      <trkpt lat="44.10033" lon="7.01921">
        <ele>1615</ele>
        <time>2022-07-26T08:36:45Z</time>
      </trkpt>
      <trkpt lat="44.10034" lon="7.01922">
        <ele>1615</ele>
        <time>2022-07-26T08:36:46Z</time>
      </trkpt>
      <trkpt lat="44.10034" lon="7.01923">
        <ele>1616</ele>
        <time>2022-07-26T08:36:47Z</time>
      </trkpt>
      <trkpt lat="44.10034" lon="7.01925">
        <ele>1616</ele>
        <time>2022-07-26T08:36:48Z</time>
      </trkpt>
      <trkpt lat="44.10035" lon="7.01926">
        <ele>1616</ele>
        <time>2022-07-26T08:36:49Z</time>
      </trkpt>
      <trkpt lat="44.10035" lon="7.01928">
        <ele>1616</ele>
        <time>2022-07-26T08:36:50Z</time>
      </trkpt>
      <trkpt lat="44.10036" lon="7.0193">
        <ele>1616</ele>
        <time>2022-07-26T08:36:51Z</time>
      </trkpt>
      <trkpt lat="44.10036" lon="7.01931">
        <ele>1616</ele>
        <time>2022-07-26T08:36:52Z</time>
      </trkpt>
      <trkpt lat="44.10037" lon="7.01933">
        <ele>1616</ele>
        <time>2022-07-26T08:36:53Z</time>
      </trkpt>
      <trkpt lat="44.10037" lon="7.01934">
        <ele>1616</ele>
        <time>2022-07-26T08:36:54Z</time>
      </trkpt>
      <trkpt lat="44.10038" lon="7.01935">
        <ele>1616</ele>
        <time>2022-07-26T08:36:55Z</time>
      </trkpt>
      <trkpt lat="44.10038" lon="7.01937">
        <ele>1616</ele>
        <time>2022-07-26T08:36:56Z</time>
      </trkpt>
      <trkpt lat="44.10039" lon="7.01938">
        <ele>1617</ele>
        <time>2022-07-26T08:36:57Z</time>
      </trkpt>
      <trkpt lat="44.10039" lon="7.01939">
        <ele>1617</ele>
        <time>2022-07-26T08:36:58Z</time>
      </trkpt>
      <trkpt lat="44.1004" lon="7.0194">
        <ele>1617</ele>
        <time>2022-07-26T08:36:59Z</time>
      </trkpt>
      <trkpt lat="44.10041" lon="7.01942">
        <ele>1617</ele>
        <time>2022-07-26T08:37:00Z</time>
      </trkpt>
      <trkpt lat="44.10041" lon="7.01943">
        <ele>1617</ele>
        <time>2022-07-26T08:37:01Z</time>
      </trkpt>
      <trkpt lat="44.10042" lon="7.01944">
        <ele>1617</ele>
        <time>2022-07-26T08:37:02Z</time>
      </trkpt>
      <trkpt lat="44.10042" lon="7.01945">
        <ele>1617</ele>
        <time>2022-07-26T08:37:03Z</time>
      </trkpt>
      <trkpt lat="44.10043" lon="7.01947">
        <ele>1617</ele>
        <time>2022-07-26T08:37:04Z</time>
      </trkpt>
      <trkpt lat="44.10043" lon="7.01948">
        <ele>1617</ele>
        <time>2022-07-26T08:37:05Z</time>
      </trkpt>
      <trkpt lat="44.10044" lon="7.01949">
        <ele>1617</ele>
        <time>2022-07-26T08:37:06Z</time>
      </trkpt>
      <trkpt lat="44.10044" lon="7.01951">
        <ele>1618</ele>
        <time>2022-07-26T08:37:07Z</time>
      </trkpt>
      <trkpt lat="44.10045" lon="7.01952">
        <ele>1618</ele>
        <time>2022-07-26T08:37:08Z</time>
      </trkpt>
      <trkpt lat="44.10045" lon="7.01954">
        <ele>1618</ele>
        <time>2022-07-26T08:37:09Z</time>
      </trkpt>
      <trkpt lat="44.10046" lon="7.01955">
        <ele>1618</ele>
        <time>2022-07-26T08:37:10Z</time>
      </trkpt>
      <trkpt lat="44.10047" lon="7.01956">
        <ele>1618</ele>
        <time>2022-07-26T08:37:11Z</time>
      </trkpt>
      <trkpt lat="44.10047" lon="7.01958">
        <ele>1618</ele>
        <time>2022-07-26T08:37:12Z</time>
      </trkpt>
      <trkpt lat="44.10048" lon="7.01959">
        <ele>1618</ele>
        <time>2022-07-26T08:37:13Z</time>
      </trkpt>
      <trkpt lat="44.10048" lon="7.0196">
        <ele>1618</ele>
        <time>2022-07-26T08:37:14Z</time>
      </trkpt>
      <trkpt lat="44.10049" lon="7.01961">
        <ele>1618</ele>
        <time>2022-07-26T08:37:15Z</time>
      </trkpt>
      <trkpt lat="44.10049" lon="7.01963">
        <ele>1618</ele>
        <time>2022-07-26T08:37:16Z</time>
      </trkpt>
      <trkpt lat="44.1005" lon="7.01964">
        <ele>1619</ele>
        <time>2022-07-26T08:37:17Z</time>
      </trkpt>
      <trkpt lat="44.1005" lon="7.01965">
        <ele>1619</ele>
        <time>2022-07-26T08:37:18Z</time>
      </trkpt>
      <trkpt lat="44.1005" lon="7.01967">
        <ele>1619</ele>
        <time>2022-07-26T08:37:19Z</time>
      </trkpt>
      <trkpt lat="44.1005" lon="7.01968">
        <ele>1619</ele>
        <time>2022-07-26T08:37:20Z</time>
      </trkpt>
      <trkpt lat="44.10051" lon="7.0197">
        <ele>1619</ele>
        <time>2022-07-26T08:37:21Z</time>
      </trkpt>
      <trkpt lat="44.10051" lon="7.01971">
        <ele>1619</ele>
        <time>2022-07-26T08:37:22Z</time>
      </trkpt>
      <trkpt lat="44.10051" lon="7.01973">
        <ele>1619</ele>
        <time>2022-07-26T08:37:23Z</time>
      </trkpt>
      <trkpt lat="44.10051" lon="7.01975">
        <ele>1619</ele>
        <time>2022-07-26T08:37:24Z</time>
      </trkpt>
      <trkpt lat="44.10051" lon="7.01976">
        <ele>1619</ele>
        <time>2022-07-26T08:37:25Z</time>
      </trkpt>
      <trkpt lat="44.10052" lon="7.01978">
        <ele>1619</ele>
        <time>2022-07-26T08:37:26Z</time>
      </trkpt>
      <trkpt lat="44.10052" lon="7.01979">
        <ele>1620</ele>
        <time>2022-07-26T08:37:27Z</time>
      </trkpt>
      <trkpt lat="44.10053" lon="7.01981">
        <ele>1620</ele>
        <time>2022-07-26T08:37:28Z</time>
      </trkpt>
      <trkpt lat="44.10053" lon="7.01982">
        <ele>1620</ele>
        <time>2022-07-26T08:37:29Z</time>
      </trkpt>
      <trkpt lat="44.10054" lon="7.01983">
        <ele>1620</ele>
        <time>2022-07-26T08:37:30Z</time>
      </trkpt>
      <trkpt lat="44.10055" lon="7.01985">
        <ele>1620</ele>
        <time>2022-07-26T08:37:31Z</time>
      </trkpt>
      <trkpt lat="44.10055" lon="7.01986">
        <ele>1620</ele>
        <time>2022-07-26T08:37:32Z</time>
      </trkpt>
      <trkpt lat="44.10056" lon="7.01988">
        <ele>1620</ele>
        <time>2022-07-26T08:37:33Z</time>
      </trkpt>
      <trkpt lat="44.10056" lon="7.01989">
        <ele>1620</ele>
        <time>2022-07-26T08:37:34Z</time>
      </trkpt>
      <trkpt lat="44.10056" lon="7.0199">
        <ele>1620</ele>
        <time>2022-07-26T08:37:35Z</time>
      </trkpt>
      <trkpt lat="44.10057" lon="7.01992">
        <ele>1620</ele>
        <time>2022-07-26T08:37:36Z</time>
      </trkpt>
      <trkpt lat="44.10057" lon="7.01993">
        <ele>1621</ele>
        <time>2022-07-26T08:37:37Z</time>
      </trkpt>
      <trkpt lat="44.10058" lon="7.01995">
        <ele>1621</ele>
        <time>2022-07-26T08:37:38Z</time>
      </trkpt>
      <trkpt lat="44.10058" lon="7.01996">
        <ele>1621</ele>
        <time>2022-07-26T08:37:39Z</time>
      </trkpt>
      <trkpt lat="44.10059" lon="7.01998">
        <ele>1621</ele>
        <time>2022-07-26T08:37:40Z</time>
      </trkpt>
      <trkpt lat="44.10059" lon="7.01999">
        <ele>1621</ele>
        <time>2022-07-26T08:37:41Z</time>
      </trkpt>
      <trkpt lat="44.1006" lon="7.02001">
        <ele>1621</ele>
        <time>2022-07-26T08:37:42Z</time>
      </trkpt>
      <trkpt lat="44.1006" lon="7.02002">
        <ele>1621</ele>
        <time>2022-07-26T08:37:43Z</time>
      </trkpt>
      <trkpt lat="44.10061" lon="7.02004">
        <ele>1621</ele>
        <time>2022-07-26T08:37:44Z</time>
      </trkpt>
      <trkpt lat="44.10061" lon="7.02005">
        <ele>1621</ele>
        <time>2022-07-26T08:37:45Z</time>
      </trkpt>
      <trkpt lat="44.10062" lon="7.02006">
        <ele>1621</ele>
        <time>2022-07-26T08:37:46Z</time>
      </trkpt>
      <trkpt lat="44.10062" lon="7.02008">
        <ele>1622</ele>
        <time>2022-07-26T08:37:47Z</time>
      </trkpt>
      <trkpt lat="44.10063" lon="7.02009">
        <ele>1622</ele>
        <time>2022-07-26T08:37:48Z</time>
      </trkpt>
      <trkpt lat="44.10064" lon="7.0201">
        <ele>1622</ele>
        <time>2022-07-26T08:37:49Z</time>
      </trkpt>
      <trkpt lat="44.10064" lon="7.02011">
        <ele>1622</ele>
        <time>2022-07-26T08:37:50Z</time>
      </trkpt>
      <trkpt lat="44.10065" lon="7.02012">
        <ele>1622</ele>
        <time>2022-07-26T08:37:51Z</time>
      </trkpt>
      <trkpt lat="44.10066" lon="7.02014">
        <ele>1622</ele>
        <time>2022-07-26T08:37:52Z</time>
      </trkpt>
      <trkpt lat="44.10066" lon="7.02015">
        <ele>1622</ele>
        <time>2022-07-26T08:37:53Z</time>
      </trkpt>
      <trkpt lat="44.10067" lon="7.02016">
        <ele>1622</ele>
        <time>2022-07-26T08:37:54Z</time>
      </trkpt>
      <trkpt lat="44.10068" lon="7.02017">
        <ele>1622</ele>
        <time>2022-07-26T08:37:55Z</time>
      </trkpt>
      <trkpt lat="44.10069" lon="7.02018">
        <ele>1622</ele>
        <time>2022-07-26T08:37:56Z</time>
      </trkpt>
      <trkpt lat="44.1007" lon="7.02019">
        <ele>1622</ele>
        <time>2022-07-26T08:37:57Z</time>
      </trkpt>
      <trkpt lat="44.10071" lon="7.0202">
        <ele>1622</ele>
        <time>2022-07-26T08:37:58Z</time>
      </trkpt>
      <trkpt lat="44.10072" lon="7.02021">
        <ele>1622</ele>
        <time>2022-07-26T08:37:59Z</time>
      </trkpt>
      <trkpt lat="44.10072" lon="7.02022">
        <ele>1622</ele>
        <time>2022-07-26T08:38:00Z</time>
      </trkpt>
      <trkpt lat="44.10073" lon="7.02023">
        <ele>1622</ele>
        <time>2022-07-26T08:38:01Z</time>
      </trkpt>
      <trkpt lat="44.10074" lon="7.02024">
        <ele>1623</ele>
        <time>2022-07-26T08:38:02Z</time>
      </trkpt>
      <trkpt lat="44.10075" lon="7.02025">
        <ele>1623</ele>
        <time>2022-07-26T08:38:03Z</time>
      </trkpt>
      <trkpt lat="44.10076" lon="7.02026">
        <ele>1623</ele>
        <time>2022-07-26T08:38:04Z</time>
      </trkpt>
      <trkpt lat="44.10077" lon="7.02027">
        <ele>1623</ele>
        <time>2022-07-26T08:38:05Z</time>
      </trkpt>
      <trkpt lat="44.10077" lon="7.02028">
        <ele>1623</ele>
        <time>2022-07-26T08:38:06Z</time>
      </trkpt>
      <trkpt lat="44.10078" lon="7.02029">
        <ele>1623</ele>
        <time>2022-07-26T08:38:07Z</time>
      </trkpt>
      <trkpt lat="44.10078" lon="7.0203">
        <ele>1623</ele>
        <time>2022-07-26T08:38:08Z</time>
      </trkpt>
      <trkpt lat="44.10079" lon="7.02031">
        <ele>1623</ele>
        <time>2022-07-26T08:38:09Z</time>
      </trkpt>
      <trkpt lat="44.10079" lon="7.02033">
        <ele>1623</ele>
        <time>2022-07-26T08:38:10Z</time>
      </trkpt>
      <trkpt lat="44.1008" lon="7.02034">
        <ele>1623</ele>
        <time>2022-07-26T08:38:11Z</time>
      </trkpt>
      <trkpt lat="44.1008" lon="7.02035">
        <ele>1623</ele>
        <time>2022-07-26T08:38:12Z</time>
      </trkpt>
      <trkpt lat="44.10081" lon="7.02036">
        <ele>1623</ele>
        <time>2022-07-26T08:38:13Z</time>
      </trkpt>
      <trkpt lat="44.10081" lon="7.02037">
        <ele>1623</ele>
        <time>2022-07-26T08:38:14Z</time>
      </trkpt>
      <trkpt lat="44.10082" lon="7.02039">
        <ele>1623</ele>
        <time>2022-07-26T08:38:15Z</time>
      </trkpt>
      <trkpt lat="44.10082" lon="7.0204">
        <ele>1623</ele>
        <time>2022-07-26T08:38:16Z</time>
      </trkpt>
      <trkpt lat="44.10082" lon="7.02041">
        <ele>1624</ele>
        <time>2022-07-26T08:38:17Z</time>
      </trkpt>
      <trkpt lat="44.10083" lon="7.02042">
        <ele>1624</ele>
        <time>2022-07-26T08:38:18Z</time>
      </trkpt>
      <trkpt lat="44.10083" lon="7.02044">
        <ele>1624</ele>
        <time>2022-07-26T08:38:19Z</time>
      </trkpt>
      <trkpt lat="44.10083" lon="7.02045">
        <ele>1624</ele>
        <time>2022-07-26T08:38:20Z</time>
      </trkpt>
      <trkpt lat="44.10084" lon="7.02046">
        <ele>1624</ele>
        <time>2022-07-26T08:38:21Z</time>
      </trkpt>
      <trkpt lat="44.10084" lon="7.02047">
        <ele>1624</ele>
        <time>2022-07-26T08:38:22Z</time>
      </trkpt>
      <trkpt lat="44.10085" lon="7.02048">
        <ele>1624</ele>
        <time>2022-07-26T08:38:23Z</time>
      </trkpt>
      <trkpt lat="44.10086" lon="7.02049">
        <ele>1624</ele>
        <time>2022-07-26T08:38:24Z</time>
      </trkpt>
      <trkpt lat="44.10086" lon="7.0205">
        <ele>1624</ele>
        <time>2022-07-26T08:38:25Z</time>
      </trkpt>
      <trkpt lat="44.10087" lon="7.02052">
        <ele>1624</ele>
        <time>2022-07-26T08:38:26Z</time>
      </trkpt>
      <trkpt lat="44.10087" lon="7.02053">
        <ele>1625</ele>
        <time>2022-07-26T08:38:27Z</time>
      </trkpt>
      <trkpt lat="44.10088" lon="7.02054">
        <ele>1625</ele>
        <time>2022-07-26T08:38:28Z</time>
      </trkpt>
      <trkpt lat="44.10088" lon="7.02056">
        <ele>1625</ele>
        <time>2022-07-26T08:38:29Z</time>
      </trkpt>
      <trkpt lat="44.10089" lon="7.02057">
        <ele>1625</ele>
        <time>2022-07-26T08:38:30Z</time>
      </trkpt>
      <trkpt lat="44.10089" lon="7.02059">
        <ele>1625</ele>
        <time>2022-07-26T08:38:31Z</time>
      </trkpt>
      <trkpt lat="44.10089" lon="7.0206">
        <ele>1625</ele>
        <time>2022-07-26T08:38:32Z</time>
      </trkpt>
      <trkpt lat="44.1009" lon="7.02062">
        <ele>1625</ele>
        <time>2022-07-26T08:38:33Z</time>
      </trkpt>
      <trkpt lat="44.1009" lon="7.02063">
        <ele>1625</ele>
        <time>2022-07-26T08:38:34Z</time>
      </trkpt>
      <trkpt lat="44.10091" lon="7.02065">
        <ele>1625</ele>
        <time>2022-07-26T08:38:35Z</time>
      </trkpt>
      <trkpt lat="44.10091" lon="7.02066">
        <ele>1625</ele>
        <time>2022-07-26T08:38:36Z</time>
      </trkpt>
      <trkpt lat="44.10092" lon="7.02068">
        <ele>1625</ele>
        <time>2022-07-26T08:38:37Z</time>
      </trkpt>
      <trkpt lat="44.10092" lon="7.02069">
        <ele>1625</ele>
        <time>2022-07-26T08:38:38Z</time>
      </trkpt>
      <trkpt lat="44.10093" lon="7.02071">
        <ele>1625</ele>
        <time>2022-07-26T08:38:39Z</time>
      </trkpt>
      <trkpt lat="44.10093" lon="7.02072">
        <ele>1626</ele>
        <time>2022-07-26T08:38:40Z</time>
      </trkpt>
      <trkpt lat="44.10094" lon="7.02073">
        <ele>1626</ele>
        <time>2022-07-26T08:38:41Z</time>
      </trkpt>
      <trkpt lat="44.10094" lon="7.02074">
        <ele>1627</ele>
        <time>2022-07-26T08:38:42Z</time>
      </trkpt>
      <trkpt lat="44.10095" lon="7.02075">
        <ele>1627</ele>
        <time>2022-07-26T08:38:43Z</time>
      </trkpt>
      <trkpt lat="44.10096" lon="7.02076">
        <ele>1627</ele>
        <time>2022-07-26T08:38:44Z</time>
      </trkpt>
      <trkpt lat="44.10097" lon="7.02077">
        <ele>1627</ele>
        <time>2022-07-26T08:38:45Z</time>
      </trkpt>
      <trkpt lat="44.10097" lon="7.02078">
        <ele>1627</ele>
        <time>2022-07-26T08:38:46Z</time>
      </trkpt>
      <trkpt lat="44.10098" lon="7.02079">
        <ele>1627</ele>
        <time>2022-07-26T08:38:47Z</time>
      </trkpt>
      <trkpt lat="44.10099" lon="7.0208">
        <ele>1627</ele>
        <time>2022-07-26T08:38:48Z</time>
      </trkpt>
      <trkpt lat="44.101" lon="7.0208">
        <ele>1627</ele>
        <time>2022-07-26T08:38:49Z</time>
      </trkpt>
      <trkpt lat="44.10101" lon="7.02081">
        <ele>1627</ele>
        <time>2022-07-26T08:38:50Z</time>
      </trkpt>
      <trkpt lat="44.10102" lon="7.02082">
        <ele>1627</ele>
        <time>2022-07-26T08:38:51Z</time>
      </trkpt>
      <trkpt lat="44.10103" lon="7.02083">
        <ele>1627</ele>
        <time>2022-07-26T08:38:52Z</time>
      </trkpt>
      <trkpt lat="44.10104" lon="7.02084">
        <ele>1627</ele>
        <time>2022-07-26T08:38:53Z</time>
      </trkpt>
      <trkpt lat="44.10105" lon="7.02085">
        <ele>1627</ele>
        <time>2022-07-26T08:38:54Z</time>
      </trkpt>
      <trkpt lat="44.10106" lon="7.02086">
        <ele>1627</ele>
        <time>2022-07-26T08:38:55Z</time>
      </trkpt>
      <trkpt lat="44.10107" lon="7.02087">
        <ele>1627</ele>
        <time>2022-07-26T08:38:56Z</time>
      </trkpt>
      <trkpt lat="44.10108" lon="7.02087">
        <ele>1628</ele>
        <time>2022-07-26T08:38:57Z</time>
      </trkpt>
      <trkpt lat="44.10109" lon="7.02088">
        <ele>1628</ele>
        <time>2022-07-26T08:38:58Z</time>
      </trkpt>
      <trkpt lat="44.10109" lon="7.02089">
        <ele>1628</ele>
        <time>2022-07-26T08:38:59Z</time>
      </trkpt>
      <trkpt lat="44.1011" lon="7.0209">
        <ele>1628</ele>
        <time>2022-07-26T08:39:00Z</time>
      </trkpt>
      <trkpt lat="44.10111" lon="7.02091">
        <ele>1628</ele>
        <time>2022-07-26T08:39:01Z</time>
      </trkpt>
      <trkpt lat="44.10112" lon="7.02091">
        <ele>1628</ele>
        <time>2022-07-26T08:39:02Z</time>
      </trkpt>
      <trkpt lat="44.10113" lon="7.02092">
        <ele>1628</ele>
        <time>2022-07-26T08:39:03Z</time>
      </trkpt>
      <trkpt lat="44.10114" lon="7.02093">
        <ele>1628</ele>
        <time>2022-07-26T08:39:04Z</time>
      </trkpt>
      <trkpt lat="44.10115" lon="7.02093">
        <ele>1628</ele>
        <time>2022-07-26T08:39:05Z</time>
      </trkpt>
      <trkpt lat="44.10116" lon="7.02094">
        <ele>1628</ele>
        <time>2022-07-26T08:39:06Z</time>
      </trkpt>
      <trkpt lat="44.10117" lon="7.02095">
        <ele>1628</ele>
        <time>2022-07-26T08:39:07Z</time>
      </trkpt>
      <trkpt lat="44.10118" lon="7.02095">
        <ele>1628</ele>
        <time>2022-07-26T08:39:08Z</time>
      </trkpt>
      <trkpt lat="44.10119" lon="7.02096">
        <ele>1628</ele>
        <time>2022-07-26T08:39:09Z</time>
      </trkpt>
      <trkpt lat="44.1012" lon="7.02096">
        <ele>1628</ele>
        <time>2022-07-26T08:39:10Z</time>
      </trkpt>
      <trkpt lat="44.10121" lon="7.02097">
        <ele>1628</ele>
        <time>2022-07-26T08:39:11Z</time>
      </trkpt>
      <trkpt lat="44.10122" lon="7.02097">
        <ele>1629</ele>
        <time>2022-07-26T08:39:12Z</time>
      </trkpt>
      <trkpt lat="44.10123" lon="7.02097">
        <ele>1629</ele>
        <time>2022-07-26T08:39:13Z</time>
      </trkpt>
      <trkpt lat="44.10125" lon="7.02097">
        <ele>1629</ele>
        <time>2022-07-26T08:39:14Z</time>
      </trkpt>
      <trkpt lat="44.10126" lon="7.02098">
        <ele>1629</ele>
        <time>2022-07-26T08:39:15Z</time>
      </trkpt>
      <trkpt lat="44.10127" lon="7.02098">
        <ele>1629</ele>
        <time>2022-07-26T08:39:16Z</time>
      </trkpt>
      <trkpt lat="44.10128" lon="7.02099">
        <ele>1629</ele>
        <time>2022-07-26T08:39:17Z</time>
      </trkpt>
      <trkpt lat="44.10129" lon="7.021">
        <ele>1629</ele>
        <time>2022-07-26T08:39:18Z</time>
      </trkpt>
      <trkpt lat="44.1013" lon="7.02101">
        <ele>1629</ele>
        <time>2022-07-26T08:39:19Z</time>
      </trkpt>
      <trkpt lat="44.10131" lon="7.02102">
        <ele>1629</ele>
        <time>2022-07-26T08:39:20Z</time>
      </trkpt>
      <trkpt lat="44.10131" lon="7.02103">
        <ele>1629</ele>
        <time>2022-07-26T08:39:21Z</time>
      </trkpt>
      <trkpt lat="44.10132" lon="7.02104">
        <ele>1630</ele>
        <time>2022-07-26T08:39:22Z</time>
      </trkpt>
      <trkpt lat="44.10133" lon="7.02105">
        <ele>1630</ele>
        <time>2022-07-26T08:39:23Z</time>
      </trkpt>
      <trkpt lat="44.10134" lon="7.02106">
        <ele>1630</ele>
        <time>2022-07-26T08:39:24Z</time>
      </trkpt>
      <trkpt lat="44.10135" lon="7.02107">
        <ele>1630</ele>
        <time>2022-07-26T08:39:25Z</time>
      </trkpt>
      <trkpt lat="44.10136" lon="7.02109">
        <ele>1630</ele>
        <time>2022-07-26T08:39:26Z</time>
      </trkpt>
      <trkpt lat="44.10137" lon="7.0211">
        <ele>1630</ele>
        <time>2022-07-26T08:39:27Z</time>
      </trkpt>
      <trkpt lat="44.10138" lon="7.02111">
        <ele>1630</ele>
        <time>2022-07-26T08:39:28Z</time>
      </trkpt>
      <trkpt lat="44.10139" lon="7.02112">
        <ele>1630</ele>
        <time>2022-07-26T08:39:29Z</time>
      </trkpt>
      <trkpt lat="44.1014" lon="7.02113">
        <ele>1630</ele>
        <time>2022-07-26T08:39:30Z</time>
      </trkpt>
      <trkpt lat="44.10141" lon="7.02114">
        <ele>1630</ele>
        <time>2022-07-26T08:39:31Z</time>
      </trkpt>
      <trkpt lat="44.10142" lon="7.02116">
        <ele>1631</ele>
        <time>2022-07-26T08:39:32Z</time>
      </trkpt>
      <trkpt lat="44.10143" lon="7.02117">
        <ele>1631</ele>
        <time>2022-07-26T08:39:33Z</time>
      </trkpt>
      <trkpt lat="44.10143" lon="7.02118">
        <ele>1631</ele>
        <time>2022-07-26T08:39:34Z</time>
      </trkpt>
      <trkpt lat="44.10144" lon="7.02119">
        <ele>1631</ele>
        <time>2022-07-26T08:39:35Z</time>
      </trkpt>
      <trkpt lat="44.10145" lon="7.02119">
        <ele>1631</ele>
        <time>2022-07-26T08:39:36Z</time>
      </trkpt>
      <trkpt lat="44.10146" lon="7.0212">
        <ele>1631</ele>
        <time>2022-07-26T08:39:37Z</time>
      </trkpt>
      <trkpt lat="44.10147" lon="7.02121">
        <ele>1631</ele>
        <time>2022-07-26T08:39:38Z</time>
      </trkpt>
      <trkpt lat="44.10148" lon="7.02122">
        <ele>1631</ele>
        <time>2022-07-26T08:39:39Z</time>
      </trkpt>
      <trkpt lat="44.10149" lon="7.02123">
        <ele>1631</ele>
        <time>2022-07-26T08:39:40Z</time>
      </trkpt>
      <trkpt lat="44.1015" lon="7.02123">
        <ele>1631</ele>
        <time>2022-07-26T08:39:41Z</time>
      </trkpt>
      <trkpt lat="44.10151" lon="7.02123">
        <ele>1632</ele>
        <time>2022-07-26T08:39:42Z</time>
      </trkpt>
      <trkpt lat="44.10152" lon="7.02124">
        <ele>1632</ele>
        <time>2022-07-26T08:39:43Z</time>
      </trkpt>
      <trkpt lat="44.10154" lon="7.02124">
        <ele>1632</ele>
        <time>2022-07-26T08:39:44Z</time>
      </trkpt>
      <trkpt lat="44.10155" lon="7.02125">
        <ele>1632</ele>
        <time>2022-07-26T08:39:45Z</time>
      </trkpt>
      <trkpt lat="44.10156" lon="7.02125">
        <ele>1632</ele>
        <time>2022-07-26T08:39:46Z</time>
      </trkpt>
      <trkpt lat="44.10158" lon="7.02125">
        <ele>1632</ele>
        <time>2022-07-26T08:39:47Z</time>
      </trkpt>
      <trkpt lat="44.10159" lon="7.02125">
        <ele>1632</ele>
        <time>2022-07-26T08:39:48Z</time>
      </trkpt>
      <trkpt lat="44.1016" lon="7.02125">
        <ele>1632</ele>
        <time>2022-07-26T08:39:49Z</time>
      </trkpt>
      <trkpt lat="44.10161" lon="7.02125">
        <ele>1632</ele>
        <time>2022-07-26T08:39:50Z</time>
      </trkpt>
      <trkpt lat="44.10162" lon="7.02125">
        <ele>1632</ele>
        <time>2022-07-26T08:39:51Z</time>
      </trkpt>
      <trkpt lat="44.10163" lon="7.02125">
        <ele>1633</ele>
        <time>2022-07-26T08:39:52Z</time>
      </trkpt>
      <trkpt lat="44.10165" lon="7.02125">
        <ele>1633</ele>
        <time>2022-07-26T08:39:53Z</time>
      </trkpt>
      <trkpt lat="44.10166" lon="7.02125">
        <ele>1633</ele>
        <time>2022-07-26T08:39:54Z</time>
      </trkpt>
      <trkpt lat="44.10167" lon="7.02125">
        <ele>1633</ele>
        <time>2022-07-26T08:39:55Z</time>
      </trkpt>
      <trkpt lat="44.10168" lon="7.02125">
        <ele>1633</ele>
        <time>2022-07-26T08:39:56Z</time>
      </trkpt>
      <trkpt lat="44.10169" lon="7.02125">
        <ele>1633</ele>
        <time>2022-07-26T08:39:57Z</time>
      </trkpt>
      <trkpt lat="44.1017" lon="7.02126">
        <ele>1633</ele>
        <time>2022-07-26T08:39:58Z</time>
      </trkpt>
      <trkpt lat="44.10171" lon="7.02126">
        <ele>1633</ele>
        <time>2022-07-26T08:39:59Z</time>
      </trkpt>
      <trkpt lat="44.10172" lon="7.02127">
        <ele>1633</ele>
        <time>2022-07-26T08:40:00Z</time>
      </trkpt>
      <trkpt lat="44.10173" lon="7.02127">
        <ele>1633</ele>
        <time>2022-07-26T08:40:01Z</time>
      </trkpt>
      <trkpt lat="44.10174" lon="7.02128">
        <ele>1634</ele>
        <time>2022-07-26T08:40:02Z</time>
      </trkpt>
      <trkpt lat="44.10175" lon="7.02128">
        <ele>1634</ele>
        <time>2022-07-26T08:40:03Z</time>
      </trkpt>
      <trkpt lat="44.10176" lon="7.02128">
        <ele>1634</ele>
        <time>2022-07-26T08:40:04Z</time>
      </trkpt>
      <trkpt lat="44.10177" lon="7.02129">
        <ele>1634</ele>
        <time>2022-07-26T08:40:05Z</time>
      </trkpt>
      <trkpt lat="44.10178" lon="7.02129">
        <ele>1634</ele>
        <time>2022-07-26T08:40:06Z</time>
      </trkpt>
      <trkpt lat="44.10179" lon="7.02129">
        <ele>1634</ele>
        <time>2022-07-26T08:40:07Z</time>
      </trkpt>
      <trkpt lat="44.1018" lon="7.02129">
        <ele>1634</ele>
        <time>2022-07-26T08:40:08Z</time>
      </trkpt>
      <trkpt lat="44.10181" lon="7.02129">
        <ele>1634</ele>
        <time>2022-07-26T08:40:09Z</time>
      </trkpt>
      <trkpt lat="44.10182" lon="7.02129">
        <ele>1634</ele>
        <time>2022-07-26T08:40:10Z</time>
      </trkpt>
      <trkpt lat="44.10184" lon="7.02129">
        <ele>1634</ele>
        <time>2022-07-26T08:40:11Z</time>
      </trkpt>
      <trkpt lat="44.10185" lon="7.02129">
        <ele>1634</ele>
        <time>2022-07-26T08:40:12Z</time>
      </trkpt>
      <trkpt lat="44.10186" lon="7.02129">
        <ele>1634</ele>
        <time>2022-07-26T08:40:13Z</time>
      </trkpt>
      <trkpt lat="44.10187" lon="7.02129">
        <ele>1634</ele>
        <time>2022-07-26T08:40:14Z</time>
      </trkpt>
      <trkpt lat="44.10188" lon="7.02128">
        <ele>1634</ele>
        <time>2022-07-26T08:40:15Z</time>
      </trkpt>
      <trkpt lat="44.1019" lon="7.02128">
        <ele>1634</ele>
        <time>2022-07-26T08:40:16Z</time>
      </trkpt>
      <trkpt lat="44.10191" lon="7.02128">
        <ele>1635</ele>
        <time>2022-07-26T08:40:17Z</time>
      </trkpt>
      <trkpt lat="44.10192" lon="7.02128">
        <ele>1635</ele>
        <time>2022-07-26T08:40:18Z</time>
      </trkpt>
      <trkpt lat="44.10193" lon="7.02128">
        <ele>1635</ele>
        <time>2022-07-26T08:40:19Z</time>
      </trkpt>
      <trkpt lat="44.10194" lon="7.02128">
        <ele>1635</ele>
        <time>2022-07-26T08:40:20Z</time>
      </trkpt>
      <trkpt lat="44.10195" lon="7.02128">
        <ele>1635</ele>
        <time>2022-07-26T08:40:21Z</time>
      </trkpt>
      <trkpt lat="44.10196" lon="7.02128">
        <ele>1635</ele>
        <time>2022-07-26T08:40:22Z</time>
      </trkpt>
      <trkpt lat="44.10198" lon="7.02128">
        <ele>1635</ele>
        <time>2022-07-26T08:40:23Z</time>
      </trkpt>
      <trkpt lat="44.10199" lon="7.02129">
        <ele>1635</ele>
        <time>2022-07-26T08:40:24Z</time>
      </trkpt>
      <trkpt lat="44.102" lon="7.0213">
        <ele>1635</ele>
        <time>2022-07-26T08:40:25Z</time>
      </trkpt>
      <trkpt lat="44.10201" lon="7.0213">
        <ele>1635</ele>
        <time>2022-07-26T08:40:26Z</time>
      </trkpt>
      <trkpt lat="44.10202" lon="7.0213">
        <ele>1636</ele>
        <time>2022-07-26T08:40:27Z</time>
      </trkpt>
      <trkpt lat="44.10203" lon="7.0213">
        <ele>1636</ele>
        <time>2022-07-26T08:40:28Z</time>
      </trkpt>
      <trkpt lat="44.10204" lon="7.0213">
        <ele>1636</ele>
        <time>2022-07-26T08:40:29Z</time>
      </trkpt>
      <trkpt lat="44.10205" lon="7.0213">
        <ele>1636</ele>
        <time>2022-07-26T08:40:30Z</time>
      </trkpt>
      <trkpt lat="44.10206" lon="7.0213">
        <ele>1636</ele>
        <time>2022-07-26T08:40:31Z</time>
      </trkpt>
      <trkpt lat="44.10207" lon="7.0213">
        <ele>1636</ele>
        <time>2022-07-26T08:40:32Z</time>
      </trkpt>
      <trkpt lat="44.10208" lon="7.02129">
        <ele>1636</ele>
        <time>2022-07-26T08:40:33Z</time>
      </trkpt>
      <trkpt lat="44.10209" lon="7.02129">
        <ele>1636</ele>
        <time>2022-07-26T08:40:34Z</time>
      </trkpt>
      <trkpt lat="44.1021" lon="7.02129">
        <ele>1636</ele>
        <time>2022-07-26T08:40:35Z</time>
      </trkpt>
      <trkpt lat="44.10211" lon="7.02129">
        <ele>1636</ele>
        <time>2022-07-26T08:40:36Z</time>
      </trkpt>
      <trkpt lat="44.10212" lon="7.02129">
        <ele>1637</ele>
        <time>2022-07-26T08:40:37Z</time>
      </trkpt>
      <trkpt lat="44.10212" lon="7.0213">
        <ele>1637</ele>
        <time>2022-07-26T08:40:38Z</time>
      </trkpt>
      <trkpt lat="44.10213" lon="7.0213">
        <ele>1637</ele>
        <time>2022-07-26T08:40:39Z</time>
      </trkpt>
      <trkpt lat="44.10213" lon="7.02131">
        <ele>1637</ele>
        <time>2022-07-26T08:40:40Z</time>
      </trkpt>
      <trkpt lat="44.10213" lon="7.02132">
        <ele>1637</ele>
        <time>2022-07-26T08:40:41Z</time>
      </trkpt>
      <trkpt lat="44.10213" lon="7.02133">
        <ele>1638</ele>
        <time>2022-07-26T08:40:42Z</time>
      </trkpt>
      <trkpt lat="44.10212" lon="7.02135">
        <ele>1638</ele>
        <time>2022-07-26T08:40:43Z</time>
      </trkpt>
      <trkpt lat="44.10212" lon="7.02135">
        <ele>1638</ele>
        <time>2022-07-26T08:40:44Z</time>
      </trkpt>
      <trkpt lat="44.10211" lon="7.02136">
        <ele>1638</ele>
        <time>2022-07-26T08:40:45Z</time>
      </trkpt>
      <trkpt lat="44.1021" lon="7.02137">
        <ele>1638</ele>
        <time>2022-07-26T08:40:46Z</time>
      </trkpt>
      <trkpt lat="44.10209" lon="7.02137">
        <ele>1638</ele>
        <time>2022-07-26T08:40:47Z</time>
      </trkpt>
      <trkpt lat="44.10208" lon="7.02138">
        <ele>1638</ele>
        <time>2022-07-26T08:40:48Z</time>
      </trkpt>
      <trkpt lat="44.10207" lon="7.02138">
        <ele>1638</ele>
        <time>2022-07-26T08:40:49Z</time>
      </trkpt>
      <trkpt lat="44.10206" lon="7.02139">
        <ele>1638</ele>
        <time>2022-07-26T08:40:50Z</time>
      </trkpt>
      <trkpt lat="44.10205" lon="7.02139">
        <ele>1638</ele>
        <time>2022-07-26T08:40:51Z</time>
      </trkpt>
      <trkpt lat="44.10204" lon="7.02139">
        <ele>1639</ele>
        <time>2022-07-26T08:40:52Z</time>
      </trkpt>
      <trkpt lat="44.10203" lon="7.02139">
        <ele>1639</ele>
        <time>2022-07-26T08:40:53Z</time>
      </trkpt>
      <trkpt lat="44.10201" lon="7.02139">
        <ele>1639</ele>
        <time>2022-07-26T08:40:54Z</time>
      </trkpt>
      <trkpt lat="44.102" lon="7.0214">
        <ele>1639</ele>
        <time>2022-07-26T08:40:55Z</time>
      </trkpt>
      <trkpt lat="44.10199" lon="7.0214">
        <ele>1639</ele>
        <time>2022-07-26T08:40:56Z</time>
      </trkpt>
      <trkpt lat="44.10198" lon="7.02141">
        <ele>1639</ele>
        <time>2022-07-26T08:40:57Z</time>
      </trkpt>
      <trkpt lat="44.10197" lon="7.02141">
        <ele>1639</ele>
        <time>2022-07-26T08:40:58Z</time>
      </trkpt>
      <trkpt lat="44.10196" lon="7.02142">
        <ele>1639</ele>
        <time>2022-07-26T08:40:59Z</time>
      </trkpt>
      <trkpt lat="44.10195" lon="7.02143">
        <ele>1639</ele>
        <time>2022-07-26T08:41:00Z</time>
      </trkpt>
      <trkpt lat="44.10194" lon="7.02144">
        <ele>1639</ele>
        <time>2022-07-26T08:41:01Z</time>
      </trkpt>
      <trkpt lat="44.10193" lon="7.02145">
        <ele>1639</ele>
        <time>2022-07-26T08:41:02Z</time>
      </trkpt>
      <trkpt lat="44.10192" lon="7.02146">
        <ele>1639</ele>
        <time>2022-07-26T08:41:03Z</time>
      </trkpt>
      <trkpt lat="44.10191" lon="7.02147">
        <ele>1639</ele>
        <time>2022-07-26T08:41:04Z</time>
      </trkpt>
      <trkpt lat="44.1019" lon="7.02148">
        <ele>1639</ele>
        <time>2022-07-26T08:41:05Z</time>
      </trkpt>
      <trkpt lat="44.10189" lon="7.02149">
        <ele>1639</ele>
        <time>2022-07-26T08:41:06Z</time>
      </trkpt>
      <trkpt lat="44.10188" lon="7.0215">
        <ele>1640</ele>
        <time>2022-07-26T08:41:07Z</time>
      </trkpt>
      <trkpt lat="44.10187" lon="7.0215">
        <ele>1640</ele>
        <time>2022-07-26T08:41:08Z</time>
      </trkpt>
      <trkpt lat="44.10186" lon="7.0215">
        <ele>1640</ele>
        <time>2022-07-26T08:41:09Z</time>
      </trkpt>
      <trkpt lat="44.10185" lon="7.02151">
        <ele>1640</ele>
        <time>2022-07-26T08:41:10Z</time>
      </trkpt>
      <trkpt lat="44.10184" lon="7.02151">
        <ele>1640</ele>
        <time>2022-07-26T08:41:11Z</time>
      </trkpt>
      <trkpt lat="44.10183" lon="7.02151">
        <ele>1640</ele>
        <time>2022-07-26T08:41:12Z</time>
      </trkpt>
      <trkpt lat="44.10182" lon="7.02151">
        <ele>1640</ele>
        <time>2022-07-26T08:41:13Z</time>
      </trkpt>
      <trkpt lat="44.10181" lon="7.02151">
        <ele>1640</ele>
        <time>2022-07-26T08:41:14Z</time>
      </trkpt>
      <trkpt lat="44.10179" lon="7.02151">
        <ele>1640</ele>
        <time>2022-07-26T08:41:15Z</time>
      </trkpt>
      <trkpt lat="44.10178" lon="7.02151">
        <ele>1640</ele>
        <time>2022-07-26T08:41:16Z</time>
      </trkpt>
      <trkpt lat="44.10177" lon="7.02151">
        <ele>1640</ele>
        <time>2022-07-26T08:41:17Z</time>
      </trkpt>
      <trkpt lat="44.10176" lon="7.02151">
        <ele>1640</ele>
        <time>2022-07-26T08:41:18Z</time>
      </trkpt>
      <trkpt lat="44.10175" lon="7.02151">
        <ele>1640</ele>
        <time>2022-07-26T08:41:19Z</time>
      </trkpt>
      <trkpt lat="44.10174" lon="7.02151">
        <ele>1640</ele>
        <time>2022-07-26T08:41:20Z</time>
      </trkpt>
      <trkpt lat="44.10172" lon="7.02151">
        <ele>1640</ele>
        <time>2022-07-26T08:41:21Z</time>
      </trkpt>
      <trkpt lat="44.10171" lon="7.02151">
        <ele>1641</ele>
        <time>2022-07-26T08:41:22Z</time>
      </trkpt>
      <trkpt lat="44.1017" lon="7.02152">
        <ele>1641</ele>
        <time>2022-07-26T08:41:23Z</time>
      </trkpt>
      <trkpt lat="44.10169" lon="7.02152">
        <ele>1641</ele>
        <time>2022-07-26T08:41:24Z</time>
      </trkpt>
      <trkpt lat="44.10168" lon="7.02152">
        <ele>1641</ele>
        <time>2022-07-26T08:41:25Z</time>
      </trkpt>
      <trkpt lat="44.10168" lon="7.02153">
        <ele>1641</ele>
        <time>2022-07-26T08:41:26Z</time>
      </trkpt>
      <trkpt lat="44.10167" lon="7.02153">
        <ele>1641</ele>
        <time>2022-07-26T08:41:27Z</time>
      </trkpt>
      <trkpt lat="44.10166" lon="7.02154">
        <ele>1641</ele>
        <time>2022-07-26T08:41:28Z</time>
      </trkpt>
      <trkpt lat="44.10165" lon="7.02154">
        <ele>1641</ele>
        <time>2022-07-26T08:41:29Z</time>
      </trkpt>
      <trkpt lat="44.10164" lon="7.02154">
        <ele>1641</ele>
        <time>2022-07-26T08:41:30Z</time>
      </trkpt>
      <trkpt lat="44.10163" lon="7.02155">
        <ele>1641</ele>
        <time>2022-07-26T08:41:31Z</time>
      </trkpt>
      <trkpt lat="44.10162" lon="7.02155">
        <ele>1641</ele>
        <time>2022-07-26T08:41:32Z</time>
      </trkpt>
      <trkpt lat="44.10161" lon="7.02156">
        <ele>1641</ele>
        <time>2022-07-26T08:41:33Z</time>
      </trkpt>
      <trkpt lat="44.1016" lon="7.02156">
        <ele>1641</ele>
        <time>2022-07-26T08:41:34Z</time>
      </trkpt>
      <trkpt lat="44.10159" lon="7.02157">
        <ele>1641</ele>
        <time>2022-07-26T08:41:35Z</time>
      </trkpt>
      <trkpt lat="44.10158" lon="7.02157">
        <ele>1641</ele>
        <time>2022-07-26T08:41:36Z</time>
      </trkpt>
      <trkpt lat="44.10158" lon="7.02158">
        <ele>1642</ele>
        <time>2022-07-26T08:41:37Z</time>
      </trkpt>
      <trkpt lat="44.10157" lon="7.02158">
        <ele>1642</ele>
        <time>2022-07-26T08:41:38Z</time>
      </trkpt>
      <trkpt lat="44.10156" lon="7.02159">
        <ele>1642</ele>
        <time>2022-07-26T08:41:39Z</time>
      </trkpt>
      <trkpt lat="44.10156" lon="7.0216">
        <ele>1643</ele>
        <time>2022-07-26T08:41:40Z</time>
      </trkpt>
      <trkpt lat="44.10155" lon="7.02161">
        <ele>1643</ele>
        <time>2022-07-26T08:41:41Z</time>
      </trkpt>
      <trkpt lat="44.10154" lon="7.02161">
        <ele>1644</ele>
        <time>2022-07-26T08:41:42Z</time>
      </trkpt>
      <trkpt lat="44.10153" lon="7.02162">
        <ele>1644</ele>
        <time>2022-07-26T08:41:43Z</time>
      </trkpt>
      <trkpt lat="44.10152" lon="7.02162">
        <ele>1644</ele>
        <time>2022-07-26T08:41:44Z</time>
      </trkpt>
      <trkpt lat="44.10151" lon="7.02162">
        <ele>1644</ele>
        <time>2022-07-26T08:41:45Z</time>
      </trkpt>
      <trkpt lat="44.10151" lon="7.02163">
        <ele>1644</ele>
        <time>2022-07-26T08:41:46Z</time>
      </trkpt>
      <trkpt lat="44.1015" lon="7.02163">
        <ele>1645</ele>
        <time>2022-07-26T08:41:47Z</time>
      </trkpt>
      <trkpt lat="44.10149" lon="7.02163">
        <ele>1645</ele>
        <time>2022-07-26T08:41:48Z</time>
      </trkpt>
      <trkpt lat="44.10148" lon="7.02163">
        <ele>1645</ele>
        <time>2022-07-26T08:41:49Z</time>
      </trkpt>
      <trkpt lat="44.10147" lon="7.02163">
        <ele>1645</ele>
        <time>2022-07-26T08:41:50Z</time>
      </trkpt>
      <trkpt lat="44.10146" lon="7.02163">
        <ele>1645</ele>
        <time>2022-07-26T08:41:51Z</time>
      </trkpt>
      <trkpt lat="44.10145" lon="7.02163">
        <ele>1645</ele>
        <time>2022-07-26T08:41:52Z</time>
      </trkpt>
      <trkpt lat="44.10144" lon="7.02163">
        <ele>1645</ele>
        <time>2022-07-26T08:41:53Z</time>
      </trkpt>
      <trkpt lat="44.10143" lon="7.02164">
        <ele>1645</ele>
        <time>2022-07-26T08:41:54Z</time>
      </trkpt>
      <trkpt lat="44.10143" lon="7.02164">
        <ele>1645</ele>
        <time>2022-07-26T08:41:55Z</time>
      </trkpt>
      <trkpt lat="44.10142" lon="7.02164">
        <ele>1645</ele>
        <time>2022-07-26T08:41:56Z</time>
      </trkpt>
      <trkpt lat="44.10141" lon="7.02164">
        <ele>1646</ele>
        <time>2022-07-26T08:41:57Z</time>
      </trkpt>
      <trkpt lat="44.1014" lon="7.02165">
        <ele>1646</ele>
        <time>2022-07-26T08:41:58Z</time>
      </trkpt>
      <trkpt lat="44.1014" lon="7.02165">
        <ele>1646</ele>
        <time>2022-07-26T08:41:59Z</time>
      </trkpt>
      <trkpt lat="44.10139" lon="7.02166">
        <ele>1646</ele>
        <time>2022-07-26T08:42:00Z</time>
      </trkpt>
      <trkpt lat="44.10138" lon="7.02166">
        <ele>1646</ele>
        <time>2022-07-26T08:42:01Z</time>
      </trkpt>
      <trkpt lat="44.10137" lon="7.02166">
        <ele>1647</ele>
        <time>2022-07-26T08:42:02Z</time>
      </trkpt>
      <trkpt lat="44.10136" lon="7.02167">
        <ele>1647</ele>
        <time>2022-07-26T08:42:03Z</time>
      </trkpt>
      <trkpt lat="44.10136" lon="7.02167">
        <ele>1647</ele>
        <time>2022-07-26T08:42:04Z</time>
      </trkpt>
      <trkpt lat="44.10135" lon="7.02167">
        <ele>1647</ele>
        <time>2022-07-26T08:42:05Z</time>
      </trkpt>
      <trkpt lat="44.10134" lon="7.02168">
        <ele>1647</ele>
        <time>2022-07-26T08:42:06Z</time>
      </trkpt>
      <trkpt lat="44.10133" lon="7.02168">
        <ele>1648</ele>
        <time>2022-07-26T08:42:07Z</time>
      </trkpt>
      <trkpt lat="44.10133" lon="7.02169">
        <ele>1648</ele>
        <time>2022-07-26T08:42:08Z</time>
      </trkpt>
      <trkpt lat="44.10132" lon="7.0217">
        <ele>1648</ele>
        <time>2022-07-26T08:42:09Z</time>
      </trkpt>
      <trkpt lat="44.10131" lon="7.02171">
        <ele>1648</ele>
        <time>2022-07-26T08:42:10Z</time>
      </trkpt>
      <trkpt lat="44.1013" lon="7.02171">
        <ele>1648</ele>
        <time>2022-07-26T08:42:11Z</time>
      </trkpt>
      <trkpt lat="44.10129" lon="7.02172">
        <ele>1649</ele>
        <time>2022-07-26T08:42:12Z</time>
      </trkpt>
      <trkpt lat="44.10129" lon="7.02173">
        <ele>1649</ele>
        <time>2022-07-26T08:42:13Z</time>
      </trkpt>
      <trkpt lat="44.10128" lon="7.02175">
        <ele>1649</ele>
        <time>2022-07-26T08:42:14Z</time>
      </trkpt>
      <trkpt lat="44.10127" lon="7.02176">
        <ele>1649</ele>
        <time>2022-07-26T08:42:15Z</time>
      </trkpt>
      <trkpt lat="44.10127" lon="7.02177">
        <ele>1649</ele>
        <time>2022-07-26T08:42:16Z</time>
      </trkpt>
      <trkpt lat="44.10126" lon="7.02178">
        <ele>1650</ele>
        <time>2022-07-26T08:42:17Z</time>
      </trkpt>
      <trkpt lat="44.10125" lon="7.02179">
        <ele>1650</ele>
        <time>2022-07-26T08:42:18Z</time>
      </trkpt>
      <trkpt lat="44.10125" lon="7.02181">
        <ele>1650</ele>
        <time>2022-07-26T08:42:19Z</time>
      </trkpt>
      <trkpt lat="44.10124" lon="7.02182">
        <ele>1650</ele>
        <time>2022-07-26T08:42:20Z</time>
      </trkpt>
      <trkpt lat="44.10123" lon="7.02183">
        <ele>1650</ele>
        <time>2022-07-26T08:42:21Z</time>
      </trkpt>
      <trkpt lat="44.10122" lon="7.02185">
        <ele>1650</ele>
        <time>2022-07-26T08:42:22Z</time>
      </trkpt>
      <trkpt lat="44.10122" lon="7.02186">
        <ele>1650</ele>
        <time>2022-07-26T08:42:23Z</time>
      </trkpt>
      <trkpt lat="44.10121" lon="7.02188">
        <ele>1650</ele>
        <time>2022-07-26T08:42:24Z</time>
      </trkpt>
      <trkpt lat="44.1012" lon="7.02189">
        <ele>1650</ele>
        <time>2022-07-26T08:42:25Z</time>
      </trkpt>
      <trkpt lat="44.1012" lon="7.0219">
        <ele>1650</ele>
        <time>2022-07-26T08:42:26Z</time>
      </trkpt>
      <trkpt lat="44.10119" lon="7.02191">
        <ele>1651</ele>
        <time>2022-07-26T08:42:27Z</time>
      </trkpt>
      <trkpt lat="44.10119" lon="7.02193">
        <ele>1651</ele>
        <time>2022-07-26T08:42:28Z</time>
      </trkpt>
      <trkpt lat="44.10118" lon="7.02194">
        <ele>1651</ele>
        <time>2022-07-26T08:42:29Z</time>
      </trkpt>
      <trkpt lat="44.10118" lon="7.02195">
        <ele>1651</ele>
        <time>2022-07-26T08:42:30Z</time>
      </trkpt>
      <trkpt lat="44.10117" lon="7.02197">
        <ele>1651</ele>
        <time>2022-07-26T08:42:31Z</time>
      </trkpt>
      <trkpt lat="44.10117" lon="7.02198">
        <ele>1652</ele>
        <time>2022-07-26T08:42:32Z</time>
      </trkpt>
      <trkpt lat="44.10116" lon="7.022">
        <ele>1652</ele>
        <time>2022-07-26T08:42:33Z</time>
      </trkpt>
      <trkpt lat="44.10116" lon="7.02202">
        <ele>1652</ele>
        <time>2022-07-26T08:42:34Z</time>
      </trkpt>
      <trkpt lat="44.10115" lon="7.02203">
        <ele>1652</ele>
        <time>2022-07-26T08:42:35Z</time>
      </trkpt>
      <trkpt lat="44.10115" lon="7.02205">
        <ele>1652</ele>
        <time>2022-07-26T08:42:36Z</time>
      </trkpt>
      <trkpt lat="44.10114" lon="7.02207">
        <ele>1652</ele>
        <time>2022-07-26T08:42:37Z</time>
      </trkpt>
      <trkpt lat="44.10114" lon="7.02208">
        <ele>1652</ele>
        <time>2022-07-26T08:42:38Z</time>
      </trkpt>
      <trkpt lat="44.10113" lon="7.02209">
        <ele>1652</ele>
        <time>2022-07-26T08:42:39Z</time>
      </trkpt>
      <trkpt lat="44.10112" lon="7.0221">
        <ele>1652</ele>
        <time>2022-07-26T08:42:40Z</time>
      </trkpt>
      <trkpt lat="44.10111" lon="7.02212">
        <ele>1652</ele>
        <time>2022-07-26T08:42:41Z</time>
      </trkpt>
      <trkpt lat="44.1011" lon="7.02213">
        <ele>1653</ele>
        <time>2022-07-26T08:42:42Z</time>
      </trkpt>
      <trkpt lat="44.10109" lon="7.02213">
        <ele>1653</ele>
        <time>2022-07-26T08:42:43Z</time>
      </trkpt>
      <trkpt lat="44.10108" lon="7.02214">
        <ele>1653</ele>
        <time>2022-07-26T08:42:44Z</time>
      </trkpt>
      <trkpt lat="44.10107" lon="7.02215">
        <ele>1653</ele>
        <time>2022-07-26T08:42:45Z</time>
      </trkpt>
      <trkpt lat="44.10106" lon="7.02216">
        <ele>1653</ele>
        <time>2022-07-26T08:42:46Z</time>
      </trkpt>
      <trkpt lat="44.10105" lon="7.02217">
        <ele>1654</ele>
        <time>2022-07-26T08:42:47Z</time>
      </trkpt>
      <trkpt lat="44.10104" lon="7.02217">
        <ele>1654</ele>
        <time>2022-07-26T08:42:48Z</time>
      </trkpt>
      <trkpt lat="44.10104" lon="7.02218">
        <ele>1654</ele>
        <time>2022-07-26T08:42:49Z</time>
      </trkpt>
      <trkpt lat="44.10103" lon="7.02219">
        <ele>1654</ele>
        <time>2022-07-26T08:42:50Z</time>
      </trkpt>
      <trkpt lat="44.10102" lon="7.02219">
        <ele>1654</ele>
        <time>2022-07-26T08:42:51Z</time>
      </trkpt>
      <trkpt lat="44.10101" lon="7.0222">
        <ele>1654</ele>
        <time>2022-07-26T08:42:52Z</time>
      </trkpt>
      <trkpt lat="44.101" lon="7.02221">
        <ele>1654</ele>
        <time>2022-07-26T08:42:53Z</time>
      </trkpt>
      <trkpt lat="44.10099" lon="7.02222">
        <ele>1654</ele>
        <time>2022-07-26T08:42:54Z</time>
      </trkpt>
      <trkpt lat="44.10098" lon="7.02223">
        <ele>1654</ele>
        <time>2022-07-26T08:42:55Z</time>
      </trkpt>
      <trkpt lat="44.10097" lon="7.02224">
        <ele>1654</ele>
        <time>2022-07-26T08:42:56Z</time>
      </trkpt>
      <trkpt lat="44.10097" lon="7.02225">
        <ele>1655</ele>
        <time>2022-07-26T08:42:57Z</time>
      </trkpt>
      <trkpt lat="44.10096" lon="7.02226">
        <ele>1655</ele>
        <time>2022-07-26T08:42:58Z</time>
      </trkpt>
      <trkpt lat="44.10095" lon="7.02226">
        <ele>1655</ele>
        <time>2022-07-26T08:42:59Z</time>
      </trkpt>
      <trkpt lat="44.10094" lon="7.02227">
        <ele>1655</ele>
        <time>2022-07-26T08:43:00Z</time>
      </trkpt>
      <trkpt lat="44.10093" lon="7.02228">
        <ele>1655</ele>
        <time>2022-07-26T08:43:01Z</time>
      </trkpt>
      <trkpt lat="44.10092" lon="7.02229">
        <ele>1656</ele>
        <time>2022-07-26T08:43:02Z</time>
      </trkpt>
      <trkpt lat="44.10091" lon="7.0223">
        <ele>1656</ele>
        <time>2022-07-26T08:43:03Z</time>
      </trkpt>
      <trkpt lat="44.1009" lon="7.0223">
        <ele>1656</ele>
        <time>2022-07-26T08:43:04Z</time>
      </trkpt>
      <trkpt lat="44.10089" lon="7.02231">
        <ele>1656</ele>
        <time>2022-07-26T08:43:05Z</time>
      </trkpt>
      <trkpt lat="44.10088" lon="7.02232">
        <ele>1656</ele>
        <time>2022-07-26T08:43:06Z</time>
      </trkpt>
      <trkpt lat="44.10087" lon="7.02233">
        <ele>1657</ele>
        <time>2022-07-26T08:43:07Z</time>
      </trkpt>
      <trkpt lat="44.10086" lon="7.02234">
        <ele>1657</ele>
        <time>2022-07-26T08:43:08Z</time>
      </trkpt>
      <trkpt lat="44.10085" lon="7.02235">
        <ele>1657</ele>
        <time>2022-07-26T08:43:09Z</time>
      </trkpt>
      <trkpt lat="44.10084" lon="7.02235">
        <ele>1657</ele>
        <time>2022-07-26T08:43:10Z</time>
      </trkpt>
      <trkpt lat="44.10083" lon="7.02236">
        <ele>1657</ele>
        <time>2022-07-26T08:43:11Z</time>
      </trkpt>
      <trkpt lat="44.10083" lon="7.02237">
        <ele>1658</ele>
        <time>2022-07-26T08:43:12Z</time>
      </trkpt>
      <trkpt lat="44.10082" lon="7.02238">
        <ele>1658</ele>
        <time>2022-07-26T08:43:13Z</time>
      </trkpt>
      <trkpt lat="44.10081" lon="7.02239">
        <ele>1658</ele>
        <time>2022-07-26T08:43:14Z</time>
      </trkpt>
      <trkpt lat="44.1008" lon="7.02239">
        <ele>1658</ele>
        <time>2022-07-26T08:43:15Z</time>
      </trkpt>
      <trkpt lat="44.10079" lon="7.0224">
        <ele>1658</ele>
        <time>2022-07-26T08:43:16Z</time>
      </trkpt>
      <trkpt lat="44.10078" lon="7.0224">
        <ele>1659</ele>
        <time>2022-07-26T08:43:17Z</time>
      </trkpt>
      <trkpt lat="44.10077" lon="7.02241">
        <ele>1659</ele>
        <time>2022-07-26T08:43:18Z</time>
      </trkpt>
      <trkpt lat="44.10077" lon="7.02241">
        <ele>1659</ele>
        <time>2022-07-26T08:43:19Z</time>
      </trkpt>
      <trkpt lat="44.10076" lon="7.02242">
        <ele>1660</ele>
        <time>2022-07-26T08:43:20Z</time>
      </trkpt>
      <trkpt lat="44.10075" lon="7.02242">
        <ele>1660</ele>
        <time>2022-07-26T08:43:21Z</time>
      </trkpt>
      <trkpt lat="44.10074" lon="7.02243">
        <ele>1661</ele>
        <time>2022-07-26T08:43:22Z</time>
      </trkpt>
      <trkpt lat="44.10073" lon="7.02244">
        <ele>1661</ele>
        <time>2022-07-26T08:43:23Z</time>
      </trkpt>
      <trkpt lat="44.10072" lon="7.02244">
        <ele>1661</ele>
        <time>2022-07-26T08:43:24Z</time>
      </trkpt>
      <trkpt lat="44.10071" lon="7.02245">
        <ele>1661</ele>
        <time>2022-07-26T08:43:25Z</time>
      </trkpt>
      <trkpt lat="44.1007" lon="7.02245">
        <ele>1661</ele>
        <time>2022-07-26T08:43:26Z</time>
      </trkpt>
      <trkpt lat="44.10069" lon="7.02245">
        <ele>1661</ele>
        <time>2022-07-26T08:43:27Z</time>
      </trkpt>
      <trkpt lat="44.10068" lon="7.02246">
        <ele>1661</ele>
        <time>2022-07-26T08:43:28Z</time>
      </trkpt>
      <trkpt lat="44.10067" lon="7.02246">
        <ele>1661</ele>
        <time>2022-07-26T08:43:29Z</time>
      </trkpt>
      <trkpt lat="44.10066" lon="7.02246">
        <ele>1661</ele>
        <time>2022-07-26T08:43:30Z</time>
      </trkpt>
      <trkpt lat="44.10065" lon="7.02247">
        <ele>1661</ele>
        <time>2022-07-26T08:43:31Z</time>
      </trkpt>
      <trkpt lat="44.10064" lon="7.02247">
        <ele>1662</ele>
        <time>2022-07-26T08:43:32Z</time>
      </trkpt>
      <trkpt lat="44.10063" lon="7.02248">
        <ele>1662</ele>
        <time>2022-07-26T08:43:33Z</time>
      </trkpt>
      <trkpt lat="44.10062" lon="7.02248">
        <ele>1662</ele>
        <time>2022-07-26T08:43:34Z</time>
      </trkpt>
      <trkpt lat="44.10061" lon="7.02249">
        <ele>1662</ele>
        <time>2022-07-26T08:43:35Z</time>
      </trkpt>
      <trkpt lat="44.1006" lon="7.0225">
        <ele>1662</ele>
        <time>2022-07-26T08:43:36Z</time>
      </trkpt>
      <trkpt lat="44.10059" lon="7.0225">
        <ele>1663</ele>
        <time>2022-07-26T08:43:37Z</time>
      </trkpt>
      <trkpt lat="44.10058" lon="7.02251">
        <ele>1663</ele>
        <time>2022-07-26T08:43:38Z</time>
      </trkpt>
      <trkpt lat="44.10057" lon="7.02252">
        <ele>1663</ele>
        <time>2022-07-26T08:43:39Z</time>
      </trkpt>
      <trkpt lat="44.10056" lon="7.02253">
        <ele>1663</ele>
        <time>2022-07-26T08:43:40Z</time>
      </trkpt>
      <trkpt lat="44.10055" lon="7.02253">
        <ele>1663</ele>
        <time>2022-07-26T08:43:41Z</time>
      </trkpt>
      <trkpt lat="44.10054" lon="7.02254">
        <ele>1664</ele>
        <time>2022-07-26T08:43:42Z</time>
      </trkpt>
      <trkpt lat="44.10053" lon="7.02255">
        <ele>1664</ele>
        <time>2022-07-26T08:43:43Z</time>
      </trkpt>
      <trkpt lat="44.10051" lon="7.02256">
        <ele>1664</ele>
        <time>2022-07-26T08:43:44Z</time>
      </trkpt>
      <trkpt lat="44.1005" lon="7.02257">
        <ele>1664</ele>
        <time>2022-07-26T08:43:45Z</time>
      </trkpt>
      <trkpt lat="44.10049" lon="7.02257">
        <ele>1664</ele>
        <time>2022-07-26T08:43:46Z</time>
      </trkpt>
      <trkpt lat="44.10048" lon="7.02258">
        <ele>1665</ele>
        <time>2022-07-26T08:43:47Z</time>
      </trkpt>
      <trkpt lat="44.10047" lon="7.02258">
        <ele>1665</ele>
        <time>2022-07-26T08:43:48Z</time>
      </trkpt>
      <trkpt lat="44.10046" lon="7.02259">
        <ele>1665</ele>
        <time>2022-07-26T08:43:49Z</time>
      </trkpt>
      <trkpt lat="44.10045" lon="7.02259">
        <ele>1665</ele>
        <time>2022-07-26T08:43:50Z</time>
      </trkpt>
      <trkpt lat="44.10044" lon="7.02259">
        <ele>1665</ele>
        <time>2022-07-26T08:43:51Z</time>
      </trkpt>
      <trkpt lat="44.10043" lon="7.0226">
        <ele>1665</ele>
        <time>2022-07-26T08:43:52Z</time>
      </trkpt>
      <trkpt lat="44.10041" lon="7.0226">
        <ele>1665</ele>
        <time>2022-07-26T08:43:53Z</time>
      </trkpt>
      <trkpt lat="44.1004" lon="7.0226">
        <ele>1665</ele>
        <time>2022-07-26T08:43:54Z</time>
      </trkpt>
      <trkpt lat="44.10039" lon="7.0226">
        <ele>1665</ele>
        <time>2022-07-26T08:43:55Z</time>
      </trkpt>
      <trkpt lat="44.10038" lon="7.0226">
        <ele>1665</ele>
        <time>2022-07-26T08:43:56Z</time>
      </trkpt>
      <trkpt lat="44.10037" lon="7.0226">
        <ele>1666</ele>
        <time>2022-07-26T08:43:57Z</time>
      </trkpt>
      <trkpt lat="44.10036" lon="7.0226">
        <ele>1666</ele>
        <time>2022-07-26T08:43:58Z</time>
      </trkpt>
      <trkpt lat="44.10035" lon="7.02261">
        <ele>1666</ele>
        <time>2022-07-26T08:43:59Z</time>
      </trkpt>
      <trkpt lat="44.10034" lon="7.02261">
        <ele>1666</ele>
        <time>2022-07-26T08:44:00Z</time>
      </trkpt>
      <trkpt lat="44.10033" lon="7.02262">
        <ele>1666</ele>
        <time>2022-07-26T08:44:01Z</time>
      </trkpt>
      <trkpt lat="44.10032" lon="7.02262">
        <ele>1667</ele>
        <time>2022-07-26T08:44:02Z</time>
      </trkpt>
      <trkpt lat="44.1003" lon="7.02263">
        <ele>1667</ele>
        <time>2022-07-26T08:44:03Z</time>
      </trkpt>
      <trkpt lat="44.10029" lon="7.02263">
        <ele>1667</ele>
        <time>2022-07-26T08:44:04Z</time>
      </trkpt>
      <trkpt lat="44.10028" lon="7.02263">
        <ele>1667</ele>
        <time>2022-07-26T08:44:05Z</time>
      </trkpt>
      <trkpt lat="44.10027" lon="7.02263">
        <ele>1667</ele>
        <time>2022-07-26T08:44:06Z</time>
      </trkpt>
      <trkpt lat="44.10026" lon="7.02262">
        <ele>1667</ele>
        <time>2022-07-26T08:44:07Z</time>
      </trkpt>
      <trkpt lat="44.10025" lon="7.02262">
        <ele>1667</ele>
        <time>2022-07-26T08:44:08Z</time>
      </trkpt>
      <trkpt lat="44.10024" lon="7.02262">
        <ele>1667</ele>
        <time>2022-07-26T08:44:09Z</time>
      </trkpt>
      <trkpt lat="44.10023" lon="7.02262">
        <ele>1667</ele>
        <time>2022-07-26T08:44:10Z</time>
      </trkpt>
      <trkpt lat="44.10022" lon="7.02262">
        <ele>1667</ele>
        <time>2022-07-26T08:44:11Z</time>
      </trkpt>
      <trkpt lat="44.10022" lon="7.02262">
        <ele>1668</ele>
        <time>2022-07-26T08:44:12Z</time>
      </trkpt>
      <trkpt lat="44.10021" lon="7.02262">
        <ele>1668</ele>
        <time>2022-07-26T08:44:13Z</time>
      </trkpt>
      <trkpt lat="44.1002" lon="7.02263">
        <ele>1668</ele>
        <time>2022-07-26T08:44:14Z</time>
      </trkpt>
      <trkpt lat="44.1002" lon="7.02263">
        <ele>1668</ele>
        <time>2022-07-26T08:44:15Z</time>
      </trkpt>
      <trkpt lat="44.10019" lon="7.02264">
        <ele>1668</ele>
        <time>2022-07-26T08:44:16Z</time>
      </trkpt>
      <trkpt lat="44.10019" lon="7.02265">
        <ele>1669</ele>
        <time>2022-07-26T08:44:17Z</time>
      </trkpt>
      <trkpt lat="44.10018" lon="7.02265">
        <ele>1669</ele>
        <time>2022-07-26T08:44:18Z</time>
      </trkpt>
      <trkpt lat="44.10018" lon="7.02265">
        <ele>1669</ele>
        <time>2022-07-26T08:44:19Z</time>
      </trkpt>
      <trkpt lat="44.10018" lon="7.02266">
        <ele>1669</ele>
        <time>2022-07-26T08:44:20Z</time>
      </trkpt>
      <trkpt lat="44.10017" lon="7.02266">
        <ele>1669</ele>
        <time>2022-07-26T08:44:21Z</time>
      </trkpt>
      <trkpt lat="44.10017" lon="7.02266">
        <ele>1669</ele>
        <time>2022-07-26T08:44:22Z</time>
      </trkpt>
      <trkpt lat="44.10016" lon="7.02266">
        <ele>1669</ele>
        <time>2022-07-26T08:44:23Z</time>
      </trkpt>
      <trkpt lat="44.10016" lon="7.02266">
        <ele>1669</ele>
        <time>2022-07-26T08:44:24Z</time>
      </trkpt>
      <trkpt lat="44.10016" lon="7.02266">
        <ele>1670</ele>
        <time>2022-07-26T08:44:25Z</time>
      </trkpt>
      <trkpt lat="44.10015" lon="7.02267">
        <ele>1670</ele>
        <time>2022-07-26T08:44:26Z</time>
      </trkpt>
      <trkpt lat="44.10015" lon="7.02267">
        <ele>1671</ele>
        <time>2022-07-26T08:44:27Z</time>
      </trkpt>
      <trkpt lat="44.10015" lon="7.02267">
        <ele>1671</ele>
        <time>2022-07-26T08:44:28Z</time>
      </trkpt>
      <trkpt lat="44.10014" lon="7.02267">
        <ele>1671</ele>
        <time>2022-07-26T08:44:29Z</time>
      </trkpt>
      <trkpt lat="44.10014" lon="7.02267">
        <ele>1671</ele>
        <time>2022-07-26T08:44:30Z</time>
      </trkpt>
      <trkpt lat="44.10013" lon="7.02268">
        <ele>1671</ele>
        <time>2022-07-26T08:44:31Z</time>
      </trkpt>
      <trkpt lat="44.10013" lon="7.02269">
        <ele>1672</ele>
        <time>2022-07-26T08:44:32Z</time>
      </trkpt>
      <trkpt lat="44.10013" lon="7.02269">
        <ele>1672</ele>
        <time>2022-07-26T08:44:33Z</time>
      </trkpt>
      <trkpt lat="44.10013" lon="7.0227">
        <ele>1672</ele>
        <time>2022-07-26T08:44:34Z</time>
      </trkpt>
      <trkpt lat="44.10013" lon="7.0227">
        <ele>1672</ele>
        <time>2022-07-26T08:44:35Z</time>
      </trkpt>
      <trkpt lat="44.10014" lon="7.02272">
        <ele>1674</ele>
        <time>2022-07-26T08:44:48Z</time>
      </trkpt>
      <trkpt lat="44.10015" lon="7.02272">
        <ele>1674</ele>
        <time>2022-07-26T08:44:49Z</time>
      </trkpt>
      <trkpt lat="44.10015" lon="7.02273">
        <ele>1674</ele>
        <time>2022-07-26T08:44:50Z</time>
      </trkpt>
      <trkpt lat="44.10016" lon="7.02274">
        <ele>1674</ele>
        <time>2022-07-26T08:44:51Z</time>
      </trkpt>
      <trkpt lat="44.10016" lon="7.02274">
        <ele>1674</ele>
        <time>2022-07-26T08:44:52Z</time>
      </trkpt>
      <trkpt lat="44.10017" lon="7.02275">
        <ele>1674</ele>
        <time>2022-07-26T08:44:53Z</time>
      </trkpt>
      <trkpt lat="44.10018" lon="7.02276">
        <ele>1674</ele>
        <time>2022-07-26T08:44:54Z</time>
      </trkpt>
      <trkpt lat="44.10019" lon="7.02276">
        <ele>1674</ele>
        <time>2022-07-26T08:44:55Z</time>
      </trkpt>
      <trkpt lat="44.1002" lon="7.02277">
        <ele>1674</ele>
        <time>2022-07-26T08:44:56Z</time>
      </trkpt>
      <trkpt lat="44.10019" lon="7.02276">
        <ele>1675</ele>
        <time>2022-07-26T08:45:24Z</time>
      </trkpt>
      <trkpt lat="44.10019" lon="7.02276">
        <ele>1675</ele>
        <time>2022-07-26T08:45:25Z</time>
      </trkpt>
      <trkpt lat="44.10019" lon="7.02276">
        <ele>1675</ele>
        <time>2022-07-26T08:45:26Z</time>
      </trkpt>
      <trkpt lat="44.10018" lon="7.02275">
        <ele>1674</ele>
        <time>2022-07-26T08:45:34Z</time>
      </trkpt>
      <trkpt lat="44.10018" lon="7.02275">
        <ele>1674</ele>
        <time>2022-07-26T08:45:35Z</time>
      </trkpt>
      <trkpt lat="44.10018" lon="7.02276">
        <ele>1674</ele>
        <time>2022-07-26T08:45:36Z</time>
      </trkpt>
      <trkpt lat="44.10018" lon="7.02276">
        <ele>1674</ele>
        <time>2022-07-26T08:45:37Z</time>
      </trkpt>
      <trkpt lat="44.10018" lon="7.02277">
        <ele>1674</ele>
        <time>2022-07-26T08:45:38Z</time>
      </trkpt>
      <trkpt lat="44.10018" lon="7.02277">
        <ele>1675</ele>
        <time>2022-07-26T08:46:08Z</time>
      </trkpt>
      <trkpt lat="44.10019" lon="7.02278">
        <ele>1675</ele>
        <time>2022-07-26T08:46:09Z</time>
      </trkpt>
      <trkpt lat="44.10019" lon="7.02278">
        <ele>1675</ele>
        <time>2022-07-26T08:46:10Z</time>
      </trkpt>
      <trkpt lat="44.1002" lon="7.02278">
        <ele>1675</ele>
        <time>2022-07-26T08:46:11Z</time>
      </trkpt>
      <trkpt lat="44.1002" lon="7.02279">
        <ele>1675</ele>
        <time>2022-07-26T08:46:12Z</time>
      </trkpt>
      <trkpt lat="44.10021" lon="7.02277">
        <ele>1674</ele>
        <time>2022-07-26T08:49:50Z</time>
      </trkpt>
      <trkpt lat="44.10022" lon="7.02277">
        <ele>1674</ele>
        <time>2022-07-26T08:49:51Z</time>
      </trkpt>
      <trkpt lat="44.10022" lon="7.02276">
        <ele>1674</ele>
        <time>2022-07-26T08:49:52Z</time>
      </trkpt>
      <trkpt lat="44.10022" lon="7.02277">
        <ele>1675</ele>
        <time>2022-07-26T09:03:52Z</time>
      </trkpt>
      <trkpt lat="44.10022" lon="7.02278">
        <ele>1675</ele>
        <time>2022-07-26T09:03:53Z</time>
      </trkpt>
      <trkpt lat="44.10022" lon="7.02279">
        <ele>1675</ele>
        <time>2022-07-26T09:03:54Z</time>
      </trkpt>
      <trkpt lat="44.10021" lon="7.0228">
        <ele>1675</ele>
        <time>2022-07-26T09:03:55Z</time>
      </trkpt>
      <trkpt lat="44.10021" lon="7.02281">
        <ele>1675</ele>
        <time>2022-07-26T09:03:56Z</time>
      </trkpt>
      <trkpt lat="44.10021" lon="7.02282">
        <ele>1675</ele>
        <time>2022-07-26T09:03:57Z</time>
      </trkpt>
      <trkpt lat="44.10022" lon="7.02284">
        <ele>1675</ele>
        <time>2022-07-26T09:03:58Z</time>
      </trkpt>
      <trkpt lat="44.10022" lon="7.02285">
        <ele>1675</ele>
        <time>2022-07-26T09:03:59Z</time>
      </trkpt>
      <trkpt lat="44.10023" lon="7.02287">
        <ele>1675</ele>
        <time>2022-07-26T09:04:00Z</time>
      </trkpt>
      <trkpt lat="44.10023" lon="7.02288">
        <ele>1675</ele>
        <time>2022-07-26T09:04:01Z</time>
      </trkpt>
      <trkpt lat="44.10024" lon="7.0229">
        <ele>1675</ele>
        <time>2022-07-26T09:04:02Z</time>
      </trkpt>
      <trkpt lat="44.10024" lon="7.02292">
        <ele>1675</ele>
        <time>2022-07-26T09:04:03Z</time>
      </trkpt>
      <trkpt lat="44.10025" lon="7.02293">
        <ele>1675</ele>
        <time>2022-07-26T09:04:04Z</time>
      </trkpt>
      <trkpt lat="44.10025" lon="7.02295">
        <ele>1675</ele>
        <time>2022-07-26T09:04:05Z</time>
      </trkpt>
      <trkpt lat="44.10026" lon="7.02296">
        <ele>1675</ele>
        <time>2022-07-26T09:04:06Z</time>
      </trkpt>
      <trkpt lat="44.10026" lon="7.02298">
        <ele>1675</ele>
        <time>2022-07-26T09:04:07Z</time>
      </trkpt>
      <trkpt lat="44.10026" lon="7.02299">
        <ele>1675</ele>
        <time>2022-07-26T09:04:08Z</time>
      </trkpt>
      <trkpt lat="44.10026" lon="7.023">
        <ele>1675</ele>
        <time>2022-07-26T09:04:09Z</time>
      </trkpt>
      <trkpt lat="44.10026" lon="7.02302">
        <ele>1675</ele>
        <time>2022-07-26T09:04:10Z</time>
      </trkpt>
      <trkpt lat="44.10026" lon="7.02303">
        <ele>1675</ele>
        <time>2022-07-26T09:04:11Z</time>
      </trkpt>
      <trkpt lat="44.10026" lon="7.02305">
        <ele>1675</ele>
        <time>2022-07-26T09:04:12Z</time>
      </trkpt>
      <trkpt lat="44.10026" lon="7.02307">
        <ele>1675</ele>
        <time>2022-07-26T09:04:13Z</time>
      </trkpt>
      <trkpt lat="44.10026" lon="7.02308">
        <ele>1675</ele>
        <time>2022-07-26T09:04:14Z</time>
      </trkpt>
      <trkpt lat="44.10026" lon="7.0231">
        <ele>1675</ele>
        <time>2022-07-26T09:04:15Z</time>
      </trkpt>
      <trkpt lat="44.10026" lon="7.02312">
        <ele>1675</ele>
        <time>2022-07-26T09:04:16Z</time>
      </trkpt>
      <trkpt lat="44.10026" lon="7.02313">
        <ele>1675</ele>
        <time>2022-07-26T09:04:17Z</time>
      </trkpt>
      <trkpt lat="44.10026" lon="7.02315">
        <ele>1675</ele>
        <time>2022-07-26T09:04:18Z</time>
      </trkpt>
      <trkpt lat="44.10026" lon="7.02317">
        <ele>1675</ele>
        <time>2022-07-26T09:04:19Z</time>
      </trkpt>
      <trkpt lat="44.10026" lon="7.02318">
        <ele>1675</ele>
        <time>2022-07-26T09:04:20Z</time>
      </trkpt>
      <trkpt lat="44.10026" lon="7.0232">
        <ele>1675</ele>
        <time>2022-07-26T09:04:21Z</time>
      </trkpt>
      <trkpt lat="44.10026" lon="7.02321">
        <ele>1675</ele>
        <time>2022-07-26T09:04:22Z</time>
      </trkpt>
      <trkpt lat="44.10026" lon="7.02323">
        <ele>1675</ele>
        <time>2022-07-26T09:04:23Z</time>
      </trkpt>
      <trkpt lat="44.10026" lon="7.02324">
        <ele>1675</ele>
        <time>2022-07-26T09:04:24Z</time>
      </trkpt>
      <trkpt lat="44.10026" lon="7.02326">
        <ele>1675</ele>
        <time>2022-07-26T09:04:25Z</time>
      </trkpt>
      <trkpt lat="44.10026" lon="7.02327">
        <ele>1675</ele>
        <time>2022-07-26T09:04:26Z</time>
      </trkpt>
      <trkpt lat="44.10026" lon="7.02328">
        <ele>1675</ele>
        <time>2022-07-26T09:04:27Z</time>
      </trkpt>
      <trkpt lat="44.10026" lon="7.02329">
        <ele>1675</ele>
        <time>2022-07-26T09:04:28Z</time>
      </trkpt>
      <trkpt lat="44.10026" lon="7.0233">
        <ele>1675</ele>
        <time>2022-07-26T09:04:29Z</time>
      </trkpt>
      <trkpt lat="44.10026" lon="7.02331">
        <ele>1675</ele>
        <time>2022-07-26T09:04:30Z</time>
      </trkpt>
      <trkpt lat="44.10027" lon="7.02332">
        <ele>1675</ele>
        <time>2022-07-26T09:04:31Z</time>
      </trkpt>
      <trkpt lat="44.10027" lon="7.02332">
        <ele>1675</ele>
        <time>2022-07-26T09:04:32Z</time>
      </trkpt>
      <trkpt lat="44.10028" lon="7.02333">
        <ele>1675</ele>
        <time>2022-07-26T09:04:33Z</time>
      </trkpt>
      <trkpt lat="44.10028" lon="7.02334">
        <ele>1675</ele>
        <time>2022-07-26T09:04:34Z</time>
      </trkpt>
      <trkpt lat="44.10029" lon="7.02335">
        <ele>1675</ele>
        <time>2022-07-26T09:04:35Z</time>
      </trkpt>
      <trkpt lat="44.10029" lon="7.02336">
        <ele>1675</ele>
        <time>2022-07-26T09:04:36Z</time>
      </trkpt>
      <trkpt lat="44.10029" lon="7.02337">
        <ele>1675</ele>
        <time>2022-07-26T09:04:37Z</time>
      </trkpt>
      <trkpt lat="44.10029" lon="7.02338">
        <ele>1675</ele>
        <time>2022-07-26T09:04:38Z</time>
      </trkpt>
      <trkpt lat="44.10029" lon="7.02339">
        <ele>1675</ele>
        <time>2022-07-26T09:04:39Z</time>
      </trkpt>
      <trkpt lat="44.10029" lon="7.0234">
        <ele>1675</ele>
        <time>2022-07-26T09:04:40Z</time>
      </trkpt>
      <trkpt lat="44.10029" lon="7.02341">
        <ele>1675</ele>
        <time>2022-07-26T09:04:41Z</time>
      </trkpt>
      <trkpt lat="44.10029" lon="7.02342">
        <ele>1675</ele>
        <time>2022-07-26T09:04:42Z</time>
      </trkpt>
      <trkpt lat="44.10029" lon="7.02343">
        <ele>1675</ele>
        <time>2022-07-26T09:04:43Z</time>
      </trkpt>
      <trkpt lat="44.10029" lon="7.02344">
        <ele>1675</ele>
        <time>2022-07-26T09:04:44Z</time>
      </trkpt>
      <trkpt lat="44.10029" lon="7.02345">
        <ele>1675</ele>
        <time>2022-07-26T09:04:45Z</time>
      </trkpt>
      <trkpt lat="44.10029" lon="7.02346">
        <ele>1675</ele>
        <time>2022-07-26T09:04:46Z</time>
      </trkpt>
      <trkpt lat="44.10029" lon="7.02347">
        <ele>1675</ele>
        <time>2022-07-26T09:04:47Z</time>
      </trkpt>
      <trkpt lat="44.10029" lon="7.02348">
        <ele>1675</ele>
        <time>2022-07-26T09:04:48Z</time>
      </trkpt>
      <trkpt lat="44.10029" lon="7.02349">
        <ele>1675</ele>
        <time>2022-07-26T09:04:49Z</time>
      </trkpt>
      <trkpt lat="44.10029" lon="7.0235">
        <ele>1675</ele>
        <time>2022-07-26T09:04:50Z</time>
      </trkpt>
      <trkpt lat="44.1003" lon="7.02351">
        <ele>1675</ele>
        <time>2022-07-26T09:04:51Z</time>
      </trkpt>
      <trkpt lat="44.1003" lon="7.02353">
        <ele>1675</ele>
        <time>2022-07-26T09:04:52Z</time>
      </trkpt>
      <trkpt lat="44.1003" lon="7.02354">
        <ele>1674</ele>
        <time>2022-07-26T09:04:53Z</time>
      </trkpt>
      <trkpt lat="44.1003" lon="7.02356">
        <ele>1674</ele>
        <time>2022-07-26T09:05:00Z</time>
      </trkpt>
      <trkpt lat="44.1003" lon="7.02357">
        <ele>1674</ele>
        <time>2022-07-26T09:05:01Z</time>
      </trkpt>
      <trkpt lat="44.10031" lon="7.02358">
        <ele>1674</ele>
        <time>2022-07-26T09:05:02Z</time>
      </trkpt>
      <trkpt lat="44.10031" lon="7.02358">
        <ele>1673</ele>
        <time>2022-07-26T09:05:03Z</time>
      </trkpt>
      <trkpt lat="44.10031" lon="7.02359">
        <ele>1673</ele>
        <time>2022-07-26T09:05:04Z</time>
      </trkpt>
      <trkpt lat="44.10031" lon="7.0236">
        <ele>1673</ele>
        <time>2022-07-26T09:05:05Z</time>
      </trkpt>
      <trkpt lat="44.10031" lon="7.02361">
        <ele>1673</ele>
        <time>2022-07-26T09:05:06Z</time>
      </trkpt>
      <trkpt lat="44.10031" lon="7.02362">
        <ele>1673</ele>
        <time>2022-07-26T09:05:07Z</time>
      </trkpt>
      <trkpt lat="44.1003" lon="7.02363">
        <ele>1673</ele>
        <time>2022-07-26T09:05:08Z</time>
      </trkpt>
      <trkpt lat="44.10031" lon="7.02364">
        <ele>1673</ele>
        <time>2022-07-26T09:05:09Z</time>
      </trkpt>
      <trkpt lat="44.10031" lon="7.02366">
        <ele>1673</ele>
        <time>2022-07-26T09:05:10Z</time>
      </trkpt>
      <trkpt lat="44.10031" lon="7.02367">
        <ele>1673</ele>
        <time>2022-07-26T09:05:11Z</time>
      </trkpt>
      <trkpt lat="44.10031" lon="7.02368">
        <ele>1673</ele>
        <time>2022-07-26T09:05:12Z</time>
      </trkpt>
      <trkpt lat="44.10031" lon="7.0237">
        <ele>1672</ele>
        <time>2022-07-26T09:05:13Z</time>
      </trkpt>
      <trkpt lat="44.10031" lon="7.02372">
        <ele>1672</ele>
        <time>2022-07-26T09:05:14Z</time>
      </trkpt>
      <trkpt lat="44.10031" lon="7.02373">
        <ele>1672</ele>
        <time>2022-07-26T09:05:15Z</time>
      </trkpt>
      <trkpt lat="44.10032" lon="7.02375">
        <ele>1672</ele>
        <time>2022-07-26T09:05:16Z</time>
      </trkpt>
      <trkpt lat="44.10032" lon="7.02377">
        <ele>1672</ele>
        <time>2022-07-26T09:05:17Z</time>
      </trkpt>
      <trkpt lat="44.10033" lon="7.02379">
        <ele>1671</ele>
        <time>2022-07-26T09:05:18Z</time>
      </trkpt>
      <trkpt lat="44.10033" lon="7.0238">
        <ele>1671</ele>
        <time>2022-07-26T09:05:19Z</time>
      </trkpt>
      <trkpt lat="44.10034" lon="7.02381">
        <ele>1671</ele>
        <time>2022-07-26T09:05:20Z</time>
      </trkpt>
      <trkpt lat="44.10035" lon="7.02382">
        <ele>1671</ele>
        <time>2022-07-26T09:05:21Z</time>
      </trkpt>
      <trkpt lat="44.10035" lon="7.02383">
        <ele>1671</ele>
        <time>2022-07-26T09:05:22Z</time>
      </trkpt>
      <trkpt lat="44.10035" lon="7.02384">
        <ele>1670</ele>
        <time>2022-07-26T09:05:23Z</time>
      </trkpt>
      <trkpt lat="44.10035" lon="7.02384">
        <ele>1670</ele>
        <time>2022-07-26T09:05:24Z</time>
      </trkpt>
      <trkpt lat="44.10035" lon="7.02384">
        <ele>1670</ele>
        <time>2022-07-26T09:05:25Z</time>
      </trkpt>
      <trkpt lat="44.10034" lon="7.02384">
        <ele>1670</ele>
        <time>2022-07-26T09:05:26Z</time>
      </trkpt>
      <trkpt lat="44.10033" lon="7.02384">
        <ele>1670</ele>
        <time>2022-07-26T09:05:27Z</time>
      </trkpt>
      <trkpt lat="44.10032" lon="7.02384">
        <ele>1669</ele>
        <time>2022-07-26T09:05:28Z</time>
      </trkpt>
      <trkpt lat="44.10031" lon="7.02384">
        <ele>1669</ele>
        <time>2022-07-26T09:05:29Z</time>
      </trkpt>
      <trkpt lat="44.1003" lon="7.02383">
        <ele>1669</ele>
        <time>2022-07-26T09:05:30Z</time>
      </trkpt>
      <trkpt lat="44.10029" lon="7.02383">
        <ele>1669</ele>
        <time>2022-07-26T09:05:31Z</time>
      </trkpt>
      <trkpt lat="44.10028" lon="7.02383">
        <ele>1669</ele>
        <time>2022-07-26T09:05:32Z</time>
      </trkpt>
      <trkpt lat="44.10026" lon="7.02383">
        <ele>1668</ele>
        <time>2022-07-26T09:05:33Z</time>
      </trkpt>
      <trkpt lat="44.10025" lon="7.02382">
        <ele>1668</ele>
        <time>2022-07-26T09:05:34Z</time>
      </trkpt>
      <trkpt lat="44.10024" lon="7.02382">
        <ele>1668</ele>
        <time>2022-07-26T09:05:35Z</time>
      </trkpt>
      <trkpt lat="44.10023" lon="7.02381">
        <ele>1668</ele>
        <time>2022-07-26T09:05:36Z</time>
      </trkpt>
      <trkpt lat="44.10022" lon="7.02381">
        <ele>1668</ele>
        <time>2022-07-26T09:05:37Z</time>
      </trkpt>
      <trkpt lat="44.10021" lon="7.0238">
        <ele>1668</ele>
        <time>2022-07-26T09:05:38Z</time>
      </trkpt>
      <trkpt lat="44.1002" lon="7.0238">
        <ele>1668</ele>
        <time>2022-07-26T09:05:39Z</time>
      </trkpt>
      <trkpt lat="44.1002" lon="7.02379">
        <ele>1668</ele>
        <time>2022-07-26T09:05:40Z</time>
      </trkpt>
      <trkpt lat="44.10019" lon="7.02379">
        <ele>1668</ele>
        <time>2022-07-26T09:05:41Z</time>
      </trkpt>
      <trkpt lat="44.10018" lon="7.02379">
        <ele>1668</ele>
        <time>2022-07-26T09:05:42Z</time>
      </trkpt>
      <trkpt lat="44.10017" lon="7.02379">
        <ele>1667</ele>
        <time>2022-07-26T09:05:43Z</time>
      </trkpt>
      <trkpt lat="44.10016" lon="7.02379">
        <ele>1667</ele>
        <time>2022-07-26T09:05:44Z</time>
      </trkpt>
      <trkpt lat="44.10015" lon="7.02379">
        <ele>1667</ele>
        <time>2022-07-26T09:05:45Z</time>
      </trkpt>
      <trkpt lat="44.10014" lon="7.02378">
        <ele>1667</ele>
        <time>2022-07-26T09:05:46Z</time>
      </trkpt>
      <trkpt lat="44.10013" lon="7.02378">
        <ele>1667</ele>
        <time>2022-07-26T09:05:47Z</time>
      </trkpt>
      <trkpt lat="44.10013" lon="7.02378">
        <ele>1666</ele>
        <time>2022-07-26T09:05:48Z</time>
      </trkpt>
      <trkpt lat="44.10012" lon="7.02379">
        <ele>1666</ele>
        <time>2022-07-26T09:05:49Z</time>
      </trkpt>
      <trkpt lat="44.10012" lon="7.02379">
        <ele>1665</ele>
        <time>2022-07-26T09:05:50Z</time>
      </trkpt>
      <trkpt lat="44.10012" lon="7.02379">
        <ele>1665</ele>
        <time>2022-07-26T09:05:51Z</time>
      </trkpt>
      <trkpt lat="44.10012" lon="7.02379">
        <ele>1665</ele>
        <time>2022-07-26T09:05:52Z</time>
      </trkpt>
      <trkpt lat="44.10013" lon="7.0238">
        <ele>1664</ele>
        <time>2022-07-26T09:05:53Z</time>
      </trkpt>
      <trkpt lat="44.10013" lon="7.02381">
        <ele>1664</ele>
        <time>2022-07-26T09:05:54Z</time>
      </trkpt>
      <trkpt lat="44.10016" lon="7.02383">
        <ele>1662</ele>
        <time>2022-07-26T09:06:11Z</time>
      </trkpt>
      <trkpt lat="44.10016" lon="7.02383">
        <ele>1662</ele>
        <time>2022-07-26T09:06:12Z</time>
      </trkpt>
      <trkpt lat="44.10017" lon="7.02384">
        <ele>1662</ele>
        <time>2022-07-26T09:06:13Z</time>
      </trkpt>
      <trkpt lat="44.10017" lon="7.02384">
        <ele>1662</ele>
        <time>2022-07-26T09:06:14Z</time>
      </trkpt>
      <trkpt lat="44.10017" lon="7.02384">
        <ele>1662</ele>
        <time>2022-07-26T09:06:15Z</time>
      </trkpt>
      <trkpt lat="44.10016" lon="7.02385">
        <ele>1662</ele>
        <time>2022-07-26T09:06:16Z</time>
      </trkpt>
      <trkpt lat="44.10016" lon="7.02385">
        <ele>1662</ele>
        <time>2022-07-26T09:06:17Z</time>
      </trkpt>
      <trkpt lat="44.10015" lon="7.02386">
        <ele>1662</ele>
        <time>2022-07-26T09:06:18Z</time>
      </trkpt>
      <trkpt lat="44.10014" lon="7.02386">
        <ele>1662</ele>
        <time>2022-07-26T09:06:19Z</time>
      </trkpt>
      <trkpt lat="44.10014" lon="7.02388">
        <ele>1662</ele>
        <time>2022-07-26T09:06:20Z</time>
      </trkpt>
      <trkpt lat="44.10014" lon="7.02389">
        <ele>1662</ele>
        <time>2022-07-26T09:06:21Z</time>
      </trkpt>
      <trkpt lat="44.10013" lon="7.0239">
        <ele>1662</ele>
        <time>2022-07-26T09:06:22Z</time>
      </trkpt>
      <trkpt lat="44.10013" lon="7.02392">
        <ele>1661</ele>
        <time>2022-07-26T09:06:23Z</time>
      </trkpt>
      <trkpt lat="44.10014" lon="7.02393">
        <ele>1661</ele>
        <time>2022-07-26T09:06:24Z</time>
      </trkpt>
      <trkpt lat="44.10014" lon="7.02394">
        <ele>1661</ele>
        <time>2022-07-26T09:06:25Z</time>
      </trkpt>
      <trkpt lat="44.10014" lon="7.02394">
        <ele>1661</ele>
        <time>2022-07-26T09:06:26Z</time>
      </trkpt>
      <trkpt lat="44.10014" lon="7.02394">
        <ele>1661</ele>
        <time>2022-07-26T09:06:27Z</time>
      </trkpt>
      <trkpt lat="44.10015" lon="7.02395">
        <ele>1660</ele>
        <time>2022-07-26T09:06:28Z</time>
      </trkpt>
      <trkpt lat="44.10015" lon="7.02395">
        <ele>1660</ele>
        <time>2022-07-26T09:06:29Z</time>
      </trkpt>
      <trkpt lat="44.10016" lon="7.02395">
        <ele>1659</ele>
        <time>2022-07-26T09:06:30Z</time>
      </trkpt>
      <trkpt lat="44.10016" lon="7.02395">
        <ele>1659</ele>
        <time>2022-07-26T09:06:31Z</time>
      </trkpt>
      <trkpt lat="44.10017" lon="7.02396">
        <ele>1659</ele>
        <time>2022-07-26T09:06:32Z</time>
      </trkpt>
      <trkpt lat="44.10018" lon="7.02397">
        <ele>1659</ele>
        <time>2022-07-26T09:06:33Z</time>
      </trkpt>
      <trkpt lat="44.10019" lon="7.02398">
        <ele>1659</ele>
        <time>2022-07-26T09:06:34Z</time>
      </trkpt>
      <trkpt lat="44.10019" lon="7.02399">
        <ele>1659</ele>
        <time>2022-07-26T09:06:35Z</time>
      </trkpt>
      <trkpt lat="44.1002" lon="7.024">
        <ele>1659</ele>
        <time>2022-07-26T09:06:36Z</time>
      </trkpt>
      <trkpt lat="44.10021" lon="7.02402">
        <ele>1659</ele>
        <time>2022-07-26T09:06:37Z</time>
      </trkpt>
      <trkpt lat="44.10021" lon="7.02403">
        <ele>1658</ele>
        <time>2022-07-26T09:06:38Z</time>
      </trkpt>
      <trkpt lat="44.10022" lon="7.02404">
        <ele>1658</ele>
        <time>2022-07-26T09:06:39Z</time>
      </trkpt>
      <trkpt lat="44.10022" lon="7.02405">
        <ele>1658</ele>
        <time>2022-07-26T09:06:40Z</time>
      </trkpt>
      <trkpt lat="44.10023" lon="7.02406">
        <ele>1658</ele>
        <time>2022-07-26T09:06:41Z</time>
      </trkpt>
      <trkpt lat="44.10024" lon="7.02407">
        <ele>1658</ele>
        <time>2022-07-26T09:06:42Z</time>
      </trkpt>
      <trkpt lat="44.10024" lon="7.02409">
        <ele>1657</ele>
        <time>2022-07-26T09:06:43Z</time>
      </trkpt>
      <trkpt lat="44.10025" lon="7.0241">
        <ele>1657</ele>
        <time>2022-07-26T09:06:44Z</time>
      </trkpt>
      <trkpt lat="44.10025" lon="7.02412">
        <ele>1657</ele>
        <time>2022-07-26T09:06:45Z</time>
      </trkpt>
      <trkpt lat="44.10026" lon="7.02413">
        <ele>1657</ele>
        <time>2022-07-26T09:06:46Z</time>
      </trkpt>
      <trkpt lat="44.10026" lon="7.02415">
        <ele>1657</ele>
        <time>2022-07-26T09:06:47Z</time>
      </trkpt>
      <trkpt lat="44.10026" lon="7.02416">
        <ele>1656</ele>
        <time>2022-07-26T09:06:48Z</time>
      </trkpt>
      <trkpt lat="44.10025" lon="7.02417">
        <ele>1656</ele>
        <time>2022-07-26T09:06:49Z</time>
      </trkpt>
      <trkpt lat="44.10025" lon="7.02418">
        <ele>1656</ele>
        <time>2022-07-26T09:06:50Z</time>
      </trkpt>
      <trkpt lat="44.10024" lon="7.02419">
        <ele>1656</ele>
        <time>2022-07-26T09:06:51Z</time>
      </trkpt>
      <trkpt lat="44.10023" lon="7.0242">
        <ele>1656</ele>
        <time>2022-07-26T09:06:52Z</time>
      </trkpt>
      <trkpt lat="44.10022" lon="7.0242">
        <ele>1655</ele>
        <time>2022-07-26T09:06:53Z</time>
      </trkpt>
      <trkpt lat="44.10021" lon="7.0242">
        <ele>1655</ele>
        <time>2022-07-26T09:06:54Z</time>
      </trkpt>
      <trkpt lat="44.1002" lon="7.02421">
        <ele>1655</ele>
        <time>2022-07-26T09:06:55Z</time>
      </trkpt>
      <trkpt lat="44.10018" lon="7.02421">
        <ele>1655</ele>
        <time>2022-07-26T09:06:56Z</time>
      </trkpt>
      <trkpt lat="44.10017" lon="7.02421">
        <ele>1655</ele>
        <time>2022-07-26T09:06:57Z</time>
      </trkpt>
      <trkpt lat="44.10016" lon="7.02421">
        <ele>1654</ele>
        <time>2022-07-26T09:06:58Z</time>
      </trkpt>
      <trkpt lat="44.10015" lon="7.02421">
        <ele>1654</ele>
        <time>2022-07-26T09:06:59Z</time>
      </trkpt>
      <trkpt lat="44.10014" lon="7.02421">
        <ele>1654</ele>
        <time>2022-07-26T09:07:00Z</time>
      </trkpt>
      <trkpt lat="44.10013" lon="7.02421">
        <ele>1654</ele>
        <time>2022-07-26T09:07:01Z</time>
      </trkpt>
      <trkpt lat="44.10012" lon="7.02421">
        <ele>1654</ele>
        <time>2022-07-26T09:07:02Z</time>
      </trkpt>
      <trkpt lat="44.10011" lon="7.0242">
        <ele>1653</ele>
        <time>2022-07-26T09:07:03Z</time>
      </trkpt>
      <trkpt lat="44.1001" lon="7.0242">
        <ele>1653</ele>
        <time>2022-07-26T09:07:04Z</time>
      </trkpt>
      <trkpt lat="44.10009" lon="7.0242">
        <ele>1653</ele>
        <time>2022-07-26T09:07:05Z</time>
      </trkpt>
      <trkpt lat="44.10008" lon="7.02419">
        <ele>1653</ele>
        <time>2022-07-26T09:07:06Z</time>
      </trkpt>
      <trkpt lat="44.10007" lon="7.02418">
        <ele>1653</ele>
        <time>2022-07-26T09:07:07Z</time>
      </trkpt>
      <trkpt lat="44.10006" lon="7.02418">
        <ele>1653</ele>
        <time>2022-07-26T09:07:08Z</time>
      </trkpt>
      <trkpt lat="44.10005" lon="7.02418">
        <ele>1653</ele>
        <time>2022-07-26T09:07:09Z</time>
      </trkpt>
      <trkpt lat="44.10004" lon="7.02417">
        <ele>1653</ele>
        <time>2022-07-26T09:07:10Z</time>
      </trkpt>
      <trkpt lat="44.10002" lon="7.02417">
        <ele>1653</ele>
        <time>2022-07-26T09:07:11Z</time>
      </trkpt>
      <trkpt lat="44.10001" lon="7.02416">
        <ele>1653</ele>
        <time>2022-07-26T09:07:12Z</time>
      </trkpt>
      <trkpt lat="44.09999" lon="7.02416">
        <ele>1652</ele>
        <time>2022-07-26T09:07:13Z</time>
      </trkpt>
      <trkpt lat="44.09998" lon="7.02415">
        <ele>1652</ele>
        <time>2022-07-26T09:07:14Z</time>
      </trkpt>
      <trkpt lat="44.09997" lon="7.02415">
        <ele>1652</ele>
        <time>2022-07-26T09:07:15Z</time>
      </trkpt>
      <trkpt lat="44.09996" lon="7.02415">
        <ele>1652</ele>
        <time>2022-07-26T09:07:16Z</time>
      </trkpt>
      <trkpt lat="44.09994" lon="7.02415">
        <ele>1652</ele>
        <time>2022-07-26T09:07:17Z</time>
      </trkpt>
      <trkpt lat="44.09993" lon="7.02414">
        <ele>1651</ele>
        <time>2022-07-26T09:07:18Z</time>
      </trkpt>
      <trkpt lat="44.09992" lon="7.02414">
        <ele>1651</ele>
        <time>2022-07-26T09:07:19Z</time>
      </trkpt>
      <trkpt lat="44.0999" lon="7.02414">
        <ele>1651</ele>
        <time>2022-07-26T09:07:20Z</time>
      </trkpt>
      <trkpt lat="44.09989" lon="7.02414">
        <ele>1651</ele>
        <time>2022-07-26T09:07:21Z</time>
      </trkpt>
      <trkpt lat="44.09988" lon="7.02415">
        <ele>1651</ele>
        <time>2022-07-26T09:07:22Z</time>
      </trkpt>
      <trkpt lat="44.09987" lon="7.02415">
        <ele>1650</ele>
        <time>2022-07-26T09:07:23Z</time>
      </trkpt>
      <trkpt lat="44.09986" lon="7.02415">
        <ele>1650</ele>
        <time>2022-07-26T09:07:24Z</time>
      </trkpt>
      <trkpt lat="44.09985" lon="7.02416">
        <ele>1650</ele>
        <time>2022-07-26T09:07:25Z</time>
      </trkpt>
      <trkpt lat="44.09984" lon="7.02416">
        <ele>1650</ele>
        <time>2022-07-26T09:07:26Z</time>
      </trkpt>
      <trkpt lat="44.09982" lon="7.02417">
        <ele>1650</ele>
        <time>2022-07-26T09:07:27Z</time>
      </trkpt>
      <trkpt lat="44.09981" lon="7.02417">
        <ele>1649</ele>
        <time>2022-07-26T09:07:28Z</time>
      </trkpt>
      <trkpt lat="44.0998" lon="7.02418">
        <ele>1649</ele>
        <time>2022-07-26T09:07:29Z</time>
      </trkpt>
      <trkpt lat="44.09979" lon="7.02419">
        <ele>1649</ele>
        <time>2022-07-26T09:07:30Z</time>
      </trkpt>
      <trkpt lat="44.09978" lon="7.0242">
        <ele>1649</ele>
        <time>2022-07-26T09:07:31Z</time>
      </trkpt>
      <trkpt lat="44.09978" lon="7.02421">
        <ele>1649</ele>
        <time>2022-07-26T09:07:32Z</time>
      </trkpt>
      <trkpt lat="44.09977" lon="7.02422">
        <ele>1648</ele>
        <time>2022-07-26T09:07:33Z</time>
      </trkpt>
      <trkpt lat="44.09976" lon="7.02423">
        <ele>1648</ele>
        <time>2022-07-26T09:07:34Z</time>
      </trkpt>
      <trkpt lat="44.09976" lon="7.02424">
        <ele>1648</ele>
        <time>2022-07-26T09:07:35Z</time>
      </trkpt>
      <trkpt lat="44.09975" lon="7.02425">
        <ele>1648</ele>
        <time>2022-07-26T09:07:36Z</time>
      </trkpt>
      <trkpt lat="44.09974" lon="7.02426">
        <ele>1648</ele>
        <time>2022-07-26T09:07:37Z</time>
      </trkpt>
      <trkpt lat="44.09974" lon="7.02427">
        <ele>1648</ele>
        <time>2022-07-26T09:07:38Z</time>
      </trkpt>
      <trkpt lat="44.09973" lon="7.02428">
        <ele>1648</ele>
        <time>2022-07-26T09:07:39Z</time>
      </trkpt>
      <trkpt lat="44.09973" lon="7.02428">
        <ele>1648</ele>
        <time>2022-07-26T09:07:40Z</time>
      </trkpt>
      <trkpt lat="44.09972" lon="7.02429">
        <ele>1648</ele>
        <time>2022-07-26T09:07:41Z</time>
      </trkpt>
      <trkpt lat="44.09971" lon="7.0243">
        <ele>1648</ele>
        <time>2022-07-26T09:07:42Z</time>
      </trkpt>
      <trkpt lat="44.09971" lon="7.02431">
        <ele>1647</ele>
        <time>2022-07-26T09:07:43Z</time>
      </trkpt>
      <trkpt lat="44.0997" lon="7.02431">
        <ele>1647</ele>
        <time>2022-07-26T09:07:44Z</time>
      </trkpt>
      <trkpt lat="44.0997" lon="7.02432">
        <ele>1647</ele>
        <time>2022-07-26T09:07:45Z</time>
      </trkpt>
      <trkpt lat="44.09969" lon="7.02432">
        <ele>1647</ele>
        <time>2022-07-26T09:07:46Z</time>
      </trkpt>
      <trkpt lat="44.09968" lon="7.02432">
        <ele>1647</ele>
        <time>2022-07-26T09:07:47Z</time>
      </trkpt>
      <trkpt lat="44.09968" lon="7.02433">
        <ele>1646</ele>
        <time>2022-07-26T09:07:48Z</time>
      </trkpt>
      <trkpt lat="44.09967" lon="7.02433">
        <ele>1646</ele>
        <time>2022-07-26T09:07:49Z</time>
      </trkpt>
      <trkpt lat="44.09967" lon="7.02434">
        <ele>1646</ele>
        <time>2022-07-26T09:07:50Z</time>
      </trkpt>
      <trkpt lat="44.09966" lon="7.02435">
        <ele>1646</ele>
        <time>2022-07-26T09:07:51Z</time>
      </trkpt>
      <trkpt lat="44.09966" lon="7.02436">
        <ele>1646</ele>
        <time>2022-07-26T09:07:52Z</time>
      </trkpt>
      <trkpt lat="44.09965" lon="7.02438">
        <ele>1646</ele>
        <time>2022-07-26T09:07:53Z</time>
      </trkpt>
      <trkpt lat="44.09965" lon="7.02439">
        <ele>1646</ele>
        <time>2022-07-26T09:07:54Z</time>
      </trkpt>
      <trkpt lat="44.09964" lon="7.0244">
        <ele>1646</ele>
        <time>2022-07-26T09:07:55Z</time>
      </trkpt>
      <trkpt lat="44.09964" lon="7.02441">
        <ele>1646</ele>
        <time>2022-07-26T09:07:56Z</time>
      </trkpt>
      <trkpt lat="44.09963" lon="7.02442">
        <ele>1646</ele>
        <time>2022-07-26T09:07:57Z</time>
      </trkpt>
      <trkpt lat="44.09963" lon="7.02443">
        <ele>1645</ele>
        <time>2022-07-26T09:07:58Z</time>
      </trkpt>
      <trkpt lat="44.09962" lon="7.02445">
        <ele>1645</ele>
        <time>2022-07-26T09:07:59Z</time>
      </trkpt>
      <trkpt lat="44.09961" lon="7.02446">
        <ele>1645</ele>
        <time>2022-07-26T09:08:00Z</time>
      </trkpt>
      <trkpt lat="44.09961" lon="7.02447">
        <ele>1645</ele>
        <time>2022-07-26T09:08:01Z</time>
      </trkpt>
      <trkpt lat="44.0996" lon="7.02447">
        <ele>1645</ele>
        <time>2022-07-26T09:08:02Z</time>
      </trkpt>
      <trkpt lat="44.0996" lon="7.02448">
        <ele>1644</ele>
        <time>2022-07-26T09:08:03Z</time>
      </trkpt>
      <trkpt lat="44.09959" lon="7.02449">
        <ele>1644</ele>
        <time>2022-07-26T09:08:04Z</time>
      </trkpt>
      <trkpt lat="44.09959" lon="7.0245">
        <ele>1644</ele>
        <time>2022-07-26T09:08:05Z</time>
      </trkpt>
      <trkpt lat="44.09958" lon="7.02451">
        <ele>1644</ele>
        <time>2022-07-26T09:08:06Z</time>
      </trkpt>
      <trkpt lat="44.09958" lon="7.02452">
        <ele>1644</ele>
        <time>2022-07-26T09:08:07Z</time>
      </trkpt>
      <trkpt lat="44.09957" lon="7.02453">
        <ele>1644</ele>
        <time>2022-07-26T09:08:08Z</time>
      </trkpt>
      <trkpt lat="44.09956" lon="7.02454">
        <ele>1644</ele>
        <time>2022-07-26T09:08:09Z</time>
      </trkpt>
      <trkpt lat="44.09956" lon="7.02455">
        <ele>1644</ele>
        <time>2022-07-26T09:08:10Z</time>
      </trkpt>
      <trkpt lat="44.09955" lon="7.02456">
        <ele>1644</ele>
        <time>2022-07-26T09:08:11Z</time>
      </trkpt>
      <trkpt lat="44.09954" lon="7.02457">
        <ele>1644</ele>
        <time>2022-07-26T09:08:12Z</time>
      </trkpt>
      <trkpt lat="44.09953" lon="7.02458">
        <ele>1643</ele>
        <time>2022-07-26T09:08:13Z</time>
      </trkpt>
      <trkpt lat="44.09952" lon="7.02459">
        <ele>1643</ele>
        <time>2022-07-26T09:08:14Z</time>
      </trkpt>
      <trkpt lat="44.09952" lon="7.0246">
        <ele>1642</ele>
        <time>2022-07-26T09:08:15Z</time>
      </trkpt>
      <trkpt lat="44.09951" lon="7.02461">
        <ele>1642</ele>
        <time>2022-07-26T09:08:25Z</time>
      </trkpt>
      <trkpt lat="44.0995" lon="7.02461">
        <ele>1642</ele>
        <time>2022-07-26T09:08:26Z</time>
      </trkpt>
      <trkpt lat="44.09949" lon="7.02461">
        <ele>1642</ele>
        <time>2022-07-26T09:08:27Z</time>
      </trkpt>
      <trkpt lat="44.09949" lon="7.02461">
        <ele>1641</ele>
        <time>2022-07-26T09:08:28Z</time>
      </trkpt>
      <trkpt lat="44.09948" lon="7.02461">
        <ele>1641</ele>
        <time>2022-07-26T09:08:29Z</time>
      </trkpt>
      <trkpt lat="44.09948" lon="7.02461">
        <ele>1641</ele>
        <time>2022-07-26T09:08:30Z</time>
      </trkpt>
      <trkpt lat="44.09947" lon="7.02461">
        <ele>1641</ele>
        <time>2022-07-26T09:08:31Z</time>
      </trkpt>
      <trkpt lat="44.09947" lon="7.0246">
        <ele>1641</ele>
        <time>2022-07-26T09:08:32Z</time>
      </trkpt>
      <trkpt lat="44.09946" lon="7.0246">
        <ele>1641</ele>
        <time>2022-07-26T09:08:33Z</time>
      </trkpt>
      <trkpt lat="44.09946" lon="7.02459">
        <ele>1641</ele>
        <time>2022-07-26T09:08:34Z</time>
      </trkpt>
      <trkpt lat="44.09945" lon="7.02459">
        <ele>1641</ele>
        <time>2022-07-26T09:08:35Z</time>
      </trkpt>
      <trkpt lat="44.09945" lon="7.02458">
        <ele>1641</ele>
        <time>2022-07-26T09:08:36Z</time>
      </trkpt>
      <trkpt lat="44.09945" lon="7.02458">
        <ele>1641</ele>
        <time>2022-07-26T09:08:37Z</time>
      </trkpt>
      <trkpt lat="44.09944" lon="7.02457">
        <ele>1641</ele>
        <time>2022-07-26T09:08:38Z</time>
      </trkpt>
      <trkpt lat="44.09944" lon="7.02457">
        <ele>1641</ele>
        <time>2022-07-26T09:08:39Z</time>
      </trkpt>
      <trkpt lat="44.09943" lon="7.02456">
        <ele>1641</ele>
        <time>2022-07-26T09:08:40Z</time>
      </trkpt>
      <trkpt lat="44.09943" lon="7.02455">
        <ele>1641</ele>
        <time>2022-07-26T09:08:41Z</time>
      </trkpt>
      <trkpt lat="44.09942" lon="7.02454">
        <ele>1641</ele>
        <time>2022-07-26T09:08:42Z</time>
      </trkpt>
      <trkpt lat="44.09942" lon="7.02454">
        <ele>1641</ele>
        <time>2022-07-26T09:08:43Z</time>
      </trkpt>
      <trkpt lat="44.09941" lon="7.02453">
        <ele>1641</ele>
        <time>2022-07-26T09:08:44Z</time>
      </trkpt>
      <trkpt lat="44.0994" lon="7.02452">
        <ele>1641</ele>
        <time>2022-07-26T09:08:45Z</time>
      </trkpt>
      <trkpt lat="44.09939" lon="7.02452">
        <ele>1641</ele>
        <time>2022-07-26T09:08:46Z</time>
      </trkpt>
      <trkpt lat="44.09938" lon="7.02451">
        <ele>1641</ele>
        <time>2022-07-26T09:08:47Z</time>
      </trkpt>
      <trkpt lat="44.09937" lon="7.0245">
        <ele>1641</ele>
        <time>2022-07-26T09:08:48Z</time>
      </trkpt>
      <trkpt lat="44.09936" lon="7.02449">
        <ele>1641</ele>
        <time>2022-07-26T09:08:49Z</time>
      </trkpt>
      <trkpt lat="44.09935" lon="7.02448">
        <ele>1641</ele>
        <time>2022-07-26T09:08:50Z</time>
      </trkpt>
      <trkpt lat="44.09934" lon="7.02448">
        <ele>1641</ele>
        <time>2022-07-26T09:08:51Z</time>
      </trkpt>
      <trkpt lat="44.09933" lon="7.02447">
        <ele>1641</ele>
        <time>2022-07-26T09:08:52Z</time>
      </trkpt>
      <trkpt lat="44.09932" lon="7.02447">
        <ele>1640</ele>
        <time>2022-07-26T09:08:53Z</time>
      </trkpt>
      <trkpt lat="44.09931" lon="7.02446">
        <ele>1640</ele>
        <time>2022-07-26T09:08:54Z</time>
      </trkpt>
      <trkpt lat="44.0993" lon="7.02446">
        <ele>1640</ele>
        <time>2022-07-26T09:08:55Z</time>
      </trkpt>
      <trkpt lat="44.09929" lon="7.02445">
        <ele>1640</ele>
        <time>2022-07-26T09:08:56Z</time>
      </trkpt>
      <trkpt lat="44.09928" lon="7.02445">
        <ele>1640</ele>
        <time>2022-07-26T09:08:57Z</time>
      </trkpt>
      <trkpt lat="44.09927" lon="7.02444">
        <ele>1640</ele>
        <time>2022-07-26T09:08:58Z</time>
      </trkpt>
      <trkpt lat="44.09926" lon="7.02443">
        <ele>1640</ele>
        <time>2022-07-26T09:08:59Z</time>
      </trkpt>
      <trkpt lat="44.09924" lon="7.02443">
        <ele>1640</ele>
        <time>2022-07-26T09:09:00Z</time>
      </trkpt>
      <trkpt lat="44.09923" lon="7.02442">
        <ele>1640</ele>
        <time>2022-07-26T09:09:01Z</time>
      </trkpt>
      <trkpt lat="44.09922" lon="7.02442">
        <ele>1640</ele>
        <time>2022-07-26T09:09:02Z</time>
      </trkpt>
      <trkpt lat="44.09921" lon="7.02441">
        <ele>1639</ele>
        <time>2022-07-26T09:09:03Z</time>
      </trkpt>
      <trkpt lat="44.0992" lon="7.02441">
        <ele>1639</ele>
        <time>2022-07-26T09:09:04Z</time>
      </trkpt>
      <trkpt lat="44.09919" lon="7.0244">
        <ele>1639</ele>
        <time>2022-07-26T09:09:05Z</time>
      </trkpt>
      <trkpt lat="44.09918" lon="7.0244">
        <ele>1639</ele>
        <time>2022-07-26T09:09:06Z</time>
      </trkpt>
      <trkpt lat="44.09917" lon="7.02439">
        <ele>1639</ele>
        <time>2022-07-26T09:09:07Z</time>
      </trkpt>
      <trkpt lat="44.09916" lon="7.02439">
        <ele>1639</ele>
        <time>2022-07-26T09:09:08Z</time>
      </trkpt>
      <trkpt lat="44.09914" lon="7.02438">
        <ele>1639</ele>
        <time>2022-07-26T09:09:09Z</time>
      </trkpt>
      <trkpt lat="44.09913" lon="7.02438">
        <ele>1639</ele>
        <time>2022-07-26T09:09:10Z</time>
      </trkpt>
      <trkpt lat="44.09912" lon="7.02438">
        <ele>1639</ele>
        <time>2022-07-26T09:09:11Z</time>
      </trkpt>
      <trkpt lat="44.09911" lon="7.02437">
        <ele>1639</ele>
        <time>2022-07-26T09:09:12Z</time>
      </trkpt>
      <trkpt lat="44.0991" lon="7.02437">
        <ele>1638</ele>
        <time>2022-07-26T09:09:13Z</time>
      </trkpt>
      <trkpt lat="44.09908" lon="7.02437">
        <ele>1638</ele>
        <time>2022-07-26T09:09:14Z</time>
      </trkpt>
      <trkpt lat="44.09907" lon="7.02437">
        <ele>1638</ele>
        <time>2022-07-26T09:09:15Z</time>
      </trkpt>
      <trkpt lat="44.09906" lon="7.02437">
        <ele>1638</ele>
        <time>2022-07-26T09:09:16Z</time>
      </trkpt>
      <trkpt lat="44.09905" lon="7.02437">
        <ele>1638</ele>
        <time>2022-07-26T09:09:17Z</time>
      </trkpt>
      <trkpt lat="44.09904" lon="7.02437">
        <ele>1638</ele>
        <time>2022-07-26T09:09:18Z</time>
      </trkpt>
      <trkpt lat="44.09903" lon="7.02437">
        <ele>1638</ele>
        <time>2022-07-26T09:09:19Z</time>
      </trkpt>
      <trkpt lat="44.09901" lon="7.02437">
        <ele>1638</ele>
        <time>2022-07-26T09:09:20Z</time>
      </trkpt>
      <trkpt lat="44.099" lon="7.02437">
        <ele>1638</ele>
        <time>2022-07-26T09:09:21Z</time>
      </trkpt>
      <trkpt lat="44.09899" lon="7.02437">
        <ele>1638</ele>
        <time>2022-07-26T09:09:22Z</time>
      </trkpt>
      <trkpt lat="44.09899" lon="7.02437">
        <ele>1637</ele>
        <time>2022-07-26T09:09:23Z</time>
      </trkpt>
      <trkpt lat="44.09898" lon="7.02438">
        <ele>1637</ele>
        <time>2022-07-26T09:09:24Z</time>
      </trkpt>
      <trkpt lat="44.09897" lon="7.02438">
        <ele>1637</ele>
        <time>2022-07-26T09:09:25Z</time>
      </trkpt>
      <trkpt lat="44.09896" lon="7.02438">
        <ele>1637</ele>
        <time>2022-07-26T09:09:26Z</time>
      </trkpt>
      <trkpt lat="44.09895" lon="7.02438">
        <ele>1637</ele>
        <time>2022-07-26T09:09:27Z</time>
      </trkpt>
      <trkpt lat="44.09894" lon="7.02439">
        <ele>1637</ele>
        <time>2022-07-26T09:09:28Z</time>
      </trkpt>
      <trkpt lat="44.09893" lon="7.02439">
        <ele>1637</ele>
        <time>2022-07-26T09:09:29Z</time>
      </trkpt>
      <trkpt lat="44.09892" lon="7.02439">
        <ele>1637</ele>
        <time>2022-07-26T09:09:30Z</time>
      </trkpt>
      <trkpt lat="44.09891" lon="7.0244">
        <ele>1637</ele>
        <time>2022-07-26T09:09:31Z</time>
      </trkpt>
      <trkpt lat="44.09889" lon="7.0244">
        <ele>1637</ele>
        <time>2022-07-26T09:09:32Z</time>
      </trkpt>
      <trkpt lat="44.09888" lon="7.0244">
        <ele>1636</ele>
        <time>2022-07-26T09:09:33Z</time>
      </trkpt>
      <trkpt lat="44.09888" lon="7.0244">
        <ele>1636</ele>
        <time>2022-07-26T09:09:34Z</time>
      </trkpt>
      <trkpt lat="44.09887" lon="7.0244">
        <ele>1636</ele>
        <time>2022-07-26T09:09:35Z</time>
      </trkpt>
      <trkpt lat="44.09886" lon="7.0244">
        <ele>1636</ele>
        <time>2022-07-26T09:09:36Z</time>
      </trkpt>
      <trkpt lat="44.09885" lon="7.02441">
        <ele>1636</ele>
        <time>2022-07-26T09:09:37Z</time>
      </trkpt>
      <trkpt lat="44.09884" lon="7.02441">
        <ele>1636</ele>
        <time>2022-07-26T09:09:38Z</time>
      </trkpt>
      <trkpt lat="44.09883" lon="7.02441">
        <ele>1636</ele>
        <time>2022-07-26T09:09:39Z</time>
      </trkpt>
      <trkpt lat="44.09883" lon="7.02441">
        <ele>1636</ele>
        <time>2022-07-26T09:09:40Z</time>
      </trkpt>
      <trkpt lat="44.09882" lon="7.02441">
        <ele>1636</ele>
        <time>2022-07-26T09:09:41Z</time>
      </trkpt>
      <trkpt lat="44.09881" lon="7.02441">
        <ele>1636</ele>
        <time>2022-07-26T09:09:42Z</time>
      </trkpt>
      <trkpt lat="44.0988" lon="7.02441">
        <ele>1636</ele>
        <time>2022-07-26T09:09:43Z</time>
      </trkpt>
      <trkpt lat="44.09879" lon="7.02441">
        <ele>1636</ele>
        <time>2022-07-26T09:09:44Z</time>
      </trkpt>
      <trkpt lat="44.09878" lon="7.02441">
        <ele>1636</ele>
        <time>2022-07-26T09:09:45Z</time>
      </trkpt>
      <trkpt lat="44.09877" lon="7.02441">
        <ele>1636</ele>
        <time>2022-07-26T09:09:46Z</time>
      </trkpt>
      <trkpt lat="44.09877" lon="7.02441">
        <ele>1636</ele>
        <time>2022-07-26T09:09:47Z</time>
      </trkpt>
      <trkpt lat="44.09876" lon="7.02441">
        <ele>1635</ele>
        <time>2022-07-26T09:09:48Z</time>
      </trkpt>
      <trkpt lat="44.09876" lon="7.02441">
        <ele>1635</ele>
        <time>2022-07-26T09:09:49Z</time>
      </trkpt>
      <trkpt lat="44.09875" lon="7.02441">
        <ele>1635</ele>
        <time>2022-07-26T09:09:50Z</time>
      </trkpt>
      <trkpt lat="44.09874" lon="7.02442">
        <ele>1635</ele>
        <time>2022-07-26T09:09:51Z</time>
      </trkpt>
      <trkpt lat="44.09874" lon="7.02442">
        <ele>1635</ele>
        <time>2022-07-26T09:09:52Z</time>
      </trkpt>
      <trkpt lat="44.09873" lon="7.02442">
        <ele>1635</ele>
        <time>2022-07-26T09:09:53Z</time>
      </trkpt>
      <trkpt lat="44.09872" lon="7.02442">
        <ele>1635</ele>
        <time>2022-07-26T09:09:54Z</time>
      </trkpt>
      <trkpt lat="44.09871" lon="7.02442">
        <ele>1635</ele>
        <time>2022-07-26T09:09:55Z</time>
      </trkpt>
      <trkpt lat="44.0987" lon="7.02443">
        <ele>1635</ele>
        <time>2022-07-26T09:09:56Z</time>
      </trkpt>
      <trkpt lat="44.09869" lon="7.02443">
        <ele>1635</ele>
        <time>2022-07-26T09:09:57Z</time>
      </trkpt>
      <trkpt lat="44.09868" lon="7.02443">
        <ele>1634</ele>
        <time>2022-07-26T09:09:58Z</time>
      </trkpt>
      <trkpt lat="44.09868" lon="7.02443">
        <ele>1634</ele>
        <time>2022-07-26T09:09:59Z</time>
      </trkpt>
      <trkpt lat="44.09867" lon="7.02444">
        <ele>1634</ele>
        <time>2022-07-26T09:10:00Z</time>
      </trkpt>
      <trkpt lat="44.09866" lon="7.02444">
        <ele>1634</ele>
        <time>2022-07-26T09:10:01Z</time>
      </trkpt>
      <trkpt lat="44.09865" lon="7.02444">
        <ele>1634</ele>
        <time>2022-07-26T09:10:02Z</time>
      </trkpt>
      <trkpt lat="44.09864" lon="7.02444">
        <ele>1634</ele>
        <time>2022-07-26T09:10:03Z</time>
      </trkpt>
      <trkpt lat="44.09864" lon="7.02444">
        <ele>1634</ele>
        <time>2022-07-26T09:10:04Z</time>
      </trkpt>
      <trkpt lat="44.09863" lon="7.02445">
        <ele>1634</ele>
        <time>2022-07-26T09:10:05Z</time>
      </trkpt>
      <trkpt lat="44.09862" lon="7.02445">
        <ele>1634</ele>
        <time>2022-07-26T09:10:06Z</time>
      </trkpt>
      <trkpt lat="44.09862" lon="7.02445">
        <ele>1634</ele>
        <time>2022-07-26T09:10:07Z</time>
      </trkpt>
      <trkpt lat="44.09861" lon="7.02445">
        <ele>1633</ele>
        <time>2022-07-26T09:10:08Z</time>
      </trkpt>
      <trkpt lat="44.09859" lon="7.02446">
        <ele>1633</ele>
        <time>2022-07-26T09:10:15Z</time>
      </trkpt>
      <trkpt lat="44.09859" lon="7.02446">
        <ele>1633</ele>
        <time>2022-07-26T09:10:16Z</time>
      </trkpt>
      <trkpt lat="44.09858" lon="7.02446">
        <ele>1633</ele>
        <time>2022-07-26T09:10:17Z</time>
      </trkpt>
      <trkpt lat="44.09858" lon="7.02446">
        <ele>1632</ele>
        <time>2022-07-26T09:10:18Z</time>
      </trkpt>
      <trkpt lat="44.09857" lon="7.02447">
        <ele>1632</ele>
        <time>2022-07-26T09:10:19Z</time>
      </trkpt>
      <trkpt lat="44.09856" lon="7.02447">
        <ele>1632</ele>
        <time>2022-07-26T09:10:20Z</time>
      </trkpt>
      <trkpt lat="44.09855" lon="7.02447">
        <ele>1632</ele>
        <time>2022-07-26T09:10:21Z</time>
      </trkpt>
      <trkpt lat="44.09854" lon="7.02447">
        <ele>1632</ele>
        <time>2022-07-26T09:10:22Z</time>
      </trkpt>
      <trkpt lat="44.09853" lon="7.02447">
        <ele>1632</ele>
        <time>2022-07-26T09:10:23Z</time>
      </trkpt>
      <trkpt lat="44.09852" lon="7.02447">
        <ele>1632</ele>
        <time>2022-07-26T09:10:24Z</time>
      </trkpt>
      <trkpt lat="44.09851" lon="7.02447">
        <ele>1632</ele>
        <time>2022-07-26T09:10:25Z</time>
      </trkpt>
      <trkpt lat="44.0985" lon="7.02448">
        <ele>1632</ele>
        <time>2022-07-26T09:10:26Z</time>
      </trkpt>
      <trkpt lat="44.09849" lon="7.02448">
        <ele>1632</ele>
        <time>2022-07-26T09:10:27Z</time>
      </trkpt>
      <trkpt lat="44.09848" lon="7.02448">
        <ele>1632</ele>
        <time>2022-07-26T09:10:28Z</time>
      </trkpt>
      <trkpt lat="44.09846" lon="7.02449">
        <ele>1632</ele>
        <time>2022-07-26T09:10:29Z</time>
      </trkpt>
      <trkpt lat="44.09845" lon="7.02449">
        <ele>1632</ele>
        <time>2022-07-26T09:10:30Z</time>
      </trkpt>
      <trkpt lat="44.09844" lon="7.02449">
        <ele>1632</ele>
        <time>2022-07-26T09:10:31Z</time>
      </trkpt>
      <trkpt lat="44.09843" lon="7.02449">
        <ele>1632</ele>
        <time>2022-07-26T09:10:32Z</time>
      </trkpt>
      <trkpt lat="44.09842" lon="7.02449">
        <ele>1631</ele>
        <time>2022-07-26T09:10:33Z</time>
      </trkpt>
      <trkpt lat="44.0984" lon="7.0245">
        <ele>1631</ele>
        <time>2022-07-26T09:10:34Z</time>
      </trkpt>
      <trkpt lat="44.09839" lon="7.0245">
        <ele>1631</ele>
        <time>2022-07-26T09:10:35Z</time>
      </trkpt>
      <trkpt lat="44.09838" lon="7.0245">
        <ele>1631</ele>
        <time>2022-07-26T09:10:36Z</time>
      </trkpt>
      <trkpt lat="44.09837" lon="7.0245">
        <ele>1631</ele>
        <time>2022-07-26T09:10:37Z</time>
      </trkpt>
      <trkpt lat="44.09836" lon="7.0245">
        <ele>1631</ele>
        <time>2022-07-26T09:10:38Z</time>
      </trkpt>
      <trkpt lat="44.09835" lon="7.0245">
        <ele>1631</ele>
        <time>2022-07-26T09:10:39Z</time>
      </trkpt>
      <trkpt lat="44.09833" lon="7.0245">
        <ele>1631</ele>
        <time>2022-07-26T09:10:40Z</time>
      </trkpt>
      <trkpt lat="44.09832" lon="7.02451">
        <ele>1631</ele>
        <time>2022-07-26T09:10:41Z</time>
      </trkpt>
      <trkpt lat="44.09831" lon="7.02451">
        <ele>1631</ele>
        <time>2022-07-26T09:10:42Z</time>
      </trkpt>
      <trkpt lat="44.0983" lon="7.02451">
        <ele>1630</ele>
        <time>2022-07-26T09:10:43Z</time>
      </trkpt>
      <trkpt lat="44.09829" lon="7.02451">
        <ele>1630</ele>
        <time>2022-07-26T09:10:44Z</time>
      </trkpt>
      <trkpt lat="44.09827" lon="7.02452">
        <ele>1630</ele>
        <time>2022-07-26T09:10:45Z</time>
      </trkpt>
      <trkpt lat="44.09826" lon="7.02452">
        <ele>1630</ele>
        <time>2022-07-26T09:10:46Z</time>
      </trkpt>
      <trkpt lat="44.09825" lon="7.02452">
        <ele>1630</ele>
        <time>2022-07-26T09:10:47Z</time>
      </trkpt>
      <trkpt lat="44.09824" lon="7.02452">
        <ele>1630</ele>
        <time>2022-07-26T09:10:48Z</time>
      </trkpt>
      <trkpt lat="44.09823" lon="7.02452">
        <ele>1630</ele>
        <time>2022-07-26T09:10:49Z</time>
      </trkpt>
      <trkpt lat="44.09821" lon="7.02453">
        <ele>1630</ele>
        <time>2022-07-26T09:10:50Z</time>
      </trkpt>
      <trkpt lat="44.0982" lon="7.02453">
        <ele>1630</ele>
        <time>2022-07-26T09:10:51Z</time>
      </trkpt>
      <trkpt lat="44.09819" lon="7.02453">
        <ele>1630</ele>
        <time>2022-07-26T09:10:52Z</time>
      </trkpt>
      <trkpt lat="44.09818" lon="7.02454">
        <ele>1629</ele>
        <time>2022-07-26T09:10:53Z</time>
      </trkpt>
      <trkpt lat="44.09817" lon="7.02454">
        <ele>1629</ele>
        <time>2022-07-26T09:10:54Z</time>
      </trkpt>
      <trkpt lat="44.09815" lon="7.02454">
        <ele>1629</ele>
        <time>2022-07-26T09:10:55Z</time>
      </trkpt>
      <trkpt lat="44.09814" lon="7.02455">
        <ele>1629</ele>
        <time>2022-07-26T09:10:56Z</time>
      </trkpt>
      <trkpt lat="44.09813" lon="7.02455">
        <ele>1629</ele>
        <time>2022-07-26T09:10:57Z</time>
      </trkpt>
      <trkpt lat="44.09812" lon="7.02455">
        <ele>1628</ele>
        <time>2022-07-26T09:10:58Z</time>
      </trkpt>
      <trkpt lat="44.0981" lon="7.02456">
        <ele>1628</ele>
        <time>2022-07-26T09:10:59Z</time>
      </trkpt>
      <trkpt lat="44.09809" lon="7.02456">
        <ele>1628</ele>
        <time>2022-07-26T09:11:00Z</time>
      </trkpt>
      <trkpt lat="44.09808" lon="7.02456">
        <ele>1628</ele>
        <time>2022-07-26T09:11:01Z</time>
      </trkpt>
      <trkpt lat="44.09807" lon="7.02456">
        <ele>1628</ele>
        <time>2022-07-26T09:11:02Z</time>
      </trkpt>
      <trkpt lat="44.09806" lon="7.02456">
        <ele>1628</ele>
        <time>2022-07-26T09:11:03Z</time>
      </trkpt>
      <trkpt lat="44.09805" lon="7.02457">
        <ele>1628</ele>
        <time>2022-07-26T09:11:04Z</time>
      </trkpt>
      <trkpt lat="44.09804" lon="7.02457">
        <ele>1628</ele>
        <time>2022-07-26T09:11:05Z</time>
      </trkpt>
      <trkpt lat="44.09803" lon="7.02458">
        <ele>1628</ele>
        <time>2022-07-26T09:11:06Z</time>
      </trkpt>
      <trkpt lat="44.09801" lon="7.02458">
        <ele>1628</ele>
        <time>2022-07-26T09:11:07Z</time>
      </trkpt>
      <trkpt lat="44.098" lon="7.02458">
        <ele>1627</ele>
        <time>2022-07-26T09:11:08Z</time>
      </trkpt>
      <trkpt lat="44.09799" lon="7.02459">
        <ele>1627</ele>
        <time>2022-07-26T09:11:09Z</time>
      </trkpt>
      <trkpt lat="44.09798" lon="7.02459">
        <ele>1627</ele>
        <time>2022-07-26T09:11:10Z</time>
      </trkpt>
      <trkpt lat="44.09797" lon="7.0246">
        <ele>1627</ele>
        <time>2022-07-26T09:11:11Z</time>
      </trkpt>
      <trkpt lat="44.09796" lon="7.0246">
        <ele>1627</ele>
        <time>2022-07-26T09:11:12Z</time>
      </trkpt>
      <trkpt lat="44.09795" lon="7.0246">
        <ele>1627</ele>
        <time>2022-07-26T09:11:13Z</time>
      </trkpt>
      <trkpt lat="44.09794" lon="7.0246">
        <ele>1627</ele>
        <time>2022-07-26T09:11:14Z</time>
      </trkpt>
      <trkpt lat="44.09793" lon="7.0246">
        <ele>1627</ele>
        <time>2022-07-26T09:11:15Z</time>
      </trkpt>
      <trkpt lat="44.09792" lon="7.02461">
        <ele>1627</ele>
        <time>2022-07-26T09:11:16Z</time>
      </trkpt>
      <trkpt lat="44.09791" lon="7.02461">
        <ele>1627</ele>
        <time>2022-07-26T09:11:17Z</time>
      </trkpt>
      <trkpt lat="44.0979" lon="7.02461">
        <ele>1626</ele>
        <time>2022-07-26T09:11:18Z</time>
      </trkpt>
      <trkpt lat="44.09788" lon="7.02461">
        <ele>1626</ele>
        <time>2022-07-26T09:11:19Z</time>
      </trkpt>
      <trkpt lat="44.09787" lon="7.02461">
        <ele>1625</ele>
        <time>2022-07-26T09:11:20Z</time>
      </trkpt>
      <trkpt lat="44.09786" lon="7.02461">
        <ele>1625</ele>
        <time>2022-07-26T09:11:21Z</time>
      </trkpt>
      <trkpt lat="44.09785" lon="7.02461">
        <ele>1625</ele>
        <time>2022-07-26T09:11:22Z</time>
      </trkpt>
      <trkpt lat="44.09784" lon="7.02461">
        <ele>1624</ele>
        <time>2022-07-26T09:11:23Z</time>
      </trkpt>
      <trkpt lat="44.09783" lon="7.02461">
        <ele>1624</ele>
        <time>2022-07-26T09:11:24Z</time>
      </trkpt>
      <trkpt lat="44.09782" lon="7.02461">
        <ele>1624</ele>
        <time>2022-07-26T09:11:25Z</time>
      </trkpt>
      <trkpt lat="44.09781" lon="7.02461">
        <ele>1624</ele>
        <time>2022-07-26T09:11:26Z</time>
      </trkpt>
      <trkpt lat="44.0978" lon="7.02461">
        <ele>1624</ele>
        <time>2022-07-26T09:11:27Z</time>
      </trkpt>
      <trkpt lat="44.09779" lon="7.02461">
        <ele>1624</ele>
        <time>2022-07-26T09:11:28Z</time>
      </trkpt>
      <trkpt lat="44.09777" lon="7.0246">
        <ele>1624</ele>
        <time>2022-07-26T09:11:29Z</time>
      </trkpt>
      <trkpt lat="44.09776" lon="7.0246">
        <ele>1624</ele>
        <time>2022-07-26T09:11:30Z</time>
      </trkpt>
      <trkpt lat="44.09775" lon="7.0246">
        <ele>1624</ele>
        <time>2022-07-26T09:11:31Z</time>
      </trkpt>
      <trkpt lat="44.09774" lon="7.02461">
        <ele>1624</ele>
        <time>2022-07-26T09:11:32Z</time>
      </trkpt>
      <trkpt lat="44.09772" lon="7.02461">
        <ele>1623</ele>
        <time>2022-07-26T09:11:33Z</time>
      </trkpt>
      <trkpt lat="44.09771" lon="7.02461">
        <ele>1623</ele>
        <time>2022-07-26T09:11:34Z</time>
      </trkpt>
      <trkpt lat="44.0977" lon="7.02461">
        <ele>1623</ele>
        <time>2022-07-26T09:11:35Z</time>
      </trkpt>
      <trkpt lat="44.09769" lon="7.02461">
        <ele>1623</ele>
        <time>2022-07-26T09:11:36Z</time>
      </trkpt>
      <trkpt lat="44.09768" lon="7.02462">
        <ele>1623</ele>
        <time>2022-07-26T09:11:37Z</time>
      </trkpt>
      <trkpt lat="44.09767" lon="7.02462">
        <ele>1622</ele>
        <time>2022-07-26T09:11:38Z</time>
      </trkpt>
      <trkpt lat="44.09766" lon="7.02463">
        <ele>1622</ele>
        <time>2022-07-26T09:11:39Z</time>
      </trkpt>
      <trkpt lat="44.09765" lon="7.02463">
        <ele>1622</ele>
        <time>2022-07-26T09:11:40Z</time>
      </trkpt>
      <trkpt lat="44.09763" lon="7.02463">
        <ele>1622</ele>
        <time>2022-07-26T09:11:41Z</time>
      </trkpt>
      <trkpt lat="44.09763" lon="7.02464">
        <ele>1622</ele>
        <time>2022-07-26T09:11:42Z</time>
      </trkpt>
      <trkpt lat="44.09762" lon="7.02465">
        <ele>1622</ele>
        <time>2022-07-26T09:11:43Z</time>
      </trkpt>
      <trkpt lat="44.09761" lon="7.02466">
        <ele>1622</ele>
        <time>2022-07-26T09:11:44Z</time>
      </trkpt>
      <trkpt lat="44.0976" lon="7.02467">
        <ele>1622</ele>
        <time>2022-07-26T09:11:45Z</time>
      </trkpt>
      <trkpt lat="44.09759" lon="7.02468">
        <ele>1622</ele>
        <time>2022-07-26T09:11:46Z</time>
      </trkpt>
      <trkpt lat="44.09758" lon="7.02469">
        <ele>1622</ele>
        <time>2022-07-26T09:11:47Z</time>
      </trkpt>
      <trkpt lat="44.09757" lon="7.0247">
        <ele>1621</ele>
        <time>2022-07-26T09:11:48Z</time>
      </trkpt>
      <trkpt lat="44.09757" lon="7.02471">
        <ele>1621</ele>
        <time>2022-07-26T09:11:49Z</time>
      </trkpt>
      <trkpt lat="44.09756" lon="7.02472">
        <ele>1621</ele>
        <time>2022-07-26T09:11:50Z</time>
      </trkpt>
      <trkpt lat="44.09755" lon="7.02472">
        <ele>1621</ele>
        <time>2022-07-26T09:11:51Z</time>
      </trkpt>
      <trkpt lat="44.09754" lon="7.02473">
        <ele>1621</ele>
        <time>2022-07-26T09:11:52Z</time>
      </trkpt>
      <trkpt lat="44.09753" lon="7.02474">
        <ele>1620</ele>
        <time>2022-07-26T09:11:53Z</time>
      </trkpt>
      <trkpt lat="44.09752" lon="7.02475">
        <ele>1620</ele>
        <time>2022-07-26T09:11:54Z</time>
      </trkpt>
      <trkpt lat="44.09751" lon="7.02476">
        <ele>1620</ele>
        <time>2022-07-26T09:11:55Z</time>
      </trkpt>
      <trkpt lat="44.0975" lon="7.02477">
        <ele>1620</ele>
        <time>2022-07-26T09:11:56Z</time>
      </trkpt>
      <trkpt lat="44.09749" lon="7.02478">
        <ele>1620</ele>
        <time>2022-07-26T09:11:57Z</time>
      </trkpt>
      <trkpt lat="44.09748" lon="7.02479">
        <ele>1620</ele>
        <time>2022-07-26T09:11:58Z</time>
      </trkpt>
      <trkpt lat="44.09748" lon="7.0248">
        <ele>1620</ele>
        <time>2022-07-26T09:11:59Z</time>
      </trkpt>
      <trkpt lat="44.09747" lon="7.02482">
        <ele>1620</ele>
        <time>2022-07-26T09:12:00Z</time>
      </trkpt>
      <trkpt lat="44.09746" lon="7.02483">
        <ele>1620</ele>
        <time>2022-07-26T09:12:01Z</time>
      </trkpt>
      <trkpt lat="44.09745" lon="7.02484">
        <ele>1620</ele>
        <time>2022-07-26T09:12:02Z</time>
      </trkpt>
      <trkpt lat="44.09744" lon="7.02485">
        <ele>1619</ele>
        <time>2022-07-26T09:12:03Z</time>
      </trkpt>
      <trkpt lat="44.09743" lon="7.02487">
        <ele>1619</ele>
        <time>2022-07-26T09:12:04Z</time>
      </trkpt>
      <trkpt lat="44.09742" lon="7.02488">
        <ele>1619</ele>
        <time>2022-07-26T09:12:05Z</time>
      </trkpt>
      <trkpt lat="44.09742" lon="7.0249">
        <ele>1619</ele>
        <time>2022-07-26T09:12:06Z</time>
      </trkpt>
      <trkpt lat="44.09741" lon="7.02491">
        <ele>1619</ele>
        <time>2022-07-26T09:12:07Z</time>
      </trkpt>
      <trkpt lat="44.0974" lon="7.02493">
        <ele>1618</ele>
        <time>2022-07-26T09:12:08Z</time>
      </trkpt>
      <trkpt lat="44.09739" lon="7.02494">
        <ele>1618</ele>
        <time>2022-07-26T09:12:09Z</time>
      </trkpt>
      <trkpt lat="44.09738" lon="7.02496">
        <ele>1618</ele>
        <time>2022-07-26T09:12:10Z</time>
      </trkpt>
      <trkpt lat="44.09737" lon="7.02497">
        <ele>1618</ele>
        <time>2022-07-26T09:12:11Z</time>
      </trkpt>
      <trkpt lat="44.09736" lon="7.02499">
        <ele>1618</ele>
        <time>2022-07-26T09:12:12Z</time>
      </trkpt>
      <trkpt lat="44.09735" lon="7.025">
        <ele>1618</ele>
        <time>2022-07-26T09:12:13Z</time>
      </trkpt>
      <trkpt lat="44.09734" lon="7.02502">
        <ele>1618</ele>
        <time>2022-07-26T09:12:14Z</time>
      </trkpt>
      <trkpt lat="44.09734" lon="7.02503">
        <ele>1618</ele>
        <time>2022-07-26T09:12:15Z</time>
      </trkpt>
      <trkpt lat="44.09733" lon="7.02505">
        <ele>1618</ele>
        <time>2022-07-26T09:12:16Z</time>
      </trkpt>
      <trkpt lat="44.09733" lon="7.02506">
        <ele>1618</ele>
        <time>2022-07-26T09:12:17Z</time>
      </trkpt>
      <trkpt lat="44.09732" lon="7.02507">
        <ele>1617</ele>
        <time>2022-07-26T09:12:18Z</time>
      </trkpt>
      <trkpt lat="44.09731" lon="7.02508">
        <ele>1617</ele>
        <time>2022-07-26T09:12:19Z</time>
      </trkpt>
      <trkpt lat="44.09731" lon="7.02509">
        <ele>1617</ele>
        <time>2022-07-26T09:12:20Z</time>
      </trkpt>
      <trkpt lat="44.0973" lon="7.02511">
        <ele>1617</ele>
        <time>2022-07-26T09:12:21Z</time>
      </trkpt>
      <trkpt lat="44.0973" lon="7.02512">
        <ele>1617</ele>
        <time>2022-07-26T09:12:22Z</time>
      </trkpt>
      <trkpt lat="44.09729" lon="7.02514">
        <ele>1616</ele>
        <time>2022-07-26T09:12:23Z</time>
      </trkpt>
      <trkpt lat="44.09728" lon="7.02515">
        <ele>1616</ele>
        <time>2022-07-26T09:12:24Z</time>
      </trkpt>
      <trkpt lat="44.09728" lon="7.02517">
        <ele>1616</ele>
        <time>2022-07-26T09:12:25Z</time>
      </trkpt>
      <trkpt lat="44.09727" lon="7.02518">
        <ele>1616</ele>
        <time>2022-07-26T09:12:26Z</time>
      </trkpt>
      <trkpt lat="44.09727" lon="7.0252">
        <ele>1616</ele>
        <time>2022-07-26T09:12:27Z</time>
      </trkpt>
      <trkpt lat="44.09726" lon="7.02521">
        <ele>1615</ele>
        <time>2022-07-26T09:12:28Z</time>
      </trkpt>
      <trkpt lat="44.09725" lon="7.02523">
        <ele>1615</ele>
        <time>2022-07-26T09:12:29Z</time>
      </trkpt>
      <trkpt lat="44.09725" lon="7.02524">
        <ele>1615</ele>
        <time>2022-07-26T09:12:30Z</time>
      </trkpt>
      <trkpt lat="44.09724" lon="7.02526">
        <ele>1615</ele>
        <time>2022-07-26T09:12:31Z</time>
      </trkpt>
      <trkpt lat="44.09724" lon="7.02527">
        <ele>1615</ele>
        <time>2022-07-26T09:12:32Z</time>
      </trkpt>
      <trkpt lat="44.09723" lon="7.02528">
        <ele>1615</ele>
        <time>2022-07-26T09:12:33Z</time>
      </trkpt>
      <trkpt lat="44.09723" lon="7.0253">
        <ele>1615</ele>
        <time>2022-07-26T09:12:34Z</time>
      </trkpt>
      <trkpt lat="44.09723" lon="7.02532">
        <ele>1615</ele>
        <time>2022-07-26T09:12:35Z</time>
      </trkpt>
      <trkpt lat="44.09722" lon="7.02533">
        <ele>1615</ele>
        <time>2022-07-26T09:12:36Z</time>
      </trkpt>
      <trkpt lat="44.09721" lon="7.02535">
        <ele>1615</ele>
        <time>2022-07-26T09:12:37Z</time>
      </trkpt>
      <trkpt lat="44.0972" lon="7.02536">
        <ele>1614</ele>
        <time>2022-07-26T09:12:38Z</time>
      </trkpt>
      <trkpt lat="44.0972" lon="7.02538">
        <ele>1614</ele>
        <time>2022-07-26T09:12:39Z</time>
      </trkpt>
      <trkpt lat="44.09719" lon="7.02539">
        <ele>1614</ele>
        <time>2022-07-26T09:12:40Z</time>
      </trkpt>
      <trkpt lat="44.09718" lon="7.02541">
        <ele>1614</ele>
        <time>2022-07-26T09:12:41Z</time>
      </trkpt>
      <trkpt lat="44.09718" lon="7.02542">
        <ele>1614</ele>
        <time>2022-07-26T09:12:42Z</time>
      </trkpt>
      <trkpt lat="44.09717" lon="7.02543">
        <ele>1614</ele>
        <time>2022-07-26T09:12:43Z</time>
      </trkpt>
      <trkpt lat="44.09717" lon="7.02544">
        <ele>1614</ele>
        <time>2022-07-26T09:12:44Z</time>
      </trkpt>
      <trkpt lat="44.09716" lon="7.02545">
        <ele>1614</ele>
        <time>2022-07-26T09:12:45Z</time>
      </trkpt>
      <trkpt lat="44.09716" lon="7.02546">
        <ele>1614</ele>
        <time>2022-07-26T09:12:46Z</time>
      </trkpt>
      <trkpt lat="44.09716" lon="7.02547">
        <ele>1614</ele>
        <time>2022-07-26T09:12:47Z</time>
      </trkpt>
      <trkpt lat="44.09715" lon="7.02548">
        <ele>1613</ele>
        <time>2022-07-26T09:12:48Z</time>
      </trkpt>
      <trkpt lat="44.09715" lon="7.0255">
        <ele>1613</ele>
        <time>2022-07-26T09:12:49Z</time>
      </trkpt>
      <trkpt lat="44.09714" lon="7.02551">
        <ele>1613</ele>
        <time>2022-07-26T09:12:50Z</time>
      </trkpt>
      <trkpt lat="44.09714" lon="7.02552">
        <ele>1613</ele>
        <time>2022-07-26T09:12:51Z</time>
      </trkpt>
      <trkpt lat="44.09714" lon="7.02553">
        <ele>1613</ele>
        <time>2022-07-26T09:12:52Z</time>
      </trkpt>
      <trkpt lat="44.09713" lon="7.02555">
        <ele>1612</ele>
        <time>2022-07-26T09:12:53Z</time>
      </trkpt>
      <trkpt lat="44.09713" lon="7.02556">
        <ele>1612</ele>
        <time>2022-07-26T09:12:54Z</time>
      </trkpt>
      <trkpt lat="44.09712" lon="7.02557">
        <ele>1612</ele>
        <time>2022-07-26T09:12:55Z</time>
      </trkpt>
      <trkpt lat="44.09712" lon="7.02558">
        <ele>1612</ele>
        <time>2022-07-26T09:12:56Z</time>
      </trkpt>
      <trkpt lat="44.09711" lon="7.0256">
        <ele>1612</ele>
        <time>2022-07-26T09:12:57Z</time>
      </trkpt>
      <trkpt lat="44.09711" lon="7.02561">
        <ele>1612</ele>
        <time>2022-07-26T09:12:58Z</time>
      </trkpt>
      <trkpt lat="44.0971" lon="7.02562">
        <ele>1612</ele>
        <time>2022-07-26T09:12:59Z</time>
      </trkpt>
      <trkpt lat="44.09709" lon="7.02563">
        <ele>1612</ele>
        <time>2022-07-26T09:13:00Z</time>
      </trkpt>
      <trkpt lat="44.09709" lon="7.02564">
        <ele>1612</ele>
        <time>2022-07-26T09:13:01Z</time>
      </trkpt>
      <trkpt lat="44.09708" lon="7.02565">
        <ele>1612</ele>
        <time>2022-07-26T09:13:02Z</time>
      </trkpt>
      <trkpt lat="44.09708" lon="7.02566">
        <ele>1611</ele>
        <time>2022-07-26T09:13:03Z</time>
      </trkpt>
      <trkpt lat="44.09707" lon="7.02567">
        <ele>1611</ele>
        <time>2022-07-26T09:13:04Z</time>
      </trkpt>
      <trkpt lat="44.09707" lon="7.02568">
        <ele>1611</ele>
        <time>2022-07-26T09:13:05Z</time>
      </trkpt>
      <trkpt lat="44.09706" lon="7.0257">
        <ele>1611</ele>
        <time>2022-07-26T09:13:06Z</time>
      </trkpt>
      <trkpt lat="44.09706" lon="7.02571">
        <ele>1611</ele>
        <time>2022-07-26T09:13:07Z</time>
      </trkpt>
      <trkpt lat="44.09705" lon="7.02572">
        <ele>1611</ele>
        <time>2022-07-26T09:13:08Z</time>
      </trkpt>
      <trkpt lat="44.09705" lon="7.02573">
        <ele>1611</ele>
        <time>2022-07-26T09:13:09Z</time>
      </trkpt>
      <trkpt lat="44.09704" lon="7.02574">
        <ele>1611</ele>
        <time>2022-07-26T09:13:10Z</time>
      </trkpt>
      <trkpt lat="44.09704" lon="7.02575">
        <ele>1611</ele>
        <time>2022-07-26T09:13:11Z</time>
      </trkpt>
      <trkpt lat="44.09703" lon="7.02576">
        <ele>1611</ele>
        <time>2022-07-26T09:13:12Z</time>
      </trkpt>
      <trkpt lat="44.09703" lon="7.02577">
        <ele>1610</ele>
        <time>2022-07-26T09:13:13Z</time>
      </trkpt>
      <trkpt lat="44.09702" lon="7.02578">
        <ele>1610</ele>
        <time>2022-07-26T09:13:14Z</time>
      </trkpt>
      <trkpt lat="44.09702" lon="7.02579">
        <ele>1610</ele>
        <time>2022-07-26T09:13:15Z</time>
      </trkpt>
      <trkpt lat="44.09701" lon="7.0258">
        <ele>1610</ele>
        <time>2022-07-26T09:13:16Z</time>
      </trkpt>
      <trkpt lat="44.09701" lon="7.02582">
        <ele>1610</ele>
        <time>2022-07-26T09:13:17Z</time>
      </trkpt>
      <trkpt lat="44.097" lon="7.02583">
        <ele>1610</ele>
        <time>2022-07-26T09:13:18Z</time>
      </trkpt>
      <trkpt lat="44.097" lon="7.02584">
        <ele>1610</ele>
        <time>2022-07-26T09:13:19Z</time>
      </trkpt>
      <trkpt lat="44.097" lon="7.02585">
        <ele>1610</ele>
        <time>2022-07-26T09:13:20Z</time>
      </trkpt>
      <trkpt lat="44.09699" lon="7.02586">
        <ele>1610</ele>
        <time>2022-07-26T09:13:21Z</time>
      </trkpt>
      <trkpt lat="44.09699" lon="7.02587">
        <ele>1610</ele>
        <time>2022-07-26T09:13:22Z</time>
      </trkpt>
      <trkpt lat="44.09698" lon="7.02588">
        <ele>1609</ele>
        <time>2022-07-26T09:13:23Z</time>
      </trkpt>
      <trkpt lat="44.09698" lon="7.02589">
        <ele>1609</ele>
        <time>2022-07-26T09:13:24Z</time>
      </trkpt>
      <trkpt lat="44.09697" lon="7.0259">
        <ele>1608</ele>
        <time>2022-07-26T09:13:25Z</time>
      </trkpt>
      <trkpt lat="44.09697" lon="7.02591">
        <ele>1608</ele>
        <time>2022-07-26T09:13:26Z</time>
      </trkpt>
      <trkpt lat="44.09697" lon="7.02592">
        <ele>1608</ele>
        <time>2022-07-26T09:13:27Z</time>
      </trkpt>
      <trkpt lat="44.09696" lon="7.02593">
        <ele>1608</ele>
        <time>2022-07-26T09:13:28Z</time>
      </trkpt>
      <trkpt lat="44.09696" lon="7.02594">
        <ele>1608</ele>
        <time>2022-07-26T09:13:29Z</time>
      </trkpt>
      <trkpt lat="44.09695" lon="7.02596">
        <ele>1608</ele>
        <time>2022-07-26T09:13:30Z</time>
      </trkpt>
      <trkpt lat="44.09694" lon="7.02597">
        <ele>1608</ele>
        <time>2022-07-26T09:13:31Z</time>
      </trkpt>
      <trkpt lat="44.09694" lon="7.02598">
        <ele>1608</ele>
        <time>2022-07-26T09:13:32Z</time>
      </trkpt>
      <trkpt lat="44.09693" lon="7.02599">
        <ele>1607</ele>
        <time>2022-07-26T09:13:33Z</time>
      </trkpt>
      <trkpt lat="44.09693" lon="7.026">
        <ele>1607</ele>
        <time>2022-07-26T09:13:34Z</time>
      </trkpt>
      <trkpt lat="44.09692" lon="7.02602">
        <ele>1607</ele>
        <time>2022-07-26T09:13:35Z</time>
      </trkpt>
      <trkpt lat="44.09691" lon="7.02603">
        <ele>1607</ele>
        <time>2022-07-26T09:13:36Z</time>
      </trkpt>
      <trkpt lat="44.09691" lon="7.02604">
        <ele>1607</ele>
        <time>2022-07-26T09:13:37Z</time>
      </trkpt>
      <trkpt lat="44.0969" lon="7.02605">
        <ele>1606</ele>
        <time>2022-07-26T09:13:38Z</time>
      </trkpt>
      <trkpt lat="44.0969" lon="7.02606">
        <ele>1606</ele>
        <time>2022-07-26T09:13:39Z</time>
      </trkpt>
      <trkpt lat="44.09689" lon="7.02608">
        <ele>1606</ele>
        <time>2022-07-26T09:13:40Z</time>
      </trkpt>
      <trkpt lat="44.09689" lon="7.02609">
        <ele>1606</ele>
        <time>2022-07-26T09:13:41Z</time>
      </trkpt>
      <trkpt lat="44.09689" lon="7.02611">
        <ele>1606</ele>
        <time>2022-07-26T09:13:42Z</time>
      </trkpt>
      <trkpt lat="44.09688" lon="7.02612">
        <ele>1606</ele>
        <time>2022-07-26T09:13:43Z</time>
      </trkpt>
      <trkpt lat="44.09688" lon="7.02614">
        <ele>1606</ele>
        <time>2022-07-26T09:13:44Z</time>
      </trkpt>
      <trkpt lat="44.09687" lon="7.02615">
        <ele>1606</ele>
        <time>2022-07-26T09:13:45Z</time>
      </trkpt>
      <trkpt lat="44.09687" lon="7.02617">
        <ele>1606</ele>
        <time>2022-07-26T09:13:46Z</time>
      </trkpt>
      <trkpt lat="44.09687" lon="7.02618">
        <ele>1606</ele>
        <time>2022-07-26T09:13:47Z</time>
      </trkpt>
      <trkpt lat="44.09686" lon="7.0262">
        <ele>1605</ele>
        <time>2022-07-26T09:13:48Z</time>
      </trkpt>
      <trkpt lat="44.09686" lon="7.02621">
        <ele>1605</ele>
        <time>2022-07-26T09:13:49Z</time>
      </trkpt>
      <trkpt lat="44.09686" lon="7.02623">
        <ele>1605</ele>
        <time>2022-07-26T09:13:50Z</time>
      </trkpt>
      <trkpt lat="44.09685" lon="7.02624">
        <ele>1605</ele>
        <time>2022-07-26T09:13:51Z</time>
      </trkpt>
      <trkpt lat="44.09685" lon="7.02625">
        <ele>1605</ele>
        <time>2022-07-26T09:13:52Z</time>
      </trkpt>
      <trkpt lat="44.09685" lon="7.02627">
        <ele>1605</ele>
        <time>2022-07-26T09:13:53Z</time>
      </trkpt>
      <trkpt lat="44.09684" lon="7.02628">
        <ele>1605</ele>
        <time>2022-07-26T09:13:54Z</time>
      </trkpt>
      <trkpt lat="44.09683" lon="7.0263">
        <ele>1605</ele>
        <time>2022-07-26T09:13:55Z</time>
      </trkpt>
      <trkpt lat="44.09683" lon="7.02631">
        <ele>1605</ele>
        <time>2022-07-26T09:13:56Z</time>
      </trkpt>
      <trkpt lat="44.09682" lon="7.02633">
        <ele>1605</ele>
        <time>2022-07-26T09:13:57Z</time>
      </trkpt>
      <trkpt lat="44.09682" lon="7.02634">
        <ele>1604</ele>
        <time>2022-07-26T09:13:58Z</time>
      </trkpt>
      <trkpt lat="44.09681" lon="7.02636">
        <ele>1604</ele>
        <time>2022-07-26T09:13:59Z</time>
      </trkpt>
      <trkpt lat="44.09681" lon="7.02637">
        <ele>1604</ele>
        <time>2022-07-26T09:14:00Z</time>
      </trkpt>
      <trkpt lat="44.0968" lon="7.02639">
        <ele>1604</ele>
        <time>2022-07-26T09:14:01Z</time>
      </trkpt>
      <trkpt lat="44.09679" lon="7.0264">
        <ele>1604</ele>
        <time>2022-07-26T09:14:02Z</time>
      </trkpt>
      <trkpt lat="44.09679" lon="7.02642">
        <ele>1604</ele>
        <time>2022-07-26T09:14:03Z</time>
      </trkpt>
      <trkpt lat="44.09678" lon="7.02643">
        <ele>1604</ele>
        <time>2022-07-26T09:14:04Z</time>
      </trkpt>
      <trkpt lat="44.09678" lon="7.02645">
        <ele>1604</ele>
        <time>2022-07-26T09:14:05Z</time>
      </trkpt>
      <trkpt lat="44.09677" lon="7.02646">
        <ele>1604</ele>
        <time>2022-07-26T09:14:06Z</time>
      </trkpt>
      <trkpt lat="44.09677" lon="7.02648">
        <ele>1604</ele>
        <time>2022-07-26T09:14:07Z</time>
      </trkpt>
      <trkpt lat="44.09676" lon="7.02649">
        <ele>1603</ele>
        <time>2022-07-26T09:14:08Z</time>
      </trkpt>
      <trkpt lat="44.09676" lon="7.02651">
        <ele>1603</ele>
        <time>2022-07-26T09:14:09Z</time>
      </trkpt>
      <trkpt lat="44.09675" lon="7.02652">
        <ele>1603</ele>
        <time>2022-07-26T09:14:10Z</time>
      </trkpt>
      <trkpt lat="44.09675" lon="7.02653">
        <ele>1603</ele>
        <time>2022-07-26T09:14:11Z</time>
      </trkpt>
      <trkpt lat="44.09675" lon="7.02655">
        <ele>1603</ele>
        <time>2022-07-26T09:14:12Z</time>
      </trkpt>
      <trkpt lat="44.09674" lon="7.02656">
        <ele>1603</ele>
        <time>2022-07-26T09:14:13Z</time>
      </trkpt>
      <trkpt lat="44.09674" lon="7.02658">
        <ele>1603</ele>
        <time>2022-07-26T09:14:14Z</time>
      </trkpt>
      <trkpt lat="44.09674" lon="7.02659">
        <ele>1603</ele>
        <time>2022-07-26T09:14:15Z</time>
      </trkpt>
      <trkpt lat="44.09673" lon="7.0266">
        <ele>1603</ele>
        <time>2022-07-26T09:14:16Z</time>
      </trkpt>
      <trkpt lat="44.09673" lon="7.02662">
        <ele>1603</ele>
        <time>2022-07-26T09:14:17Z</time>
      </trkpt>
      <trkpt lat="44.09672" lon="7.02663">
        <ele>1602</ele>
        <time>2022-07-26T09:14:18Z</time>
      </trkpt>
      <trkpt lat="44.09672" lon="7.02665">
        <ele>1602</ele>
        <time>2022-07-26T09:14:19Z</time>
      </trkpt>
      <trkpt lat="44.09672" lon="7.02666">
        <ele>1602</ele>
        <time>2022-07-26T09:14:20Z</time>
      </trkpt>
      <trkpt lat="44.09671" lon="7.02668">
        <ele>1602</ele>
        <time>2022-07-26T09:14:21Z</time>
      </trkpt>
      <trkpt lat="44.09671" lon="7.02669">
        <ele>1602</ele>
        <time>2022-07-26T09:14:22Z</time>
      </trkpt>
      <trkpt lat="44.09671" lon="7.0267">
        <ele>1601</ele>
        <time>2022-07-26T09:14:23Z</time>
      </trkpt>
      <trkpt lat="44.09671" lon="7.02671">
        <ele>1601</ele>
        <time>2022-07-26T09:14:24Z</time>
      </trkpt>
      <trkpt lat="44.0967" lon="7.02672">
        <ele>1601</ele>
        <time>2022-07-26T09:14:25Z</time>
      </trkpt>
      <trkpt lat="44.0967" lon="7.02673">
        <ele>1601</ele>
        <time>2022-07-26T09:14:26Z</time>
      </trkpt>
      <trkpt lat="44.09669" lon="7.02675">
        <ele>1601</ele>
        <time>2022-07-26T09:14:27Z</time>
      </trkpt>
      <trkpt lat="44.09669" lon="7.02676">
        <ele>1601</ele>
        <time>2022-07-26T09:14:28Z</time>
      </trkpt>
      <trkpt lat="44.09668" lon="7.02677">
        <ele>1601</ele>
        <time>2022-07-26T09:14:29Z</time>
      </trkpt>
      <trkpt lat="44.09668" lon="7.02678">
        <ele>1601</ele>
        <time>2022-07-26T09:14:30Z</time>
      </trkpt>
      <trkpt lat="44.09667" lon="7.02679">
        <ele>1601</ele>
        <time>2022-07-26T09:14:31Z</time>
      </trkpt>
      <trkpt lat="44.09667" lon="7.0268">
        <ele>1601</ele>
        <time>2022-07-26T09:14:32Z</time>
      </trkpt>
      <trkpt lat="44.09666" lon="7.02681">
        <ele>1600</ele>
        <time>2022-07-26T09:14:33Z</time>
      </trkpt>
      <trkpt lat="44.09666" lon="7.02683">
        <ele>1600</ele>
        <time>2022-07-26T09:14:34Z</time>
      </trkpt>
      <trkpt lat="44.09666" lon="7.02684">
        <ele>1600</ele>
        <time>2022-07-26T09:14:35Z</time>
      </trkpt>
      <trkpt lat="44.09665" lon="7.02685">
        <ele>1600</ele>
        <time>2022-07-26T09:14:36Z</time>
      </trkpt>
      <trkpt lat="44.09665" lon="7.02687">
        <ele>1600</ele>
        <time>2022-07-26T09:14:37Z</time>
      </trkpt>
      <trkpt lat="44.09665" lon="7.02688">
        <ele>1600</ele>
        <time>2022-07-26T09:14:38Z</time>
      </trkpt>
      <trkpt lat="44.09665" lon="7.0269">
        <ele>1600</ele>
        <time>2022-07-26T09:14:39Z</time>
      </trkpt>
      <trkpt lat="44.09665" lon="7.02691">
        <ele>1600</ele>
        <time>2022-07-26T09:14:40Z</time>
      </trkpt>
      <trkpt lat="44.09665" lon="7.02693">
        <ele>1600</ele>
        <time>2022-07-26T09:14:41Z</time>
      </trkpt>
      <trkpt lat="44.09665" lon="7.02694">
        <ele>1600</ele>
        <time>2022-07-26T09:14:42Z</time>
      </trkpt>
      <trkpt lat="44.09665" lon="7.02696">
        <ele>1600</ele>
        <time>2022-07-26T09:14:43Z</time>
      </trkpt>
      <trkpt lat="44.09664" lon="7.02697">
        <ele>1600</ele>
        <time>2022-07-26T09:14:44Z</time>
      </trkpt>
      <trkpt lat="44.09665" lon="7.02698">
        <ele>1600</ele>
        <time>2022-07-26T09:14:45Z</time>
      </trkpt>
      <trkpt lat="44.09665" lon="7.027">
        <ele>1600</ele>
        <time>2022-07-26T09:14:46Z</time>
      </trkpt>
      <trkpt lat="44.09665" lon="7.02701">
        <ele>1600</ele>
        <time>2022-07-26T09:14:47Z</time>
      </trkpt>
      <trkpt lat="44.09665" lon="7.02703">
        <ele>1599</ele>
        <time>2022-07-26T09:14:48Z</time>
      </trkpt>
      <trkpt lat="44.09665" lon="7.02704">
        <ele>1599</ele>
        <time>2022-07-26T09:14:49Z</time>
      </trkpt>
      <trkpt lat="44.09665" lon="7.02705">
        <ele>1599</ele>
        <time>2022-07-26T09:14:50Z</time>
      </trkpt>
      <trkpt lat="44.09664" lon="7.02707">
        <ele>1599</ele>
        <time>2022-07-26T09:14:51Z</time>
      </trkpt>
      <trkpt lat="44.09664" lon="7.02708">
        <ele>1599</ele>
        <time>2022-07-26T09:14:52Z</time>
      </trkpt>
      <trkpt lat="44.09664" lon="7.0271">
        <ele>1599</ele>
        <time>2022-07-26T09:14:53Z</time>
      </trkpt>
      <trkpt lat="44.09663" lon="7.02711">
        <ele>1599</ele>
        <time>2022-07-26T09:14:54Z</time>
      </trkpt>
      <trkpt lat="44.09663" lon="7.02712">
        <ele>1599</ele>
        <time>2022-07-26T09:14:55Z</time>
      </trkpt>
      <trkpt lat="44.09662" lon="7.02713">
        <ele>1599</ele>
        <time>2022-07-26T09:14:56Z</time>
      </trkpt>
      <trkpt lat="44.09662" lon="7.02714">
        <ele>1599</ele>
        <time>2022-07-26T09:14:57Z</time>
      </trkpt>
      <trkpt lat="44.09661" lon="7.02716">
        <ele>1599</ele>
        <time>2022-07-26T09:14:58Z</time>
      </trkpt>
      <trkpt lat="44.09661" lon="7.02717">
        <ele>1599</ele>
        <time>2022-07-26T09:14:59Z</time>
      </trkpt>
      <trkpt lat="44.0966" lon="7.02718">
        <ele>1599</ele>
        <time>2022-07-26T09:15:00Z</time>
      </trkpt>
      <trkpt lat="44.09659" lon="7.02719">
        <ele>1599</ele>
        <time>2022-07-26T09:15:01Z</time>
      </trkpt>
      <trkpt lat="44.09659" lon="7.0272">
        <ele>1599</ele>
        <time>2022-07-26T09:15:02Z</time>
      </trkpt>
      <trkpt lat="44.09658" lon="7.02721">
        <ele>1598</ele>
        <time>2022-07-26T09:15:03Z</time>
      </trkpt>
      <trkpt lat="44.09657" lon="7.02722">
        <ele>1598</ele>
        <time>2022-07-26T09:15:04Z</time>
      </trkpt>
      <trkpt lat="44.09656" lon="7.02724">
        <ele>1598</ele>
        <time>2022-07-26T09:15:05Z</time>
      </trkpt>
      <trkpt lat="44.09655" lon="7.02725">
        <ele>1598</ele>
        <time>2022-07-26T09:15:06Z</time>
      </trkpt>
      <trkpt lat="44.09654" lon="7.02726">
        <ele>1598</ele>
        <time>2022-07-26T09:15:07Z</time>
      </trkpt>
      <trkpt lat="44.09653" lon="7.02727">
        <ele>1598</ele>
        <time>2022-07-26T09:15:08Z</time>
      </trkpt>
      <trkpt lat="44.09652" lon="7.02728">
        <ele>1598</ele>
        <time>2022-07-26T09:15:09Z</time>
      </trkpt>
      <trkpt lat="44.09651" lon="7.02729">
        <ele>1598</ele>
        <time>2022-07-26T09:15:10Z</time>
      </trkpt>
      <trkpt lat="44.09651" lon="7.02731">
        <ele>1598</ele>
        <time>2022-07-26T09:15:11Z</time>
      </trkpt>
      <trkpt lat="44.0965" lon="7.02732">
        <ele>1598</ele>
        <time>2022-07-26T09:15:12Z</time>
      </trkpt>
      <trkpt lat="44.09649" lon="7.02733">
        <ele>1597</ele>
        <time>2022-07-26T09:15:13Z</time>
      </trkpt>
      <trkpt lat="44.09649" lon="7.02735">
        <ele>1597</ele>
        <time>2022-07-26T09:15:14Z</time>
      </trkpt>
      <trkpt lat="44.09648" lon="7.02736">
        <ele>1597</ele>
        <time>2022-07-26T09:15:15Z</time>
      </trkpt>
      <trkpt lat="44.09648" lon="7.02738">
        <ele>1597</ele>
        <time>2022-07-26T09:15:16Z</time>
      </trkpt>
      <trkpt lat="44.09647" lon="7.02739">
        <ele>1597</ele>
        <time>2022-07-26T09:15:17Z</time>
      </trkpt>
      <trkpt lat="44.09646" lon="7.02741">
        <ele>1596</ele>
        <time>2022-07-26T09:15:18Z</time>
      </trkpt>
      <trkpt lat="44.09646" lon="7.02743">
        <ele>1596</ele>
        <time>2022-07-26T09:15:19Z</time>
      </trkpt>
      <trkpt lat="44.09645" lon="7.02745">
        <ele>1596</ele>
        <time>2022-07-26T09:15:20Z</time>
      </trkpt>
      <trkpt lat="44.09645" lon="7.02746">
        <ele>1596</ele>
        <time>2022-07-26T09:15:21Z</time>
      </trkpt>
      <trkpt lat="44.09644" lon="7.02748">
        <ele>1596</ele>
        <time>2022-07-26T09:15:22Z</time>
      </trkpt>
      <trkpt lat="44.09644" lon="7.0275">
        <ele>1595</ele>
        <time>2022-07-26T09:15:23Z</time>
      </trkpt>
      <trkpt lat="44.09643" lon="7.02752">
        <ele>1595</ele>
        <time>2022-07-26T09:15:24Z</time>
      </trkpt>
      <trkpt lat="44.09642" lon="7.02754">
        <ele>1595</ele>
        <time>2022-07-26T09:15:25Z</time>
      </trkpt>
      <trkpt lat="44.09642" lon="7.02755">
        <ele>1595</ele>
        <time>2022-07-26T09:15:26Z</time>
      </trkpt>
      <trkpt lat="44.09641" lon="7.02757">
        <ele>1595</ele>
        <time>2022-07-26T09:15:27Z</time>
      </trkpt>
      <trkpt lat="44.09641" lon="7.02758">
        <ele>1595</ele>
        <time>2022-07-26T09:15:28Z</time>
      </trkpt>
      <trkpt lat="44.0964" lon="7.0276">
        <ele>1595</ele>
        <time>2022-07-26T09:15:29Z</time>
      </trkpt>
      <trkpt lat="44.0964" lon="7.02761">
        <ele>1595</ele>
        <time>2022-07-26T09:15:30Z</time>
      </trkpt>
      <trkpt lat="44.09639" lon="7.02762">
        <ele>1595</ele>
        <time>2022-07-26T09:15:31Z</time>
      </trkpt>
      <trkpt lat="44.09639" lon="7.02764">
        <ele>1595</ele>
        <time>2022-07-26T09:15:32Z</time>
      </trkpt>
      <trkpt lat="44.09639" lon="7.02765">
        <ele>1594</ele>
        <time>2022-07-26T09:15:33Z</time>
      </trkpt>
      <trkpt lat="44.09638" lon="7.02767">
        <ele>1594</ele>
        <time>2022-07-26T09:15:34Z</time>
      </trkpt>
      <trkpt lat="44.09638" lon="7.02769">
        <ele>1594</ele>
        <time>2022-07-26T09:15:35Z</time>
      </trkpt>
      <trkpt lat="44.09637" lon="7.0277">
        <ele>1594</ele>
        <time>2022-07-26T09:15:36Z</time>
      </trkpt>
      <trkpt lat="44.09637" lon="7.02771">
        <ele>1594</ele>
        <time>2022-07-26T09:15:37Z</time>
      </trkpt>
      <trkpt lat="44.09636" lon="7.02773">
        <ele>1593</ele>
        <time>2022-07-26T09:15:38Z</time>
      </trkpt>
      <trkpt lat="44.09635" lon="7.02774">
        <ele>1593</ele>
        <time>2022-07-26T09:15:39Z</time>
      </trkpt>
      <trkpt lat="44.09635" lon="7.02776">
        <ele>1593</ele>
        <time>2022-07-26T09:15:40Z</time>
      </trkpt>
      <trkpt lat="44.09634" lon="7.02777">
        <ele>1593</ele>
        <time>2022-07-26T09:15:41Z</time>
      </trkpt>
      <trkpt lat="44.09633" lon="7.02778">
        <ele>1593</ele>
        <time>2022-07-26T09:15:42Z</time>
      </trkpt>
      <trkpt lat="44.09633" lon="7.0278">
        <ele>1593</ele>
        <time>2022-07-26T09:15:43Z</time>
      </trkpt>
      <trkpt lat="44.09632" lon="7.02781">
        <ele>1593</ele>
        <time>2022-07-26T09:15:44Z</time>
      </trkpt>
      <trkpt lat="44.09632" lon="7.02783">
        <ele>1593</ele>
        <time>2022-07-26T09:15:45Z</time>
      </trkpt>
      <trkpt lat="44.09631" lon="7.02784">
        <ele>1593</ele>
        <time>2022-07-26T09:15:46Z</time>
      </trkpt>
      <trkpt lat="44.09631" lon="7.02786">
        <ele>1593</ele>
        <time>2022-07-26T09:15:47Z</time>
      </trkpt>
      <trkpt lat="44.0963" lon="7.02787">
        <ele>1592</ele>
        <time>2022-07-26T09:15:48Z</time>
      </trkpt>
      <trkpt lat="44.0963" lon="7.02788">
        <ele>1592</ele>
        <time>2022-07-26T09:15:49Z</time>
      </trkpt>
      <trkpt lat="44.09629" lon="7.0279">
        <ele>1591</ele>
        <time>2022-07-26T09:15:50Z</time>
      </trkpt>
      <trkpt lat="44.09629" lon="7.02791">
        <ele>1591</ele>
        <time>2022-07-26T09:15:51Z</time>
      </trkpt>
      <trkpt lat="44.09629" lon="7.02793">
        <ele>1591</ele>
        <time>2022-07-26T09:15:52Z</time>
      </trkpt>
      <trkpt lat="44.09628" lon="7.02794">
        <ele>1591</ele>
        <time>2022-07-26T09:15:53Z</time>
      </trkpt>
      <trkpt lat="44.09628" lon="7.02796">
        <ele>1591</ele>
        <time>2022-07-26T09:15:54Z</time>
      </trkpt>
      <trkpt lat="44.09627" lon="7.02798">
        <ele>1591</ele>
        <time>2022-07-26T09:15:55Z</time>
      </trkpt>
      <trkpt lat="44.09627" lon="7.02799">
        <ele>1591</ele>
        <time>2022-07-26T09:15:56Z</time>
      </trkpt>
      <trkpt lat="44.09627" lon="7.02801">
        <ele>1591</ele>
        <time>2022-07-26T09:15:57Z</time>
      </trkpt>
      <trkpt lat="44.09626" lon="7.02803">
        <ele>1590</ele>
        <time>2022-07-26T09:15:58Z</time>
      </trkpt>
      <trkpt lat="44.09626" lon="7.02804">
        <ele>1590</ele>
        <time>2022-07-26T09:15:59Z</time>
      </trkpt>
      <trkpt lat="44.09626" lon="7.02806">
        <ele>1590</ele>
        <time>2022-07-26T09:16:00Z</time>
      </trkpt>
      <trkpt lat="44.09625" lon="7.02807">
        <ele>1590</ele>
        <time>2022-07-26T09:16:01Z</time>
      </trkpt>
      <trkpt lat="44.09625" lon="7.02808">
        <ele>1590</ele>
        <time>2022-07-26T09:16:02Z</time>
      </trkpt>
      <trkpt lat="44.09624" lon="7.0281">
        <ele>1589</ele>
        <time>2022-07-26T09:16:03Z</time>
      </trkpt>
      <trkpt lat="44.09624" lon="7.02811">
        <ele>1589</ele>
        <time>2022-07-26T09:16:04Z</time>
      </trkpt>
      <trkpt lat="44.09623" lon="7.02812">
        <ele>1589</ele>
        <time>2022-07-26T09:16:05Z</time>
      </trkpt>
      <trkpt lat="44.09622" lon="7.02814">
        <ele>1589</ele>
        <time>2022-07-26T09:16:06Z</time>
      </trkpt>
      <trkpt lat="44.09621" lon="7.02815">
        <ele>1589</ele>
        <time>2022-07-26T09:16:07Z</time>
      </trkpt>
      <trkpt lat="44.09621" lon="7.02817">
        <ele>1589</ele>
        <time>2022-07-26T09:16:08Z</time>
      </trkpt>
      <trkpt lat="44.0962" lon="7.02818">
        <ele>1589</ele>
        <time>2022-07-26T09:16:09Z</time>
      </trkpt>
      <trkpt lat="44.0962" lon="7.0282">
        <ele>1589</ele>
        <time>2022-07-26T09:16:10Z</time>
      </trkpt>
      <trkpt lat="44.09619" lon="7.02821">
        <ele>1589</ele>
        <time>2022-07-26T09:16:11Z</time>
      </trkpt>
      <trkpt lat="44.09618" lon="7.02822">
        <ele>1589</ele>
        <time>2022-07-26T09:16:12Z</time>
      </trkpt>
      <trkpt lat="44.09618" lon="7.02824">
        <ele>1588</ele>
        <time>2022-07-26T09:16:13Z</time>
      </trkpt>
      <trkpt lat="44.09617" lon="7.02825">
        <ele>1588</ele>
        <time>2022-07-26T09:16:14Z</time>
      </trkpt>
      <trkpt lat="44.09616" lon="7.02827">
        <ele>1588</ele>
        <time>2022-07-26T09:16:15Z</time>
      </trkpt>
      <trkpt lat="44.09616" lon="7.02828">
        <ele>1588</ele>
        <time>2022-07-26T09:16:16Z</time>
      </trkpt>
      <trkpt lat="44.09615" lon="7.02829">
        <ele>1588</ele>
        <time>2022-07-26T09:16:17Z</time>
      </trkpt>
      <trkpt lat="44.09615" lon="7.0283">
        <ele>1587</ele>
        <time>2022-07-26T09:16:18Z</time>
      </trkpt>
      <trkpt lat="44.09614" lon="7.02831">
        <ele>1587</ele>
        <time>2022-07-26T09:16:19Z</time>
      </trkpt>
      <trkpt lat="44.09614" lon="7.02832">
        <ele>1587</ele>
        <time>2022-07-26T09:16:20Z</time>
      </trkpt>
      <trkpt lat="44.09614" lon="7.02834">
        <ele>1587</ele>
        <time>2022-07-26T09:16:21Z</time>
      </trkpt>
      <trkpt lat="44.09613" lon="7.02835">
        <ele>1587</ele>
        <time>2022-07-26T09:16:22Z</time>
      </trkpt>
      <trkpt lat="44.09613" lon="7.02836">
        <ele>1587</ele>
        <time>2022-07-26T09:16:23Z</time>
      </trkpt>
      <trkpt lat="44.09612" lon="7.02837">
        <ele>1587</ele>
        <time>2022-07-26T09:16:24Z</time>
      </trkpt>
      <trkpt lat="44.09612" lon="7.02839">
        <ele>1587</ele>
        <time>2022-07-26T09:16:25Z</time>
      </trkpt>
      <trkpt lat="44.09611" lon="7.0284">
        <ele>1587</ele>
        <time>2022-07-26T09:16:26Z</time>
      </trkpt>
      <trkpt lat="44.09611" lon="7.02841">
        <ele>1587</ele>
        <time>2022-07-26T09:16:27Z</time>
      </trkpt>
      <trkpt lat="44.09611" lon="7.02843">
        <ele>1586</ele>
        <time>2022-07-26T09:16:28Z</time>
      </trkpt>
      <trkpt lat="44.0961" lon="7.02844">
        <ele>1586</ele>
        <time>2022-07-26T09:16:29Z</time>
      </trkpt>
      <trkpt lat="44.0961" lon="7.02846">
        <ele>1586</ele>
        <time>2022-07-26T09:16:30Z</time>
      </trkpt>
      <trkpt lat="44.09609" lon="7.02847">
        <ele>1586</ele>
        <time>2022-07-26T09:16:31Z</time>
      </trkpt>
      <trkpt lat="44.09609" lon="7.02849">
        <ele>1586</ele>
        <time>2022-07-26T09:16:32Z</time>
      </trkpt>
      <trkpt lat="44.09609" lon="7.0285">
        <ele>1586</ele>
        <time>2022-07-26T09:16:33Z</time>
      </trkpt>
      <trkpt lat="44.09608" lon="7.02851">
        <ele>1586</ele>
        <time>2022-07-26T09:16:34Z</time>
      </trkpt>
      <trkpt lat="44.09608" lon="7.02852">
        <ele>1586</ele>
        <time>2022-07-26T09:16:35Z</time>
      </trkpt>
      <trkpt lat="44.09607" lon="7.02853">
        <ele>1586</ele>
        <time>2022-07-26T09:16:36Z</time>
      </trkpt>
      <trkpt lat="44.09607" lon="7.02855">
        <ele>1586</ele>
        <time>2022-07-26T09:16:37Z</time>
      </trkpt>
      <trkpt lat="44.09607" lon="7.02856">
        <ele>1585</ele>
        <time>2022-07-26T09:16:38Z</time>
      </trkpt>
      <trkpt lat="44.09606" lon="7.02857">
        <ele>1585</ele>
        <time>2022-07-26T09:16:39Z</time>
      </trkpt>
      <trkpt lat="44.09606" lon="7.02858">
        <ele>1585</ele>
        <time>2022-07-26T09:16:40Z</time>
      </trkpt>
      <trkpt lat="44.09605" lon="7.02859">
        <ele>1585</ele>
        <time>2022-07-26T09:16:41Z</time>
      </trkpt>
      <trkpt lat="44.09605" lon="7.0286">
        <ele>1585</ele>
        <time>2022-07-26T09:16:42Z</time>
      </trkpt>
      <trkpt lat="44.09605" lon="7.02861">
        <ele>1584</ele>
        <time>2022-07-26T09:16:43Z</time>
      </trkpt>
      <trkpt lat="44.09604" lon="7.02862">
        <ele>1584</ele>
        <time>2022-07-26T09:16:44Z</time>
      </trkpt>
      <trkpt lat="44.09604" lon="7.02864">
        <ele>1584</ele>
        <time>2022-07-26T09:16:45Z</time>
      </trkpt>
      <trkpt lat="44.09604" lon="7.02865">
        <ele>1584</ele>
        <time>2022-07-26T09:16:46Z</time>
      </trkpt>
      <trkpt lat="44.09604" lon="7.02867">
        <ele>1584</ele>
        <time>2022-07-26T09:16:47Z</time>
      </trkpt>
      <trkpt lat="44.09604" lon="7.02868">
        <ele>1583</ele>
        <time>2022-07-26T09:16:48Z</time>
      </trkpt>
      <trkpt lat="44.09603" lon="7.02869">
        <ele>1583</ele>
        <time>2022-07-26T09:16:49Z</time>
      </trkpt>
      <trkpt lat="44.09603" lon="7.0287">
        <ele>1583</ele>
        <time>2022-07-26T09:16:50Z</time>
      </trkpt>
      <trkpt lat="44.09603" lon="7.02871">
        <ele>1583</ele>
        <time>2022-07-26T09:16:51Z</time>
      </trkpt>
      <trkpt lat="44.09603" lon="7.02872">
        <ele>1583</ele>
        <time>2022-07-26T09:16:52Z</time>
      </trkpt>
      <trkpt lat="44.09603" lon="7.02873">
        <ele>1583</ele>
        <time>2022-07-26T09:16:53Z</time>
      </trkpt>
      <trkpt lat="44.09602" lon="7.02874">
        <ele>1583</ele>
        <time>2022-07-26T09:16:54Z</time>
      </trkpt>
      <trkpt lat="44.09602" lon="7.02875">
        <ele>1583</ele>
        <time>2022-07-26T09:16:55Z</time>
      </trkpt>
      <trkpt lat="44.09601" lon="7.02877">
        <ele>1583</ele>
        <time>2022-07-26T09:16:56Z</time>
      </trkpt>
      <trkpt lat="44.09601" lon="7.02878">
        <ele>1583</ele>
        <time>2022-07-26T09:16:57Z</time>
      </trkpt>
      <trkpt lat="44.09601" lon="7.02879">
        <ele>1582</ele>
        <time>2022-07-26T09:16:58Z</time>
      </trkpt>
      <trkpt lat="44.09601" lon="7.0288">
        <ele>1582</ele>
        <time>2022-07-26T09:16:59Z</time>
      </trkpt>
      <trkpt lat="44.09601" lon="7.02881">
        <ele>1582</ele>
        <time>2022-07-26T09:17:00Z</time>
      </trkpt>
      <trkpt lat="44.09601" lon="7.02882">
        <ele>1582</ele>
        <time>2022-07-26T09:17:01Z</time>
      </trkpt>
      <trkpt lat="44.09601" lon="7.02883">
        <ele>1582</ele>
        <time>2022-07-26T09:17:02Z</time>
      </trkpt>
      <trkpt lat="44.096" lon="7.02884">
        <ele>1582</ele>
        <time>2022-07-26T09:17:03Z</time>
      </trkpt>
      <trkpt lat="44.096" lon="7.02885">
        <ele>1582</ele>
        <time>2022-07-26T09:17:04Z</time>
      </trkpt>
      <trkpt lat="44.09599" lon="7.02886">
        <ele>1582</ele>
        <time>2022-07-26T09:17:05Z</time>
      </trkpt>
      <trkpt lat="44.09599" lon="7.02887">
        <ele>1582</ele>
        <time>2022-07-26T09:17:06Z</time>
      </trkpt>
      <trkpt lat="44.09598" lon="7.02888">
        <ele>1582</ele>
        <time>2022-07-26T09:17:07Z</time>
      </trkpt>
      <trkpt lat="44.09598" lon="7.02889">
        <ele>1581</ele>
        <time>2022-07-26T09:17:08Z</time>
      </trkpt>
      <trkpt lat="44.09597" lon="7.02891">
        <ele>1581</ele>
        <time>2022-07-26T09:17:09Z</time>
      </trkpt>
      <trkpt lat="44.09597" lon="7.02892">
        <ele>1581</ele>
        <time>2022-07-26T09:17:10Z</time>
      </trkpt>
      <trkpt lat="44.09596" lon="7.02893">
        <ele>1581</ele>
        <time>2022-07-26T09:17:11Z</time>
      </trkpt>
      <trkpt lat="44.09596" lon="7.02895">
        <ele>1581</ele>
        <time>2022-07-26T09:17:12Z</time>
      </trkpt>
      <trkpt lat="44.09596" lon="7.02896">
        <ele>1581</ele>
        <time>2022-07-26T09:17:13Z</time>
      </trkpt>
      <trkpt lat="44.09596" lon="7.02898">
        <ele>1581</ele>
        <time>2022-07-26T09:17:14Z</time>
      </trkpt>
      <trkpt lat="44.09596" lon="7.029">
        <ele>1581</ele>
        <time>2022-07-26T09:17:15Z</time>
      </trkpt>
      <trkpt lat="44.09596" lon="7.02901">
        <ele>1581</ele>
        <time>2022-07-26T09:17:16Z</time>
      </trkpt>
      <trkpt lat="44.09596" lon="7.02903">
        <ele>1581</ele>
        <time>2022-07-26T09:17:17Z</time>
      </trkpt>
      <trkpt lat="44.09596" lon="7.02904">
        <ele>1580</ele>
        <time>2022-07-26T09:17:18Z</time>
      </trkpt>
      <trkpt lat="44.09595" lon="7.02906">
        <ele>1580</ele>
        <time>2022-07-26T09:17:19Z</time>
      </trkpt>
      <trkpt lat="44.09595" lon="7.02907">
        <ele>1580</ele>
        <time>2022-07-26T09:17:20Z</time>
      </trkpt>
      <trkpt lat="44.09595" lon="7.02908">
        <ele>1580</ele>
        <time>2022-07-26T09:17:21Z</time>
      </trkpt>
      <trkpt lat="44.09595" lon="7.0291">
        <ele>1580</ele>
        <time>2022-07-26T09:17:22Z</time>
      </trkpt>
      <trkpt lat="44.09594" lon="7.02911">
        <ele>1579</ele>
        <time>2022-07-26T09:17:23Z</time>
      </trkpt>
      <trkpt lat="44.09594" lon="7.02912">
        <ele>1579</ele>
        <time>2022-07-26T09:17:24Z</time>
      </trkpt>
      <trkpt lat="44.09593" lon="7.02914">
        <ele>1579</ele>
        <time>2022-07-26T09:17:25Z</time>
      </trkpt>
      <trkpt lat="44.09593" lon="7.02915">
        <ele>1579</ele>
        <time>2022-07-26T09:17:26Z</time>
      </trkpt>
      <trkpt lat="44.09592" lon="7.02917">
        <ele>1579</ele>
        <time>2022-07-26T09:17:27Z</time>
      </trkpt>
      <trkpt lat="44.09591" lon="7.02918">
        <ele>1579</ele>
        <time>2022-07-26T09:17:28Z</time>
      </trkpt>
      <trkpt lat="44.09591" lon="7.0292">
        <ele>1579</ele>
        <time>2022-07-26T09:17:29Z</time>
      </trkpt>
      <trkpt lat="44.0959" lon="7.02922">
        <ele>1579</ele>
        <time>2022-07-26T09:17:30Z</time>
      </trkpt>
      <trkpt lat="44.0959" lon="7.02924">
        <ele>1579</ele>
        <time>2022-07-26T09:17:31Z</time>
      </trkpt>
      <trkpt lat="44.0959" lon="7.02925">
        <ele>1579</ele>
        <time>2022-07-26T09:17:32Z</time>
      </trkpt>
      <trkpt lat="44.09589" lon="7.02927">
        <ele>1578</ele>
        <time>2022-07-26T09:17:33Z</time>
      </trkpt>
      <trkpt lat="44.09589" lon="7.02929">
        <ele>1578</ele>
        <time>2022-07-26T09:17:34Z</time>
      </trkpt>
      <trkpt lat="44.09589" lon="7.0293">
        <ele>1578</ele>
        <time>2022-07-26T09:17:35Z</time>
      </trkpt>
      <trkpt lat="44.09589" lon="7.02932">
        <ele>1578</ele>
        <time>2022-07-26T09:17:36Z</time>
      </trkpt>
      <trkpt lat="44.09589" lon="7.02933">
        <ele>1578</ele>
        <time>2022-07-26T09:17:37Z</time>
      </trkpt>
      <trkpt lat="44.09589" lon="7.02934">
        <ele>1577</ele>
        <time>2022-07-26T09:17:38Z</time>
      </trkpt>
      <trkpt lat="44.09589" lon="7.02935">
        <ele>1577</ele>
        <time>2022-07-26T09:17:39Z</time>
      </trkpt>
      <trkpt lat="44.09589" lon="7.02936">
        <ele>1577</ele>
        <time>2022-07-26T09:17:40Z</time>
      </trkpt>
      <trkpt lat="44.09589" lon="7.02936">
        <ele>1577</ele>
        <time>2022-07-26T09:17:41Z</time>
      </trkpt>
      <trkpt lat="44.09589" lon="7.02938">
        <ele>1577</ele>
        <time>2022-07-26T09:17:42Z</time>
      </trkpt>
      <trkpt lat="44.09589" lon="7.02939">
        <ele>1577</ele>
        <time>2022-07-26T09:17:43Z</time>
      </trkpt>
      <trkpt lat="44.09589" lon="7.0294">
        <ele>1577</ele>
        <time>2022-07-26T09:17:44Z</time>
      </trkpt>
      <trkpt lat="44.09589" lon="7.02941">
        <ele>1577</ele>
        <time>2022-07-26T09:17:45Z</time>
      </trkpt>
      <trkpt lat="44.09589" lon="7.02942">
        <ele>1577</ele>
        <time>2022-07-26T09:17:46Z</time>
      </trkpt>
      <trkpt lat="44.09588" lon="7.02944">
        <ele>1577</ele>
        <time>2022-07-26T09:17:47Z</time>
      </trkpt>
      <trkpt lat="44.09588" lon="7.02945">
        <ele>1576</ele>
        <time>2022-07-26T09:17:48Z</time>
      </trkpt>
      <trkpt lat="44.09588" lon="7.02946">
        <ele>1576</ele>
        <time>2022-07-26T09:17:49Z</time>
      </trkpt>
      <trkpt lat="44.09588" lon="7.02947">
        <ele>1576</ele>
        <time>2022-07-26T09:17:50Z</time>
      </trkpt>
      <trkpt lat="44.09587" lon="7.02949">
        <ele>1576</ele>
        <time>2022-07-26T09:17:51Z</time>
      </trkpt>
      <trkpt lat="44.09587" lon="7.0295">
        <ele>1576</ele>
        <time>2022-07-26T09:17:52Z</time>
      </trkpt>
      <trkpt lat="44.09587" lon="7.02951">
        <ele>1576</ele>
        <time>2022-07-26T09:17:53Z</time>
      </trkpt>
      <trkpt lat="44.09587" lon="7.02952">
        <ele>1576</ele>
        <time>2022-07-26T09:17:54Z</time>
      </trkpt>
      <trkpt lat="44.09587" lon="7.02953">
        <ele>1576</ele>
        <time>2022-07-26T09:17:55Z</time>
      </trkpt>
      <trkpt lat="44.09587" lon="7.02954">
        <ele>1576</ele>
        <time>2022-07-26T09:17:56Z</time>
      </trkpt>
      <trkpt lat="44.09587" lon="7.02956">
        <ele>1576</ele>
        <time>2022-07-26T09:17:57Z</time>
      </trkpt>
      <trkpt lat="44.09588" lon="7.02957">
        <ele>1575</ele>
        <time>2022-07-26T09:17:58Z</time>
      </trkpt>
      <trkpt lat="44.09588" lon="7.02958">
        <ele>1575</ele>
        <time>2022-07-26T09:17:59Z</time>
      </trkpt>
      <trkpt lat="44.09588" lon="7.02959">
        <ele>1575</ele>
        <time>2022-07-26T09:18:00Z</time>
      </trkpt>
      <trkpt lat="44.09588" lon="7.02961">
        <ele>1575</ele>
        <time>2022-07-26T09:18:01Z</time>
      </trkpt>
      <trkpt lat="44.09588" lon="7.02962">
        <ele>1575</ele>
        <time>2022-07-26T09:18:02Z</time>
      </trkpt>
      <trkpt lat="44.09588" lon="7.02963">
        <ele>1574</ele>
        <time>2022-07-26T09:18:03Z</time>
      </trkpt>
      <trkpt lat="44.09588" lon="7.02964">
        <ele>1574</ele>
        <time>2022-07-26T09:18:04Z</time>
      </trkpt>
      <trkpt lat="44.09588" lon="7.02965">
        <ele>1573</ele>
        <time>2022-07-26T09:18:05Z</time>
      </trkpt>
      <trkpt lat="44.09589" lon="7.02967">
        <ele>1573</ele>
        <time>2022-07-26T09:18:06Z</time>
      </trkpt>
      <trkpt lat="44.09589" lon="7.02968">
        <ele>1573</ele>
        <time>2022-07-26T09:18:07Z</time>
      </trkpt>
      <trkpt lat="44.09589" lon="7.02971">
        <ele>1572</ele>
        <time>2022-07-26T09:18:14Z</time>
      </trkpt>
      <trkpt lat="44.09589" lon="7.02972">
        <ele>1572</ele>
        <time>2022-07-26T09:18:15Z</time>
      </trkpt>
      <trkpt lat="44.09589" lon="7.02974">
        <ele>1572</ele>
        <time>2022-07-26T09:18:16Z</time>
      </trkpt>
      <trkpt lat="44.09589" lon="7.02975">
        <ele>1572</ele>
        <time>2022-07-26T09:18:17Z</time>
      </trkpt>
      <trkpt lat="44.09589" lon="7.02976">
        <ele>1572</ele>
        <time>2022-07-26T09:18:18Z</time>
      </trkpt>
      <trkpt lat="44.09589" lon="7.02978">
        <ele>1572</ele>
        <time>2022-07-26T09:18:19Z</time>
      </trkpt>
      <trkpt lat="44.09589" lon="7.02979">
        <ele>1572</ele>
        <time>2022-07-26T09:18:20Z</time>
      </trkpt>
      <trkpt lat="44.09589" lon="7.0298">
        <ele>1572</ele>
        <time>2022-07-26T09:18:21Z</time>
      </trkpt>
      <trkpt lat="44.09589" lon="7.02982">
        <ele>1572</ele>
        <time>2022-07-26T09:18:22Z</time>
      </trkpt>
      <trkpt lat="44.09589" lon="7.02983">
        <ele>1572</ele>
        <time>2022-07-26T09:18:23Z</time>
      </trkpt>
      <trkpt lat="44.09589" lon="7.02985">
        <ele>1572</ele>
        <time>2022-07-26T09:18:24Z</time>
      </trkpt>
      <trkpt lat="44.09589" lon="7.02986">
        <ele>1572</ele>
        <time>2022-07-26T09:18:25Z</time>
      </trkpt>
      <trkpt lat="44.09589" lon="7.02988">
        <ele>1572</ele>
        <time>2022-07-26T09:18:26Z</time>
      </trkpt>
      <trkpt lat="44.09589" lon="7.02989">
        <ele>1572</ele>
        <time>2022-07-26T09:18:27Z</time>
      </trkpt>
      <trkpt lat="44.09589" lon="7.0299">
        <ele>1571</ele>
        <time>2022-07-26T09:18:28Z</time>
      </trkpt>
      <trkpt lat="44.09589" lon="7.02992">
        <ele>1571</ele>
        <time>2022-07-26T09:18:29Z</time>
      </trkpt>
      <trkpt lat="44.09589" lon="7.02993">
        <ele>1571</ele>
        <time>2022-07-26T09:18:30Z</time>
      </trkpt>
      <trkpt lat="44.0959" lon="7.02994">
        <ele>1571</ele>
        <time>2022-07-26T09:18:31Z</time>
      </trkpt>
      <trkpt lat="44.0959" lon="7.02995">
        <ele>1571</ele>
        <time>2022-07-26T09:18:32Z</time>
      </trkpt>
      <trkpt lat="44.0959" lon="7.02996">
        <ele>1571</ele>
        <time>2022-07-26T09:18:33Z</time>
      </trkpt>
      <trkpt lat="44.09591" lon="7.02997">
        <ele>1571</ele>
        <time>2022-07-26T09:18:34Z</time>
      </trkpt>
      <trkpt lat="44.09591" lon="7.02998">
        <ele>1571</ele>
        <time>2022-07-26T09:18:35Z</time>
      </trkpt>
      <trkpt lat="44.09591" lon="7.02998">
        <ele>1571</ele>
        <time>2022-07-26T09:18:36Z</time>
      </trkpt>
      <trkpt lat="44.09592" lon="7.02999">
        <ele>1571</ele>
        <time>2022-07-26T09:18:37Z</time>
      </trkpt>
      <trkpt lat="44.09592" lon="7.03">
        <ele>1570</ele>
        <time>2022-07-26T09:18:38Z</time>
      </trkpt>
      <trkpt lat="44.09592" lon="7.03002">
        <ele>1570</ele>
        <time>2022-07-26T09:18:39Z</time>
      </trkpt>
      <trkpt lat="44.09593" lon="7.03003">
        <ele>1570</ele>
        <time>2022-07-26T09:18:40Z</time>
      </trkpt>
      <trkpt lat="44.09593" lon="7.03004">
        <ele>1570</ele>
        <time>2022-07-26T09:18:41Z</time>
      </trkpt>
      <trkpt lat="44.09594" lon="7.03006">
        <ele>1570</ele>
        <time>2022-07-26T09:18:42Z</time>
      </trkpt>
      <trkpt lat="44.09594" lon="7.03008">
        <ele>1570</ele>
        <time>2022-07-26T09:18:43Z</time>
      </trkpt>
      <trkpt lat="44.09594" lon="7.03009">
        <ele>1570</ele>
        <time>2022-07-26T09:18:44Z</time>
      </trkpt>
      <trkpt lat="44.09595" lon="7.03011">
        <ele>1570</ele>
        <time>2022-07-26T09:18:45Z</time>
      </trkpt>
      <trkpt lat="44.09595" lon="7.03013">
        <ele>1570</ele>
        <time>2022-07-26T09:18:46Z</time>
      </trkpt>
      <trkpt lat="44.09596" lon="7.03015">
        <ele>1570</ele>
        <time>2022-07-26T09:18:47Z</time>
      </trkpt>
      <trkpt lat="44.09596" lon="7.03016">
        <ele>1569</ele>
        <time>2022-07-26T09:18:48Z</time>
      </trkpt>
      <trkpt lat="44.09596" lon="7.03018">
        <ele>1569</ele>
        <time>2022-07-26T09:18:49Z</time>
      </trkpt>
      <trkpt lat="44.09597" lon="7.03018">
        <ele>1569</ele>
        <time>2022-07-26T09:18:50Z</time>
      </trkpt>
      <trkpt lat="44.09597" lon="7.03019">
        <ele>1569</ele>
        <time>2022-07-26T09:18:51Z</time>
      </trkpt>
      <trkpt lat="44.09597" lon="7.03019">
        <ele>1569</ele>
        <time>2022-07-26T09:18:52Z</time>
      </trkpt>
      <trkpt lat="44.09597" lon="7.0302">
        <ele>1568</ele>
        <time>2022-07-26T09:18:53Z</time>
      </trkpt>
      <trkpt lat="44.09597" lon="7.0302">
        <ele>1568</ele>
        <time>2022-07-26T09:18:54Z</time>
      </trkpt>
      <trkpt lat="44.09597" lon="7.03021">
        <ele>1568</ele>
        <time>2022-07-26T09:18:55Z</time>
      </trkpt>
      <trkpt lat="44.09597" lon="7.03022">
        <ele>1568</ele>
        <time>2022-07-26T09:18:56Z</time>
      </trkpt>
      <trkpt lat="44.09598" lon="7.03023">
        <ele>1568</ele>
        <time>2022-07-26T09:18:57Z</time>
      </trkpt>
      <trkpt lat="44.09598" lon="7.03024">
        <ele>1567</ele>
        <time>2022-07-26T09:18:58Z</time>
      </trkpt>
      <trkpt lat="44.09598" lon="7.03025">
        <ele>1567</ele>
        <time>2022-07-26T09:18:59Z</time>
      </trkpt>
      <trkpt lat="44.09598" lon="7.03026">
        <ele>1567</ele>
        <time>2022-07-26T09:19:00Z</time>
      </trkpt>
      <trkpt lat="44.09599" lon="7.03027">
        <ele>1567</ele>
        <time>2022-07-26T09:19:01Z</time>
      </trkpt>
      <trkpt lat="44.09599" lon="7.03028">
        <ele>1567</ele>
        <time>2022-07-26T09:19:02Z</time>
      </trkpt>
      <trkpt lat="44.09599" lon="7.03029">
        <ele>1567</ele>
        <time>2022-07-26T09:19:03Z</time>
      </trkpt>
      <trkpt lat="44.09599" lon="7.0303">
        <ele>1567</ele>
        <time>2022-07-26T09:19:04Z</time>
      </trkpt>
      <trkpt lat="44.09599" lon="7.03031">
        <ele>1567</ele>
        <time>2022-07-26T09:19:05Z</time>
      </trkpt>
      <trkpt lat="44.09599" lon="7.03031">
        <ele>1567</ele>
        <time>2022-07-26T09:19:06Z</time>
      </trkpt>
      <trkpt lat="44.09599" lon="7.03032">
        <ele>1567</ele>
        <time>2022-07-26T09:19:07Z</time>
      </trkpt>
      <trkpt lat="44.09599" lon="7.03033">
        <ele>1566</ele>
        <time>2022-07-26T09:19:08Z</time>
      </trkpt>
      <trkpt lat="44.09598" lon="7.03034">
        <ele>1566</ele>
        <time>2022-07-26T09:19:09Z</time>
      </trkpt>
      <trkpt lat="44.09598" lon="7.03035">
        <ele>1566</ele>
        <time>2022-07-26T09:19:10Z</time>
      </trkpt>
      <trkpt lat="44.09597" lon="7.03037">
        <ele>1566</ele>
        <time>2022-07-26T09:19:11Z</time>
      </trkpt>
      <trkpt lat="44.09597" lon="7.03038">
        <ele>1566</ele>
        <time>2022-07-26T09:19:12Z</time>
      </trkpt>
      <trkpt lat="44.09597" lon="7.0304">
        <ele>1566</ele>
        <time>2022-07-26T09:19:13Z</time>
      </trkpt>
      <trkpt lat="44.09596" lon="7.03042">
        <ele>1566</ele>
        <time>2022-07-26T09:19:14Z</time>
      </trkpt>
      <trkpt lat="44.09596" lon="7.03043">
        <ele>1565</ele>
        <time>2022-07-26T09:19:23Z</time>
      </trkpt>
      <trkpt lat="44.09596" lon="7.03043">
        <ele>1565</ele>
        <time>2022-07-26T09:19:24Z</time>
      </trkpt>
      <trkpt lat="44.09597" lon="7.03043">
        <ele>1565</ele>
        <time>2022-07-26T09:19:25Z</time>
      </trkpt>
      <trkpt lat="44.09597" lon="7.03043">
        <ele>1565</ele>
        <time>2022-07-26T09:19:26Z</time>
      </trkpt>
      <trkpt lat="44.09597" lon="7.03042">
        <ele>1565</ele>
        <time>2022-07-26T09:19:27Z</time>
      </trkpt>
      <trkpt lat="44.09595" lon="7.03045">
        <ele>1565</ele>
        <time>2022-07-26T09:30:21Z</time>
      </trkpt>
      <trkpt lat="44.09594" lon="7.03047">
        <ele>1565</ele>
        <time>2022-07-26T09:30:22Z</time>
      </trkpt>
      <trkpt lat="44.09592" lon="7.03049">
        <ele>1565</ele>
        <time>2022-07-26T09:30:23Z</time>
      </trkpt>
      <trkpt lat="44.09591" lon="7.0305">
        <ele>1565</ele>
        <time>2022-07-26T09:30:24Z</time>
      </trkpt>
      <trkpt lat="44.09591" lon="7.03051">
        <ele>1565</ele>
        <time>2022-07-26T09:30:25Z</time>
      </trkpt>
      <trkpt lat="44.0959" lon="7.03052">
        <ele>1565</ele>
        <time>2022-07-26T09:30:26Z</time>
      </trkpt>
      <trkpt lat="44.0959" lon="7.03054">
        <ele>1565</ele>
        <time>2022-07-26T09:30:27Z</time>
      </trkpt>
      <trkpt lat="44.0959" lon="7.03055">
        <ele>1565</ele>
        <time>2022-07-26T09:30:28Z</time>
      </trkpt>
      <trkpt lat="44.09589" lon="7.03056">
        <ele>1565</ele>
        <time>2022-07-26T09:30:29Z</time>
      </trkpt>
      <trkpt lat="44.09589" lon="7.03057">
        <ele>1565</ele>
        <time>2022-07-26T09:30:30Z</time>
      </trkpt>
      <trkpt lat="44.09589" lon="7.03058">
        <ele>1565</ele>
        <time>2022-07-26T09:30:31Z</time>
      </trkpt>
      <trkpt lat="44.09588" lon="7.03059">
        <ele>1565</ele>
        <time>2022-07-26T09:30:32Z</time>
      </trkpt>
      <trkpt lat="44.09588" lon="7.0306">
        <ele>1565</ele>
        <time>2022-07-26T09:30:33Z</time>
      </trkpt>
      <trkpt lat="44.09588" lon="7.03062">
        <ele>1565</ele>
        <time>2022-07-26T09:30:34Z</time>
      </trkpt>
      <trkpt lat="44.09588" lon="7.03063">
        <ele>1565</ele>
        <time>2022-07-26T09:30:35Z</time>
      </trkpt>
      <trkpt lat="44.09587" lon="7.03064">
        <ele>1565</ele>
        <time>2022-07-26T09:30:36Z</time>
      </trkpt>
      <trkpt lat="44.09587" lon="7.03066">
        <ele>1565</ele>
        <time>2022-07-26T09:30:37Z</time>
      </trkpt>
      <trkpt lat="44.09587" lon="7.03067">
        <ele>1565</ele>
        <time>2022-07-26T09:30:38Z</time>
      </trkpt>
      <trkpt lat="44.09587" lon="7.03068">
        <ele>1565</ele>
        <time>2022-07-26T09:30:39Z</time>
      </trkpt>
      <trkpt lat="44.09587" lon="7.0307">
        <ele>1565</ele>
        <time>2022-07-26T09:30:40Z</time>
      </trkpt>
      <trkpt lat="44.09587" lon="7.03071">
        <ele>1565</ele>
        <time>2022-07-26T09:30:41Z</time>
      </trkpt>
      <trkpt lat="44.09587" lon="7.03073">
        <ele>1565</ele>
        <time>2022-07-26T09:30:42Z</time>
      </trkpt>
      <trkpt lat="44.09586" lon="7.03074">
        <ele>1564</ele>
        <time>2022-07-26T09:30:43Z</time>
      </trkpt>
      <trkpt lat="44.09586" lon="7.03075">
        <ele>1564</ele>
        <time>2022-07-26T09:30:44Z</time>
      </trkpt>
      <trkpt lat="44.09586" lon="7.03076">
        <ele>1564</ele>
        <time>2022-07-26T09:30:45Z</time>
      </trkpt>
      <trkpt lat="44.09586" lon="7.03078">
        <ele>1564</ele>
        <time>2022-07-26T09:30:46Z</time>
      </trkpt>
      <trkpt lat="44.09585" lon="7.03079">
        <ele>1564</ele>
        <time>2022-07-26T09:30:47Z</time>
      </trkpt>
      <trkpt lat="44.09585" lon="7.0308">
        <ele>1564</ele>
        <time>2022-07-26T09:30:48Z</time>
      </trkpt>
      <trkpt lat="44.09585" lon="7.03081">
        <ele>1564</ele>
        <time>2022-07-26T09:30:49Z</time>
      </trkpt>
      <trkpt lat="44.09585" lon="7.03083">
        <ele>1564</ele>
        <time>2022-07-26T09:30:50Z</time>
      </trkpt>
      <trkpt lat="44.09584" lon="7.03084">
        <ele>1564</ele>
        <time>2022-07-26T09:30:51Z</time>
      </trkpt>
      <trkpt lat="44.09584" lon="7.03086">
        <ele>1564</ele>
        <time>2022-07-26T09:30:52Z</time>
      </trkpt>
      <trkpt lat="44.09584" lon="7.03088">
        <ele>1563</ele>
        <time>2022-07-26T09:30:53Z</time>
      </trkpt>
      <trkpt lat="44.09584" lon="7.0309">
        <ele>1563</ele>
        <time>2022-07-26T09:30:54Z</time>
      </trkpt>
      <trkpt lat="44.09584" lon="7.03092">
        <ele>1563</ele>
        <time>2022-07-26T09:30:55Z</time>
      </trkpt>
      <trkpt lat="44.09584" lon="7.03094">
        <ele>1563</ele>
        <time>2022-07-26T09:30:56Z</time>
      </trkpt>
      <trkpt lat="44.09585" lon="7.03096">
        <ele>1563</ele>
        <time>2022-07-26T09:30:57Z</time>
      </trkpt>
      <trkpt lat="44.09585" lon="7.03098">
        <ele>1563</ele>
        <time>2022-07-26T09:30:58Z</time>
      </trkpt>
      <trkpt lat="44.09585" lon="7.03099">
        <ele>1563</ele>
        <time>2022-07-26T09:30:59Z</time>
      </trkpt>
      <trkpt lat="44.09586" lon="7.03101">
        <ele>1563</ele>
        <time>2022-07-26T09:31:00Z</time>
      </trkpt>
      <trkpt lat="44.09586" lon="7.03102">
        <ele>1563</ele>
        <time>2022-07-26T09:31:01Z</time>
      </trkpt>
      <trkpt lat="44.09587" lon="7.03104">
        <ele>1563</ele>
        <time>2022-07-26T09:31:02Z</time>
      </trkpt>
      <trkpt lat="44.09587" lon="7.03105">
        <ele>1562</ele>
        <time>2022-07-26T09:31:03Z</time>
      </trkpt>
      <trkpt lat="44.09587" lon="7.03107">
        <ele>1562</ele>
        <time>2022-07-26T09:31:04Z</time>
      </trkpt>
      <trkpt lat="44.09588" lon="7.03108">
        <ele>1562</ele>
        <time>2022-07-26T09:31:05Z</time>
      </trkpt>
      <trkpt lat="44.09588" lon="7.0311">
        <ele>1562</ele>
        <time>2022-07-26T09:31:06Z</time>
      </trkpt>
      <trkpt lat="44.09589" lon="7.03111">
        <ele>1562</ele>
        <time>2022-07-26T09:31:07Z</time>
      </trkpt>
      <trkpt lat="44.09589" lon="7.03112">
        <ele>1561</ele>
        <time>2022-07-26T09:31:08Z</time>
      </trkpt>
      <trkpt lat="44.0959" lon="7.03114">
        <ele>1561</ele>
        <time>2022-07-26T09:31:09Z</time>
      </trkpt>
      <trkpt lat="44.0959" lon="7.03115">
        <ele>1561</ele>
        <time>2022-07-26T09:31:10Z</time>
      </trkpt>
      <trkpt lat="44.09591" lon="7.03117">
        <ele>1561</ele>
        <time>2022-07-26T09:31:11Z</time>
      </trkpt>
      <trkpt lat="44.09591" lon="7.03119">
        <ele>1561</ele>
        <time>2022-07-26T09:31:12Z</time>
      </trkpt>
      <trkpt lat="44.09591" lon="7.0312">
        <ele>1561</ele>
        <time>2022-07-26T09:31:13Z</time>
      </trkpt>
      <trkpt lat="44.09591" lon="7.03122">
        <ele>1561</ele>
        <time>2022-07-26T09:31:14Z</time>
      </trkpt>
      <trkpt lat="44.09592" lon="7.03123">
        <ele>1561</ele>
        <time>2022-07-26T09:31:15Z</time>
      </trkpt>
      <trkpt lat="44.09592" lon="7.03125">
        <ele>1561</ele>
        <time>2022-07-26T09:31:16Z</time>
      </trkpt>
      <trkpt lat="44.09592" lon="7.03126">
        <ele>1561</ele>
        <time>2022-07-26T09:31:17Z</time>
      </trkpt>
      <trkpt lat="44.09592" lon="7.03128">
        <ele>1560</ele>
        <time>2022-07-26T09:31:18Z</time>
      </trkpt>
      <trkpt lat="44.09592" lon="7.03129">
        <ele>1560</ele>
        <time>2022-07-26T09:31:19Z</time>
      </trkpt>
      <trkpt lat="44.09592" lon="7.03131">
        <ele>1560</ele>
        <time>2022-07-26T09:31:20Z</time>
      </trkpt>
      <trkpt lat="44.09592" lon="7.03132">
        <ele>1560</ele>
        <time>2022-07-26T09:31:21Z</time>
      </trkpt>
      <trkpt lat="44.09593" lon="7.03134">
        <ele>1560</ele>
        <time>2022-07-26T09:31:22Z</time>
      </trkpt>
      <trkpt lat="44.09593" lon="7.03136">
        <ele>1559</ele>
        <time>2022-07-26T09:31:23Z</time>
      </trkpt>
      <trkpt lat="44.09593" lon="7.03137">
        <ele>1559</ele>
        <time>2022-07-26T09:31:24Z</time>
      </trkpt>
      <trkpt lat="44.09593" lon="7.03139">
        <ele>1559</ele>
        <time>2022-07-26T09:31:25Z</time>
      </trkpt>
      <trkpt lat="44.09593" lon="7.03141">
        <ele>1559</ele>
        <time>2022-07-26T09:31:26Z</time>
      </trkpt>
      <trkpt lat="44.09594" lon="7.03142">
        <ele>1559</ele>
        <time>2022-07-26T09:31:27Z</time>
      </trkpt>
      <trkpt lat="44.09594" lon="7.03144">
        <ele>1559</ele>
        <time>2022-07-26T09:31:28Z</time>
      </trkpt>
      <trkpt lat="44.09594" lon="7.03145">
        <ele>1559</ele>
        <time>2022-07-26T09:31:29Z</time>
      </trkpt>
      <trkpt lat="44.09594" lon="7.03147">
        <ele>1559</ele>
        <time>2022-07-26T09:31:30Z</time>
      </trkpt>
      <trkpt lat="44.09594" lon="7.03148">
        <ele>1559</ele>
        <time>2022-07-26T09:31:31Z</time>
      </trkpt>
      <trkpt lat="44.09594" lon="7.03149">
        <ele>1559</ele>
        <time>2022-07-26T09:31:32Z</time>
      </trkpt>
      <trkpt lat="44.09594" lon="7.03151">
        <ele>1558</ele>
        <time>2022-07-26T09:31:33Z</time>
      </trkpt>
      <trkpt lat="44.09595" lon="7.03152">
        <ele>1558</ele>
        <time>2022-07-26T09:31:34Z</time>
      </trkpt>
      <trkpt lat="44.09595" lon="7.03154">
        <ele>1558</ele>
        <time>2022-07-26T09:31:35Z</time>
      </trkpt>
      <trkpt lat="44.09595" lon="7.03155">
        <ele>1558</ele>
        <time>2022-07-26T09:31:36Z</time>
      </trkpt>
      <trkpt lat="44.09596" lon="7.03157">
        <ele>1558</ele>
        <time>2022-07-26T09:31:37Z</time>
      </trkpt>
      <trkpt lat="44.09596" lon="7.03158">
        <ele>1557</ele>
        <time>2022-07-26T09:31:38Z</time>
      </trkpt>
      <trkpt lat="44.09597" lon="7.0316">
        <ele>1557</ele>
        <time>2022-07-26T09:31:39Z</time>
      </trkpt>
      <trkpt lat="44.09597" lon="7.03162">
        <ele>1556</ele>
        <time>2022-07-26T09:31:40Z</time>
      </trkpt>
      <trkpt lat="44.09597" lon="7.03163">
        <ele>1556</ele>
        <time>2022-07-26T09:31:41Z</time>
      </trkpt>
      <trkpt lat="44.09598" lon="7.03165">
        <ele>1556</ele>
        <time>2022-07-26T09:31:42Z</time>
      </trkpt>
      <trkpt lat="44.09598" lon="7.03166">
        <ele>1555</ele>
        <time>2022-07-26T09:31:43Z</time>
      </trkpt>
      <trkpt lat="44.09598" lon="7.03167">
        <ele>1555</ele>
        <time>2022-07-26T09:31:44Z</time>
      </trkpt>
      <trkpt lat="44.09598" lon="7.03168">
        <ele>1555</ele>
        <time>2022-07-26T09:31:45Z</time>
      </trkpt>
      <trkpt lat="44.09598" lon="7.03168">
        <ele>1555</ele>
        <time>2022-07-26T09:31:46Z</time>
      </trkpt>
      <trkpt lat="44.09597" lon="7.03168">
        <ele>1555</ele>
        <time>2022-07-26T09:31:47Z</time>
      </trkpt>
      <trkpt lat="44.09597" lon="7.03167">
        <ele>1554</ele>
        <time>2022-07-26T09:31:48Z</time>
      </trkpt>
      <trkpt lat="44.09596" lon="7.03166">
        <ele>1554</ele>
        <time>2022-07-26T09:31:49Z</time>
      </trkpt>
      <trkpt lat="44.09596" lon="7.03164">
        <ele>1554</ele>
        <time>2022-07-26T09:31:50Z</time>
      </trkpt>
      <trkpt lat="44.09595" lon="7.03163">
        <ele>1554</ele>
        <time>2022-07-26T09:31:51Z</time>
      </trkpt>
      <trkpt lat="44.09594" lon="7.03161">
        <ele>1554</ele>
        <time>2022-07-26T09:31:52Z</time>
      </trkpt>
      <trkpt lat="44.09594" lon="7.0316">
        <ele>1554</ele>
        <time>2022-07-26T09:31:53Z</time>
      </trkpt>
      <trkpt lat="44.09593" lon="7.03158">
        <ele>1554</ele>
        <time>2022-07-26T09:31:54Z</time>
      </trkpt>
      <trkpt lat="44.09592" lon="7.03157">
        <ele>1554</ele>
        <time>2022-07-26T09:31:55Z</time>
      </trkpt>
      <trkpt lat="44.09591" lon="7.03155">
        <ele>1554</ele>
        <time>2022-07-26T09:31:56Z</time>
      </trkpt>
      <trkpt lat="44.0959" lon="7.03154">
        <ele>1554</ele>
        <time>2022-07-26T09:31:57Z</time>
      </trkpt>
      <trkpt lat="44.0959" lon="7.03152">
        <ele>1553</ele>
        <time>2022-07-26T09:31:58Z</time>
      </trkpt>
      <trkpt lat="44.09589" lon="7.03151">
        <ele>1553</ele>
        <time>2022-07-26T09:31:59Z</time>
      </trkpt>
      <trkpt lat="44.09588" lon="7.03149">
        <ele>1553</ele>
        <time>2022-07-26T09:32:00Z</time>
      </trkpt>
      <trkpt lat="44.09587" lon="7.03148">
        <ele>1553</ele>
        <time>2022-07-26T09:32:01Z</time>
      </trkpt>
      <trkpt lat="44.09586" lon="7.03147">
        <ele>1553</ele>
        <time>2022-07-26T09:32:02Z</time>
      </trkpt>
      <trkpt lat="44.09585" lon="7.03146">
        <ele>1552</ele>
        <time>2022-07-26T09:32:03Z</time>
      </trkpt>
      <trkpt lat="44.09584" lon="7.03145">
        <ele>1552</ele>
        <time>2022-07-26T09:32:04Z</time>
      </trkpt>
      <trkpt lat="44.09583" lon="7.03143">
        <ele>1552</ele>
        <time>2022-07-26T09:32:05Z</time>
      </trkpt>
      <trkpt lat="44.09582" lon="7.03142">
        <ele>1552</ele>
        <time>2022-07-26T09:32:06Z</time>
      </trkpt>
      <trkpt lat="44.09581" lon="7.0314">
        <ele>1552</ele>
        <time>2022-07-26T09:32:07Z</time>
      </trkpt>
      <trkpt lat="44.0958" lon="7.03139">
        <ele>1551</ele>
        <time>2022-07-26T09:32:08Z</time>
      </trkpt>
      <trkpt lat="44.0958" lon="7.03137">
        <ele>1551</ele>
        <time>2022-07-26T09:32:09Z</time>
      </trkpt>
      <trkpt lat="44.09579" lon="7.03136">
        <ele>1551</ele>
        <time>2022-07-26T09:32:10Z</time>
      </trkpt>
      <trkpt lat="44.09579" lon="7.03134">
        <ele>1551</ele>
        <time>2022-07-26T09:32:11Z</time>
      </trkpt>
      <trkpt lat="44.09578" lon="7.03133">
        <ele>1551</ele>
        <time>2022-07-26T09:32:12Z</time>
      </trkpt>
      <trkpt lat="44.09578" lon="7.03132">
        <ele>1550</ele>
        <time>2022-07-26T09:32:13Z</time>
      </trkpt>
      <trkpt lat="44.09577" lon="7.03131">
        <ele>1550</ele>
        <time>2022-07-26T09:32:14Z</time>
      </trkpt>
      <trkpt lat="44.09576" lon="7.0313">
        <ele>1550</ele>
        <time>2022-07-26T09:32:15Z</time>
      </trkpt>
      <trkpt lat="44.09575" lon="7.0313">
        <ele>1550</ele>
        <time>2022-07-26T09:32:16Z</time>
      </trkpt>
      <trkpt lat="44.09575" lon="7.0313">
        <ele>1550</ele>
        <time>2022-07-26T09:32:17Z</time>
      </trkpt>
      <trkpt lat="44.09574" lon="7.03131">
        <ele>1549</ele>
        <time>2022-07-26T09:32:18Z</time>
      </trkpt>
      <trkpt lat="44.09574" lon="7.03132">
        <ele>1549</ele>
        <time>2022-07-26T09:32:19Z</time>
      </trkpt>
      <trkpt lat="44.09574" lon="7.03133">
        <ele>1549</ele>
        <time>2022-07-26T09:32:20Z</time>
      </trkpt>
      <trkpt lat="44.09574" lon="7.03134">
        <ele>1549</ele>
        <time>2022-07-26T09:32:21Z</time>
      </trkpt>
      <trkpt lat="44.09574" lon="7.03136">
        <ele>1549</ele>
        <time>2022-07-26T09:32:22Z</time>
      </trkpt>
      <trkpt lat="44.09575" lon="7.03137">
        <ele>1548</ele>
        <time>2022-07-26T09:32:23Z</time>
      </trkpt>
      <trkpt lat="44.09575" lon="7.03138">
        <ele>1548</ele>
        <time>2022-07-26T09:32:24Z</time>
      </trkpt>
      <trkpt lat="44.09576" lon="7.0314">
        <ele>1548</ele>
        <time>2022-07-26T09:32:25Z</time>
      </trkpt>
      <trkpt lat="44.09576" lon="7.03141">
        <ele>1548</ele>
        <time>2022-07-26T09:32:26Z</time>
      </trkpt>
      <trkpt lat="44.09576" lon="7.03142">
        <ele>1548</ele>
        <time>2022-07-26T09:32:27Z</time>
      </trkpt>
      <trkpt lat="44.09576" lon="7.03144">
        <ele>1547</ele>
        <time>2022-07-26T09:32:28Z</time>
      </trkpt>
      <trkpt lat="44.09576" lon="7.03145">
        <ele>1547</ele>
        <time>2022-07-26T09:32:29Z</time>
      </trkpt>
      <trkpt lat="44.09576" lon="7.03146">
        <ele>1547</ele>
        <time>2022-07-26T09:32:30Z</time>
      </trkpt>
      <trkpt lat="44.09575" lon="7.03148">
        <ele>1547</ele>
        <time>2022-07-26T09:32:31Z</time>
      </trkpt>
      <trkpt lat="44.09575" lon="7.03149">
        <ele>1547</ele>
        <time>2022-07-26T09:32:32Z</time>
      </trkpt>
      <trkpt lat="44.09575" lon="7.03151">
        <ele>1547</ele>
        <time>2022-07-26T09:32:33Z</time>
      </trkpt>
      <trkpt lat="44.09575" lon="7.03153">
        <ele>1547</ele>
        <time>2022-07-26T09:32:34Z</time>
      </trkpt>
      <trkpt lat="44.09575" lon="7.03155">
        <ele>1547</ele>
        <time>2022-07-26T09:32:35Z</time>
      </trkpt>
      <trkpt lat="44.09575" lon="7.03157">
        <ele>1547</ele>
        <time>2022-07-26T09:32:36Z</time>
      </trkpt>
      <trkpt lat="44.09575" lon="7.03159">
        <ele>1547</ele>
        <time>2022-07-26T09:32:37Z</time>
      </trkpt>
      <trkpt lat="44.09575" lon="7.0316">
        <ele>1546</ele>
        <time>2022-07-26T09:32:38Z</time>
      </trkpt>
      <trkpt lat="44.09575" lon="7.03162">
        <ele>1546</ele>
        <time>2022-07-26T09:32:39Z</time>
      </trkpt>
      <trkpt lat="44.09575" lon="7.03163">
        <ele>1545</ele>
        <time>2022-07-26T09:32:40Z</time>
      </trkpt>
      <trkpt lat="44.09576" lon="7.03165">
        <ele>1545</ele>
        <time>2022-07-26T09:32:41Z</time>
      </trkpt>
      <trkpt lat="44.09576" lon="7.03166">
        <ele>1545</ele>
        <time>2022-07-26T09:32:42Z</time>
      </trkpt>
      <trkpt lat="44.09576" lon="7.03167">
        <ele>1544</ele>
        <time>2022-07-26T09:32:43Z</time>
      </trkpt>
      <trkpt lat="44.09576" lon="7.03169">
        <ele>1544</ele>
        <time>2022-07-26T09:32:44Z</time>
      </trkpt>
      <trkpt lat="44.09576" lon="7.03171">
        <ele>1544</ele>
        <time>2022-07-26T09:32:45Z</time>
      </trkpt>
      <trkpt lat="44.09576" lon="7.03172">
        <ele>1544</ele>
        <time>2022-07-26T09:32:46Z</time>
      </trkpt>
      <trkpt lat="44.09575" lon="7.03174">
        <ele>1544</ele>
        <time>2022-07-26T09:32:47Z</time>
      </trkpt>
      <trkpt lat="44.09575" lon="7.03176">
        <ele>1543</ele>
        <time>2022-07-26T09:32:48Z</time>
      </trkpt>
      <trkpt lat="44.09575" lon="7.03178">
        <ele>1543</ele>
        <time>2022-07-26T09:32:49Z</time>
      </trkpt>
      <trkpt lat="44.09575" lon="7.0318">
        <ele>1543</ele>
        <time>2022-07-26T09:32:50Z</time>
      </trkpt>
      <trkpt lat="44.09575" lon="7.03182">
        <ele>1543</ele>
        <time>2022-07-26T09:32:51Z</time>
      </trkpt>
      <trkpt lat="44.09575" lon="7.03183">
        <ele>1543</ele>
        <time>2022-07-26T09:32:52Z</time>
      </trkpt>
      <trkpt lat="44.09575" lon="7.03184">
        <ele>1542</ele>
        <time>2022-07-26T09:32:53Z</time>
      </trkpt>
      <trkpt lat="44.09575" lon="7.03186">
        <ele>1542</ele>
        <time>2022-07-26T09:32:54Z</time>
      </trkpt>
      <trkpt lat="44.09575" lon="7.03187">
        <ele>1541</ele>
        <time>2022-07-26T09:32:55Z</time>
      </trkpt>
      <trkpt lat="44.09576" lon="7.03189">
        <ele>1541</ele>
        <time>2022-07-26T09:32:56Z</time>
      </trkpt>
      <trkpt lat="44.09576" lon="7.03191">
        <ele>1541</ele>
        <time>2022-07-26T09:32:57Z</time>
      </trkpt>
      <trkpt lat="44.09576" lon="7.03193">
        <ele>1540</ele>
        <time>2022-07-26T09:32:58Z</time>
      </trkpt>
      <trkpt lat="44.09576" lon="7.03195">
        <ele>1540</ele>
        <time>2022-07-26T09:32:59Z</time>
      </trkpt>
      <trkpt lat="44.09576" lon="7.03197">
        <ele>1539</ele>
        <time>2022-07-26T09:33:00Z</time>
      </trkpt>
      <trkpt lat="44.09576" lon="7.03199">
        <ele>1539</ele>
        <time>2022-07-26T09:33:01Z</time>
      </trkpt>
      <trkpt lat="44.09575" lon="7.032">
        <ele>1539</ele>
        <time>2022-07-26T09:33:02Z</time>
      </trkpt>
      <trkpt lat="44.09575" lon="7.03202">
        <ele>1538</ele>
        <time>2022-07-26T09:33:03Z</time>
      </trkpt>
      <trkpt lat="44.09575" lon="7.03203">
        <ele>1538</ele>
        <time>2022-07-26T09:33:04Z</time>
      </trkpt>
      <trkpt lat="44.09574" lon="7.03205">
        <ele>1538</ele>
        <time>2022-07-26T09:33:05Z</time>
      </trkpt>
      <trkpt lat="44.09574" lon="7.03206">
        <ele>1538</ele>
        <time>2022-07-26T09:33:06Z</time>
      </trkpt>
      <trkpt lat="44.09573" lon="7.03208">
        <ele>1538</ele>
        <time>2022-07-26T09:33:07Z</time>
      </trkpt>
      <trkpt lat="44.09572" lon="7.03208">
        <ele>1537</ele>
        <time>2022-07-26T09:33:08Z</time>
      </trkpt>
      <trkpt lat="44.09572" lon="7.03209">
        <ele>1537</ele>
        <time>2022-07-26T09:33:09Z</time>
      </trkpt>
      <trkpt lat="44.09571" lon="7.03209">
        <ele>1537</ele>
        <time>2022-07-26T09:33:10Z</time>
      </trkpt>
      <trkpt lat="44.0957" lon="7.03208">
        <ele>1537</ele>
        <time>2022-07-26T09:33:11Z</time>
      </trkpt>
      <trkpt lat="44.0957" lon="7.03207">
        <ele>1537</ele>
        <time>2022-07-26T09:33:12Z</time>
      </trkpt>
      <trkpt lat="44.09569" lon="7.03206">
        <ele>1536</ele>
        <time>2022-07-26T09:33:13Z</time>
      </trkpt>
      <trkpt lat="44.09569" lon="7.03205">
        <ele>1536</ele>
        <time>2022-07-26T09:33:14Z</time>
      </trkpt>
      <trkpt lat="44.09568" lon="7.03204">
        <ele>1536</ele>
        <time>2022-07-26T09:33:15Z</time>
      </trkpt>
      <trkpt lat="44.09568" lon="7.03203">
        <ele>1536</ele>
        <time>2022-07-26T09:33:16Z</time>
      </trkpt>
      <trkpt lat="44.09567" lon="7.03202">
        <ele>1536</ele>
        <time>2022-07-26T09:33:17Z</time>
      </trkpt>
      <trkpt lat="44.09567" lon="7.03201">
        <ele>1535</ele>
        <time>2022-07-26T09:33:18Z</time>
      </trkpt>
      <trkpt lat="44.09566" lon="7.032">
        <ele>1535</ele>
        <time>2022-07-26T09:33:19Z</time>
      </trkpt>
      <trkpt lat="44.09566" lon="7.03198">
        <ele>1535</ele>
        <time>2022-07-26T09:33:20Z</time>
      </trkpt>
      <trkpt lat="44.09565" lon="7.03197">
        <ele>1535</ele>
        <time>2022-07-26T09:33:21Z</time>
      </trkpt>
      <trkpt lat="44.09565" lon="7.03196">
        <ele>1535</ele>
        <time>2022-07-26T09:33:22Z</time>
      </trkpt>
      <trkpt lat="44.09564" lon="7.03195">
        <ele>1534</ele>
        <time>2022-07-26T09:33:23Z</time>
      </trkpt>
      <trkpt lat="44.09564" lon="7.03194">
        <ele>1534</ele>
        <time>2022-07-26T09:33:24Z</time>
      </trkpt>
      <trkpt lat="44.09564" lon="7.03193">
        <ele>1534</ele>
        <time>2022-07-26T09:33:25Z</time>
      </trkpt>
      <trkpt lat="44.09563" lon="7.03192">
        <ele>1534</ele>
        <time>2022-07-26T09:33:26Z</time>
      </trkpt>
      <trkpt lat="44.09563" lon="7.03191">
        <ele>1534</ele>
        <time>2022-07-26T09:33:27Z</time>
      </trkpt>
      <trkpt lat="44.09562" lon="7.03189">
        <ele>1533</ele>
        <time>2022-07-26T09:33:28Z</time>
      </trkpt>
      <trkpt lat="44.09562" lon="7.03187">
        <ele>1533</ele>
        <time>2022-07-26T09:33:29Z</time>
      </trkpt>
      <trkpt lat="44.09562" lon="7.03186">
        <ele>1533</ele>
        <time>2022-07-26T09:33:30Z</time>
      </trkpt>
      <trkpt lat="44.09561" lon="7.03184">
        <ele>1533</ele>
        <time>2022-07-26T09:33:31Z</time>
      </trkpt>
      <trkpt lat="44.09561" lon="7.03183">
        <ele>1533</ele>
        <time>2022-07-26T09:33:32Z</time>
      </trkpt>
      <trkpt lat="44.0956" lon="7.03182">
        <ele>1532</ele>
        <time>2022-07-26T09:33:33Z</time>
      </trkpt>
      <trkpt lat="44.0956" lon="7.03181">
        <ele>1532</ele>
        <time>2022-07-26T09:33:34Z</time>
      </trkpt>
      <trkpt lat="44.09559" lon="7.0318">
        <ele>1531</ele>
        <time>2022-07-26T09:33:35Z</time>
      </trkpt>
      <trkpt lat="44.09558" lon="7.03181">
        <ele>1531</ele>
        <time>2022-07-26T09:33:36Z</time>
      </trkpt>
      <trkpt lat="44.09557" lon="7.03181">
        <ele>1531</ele>
        <time>2022-07-26T09:33:37Z</time>
      </trkpt>
      <trkpt lat="44.09557" lon="7.03182">
        <ele>1530</ele>
        <time>2022-07-26T09:33:38Z</time>
      </trkpt>
      <trkpt lat="44.09556" lon="7.03184">
        <ele>1530</ele>
        <time>2022-07-26T09:33:39Z</time>
      </trkpt>
      <trkpt lat="44.09555" lon="7.03185">
        <ele>1530</ele>
        <time>2022-07-26T09:33:40Z</time>
      </trkpt>
      <trkpt lat="44.09555" lon="7.03187">
        <ele>1530</ele>
        <time>2022-07-26T09:33:41Z</time>
      </trkpt>
      <trkpt lat="44.09555" lon="7.03188">
        <ele>1530</ele>
        <time>2022-07-26T09:33:42Z</time>
      </trkpt>
      <trkpt lat="44.09554" lon="7.0319">
        <ele>1529</ele>
        <time>2022-07-26T09:33:43Z</time>
      </trkpt>
      <trkpt lat="44.09554" lon="7.03192">
        <ele>1529</ele>
        <time>2022-07-26T09:33:44Z</time>
      </trkpt>
      <trkpt lat="44.09553" lon="7.03193">
        <ele>1529</ele>
        <time>2022-07-26T09:33:45Z</time>
      </trkpt>
      <trkpt lat="44.09553" lon="7.03195">
        <ele>1529</ele>
        <time>2022-07-26T09:33:46Z</time>
      </trkpt>
      <trkpt lat="44.09553" lon="7.03196">
        <ele>1529</ele>
        <time>2022-07-26T09:33:47Z</time>
      </trkpt>
      <trkpt lat="44.09553" lon="7.03197">
        <ele>1528</ele>
        <time>2022-07-26T09:33:48Z</time>
      </trkpt>
      <trkpt lat="44.09552" lon="7.03198">
        <ele>1528</ele>
        <time>2022-07-26T09:33:49Z</time>
      </trkpt>
      <trkpt lat="44.09552" lon="7.03199">
        <ele>1528</ele>
        <time>2022-07-26T09:33:50Z</time>
      </trkpt>
      <trkpt lat="44.09552" lon="7.032">
        <ele>1528</ele>
        <time>2022-07-26T09:33:51Z</time>
      </trkpt>
      <trkpt lat="44.09552" lon="7.03201">
        <ele>1528</ele>
        <time>2022-07-26T09:33:52Z</time>
      </trkpt>
      <trkpt lat="44.09552" lon="7.03202">
        <ele>1527</ele>
        <time>2022-07-26T09:33:53Z</time>
      </trkpt>
      <trkpt lat="44.09552" lon="7.03204">
        <ele>1527</ele>
        <time>2022-07-26T09:33:54Z</time>
      </trkpt>
      <trkpt lat="44.09552" lon="7.03205">
        <ele>1527</ele>
        <time>2022-07-26T09:33:55Z</time>
      </trkpt>
      <trkpt lat="44.09552" lon="7.03206">
        <ele>1527</ele>
        <time>2022-07-26T09:33:56Z</time>
      </trkpt>
      <trkpt lat="44.09552" lon="7.03207">
        <ele>1527</ele>
        <time>2022-07-26T09:33:57Z</time>
      </trkpt>
      <trkpt lat="44.09552" lon="7.03208">
        <ele>1527</ele>
        <time>2022-07-26T09:33:58Z</time>
      </trkpt>
      <trkpt lat="44.09552" lon="7.0321">
        <ele>1527</ele>
        <time>2022-07-26T09:33:59Z</time>
      </trkpt>
      <trkpt lat="44.09552" lon="7.03211">
        <ele>1527</ele>
        <time>2022-07-26T09:34:00Z</time>
      </trkpt>
      <trkpt lat="44.09552" lon="7.03212">
        <ele>1527</ele>
        <time>2022-07-26T09:34:01Z</time>
      </trkpt>
      <trkpt lat="44.09551" lon="7.03214">
        <ele>1527</ele>
        <time>2022-07-26T09:34:02Z</time>
      </trkpt>
      <trkpt lat="44.09551" lon="7.03215">
        <ele>1526</ele>
        <time>2022-07-26T09:34:03Z</time>
      </trkpt>
      <trkpt lat="44.09551" lon="7.03217">
        <ele>1526</ele>
        <time>2022-07-26T09:34:04Z</time>
      </trkpt>
      <trkpt lat="44.0955" lon="7.03218">
        <ele>1526</ele>
        <time>2022-07-26T09:34:05Z</time>
      </trkpt>
      <trkpt lat="44.0955" lon="7.0322">
        <ele>1526</ele>
        <time>2022-07-26T09:34:06Z</time>
      </trkpt>
      <trkpt lat="44.0955" lon="7.03222">
        <ele>1526</ele>
        <time>2022-07-26T09:34:07Z</time>
      </trkpt>
      <trkpt lat="44.09549" lon="7.03224">
        <ele>1525</ele>
        <time>2022-07-26T09:34:08Z</time>
      </trkpt>
      <trkpt lat="44.09549" lon="7.03226">
        <ele>1525</ele>
        <time>2022-07-26T09:34:09Z</time>
      </trkpt>
      <trkpt lat="44.09548" lon="7.03228">
        <ele>1525</ele>
        <time>2022-07-26T09:34:10Z</time>
      </trkpt>
      <trkpt lat="44.09548" lon="7.0323">
        <ele>1525</ele>
        <time>2022-07-26T09:34:11Z</time>
      </trkpt>
      <trkpt lat="44.09548" lon="7.03232">
        <ele>1525</ele>
        <time>2022-07-26T09:34:12Z</time>
      </trkpt>
      <trkpt lat="44.09548" lon="7.03233">
        <ele>1524</ele>
        <time>2022-07-26T09:34:13Z</time>
      </trkpt>
      <trkpt lat="44.09548" lon="7.03235">
        <ele>1524</ele>
        <time>2022-07-26T09:34:14Z</time>
      </trkpt>
      <trkpt lat="44.09547" lon="7.03237">
        <ele>1524</ele>
        <time>2022-07-26T09:34:15Z</time>
      </trkpt>
      <trkpt lat="44.09547" lon="7.03239">
        <ele>1524</ele>
        <time>2022-07-26T09:34:16Z</time>
      </trkpt>
      <trkpt lat="44.09547" lon="7.0324">
        <ele>1524</ele>
        <time>2022-07-26T09:34:17Z</time>
      </trkpt>
      <trkpt lat="44.09547" lon="7.03241">
        <ele>1524</ele>
        <time>2022-07-26T09:34:18Z</time>
      </trkpt>
      <trkpt lat="44.09547" lon="7.03243">
        <ele>1524</ele>
        <time>2022-07-26T09:34:19Z</time>
      </trkpt>
      <trkpt lat="44.09546" lon="7.03244">
        <ele>1524</ele>
        <time>2022-07-26T09:34:20Z</time>
      </trkpt>
      <trkpt lat="44.09545" lon="7.03245">
        <ele>1524</ele>
        <time>2022-07-26T09:34:21Z</time>
      </trkpt>
      <trkpt lat="44.09545" lon="7.03246">
        <ele>1524</ele>
        <time>2022-07-26T09:34:22Z</time>
      </trkpt>
      <trkpt lat="44.09544" lon="7.03247">
        <ele>1523</ele>
        <time>2022-07-26T09:34:23Z</time>
      </trkpt>
      <trkpt lat="44.09544" lon="7.03249">
        <ele>1523</ele>
        <time>2022-07-26T09:34:24Z</time>
      </trkpt>
      <trkpt lat="44.09544" lon="7.0325">
        <ele>1522</ele>
        <time>2022-07-26T09:34:25Z</time>
      </trkpt>
      <trkpt lat="44.09543" lon="7.03252">
        <ele>1522</ele>
        <time>2022-07-26T09:34:26Z</time>
      </trkpt>
      <trkpt lat="44.09543" lon="7.03254">
        <ele>1522</ele>
        <time>2022-07-26T09:34:27Z</time>
      </trkpt>
      <trkpt lat="44.09543" lon="7.03255">
        <ele>1521</ele>
        <time>2022-07-26T09:34:28Z</time>
      </trkpt>
      <trkpt lat="44.09543" lon="7.03257">
        <ele>1521</ele>
        <time>2022-07-26T09:34:29Z</time>
      </trkpt>
      <trkpt lat="44.09543" lon="7.03259">
        <ele>1521</ele>
        <time>2022-07-26T09:34:30Z</time>
      </trkpt>
      <trkpt lat="44.09543" lon="7.0326">
        <ele>1521</ele>
        <time>2022-07-26T09:34:31Z</time>
      </trkpt>
      <trkpt lat="44.09543" lon="7.03262">
        <ele>1521</ele>
        <time>2022-07-26T09:34:32Z</time>
      </trkpt>
      <trkpt lat="44.09543" lon="7.03263">
        <ele>1520</ele>
        <time>2022-07-26T09:34:33Z</time>
      </trkpt>
      <trkpt lat="44.09543" lon="7.03265">
        <ele>1520</ele>
        <time>2022-07-26T09:34:34Z</time>
      </trkpt>
      <trkpt lat="44.09542" lon="7.03267">
        <ele>1520</ele>
        <time>2022-07-26T09:34:35Z</time>
      </trkpt>
      <trkpt lat="44.09542" lon="7.03269">
        <ele>1520</ele>
        <time>2022-07-26T09:34:36Z</time>
      </trkpt>
      <trkpt lat="44.09542" lon="7.0327">
        <ele>1520</ele>
        <time>2022-07-26T09:34:37Z</time>
      </trkpt>
      <trkpt lat="44.09541" lon="7.03272">
        <ele>1519</ele>
        <time>2022-07-26T09:34:38Z</time>
      </trkpt>
      <trkpt lat="44.09541" lon="7.03273">
        <ele>1519</ele>
        <time>2022-07-26T09:34:39Z</time>
      </trkpt>
      <trkpt lat="44.09541" lon="7.03275">
        <ele>1519</ele>
        <time>2022-07-26T09:34:40Z</time>
      </trkpt>
      <trkpt lat="44.09541" lon="7.03277">
        <ele>1519</ele>
        <time>2022-07-26T09:34:41Z</time>
      </trkpt>
      <trkpt lat="44.09541" lon="7.03278">
        <ele>1519</ele>
        <time>2022-07-26T09:34:42Z</time>
      </trkpt>
      <trkpt lat="44.09541" lon="7.0328">
        <ele>1518</ele>
        <time>2022-07-26T09:34:43Z</time>
      </trkpt>
      <trkpt lat="44.09541" lon="7.03281">
        <ele>1518</ele>
        <time>2022-07-26T09:34:44Z</time>
      </trkpt>
      <trkpt lat="44.09541" lon="7.03282">
        <ele>1518</ele>
        <time>2022-07-26T09:34:45Z</time>
      </trkpt>
      <trkpt lat="44.09542" lon="7.03284">
        <ele>1518</ele>
        <time>2022-07-26T09:34:46Z</time>
      </trkpt>
      <trkpt lat="44.09542" lon="7.03285">
        <ele>1518</ele>
        <time>2022-07-26T09:34:47Z</time>
      </trkpt>
      <trkpt lat="44.09542" lon="7.03287">
        <ele>1517</ele>
        <time>2022-07-26T09:34:48Z</time>
      </trkpt>
      <trkpt lat="44.09543" lon="7.03288">
        <ele>1517</ele>
        <time>2022-07-26T09:34:49Z</time>
      </trkpt>
      <trkpt lat="44.09543" lon="7.0329">
        <ele>1517</ele>
        <time>2022-07-26T09:34:50Z</time>
      </trkpt>
      <trkpt lat="44.09544" lon="7.03291">
        <ele>1517</ele>
        <time>2022-07-26T09:34:51Z</time>
      </trkpt>
      <trkpt lat="44.09544" lon="7.03293">
        <ele>1517</ele>
        <time>2022-07-26T09:34:52Z</time>
      </trkpt>
      <trkpt lat="44.09545" lon="7.03294">
        <ele>1516</ele>
        <time>2022-07-26T09:34:53Z</time>
      </trkpt>
      <trkpt lat="44.09545" lon="7.03295">
        <ele>1516</ele>
        <time>2022-07-26T09:34:54Z</time>
      </trkpt>
      <trkpt lat="44.09545" lon="7.03297">
        <ele>1516</ele>
        <time>2022-07-26T09:34:55Z</time>
      </trkpt>
      <trkpt lat="44.09545" lon="7.03298">
        <ele>1516</ele>
        <time>2022-07-26T09:34:56Z</time>
      </trkpt>
      <trkpt lat="44.09545" lon="7.03298">
        <ele>1516</ele>
        <time>2022-07-26T09:34:57Z</time>
      </trkpt>
      <trkpt lat="44.09544" lon="7.03299">
        <ele>1515</ele>
        <time>2022-07-26T09:34:58Z</time>
      </trkpt>
      <trkpt lat="44.09544" lon="7.03299">
        <ele>1515</ele>
        <time>2022-07-26T09:34:59Z</time>
      </trkpt>
      <trkpt lat="44.09543" lon="7.03298">
        <ele>1515</ele>
        <time>2022-07-26T09:35:00Z</time>
      </trkpt>
      <trkpt lat="44.09542" lon="7.03298">
        <ele>1515</ele>
        <time>2022-07-26T09:35:01Z</time>
      </trkpt>
      <trkpt lat="44.09542" lon="7.03298">
        <ele>1515</ele>
        <time>2022-07-26T09:35:02Z</time>
      </trkpt>
      <trkpt lat="44.09541" lon="7.03297">
        <ele>1514</ele>
        <time>2022-07-26T09:35:03Z</time>
      </trkpt>
      <trkpt lat="44.0954" lon="7.03297">
        <ele>1514</ele>
        <time>2022-07-26T09:35:04Z</time>
      </trkpt>
      <trkpt lat="44.09539" lon="7.03296">
        <ele>1514</ele>
        <time>2022-07-26T09:35:05Z</time>
      </trkpt>
      <trkpt lat="44.09538" lon="7.03296">
        <ele>1514</ele>
        <time>2022-07-26T09:35:06Z</time>
      </trkpt>
      <trkpt lat="44.09537" lon="7.03295">
        <ele>1514</ele>
        <time>2022-07-26T09:35:07Z</time>
      </trkpt>
      <trkpt lat="44.09536" lon="7.03294">
        <ele>1513</ele>
        <time>2022-07-26T09:35:08Z</time>
      </trkpt>
      <trkpt lat="44.09534" lon="7.03294">
        <ele>1513</ele>
        <time>2022-07-26T09:35:09Z</time>
      </trkpt>
      <trkpt lat="44.09533" lon="7.03293">
        <ele>1513</ele>
        <time>2022-07-26T09:35:10Z</time>
      </trkpt>
      <trkpt lat="44.09532" lon="7.03292">
        <ele>1513</ele>
        <time>2022-07-26T09:35:11Z</time>
      </trkpt>
      <trkpt lat="44.09531" lon="7.03291">
        <ele>1513</ele>
        <time>2022-07-26T09:35:12Z</time>
      </trkpt>
      <trkpt lat="44.09531" lon="7.0329">
        <ele>1512</ele>
        <time>2022-07-26T09:35:13Z</time>
      </trkpt>
      <trkpt lat="44.0953" lon="7.03289">
        <ele>1512</ele>
        <time>2022-07-26T09:35:14Z</time>
      </trkpt>
      <trkpt lat="44.09529" lon="7.03288">
        <ele>1512</ele>
        <time>2022-07-26T09:35:15Z</time>
      </trkpt>
      <trkpt lat="44.09528" lon="7.03287">
        <ele>1512</ele>
        <time>2022-07-26T09:35:16Z</time>
      </trkpt>
      <trkpt lat="44.09528" lon="7.03285">
        <ele>1512</ele>
        <time>2022-07-26T09:35:17Z</time>
      </trkpt>
      <trkpt lat="44.09527" lon="7.03285">
        <ele>1511</ele>
        <time>2022-07-26T09:35:18Z</time>
      </trkpt>
      <trkpt lat="44.09526" lon="7.03284">
        <ele>1511</ele>
        <time>2022-07-26T09:35:19Z</time>
      </trkpt>
      <trkpt lat="44.09526" lon="7.03285">
        <ele>1511</ele>
        <time>2022-07-26T09:35:20Z</time>
      </trkpt>
      <trkpt lat="44.09525" lon="7.03285">
        <ele>1511</ele>
        <time>2022-07-26T09:35:21Z</time>
      </trkpt>
      <trkpt lat="44.09525" lon="7.03287">
        <ele>1511</ele>
        <time>2022-07-26T09:35:22Z</time>
      </trkpt>
      <trkpt lat="44.09525" lon="7.03288">
        <ele>1510</ele>
        <time>2022-07-26T09:35:23Z</time>
      </trkpt>
      <trkpt lat="44.09525" lon="7.0329">
        <ele>1510</ele>
        <time>2022-07-26T09:35:24Z</time>
      </trkpt>
      <trkpt lat="44.09524" lon="7.03291">
        <ele>1509</ele>
        <time>2022-07-26T09:35:25Z</time>
      </trkpt>
      <trkpt lat="44.09524" lon="7.03293">
        <ele>1509</ele>
        <time>2022-07-26T09:35:26Z</time>
      </trkpt>
      <trkpt lat="44.09524" lon="7.03295">
        <ele>1509</ele>
        <time>2022-07-26T09:35:27Z</time>
      </trkpt>
      <trkpt lat="44.09523" lon="7.03296">
        <ele>1508</ele>
        <time>2022-07-26T09:35:28Z</time>
      </trkpt>
      <trkpt lat="44.09523" lon="7.03298">
        <ele>1508</ele>
        <time>2022-07-26T09:35:29Z</time>
      </trkpt>
      <trkpt lat="44.09523" lon="7.033">
        <ele>1508</ele>
        <time>2022-07-26T09:35:30Z</time>
      </trkpt>
      <trkpt lat="44.09523" lon="7.03302">
        <ele>1508</ele>
        <time>2022-07-26T09:35:31Z</time>
      </trkpt>
      <trkpt lat="44.09523" lon="7.03303">
        <ele>1508</ele>
        <time>2022-07-26T09:35:32Z</time>
      </trkpt>
      <trkpt lat="44.09524" lon="7.03305">
        <ele>1507</ele>
        <time>2022-07-26T09:35:33Z</time>
      </trkpt>
      <trkpt lat="44.09524" lon="7.03306">
        <ele>1507</ele>
        <time>2022-07-26T09:35:34Z</time>
      </trkpt>
      <trkpt lat="44.09525" lon="7.03308">
        <ele>1507</ele>
        <time>2022-07-26T09:35:35Z</time>
      </trkpt>
      <trkpt lat="44.09525" lon="7.03309">
        <ele>1507</ele>
        <time>2022-07-26T09:35:36Z</time>
      </trkpt>
      <trkpt lat="44.09526" lon="7.03311">
        <ele>1507</ele>
        <time>2022-07-26T09:35:37Z</time>
      </trkpt>
      <trkpt lat="44.09527" lon="7.03312">
        <ele>1506</ele>
        <time>2022-07-26T09:35:38Z</time>
      </trkpt>
      <trkpt lat="44.09527" lon="7.03313">
        <ele>1506</ele>
        <time>2022-07-26T09:35:39Z</time>
      </trkpt>
      <trkpt lat="44.09528" lon="7.03314">
        <ele>1505</ele>
        <time>2022-07-26T09:35:40Z</time>
      </trkpt>
      <trkpt lat="44.09528" lon="7.03315">
        <ele>1505</ele>
        <time>2022-07-26T09:35:41Z</time>
      </trkpt>
      <trkpt lat="44.09528" lon="7.03315">
        <ele>1505</ele>
        <time>2022-07-26T09:35:42Z</time>
      </trkpt>
      <trkpt lat="44.09529" lon="7.03317">
        <ele>1504</ele>
        <time>2022-07-26T09:35:43Z</time>
      </trkpt>
      <trkpt lat="44.09529" lon="7.03318">
        <ele>1504</ele>
        <time>2022-07-26T09:35:44Z</time>
      </trkpt>
      <trkpt lat="44.0953" lon="7.03319">
        <ele>1504</ele>
        <time>2022-07-26T09:35:45Z</time>
      </trkpt>
      <trkpt lat="44.0953" lon="7.0332">
        <ele>1504</ele>
        <time>2022-07-26T09:35:46Z</time>
      </trkpt>
      <trkpt lat="44.0953" lon="7.03321">
        <ele>1504</ele>
        <time>2022-07-26T09:35:47Z</time>
      </trkpt>
      <trkpt lat="44.0953" lon="7.03323">
        <ele>1503</ele>
        <time>2022-07-26T09:35:48Z</time>
      </trkpt>
      <trkpt lat="44.0953" lon="7.03324">
        <ele>1503</ele>
        <time>2022-07-26T09:35:49Z</time>
      </trkpt>
      <trkpt lat="44.0953" lon="7.03326">
        <ele>1502</ele>
        <time>2022-07-26T09:35:50Z</time>
      </trkpt>
      <trkpt lat="44.09531" lon="7.03327">
        <ele>1502</ele>
        <time>2022-07-26T09:35:51Z</time>
      </trkpt>
      <trkpt lat="44.09531" lon="7.03328">
        <ele>1502</ele>
        <time>2022-07-26T09:35:52Z</time>
      </trkpt>
      <trkpt lat="44.09531" lon="7.0333">
        <ele>1501</ele>
        <time>2022-07-26T09:35:53Z</time>
      </trkpt>
      <trkpt lat="44.09531" lon="7.03332">
        <ele>1501</ele>
        <time>2022-07-26T09:35:54Z</time>
      </trkpt>
      <trkpt lat="44.09531" lon="7.03333">
        <ele>1501</ele>
        <time>2022-07-26T09:35:55Z</time>
      </trkpt>
      <trkpt lat="44.09531" lon="7.03335">
        <ele>1501</ele>
        <time>2022-07-26T09:35:56Z</time>
      </trkpt>
      <trkpt lat="44.09531" lon="7.03336">
        <ele>1501</ele>
        <time>2022-07-26T09:35:57Z</time>
      </trkpt>
      <trkpt lat="44.09531" lon="7.03336">
        <ele>1500</ele>
        <time>2022-07-26T09:35:58Z</time>
      </trkpt>
      <trkpt lat="44.0953" lon="7.03336">
        <ele>1500</ele>
        <time>2022-07-26T09:35:59Z</time>
      </trkpt>
      <trkpt lat="44.09529" lon="7.03336">
        <ele>1500</ele>
        <time>2022-07-26T09:36:00Z</time>
      </trkpt>
      <trkpt lat="44.09529" lon="7.03336">
        <ele>1500</ele>
        <time>2022-07-26T09:36:01Z</time>
      </trkpt>
      <trkpt lat="44.09528" lon="7.03335">
        <ele>1500</ele>
        <time>2022-07-26T09:36:02Z</time>
      </trkpt>
      <trkpt lat="44.09527" lon="7.03335">
        <ele>1499</ele>
        <time>2022-07-26T09:36:03Z</time>
      </trkpt>
      <trkpt lat="44.09526" lon="7.03334">
        <ele>1499</ele>
        <time>2022-07-26T09:36:04Z</time>
      </trkpt>
      <trkpt lat="44.09525" lon="7.03333">
        <ele>1499</ele>
        <time>2022-07-26T09:36:05Z</time>
      </trkpt>
      <trkpt lat="44.09524" lon="7.03333">
        <ele>1499</ele>
        <time>2022-07-26T09:36:06Z</time>
      </trkpt>
      <trkpt lat="44.09524" lon="7.03332">
        <ele>1499</ele>
        <time>2022-07-26T09:36:07Z</time>
      </trkpt>
      <trkpt lat="44.09524" lon="7.03331">
        <ele>1498</ele>
        <time>2022-07-26T09:36:08Z</time>
      </trkpt>
      <trkpt lat="44.09523" lon="7.03331">
        <ele>1498</ele>
        <time>2022-07-26T09:36:09Z</time>
      </trkpt>
      <trkpt lat="44.09523" lon="7.0333">
        <ele>1498</ele>
        <time>2022-07-26T09:36:10Z</time>
      </trkpt>
      <trkpt lat="44.09522" lon="7.0333">
        <ele>1498</ele>
        <time>2022-07-26T09:36:11Z</time>
      </trkpt>
      <trkpt lat="44.09521" lon="7.03329">
        <ele>1498</ele>
        <time>2022-07-26T09:36:12Z</time>
      </trkpt>
      <trkpt lat="44.09521" lon="7.03329">
        <ele>1497</ele>
        <time>2022-07-26T09:36:13Z</time>
      </trkpt>
      <trkpt lat="44.0952" lon="7.03328">
        <ele>1497</ele>
        <time>2022-07-26T09:36:14Z</time>
      </trkpt>
      <trkpt lat="44.09519" lon="7.03328">
        <ele>1497</ele>
        <time>2022-07-26T09:36:15Z</time>
      </trkpt>
      <trkpt lat="44.09518" lon="7.03327">
        <ele>1497</ele>
        <time>2022-07-26T09:36:16Z</time>
      </trkpt>
      <trkpt lat="44.09517" lon="7.03327">
        <ele>1497</ele>
        <time>2022-07-26T09:36:17Z</time>
      </trkpt>
      <trkpt lat="44.09516" lon="7.03326">
        <ele>1496</ele>
        <time>2022-07-26T09:36:18Z</time>
      </trkpt>
      <trkpt lat="44.09515" lon="7.03326">
        <ele>1496</ele>
        <time>2022-07-26T09:36:19Z</time>
      </trkpt>
      <trkpt lat="44.09514" lon="7.03325">
        <ele>1496</ele>
        <time>2022-07-26T09:36:20Z</time>
      </trkpt>
      <trkpt lat="44.09513" lon="7.03325">
        <ele>1496</ele>
        <time>2022-07-26T09:36:21Z</time>
      </trkpt>
      <trkpt lat="44.09512" lon="7.03324">
        <ele>1496</ele>
        <time>2022-07-26T09:36:22Z</time>
      </trkpt>
      <trkpt lat="44.09511" lon="7.03324">
        <ele>1495</ele>
        <time>2022-07-26T09:36:23Z</time>
      </trkpt>
      <trkpt lat="44.0951" lon="7.03323">
        <ele>1495</ele>
        <time>2022-07-26T09:36:24Z</time>
      </trkpt>
      <trkpt lat="44.09509" lon="7.03323">
        <ele>1495</ele>
        <time>2022-07-26T09:36:25Z</time>
      </trkpt>
      <trkpt lat="44.09508" lon="7.03322">
        <ele>1495</ele>
        <time>2022-07-26T09:36:26Z</time>
      </trkpt>
      <trkpt lat="44.09507" lon="7.03322">
        <ele>1495</ele>
        <time>2022-07-26T09:36:27Z</time>
      </trkpt>
      <trkpt lat="44.09507" lon="7.03322">
        <ele>1494</ele>
        <time>2022-07-26T09:36:28Z</time>
      </trkpt>
      <trkpt lat="44.09506" lon="7.03321">
        <ele>1494</ele>
        <time>2022-07-26T09:36:29Z</time>
      </trkpt>
      <trkpt lat="44.09505" lon="7.03321">
        <ele>1494</ele>
        <time>2022-07-26T09:36:30Z</time>
      </trkpt>
      <trkpt lat="44.09504" lon="7.0332">
        <ele>1494</ele>
        <time>2022-07-26T09:36:31Z</time>
      </trkpt>
      <trkpt lat="44.09503" lon="7.03319">
        <ele>1494</ele>
        <time>2022-07-26T09:36:32Z</time>
      </trkpt>
      <trkpt lat="44.09502" lon="7.03318">
        <ele>1493</ele>
        <time>2022-07-26T09:36:33Z</time>
      </trkpt>
      <trkpt lat="44.09502" lon="7.03317">
        <ele>1493</ele>
        <time>2022-07-26T09:36:34Z</time>
      </trkpt>
      <trkpt lat="44.09501" lon="7.03316">
        <ele>1493</ele>
        <time>2022-07-26T09:36:35Z</time>
      </trkpt>
      <trkpt lat="44.095" lon="7.03315">
        <ele>1493</ele>
        <time>2022-07-26T09:36:36Z</time>
      </trkpt>
      <trkpt lat="44.09499" lon="7.03315">
        <ele>1493</ele>
        <time>2022-07-26T09:36:37Z</time>
      </trkpt>
      <trkpt lat="44.09499" lon="7.03315">
        <ele>1492</ele>
        <time>2022-07-26T09:36:38Z</time>
      </trkpt>
      <trkpt lat="44.09498" lon="7.03316">
        <ele>1492</ele>
        <time>2022-07-26T09:36:39Z</time>
      </trkpt>
      <trkpt lat="44.09498" lon="7.03316">
        <ele>1492</ele>
        <time>2022-07-26T09:36:40Z</time>
      </trkpt>
      <trkpt lat="44.09497" lon="7.03318">
        <ele>1492</ele>
        <time>2022-07-26T09:36:41Z</time>
      </trkpt>
      <trkpt lat="44.09497" lon="7.03319">
        <ele>1492</ele>
        <time>2022-07-26T09:36:42Z</time>
      </trkpt>
      <trkpt lat="44.09497" lon="7.03321">
        <ele>1491</ele>
        <time>2022-07-26T09:36:43Z</time>
      </trkpt>
      <trkpt lat="44.09497" lon="7.03323">
        <ele>1491</ele>
        <time>2022-07-26T09:36:44Z</time>
      </trkpt>
      <trkpt lat="44.09497" lon="7.03324">
        <ele>1491</ele>
        <time>2022-07-26T09:36:45Z</time>
      </trkpt>
      <trkpt lat="44.09497" lon="7.03326">
        <ele>1491</ele>
        <time>2022-07-26T09:36:46Z</time>
      </trkpt>
      <trkpt lat="44.09497" lon="7.03327">
        <ele>1491</ele>
        <time>2022-07-26T09:36:47Z</time>
      </trkpt>
      <trkpt lat="44.09497" lon="7.03328">
        <ele>1490</ele>
        <time>2022-07-26T09:36:48Z</time>
      </trkpt>
      <trkpt lat="44.09498" lon="7.0333">
        <ele>1489</ele>
        <time>2022-07-26T09:36:49Z</time>
      </trkpt>
      <trkpt lat="44.09498" lon="7.03331">
        <ele>1489</ele>
        <time>2022-07-26T09:36:50Z</time>
      </trkpt>
      <trkpt lat="44.09499" lon="7.03332">
        <ele>1488</ele>
        <time>2022-07-26T09:36:51Z</time>
      </trkpt>
      <trkpt lat="44.09499" lon="7.03334">
        <ele>1488</ele>
        <time>2022-07-26T09:36:52Z</time>
      </trkpt>
      <trkpt lat="44.095" lon="7.03335">
        <ele>1487</ele>
        <time>2022-07-26T09:36:53Z</time>
      </trkpt>
      <trkpt lat="44.095" lon="7.03336">
        <ele>1487</ele>
        <time>2022-07-26T09:36:54Z</time>
      </trkpt>
      <trkpt lat="44.095" lon="7.03337">
        <ele>1487</ele>
        <time>2022-07-26T09:36:55Z</time>
      </trkpt>
      <trkpt lat="44.095" lon="7.03339">
        <ele>1487</ele>
        <time>2022-07-26T09:36:56Z</time>
      </trkpt>
      <trkpt lat="44.09501" lon="7.0334">
        <ele>1487</ele>
        <time>2022-07-26T09:36:57Z</time>
      </trkpt>
      <trkpt lat="44.09501" lon="7.03342">
        <ele>1487</ele>
        <time>2022-07-26T09:36:58Z</time>
      </trkpt>
      <trkpt lat="44.09501" lon="7.03343">
        <ele>1487</ele>
        <time>2022-07-26T09:36:59Z</time>
      </trkpt>
      <trkpt lat="44.09502" lon="7.03345">
        <ele>1487</ele>
        <time>2022-07-26T09:37:00Z</time>
      </trkpt>
      <trkpt lat="44.09502" lon="7.03346">
        <ele>1487</ele>
        <time>2022-07-26T09:37:01Z</time>
      </trkpt>
      <trkpt lat="44.09503" lon="7.03348">
        <ele>1487</ele>
        <time>2022-07-26T09:37:02Z</time>
      </trkpt>
      <trkpt lat="44.09503" lon="7.0335">
        <ele>1486</ele>
        <time>2022-07-26T09:37:03Z</time>
      </trkpt>
      <trkpt lat="44.09503" lon="7.03351">
        <ele>1486</ele>
        <time>2022-07-26T09:37:04Z</time>
      </trkpt>
      <trkpt lat="44.09503" lon="7.03353">
        <ele>1485</ele>
        <time>2022-07-26T09:37:05Z</time>
      </trkpt>
      <trkpt lat="44.09504" lon="7.03354">
        <ele>1485</ele>
        <time>2022-07-26T09:37:06Z</time>
      </trkpt>
      <trkpt lat="44.09504" lon="7.03356">
        <ele>1485</ele>
        <time>2022-07-26T09:37:07Z</time>
      </trkpt>
      <trkpt lat="44.09505" lon="7.03357">
        <ele>1484</ele>
        <time>2022-07-26T09:37:08Z</time>
      </trkpt>
      <trkpt lat="44.09505" lon="7.03358">
        <ele>1484</ele>
        <time>2022-07-26T09:37:09Z</time>
      </trkpt>
      <trkpt lat="44.09506" lon="7.03359">
        <ele>1484</ele>
        <time>2022-07-26T09:37:10Z</time>
      </trkpt>
      <trkpt lat="44.09507" lon="7.0336">
        <ele>1484</ele>
        <time>2022-07-26T09:37:11Z</time>
      </trkpt>
      <trkpt lat="44.09508" lon="7.03361">
        <ele>1484</ele>
        <time>2022-07-26T09:37:12Z</time>
      </trkpt>
      <trkpt lat="44.09508" lon="7.03362">
        <ele>1483</ele>
        <time>2022-07-26T09:37:13Z</time>
      </trkpt>
      <trkpt lat="44.09509" lon="7.03364">
        <ele>1483</ele>
        <time>2022-07-26T09:37:14Z</time>
      </trkpt>
      <trkpt lat="44.0951" lon="7.03365">
        <ele>1483</ele>
        <time>2022-07-26T09:37:15Z</time>
      </trkpt>
      <trkpt lat="44.09511" lon="7.03366">
        <ele>1483</ele>
        <time>2022-07-26T09:37:16Z</time>
      </trkpt>
      <trkpt lat="44.09511" lon="7.03368">
        <ele>1483</ele>
        <time>2022-07-26T09:37:17Z</time>
      </trkpt>
      <trkpt lat="44.09512" lon="7.03369">
        <ele>1482</ele>
        <time>2022-07-26T09:37:18Z</time>
      </trkpt>
      <trkpt lat="44.09512" lon="7.03371">
        <ele>1482</ele>
        <time>2022-07-26T09:37:19Z</time>
      </trkpt>
      <trkpt lat="44.09513" lon="7.03373">
        <ele>1482</ele>
        <time>2022-07-26T09:37:20Z</time>
      </trkpt>
      <trkpt lat="44.09514" lon="7.03375">
        <ele>1482</ele>
        <time>2022-07-26T09:37:21Z</time>
      </trkpt>
      <trkpt lat="44.09514" lon="7.03376">
        <ele>1482</ele>
        <time>2022-07-26T09:37:22Z</time>
      </trkpt>
      <trkpt lat="44.09515" lon="7.03377">
        <ele>1481</ele>
        <time>2022-07-26T09:37:23Z</time>
      </trkpt>
      <trkpt lat="44.09515" lon="7.03379">
        <ele>1481</ele>
        <time>2022-07-26T09:37:24Z</time>
      </trkpt>
      <trkpt lat="44.09516" lon="7.0338">
        <ele>1481</ele>
        <time>2022-07-26T09:37:25Z</time>
      </trkpt>
      <trkpt lat="44.09516" lon="7.03381">
        <ele>1481</ele>
        <time>2022-07-26T09:37:26Z</time>
      </trkpt>
      <trkpt lat="44.09517" lon="7.03382">
        <ele>1481</ele>
        <time>2022-07-26T09:37:27Z</time>
      </trkpt>
      <trkpt lat="44.09517" lon="7.03382">
        <ele>1481</ele>
        <time>2022-07-26T09:37:28Z</time>
      </trkpt>
      <trkpt lat="44.09518" lon="7.03383">
        <ele>1481</ele>
        <time>2022-07-26T09:37:29Z</time>
      </trkpt>
      <trkpt lat="44.09518" lon="7.03384">
        <ele>1481</ele>
        <time>2022-07-26T09:37:30Z</time>
      </trkpt>
      <trkpt lat="44.09519" lon="7.03386">
        <ele>1481</ele>
        <time>2022-07-26T09:37:31Z</time>
      </trkpt>
      <trkpt lat="44.09519" lon="7.03387">
        <ele>1481</ele>
        <time>2022-07-26T09:37:32Z</time>
      </trkpt>
      <trkpt lat="44.09519" lon="7.03389">
        <ele>1480</ele>
        <time>2022-07-26T09:37:33Z</time>
      </trkpt>
      <trkpt lat="44.0952" lon="7.03391">
        <ele>1480</ele>
        <time>2022-07-26T09:37:34Z</time>
      </trkpt>
      <trkpt lat="44.0952" lon="7.03392">
        <ele>1480</ele>
        <time>2022-07-26T09:37:35Z</time>
      </trkpt>
      <trkpt lat="44.0952" lon="7.03394">
        <ele>1480</ele>
        <time>2022-07-26T09:37:36Z</time>
      </trkpt>
      <trkpt lat="44.09521" lon="7.03395">
        <ele>1480</ele>
        <time>2022-07-26T09:37:37Z</time>
      </trkpt>
      <trkpt lat="44.09521" lon="7.03397">
        <ele>1479</ele>
        <time>2022-07-26T09:37:38Z</time>
      </trkpt>
      <trkpt lat="44.09521" lon="7.03399">
        <ele>1479</ele>
        <time>2022-07-26T09:37:39Z</time>
      </trkpt>
      <trkpt lat="44.09522" lon="7.034">
        <ele>1479</ele>
        <time>2022-07-26T09:37:40Z</time>
      </trkpt>
      <trkpt lat="44.09522" lon="7.03402">
        <ele>1479</ele>
        <time>2022-07-26T09:37:41Z</time>
      </trkpt>
      <trkpt lat="44.09523" lon="7.03404">
        <ele>1479</ele>
        <time>2022-07-26T09:37:42Z</time>
      </trkpt>
      <trkpt lat="44.09523" lon="7.03405">
        <ele>1479</ele>
        <time>2022-07-26T09:37:43Z</time>
      </trkpt>
      <trkpt lat="44.09523" lon="7.03406">
        <ele>1479</ele>
        <time>2022-07-26T09:37:44Z</time>
      </trkpt>
      <trkpt lat="44.09524" lon="7.03408">
        <ele>1479</ele>
        <time>2022-07-26T09:37:45Z</time>
      </trkpt>
      <trkpt lat="44.09524" lon="7.03409">
        <ele>1479</ele>
        <time>2022-07-26T09:37:46Z</time>
      </trkpt>
      <trkpt lat="44.09524" lon="7.0341">
        <ele>1479</ele>
        <time>2022-07-26T09:37:47Z</time>
      </trkpt>
      <trkpt lat="44.09524" lon="7.03412">
        <ele>1478</ele>
        <time>2022-07-26T09:37:48Z</time>
      </trkpt>
      <trkpt lat="44.09524" lon="7.03414">
        <ele>1478</ele>
        <time>2022-07-26T09:37:49Z</time>
      </trkpt>
      <trkpt lat="44.09525" lon="7.03415">
        <ele>1478</ele>
        <time>2022-07-26T09:37:50Z</time>
      </trkpt>
      <trkpt lat="44.09525" lon="7.03417">
        <ele>1478</ele>
        <time>2022-07-26T09:37:51Z</time>
      </trkpt>
      <trkpt lat="44.09525" lon="7.03418">
        <ele>1478</ele>
        <time>2022-07-26T09:37:52Z</time>
      </trkpt>
      <trkpt lat="44.09525" lon="7.03419">
        <ele>1477</ele>
        <time>2022-07-26T09:37:53Z</time>
      </trkpt>
      <trkpt lat="44.09526" lon="7.03421">
        <ele>1477</ele>
        <time>2022-07-26T09:37:54Z</time>
      </trkpt>
      <trkpt lat="44.09526" lon="7.03422">
        <ele>1476</ele>
        <time>2022-07-26T09:37:55Z</time>
      </trkpt>
      <trkpt lat="44.09526" lon="7.03423">
        <ele>1476</ele>
        <time>2022-07-26T09:37:56Z</time>
      </trkpt>
      <trkpt lat="44.09526" lon="7.03424">
        <ele>1476</ele>
        <time>2022-07-26T09:37:57Z</time>
      </trkpt>
      <trkpt lat="44.09527" lon="7.03426">
        <ele>1475</ele>
        <time>2022-07-26T09:37:58Z</time>
      </trkpt>
      <trkpt lat="44.09527" lon="7.03427">
        <ele>1475</ele>
        <time>2022-07-26T09:37:59Z</time>
      </trkpt>
      <trkpt lat="44.09527" lon="7.03428">
        <ele>1475</ele>
        <time>2022-07-26T09:38:00Z</time>
      </trkpt>
      <trkpt lat="44.09527" lon="7.03429">
        <ele>1475</ele>
        <time>2022-07-26T09:38:01Z</time>
      </trkpt>
      <trkpt lat="44.09527" lon="7.0343">
        <ele>1475</ele>
        <time>2022-07-26T09:38:02Z</time>
      </trkpt>
      <trkpt lat="44.09527" lon="7.03431">
        <ele>1474</ele>
        <time>2022-07-26T09:38:03Z</time>
      </trkpt>
      <trkpt lat="44.09528" lon="7.03432">
        <ele>1474</ele>
        <time>2022-07-26T09:38:04Z</time>
      </trkpt>
      <trkpt lat="44.09528" lon="7.03433">
        <ele>1474</ele>
        <time>2022-07-26T09:38:05Z</time>
      </trkpt>
      <trkpt lat="44.09528" lon="7.03435">
        <ele>1474</ele>
        <time>2022-07-26T09:38:06Z</time>
      </trkpt>
      <trkpt lat="44.09528" lon="7.03436">
        <ele>1474</ele>
        <time>2022-07-26T09:38:07Z</time>
      </trkpt>
      <trkpt lat="44.09529" lon="7.03437">
        <ele>1474</ele>
        <time>2022-07-26T09:38:08Z</time>
      </trkpt>
      <trkpt lat="44.09529" lon="7.03438">
        <ele>1474</ele>
        <time>2022-07-26T09:38:09Z</time>
      </trkpt>
      <trkpt lat="44.09529" lon="7.03439">
        <ele>1474</ele>
        <time>2022-07-26T09:38:10Z</time>
      </trkpt>
      <trkpt lat="44.09529" lon="7.0344">
        <ele>1474</ele>
        <time>2022-07-26T09:38:11Z</time>
      </trkpt>
      <trkpt lat="44.09529" lon="7.03441">
        <ele>1474</ele>
        <time>2022-07-26T09:38:12Z</time>
      </trkpt>
      <trkpt lat="44.0953" lon="7.03442">
        <ele>1473</ele>
        <time>2022-07-26T09:38:13Z</time>
      </trkpt>
      <trkpt lat="44.0953" lon="7.03443">
        <ele>1473</ele>
        <time>2022-07-26T09:38:14Z</time>
      </trkpt>
      <trkpt lat="44.0953" lon="7.03444">
        <ele>1473</ele>
        <time>2022-07-26T09:38:15Z</time>
      </trkpt>
      <trkpt lat="44.0953" lon="7.03445">
        <ele>1473</ele>
        <time>2022-07-26T09:38:16Z</time>
      </trkpt>
      <trkpt lat="44.09531" lon="7.03446">
        <ele>1473</ele>
        <time>2022-07-26T09:38:17Z</time>
      </trkpt>
      <trkpt lat="44.09531" lon="7.03447">
        <ele>1472</ele>
        <time>2022-07-26T09:38:18Z</time>
      </trkpt>
      <trkpt lat="44.09531" lon="7.03449">
        <ele>1472</ele>
        <time>2022-07-26T09:38:19Z</time>
      </trkpt>
      <trkpt lat="44.09532" lon="7.0345">
        <ele>1472</ele>
        <time>2022-07-26T09:38:20Z</time>
      </trkpt>
      <trkpt lat="44.09532" lon="7.03451">
        <ele>1472</ele>
        <time>2022-07-26T09:38:21Z</time>
      </trkpt>
      <trkpt lat="44.09533" lon="7.03452">
        <ele>1472</ele>
        <time>2022-07-26T09:38:22Z</time>
      </trkpt>
      <trkpt lat="44.09533" lon="7.03454">
        <ele>1471</ele>
        <time>2022-07-26T09:38:23Z</time>
      </trkpt>
      <trkpt lat="44.09533" lon="7.03455">
        <ele>1471</ele>
        <time>2022-07-26T09:38:24Z</time>
      </trkpt>
      <trkpt lat="44.09533" lon="7.03456">
        <ele>1470</ele>
        <time>2022-07-26T09:38:25Z</time>
      </trkpt>
      <trkpt lat="44.09533" lon="7.03457">
        <ele>1470</ele>
        <time>2022-07-26T09:38:26Z</time>
      </trkpt>
      <trkpt lat="44.09532" lon="7.03457">
        <ele>1470</ele>
        <time>2022-07-26T09:38:27Z</time>
      </trkpt>
      <trkpt lat="44.09532" lon="7.03458">
        <ele>1469</ele>
        <time>2022-07-26T09:38:28Z</time>
      </trkpt>
      <trkpt lat="44.09531" lon="7.03459">
        <ele>1469</ele>
        <time>2022-07-26T09:38:29Z</time>
      </trkpt>
      <trkpt lat="44.09531" lon="7.03459">
        <ele>1469</ele>
        <time>2022-07-26T09:38:30Z</time>
      </trkpt>
      <trkpt lat="44.0953" lon="7.0346">
        <ele>1469</ele>
        <time>2022-07-26T09:38:31Z</time>
      </trkpt>
      <trkpt lat="44.09529" lon="7.0346">
        <ele>1469</ele>
        <time>2022-07-26T09:38:32Z</time>
      </trkpt>
      <trkpt lat="44.09529" lon="7.03461">
        <ele>1468</ele>
        <time>2022-07-26T09:38:33Z</time>
      </trkpt>
      <trkpt lat="44.09528" lon="7.03462">
        <ele>1468</ele>
        <time>2022-07-26T09:38:34Z</time>
      </trkpt>
      <trkpt lat="44.09528" lon="7.03464">
        <ele>1468</ele>
        <time>2022-07-26T09:38:35Z</time>
      </trkpt>
      <trkpt lat="44.09528" lon="7.03465">
        <ele>1468</ele>
        <time>2022-07-26T09:38:36Z</time>
      </trkpt>
      <trkpt lat="44.09528" lon="7.03467">
        <ele>1468</ele>
        <time>2022-07-26T09:38:37Z</time>
      </trkpt>
      <trkpt lat="44.09528" lon="7.03468">
        <ele>1467</ele>
        <time>2022-07-26T09:38:38Z</time>
      </trkpt>
      <trkpt lat="44.09527" lon="7.03469">
        <ele>1467</ele>
        <time>2022-07-26T09:38:39Z</time>
      </trkpt>
      <trkpt lat="44.09527" lon="7.0347">
        <ele>1467</ele>
        <time>2022-07-26T09:38:40Z</time>
      </trkpt>
      <trkpt lat="44.09527" lon="7.03471">
        <ele>1467</ele>
        <time>2022-07-26T09:38:41Z</time>
      </trkpt>
      <trkpt lat="44.09527" lon="7.03472">
        <ele>1467</ele>
        <time>2022-07-26T09:38:42Z</time>
      </trkpt>
      <trkpt lat="44.09527" lon="7.03472">
        <ele>1466</ele>
        <time>2022-07-26T09:38:43Z</time>
      </trkpt>
      <trkpt lat="44.09526" lon="7.03473">
        <ele>1466</ele>
        <time>2022-07-26T09:38:44Z</time>
      </trkpt>
      <trkpt lat="44.09526" lon="7.03474">
        <ele>1466</ele>
        <time>2022-07-26T09:38:45Z</time>
      </trkpt>
      <trkpt lat="44.09525" lon="7.03475">
        <ele>1466</ele>
        <time>2022-07-26T09:38:46Z</time>
      </trkpt>
      <trkpt lat="44.09525" lon="7.03476">
        <ele>1466</ele>
        <time>2022-07-26T09:38:47Z</time>
      </trkpt>
      <trkpt lat="44.09524" lon="7.03477">
        <ele>1465</ele>
        <time>2022-07-26T09:38:48Z</time>
      </trkpt>
      <trkpt lat="44.09524" lon="7.03479">
        <ele>1465</ele>
        <time>2022-07-26T09:38:49Z</time>
      </trkpt>
      <trkpt lat="44.09524" lon="7.0348">
        <ele>1464</ele>
        <time>2022-07-26T09:38:50Z</time>
      </trkpt>
      <trkpt lat="44.09524" lon="7.03482">
        <ele>1464</ele>
        <time>2022-07-26T09:38:51Z</time>
      </trkpt>
      <trkpt lat="44.09524" lon="7.03484">
        <ele>1464</ele>
        <time>2022-07-26T09:38:52Z</time>
      </trkpt>
      <trkpt lat="44.09524" lon="7.03486">
        <ele>1463</ele>
        <time>2022-07-26T09:38:53Z</time>
      </trkpt>
      <trkpt lat="44.09524" lon="7.03487">
        <ele>1463</ele>
        <time>2022-07-26T09:38:54Z</time>
      </trkpt>
      <trkpt lat="44.09524" lon="7.03489">
        <ele>1463</ele>
        <time>2022-07-26T09:38:55Z</time>
      </trkpt>
      <trkpt lat="44.09524" lon="7.0349">
        <ele>1463</ele>
        <time>2022-07-26T09:38:56Z</time>
      </trkpt>
      <trkpt lat="44.09525" lon="7.03491">
        <ele>1463</ele>
        <time>2022-07-26T09:38:57Z</time>
      </trkpt>
      <trkpt lat="44.09525" lon="7.03493">
        <ele>1462</ele>
        <time>2022-07-26T09:38:58Z</time>
      </trkpt>
      <trkpt lat="44.09525" lon="7.03494">
        <ele>1462</ele>
        <time>2022-07-26T09:38:59Z</time>
      </trkpt>
      <trkpt lat="44.09525" lon="7.03495">
        <ele>1462</ele>
        <time>2022-07-26T09:39:00Z</time>
      </trkpt>
      <trkpt lat="44.09526" lon="7.03496">
        <ele>1462</ele>
        <time>2022-07-26T09:39:01Z</time>
      </trkpt>
      <trkpt lat="44.09526" lon="7.03498">
        <ele>1462</ele>
        <time>2022-07-26T09:39:02Z</time>
      </trkpt>
      <trkpt lat="44.09527" lon="7.03499">
        <ele>1461</ele>
        <time>2022-07-26T09:39:03Z</time>
      </trkpt>
      <trkpt lat="44.09527" lon="7.035">
        <ele>1461</ele>
        <time>2022-07-26T09:39:04Z</time>
      </trkpt>
      <trkpt lat="44.09528" lon="7.03501">
        <ele>1461</ele>
        <time>2022-07-26T09:39:05Z</time>
      </trkpt>
      <trkpt lat="44.09529" lon="7.03502">
        <ele>1461</ele>
        <time>2022-07-26T09:39:06Z</time>
      </trkpt>
      <trkpt lat="44.09529" lon="7.03503">
        <ele>1461</ele>
        <time>2022-07-26T09:39:07Z</time>
      </trkpt>
      <trkpt lat="44.09529" lon="7.03504">
        <ele>1460</ele>
        <time>2022-07-26T09:39:08Z</time>
      </trkpt>
      <trkpt lat="44.0953" lon="7.03506">
        <ele>1460</ele>
        <time>2022-07-26T09:39:09Z</time>
      </trkpt>
      <trkpt lat="44.0953" lon="7.03507">
        <ele>1459</ele>
        <time>2022-07-26T09:39:10Z</time>
      </trkpt>
      <trkpt lat="44.09531" lon="7.03508">
        <ele>1459</ele>
        <time>2022-07-26T09:39:11Z</time>
      </trkpt>
      <trkpt lat="44.09531" lon="7.03509">
        <ele>1459</ele>
        <time>2022-07-26T09:39:12Z</time>
      </trkpt>
      <trkpt lat="44.09531" lon="7.0351">
        <ele>1458</ele>
        <time>2022-07-26T09:39:13Z</time>
      </trkpt>
      <trkpt lat="44.09532" lon="7.03511">
        <ele>1458</ele>
        <time>2022-07-26T09:39:14Z</time>
      </trkpt>
      <trkpt lat="44.09532" lon="7.03512">
        <ele>1458</ele>
        <time>2022-07-26T09:39:15Z</time>
      </trkpt>
      <trkpt lat="44.09532" lon="7.03513">
        <ele>1458</ele>
        <time>2022-07-26T09:39:16Z</time>
      </trkpt>
      <trkpt lat="44.09532" lon="7.03514">
        <ele>1458</ele>
        <time>2022-07-26T09:39:17Z</time>
      </trkpt>
      <trkpt lat="44.09532" lon="7.03516">
        <ele>1457</ele>
        <time>2022-07-26T09:39:18Z</time>
      </trkpt>
      <trkpt lat="44.09532" lon="7.03517">
        <ele>1457</ele>
        <time>2022-07-26T09:39:19Z</time>
      </trkpt>
      <trkpt lat="44.09533" lon="7.03518">
        <ele>1456</ele>
        <time>2022-07-26T09:39:20Z</time>
      </trkpt>
      <trkpt lat="44.09533" lon="7.0352">
        <ele>1456</ele>
        <time>2022-07-26T09:39:21Z</time>
      </trkpt>
      <trkpt lat="44.09533" lon="7.03521">
        <ele>1456</ele>
        <time>2022-07-26T09:39:22Z</time>
      </trkpt>
      <trkpt lat="44.09533" lon="7.03522">
        <ele>1455</ele>
        <time>2022-07-26T09:39:23Z</time>
      </trkpt>
      <trkpt lat="44.09533" lon="7.03524">
        <ele>1455</ele>
        <time>2022-07-26T09:39:24Z</time>
      </trkpt>
      <trkpt lat="44.09533" lon="7.03525">
        <ele>1455</ele>
        <time>2022-07-26T09:39:25Z</time>
      </trkpt>
      <trkpt lat="44.09533" lon="7.03527">
        <ele>1455</ele>
        <time>2022-07-26T09:39:26Z</time>
      </trkpt>
      <trkpt lat="44.09533" lon="7.03528">
        <ele>1455</ele>
        <time>2022-07-26T09:39:27Z</time>
      </trkpt>
      <trkpt lat="44.09533" lon="7.0353">
        <ele>1454</ele>
        <time>2022-07-26T09:39:28Z</time>
      </trkpt>
      <trkpt lat="44.09533" lon="7.03531">
        <ele>1453</ele>
        <time>2022-07-26T09:39:29Z</time>
      </trkpt>
      <trkpt lat="44.09533" lon="7.03533">
        <ele>1453</ele>
        <time>2022-07-26T09:39:30Z</time>
      </trkpt>
      <trkpt lat="44.09533" lon="7.03534">
        <ele>1452</ele>
        <time>2022-07-26T09:39:31Z</time>
      </trkpt>
      <trkpt lat="44.09533" lon="7.03535">
        <ele>1452</ele>
        <time>2022-07-26T09:39:32Z</time>
      </trkpt>
      <trkpt lat="44.09532" lon="7.03537">
        <ele>1451</ele>
        <time>2022-07-26T09:39:33Z</time>
      </trkpt>
      <trkpt lat="44.09532" lon="7.03538">
        <ele>1451</ele>
        <time>2022-07-26T09:39:34Z</time>
      </trkpt>
      <trkpt lat="44.09532" lon="7.03539">
        <ele>1451</ele>
        <time>2022-07-26T09:39:35Z</time>
      </trkpt>
      <trkpt lat="44.09532" lon="7.0354">
        <ele>1451</ele>
        <time>2022-07-26T09:39:36Z</time>
      </trkpt>
      <trkpt lat="44.09532" lon="7.03542">
        <ele>1451</ele>
        <time>2022-07-26T09:39:37Z</time>
      </trkpt>
      <trkpt lat="44.09533" lon="7.03543">
        <ele>1450</ele>
        <time>2022-07-26T09:39:38Z</time>
      </trkpt>
      <trkpt lat="44.09533" lon="7.03545">
        <ele>1450</ele>
        <time>2022-07-26T09:39:39Z</time>
      </trkpt>
      <trkpt lat="44.09533" lon="7.03547">
        <ele>1450</ele>
        <time>2022-07-26T09:39:40Z</time>
      </trkpt>
      <trkpt lat="44.09534" lon="7.03548">
        <ele>1450</ele>
        <time>2022-07-26T09:39:41Z</time>
      </trkpt>
      <trkpt lat="44.09534" lon="7.03549">
        <ele>1450</ele>
        <time>2022-07-26T09:39:42Z</time>
      </trkpt>
      <trkpt lat="44.09535" lon="7.0355">
        <ele>1449</ele>
        <time>2022-07-26T09:39:43Z</time>
      </trkpt>
      <trkpt lat="44.09536" lon="7.03552">
        <ele>1449</ele>
        <time>2022-07-26T09:39:44Z</time>
      </trkpt>
      <trkpt lat="44.09536" lon="7.03553">
        <ele>1449</ele>
        <time>2022-07-26T09:39:45Z</time>
      </trkpt>
      <trkpt lat="44.09537" lon="7.03554">
        <ele>1449</ele>
        <time>2022-07-26T09:39:46Z</time>
      </trkpt>
      <trkpt lat="44.09538" lon="7.03555">
        <ele>1449</ele>
        <time>2022-07-26T09:39:47Z</time>
      </trkpt>
      <trkpt lat="44.09539" lon="7.03556">
        <ele>1448</ele>
        <time>2022-07-26T09:39:48Z</time>
      </trkpt>
      <trkpt lat="44.0954" lon="7.03556">
        <ele>1448</ele>
        <time>2022-07-26T09:39:49Z</time>
      </trkpt>
      <trkpt lat="44.0954" lon="7.03557">
        <ele>1448</ele>
        <time>2022-07-26T09:39:50Z</time>
      </trkpt>
      <trkpt lat="44.09541" lon="7.03558">
        <ele>1448</ele>
        <time>2022-07-26T09:39:51Z</time>
      </trkpt>
      <trkpt lat="44.09541" lon="7.03559">
        <ele>1448</ele>
        <time>2022-07-26T09:39:52Z</time>
      </trkpt>
      <trkpt lat="44.09542" lon="7.03559">
        <ele>1447</ele>
        <time>2022-07-26T09:39:53Z</time>
      </trkpt>
      <trkpt lat="44.09542" lon="7.0356">
        <ele>1447</ele>
        <time>2022-07-26T09:39:54Z</time>
      </trkpt>
      <trkpt lat="44.09543" lon="7.03561">
        <ele>1445</ele>
        <time>2022-07-26T09:40:23Z</time>
      </trkpt>
      <trkpt lat="44.09543" lon="7.03561">
        <ele>1445</ele>
        <time>2022-07-26T09:40:24Z</time>
      </trkpt>
      <trkpt lat="44.09543" lon="7.03562">
        <ele>1445</ele>
        <time>2022-07-26T09:40:25Z</time>
      </trkpt>
      <trkpt lat="44.09542" lon="7.03562">
        <ele>1445</ele>
        <time>2022-07-26T09:40:26Z</time>
      </trkpt>
      <trkpt lat="44.09542" lon="7.03563">
        <ele>1445</ele>
        <time>2022-07-26T09:40:27Z</time>
      </trkpt>
      <trkpt lat="44.09541" lon="7.03563">
        <ele>1445</ele>
        <time>2022-07-26T09:40:28Z</time>
      </trkpt>
      <trkpt lat="44.0954" lon="7.03564">
        <ele>1445</ele>
        <time>2022-07-26T09:40:29Z</time>
      </trkpt>
      <trkpt lat="44.09539" lon="7.03564">
        <ele>1445</ele>
        <time>2022-07-26T09:40:30Z</time>
      </trkpt>
      <trkpt lat="44.09539" lon="7.03565">
        <ele>1445</ele>
        <time>2022-07-26T09:40:31Z</time>
      </trkpt>
      <trkpt lat="44.09538" lon="7.03566">
        <ele>1445</ele>
        <time>2022-07-26T09:40:32Z</time>
      </trkpt>
      <trkpt lat="44.09536" lon="7.03566">
        <ele>1444</ele>
        <time>2022-07-26T09:42:02Z</time>
      </trkpt>
      <trkpt lat="44.09535" lon="7.03566">
        <ele>1444</ele>
        <time>2022-07-26T09:42:03Z</time>
      </trkpt>
      <trkpt lat="44.09534" lon="7.03566">
        <ele>1444</ele>
        <time>2022-07-26T09:42:04Z</time>
      </trkpt>
      <trkpt lat="44.09533" lon="7.03566">
        <ele>1444</ele>
        <time>2022-07-26T09:42:05Z</time>
      </trkpt>
      <trkpt lat="44.09533" lon="7.03566">
        <ele>1444</ele>
        <time>2022-07-26T09:42:06Z</time>
      </trkpt>
      <trkpt lat="44.09532" lon="7.03566">
        <ele>1444</ele>
        <time>2022-07-26T09:42:07Z</time>
      </trkpt>
      <trkpt lat="44.09531" lon="7.03567">
        <ele>1443</ele>
        <time>2022-07-26T09:42:08Z</time>
      </trkpt>
      <trkpt lat="44.09531" lon="7.03567">
        <ele>1443</ele>
        <time>2022-07-26T09:42:09Z</time>
      </trkpt>
      <trkpt lat="44.0953" lon="7.03567">
        <ele>1443</ele>
        <time>2022-07-26T09:42:10Z</time>
      </trkpt>
      <trkpt lat="44.09529" lon="7.03568">
        <ele>1443</ele>
        <time>2022-07-26T09:42:11Z</time>
      </trkpt>
      <trkpt lat="44.09529" lon="7.03568">
        <ele>1443</ele>
        <time>2022-07-26T09:42:12Z</time>
      </trkpt>
      <trkpt lat="44.09528" lon="7.03568">
        <ele>1443</ele>
        <time>2022-07-26T09:42:13Z</time>
      </trkpt>
      <trkpt lat="44.09528" lon="7.03569">
        <ele>1443</ele>
        <time>2022-07-26T09:42:14Z</time>
      </trkpt>
      <trkpt lat="44.09527" lon="7.03569">
        <ele>1443</ele>
        <time>2022-07-26T09:42:15Z</time>
      </trkpt>
      <trkpt lat="44.09527" lon="7.0357">
        <ele>1443</ele>
        <time>2022-07-26T09:42:16Z</time>
      </trkpt>
      <trkpt lat="44.09526" lon="7.0357">
        <ele>1443</ele>
        <time>2022-07-26T09:42:17Z</time>
      </trkpt>
      <trkpt lat="44.09525" lon="7.03571">
        <ele>1442</ele>
        <time>2022-07-26T09:42:32Z</time>
      </trkpt>
      <trkpt lat="44.09526" lon="7.03571">
        <ele>1442</ele>
        <time>2022-07-26T09:42:33Z</time>
      </trkpt>
      <trkpt lat="44.09526" lon="7.0357">
        <ele>1442</ele>
        <time>2022-07-26T09:42:34Z</time>
      </trkpt>
      <trkpt lat="44.09526" lon="7.0357">
        <ele>1442</ele>
        <time>2022-07-26T09:42:35Z</time>
      </trkpt>
      <trkpt lat="44.09526" lon="7.0357">
        <ele>1442</ele>
        <time>2022-07-26T09:42:36Z</time>
      </trkpt>
      <trkpt lat="44.09527" lon="7.03569">
        <ele>1442</ele>
        <time>2022-07-26T09:42:37Z</time>
      </trkpt>
      <trkpt lat="44.09528" lon="7.03569">
        <ele>1442</ele>
        <time>2022-07-26T09:42:38Z</time>
      </trkpt>
      <trkpt lat="44.09528" lon="7.03568">
        <ele>1442</ele>
        <time>2022-07-26T09:42:39Z</time>
      </trkpt>
      <trkpt lat="44.09529" lon="7.03567">
        <ele>1442</ele>
        <time>2022-07-26T09:42:40Z</time>
      </trkpt>
      <trkpt lat="44.09529" lon="7.03567">
        <ele>1442</ele>
        <time>2022-07-26T09:42:41Z</time>
      </trkpt>
      <trkpt lat="44.0953" lon="7.03566">
        <ele>1442</ele>
        <time>2022-07-26T09:42:42Z</time>
      </trkpt>
      <trkpt lat="44.09529" lon="7.03565">
        <ele>1442</ele>
        <time>2022-07-26T09:43:21Z</time>
      </trkpt>
      <trkpt lat="44.09528" lon="7.03564">
        <ele>1442</ele>
        <time>2022-07-26T09:43:22Z</time>
      </trkpt>
      <trkpt lat="44.09527" lon="7.03563">
        <ele>1442</ele>
        <time>2022-07-26T09:43:23Z</time>
      </trkpt>
      <trkpt lat="44.09527" lon="7.03563">
        <ele>1442</ele>
        <time>2022-07-26T09:43:24Z</time>
      </trkpt>
      <trkpt lat="44.09526" lon="7.03563">
        <ele>1442</ele>
        <time>2022-07-26T09:43:25Z</time>
      </trkpt>
      <trkpt lat="44.09525" lon="7.03564">
        <ele>1442</ele>
        <time>2022-07-26T09:43:26Z</time>
      </trkpt>
      <trkpt lat="44.09525" lon="7.03564">
        <ele>1443</ele>
        <time>2022-07-26T09:43:27Z</time>
      </trkpt>
      <trkpt lat="44.09525" lon="7.03565">
        <ele>1442</ele>
        <time>2022-07-26T09:43:40Z</time>
      </trkpt>
      <trkpt lat="44.09524" lon="7.03566">
        <ele>1442</ele>
        <time>2022-07-26T09:43:41Z</time>
      </trkpt>
      <trkpt lat="44.09524" lon="7.03567">
        <ele>1442</ele>
        <time>2022-07-26T09:43:42Z</time>
      </trkpt>
      <trkpt lat="44.09524" lon="7.03568">
        <ele>1441</ele>
        <time>2022-07-26T09:43:43Z</time>
      </trkpt>
      <trkpt lat="44.09524" lon="7.03569">
        <ele>1441</ele>
        <time>2022-07-26T09:43:44Z</time>
      </trkpt>
      <trkpt lat="44.09523" lon="7.0357">
        <ele>1441</ele>
        <time>2022-07-26T09:43:45Z</time>
      </trkpt>
      <trkpt lat="44.09523" lon="7.0357">
        <ele>1441</ele>
        <time>2022-07-26T09:43:46Z</time>
      </trkpt>
      <trkpt lat="44.09523" lon="7.03571">
        <ele>1441</ele>
        <time>2022-07-26T09:43:47Z</time>
      </trkpt>
      <trkpt lat="44.09523" lon="7.03572">
        <ele>1441</ele>
        <time>2022-07-26T09:43:48Z</time>
      </trkpt>
      <trkpt lat="44.09522" lon="7.03573">
        <ele>1441</ele>
        <time>2022-07-26T09:43:49Z</time>
      </trkpt>
      <trkpt lat="44.09522" lon="7.03573">
        <ele>1441</ele>
        <time>2022-07-26T09:43:50Z</time>
      </trkpt>
      <trkpt lat="44.09521" lon="7.03574">
        <ele>1441</ele>
        <time>2022-07-26T09:43:51Z</time>
      </trkpt>
      <trkpt lat="44.09521" lon="7.03574">
        <ele>1441</ele>
        <time>2022-07-26T09:43:52Z</time>
      </trkpt>
      <trkpt lat="44.09519" lon="7.03575">
        <ele>1440</ele>
        <time>2022-07-26T09:44:11Z</time>
      </trkpt>
      <trkpt lat="44.09519" lon="7.03575">
        <ele>1440</ele>
        <time>2022-07-26T09:44:12Z</time>
      </trkpt>
      <trkpt lat="44.09518" lon="7.03576">
        <ele>1440</ele>
        <time>2022-07-26T09:44:13Z</time>
      </trkpt>
      <trkpt lat="44.09518" lon="7.03577">
        <ele>1440</ele>
        <time>2022-07-26T09:44:14Z</time>
      </trkpt>
      <trkpt lat="44.09518" lon="7.03577">
        <ele>1440</ele>
        <time>2022-07-26T09:44:15Z</time>
      </trkpt>
      <trkpt lat="44.09517" lon="7.03578">
        <ele>1440</ele>
        <time>2022-07-26T09:44:16Z</time>
      </trkpt>
      <trkpt lat="44.09517" lon="7.03579">
        <ele>1440</ele>
        <time>2022-07-26T09:44:17Z</time>
      </trkpt>
      <trkpt lat="44.09516" lon="7.0358">
        <ele>1439</ele>
        <time>2022-07-26T09:44:18Z</time>
      </trkpt>
      <trkpt lat="44.09516" lon="7.03581">
        <ele>1439</ele>
        <time>2022-07-26T09:44:19Z</time>
      </trkpt>
      <trkpt lat="44.09515" lon="7.03582">
        <ele>1439</ele>
        <time>2022-07-26T09:44:20Z</time>
      </trkpt>
      <trkpt lat="44.09515" lon="7.03583">
        <ele>1439</ele>
        <time>2022-07-26T09:44:21Z</time>
      </trkpt>
      <trkpt lat="44.09514" lon="7.03584">
        <ele>1439</ele>
        <time>2022-07-26T09:44:22Z</time>
      </trkpt>
      <trkpt lat="44.09514" lon="7.03585">
        <ele>1439</ele>
        <time>2022-07-26T09:44:23Z</time>
      </trkpt>
      <trkpt lat="44.09513" lon="7.03586">
        <ele>1439</ele>
        <time>2022-07-26T09:44:24Z</time>
      </trkpt>
      <trkpt lat="44.09513" lon="7.03587">
        <ele>1439</ele>
        <time>2022-07-26T09:44:25Z</time>
      </trkpt>
      <trkpt lat="44.09512" lon="7.03588">
        <ele>1439</ele>
        <time>2022-07-26T09:44:26Z</time>
      </trkpt>
      <trkpt lat="44.09512" lon="7.03589">
        <ele>1439</ele>
        <time>2022-07-26T09:44:27Z</time>
      </trkpt>
      <trkpt lat="44.09511" lon="7.03589">
        <ele>1438</ele>
        <time>2022-07-26T09:44:28Z</time>
      </trkpt>
      <trkpt lat="44.09511" lon="7.0359">
        <ele>1438</ele>
        <time>2022-07-26T09:44:29Z</time>
      </trkpt>
      <trkpt lat="44.0951" lon="7.0359">
        <ele>1438</ele>
        <time>2022-07-26T09:44:30Z</time>
      </trkpt>
      <trkpt lat="44.09509" lon="7.03591">
        <ele>1438</ele>
        <time>2022-07-26T09:44:31Z</time>
      </trkpt>
      <trkpt lat="44.09509" lon="7.03592">
        <ele>1438</ele>
        <time>2022-07-26T09:44:32Z</time>
      </trkpt>
      <trkpt lat="44.09509" lon="7.03593">
        <ele>1438</ele>
        <time>2022-07-26T09:44:33Z</time>
      </trkpt>
      <trkpt lat="44.09509" lon="7.03594">
        <ele>1438</ele>
        <time>2022-07-26T09:44:34Z</time>
      </trkpt>
      <trkpt lat="44.09509" lon="7.03595">
        <ele>1438</ele>
        <time>2022-07-26T09:44:35Z</time>
      </trkpt>
      <trkpt lat="44.09509" lon="7.03596">
        <ele>1438</ele>
        <time>2022-07-26T09:44:36Z</time>
      </trkpt>
      <trkpt lat="44.09509" lon="7.03598">
        <ele>1438</ele>
        <time>2022-07-26T09:44:37Z</time>
      </trkpt>
      <trkpt lat="44.09509" lon="7.03599">
        <ele>1437</ele>
        <time>2022-07-26T09:44:38Z</time>
      </trkpt>
      <trkpt lat="44.09509" lon="7.036">
        <ele>1437</ele>
        <time>2022-07-26T09:44:39Z</time>
      </trkpt>
      <trkpt lat="44.09509" lon="7.03601">
        <ele>1436</ele>
        <time>2022-07-26T09:44:40Z</time>
      </trkpt>
      <trkpt lat="44.09509" lon="7.03601">
        <ele>1436</ele>
        <time>2022-07-26T09:44:41Z</time>
      </trkpt>
      <trkpt lat="44.09509" lon="7.03602">
        <ele>1436</ele>
        <time>2022-07-26T09:44:42Z</time>
      </trkpt>
      <trkpt lat="44.09509" lon="7.03603">
        <ele>1435</ele>
        <time>2022-07-26T09:44:43Z</time>
      </trkpt>
      <trkpt lat="44.09509" lon="7.03604">
        <ele>1435</ele>
        <time>2022-07-26T09:44:44Z</time>
      </trkpt>
      <trkpt lat="44.09508" lon="7.03604">
        <ele>1435</ele>
        <time>2022-07-26T09:44:45Z</time>
      </trkpt>
      <trkpt lat="44.09508" lon="7.03605">
        <ele>1435</ele>
        <time>2022-07-26T09:44:46Z</time>
      </trkpt>
      <trkpt lat="44.09507" lon="7.03606">
        <ele>1435</ele>
        <time>2022-07-26T09:44:47Z</time>
      </trkpt>
      <trkpt lat="44.09507" lon="7.03606">
        <ele>1434</ele>
        <time>2022-07-26T09:44:48Z</time>
      </trkpt>
      <trkpt lat="44.09506" lon="7.03607">
        <ele>1434</ele>
        <time>2022-07-26T09:44:49Z</time>
      </trkpt>
      <trkpt lat="44.09506" lon="7.03607">
        <ele>1434</ele>
        <time>2022-07-26T09:44:50Z</time>
      </trkpt>
      <trkpt lat="44.09505" lon="7.03607">
        <ele>1434</ele>
        <time>2022-07-26T09:44:51Z</time>
      </trkpt>
      <trkpt lat="44.09504" lon="7.03608">
        <ele>1434</ele>
        <time>2022-07-26T09:44:52Z</time>
      </trkpt>
      <trkpt lat="44.09503" lon="7.03608">
        <ele>1433</ele>
        <time>2022-07-26T09:44:53Z</time>
      </trkpt>
      <trkpt lat="44.09502" lon="7.03608">
        <ele>1433</ele>
        <time>2022-07-26T09:44:54Z</time>
      </trkpt>
      <trkpt lat="44.09501" lon="7.03608">
        <ele>1433</ele>
        <time>2022-07-26T09:44:55Z</time>
      </trkpt>
      <trkpt lat="44.095" lon="7.03608">
        <ele>1433</ele>
        <time>2022-07-26T09:44:56Z</time>
      </trkpt>
      <trkpt lat="44.09499" lon="7.03608">
        <ele>1433</ele>
        <time>2022-07-26T09:44:57Z</time>
      </trkpt>
      <trkpt lat="44.09498" lon="7.03608">
        <ele>1432</ele>
        <time>2022-07-26T09:44:58Z</time>
      </trkpt>
      <trkpt lat="44.09497" lon="7.03608">
        <ele>1432</ele>
        <time>2022-07-26T09:44:59Z</time>
      </trkpt>
      <trkpt lat="44.09497" lon="7.03607">
        <ele>1432</ele>
        <time>2022-07-26T09:45:00Z</time>
      </trkpt>
      <trkpt lat="44.09496" lon="7.03607">
        <ele>1432</ele>
        <time>2022-07-26T09:45:01Z</time>
      </trkpt>
      <trkpt lat="44.09495" lon="7.03607">
        <ele>1432</ele>
        <time>2022-07-26T09:45:02Z</time>
      </trkpt>
      <trkpt lat="44.09495" lon="7.03607">
        <ele>1431</ele>
        <time>2022-07-26T09:45:03Z</time>
      </trkpt>
      <trkpt lat="44.09494" lon="7.03607">
        <ele>1431</ele>
        <time>2022-07-26T09:45:04Z</time>
      </trkpt>
      <trkpt lat="44.09494" lon="7.03608">
        <ele>1431</ele>
        <time>2022-07-26T09:45:05Z</time>
      </trkpt>
      <trkpt lat="44.09494" lon="7.03609">
        <ele>1431</ele>
        <time>2022-07-26T09:45:06Z</time>
      </trkpt>
      <trkpt lat="44.09494" lon="7.0361">
        <ele>1431</ele>
        <time>2022-07-26T09:45:07Z</time>
      </trkpt>
      <trkpt lat="44.09493" lon="7.03612">
        <ele>1430</ele>
        <time>2022-07-26T09:45:08Z</time>
      </trkpt>
      <trkpt lat="44.09493" lon="7.03613">
        <ele>1430</ele>
        <time>2022-07-26T09:45:09Z</time>
      </trkpt>
      <trkpt lat="44.09493" lon="7.03615">
        <ele>1430</ele>
        <time>2022-07-26T09:45:10Z</time>
      </trkpt>
      <trkpt lat="44.09494" lon="7.03617">
        <ele>1430</ele>
        <time>2022-07-26T09:45:11Z</time>
      </trkpt>
      <trkpt lat="44.09494" lon="7.03618">
        <ele>1430</ele>
        <time>2022-07-26T09:45:12Z</time>
      </trkpt>
      <trkpt lat="44.09494" lon="7.03619">
        <ele>1429</ele>
        <time>2022-07-26T09:45:13Z</time>
      </trkpt>
      <trkpt lat="44.09495" lon="7.03621">
        <ele>1429</ele>
        <time>2022-07-26T09:45:14Z</time>
      </trkpt>
      <trkpt lat="44.09495" lon="7.03622">
        <ele>1429</ele>
        <time>2022-07-26T09:45:15Z</time>
      </trkpt>
      <trkpt lat="44.09496" lon="7.03623">
        <ele>1429</ele>
        <time>2022-07-26T09:45:16Z</time>
      </trkpt>
      <trkpt lat="44.09496" lon="7.03624">
        <ele>1429</ele>
        <time>2022-07-26T09:45:17Z</time>
      </trkpt>
      <trkpt lat="44.09496" lon="7.03625">
        <ele>1428</ele>
        <time>2022-07-26T09:45:18Z</time>
      </trkpt>
      <trkpt lat="44.09495" lon="7.03626">
        <ele>1428</ele>
        <time>2022-07-26T09:45:19Z</time>
      </trkpt>
      <trkpt lat="44.09495" lon="7.03627">
        <ele>1428</ele>
        <time>2022-07-26T09:45:20Z</time>
      </trkpt>
      <trkpt lat="44.09494" lon="7.03627">
        <ele>1428</ele>
        <time>2022-07-26T09:45:21Z</time>
      </trkpt>
      <trkpt lat="44.09493" lon="7.03628">
        <ele>1428</ele>
        <time>2022-07-26T09:45:22Z</time>
      </trkpt>
      <trkpt lat="44.09492" lon="7.03628">
        <ele>1427</ele>
        <time>2022-07-26T09:45:23Z</time>
      </trkpt>
      <trkpt lat="44.09491" lon="7.03628">
        <ele>1427</ele>
        <time>2022-07-26T09:45:24Z</time>
      </trkpt>
      <trkpt lat="44.0949" lon="7.03629">
        <ele>1427</ele>
        <time>2022-07-26T09:45:25Z</time>
      </trkpt>
      <trkpt lat="44.09489" lon="7.03629">
        <ele>1427</ele>
        <time>2022-07-26T09:45:26Z</time>
      </trkpt>
      <trkpt lat="44.09488" lon="7.03629">
        <ele>1427</ele>
        <time>2022-07-26T09:45:27Z</time>
      </trkpt>
      <trkpt lat="44.09487" lon="7.03629">
        <ele>1426</ele>
        <time>2022-07-26T09:45:28Z</time>
      </trkpt>
      <trkpt lat="44.09486" lon="7.0363">
        <ele>1426</ele>
        <time>2022-07-26T09:45:29Z</time>
      </trkpt>
      <trkpt lat="44.09485" lon="7.0363">
        <ele>1426</ele>
        <time>2022-07-26T09:45:30Z</time>
      </trkpt>
      <trkpt lat="44.09484" lon="7.0363">
        <ele>1426</ele>
        <time>2022-07-26T09:45:31Z</time>
      </trkpt>
      <trkpt lat="44.09483" lon="7.0363">
        <ele>1426</ele>
        <time>2022-07-26T09:45:32Z</time>
      </trkpt>
      <trkpt lat="44.09482" lon="7.03631">
        <ele>1426</ele>
        <time>2022-07-26T09:45:33Z</time>
      </trkpt>
      <trkpt lat="44.0948" lon="7.03632">
        <ele>1426</ele>
        <time>2022-07-26T09:45:34Z</time>
      </trkpt>
      <trkpt lat="44.09479" lon="7.03632">
        <ele>1426</ele>
        <time>2022-07-26T09:45:35Z</time>
      </trkpt>
      <trkpt lat="44.09478" lon="7.03633">
        <ele>1426</ele>
        <time>2022-07-26T09:45:36Z</time>
      </trkpt>
      <trkpt lat="44.09477" lon="7.03634">
        <ele>1426</ele>
        <time>2022-07-26T09:45:37Z</time>
      </trkpt>
      <trkpt lat="44.09476" lon="7.03635">
        <ele>1425</ele>
        <time>2022-07-26T09:45:38Z</time>
      </trkpt>
      <trkpt lat="44.09475" lon="7.03636">
        <ele>1425</ele>
        <time>2022-07-26T09:45:39Z</time>
      </trkpt>
      <trkpt lat="44.09475" lon="7.03637">
        <ele>1425</ele>
        <time>2022-07-26T09:45:40Z</time>
      </trkpt>
      <trkpt lat="44.09474" lon="7.03638">
        <ele>1425</ele>
        <time>2022-07-26T09:45:41Z</time>
      </trkpt>
      <trkpt lat="44.09474" lon="7.03638">
        <ele>1425</ele>
        <time>2022-07-26T09:45:42Z</time>
      </trkpt>
      <trkpt lat="44.09473" lon="7.03639">
        <ele>1424</ele>
        <time>2022-07-26T09:45:43Z</time>
      </trkpt>
      <trkpt lat="44.09473" lon="7.0364">
        <ele>1424</ele>
        <time>2022-07-26T09:45:44Z</time>
      </trkpt>
      <trkpt lat="44.09472" lon="7.03641">
        <ele>1424</ele>
        <time>2022-07-26T09:45:45Z</time>
      </trkpt>
      <trkpt lat="44.09472" lon="7.03642">
        <ele>1424</ele>
        <time>2022-07-26T09:45:46Z</time>
      </trkpt>
      <trkpt lat="44.09472" lon="7.03644">
        <ele>1424</ele>
        <time>2022-07-26T09:45:47Z</time>
      </trkpt>
      <trkpt lat="44.09471" lon="7.03645">
        <ele>1423</ele>
        <time>2022-07-26T09:45:48Z</time>
      </trkpt>
      <trkpt lat="44.09471" lon="7.03647">
        <ele>1423</ele>
        <time>2022-07-26T09:45:49Z</time>
      </trkpt>
      <trkpt lat="44.09471" lon="7.03648">
        <ele>1423</ele>
        <time>2022-07-26T09:45:50Z</time>
      </trkpt>
      <trkpt lat="44.0947" lon="7.03649">
        <ele>1423</ele>
        <time>2022-07-26T09:45:51Z</time>
      </trkpt>
      <trkpt lat="44.09469" lon="7.03651">
        <ele>1423</ele>
        <time>2022-07-26T09:45:52Z</time>
      </trkpt>
      <trkpt lat="44.09469" lon="7.03652">
        <ele>1423</ele>
        <time>2022-07-26T09:45:53Z</time>
      </trkpt>
      <trkpt lat="44.09468" lon="7.03653">
        <ele>1423</ele>
        <time>2022-07-26T09:45:54Z</time>
      </trkpt>
      <trkpt lat="44.09468" lon="7.03655">
        <ele>1423</ele>
        <time>2022-07-26T09:45:55Z</time>
      </trkpt>
      <trkpt lat="44.09467" lon="7.03656">
        <ele>1423</ele>
        <time>2022-07-26T09:45:56Z</time>
      </trkpt>
      <trkpt lat="44.09467" lon="7.03658">
        <ele>1423</ele>
        <time>2022-07-26T09:45:57Z</time>
      </trkpt>
      <trkpt lat="44.09467" lon="7.03659">
        <ele>1422</ele>
        <time>2022-07-26T09:45:58Z</time>
      </trkpt>
      <trkpt lat="44.09467" lon="7.03661">
        <ele>1422</ele>
        <time>2022-07-26T09:45:59Z</time>
      </trkpt>
      <trkpt lat="44.09467" lon="7.03662">
        <ele>1422</ele>
        <time>2022-07-26T09:46:00Z</time>
      </trkpt>
      <trkpt lat="44.09466" lon="7.03663">
        <ele>1422</ele>
        <time>2022-07-26T09:46:01Z</time>
      </trkpt>
      <trkpt lat="44.09466" lon="7.03664">
        <ele>1422</ele>
        <time>2022-07-26T09:46:02Z</time>
      </trkpt>
      <trkpt lat="44.09465" lon="7.03666">
        <ele>1421</ele>
        <time>2022-07-26T09:46:03Z</time>
      </trkpt>
      <trkpt lat="44.09465" lon="7.03667">
        <ele>1421</ele>
        <time>2022-07-26T09:46:04Z</time>
      </trkpt>
      <trkpt lat="44.09464" lon="7.03668">
        <ele>1421</ele>
        <time>2022-07-26T09:46:05Z</time>
      </trkpt>
      <trkpt lat="44.09464" lon="7.03669">
        <ele>1421</ele>
        <time>2022-07-26T09:46:06Z</time>
      </trkpt>
      <trkpt lat="44.09463" lon="7.0367">
        <ele>1421</ele>
        <time>2022-07-26T09:46:07Z</time>
      </trkpt>
      <trkpt lat="44.09463" lon="7.03671">
        <ele>1420</ele>
        <time>2022-07-26T09:46:08Z</time>
      </trkpt>
      <trkpt lat="44.09462" lon="7.03672">
        <ele>1420</ele>
        <time>2022-07-26T09:46:09Z</time>
      </trkpt>
      <trkpt lat="44.09462" lon="7.03673">
        <ele>1419</ele>
        <time>2022-07-26T09:46:10Z</time>
      </trkpt>
      <trkpt lat="44.09462" lon="7.03674">
        <ele>1419</ele>
        <time>2022-07-26T09:46:11Z</time>
      </trkpt>
      <trkpt lat="44.09461" lon="7.03675">
        <ele>1419</ele>
        <time>2022-07-26T09:46:12Z</time>
      </trkpt>
      <trkpt lat="44.09461" lon="7.03676">
        <ele>1418</ele>
        <time>2022-07-26T09:46:13Z</time>
      </trkpt>
      <trkpt lat="44.0946" lon="7.03677">
        <ele>1418</ele>
        <time>2022-07-26T09:46:14Z</time>
      </trkpt>
      <trkpt lat="44.0946" lon="7.03678">
        <ele>1418</ele>
        <time>2022-07-26T09:46:15Z</time>
      </trkpt>
      <trkpt lat="44.0946" lon="7.03679">
        <ele>1418</ele>
        <time>2022-07-26T09:46:16Z</time>
      </trkpt>
      <trkpt lat="44.09459" lon="7.0368">
        <ele>1418</ele>
        <time>2022-07-26T09:46:17Z</time>
      </trkpt>
      <trkpt lat="44.09459" lon="7.03682">
        <ele>1418</ele>
        <time>2022-07-26T09:46:18Z</time>
      </trkpt>
      <trkpt lat="44.09459" lon="7.03683">
        <ele>1418</ele>
        <time>2022-07-26T09:46:19Z</time>
      </trkpt>
      <trkpt lat="44.09458" lon="7.03685">
        <ele>1418</ele>
        <time>2022-07-26T09:46:20Z</time>
      </trkpt>
      <trkpt lat="44.09458" lon="7.03686">
        <ele>1418</ele>
        <time>2022-07-26T09:46:21Z</time>
      </trkpt>
      <trkpt lat="44.09457" lon="7.03688">
        <ele>1418</ele>
        <time>2022-07-26T09:46:22Z</time>
      </trkpt>
      <trkpt lat="44.09457" lon="7.0369">
        <ele>1417</ele>
        <time>2022-07-26T09:46:23Z</time>
      </trkpt>
      <trkpt lat="44.09456" lon="7.03692">
        <ele>1417</ele>
        <time>2022-07-26T09:46:24Z</time>
      </trkpt>
      <trkpt lat="44.09456" lon="7.03694">
        <ele>1417</ele>
        <time>2022-07-26T09:46:25Z</time>
      </trkpt>
      <trkpt lat="44.09455" lon="7.03695">
        <ele>1417</ele>
        <time>2022-07-26T09:46:26Z</time>
      </trkpt>
      <trkpt lat="44.09455" lon="7.03697">
        <ele>1417</ele>
        <time>2022-07-26T09:46:27Z</time>
      </trkpt>
      <trkpt lat="44.09455" lon="7.03699">
        <ele>1416</ele>
        <time>2022-07-26T09:46:28Z</time>
      </trkpt>
      <trkpt lat="44.09455" lon="7.037">
        <ele>1416</ele>
        <time>2022-07-26T09:46:29Z</time>
      </trkpt>
      <trkpt lat="44.09455" lon="7.03701">
        <ele>1416</ele>
        <time>2022-07-26T09:46:30Z</time>
      </trkpt>
      <trkpt lat="44.09455" lon="7.03702">
        <ele>1416</ele>
        <time>2022-07-26T09:46:31Z</time>
      </trkpt>
      <trkpt lat="44.09456" lon="7.03703">
        <ele>1416</ele>
        <time>2022-07-26T09:46:32Z</time>
      </trkpt>
      <trkpt lat="44.09456" lon="7.03705">
        <ele>1415</ele>
        <time>2022-07-26T09:46:33Z</time>
      </trkpt>
      <trkpt lat="44.09456" lon="7.03706">
        <ele>1415</ele>
        <time>2022-07-26T09:46:34Z</time>
      </trkpt>
      <trkpt lat="44.09456" lon="7.03707">
        <ele>1415</ele>
        <time>2022-07-26T09:46:35Z</time>
      </trkpt>
      <trkpt lat="44.09455" lon="7.03709">
        <ele>1415</ele>
        <time>2022-07-26T09:46:36Z</time>
      </trkpt>
      <trkpt lat="44.09454" lon="7.0371">
        <ele>1415</ele>
        <time>2022-07-26T09:46:37Z</time>
      </trkpt>
      <trkpt lat="44.09453" lon="7.03711">
        <ele>1414</ele>
        <time>2022-07-26T09:46:38Z</time>
      </trkpt>
      <trkpt lat="44.09452" lon="7.03712">
        <ele>1414</ele>
        <time>2022-07-26T09:46:39Z</time>
      </trkpt>
      <trkpt lat="44.09452" lon="7.03713">
        <ele>1414</ele>
        <time>2022-07-26T09:46:40Z</time>
      </trkpt>
      <trkpt lat="44.09451" lon="7.03714">
        <ele>1414</ele>
        <time>2022-07-26T09:46:41Z</time>
      </trkpt>
      <trkpt lat="44.0945" lon="7.03715">
        <ele>1414</ele>
        <time>2022-07-26T09:46:42Z</time>
      </trkpt>
      <trkpt lat="44.0945" lon="7.03716">
        <ele>1414</ele>
        <time>2022-07-26T09:46:43Z</time>
      </trkpt>
      <trkpt lat="44.09449" lon="7.03718">
        <ele>1414</ele>
        <time>2022-07-26T09:46:44Z</time>
      </trkpt>
      <trkpt lat="44.09449" lon="7.03719">
        <ele>1414</ele>
        <time>2022-07-26T09:46:45Z</time>
      </trkpt>
      <trkpt lat="44.09449" lon="7.0372">
        <ele>1414</ele>
        <time>2022-07-26T09:46:46Z</time>
      </trkpt>
      <trkpt lat="44.09448" lon="7.03721">
        <ele>1414</ele>
        <time>2022-07-26T09:46:47Z</time>
      </trkpt>
      <trkpt lat="44.09448" lon="7.03722">
        <ele>1413</ele>
        <time>2022-07-26T09:46:48Z</time>
      </trkpt>
      <trkpt lat="44.09448" lon="7.03723">
        <ele>1413</ele>
        <time>2022-07-26T09:46:49Z</time>
      </trkpt>
      <trkpt lat="44.09448" lon="7.03724">
        <ele>1413</ele>
        <time>2022-07-26T09:46:50Z</time>
      </trkpt>
      <trkpt lat="44.09447" lon="7.03725">
        <ele>1413</ele>
        <time>2022-07-26T09:46:51Z</time>
      </trkpt>
      <trkpt lat="44.09446" lon="7.03726">
        <ele>1413</ele>
        <time>2022-07-26T09:46:52Z</time>
      </trkpt>
      <trkpt lat="44.09446" lon="7.03727">
        <ele>1413</ele>
        <time>2022-07-26T09:46:53Z</time>
      </trkpt>
      <trkpt lat="44.09445" lon="7.03728">
        <ele>1413</ele>
        <time>2022-07-26T09:46:54Z</time>
      </trkpt>
      <trkpt lat="44.09445" lon="7.0373">
        <ele>1413</ele>
        <time>2022-07-26T09:46:55Z</time>
      </trkpt>
      <trkpt lat="44.09444" lon="7.03731">
        <ele>1413</ele>
        <time>2022-07-26T09:46:56Z</time>
      </trkpt>
      <trkpt lat="44.09443" lon="7.03732">
        <ele>1413</ele>
        <time>2022-07-26T09:46:57Z</time>
      </trkpt>
      <trkpt lat="44.09443" lon="7.03733">
        <ele>1412</ele>
        <time>2022-07-26T09:46:58Z</time>
      </trkpt>
      <trkpt lat="44.09442" lon="7.03734">
        <ele>1412</ele>
        <time>2022-07-26T09:46:59Z</time>
      </trkpt>
      <trkpt lat="44.09442" lon="7.03736">
        <ele>1412</ele>
        <time>2022-07-26T09:47:00Z</time>
      </trkpt>
      <trkpt lat="44.09442" lon="7.03737">
        <ele>1412</ele>
        <time>2022-07-26T09:47:01Z</time>
      </trkpt>
      <trkpt lat="44.09442" lon="7.03738">
        <ele>1412</ele>
        <time>2022-07-26T09:47:02Z</time>
      </trkpt>
      <trkpt lat="44.09441" lon="7.0374">
        <ele>1412</ele>
        <time>2022-07-26T09:47:03Z</time>
      </trkpt>
      <trkpt lat="44.09441" lon="7.0374">
        <ele>1412</ele>
        <time>2022-07-26T09:47:04Z</time>
      </trkpt>
      <trkpt lat="44.09441" lon="7.03741">
        <ele>1412</ele>
        <time>2022-07-26T09:47:05Z</time>
      </trkpt>
      <trkpt lat="44.09441" lon="7.03742">
        <ele>1412</ele>
        <time>2022-07-26T09:47:06Z</time>
      </trkpt>
      <trkpt lat="44.0944" lon="7.03742">
        <ele>1412</ele>
        <time>2022-07-26T09:47:07Z</time>
      </trkpt>
      <trkpt lat="44.09439" lon="7.03743">
        <ele>1412</ele>
        <time>2022-07-26T09:47:08Z</time>
      </trkpt>
      <trkpt lat="44.09439" lon="7.03744">
        <ele>1412</ele>
        <time>2022-07-26T09:47:09Z</time>
      </trkpt>
      <trkpt lat="44.09438" lon="7.03745">
        <ele>1412</ele>
        <time>2022-07-26T09:47:10Z</time>
      </trkpt>
      <trkpt lat="44.09437" lon="7.03745">
        <ele>1412</ele>
        <time>2022-07-26T09:47:11Z</time>
      </trkpt>
      <trkpt lat="44.09436" lon="7.03747">
        <ele>1412</ele>
        <time>2022-07-26T09:47:12Z</time>
      </trkpt>
      <trkpt lat="44.09435" lon="7.03748">
        <ele>1411</ele>
        <time>2022-07-26T09:47:13Z</time>
      </trkpt>
      <trkpt lat="44.09435" lon="7.03749">
        <ele>1411</ele>
        <time>2022-07-26T09:47:14Z</time>
      </trkpt>
      <trkpt lat="44.09434" lon="7.0375">
        <ele>1411</ele>
        <time>2022-07-26T09:47:15Z</time>
      </trkpt>
      <trkpt lat="44.09433" lon="7.03751">
        <ele>1411</ele>
        <time>2022-07-26T09:47:16Z</time>
      </trkpt>
      <trkpt lat="44.09432" lon="7.03752">
        <ele>1411</ele>
        <time>2022-07-26T09:47:17Z</time>
      </trkpt>
      <trkpt lat="44.09431" lon="7.03753">
        <ele>1411</ele>
        <time>2022-07-26T09:47:18Z</time>
      </trkpt>
      <trkpt lat="44.09431" lon="7.03755">
        <ele>1411</ele>
        <time>2022-07-26T09:47:19Z</time>
      </trkpt>
      <trkpt lat="44.0943" lon="7.03756">
        <ele>1411</ele>
        <time>2022-07-26T09:47:20Z</time>
      </trkpt>
      <trkpt lat="44.0943" lon="7.03758">
        <ele>1411</ele>
        <time>2022-07-26T09:47:21Z</time>
      </trkpt>
      <trkpt lat="44.09429" lon="7.03759">
        <ele>1411</ele>
        <time>2022-07-26T09:47:22Z</time>
      </trkpt>
      <trkpt lat="44.09429" lon="7.03761">
        <ele>1410</ele>
        <time>2022-07-26T09:47:23Z</time>
      </trkpt>
      <trkpt lat="44.09428" lon="7.03763">
        <ele>1410</ele>
        <time>2022-07-26T09:47:24Z</time>
      </trkpt>
      <trkpt lat="44.09428" lon="7.03764">
        <ele>1410</ele>
        <time>2022-07-26T09:47:25Z</time>
      </trkpt>
      <trkpt lat="44.09427" lon="7.03766">
        <ele>1410</ele>
        <time>2022-07-26T09:47:26Z</time>
      </trkpt>
      <trkpt lat="44.09427" lon="7.03768">
        <ele>1410</ele>
        <time>2022-07-26T09:47:27Z</time>
      </trkpt>
      <trkpt lat="44.09427" lon="7.03769">
        <ele>1410</ele>
        <time>2022-07-26T09:47:28Z</time>
      </trkpt>
      <trkpt lat="44.09426" lon="7.0377">
        <ele>1410</ele>
        <time>2022-07-26T09:47:29Z</time>
      </trkpt>
      <trkpt lat="44.09426" lon="7.03772">
        <ele>1410</ele>
        <time>2022-07-26T09:47:30Z</time>
      </trkpt>
      <trkpt lat="44.09425" lon="7.03773">
        <ele>1410</ele>
        <time>2022-07-26T09:47:31Z</time>
      </trkpt>
      <trkpt lat="44.09425" lon="7.03775">
        <ele>1410</ele>
        <time>2022-07-26T09:47:32Z</time>
      </trkpt>
      <trkpt lat="44.09424" lon="7.03776">
        <ele>1409</ele>
        <time>2022-07-26T09:47:33Z</time>
      </trkpt>
      <trkpt lat="44.09423" lon="7.03777">
        <ele>1409</ele>
        <time>2022-07-26T09:47:34Z</time>
      </trkpt>
      <trkpt lat="44.09423" lon="7.03779">
        <ele>1409</ele>
        <time>2022-07-26T09:47:35Z</time>
      </trkpt>
      <trkpt lat="44.09422" lon="7.0378">
        <ele>1409</ele>
        <time>2022-07-26T09:47:36Z</time>
      </trkpt>
      <trkpt lat="44.09421" lon="7.03781">
        <ele>1409</ele>
        <time>2022-07-26T09:47:37Z</time>
      </trkpt>
      <trkpt lat="44.0942" lon="7.03782">
        <ele>1409</ele>
        <time>2022-07-26T09:47:38Z</time>
      </trkpt>
      <trkpt lat="44.09419" lon="7.03783">
        <ele>1409</ele>
        <time>2022-07-26T09:47:39Z</time>
      </trkpt>
      <trkpt lat="44.09418" lon="7.03784">
        <ele>1409</ele>
        <time>2022-07-26T09:47:40Z</time>
      </trkpt>
      <trkpt lat="44.09417" lon="7.03785">
        <ele>1409</ele>
        <time>2022-07-26T09:47:41Z</time>
      </trkpt>
      <trkpt lat="44.09416" lon="7.03786">
        <ele>1409</ele>
        <time>2022-07-26T09:47:42Z</time>
      </trkpt>
      <trkpt lat="44.09415" lon="7.03787">
        <ele>1409</ele>
        <time>2022-07-26T09:47:43Z</time>
      </trkpt>
      <trkpt lat="44.09414" lon="7.03788">
        <ele>1409</ele>
        <time>2022-07-26T09:47:44Z</time>
      </trkpt>
      <trkpt lat="44.09413" lon="7.03789">
        <ele>1409</ele>
        <time>2022-07-26T09:47:45Z</time>
      </trkpt>
      <trkpt lat="44.09412" lon="7.03791">
        <ele>1409</ele>
        <time>2022-07-26T09:47:46Z</time>
      </trkpt>
      <trkpt lat="44.09411" lon="7.03792">
        <ele>1409</ele>
        <time>2022-07-26T09:47:47Z</time>
      </trkpt>
      <trkpt lat="44.0941" lon="7.03793">
        <ele>1409</ele>
        <time>2022-07-26T09:47:48Z</time>
      </trkpt>
      <trkpt lat="44.09409" lon="7.03794">
        <ele>1409</ele>
        <time>2022-07-26T09:47:49Z</time>
      </trkpt>
      <trkpt lat="44.09408" lon="7.03795">
        <ele>1409</ele>
        <time>2022-07-26T09:47:50Z</time>
      </trkpt>
      <trkpt lat="44.09407" lon="7.03796">
        <ele>1409</ele>
        <time>2022-07-26T09:47:51Z</time>
      </trkpt>
      <trkpt lat="44.09407" lon="7.03798">
        <ele>1409</ele>
        <time>2022-07-26T09:47:52Z</time>
      </trkpt>
      <trkpt lat="44.09406" lon="7.03798">
        <ele>1408</ele>
        <time>2022-07-26T09:47:53Z</time>
      </trkpt>
      <trkpt lat="44.09405" lon="7.03799">
        <ele>1408</ele>
        <time>2022-07-26T09:47:54Z</time>
      </trkpt>
      <trkpt lat="44.09404" lon="7.038">
        <ele>1408</ele>
        <time>2022-07-26T09:47:55Z</time>
      </trkpt>
      <trkpt lat="44.09403" lon="7.03801">
        <ele>1408</ele>
        <time>2022-07-26T09:47:56Z</time>
      </trkpt>
      <trkpt lat="44.09403" lon="7.03802">
        <ele>1408</ele>
        <time>2022-07-26T09:47:57Z</time>
      </trkpt>
      <trkpt lat="44.09402" lon="7.03803">
        <ele>1408</ele>
        <time>2022-07-26T09:47:58Z</time>
      </trkpt>
      <trkpt lat="44.09401" lon="7.03804">
        <ele>1408</ele>
        <time>2022-07-26T09:47:59Z</time>
      </trkpt>
      <trkpt lat="44.094" lon="7.03805">
        <ele>1408</ele>
        <time>2022-07-26T09:48:00Z</time>
      </trkpt>
      <trkpt lat="44.09399" lon="7.03805">
        <ele>1408</ele>
        <time>2022-07-26T09:48:01Z</time>
      </trkpt>
      <trkpt lat="44.09398" lon="7.03806">
        <ele>1408</ele>
        <time>2022-07-26T09:48:02Z</time>
      </trkpt>
      <trkpt lat="44.09397" lon="7.03805">
        <ele>1408</ele>
        <time>2022-07-26T09:48:03Z</time>
      </trkpt>
      <trkpt lat="44.09396" lon="7.03805">
        <ele>1408</ele>
        <time>2022-07-26T09:48:04Z</time>
      </trkpt>
      <trkpt lat="44.09394" lon="7.03805">
        <ele>1408</ele>
        <time>2022-07-26T09:48:05Z</time>
      </trkpt>
      <trkpt lat="44.09393" lon="7.03804">
        <ele>1408</ele>
        <time>2022-07-26T09:48:06Z</time>
      </trkpt>
      <trkpt lat="44.09392" lon="7.03804">
        <ele>1408</ele>
        <time>2022-07-26T09:48:07Z</time>
      </trkpt>
      <trkpt lat="44.09391" lon="7.03803">
        <ele>1408</ele>
        <time>2022-07-26T09:48:08Z</time>
      </trkpt>
      <trkpt lat="44.09389" lon="7.03803">
        <ele>1408</ele>
        <time>2022-07-26T09:48:09Z</time>
      </trkpt>
      <trkpt lat="44.09388" lon="7.03802">
        <ele>1408</ele>
        <time>2022-07-26T09:48:10Z</time>
      </trkpt>
      <trkpt lat="44.09387" lon="7.03802">
        <ele>1408</ele>
        <time>2022-07-26T09:48:11Z</time>
      </trkpt>
      <trkpt lat="44.09386" lon="7.03802">
        <ele>1408</ele>
        <time>2022-07-26T09:48:12Z</time>
      </trkpt>
      <trkpt lat="44.09385" lon="7.03801">
        <ele>1408</ele>
        <time>2022-07-26T09:48:13Z</time>
      </trkpt>
      <trkpt lat="44.09384" lon="7.03801">
        <ele>1408</ele>
        <time>2022-07-26T09:48:14Z</time>
      </trkpt>
      <trkpt lat="44.09382" lon="7.038">
        <ele>1408</ele>
        <time>2022-07-26T09:48:15Z</time>
      </trkpt>
      <trkpt lat="44.09381" lon="7.038">
        <ele>1408</ele>
        <time>2022-07-26T09:48:16Z</time>
      </trkpt>
      <trkpt lat="44.09379" lon="7.038">
        <ele>1408</ele>
        <time>2022-07-26T09:48:17Z</time>
      </trkpt>
      <trkpt lat="44.09377" lon="7.03799">
        <ele>1408</ele>
        <time>2022-07-26T09:48:18Z</time>
      </trkpt>
      <trkpt lat="44.09376" lon="7.03799">
        <ele>1408</ele>
        <time>2022-07-26T09:48:19Z</time>
      </trkpt>
      <trkpt lat="44.09374" lon="7.03799">
        <ele>1408</ele>
        <time>2022-07-26T09:48:20Z</time>
      </trkpt>
      <trkpt lat="44.09373" lon="7.038">
        <ele>1408</ele>
        <time>2022-07-26T09:48:21Z</time>
      </trkpt>
      <trkpt lat="44.09372" lon="7.03801">
        <ele>1408</ele>
        <time>2022-07-26T09:48:22Z</time>
      </trkpt>
      <trkpt lat="44.09371" lon="7.03802">
        <ele>1408</ele>
        <time>2022-07-26T09:48:23Z</time>
      </trkpt>
      <trkpt lat="44.0937" lon="7.03804">
        <ele>1408</ele>
        <time>2022-07-26T09:48:24Z</time>
      </trkpt>
      <trkpt lat="44.0937" lon="7.03806">
        <ele>1408</ele>
        <time>2022-07-26T09:48:25Z</time>
      </trkpt>
      <trkpt lat="44.0937" lon="7.03809">
        <ele>1408</ele>
        <time>2022-07-26T09:48:26Z</time>
      </trkpt>
      <trkpt lat="44.09371" lon="7.03811">
        <ele>1408</ele>
        <time>2022-07-26T09:48:27Z</time>
      </trkpt>
      <trkpt lat="44.09372" lon="7.03813">
        <ele>1408</ele>
        <time>2022-07-26T09:48:28Z</time>
      </trkpt>
      <trkpt lat="44.09372" lon="7.03815">
        <ele>1408</ele>
        <time>2022-07-26T09:48:29Z</time>
      </trkpt>
      <trkpt lat="44.09373" lon="7.03817">
        <ele>1408</ele>
        <time>2022-07-26T09:48:30Z</time>
      </trkpt>
      <trkpt lat="44.09373" lon="7.03818">
        <ele>1408</ele>
        <time>2022-07-26T09:48:31Z</time>
      </trkpt>
      <trkpt lat="44.09373" lon="7.0382">
        <ele>1408</ele>
        <time>2022-07-26T09:48:32Z</time>
      </trkpt>
      <trkpt lat="44.09373" lon="7.03822">
        <ele>1408</ele>
        <time>2022-07-26T09:48:33Z</time>
      </trkpt>
      <trkpt lat="44.09373" lon="7.03824">
        <ele>1408</ele>
        <time>2022-07-26T09:48:34Z</time>
      </trkpt>
      <trkpt lat="44.09373" lon="7.03826">
        <ele>1408</ele>
        <time>2022-07-26T09:48:35Z</time>
      </trkpt>
      <trkpt lat="44.09373" lon="7.03828">
        <ele>1408</ele>
        <time>2022-07-26T09:48:36Z</time>
      </trkpt>
      <trkpt lat="44.09373" lon="7.0383">
        <ele>1408</ele>
        <time>2022-07-26T09:48:37Z</time>
      </trkpt>
      <trkpt lat="44.09373" lon="7.03832">
        <ele>1408</ele>
        <time>2022-07-26T09:48:38Z</time>
      </trkpt>
      <trkpt lat="44.09373" lon="7.03833">
        <ele>1408</ele>
        <time>2022-07-26T09:48:39Z</time>
      </trkpt>
      <trkpt lat="44.09373" lon="7.03835">
        <ele>1408</ele>
        <time>2022-07-26T09:48:40Z</time>
      </trkpt>
      <trkpt lat="44.09373" lon="7.03836">
        <ele>1408</ele>
        <time>2022-07-26T09:48:41Z</time>
      </trkpt>
      <trkpt lat="44.09373" lon="7.03837">
        <ele>1408</ele>
        <time>2022-07-26T09:48:42Z</time>
      </trkpt>
      <trkpt lat="44.09373" lon="7.03838">
        <ele>1408</ele>
        <time>2022-07-26T09:48:43Z</time>
      </trkpt>
      <trkpt lat="44.09372" lon="7.03839">
        <ele>1408</ele>
        <time>2022-07-26T09:48:44Z</time>
      </trkpt>
      <trkpt lat="44.09372" lon="7.0384">
        <ele>1408</ele>
        <time>2022-07-26T09:48:45Z</time>
      </trkpt>
      <trkpt lat="44.09372" lon="7.03842">
        <ele>1408</ele>
        <time>2022-07-26T09:48:46Z</time>
      </trkpt>
      <trkpt lat="44.09371" lon="7.03843">
        <ele>1409</ele>
        <time>2022-07-26T09:48:47Z</time>
      </trkpt>
      <trkpt lat="44.09371" lon="7.03845">
        <ele>1409</ele>
        <time>2022-07-26T09:48:48Z</time>
      </trkpt>
      <trkpt lat="44.09371" lon="7.03846">
        <ele>1409</ele>
        <time>2022-07-26T09:48:49Z</time>
      </trkpt>
      <trkpt lat="44.0937" lon="7.03848">
        <ele>1409</ele>
        <time>2022-07-26T09:48:50Z</time>
      </trkpt>
      <trkpt lat="44.09369" lon="7.03849">
        <ele>1409</ele>
        <time>2022-07-26T09:48:51Z</time>
      </trkpt>
      <trkpt lat="44.09369" lon="7.0385">
        <ele>1409</ele>
        <time>2022-07-26T09:48:52Z</time>
      </trkpt>
      <trkpt lat="44.09368" lon="7.03851">
        <ele>1409</ele>
        <time>2022-07-26T09:48:53Z</time>
      </trkpt>
      <trkpt lat="44.09368" lon="7.03852">
        <ele>1409</ele>
        <time>2022-07-26T09:48:54Z</time>
      </trkpt>
      <trkpt lat="44.09368" lon="7.03854">
        <ele>1409</ele>
        <time>2022-07-26T09:48:55Z</time>
      </trkpt>
      <trkpt lat="44.09367" lon="7.03855">
        <ele>1409</ele>
        <time>2022-07-26T09:48:56Z</time>
      </trkpt>
      <trkpt lat="44.09367" lon="7.03856">
        <ele>1409</ele>
        <time>2022-07-26T09:48:57Z</time>
      </trkpt>
      <trkpt lat="44.09367" lon="7.03858">
        <ele>1409</ele>
        <time>2022-07-26T09:48:58Z</time>
      </trkpt>
      <trkpt lat="44.09366" lon="7.03859">
        <ele>1409</ele>
        <time>2022-07-26T09:48:59Z</time>
      </trkpt>
      <trkpt lat="44.09366" lon="7.0386">
        <ele>1409</ele>
        <time>2022-07-26T09:49:00Z</time>
      </trkpt>
      <trkpt lat="44.09365" lon="7.03861">
        <ele>1409</ele>
        <time>2022-07-26T09:49:01Z</time>
      </trkpt>
      <trkpt lat="44.09365" lon="7.03862">
        <ele>1409</ele>
        <time>2022-07-26T09:49:02Z</time>
      </trkpt>
      <trkpt lat="44.09364" lon="7.03862">
        <ele>1409</ele>
        <time>2022-07-26T09:49:03Z</time>
      </trkpt>
      <trkpt lat="44.09363" lon="7.03863">
        <ele>1409</ele>
        <time>2022-07-26T09:49:04Z</time>
      </trkpt>
      <trkpt lat="44.09363" lon="7.03864">
        <ele>1409</ele>
        <time>2022-07-26T09:49:05Z</time>
      </trkpt>
      <trkpt lat="44.09362" lon="7.03865">
        <ele>1409</ele>
        <time>2022-07-26T09:49:06Z</time>
      </trkpt>
      <trkpt lat="44.09361" lon="7.03867">
        <ele>1410</ele>
        <time>2022-07-26T09:49:07Z</time>
      </trkpt>
      <trkpt lat="44.0936" lon="7.03868">
        <ele>1410</ele>
        <time>2022-07-26T09:49:08Z</time>
      </trkpt>
      <trkpt lat="44.09359" lon="7.03869">
        <ele>1410</ele>
        <time>2022-07-26T09:49:09Z</time>
      </trkpt>
      <trkpt lat="44.09359" lon="7.0387">
        <ele>1410</ele>
        <time>2022-07-26T09:49:10Z</time>
      </trkpt>
      <trkpt lat="44.09358" lon="7.03871">
        <ele>1410</ele>
        <time>2022-07-26T09:49:11Z</time>
      </trkpt>
      <trkpt lat="44.09357" lon="7.03872">
        <ele>1410</ele>
        <time>2022-07-26T09:49:12Z</time>
      </trkpt>
      <trkpt lat="44.09356" lon="7.03873">
        <ele>1410</ele>
        <time>2022-07-26T09:49:13Z</time>
      </trkpt>
      <trkpt lat="44.09356" lon="7.03874">
        <ele>1410</ele>
        <time>2022-07-26T09:49:14Z</time>
      </trkpt>
      <trkpt lat="44.09355" lon="7.03875">
        <ele>1410</ele>
        <time>2022-07-26T09:49:15Z</time>
      </trkpt>
      <trkpt lat="44.09354" lon="7.03876">
        <ele>1410</ele>
        <time>2022-07-26T09:49:16Z</time>
      </trkpt>
      <trkpt lat="44.09353" lon="7.03877">
        <ele>1410</ele>
        <time>2022-07-26T09:49:17Z</time>
      </trkpt>
      <trkpt lat="44.09352" lon="7.03877">
        <ele>1410</ele>
        <time>2022-07-26T09:49:18Z</time>
      </trkpt>
      <trkpt lat="44.09352" lon="7.03878">
        <ele>1410</ele>
        <time>2022-07-26T09:49:19Z</time>
      </trkpt>
      <trkpt lat="44.09351" lon="7.03879">
        <ele>1410</ele>
        <time>2022-07-26T09:49:20Z</time>
      </trkpt>
      <trkpt lat="44.0935" lon="7.0388">
        <ele>1410</ele>
        <time>2022-07-26T09:49:21Z</time>
      </trkpt>
      <trkpt lat="44.0935" lon="7.03881">
        <ele>1411</ele>
        <time>2022-07-26T09:49:22Z</time>
      </trkpt>
      <trkpt lat="44.09349" lon="7.03882">
        <ele>1411</ele>
        <time>2022-07-26T09:49:23Z</time>
      </trkpt>
      <trkpt lat="44.09348" lon="7.03883">
        <ele>1411</ele>
        <time>2022-07-26T09:49:24Z</time>
      </trkpt>
      <trkpt lat="44.09348" lon="7.03884">
        <ele>1411</ele>
        <time>2022-07-26T09:49:25Z</time>
      </trkpt>
      <trkpt lat="44.09347" lon="7.03886">
        <ele>1411</ele>
        <time>2022-07-26T09:49:26Z</time>
      </trkpt>
      <trkpt lat="44.09347" lon="7.03887">
        <ele>1411</ele>
        <time>2022-07-26T09:49:27Z</time>
      </trkpt>
      <trkpt lat="44.09346" lon="7.03888">
        <ele>1411</ele>
        <time>2022-07-26T09:49:28Z</time>
      </trkpt>
      <trkpt lat="44.09346" lon="7.03889">
        <ele>1411</ele>
        <time>2022-07-26T09:49:29Z</time>
      </trkpt>
      <trkpt lat="44.09345" lon="7.0389">
        <ele>1411</ele>
        <time>2022-07-26T09:49:30Z</time>
      </trkpt>
      <trkpt lat="44.09345" lon="7.0389">
        <ele>1411</ele>
        <time>2022-07-26T09:49:31Z</time>
      </trkpt>
      <trkpt lat="44.09344" lon="7.03891">
        <ele>1411</ele>
        <time>2022-07-26T09:49:32Z</time>
      </trkpt>
      <trkpt lat="44.09343" lon="7.03892">
        <ele>1411</ele>
        <time>2022-07-26T09:49:33Z</time>
      </trkpt>
      <trkpt lat="44.09343" lon="7.03893">
        <ele>1411</ele>
        <time>2022-07-26T09:49:34Z</time>
      </trkpt>
      <trkpt lat="44.09342" lon="7.03894">
        <ele>1411</ele>
        <time>2022-07-26T09:49:35Z</time>
      </trkpt>
      <trkpt lat="44.09341" lon="7.03895">
        <ele>1411</ele>
        <time>2022-07-26T09:49:36Z</time>
      </trkpt>
      <trkpt lat="44.0934" lon="7.03896">
        <ele>1412</ele>
        <time>2022-07-26T09:49:37Z</time>
      </trkpt>
      <trkpt lat="44.0934" lon="7.03897">
        <ele>1412</ele>
        <time>2022-07-26T09:49:38Z</time>
      </trkpt>
      <trkpt lat="44.09339" lon="7.03898">
        <ele>1412</ele>
        <time>2022-07-26T09:49:39Z</time>
      </trkpt>
      <trkpt lat="44.09338" lon="7.03899">
        <ele>1412</ele>
        <time>2022-07-26T09:49:40Z</time>
      </trkpt>
      <trkpt lat="44.09338" lon="7.039">
        <ele>1412</ele>
        <time>2022-07-26T09:49:41Z</time>
      </trkpt>
      <trkpt lat="44.09337" lon="7.03901">
        <ele>1412</ele>
        <time>2022-07-26T09:49:42Z</time>
      </trkpt>
      <trkpt lat="44.09336" lon="7.03902">
        <ele>1412</ele>
        <time>2022-07-26T09:49:43Z</time>
      </trkpt>
      <trkpt lat="44.09335" lon="7.03903">
        <ele>1412</ele>
        <time>2022-07-26T09:49:44Z</time>
      </trkpt>
      <trkpt lat="44.09334" lon="7.03904">
        <ele>1412</ele>
        <time>2022-07-26T09:49:45Z</time>
      </trkpt>
      <trkpt lat="44.09333" lon="7.03904">
        <ele>1412</ele>
        <time>2022-07-26T09:49:46Z</time>
      </trkpt>
      <trkpt lat="44.09332" lon="7.03905">
        <ele>1412</ele>
        <time>2022-07-26T09:49:47Z</time>
      </trkpt>
      <trkpt lat="44.09331" lon="7.03906">
        <ele>1412</ele>
        <time>2022-07-26T09:49:48Z</time>
      </trkpt>
      <trkpt lat="44.0933" lon="7.03907">
        <ele>1412</ele>
        <time>2022-07-26T09:49:49Z</time>
      </trkpt>
      <trkpt lat="44.09329" lon="7.03908">
        <ele>1412</ele>
        <time>2022-07-26T09:49:50Z</time>
      </trkpt>
      <trkpt lat="44.09328" lon="7.03909">
        <ele>1412</ele>
        <time>2022-07-26T09:49:51Z</time>
      </trkpt>
      <trkpt lat="44.09327" lon="7.0391">
        <ele>1412</ele>
        <time>2022-07-26T09:49:52Z</time>
      </trkpt>
      <trkpt lat="44.09326" lon="7.03911">
        <ele>1412</ele>
        <time>2022-07-26T09:49:53Z</time>
      </trkpt>
      <trkpt lat="44.09325" lon="7.03913">
        <ele>1412</ele>
        <time>2022-07-26T09:49:54Z</time>
      </trkpt>
      <trkpt lat="44.09325" lon="7.03914">
        <ele>1412</ele>
        <time>2022-07-26T09:49:55Z</time>
      </trkpt>
      <trkpt lat="44.09324" lon="7.03915">
        <ele>1412</ele>
        <time>2022-07-26T09:49:56Z</time>
      </trkpt>
      <trkpt lat="44.09323" lon="7.03917">
        <ele>1413</ele>
        <time>2022-07-26T09:49:57Z</time>
      </trkpt>
      <trkpt lat="44.09323" lon="7.03918">
        <ele>1413</ele>
        <time>2022-07-26T09:49:58Z</time>
      </trkpt>
      <trkpt lat="44.09322" lon="7.03919">
        <ele>1413</ele>
        <time>2022-07-26T09:49:59Z</time>
      </trkpt>
      <trkpt lat="44.09321" lon="7.0392">
        <ele>1413</ele>
        <time>2022-07-26T09:50:00Z</time>
      </trkpt>
      <trkpt lat="44.0932" lon="7.03921">
        <ele>1413</ele>
        <time>2022-07-26T09:50:01Z</time>
      </trkpt>
      <trkpt lat="44.0932" lon="7.03922">
        <ele>1413</ele>
        <time>2022-07-26T09:50:02Z</time>
      </trkpt>
      <trkpt lat="44.09319" lon="7.03923">
        <ele>1413</ele>
        <time>2022-07-26T09:50:03Z</time>
      </trkpt>
      <trkpt lat="44.09318" lon="7.03924">
        <ele>1413</ele>
        <time>2022-07-26T09:50:04Z</time>
      </trkpt>
      <trkpt lat="44.09318" lon="7.03926">
        <ele>1413</ele>
        <time>2022-07-26T09:50:05Z</time>
      </trkpt>
      <trkpt lat="44.09317" lon="7.03927">
        <ele>1413</ele>
        <time>2022-07-26T09:50:06Z</time>
      </trkpt>
      <trkpt lat="44.09317" lon="7.03928">
        <ele>1413</ele>
        <time>2022-07-26T09:50:07Z</time>
      </trkpt>
      <trkpt lat="44.09316" lon="7.03929">
        <ele>1413</ele>
        <time>2022-07-26T09:50:08Z</time>
      </trkpt>
      <trkpt lat="44.09316" lon="7.03931">
        <ele>1413</ele>
        <time>2022-07-26T09:50:09Z</time>
      </trkpt>
      <trkpt lat="44.09315" lon="7.03932">
        <ele>1413</ele>
        <time>2022-07-26T09:50:10Z</time>
      </trkpt>
      <trkpt lat="44.09315" lon="7.03933">
        <ele>1413</ele>
        <time>2022-07-26T09:50:11Z</time>
      </trkpt>
      <trkpt lat="44.09315" lon="7.03934">
        <ele>1413</ele>
        <time>2022-07-26T09:50:12Z</time>
      </trkpt>
      <trkpt lat="44.09315" lon="7.03936">
        <ele>1413</ele>
        <time>2022-07-26T09:50:13Z</time>
      </trkpt>
      <trkpt lat="44.09314" lon="7.03937">
        <ele>1413</ele>
        <time>2022-07-26T09:50:14Z</time>
      </trkpt>
      <trkpt lat="44.09314" lon="7.03939">
        <ele>1413</ele>
        <time>2022-07-26T09:50:15Z</time>
      </trkpt>
      <trkpt lat="44.09314" lon="7.0394">
        <ele>1413</ele>
        <time>2022-07-26T09:50:16Z</time>
      </trkpt>
      <trkpt lat="44.09313" lon="7.03942">
        <ele>1413</ele>
        <time>2022-07-26T09:50:17Z</time>
      </trkpt>
      <trkpt lat="44.09313" lon="7.03943">
        <ele>1413</ele>
        <time>2022-07-26T09:50:18Z</time>
      </trkpt>
      <trkpt lat="44.09312" lon="7.03945">
        <ele>1413</ele>
        <time>2022-07-26T09:50:19Z</time>
      </trkpt>
      <trkpt lat="44.09312" lon="7.03946">
        <ele>1413</ele>
        <time>2022-07-26T09:50:20Z</time>
      </trkpt>
      <trkpt lat="44.09311" lon="7.03948">
        <ele>1413</ele>
        <time>2022-07-26T09:50:21Z</time>
      </trkpt>
      <trkpt lat="44.09311" lon="7.03949">
        <ele>1413</ele>
        <time>2022-07-26T09:50:22Z</time>
      </trkpt>
      <trkpt lat="44.09311" lon="7.0395">
        <ele>1413</ele>
        <time>2022-07-26T09:50:23Z</time>
      </trkpt>
      <trkpt lat="44.0931" lon="7.03952">
        <ele>1413</ele>
        <time>2022-07-26T09:50:24Z</time>
      </trkpt>
      <trkpt lat="44.09309" lon="7.03953">
        <ele>1413</ele>
        <time>2022-07-26T09:50:25Z</time>
      </trkpt>
      <trkpt lat="44.09308" lon="7.03954">
        <ele>1413</ele>
        <time>2022-07-26T09:50:26Z</time>
      </trkpt>
      <trkpt lat="44.09307" lon="7.03955">
        <ele>1413</ele>
        <time>2022-07-26T09:50:27Z</time>
      </trkpt>
      <trkpt lat="44.09307" lon="7.03956">
        <ele>1413</ele>
        <time>2022-07-26T09:50:28Z</time>
      </trkpt>
      <trkpt lat="44.09306" lon="7.03957">
        <ele>1413</ele>
        <time>2022-07-26T09:50:29Z</time>
      </trkpt>
      <trkpt lat="44.09305" lon="7.03958">
        <ele>1413</ele>
        <time>2022-07-26T09:50:30Z</time>
      </trkpt>
      <trkpt lat="44.09305" lon="7.03959">
        <ele>1413</ele>
        <time>2022-07-26T09:50:31Z</time>
      </trkpt>
      <trkpt lat="44.09304" lon="7.0396">
        <ele>1414</ele>
        <time>2022-07-26T09:50:32Z</time>
      </trkpt>
      <trkpt lat="44.09304" lon="7.03962">
        <ele>1414</ele>
        <time>2022-07-26T09:50:33Z</time>
      </trkpt>
      <trkpt lat="44.09303" lon="7.03963">
        <ele>1414</ele>
        <time>2022-07-26T09:50:34Z</time>
      </trkpt>
      <trkpt lat="44.09302" lon="7.03964">
        <ele>1414</ele>
        <time>2022-07-26T09:50:35Z</time>
      </trkpt>
      <trkpt lat="44.09302" lon="7.03965">
        <ele>1414</ele>
        <time>2022-07-26T09:50:36Z</time>
      </trkpt>
      <trkpt lat="44.09301" lon="7.03966">
        <ele>1414</ele>
        <time>2022-07-26T09:50:37Z</time>
      </trkpt>
      <trkpt lat="44.093" lon="7.03967">
        <ele>1414</ele>
        <time>2022-07-26T09:50:38Z</time>
      </trkpt>
      <trkpt lat="44.093" lon="7.03968">
        <ele>1414</ele>
        <time>2022-07-26T09:50:39Z</time>
      </trkpt>
      <trkpt lat="44.09299" lon="7.03969">
        <ele>1414</ele>
        <time>2022-07-26T09:50:40Z</time>
      </trkpt>
      <trkpt lat="44.09298" lon="7.03971">
        <ele>1414</ele>
        <time>2022-07-26T09:50:41Z</time>
      </trkpt>
      <trkpt lat="44.09298" lon="7.03972">
        <ele>1414</ele>
        <time>2022-07-26T09:50:42Z</time>
      </trkpt>
      <trkpt lat="44.09297" lon="7.03973">
        <ele>1414</ele>
        <time>2022-07-26T09:50:43Z</time>
      </trkpt>
      <trkpt lat="44.09296" lon="7.03975">
        <ele>1414</ele>
        <time>2022-07-26T09:50:44Z</time>
      </trkpt>
      <trkpt lat="44.09296" lon="7.03976">
        <ele>1414</ele>
        <time>2022-07-26T09:50:45Z</time>
      </trkpt>
      <trkpt lat="44.09295" lon="7.03977">
        <ele>1414</ele>
        <time>2022-07-26T09:50:46Z</time>
      </trkpt>
      <trkpt lat="44.09294" lon="7.03978">
        <ele>1415</ele>
        <time>2022-07-26T09:50:47Z</time>
      </trkpt>
      <trkpt lat="44.09293" lon="7.0398">
        <ele>1415</ele>
        <time>2022-07-26T09:50:48Z</time>
      </trkpt>
      <trkpt lat="44.09293" lon="7.03981">
        <ele>1415</ele>
        <time>2022-07-26T09:50:49Z</time>
      </trkpt>
      <trkpt lat="44.09292" lon="7.03982">
        <ele>1415</ele>
        <time>2022-07-26T09:50:50Z</time>
      </trkpt>
      <trkpt lat="44.09292" lon="7.03983">
        <ele>1415</ele>
        <time>2022-07-26T09:50:51Z</time>
      </trkpt>
      <trkpt lat="44.09291" lon="7.03985">
        <ele>1415</ele>
        <time>2022-07-26T09:50:52Z</time>
      </trkpt>
      <trkpt lat="44.09291" lon="7.03986">
        <ele>1415</ele>
        <time>2022-07-26T09:50:53Z</time>
      </trkpt>
      <trkpt lat="44.09291" lon="7.03987">
        <ele>1415</ele>
        <time>2022-07-26T09:50:54Z</time>
      </trkpt>
      <trkpt lat="44.09291" lon="7.03989">
        <ele>1415</ele>
        <time>2022-07-26T09:50:55Z</time>
      </trkpt>
      <trkpt lat="44.0929" lon="7.0399">
        <ele>1415</ele>
        <time>2022-07-26T09:50:56Z</time>
      </trkpt>
      <trkpt lat="44.0929" lon="7.03991">
        <ele>1415</ele>
        <time>2022-07-26T09:50:57Z</time>
      </trkpt>
      <trkpt lat="44.0929" lon="7.03992">
        <ele>1415</ele>
        <time>2022-07-26T09:50:58Z</time>
      </trkpt>
      <trkpt lat="44.0929" lon="7.03994">
        <ele>1415</ele>
        <time>2022-07-26T09:50:59Z</time>
      </trkpt>
      <trkpt lat="44.0929" lon="7.03995">
        <ele>1415</ele>
        <time>2022-07-26T09:51:00Z</time>
      </trkpt>
      <trkpt lat="44.0929" lon="7.03996">
        <ele>1415</ele>
        <time>2022-07-26T09:51:01Z</time>
      </trkpt>
      <trkpt lat="44.09291" lon="7.03997">
        <ele>1416</ele>
        <time>2022-07-26T09:51:02Z</time>
      </trkpt>
      <trkpt lat="44.09292" lon="7.03999">
        <ele>1416</ele>
        <time>2022-07-26T09:51:03Z</time>
      </trkpt>
      <trkpt lat="44.09292" lon="7.04">
        <ele>1416</ele>
        <time>2022-07-26T09:51:04Z</time>
      </trkpt>
      <trkpt lat="44.09293" lon="7.04001">
        <ele>1416</ele>
        <time>2022-07-26T09:51:05Z</time>
      </trkpt>
      <trkpt lat="44.09293" lon="7.04003">
        <ele>1416</ele>
        <time>2022-07-26T09:51:06Z</time>
      </trkpt>
      <trkpt lat="44.09294" lon="7.04004">
        <ele>1416</ele>
        <time>2022-07-26T09:51:07Z</time>
      </trkpt>
      <trkpt lat="44.09294" lon="7.04006">
        <ele>1416</ele>
        <time>2022-07-26T09:51:08Z</time>
      </trkpt>
      <trkpt lat="44.09294" lon="7.04007">
        <ele>1416</ele>
        <time>2022-07-26T09:51:09Z</time>
      </trkpt>
      <trkpt lat="44.09294" lon="7.04009">
        <ele>1416</ele>
        <time>2022-07-26T09:51:10Z</time>
      </trkpt>
      <trkpt lat="44.09294" lon="7.04011">
        <ele>1416</ele>
        <time>2022-07-26T09:51:11Z</time>
      </trkpt>
      <trkpt lat="44.09294" lon="7.04012">
        <ele>1417</ele>
        <time>2022-07-26T09:51:12Z</time>
      </trkpt>
      <trkpt lat="44.09294" lon="7.04014">
        <ele>1417</ele>
        <time>2022-07-26T09:51:13Z</time>
      </trkpt>
      <trkpt lat="44.09294" lon="7.04016">
        <ele>1417</ele>
        <time>2022-07-26T09:51:14Z</time>
      </trkpt>
      <trkpt lat="44.09294" lon="7.04017">
        <ele>1417</ele>
        <time>2022-07-26T09:51:15Z</time>
      </trkpt>
      <trkpt lat="44.09294" lon="7.04019">
        <ele>1417</ele>
        <time>2022-07-26T09:51:16Z</time>
      </trkpt>
      <trkpt lat="44.09294" lon="7.0402">
        <ele>1417</ele>
        <time>2022-07-26T09:51:17Z</time>
      </trkpt>
      <trkpt lat="44.09294" lon="7.04021">
        <ele>1417</ele>
        <time>2022-07-26T09:51:18Z</time>
      </trkpt>
      <trkpt lat="44.09293" lon="7.04022">
        <ele>1417</ele>
        <time>2022-07-26T09:51:19Z</time>
      </trkpt>
      <trkpt lat="44.09293" lon="7.04023">
        <ele>1417</ele>
        <time>2022-07-26T09:51:20Z</time>
      </trkpt>
      <trkpt lat="44.09293" lon="7.04025">
        <ele>1417</ele>
        <time>2022-07-26T09:51:21Z</time>
      </trkpt>
      <trkpt lat="44.09293" lon="7.04026">
        <ele>1417</ele>
        <time>2022-07-26T09:51:22Z</time>
      </trkpt>
      <trkpt lat="44.09292" lon="7.04028">
        <ele>1417</ele>
        <time>2022-07-26T09:51:23Z</time>
      </trkpt>
      <trkpt lat="44.09292" lon="7.04029">
        <ele>1417</ele>
        <time>2022-07-26T09:51:24Z</time>
      </trkpt>
      <trkpt lat="44.09292" lon="7.04031">
        <ele>1417</ele>
        <time>2022-07-26T09:51:25Z</time>
      </trkpt>
      <trkpt lat="44.09292" lon="7.04032">
        <ele>1417</ele>
        <time>2022-07-26T09:51:26Z</time>
      </trkpt>
      <trkpt lat="44.09293" lon="7.04035">
        <ele>1417</ele>
        <time>2022-07-26T09:51:35Z</time>
      </trkpt>
      <trkpt lat="44.09293" lon="7.04036">
        <ele>1417</ele>
        <time>2022-07-26T09:51:36Z</time>
      </trkpt>
      <trkpt lat="44.09293" lon="7.04037">
        <ele>1417</ele>
        <time>2022-07-26T09:51:37Z</time>
      </trkpt>
      <trkpt lat="44.09293" lon="7.04038">
        <ele>1417</ele>
        <time>2022-07-26T09:51:38Z</time>
      </trkpt>
      <trkpt lat="44.09293" lon="7.04039">
        <ele>1417</ele>
        <time>2022-07-26T09:51:39Z</time>
      </trkpt>
      <trkpt lat="44.09293" lon="7.04039">
        <ele>1417</ele>
        <time>2022-07-26T09:51:40Z</time>
      </trkpt>
      <trkpt lat="44.09294" lon="7.0404">
        <ele>1417</ele>
        <time>2022-07-26T09:51:41Z</time>
      </trkpt>
      <trkpt lat="44.09294" lon="7.04041">
        <ele>1418</ele>
        <time>2022-07-26T09:51:42Z</time>
      </trkpt>
      <trkpt lat="44.09294" lon="7.04041">
        <ele>1418</ele>
        <time>2022-07-26T09:51:43Z</time>
      </trkpt>
      <trkpt lat="44.09295" lon="7.04042">
        <ele>1418</ele>
        <time>2022-07-26T09:51:44Z</time>
      </trkpt>
      <trkpt lat="44.09295" lon="7.04043">
        <ele>1418</ele>
        <time>2022-07-26T09:51:45Z</time>
      </trkpt>
      <trkpt lat="44.09295" lon="7.04044">
        <ele>1418</ele>
        <time>2022-07-26T09:51:46Z</time>
      </trkpt>
      <trkpt lat="44.09295" lon="7.04045">
        <ele>1418</ele>
        <time>2022-07-26T09:51:47Z</time>
      </trkpt>
      <trkpt lat="44.09295" lon="7.04046">
        <ele>1418</ele>
        <time>2022-07-26T09:51:48Z</time>
      </trkpt>
      <trkpt lat="44.09295" lon="7.04047">
        <ele>1418</ele>
        <time>2022-07-26T09:51:49Z</time>
      </trkpt>
      <trkpt lat="44.09296" lon="7.04048">
        <ele>1418</ele>
        <time>2022-07-26T09:51:50Z</time>
      </trkpt>
      <trkpt lat="44.09296" lon="7.04049">
        <ele>1418</ele>
        <time>2022-07-26T09:51:51Z</time>
      </trkpt>
      <trkpt lat="44.09296" lon="7.0405">
        <ele>1418</ele>
        <time>2022-07-26T09:51:52Z</time>
      </trkpt>
      <trkpt lat="44.09296" lon="7.04051">
        <ele>1418</ele>
        <time>2022-07-26T09:51:53Z</time>
      </trkpt>
      <trkpt lat="44.09296" lon="7.04053">
        <ele>1418</ele>
        <time>2022-07-26T09:51:54Z</time>
      </trkpt>
      <trkpt lat="44.09295" lon="7.04054">
        <ele>1418</ele>
        <time>2022-07-26T09:51:55Z</time>
      </trkpt>
      <trkpt lat="44.09295" lon="7.04056">
        <ele>1418</ele>
        <time>2022-07-26T09:51:56Z</time>
      </trkpt>
      <trkpt lat="44.09295" lon="7.04057">
        <ele>1418</ele>
        <time>2022-07-26T09:51:57Z</time>
      </trkpt>
      <trkpt lat="44.09295" lon="7.04058">
        <ele>1418</ele>
        <time>2022-07-26T09:51:58Z</time>
      </trkpt>
      <trkpt lat="44.09294" lon="7.0406">
        <ele>1418</ele>
        <time>2022-07-26T09:51:59Z</time>
      </trkpt>
      <trkpt lat="44.09294" lon="7.04062">
        <ele>1418</ele>
        <time>2022-07-26T09:52:00Z</time>
      </trkpt>
      <trkpt lat="44.09294" lon="7.04063">
        <ele>1418</ele>
        <time>2022-07-26T09:52:01Z</time>
      </trkpt>
      <trkpt lat="44.09293" lon="7.04065">
        <ele>1418</ele>
        <time>2022-07-26T09:52:02Z</time>
      </trkpt>
      <trkpt lat="44.09293" lon="7.04067">
        <ele>1418</ele>
        <time>2022-07-26T09:52:03Z</time>
      </trkpt>
      <trkpt lat="44.09293" lon="7.04069">
        <ele>1418</ele>
        <time>2022-07-26T09:52:04Z</time>
      </trkpt>
      <trkpt lat="44.09293" lon="7.0407">
        <ele>1418</ele>
        <time>2022-07-26T09:52:05Z</time>
      </trkpt>
      <trkpt lat="44.09293" lon="7.04072">
        <ele>1418</ele>
        <time>2022-07-26T09:52:06Z</time>
      </trkpt>
      <trkpt lat="44.09293" lon="7.04073">
        <ele>1419</ele>
        <time>2022-07-26T09:52:07Z</time>
      </trkpt>
      <trkpt lat="44.09293" lon="7.04074">
        <ele>1419</ele>
        <time>2022-07-26T09:52:08Z</time>
      </trkpt>
      <trkpt lat="44.09293" lon="7.04075">
        <ele>1419</ele>
        <time>2022-07-26T09:52:09Z</time>
      </trkpt>
      <trkpt lat="44.09293" lon="7.04076">
        <ele>1419</ele>
        <time>2022-07-26T09:52:10Z</time>
      </trkpt>
      <trkpt lat="44.09292" lon="7.04077">
        <ele>1419</ele>
        <time>2022-07-26T09:52:11Z</time>
      </trkpt>
      <trkpt lat="44.09292" lon="7.04078">
        <ele>1419</ele>
        <time>2022-07-26T09:52:12Z</time>
      </trkpt>
      <trkpt lat="44.09292" lon="7.04079">
        <ele>1419</ele>
        <time>2022-07-26T09:52:13Z</time>
      </trkpt>
      <trkpt lat="44.09291" lon="7.04081">
        <ele>1419</ele>
        <time>2022-07-26T09:52:14Z</time>
      </trkpt>
      <trkpt lat="44.09291" lon="7.04082">
        <ele>1419</ele>
        <time>2022-07-26T09:52:15Z</time>
      </trkpt>
      <trkpt lat="44.09291" lon="7.04084">
        <ele>1419</ele>
        <time>2022-07-26T09:52:16Z</time>
      </trkpt>
      <trkpt lat="44.09291" lon="7.04085">
        <ele>1419</ele>
        <time>2022-07-26T09:52:17Z</time>
      </trkpt>
      <trkpt lat="44.09291" lon="7.04087">
        <ele>1419</ele>
        <time>2022-07-26T09:52:18Z</time>
      </trkpt>
      <trkpt lat="44.09291" lon="7.04088">
        <ele>1419</ele>
        <time>2022-07-26T09:52:19Z</time>
      </trkpt>
      <trkpt lat="44.0929" lon="7.0409">
        <ele>1419</ele>
        <time>2022-07-26T09:52:20Z</time>
      </trkpt>
      <trkpt lat="44.0929" lon="7.04091">
        <ele>1419</ele>
        <time>2022-07-26T09:52:21Z</time>
      </trkpt>
      <trkpt lat="44.0929" lon="7.04092">
        <ele>1419</ele>
        <time>2022-07-26T09:52:22Z</time>
      </trkpt>
      <trkpt lat="44.0929" lon="7.04094">
        <ele>1419</ele>
        <time>2022-07-26T09:52:23Z</time>
      </trkpt>
      <trkpt lat="44.0929" lon="7.04095">
        <ele>1419</ele>
        <time>2022-07-26T09:52:24Z</time>
      </trkpt>
      <trkpt lat="44.0929" lon="7.04097">
        <ele>1419</ele>
        <time>2022-07-26T09:52:25Z</time>
      </trkpt>
      <trkpt lat="44.0929" lon="7.04098">
        <ele>1419</ele>
        <time>2022-07-26T09:52:26Z</time>
      </trkpt>
      <trkpt lat="44.09289" lon="7.041">
        <ele>1419</ele>
        <time>2022-07-26T09:52:27Z</time>
      </trkpt>
      <trkpt lat="44.09289" lon="7.04101">
        <ele>1419</ele>
        <time>2022-07-26T09:52:28Z</time>
      </trkpt>
      <trkpt lat="44.09289" lon="7.04103">
        <ele>1419</ele>
        <time>2022-07-26T09:52:29Z</time>
      </trkpt>
      <trkpt lat="44.09289" lon="7.04105">
        <ele>1419</ele>
        <time>2022-07-26T09:52:30Z</time>
      </trkpt>
      <trkpt lat="44.09289" lon="7.04107">
        <ele>1419</ele>
        <time>2022-07-26T09:52:31Z</time>
      </trkpt>
      <trkpt lat="44.09289" lon="7.04108">
        <ele>1419</ele>
        <time>2022-07-26T09:52:32Z</time>
      </trkpt>
      <trkpt lat="44.09289" lon="7.0411">
        <ele>1419</ele>
        <time>2022-07-26T09:52:33Z</time>
      </trkpt>
      <trkpt lat="44.09288" lon="7.04112">
        <ele>1419</ele>
        <time>2022-07-26T09:52:34Z</time>
      </trkpt>
      <trkpt lat="44.09288" lon="7.04114">
        <ele>1419</ele>
        <time>2022-07-26T09:52:35Z</time>
      </trkpt>
      <trkpt lat="44.09288" lon="7.04116">
        <ele>1419</ele>
        <time>2022-07-26T09:52:36Z</time>
      </trkpt>
      <trkpt lat="44.09288" lon="7.04117">
        <ele>1419</ele>
        <time>2022-07-26T09:52:37Z</time>
      </trkpt>
      <trkpt lat="44.09288" lon="7.04119">
        <ele>1419</ele>
        <time>2022-07-26T09:52:38Z</time>
      </trkpt>
      <trkpt lat="44.09288" lon="7.0412">
        <ele>1419</ele>
        <time>2022-07-26T09:52:39Z</time>
      </trkpt>
      <trkpt lat="44.09288" lon="7.04122">
        <ele>1419</ele>
        <time>2022-07-26T09:52:40Z</time>
      </trkpt>
      <trkpt lat="44.09288" lon="7.04123">
        <ele>1419</ele>
        <time>2022-07-26T09:52:41Z</time>
      </trkpt>
      <trkpt lat="44.09288" lon="7.04124">
        <ele>1419</ele>
        <time>2022-07-26T09:52:42Z</time>
      </trkpt>
      <trkpt lat="44.09288" lon="7.04126">
        <ele>1419</ele>
        <time>2022-07-26T09:52:43Z</time>
      </trkpt>
      <trkpt lat="44.09287" lon="7.04127">
        <ele>1419</ele>
        <time>2022-07-26T09:52:44Z</time>
      </trkpt>
      <trkpt lat="44.09287" lon="7.04129">
        <ele>1419</ele>
        <time>2022-07-26T09:52:45Z</time>
      </trkpt>
      <trkpt lat="44.09287" lon="7.0413">
        <ele>1419</ele>
        <time>2022-07-26T09:52:46Z</time>
      </trkpt>
      <trkpt lat="44.09287" lon="7.04132">
        <ele>1419</ele>
        <time>2022-07-26T09:52:47Z</time>
      </trkpt>
      <trkpt lat="44.09286" lon="7.04133">
        <ele>1419</ele>
        <time>2022-07-26T09:52:48Z</time>
      </trkpt>
      <trkpt lat="44.09286" lon="7.04134">
        <ele>1419</ele>
        <time>2022-07-26T09:52:49Z</time>
      </trkpt>
      <trkpt lat="44.09286" lon="7.04136">
        <ele>1419</ele>
        <time>2022-07-26T09:52:50Z</time>
      </trkpt>
      <trkpt lat="44.09286" lon="7.04137">
        <ele>1419</ele>
        <time>2022-07-26T09:52:51Z</time>
      </trkpt>
      <trkpt lat="44.09286" lon="7.04138">
        <ele>1419</ele>
        <time>2022-07-26T09:52:52Z</time>
      </trkpt>
      <trkpt lat="44.09286" lon="7.0414">
        <ele>1419</ele>
        <time>2022-07-26T09:52:53Z</time>
      </trkpt>
      <trkpt lat="44.09285" lon="7.04141">
        <ele>1419</ele>
        <time>2022-07-26T09:52:54Z</time>
      </trkpt>
      <trkpt lat="44.09285" lon="7.04142">
        <ele>1419</ele>
        <time>2022-07-26T09:52:55Z</time>
      </trkpt>
      <trkpt lat="44.09285" lon="7.04144">
        <ele>1419</ele>
        <time>2022-07-26T09:52:56Z</time>
      </trkpt>
      <trkpt lat="44.09285" lon="7.04145">
        <ele>1419</ele>
        <time>2022-07-26T09:52:57Z</time>
      </trkpt>
      <trkpt lat="44.09285" lon="7.04147">
        <ele>1419</ele>
        <time>2022-07-26T09:52:58Z</time>
      </trkpt>
      <trkpt lat="44.09285" lon="7.04148">
        <ele>1419</ele>
        <time>2022-07-26T09:52:59Z</time>
      </trkpt>
      <trkpt lat="44.09284" lon="7.0415">
        <ele>1420</ele>
        <time>2022-07-26T09:53:00Z</time>
      </trkpt>
      <trkpt lat="44.09284" lon="7.04151">
        <ele>1420</ele>
        <time>2022-07-26T09:53:01Z</time>
      </trkpt>
      <trkpt lat="44.09284" lon="7.04153">
        <ele>1421</ele>
        <time>2022-07-26T09:53:02Z</time>
      </trkpt>
      <trkpt lat="44.09284" lon="7.04154">
        <ele>1421</ele>
        <time>2022-07-26T09:53:03Z</time>
      </trkpt>
      <trkpt lat="44.09284" lon="7.04156">
        <ele>1421</ele>
        <time>2022-07-26T09:53:04Z</time>
      </trkpt>
      <trkpt lat="44.09284" lon="7.04157">
        <ele>1421</ele>
        <time>2022-07-26T09:53:05Z</time>
      </trkpt>
      <trkpt lat="44.09284" lon="7.04158">
        <ele>1421</ele>
        <time>2022-07-26T09:53:06Z</time>
      </trkpt>
      <trkpt lat="44.09284" lon="7.0416">
        <ele>1421</ele>
        <time>2022-07-26T09:53:07Z</time>
      </trkpt>
      <trkpt lat="44.09284" lon="7.04161">
        <ele>1421</ele>
        <time>2022-07-26T09:53:08Z</time>
      </trkpt>
      <trkpt lat="44.09284" lon="7.04163">
        <ele>1421</ele>
        <time>2022-07-26T09:53:09Z</time>
      </trkpt>
      <trkpt lat="44.09284" lon="7.04164">
        <ele>1421</ele>
        <time>2022-07-26T09:53:10Z</time>
      </trkpt>
      <trkpt lat="44.09284" lon="7.04166">
        <ele>1421</ele>
        <time>2022-07-26T09:53:11Z</time>
      </trkpt>
      <trkpt lat="44.09284" lon="7.04167">
        <ele>1421</ele>
        <time>2022-07-26T09:53:12Z</time>
      </trkpt>
      <trkpt lat="44.09284" lon="7.04169">
        <ele>1421</ele>
        <time>2022-07-26T09:53:13Z</time>
      </trkpt>
      <trkpt lat="44.09284" lon="7.0417">
        <ele>1421</ele>
        <time>2022-07-26T09:53:14Z</time>
      </trkpt>
      <trkpt lat="44.09284" lon="7.04172">
        <ele>1421</ele>
        <time>2022-07-26T09:53:15Z</time>
      </trkpt>
      <trkpt lat="44.09284" lon="7.04173">
        <ele>1421</ele>
        <time>2022-07-26T09:53:16Z</time>
      </trkpt>
      <trkpt lat="44.09284" lon="7.04175">
        <ele>1421</ele>
        <time>2022-07-26T09:53:17Z</time>
      </trkpt>
      <trkpt lat="44.09284" lon="7.04176">
        <ele>1421</ele>
        <time>2022-07-26T09:53:18Z</time>
      </trkpt>
      <trkpt lat="44.09283" lon="7.04177">
        <ele>1421</ele>
        <time>2022-07-26T09:53:19Z</time>
      </trkpt>
      <trkpt lat="44.09283" lon="7.04178">
        <ele>1421</ele>
        <time>2022-07-26T09:53:20Z</time>
      </trkpt>
      <trkpt lat="44.09283" lon="7.0418">
        <ele>1421</ele>
        <time>2022-07-26T09:53:21Z</time>
      </trkpt>
      <trkpt lat="44.09283" lon="7.04181">
        <ele>1421</ele>
        <time>2022-07-26T09:53:22Z</time>
      </trkpt>
      <trkpt lat="44.09283" lon="7.04183">
        <ele>1421</ele>
        <time>2022-07-26T09:53:23Z</time>
      </trkpt>
      <trkpt lat="44.09284" lon="7.04184">
        <ele>1421</ele>
        <time>2022-07-26T09:53:24Z</time>
      </trkpt>
      <trkpt lat="44.09284" lon="7.04185">
        <ele>1421</ele>
        <time>2022-07-26T09:53:25Z</time>
      </trkpt>
      <trkpt lat="44.09284" lon="7.04187">
        <ele>1421</ele>
        <time>2022-07-26T09:53:26Z</time>
      </trkpt>
      <trkpt lat="44.09284" lon="7.04188">
        <ele>1421</ele>
        <time>2022-07-26T09:53:27Z</time>
      </trkpt>
      <trkpt lat="44.09284" lon="7.0419">
        <ele>1421</ele>
        <time>2022-07-26T09:53:28Z</time>
      </trkpt>
      <trkpt lat="44.09284" lon="7.04192">
        <ele>1421</ele>
        <time>2022-07-26T09:53:29Z</time>
      </trkpt>
      <trkpt lat="44.09283" lon="7.04193">
        <ele>1421</ele>
        <time>2022-07-26T09:53:30Z</time>
      </trkpt>
      <trkpt lat="44.09283" lon="7.04195">
        <ele>1421</ele>
        <time>2022-07-26T09:53:31Z</time>
      </trkpt>
      <trkpt lat="44.09283" lon="7.04197">
        <ele>1421</ele>
        <time>2022-07-26T09:53:32Z</time>
      </trkpt>
      <trkpt lat="44.09283" lon="7.04199">
        <ele>1421</ele>
        <time>2022-07-26T09:53:33Z</time>
      </trkpt>
      <trkpt lat="44.09283" lon="7.04201">
        <ele>1421</ele>
        <time>2022-07-26T09:53:34Z</time>
      </trkpt>
      <trkpt lat="44.09283" lon="7.04203">
        <ele>1421</ele>
        <time>2022-07-26T09:53:35Z</time>
      </trkpt>
      <trkpt lat="44.09283" lon="7.04204">
        <ele>1421</ele>
        <time>2022-07-26T09:53:36Z</time>
      </trkpt>
      <trkpt lat="44.09283" lon="7.04206">
        <ele>1421</ele>
        <time>2022-07-26T09:53:37Z</time>
      </trkpt>
      <trkpt lat="44.09283" lon="7.04207">
        <ele>1421</ele>
        <time>2022-07-26T09:53:38Z</time>
      </trkpt>
      <trkpt lat="44.09283" lon="7.04209">
        <ele>1421</ele>
        <time>2022-07-26T09:53:39Z</time>
      </trkpt>
      <trkpt lat="44.09283" lon="7.04211">
        <ele>1421</ele>
        <time>2022-07-26T09:53:40Z</time>
      </trkpt>
      <trkpt lat="44.09282" lon="7.04212">
        <ele>1421</ele>
        <time>2022-07-26T09:53:41Z</time>
      </trkpt>
      <trkpt lat="44.09282" lon="7.04214">
        <ele>1421</ele>
        <time>2022-07-26T09:53:42Z</time>
      </trkpt>
      <trkpt lat="44.09282" lon="7.04216">
        <ele>1421</ele>
        <time>2022-07-26T09:53:43Z</time>
      </trkpt>
      <trkpt lat="44.09283" lon="7.04217">
        <ele>1421</ele>
        <time>2022-07-26T09:53:44Z</time>
      </trkpt>
      <trkpt lat="44.09283" lon="7.04219">
        <ele>1421</ele>
        <time>2022-07-26T09:53:45Z</time>
      </trkpt>
      <trkpt lat="44.09283" lon="7.04221">
        <ele>1421</ele>
        <time>2022-07-26T09:53:46Z</time>
      </trkpt>
      <trkpt lat="44.09283" lon="7.04223">
        <ele>1421</ele>
        <time>2022-07-26T09:53:47Z</time>
      </trkpt>
      <trkpt lat="44.09283" lon="7.04224">
        <ele>1421</ele>
        <time>2022-07-26T09:53:48Z</time>
      </trkpt>
      <trkpt lat="44.09283" lon="7.04226">
        <ele>1421</ele>
        <time>2022-07-26T09:53:49Z</time>
      </trkpt>
      <trkpt lat="44.09283" lon="7.04228">
        <ele>1421</ele>
        <time>2022-07-26T09:53:50Z</time>
      </trkpt>
      <trkpt lat="44.09283" lon="7.04229">
        <ele>1421</ele>
        <time>2022-07-26T09:53:51Z</time>
      </trkpt>
      <trkpt lat="44.09283" lon="7.04231">
        <ele>1421</ele>
        <time>2022-07-26T09:53:52Z</time>
      </trkpt>
      <trkpt lat="44.09283" lon="7.04233">
        <ele>1421</ele>
        <time>2022-07-26T09:53:53Z</time>
      </trkpt>
      <trkpt lat="44.09283" lon="7.04234">
        <ele>1421</ele>
        <time>2022-07-26T09:53:54Z</time>
      </trkpt>
      <trkpt lat="44.09283" lon="7.04235">
        <ele>1421</ele>
        <time>2022-07-26T09:53:55Z</time>
      </trkpt>
      <trkpt lat="44.09283" lon="7.04237">
        <ele>1421</ele>
        <time>2022-07-26T09:53:56Z</time>
      </trkpt>
      <trkpt lat="44.09284" lon="7.04238">
        <ele>1421</ele>
        <time>2022-07-26T09:53:57Z</time>
      </trkpt>
      <trkpt lat="44.09284" lon="7.04239">
        <ele>1420</ele>
        <time>2022-07-26T09:53:58Z</time>
      </trkpt>
      <trkpt lat="44.09284" lon="7.0424">
        <ele>1420</ele>
        <time>2022-07-26T09:53:59Z</time>
      </trkpt>
      <trkpt lat="44.09285" lon="7.04241">
        <ele>1419</ele>
        <time>2022-07-26T09:54:00Z</time>
      </trkpt>
      <trkpt lat="44.09285" lon="7.04242">
        <ele>1419</ele>
        <time>2022-07-26T09:54:01Z</time>
      </trkpt>
      <trkpt lat="44.09286" lon="7.04243">
        <ele>1419</ele>
        <time>2022-07-26T09:54:02Z</time>
      </trkpt>
      <trkpt lat="44.09287" lon="7.04244">
        <ele>1419</ele>
        <time>2022-07-26T09:54:03Z</time>
      </trkpt>
      <trkpt lat="44.09287" lon="7.04246">
        <ele>1419</ele>
        <time>2022-07-26T09:54:04Z</time>
      </trkpt>
      <trkpt lat="44.09287" lon="7.04247">
        <ele>1419</ele>
        <time>2022-07-26T09:54:05Z</time>
      </trkpt>
      <trkpt lat="44.09287" lon="7.04249">
        <ele>1419</ele>
        <time>2022-07-26T09:54:06Z</time>
      </trkpt>
      <trkpt lat="44.09288" lon="7.04251">
        <ele>1419</ele>
        <time>2022-07-26T09:54:07Z</time>
      </trkpt>
      <trkpt lat="44.09288" lon="7.04252">
        <ele>1419</ele>
        <time>2022-07-26T09:54:08Z</time>
      </trkpt>
      <trkpt lat="44.09288" lon="7.04254">
        <ele>1419</ele>
        <time>2022-07-26T09:54:09Z</time>
      </trkpt>
      <trkpt lat="44.09288" lon="7.04255">
        <ele>1419</ele>
        <time>2022-07-26T09:54:10Z</time>
      </trkpt>
      <trkpt lat="44.09288" lon="7.04257">
        <ele>1419</ele>
        <time>2022-07-26T09:54:11Z</time>
      </trkpt>
      <trkpt lat="44.09288" lon="7.04259">
        <ele>1419</ele>
        <time>2022-07-26T09:54:12Z</time>
      </trkpt>
      <trkpt lat="44.09288" lon="7.0426">
        <ele>1418</ele>
        <time>2022-07-26T09:54:13Z</time>
      </trkpt>
      <trkpt lat="44.09288" lon="7.04262">
        <ele>1418</ele>
        <time>2022-07-26T09:54:14Z</time>
      </trkpt>
      <trkpt lat="44.09288" lon="7.04263">
        <ele>1418</ele>
        <time>2022-07-26T09:54:15Z</time>
      </trkpt>
      <trkpt lat="44.09288" lon="7.04265">
        <ele>1418</ele>
        <time>2022-07-26T09:54:16Z</time>
      </trkpt>
      <trkpt lat="44.09288" lon="7.04266">
        <ele>1418</ele>
        <time>2022-07-26T09:54:17Z</time>
      </trkpt>
      <trkpt lat="44.09288" lon="7.04268">
        <ele>1418</ele>
        <time>2022-07-26T09:54:18Z</time>
      </trkpt>
      <trkpt lat="44.09288" lon="7.04269">
        <ele>1418</ele>
        <time>2022-07-26T09:54:19Z</time>
      </trkpt>
      <trkpt lat="44.09287" lon="7.04271">
        <ele>1418</ele>
        <time>2022-07-26T09:54:20Z</time>
      </trkpt>
      <trkpt lat="44.09287" lon="7.04272">
        <ele>1418</ele>
        <time>2022-07-26T09:54:21Z</time>
      </trkpt>
      <trkpt lat="44.09286" lon="7.04274">
        <ele>1418</ele>
        <time>2022-07-26T09:54:22Z</time>
      </trkpt>
      <trkpt lat="44.09286" lon="7.04275">
        <ele>1418</ele>
        <time>2022-07-26T09:54:23Z</time>
      </trkpt>
      <trkpt lat="44.09285" lon="7.04277">
        <ele>1418</ele>
        <time>2022-07-26T09:54:24Z</time>
      </trkpt>
      <trkpt lat="44.09285" lon="7.04278">
        <ele>1418</ele>
        <time>2022-07-26T09:54:25Z</time>
      </trkpt>
      <trkpt lat="44.09284" lon="7.0428">
        <ele>1418</ele>
        <time>2022-07-26T09:54:26Z</time>
      </trkpt>
      <trkpt lat="44.09283" lon="7.04281">
        <ele>1418</ele>
        <time>2022-07-26T09:54:27Z</time>
      </trkpt>
      <trkpt lat="44.09283" lon="7.04283">
        <ele>1417</ele>
        <time>2022-07-26T09:54:28Z</time>
      </trkpt>
      <trkpt lat="44.09282" lon="7.04284">
        <ele>1417</ele>
        <time>2022-07-26T09:54:29Z</time>
      </trkpt>
      <trkpt lat="44.09282" lon="7.04286">
        <ele>1417</ele>
        <time>2022-07-26T09:54:30Z</time>
      </trkpt>
      <trkpt lat="44.09281" lon="7.04288">
        <ele>1417</ele>
        <time>2022-07-26T09:54:31Z</time>
      </trkpt>
      <trkpt lat="44.09281" lon="7.04289">
        <ele>1417</ele>
        <time>2022-07-26T09:54:32Z</time>
      </trkpt>
      <trkpt lat="44.09281" lon="7.04291">
        <ele>1417</ele>
        <time>2022-07-26T09:54:33Z</time>
      </trkpt>
      <trkpt lat="44.0928" lon="7.04292">
        <ele>1417</ele>
        <time>2022-07-26T09:54:34Z</time>
      </trkpt>
      <trkpt lat="44.0928" lon="7.04294">
        <ele>1417</ele>
        <time>2022-07-26T09:54:35Z</time>
      </trkpt>
      <trkpt lat="44.0928" lon="7.04295">
        <ele>1417</ele>
        <time>2022-07-26T09:54:36Z</time>
      </trkpt>
      <trkpt lat="44.0928" lon="7.04297">
        <ele>1417</ele>
        <time>2022-07-26T09:54:37Z</time>
      </trkpt>
      <trkpt lat="44.0928" lon="7.04298">
        <ele>1416</ele>
        <time>2022-07-26T09:54:38Z</time>
      </trkpt>
      <trkpt lat="44.0928" lon="7.043">
        <ele>1416</ele>
        <time>2022-07-26T09:54:39Z</time>
      </trkpt>
      <trkpt lat="44.0928" lon="7.04301">
        <ele>1416</ele>
        <time>2022-07-26T09:54:40Z</time>
      </trkpt>
      <trkpt lat="44.0928" lon="7.04303">
        <ele>1416</ele>
        <time>2022-07-26T09:54:41Z</time>
      </trkpt>
      <trkpt lat="44.0928" lon="7.04304">
        <ele>1416</ele>
        <time>2022-07-26T09:54:42Z</time>
      </trkpt>
      <trkpt lat="44.0928" lon="7.04306">
        <ele>1416</ele>
        <time>2022-07-26T09:54:43Z</time>
      </trkpt>
      <trkpt lat="44.0928" lon="7.04308">
        <ele>1416</ele>
        <time>2022-07-26T09:54:44Z</time>
      </trkpt>
      <trkpt lat="44.0928" lon="7.04309">
        <ele>1416</ele>
        <time>2022-07-26T09:54:45Z</time>
      </trkpt>
      <trkpt lat="44.0928" lon="7.04311">
        <ele>1416</ele>
        <time>2022-07-26T09:54:46Z</time>
      </trkpt>
      <trkpt lat="44.09279" lon="7.04312">
        <ele>1416</ele>
        <time>2022-07-26T09:54:47Z</time>
      </trkpt>
      <trkpt lat="44.09279" lon="7.04314">
        <ele>1416</ele>
        <time>2022-07-26T09:54:48Z</time>
      </trkpt>
      <trkpt lat="44.09279" lon="7.04315">
        <ele>1416</ele>
        <time>2022-07-26T09:54:49Z</time>
      </trkpt>
      <trkpt lat="44.09278" lon="7.04317">
        <ele>1416</ele>
        <time>2022-07-26T09:54:50Z</time>
      </trkpt>
      <trkpt lat="44.09278" lon="7.04319">
        <ele>1416</ele>
        <time>2022-07-26T09:54:51Z</time>
      </trkpt>
      <trkpt lat="44.09277" lon="7.0432">
        <ele>1416</ele>
        <time>2022-07-26T09:54:52Z</time>
      </trkpt>
      <trkpt lat="44.09277" lon="7.04322">
        <ele>1415</ele>
        <time>2022-07-26T09:54:53Z</time>
      </trkpt>
      <trkpt lat="44.09277" lon="7.04323">
        <ele>1415</ele>
        <time>2022-07-26T09:54:54Z</time>
      </trkpt>
      <trkpt lat="44.09276" lon="7.04325">
        <ele>1415</ele>
        <time>2022-07-26T09:54:55Z</time>
      </trkpt>
      <trkpt lat="44.09276" lon="7.04327">
        <ele>1415</ele>
        <time>2022-07-26T09:54:56Z</time>
      </trkpt>
      <trkpt lat="44.09276" lon="7.04328">
        <ele>1415</ele>
        <time>2022-07-26T09:54:57Z</time>
      </trkpt>
      <trkpt lat="44.09275" lon="7.0433">
        <ele>1415</ele>
        <time>2022-07-26T09:54:58Z</time>
      </trkpt>
      <trkpt lat="44.09275" lon="7.04332">
        <ele>1415</ele>
        <time>2022-07-26T09:54:59Z</time>
      </trkpt>
      <trkpt lat="44.09275" lon="7.04333">
        <ele>1415</ele>
        <time>2022-07-26T09:55:00Z</time>
      </trkpt>
      <trkpt lat="44.09275" lon="7.04335">
        <ele>1415</ele>
        <time>2022-07-26T09:55:01Z</time>
      </trkpt>
      <trkpt lat="44.09275" lon="7.04336">
        <ele>1415</ele>
        <time>2022-07-26T09:55:02Z</time>
      </trkpt>
      <trkpt lat="44.09275" lon="7.04338">
        <ele>1415</ele>
        <time>2022-07-26T09:55:03Z</time>
      </trkpt>
      <trkpt lat="44.09275" lon="7.04339">
        <ele>1415</ele>
        <time>2022-07-26T09:55:04Z</time>
      </trkpt>
      <trkpt lat="44.09275" lon="7.0434">
        <ele>1415</ele>
        <time>2022-07-26T09:55:05Z</time>
      </trkpt>
      <trkpt lat="44.09275" lon="7.04342">
        <ele>1415</ele>
        <time>2022-07-26T09:55:06Z</time>
      </trkpt>
      <trkpt lat="44.09275" lon="7.04343">
        <ele>1415</ele>
        <time>2022-07-26T09:55:07Z</time>
      </trkpt>
      <trkpt lat="44.09275" lon="7.04345">
        <ele>1415</ele>
        <time>2022-07-26T09:55:08Z</time>
      </trkpt>
      <trkpt lat="44.09275" lon="7.04346">
        <ele>1415</ele>
        <time>2022-07-26T09:55:09Z</time>
      </trkpt>
      <trkpt lat="44.09274" lon="7.04348">
        <ele>1415</ele>
        <time>2022-07-26T09:55:10Z</time>
      </trkpt>
      <trkpt lat="44.09274" lon="7.04349">
        <ele>1415</ele>
        <time>2022-07-26T09:55:11Z</time>
      </trkpt>
      <trkpt lat="44.09274" lon="7.04351">
        <ele>1415</ele>
        <time>2022-07-26T09:55:12Z</time>
      </trkpt>
      <trkpt lat="44.09274" lon="7.04353">
        <ele>1415</ele>
        <time>2022-07-26T09:55:13Z</time>
      </trkpt>
      <trkpt lat="44.09273" lon="7.04355">
        <ele>1415</ele>
        <time>2022-07-26T09:55:14Z</time>
      </trkpt>
      <trkpt lat="44.09273" lon="7.04357">
        <ele>1415</ele>
        <time>2022-07-26T09:55:15Z</time>
      </trkpt>
      <trkpt lat="44.09273" lon="7.04359">
        <ele>1415</ele>
        <time>2022-07-26T09:55:16Z</time>
      </trkpt>
      <trkpt lat="44.09273" lon="7.0436">
        <ele>1415</ele>
        <time>2022-07-26T09:55:17Z</time>
      </trkpt>
      <trkpt lat="44.09274" lon="7.04362">
        <ele>1414</ele>
        <time>2022-07-26T09:55:18Z</time>
      </trkpt>
      <trkpt lat="44.09274" lon="7.04363">
        <ele>1414</ele>
        <time>2022-07-26T09:55:19Z</time>
      </trkpt>
      <trkpt lat="44.09275" lon="7.04365">
        <ele>1414</ele>
        <time>2022-07-26T09:55:20Z</time>
      </trkpt>
      <trkpt lat="44.09275" lon="7.04366">
        <ele>1414</ele>
        <time>2022-07-26T09:55:21Z</time>
      </trkpt>
      <trkpt lat="44.09275" lon="7.04367">
        <ele>1414</ele>
        <time>2022-07-26T09:55:22Z</time>
      </trkpt>
      <trkpt lat="44.09276" lon="7.04369">
        <ele>1414</ele>
        <time>2022-07-26T09:55:23Z</time>
      </trkpt>
      <trkpt lat="44.09276" lon="7.0437">
        <ele>1414</ele>
        <time>2022-07-26T09:55:24Z</time>
      </trkpt>
      <trkpt lat="44.09277" lon="7.04371">
        <ele>1414</ele>
        <time>2022-07-26T09:55:25Z</time>
      </trkpt>
      <trkpt lat="44.09277" lon="7.04373">
        <ele>1414</ele>
        <time>2022-07-26T09:55:26Z</time>
      </trkpt>
      <trkpt lat="44.09277" lon="7.04374">
        <ele>1414</ele>
        <time>2022-07-26T09:55:27Z</time>
      </trkpt>
      <trkpt lat="44.09277" lon="7.04375">
        <ele>1414</ele>
        <time>2022-07-26T09:55:28Z</time>
      </trkpt>
      <trkpt lat="44.09278" lon="7.04377">
        <ele>1414</ele>
        <time>2022-07-26T09:55:29Z</time>
      </trkpt>
      <trkpt lat="44.09278" lon="7.04378">
        <ele>1414</ele>
        <time>2022-07-26T09:55:30Z</time>
      </trkpt>
      <trkpt lat="44.09278" lon="7.04379">
        <ele>1414</ele>
        <time>2022-07-26T09:55:31Z</time>
      </trkpt>
      <trkpt lat="44.09278" lon="7.0438">
        <ele>1414</ele>
        <time>2022-07-26T09:55:32Z</time>
      </trkpt>
      <trkpt lat="44.09278" lon="7.04381">
        <ele>1414</ele>
        <time>2022-07-26T09:55:33Z</time>
      </trkpt>
      <trkpt lat="44.09277" lon="7.04383">
        <ele>1414</ele>
        <time>2022-07-26T09:55:34Z</time>
      </trkpt>
      <trkpt lat="44.09277" lon="7.04384">
        <ele>1414</ele>
        <time>2022-07-26T09:55:35Z</time>
      </trkpt>
      <trkpt lat="44.09277" lon="7.04385">
        <ele>1414</ele>
        <time>2022-07-26T09:55:36Z</time>
      </trkpt>
      <trkpt lat="44.09277" lon="7.04386">
        <ele>1414</ele>
        <time>2022-07-26T09:55:37Z</time>
      </trkpt>
      <trkpt lat="44.09276" lon="7.04388">
        <ele>1413</ele>
        <time>2022-07-26T09:55:38Z</time>
      </trkpt>
      <trkpt lat="44.09276" lon="7.04389">
        <ele>1413</ele>
        <time>2022-07-26T09:55:39Z</time>
      </trkpt>
      <trkpt lat="44.09276" lon="7.0439">
        <ele>1413</ele>
        <time>2022-07-26T09:55:40Z</time>
      </trkpt>
      <trkpt lat="44.09276" lon="7.04392">
        <ele>1413</ele>
        <time>2022-07-26T09:55:41Z</time>
      </trkpt>
      <trkpt lat="44.09276" lon="7.04393">
        <ele>1413</ele>
        <time>2022-07-26T09:55:42Z</time>
      </trkpt>
      <trkpt lat="44.09275" lon="7.04394">
        <ele>1413</ele>
        <time>2022-07-26T09:55:43Z</time>
      </trkpt>
      <trkpt lat="44.09275" lon="7.04396">
        <ele>1413</ele>
        <time>2022-07-26T09:55:44Z</time>
      </trkpt>
      <trkpt lat="44.09275" lon="7.04397">
        <ele>1413</ele>
        <time>2022-07-26T09:55:45Z</time>
      </trkpt>
      <trkpt lat="44.09274" lon="7.04398">
        <ele>1413</ele>
        <time>2022-07-26T09:55:46Z</time>
      </trkpt>
      <trkpt lat="44.09273" lon="7.044">
        <ele>1413</ele>
        <time>2022-07-26T09:55:47Z</time>
      </trkpt>
      <trkpt lat="44.09273" lon="7.04401">
        <ele>1413</ele>
        <time>2022-07-26T09:55:48Z</time>
      </trkpt>
      <trkpt lat="44.09273" lon="7.04402">
        <ele>1413</ele>
        <time>2022-07-26T09:55:49Z</time>
      </trkpt>
      <trkpt lat="44.09272" lon="7.04404">
        <ele>1413</ele>
        <time>2022-07-26T09:55:50Z</time>
      </trkpt>
      <trkpt lat="44.09272" lon="7.04405">
        <ele>1413</ele>
        <time>2022-07-26T09:55:51Z</time>
      </trkpt>
      <trkpt lat="44.09271" lon="7.04406">
        <ele>1413</ele>
        <time>2022-07-26T09:55:52Z</time>
      </trkpt>
      <trkpt lat="44.09271" lon="7.04408">
        <ele>1412</ele>
        <time>2022-07-26T09:55:53Z</time>
      </trkpt>
      <trkpt lat="44.0927" lon="7.04409">
        <ele>1412</ele>
        <time>2022-07-26T09:55:54Z</time>
      </trkpt>
      <trkpt lat="44.0927" lon="7.0441">
        <ele>1412</ele>
        <time>2022-07-26T09:55:55Z</time>
      </trkpt>
      <trkpt lat="44.09269" lon="7.04412">
        <ele>1412</ele>
        <time>2022-07-26T09:55:56Z</time>
      </trkpt>
      <trkpt lat="44.09269" lon="7.04413">
        <ele>1412</ele>
        <time>2022-07-26T09:55:57Z</time>
      </trkpt>
      <trkpt lat="44.09268" lon="7.04414">
        <ele>1412</ele>
        <time>2022-07-26T09:55:58Z</time>
      </trkpt>
      <trkpt lat="44.09267" lon="7.04416">
        <ele>1412</ele>
        <time>2022-07-26T09:55:59Z</time>
      </trkpt>
      <trkpt lat="44.09267" lon="7.04417">
        <ele>1412</ele>
        <time>2022-07-26T09:56:00Z</time>
      </trkpt>
      <trkpt lat="44.09266" lon="7.04418">
        <ele>1412</ele>
        <time>2022-07-26T09:56:01Z</time>
      </trkpt>
      <trkpt lat="44.09266" lon="7.0442">
        <ele>1412</ele>
        <time>2022-07-26T09:56:02Z</time>
      </trkpt>
      <trkpt lat="44.09265" lon="7.04421">
        <ele>1412</ele>
        <time>2022-07-26T09:56:03Z</time>
      </trkpt>
      <trkpt lat="44.09265" lon="7.04422">
        <ele>1412</ele>
        <time>2022-07-26T09:56:04Z</time>
      </trkpt>
      <trkpt lat="44.09264" lon="7.04424">
        <ele>1412</ele>
        <time>2022-07-26T09:56:05Z</time>
      </trkpt>
      <trkpt lat="44.09263" lon="7.04425">
        <ele>1412</ele>
        <time>2022-07-26T09:56:06Z</time>
      </trkpt>
      <trkpt lat="44.09263" lon="7.04426">
        <ele>1412</ele>
        <time>2022-07-26T09:56:07Z</time>
      </trkpt>
      <trkpt lat="44.09262" lon="7.04428">
        <ele>1411</ele>
        <time>2022-07-26T09:56:08Z</time>
      </trkpt>
      <trkpt lat="44.09261" lon="7.04429">
        <ele>1411</ele>
        <time>2022-07-26T09:56:09Z</time>
      </trkpt>
      <trkpt lat="44.0926" lon="7.0443">
        <ele>1411</ele>
        <time>2022-07-26T09:56:10Z</time>
      </trkpt>
      <trkpt lat="44.0926" lon="7.04431">
        <ele>1411</ele>
        <time>2022-07-26T09:56:11Z</time>
      </trkpt>
      <trkpt lat="44.09259" lon="7.04432">
        <ele>1411</ele>
        <time>2022-07-26T09:56:12Z</time>
      </trkpt>
      <trkpt lat="44.09258" lon="7.04434">
        <ele>1411</ele>
        <time>2022-07-26T09:56:13Z</time>
      </trkpt>
      <trkpt lat="44.09258" lon="7.04435">
        <ele>1411</ele>
        <time>2022-07-26T09:56:14Z</time>
      </trkpt>
      <trkpt lat="44.09257" lon="7.04436">
        <ele>1411</ele>
        <time>2022-07-26T09:56:15Z</time>
      </trkpt>
      <trkpt lat="44.09257" lon="7.04438">
        <ele>1411</ele>
        <time>2022-07-26T09:56:16Z</time>
      </trkpt>
      <trkpt lat="44.09257" lon="7.04439">
        <ele>1411</ele>
        <time>2022-07-26T09:56:17Z</time>
      </trkpt>
      <trkpt lat="44.09256" lon="7.04441">
        <ele>1410</ele>
        <time>2022-07-26T09:56:18Z</time>
      </trkpt>
      <trkpt lat="44.09256" lon="7.04442">
        <ele>1410</ele>
        <time>2022-07-26T09:56:19Z</time>
      </trkpt>
      <trkpt lat="44.09255" lon="7.04444">
        <ele>1410</ele>
        <time>2022-07-26T09:56:20Z</time>
      </trkpt>
      <trkpt lat="44.09255" lon="7.04445">
        <ele>1410</ele>
        <time>2022-07-26T09:56:21Z</time>
      </trkpt>
      <trkpt lat="44.09254" lon="7.04447">
        <ele>1410</ele>
        <time>2022-07-26T09:56:22Z</time>
      </trkpt>
      <trkpt lat="44.09253" lon="7.04449">
        <ele>1409</ele>
        <time>2022-07-26T09:56:23Z</time>
      </trkpt>
      <trkpt lat="44.09252" lon="7.0445">
        <ele>1409</ele>
        <time>2022-07-26T09:56:24Z</time>
      </trkpt>
      <trkpt lat="44.09252" lon="7.04452">
        <ele>1409</ele>
        <time>2022-07-26T09:56:25Z</time>
      </trkpt>
      <trkpt lat="44.09251" lon="7.04454">
        <ele>1409</ele>
        <time>2022-07-26T09:56:26Z</time>
      </trkpt>
      <trkpt lat="44.0925" lon="7.04455">
        <ele>1409</ele>
        <time>2022-07-26T09:56:27Z</time>
      </trkpt>
      <trkpt lat="44.0925" lon="7.04457">
        <ele>1409</ele>
        <time>2022-07-26T09:56:28Z</time>
      </trkpt>
      <trkpt lat="44.09249" lon="7.04458">
        <ele>1409</ele>
        <time>2022-07-26T09:56:29Z</time>
      </trkpt>
      <trkpt lat="44.09249" lon="7.0446">
        <ele>1409</ele>
        <time>2022-07-26T09:56:30Z</time>
      </trkpt>
      <trkpt lat="44.09248" lon="7.04461">
        <ele>1409</ele>
        <time>2022-07-26T09:56:31Z</time>
      </trkpt>
      <trkpt lat="44.09248" lon="7.04462">
        <ele>1409</ele>
        <time>2022-07-26T09:56:32Z</time>
      </trkpt>
      <trkpt lat="44.09247" lon="7.04464">
        <ele>1408</ele>
        <time>2022-07-26T09:56:33Z</time>
      </trkpt>
      <trkpt lat="44.09246" lon="7.04465">
        <ele>1408</ele>
        <time>2022-07-26T09:56:34Z</time>
      </trkpt>
      <trkpt lat="44.09246" lon="7.04466">
        <ele>1408</ele>
        <time>2022-07-26T09:56:35Z</time>
      </trkpt>
      <trkpt lat="44.09245" lon="7.04468">
        <ele>1408</ele>
        <time>2022-07-26T09:56:36Z</time>
      </trkpt>
      <trkpt lat="44.09245" lon="7.04469">
        <ele>1408</ele>
        <time>2022-07-26T09:56:37Z</time>
      </trkpt>
      <trkpt lat="44.09244" lon="7.04471">
        <ele>1408</ele>
        <time>2022-07-26T09:56:38Z</time>
      </trkpt>
      <trkpt lat="44.09244" lon="7.04473">
        <ele>1408</ele>
        <time>2022-07-26T09:56:39Z</time>
      </trkpt>
      <trkpt lat="44.09244" lon="7.04474">
        <ele>1408</ele>
        <time>2022-07-26T09:56:40Z</time>
      </trkpt>
      <trkpt lat="44.09244" lon="7.04476">
        <ele>1408</ele>
        <time>2022-07-26T09:56:41Z</time>
      </trkpt>
      <trkpt lat="44.09244" lon="7.04478">
        <ele>1408</ele>
        <time>2022-07-26T09:56:42Z</time>
      </trkpt>
      <trkpt lat="44.09244" lon="7.04479">
        <ele>1407</ele>
        <time>2022-07-26T09:56:43Z</time>
      </trkpt>
      <trkpt lat="44.09244" lon="7.04481">
        <ele>1407</ele>
        <time>2022-07-26T09:56:44Z</time>
      </trkpt>
      <trkpt lat="44.09244" lon="7.04483">
        <ele>1407</ele>
        <time>2022-07-26T09:56:45Z</time>
      </trkpt>
      <trkpt lat="44.09244" lon="7.04484">
        <ele>1407</ele>
        <time>2022-07-26T09:56:46Z</time>
      </trkpt>
      <trkpt lat="44.09244" lon="7.04485">
        <ele>1407</ele>
        <time>2022-07-26T09:56:47Z</time>
      </trkpt>
      <trkpt lat="44.09244" lon="7.04487">
        <ele>1406</ele>
        <time>2022-07-26T09:56:48Z</time>
      </trkpt>
      <trkpt lat="44.09244" lon="7.04488">
        <ele>1406</ele>
        <time>2022-07-26T09:56:49Z</time>
      </trkpt>
      <trkpt lat="44.09244" lon="7.04489">
        <ele>1406</ele>
        <time>2022-07-26T09:56:50Z</time>
      </trkpt>
      <trkpt lat="44.09245" lon="7.04491">
        <ele>1406</ele>
        <time>2022-07-26T09:56:51Z</time>
      </trkpt>
      <trkpt lat="44.09245" lon="7.04492">
        <ele>1406</ele>
        <time>2022-07-26T09:56:52Z</time>
      </trkpt>
      <trkpt lat="44.09245" lon="7.04493">
        <ele>1406</ele>
        <time>2022-07-26T09:56:53Z</time>
      </trkpt>
      <trkpt lat="44.09246" lon="7.04495">
        <ele>1406</ele>
        <time>2022-07-26T09:56:54Z</time>
      </trkpt>
      <trkpt lat="44.09246" lon="7.04496">
        <ele>1406</ele>
        <time>2022-07-26T09:56:55Z</time>
      </trkpt>
      <trkpt lat="44.09246" lon="7.04498">
        <ele>1406</ele>
        <time>2022-07-26T09:56:56Z</time>
      </trkpt>
      <trkpt lat="44.09246" lon="7.045">
        <ele>1406</ele>
        <time>2022-07-26T09:56:57Z</time>
      </trkpt>
      <trkpt lat="44.09246" lon="7.04501">
        <ele>1405</ele>
        <time>2022-07-26T09:56:58Z</time>
      </trkpt>
      <trkpt lat="44.09247" lon="7.04503">
        <ele>1405</ele>
        <time>2022-07-26T09:56:59Z</time>
      </trkpt>
      <trkpt lat="44.09247" lon="7.04505">
        <ele>1405</ele>
        <time>2022-07-26T09:57:00Z</time>
      </trkpt>
      <trkpt lat="44.09247" lon="7.04506">
        <ele>1405</ele>
        <time>2022-07-26T09:57:01Z</time>
      </trkpt>
      <trkpt lat="44.09247" lon="7.04508">
        <ele>1405</ele>
        <time>2022-07-26T09:57:02Z</time>
      </trkpt>
      <trkpt lat="44.09247" lon="7.0451">
        <ele>1405</ele>
        <time>2022-07-26T09:57:03Z</time>
      </trkpt>
      <trkpt lat="44.09248" lon="7.04511">
        <ele>1405</ele>
        <time>2022-07-26T09:57:04Z</time>
      </trkpt>
      <trkpt lat="44.09248" lon="7.04513">
        <ele>1405</ele>
        <time>2022-07-26T09:57:05Z</time>
      </trkpt>
      <trkpt lat="44.09248" lon="7.04515">
        <ele>1405</ele>
        <time>2022-07-26T09:57:06Z</time>
      </trkpt>
      <trkpt lat="44.09249" lon="7.04516">
        <ele>1405</ele>
        <time>2022-07-26T09:57:07Z</time>
      </trkpt>
      <trkpt lat="44.09249" lon="7.04518">
        <ele>1404</ele>
        <time>2022-07-26T09:57:08Z</time>
      </trkpt>
      <trkpt lat="44.09249" lon="7.0452">
        <ele>1404</ele>
        <time>2022-07-26T09:57:09Z</time>
      </trkpt>
      <trkpt lat="44.09249" lon="7.04521">
        <ele>1404</ele>
        <time>2022-07-26T09:57:10Z</time>
      </trkpt>
      <trkpt lat="44.0925" lon="7.04523">
        <ele>1404</ele>
        <time>2022-07-26T09:57:11Z</time>
      </trkpt>
      <trkpt lat="44.0925" lon="7.04525">
        <ele>1404</ele>
        <time>2022-07-26T09:57:12Z</time>
      </trkpt>
      <trkpt lat="44.0925" lon="7.04526">
        <ele>1404</ele>
        <time>2022-07-26T09:57:13Z</time>
      </trkpt>
      <trkpt lat="44.0925" lon="7.04528">
        <ele>1404</ele>
        <time>2022-07-26T09:57:14Z</time>
      </trkpt>
      <trkpt lat="44.0925" lon="7.04529">
        <ele>1404</ele>
        <time>2022-07-26T09:57:15Z</time>
      </trkpt>
      <trkpt lat="44.09249" lon="7.04531">
        <ele>1404</ele>
        <time>2022-07-26T09:57:16Z</time>
      </trkpt>
      <trkpt lat="44.09249" lon="7.04533">
        <ele>1404</ele>
        <time>2022-07-26T09:57:17Z</time>
      </trkpt>
      <trkpt lat="44.09249" lon="7.04534">
        <ele>1403</ele>
        <time>2022-07-26T09:57:18Z</time>
      </trkpt>
      <trkpt lat="44.09249" lon="7.04536">
        <ele>1403</ele>
        <time>2022-07-26T09:57:19Z</time>
      </trkpt>
      <trkpt lat="44.09248" lon="7.04537">
        <ele>1402</ele>
        <time>2022-07-26T09:57:20Z</time>
      </trkpt>
      <trkpt lat="44.09248" lon="7.04538">
        <ele>1402</ele>
        <time>2022-07-26T09:57:21Z</time>
      </trkpt>
      <trkpt lat="44.09248" lon="7.0454">
        <ele>1402</ele>
        <time>2022-07-26T09:57:22Z</time>
      </trkpt>
      <trkpt lat="44.09247" lon="7.04541">
        <ele>1402</ele>
        <time>2022-07-26T09:57:23Z</time>
      </trkpt>
      <trkpt lat="44.09247" lon="7.04542">
        <ele>1402</ele>
        <time>2022-07-26T09:57:24Z</time>
      </trkpt>
      <trkpt lat="44.09247" lon="7.04543">
        <ele>1402</ele>
        <time>2022-07-26T09:57:25Z</time>
      </trkpt>
      <trkpt lat="44.09246" lon="7.04545">
        <ele>1402</ele>
        <time>2022-07-26T09:57:26Z</time>
      </trkpt>
      <trkpt lat="44.09246" lon="7.04547">
        <ele>1402</ele>
        <time>2022-07-26T09:57:27Z</time>
      </trkpt>
      <trkpt lat="44.09246" lon="7.04548">
        <ele>1402</ele>
        <time>2022-07-26T09:57:28Z</time>
      </trkpt>
      <trkpt lat="44.09246" lon="7.0455">
        <ele>1402</ele>
        <time>2022-07-26T09:57:29Z</time>
      </trkpt>
      <trkpt lat="44.09246" lon="7.04552">
        <ele>1402</ele>
        <time>2022-07-26T09:57:30Z</time>
      </trkpt>
      <trkpt lat="44.09245" lon="7.04553">
        <ele>1402</ele>
        <time>2022-07-26T09:57:31Z</time>
      </trkpt>
      <trkpt lat="44.09245" lon="7.04555">
        <ele>1402</ele>
        <time>2022-07-26T09:57:32Z</time>
      </trkpt>
      <trkpt lat="44.09245" lon="7.04556">
        <ele>1401</ele>
        <time>2022-07-26T09:57:33Z</time>
      </trkpt>
      <trkpt lat="44.09245" lon="7.04558">
        <ele>1401</ele>
        <time>2022-07-26T09:57:34Z</time>
      </trkpt>
      <trkpt lat="44.09244" lon="7.0456">
        <ele>1401</ele>
        <time>2022-07-26T09:57:35Z</time>
      </trkpt>
      <trkpt lat="44.09244" lon="7.04561">
        <ele>1401</ele>
        <time>2022-07-26T09:57:36Z</time>
      </trkpt>
      <trkpt lat="44.09244" lon="7.04563">
        <ele>1401</ele>
        <time>2022-07-26T09:57:37Z</time>
      </trkpt>
      <trkpt lat="44.09244" lon="7.04564">
        <ele>1401</ele>
        <time>2022-07-26T09:57:38Z</time>
      </trkpt>
      <trkpt lat="44.09244" lon="7.04566">
        <ele>1401</ele>
        <time>2022-07-26T09:57:39Z</time>
      </trkpt>
      <trkpt lat="44.09244" lon="7.04568">
        <ele>1401</ele>
        <time>2022-07-26T09:57:40Z</time>
      </trkpt>
      <trkpt lat="44.09244" lon="7.04569">
        <ele>1401</ele>
        <time>2022-07-26T09:57:41Z</time>
      </trkpt>
      <trkpt lat="44.09244" lon="7.0457">
        <ele>1401</ele>
        <time>2022-07-26T09:57:42Z</time>
      </trkpt>
      <trkpt lat="44.09244" lon="7.04572">
        <ele>1401</ele>
        <time>2022-07-26T09:57:43Z</time>
      </trkpt>
      <trkpt lat="44.09243" lon="7.04573">
        <ele>1401</ele>
        <time>2022-07-26T09:57:44Z</time>
      </trkpt>
      <trkpt lat="44.09243" lon="7.04574">
        <ele>1400</ele>
        <time>2022-07-26T09:57:52Z</time>
      </trkpt>
      <trkpt lat="44.09243" lon="7.04575">
        <ele>1400</ele>
        <time>2022-07-26T09:57:53Z</time>
      </trkpt>
      <trkpt lat="44.09243" lon="7.04575">
        <ele>1400</ele>
        <time>2022-07-26T09:57:54Z</time>
      </trkpt>
      <trkpt lat="44.09242" lon="7.04576">
        <ele>1400</ele>
        <time>2022-07-26T09:57:55Z</time>
      </trkpt>
      <trkpt lat="44.09242" lon="7.04577">
        <ele>1400</ele>
        <time>2022-07-26T09:57:56Z</time>
      </trkpt>
      <trkpt lat="44.09242" lon="7.04577">
        <ele>1400</ele>
        <time>2022-07-26T09:57:57Z</time>
      </trkpt>
      <trkpt lat="44.09242" lon="7.04578">
        <ele>1399</ele>
        <time>2022-07-26T09:57:58Z</time>
      </trkpt>
      <trkpt lat="44.09242" lon="7.04578">
        <ele>1399</ele>
        <time>2022-07-26T09:57:59Z</time>
      </trkpt>
      <trkpt lat="44.09242" lon="7.04579">
        <ele>1399</ele>
        <time>2022-07-26T09:58:00Z</time>
      </trkpt>
      <trkpt lat="44.09242" lon="7.0458">
        <ele>1399</ele>
        <time>2022-07-26T09:58:01Z</time>
      </trkpt>
      <trkpt lat="44.09242" lon="7.04581">
        <ele>1399</ele>
        <time>2022-07-26T09:58:02Z</time>
      </trkpt>
      <trkpt lat="44.09242" lon="7.04582">
        <ele>1399</ele>
        <time>2022-07-26T09:58:03Z</time>
      </trkpt>
      <trkpt lat="44.09242" lon="7.04584">
        <ele>1399</ele>
        <time>2022-07-26T09:58:04Z</time>
      </trkpt>
      <trkpt lat="44.09242" lon="7.04585">
        <ele>1399</ele>
        <time>2022-07-26T09:58:05Z</time>
      </trkpt>
      <trkpt lat="44.09242" lon="7.04586">
        <ele>1399</ele>
        <time>2022-07-26T09:58:06Z</time>
      </trkpt>
      <trkpt lat="44.09242" lon="7.04588">
        <ele>1399</ele>
        <time>2022-07-26T09:58:07Z</time>
      </trkpt>
      <trkpt lat="44.09242" lon="7.04589">
        <ele>1398</ele>
        <time>2022-07-26T09:58:08Z</time>
      </trkpt>
      <trkpt lat="44.09243" lon="7.0459">
        <ele>1398</ele>
        <time>2022-07-26T09:58:09Z</time>
      </trkpt>
      <trkpt lat="44.09243" lon="7.04592">
        <ele>1398</ele>
        <time>2022-07-26T09:58:10Z</time>
      </trkpt>
      <trkpt lat="44.09243" lon="7.04593">
        <ele>1398</ele>
        <time>2022-07-26T09:58:11Z</time>
      </trkpt>
      <trkpt lat="44.09243" lon="7.04594">
        <ele>1398</ele>
        <time>2022-07-26T09:58:12Z</time>
      </trkpt>
      <trkpt lat="44.09243" lon="7.04595">
        <ele>1398</ele>
        <time>2022-07-26T09:58:13Z</time>
      </trkpt>
      <trkpt lat="44.09243" lon="7.04597">
        <ele>1398</ele>
        <time>2022-07-26T09:58:14Z</time>
      </trkpt>
      <trkpt lat="44.09243" lon="7.04598">
        <ele>1398</ele>
        <time>2022-07-26T09:58:15Z</time>
      </trkpt>
      <trkpt lat="44.09243" lon="7.04599">
        <ele>1398</ele>
        <time>2022-07-26T09:58:16Z</time>
      </trkpt>
      <trkpt lat="44.09243" lon="7.046">
        <ele>1398</ele>
        <time>2022-07-26T09:58:17Z</time>
      </trkpt>
      <trkpt lat="44.09243" lon="7.04602">
        <ele>1397</ele>
        <time>2022-07-26T09:58:18Z</time>
      </trkpt>
      <trkpt lat="44.09243" lon="7.04603">
        <ele>1397</ele>
        <time>2022-07-26T09:58:19Z</time>
      </trkpt>
      <trkpt lat="44.09243" lon="7.04605">
        <ele>1397</ele>
        <time>2022-07-26T09:58:20Z</time>
      </trkpt>
      <trkpt lat="44.09243" lon="7.04606">
        <ele>1397</ele>
        <time>2022-07-26T09:58:21Z</time>
      </trkpt>
      <trkpt lat="44.09243" lon="7.04608">
        <ele>1397</ele>
        <time>2022-07-26T09:58:22Z</time>
      </trkpt>
      <trkpt lat="44.09243" lon="7.04609">
        <ele>1396</ele>
        <time>2022-07-26T09:58:23Z</time>
      </trkpt>
      <trkpt lat="44.09243" lon="7.04611">
        <ele>1396</ele>
        <time>2022-07-26T09:58:24Z</time>
      </trkpt>
      <trkpt lat="44.09243" lon="7.04613">
        <ele>1396</ele>
        <time>2022-07-26T09:58:25Z</time>
      </trkpt>
      <trkpt lat="44.09244" lon="7.04614">
        <ele>1396</ele>
        <time>2022-07-26T09:58:26Z</time>
      </trkpt>
      <trkpt lat="44.09244" lon="7.04616">
        <ele>1396</ele>
        <time>2022-07-26T09:58:27Z</time>
      </trkpt>
      <trkpt lat="44.09244" lon="7.04617">
        <ele>1395</ele>
        <time>2022-07-26T09:58:28Z</time>
      </trkpt>
      <trkpt lat="44.09244" lon="7.04619">
        <ele>1395</ele>
        <time>2022-07-26T09:58:29Z</time>
      </trkpt>
      <trkpt lat="44.09244" lon="7.0462">
        <ele>1395</ele>
        <time>2022-07-26T09:58:30Z</time>
      </trkpt>
      <trkpt lat="44.09244" lon="7.04622">
        <ele>1395</ele>
        <time>2022-07-26T09:58:31Z</time>
      </trkpt>
      <trkpt lat="44.09244" lon="7.04623">
        <ele>1395</ele>
        <time>2022-07-26T09:58:32Z</time>
      </trkpt>
      <trkpt lat="44.09243" lon="7.04625">
        <ele>1394</ele>
        <time>2022-07-26T09:58:33Z</time>
      </trkpt>
      <trkpt lat="44.09243" lon="7.04626">
        <ele>1394</ele>
        <time>2022-07-26T09:58:34Z</time>
      </trkpt>
      <trkpt lat="44.09243" lon="7.04628">
        <ele>1394</ele>
        <time>2022-07-26T09:58:35Z</time>
      </trkpt>
      <trkpt lat="44.09243" lon="7.04629">
        <ele>1394</ele>
        <time>2022-07-26T09:58:36Z</time>
      </trkpt>
      <trkpt lat="44.09242" lon="7.04631">
        <ele>1394</ele>
        <time>2022-07-26T09:58:37Z</time>
      </trkpt>
      <trkpt lat="44.09242" lon="7.04633">
        <ele>1394</ele>
        <time>2022-07-26T09:58:38Z</time>
      </trkpt>
      <trkpt lat="44.09242" lon="7.04634">
        <ele>1394</ele>
        <time>2022-07-26T09:58:39Z</time>
      </trkpt>
      <trkpt lat="44.09242" lon="7.04635">
        <ele>1394</ele>
        <time>2022-07-26T09:58:40Z</time>
      </trkpt>
      <trkpt lat="44.09242" lon="7.04637">
        <ele>1394</ele>
        <time>2022-07-26T09:58:41Z</time>
      </trkpt>
      <trkpt lat="44.09241" lon="7.04638">
        <ele>1394</ele>
        <time>2022-07-26T09:58:42Z</time>
      </trkpt>
      <trkpt lat="44.09241" lon="7.04639">
        <ele>1393</ele>
        <time>2022-07-26T09:58:43Z</time>
      </trkpt>
      <trkpt lat="44.09241" lon="7.04641">
        <ele>1393</ele>
        <time>2022-07-26T09:58:44Z</time>
      </trkpt>
      <trkpt lat="44.0924" lon="7.04642">
        <ele>1393</ele>
        <time>2022-07-26T09:58:45Z</time>
      </trkpt>
      <trkpt lat="44.0924" lon="7.04643">
        <ele>1393</ele>
        <time>2022-07-26T09:58:46Z</time>
      </trkpt>
      <trkpt lat="44.09239" lon="7.04644">
        <ele>1393</ele>
        <time>2022-07-26T09:58:47Z</time>
      </trkpt>
      <trkpt lat="44.09239" lon="7.04645">
        <ele>1392</ele>
        <time>2022-07-26T09:58:48Z</time>
      </trkpt>
      <trkpt lat="44.09238" lon="7.04647">
        <ele>1392</ele>
        <time>2022-07-26T09:58:49Z</time>
      </trkpt>
      <trkpt lat="44.09237" lon="7.04648">
        <ele>1392</ele>
        <time>2022-07-26T09:58:50Z</time>
      </trkpt>
      <trkpt lat="44.09237" lon="7.04649">
        <ele>1392</ele>
        <time>2022-07-26T09:58:51Z</time>
      </trkpt>
      <trkpt lat="44.09236" lon="7.0465">
        <ele>1392</ele>
        <time>2022-07-26T09:58:52Z</time>
      </trkpt>
      <trkpt lat="44.09236" lon="7.04652">
        <ele>1391</ele>
        <time>2022-07-26T09:58:53Z</time>
      </trkpt>
      <trkpt lat="44.09235" lon="7.04653">
        <ele>1391</ele>
        <time>2022-07-26T09:58:54Z</time>
      </trkpt>
      <trkpt lat="44.09235" lon="7.04655">
        <ele>1391</ele>
        <time>2022-07-26T09:58:55Z</time>
      </trkpt>
      <trkpt lat="44.09234" lon="7.04656">
        <ele>1391</ele>
        <time>2022-07-26T09:58:56Z</time>
      </trkpt>
      <trkpt lat="44.09234" lon="7.04658">
        <ele>1391</ele>
        <time>2022-07-26T09:58:57Z</time>
      </trkpt>
      <trkpt lat="44.09234" lon="7.04659">
        <ele>1390</ele>
        <time>2022-07-26T09:58:58Z</time>
      </trkpt>
      <trkpt lat="44.09234" lon="7.04661">
        <ele>1390</ele>
        <time>2022-07-26T09:58:59Z</time>
      </trkpt>
      <trkpt lat="44.09233" lon="7.04662">
        <ele>1390</ele>
        <time>2022-07-26T09:59:00Z</time>
      </trkpt>
      <trkpt lat="44.09233" lon="7.04664">
        <ele>1390</ele>
        <time>2022-07-26T09:59:01Z</time>
      </trkpt>
      <trkpt lat="44.09233" lon="7.04665">
        <ele>1390</ele>
        <time>2022-07-26T09:59:02Z</time>
      </trkpt>
      <trkpt lat="44.09233" lon="7.04667">
        <ele>1389</ele>
        <time>2022-07-26T09:59:03Z</time>
      </trkpt>
      <trkpt lat="44.09233" lon="7.04668">
        <ele>1389</ele>
        <time>2022-07-26T09:59:04Z</time>
      </trkpt>
      <trkpt lat="44.09232" lon="7.0467">
        <ele>1389</ele>
        <time>2022-07-26T09:59:05Z</time>
      </trkpt>
      <trkpt lat="44.09232" lon="7.04671">
        <ele>1389</ele>
        <time>2022-07-26T09:59:06Z</time>
      </trkpt>
      <trkpt lat="44.09231" lon="7.04673">
        <ele>1389</ele>
        <time>2022-07-26T09:59:07Z</time>
      </trkpt>
      <trkpt lat="44.09231" lon="7.04674">
        <ele>1388</ele>
        <time>2022-07-26T09:59:08Z</time>
      </trkpt>
      <trkpt lat="44.09231" lon="7.04675">
        <ele>1388</ele>
        <time>2022-07-26T09:59:09Z</time>
      </trkpt>
      <trkpt lat="44.09231" lon="7.04677">
        <ele>1388</ele>
        <time>2022-07-26T09:59:10Z</time>
      </trkpt>
      <trkpt lat="44.0923" lon="7.04678">
        <ele>1388</ele>
        <time>2022-07-26T09:59:11Z</time>
      </trkpt>
      <trkpt lat="44.0923" lon="7.0468">
        <ele>1388</ele>
        <time>2022-07-26T09:59:12Z</time>
      </trkpt>
      <trkpt lat="44.0923" lon="7.04681">
        <ele>1387</ele>
        <time>2022-07-26T09:59:13Z</time>
      </trkpt>
      <trkpt lat="44.09229" lon="7.04683">
        <ele>1387</ele>
        <time>2022-07-26T09:59:14Z</time>
      </trkpt>
      <trkpt lat="44.09229" lon="7.04684">
        <ele>1387</ele>
        <time>2022-07-26T09:59:15Z</time>
      </trkpt>
      <trkpt lat="44.09229" lon="7.04686">
        <ele>1387</ele>
        <time>2022-07-26T09:59:16Z</time>
      </trkpt>
      <trkpt lat="44.09228" lon="7.04687">
        <ele>1387</ele>
        <time>2022-07-26T09:59:17Z</time>
      </trkpt>
      <trkpt lat="44.09228" lon="7.04689">
        <ele>1386</ele>
        <time>2022-07-26T09:59:18Z</time>
      </trkpt>
      <trkpt lat="44.09228" lon="7.04691">
        <ele>1386</ele>
        <time>2022-07-26T09:59:19Z</time>
      </trkpt>
      <trkpt lat="44.09227" lon="7.04692">
        <ele>1386</ele>
        <time>2022-07-26T09:59:20Z</time>
      </trkpt>
      <trkpt lat="44.09227" lon="7.04694">
        <ele>1386</ele>
        <time>2022-07-26T09:59:21Z</time>
      </trkpt>
      <trkpt lat="44.09226" lon="7.04696">
        <ele>1386</ele>
        <time>2022-07-26T09:59:22Z</time>
      </trkpt>
      <trkpt lat="44.09226" lon="7.04697">
        <ele>1385</ele>
        <time>2022-07-26T09:59:23Z</time>
      </trkpt>
      <trkpt lat="44.09225" lon="7.04699">
        <ele>1385</ele>
        <time>2022-07-26T09:59:24Z</time>
      </trkpt>
      <trkpt lat="44.09225" lon="7.047">
        <ele>1384</ele>
        <time>2022-07-26T09:59:25Z</time>
      </trkpt>
      <trkpt lat="44.09225" lon="7.04702">
        <ele>1384</ele>
        <time>2022-07-26T09:59:26Z</time>
      </trkpt>
      <trkpt lat="44.09224" lon="7.04703">
        <ele>1384</ele>
        <time>2022-07-26T09:59:27Z</time>
      </trkpt>
      <trkpt lat="44.09224" lon="7.04705">
        <ele>1383</ele>
        <time>2022-07-26T09:59:28Z</time>
      </trkpt>
      <trkpt lat="44.09223" lon="7.04706">
        <ele>1383</ele>
        <time>2022-07-26T09:59:29Z</time>
      </trkpt>
      <trkpt lat="44.09223" lon="7.04707">
        <ele>1383</ele>
        <time>2022-07-26T09:59:30Z</time>
      </trkpt>
      <trkpt lat="44.09223" lon="7.04709">
        <ele>1383</ele>
        <time>2022-07-26T09:59:31Z</time>
      </trkpt>
      <trkpt lat="44.09222" lon="7.0471">
        <ele>1383</ele>
        <time>2022-07-26T09:59:32Z</time>
      </trkpt>
      <trkpt lat="44.09222" lon="7.04711">
        <ele>1382</ele>
        <time>2022-07-26T09:59:33Z</time>
      </trkpt>
      <trkpt lat="44.09221" lon="7.04712">
        <ele>1382</ele>
        <time>2022-07-26T09:59:34Z</time>
      </trkpt>
      <trkpt lat="44.09221" lon="7.04714">
        <ele>1382</ele>
        <time>2022-07-26T09:59:35Z</time>
      </trkpt>
      <trkpt lat="44.09221" lon="7.04715">
        <ele>1382</ele>
        <time>2022-07-26T09:59:36Z</time>
      </trkpt>
      <trkpt lat="44.09221" lon="7.04717">
        <ele>1382</ele>
        <time>2022-07-26T09:59:37Z</time>
      </trkpt>
      <trkpt lat="44.0922" lon="7.04719">
        <ele>1381</ele>
        <time>2022-07-26T09:59:38Z</time>
      </trkpt>
      <trkpt lat="44.0922" lon="7.0472">
        <ele>1381</ele>
        <time>2022-07-26T09:59:39Z</time>
      </trkpt>
      <trkpt lat="44.0922" lon="7.04722">
        <ele>1381</ele>
        <time>2022-07-26T09:59:40Z</time>
      </trkpt>
      <trkpt lat="44.0922" lon="7.04723">
        <ele>1381</ele>
        <time>2022-07-26T09:59:41Z</time>
      </trkpt>
      <trkpt lat="44.09219" lon="7.04725">
        <ele>1381</ele>
        <time>2022-07-26T09:59:42Z</time>
      </trkpt>
      <trkpt lat="44.09219" lon="7.04726">
        <ele>1380</ele>
        <time>2022-07-26T09:59:43Z</time>
      </trkpt>
      <trkpt lat="44.09219" lon="7.04728">
        <ele>1380</ele>
        <time>2022-07-26T09:59:44Z</time>
      </trkpt>
      <trkpt lat="44.09219" lon="7.0473">
        <ele>1380</ele>
        <time>2022-07-26T09:59:45Z</time>
      </trkpt>
      <trkpt lat="44.09219" lon="7.04731">
        <ele>1380</ele>
        <time>2022-07-26T09:59:46Z</time>
      </trkpt>
      <trkpt lat="44.09219" lon="7.04733">
        <ele>1380</ele>
        <time>2022-07-26T09:59:47Z</time>
      </trkpt>
      <trkpt lat="44.09219" lon="7.04735">
        <ele>1379</ele>
        <time>2022-07-26T09:59:48Z</time>
      </trkpt>
      <trkpt lat="44.09219" lon="7.04737">
        <ele>1379</ele>
        <time>2022-07-26T09:59:49Z</time>
      </trkpt>
      <trkpt lat="44.0922" lon="7.04739">
        <ele>1379</ele>
        <time>2022-07-26T09:59:50Z</time>
      </trkpt>
      <trkpt lat="44.0922" lon="7.0474">
        <ele>1379</ele>
        <time>2022-07-26T09:59:51Z</time>
      </trkpt>
      <trkpt lat="44.0922" lon="7.04742">
        <ele>1379</ele>
        <time>2022-07-26T09:59:52Z</time>
      </trkpt>
      <trkpt lat="44.09221" lon="7.04744">
        <ele>1378</ele>
        <time>2022-07-26T09:59:53Z</time>
      </trkpt>
      <trkpt lat="44.09221" lon="7.04745">
        <ele>1378</ele>
        <time>2022-07-26T09:59:54Z</time>
      </trkpt>
      <trkpt lat="44.09222" lon="7.04747">
        <ele>1378</ele>
        <time>2022-07-26T09:59:55Z</time>
      </trkpt>
      <trkpt lat="44.09222" lon="7.04749">
        <ele>1378</ele>
        <time>2022-07-26T09:59:56Z</time>
      </trkpt>
      <trkpt lat="44.09223" lon="7.0475">
        <ele>1378</ele>
        <time>2022-07-26T09:59:57Z</time>
      </trkpt>
      <trkpt lat="44.09223" lon="7.04752">
        <ele>1378</ele>
        <time>2022-07-26T09:59:58Z</time>
      </trkpt>
      <trkpt lat="44.09224" lon="7.04754">
        <ele>1378</ele>
        <time>2022-07-26T09:59:59Z</time>
      </trkpt>
      <trkpt lat="44.09224" lon="7.04755">
        <ele>1378</ele>
        <time>2022-07-26T10:00:00Z</time>
      </trkpt>
      <trkpt lat="44.09225" lon="7.04757">
        <ele>1378</ele>
        <time>2022-07-26T10:00:01Z</time>
      </trkpt>
      <trkpt lat="44.09226" lon="7.04758">
        <ele>1378</ele>
        <time>2022-07-26T10:00:02Z</time>
      </trkpt>
      <trkpt lat="44.09226" lon="7.0476">
        <ele>1377</ele>
        <time>2022-07-26T10:00:03Z</time>
      </trkpt>
      <trkpt lat="44.09226" lon="7.04761">
        <ele>1377</ele>
        <time>2022-07-26T10:00:04Z</time>
      </trkpt>
      <trkpt lat="44.09227" lon="7.04762">
        <ele>1377</ele>
        <time>2022-07-26T10:00:05Z</time>
      </trkpt>
      <trkpt lat="44.09227" lon="7.04764">
        <ele>1377</ele>
        <time>2022-07-26T10:00:06Z</time>
      </trkpt>
      <trkpt lat="44.09227" lon="7.04765">
        <ele>1377</ele>
        <time>2022-07-26T10:00:07Z</time>
      </trkpt>
      <trkpt lat="44.09227" lon="7.04767">
        <ele>1377</ele>
        <time>2022-07-26T10:00:08Z</time>
      </trkpt>
      <trkpt lat="44.09227" lon="7.04768">
        <ele>1377</ele>
        <time>2022-07-26T10:00:09Z</time>
      </trkpt>
      <trkpt lat="44.09227" lon="7.0477">
        <ele>1377</ele>
        <time>2022-07-26T10:00:10Z</time>
      </trkpt>
      <trkpt lat="44.09227" lon="7.04772">
        <ele>1377</ele>
        <time>2022-07-26T10:00:11Z</time>
      </trkpt>
      <trkpt lat="44.09227" lon="7.04773">
        <ele>1377</ele>
        <time>2022-07-26T10:00:12Z</time>
      </trkpt>
      <trkpt lat="44.09227" lon="7.04775">
        <ele>1377</ele>
        <time>2022-07-26T10:00:13Z</time>
      </trkpt>
      <trkpt lat="44.09227" lon="7.04777">
        <ele>1377</ele>
        <time>2022-07-26T10:00:14Z</time>
      </trkpt>
      <trkpt lat="44.09227" lon="7.04779">
        <ele>1377</ele>
        <time>2022-07-26T10:00:15Z</time>
      </trkpt>
      <trkpt lat="44.09227" lon="7.04781">
        <ele>1377</ele>
        <time>2022-07-26T10:00:16Z</time>
      </trkpt>
      <trkpt lat="44.09227" lon="7.04782">
        <ele>1377</ele>
        <time>2022-07-26T10:00:17Z</time>
      </trkpt>
      <trkpt lat="44.09227" lon="7.04784">
        <ele>1377</ele>
        <time>2022-07-26T10:00:18Z</time>
      </trkpt>
      <trkpt lat="44.09227" lon="7.04785">
        <ele>1377</ele>
        <time>2022-07-26T10:00:19Z</time>
      </trkpt>
      <trkpt lat="44.09228" lon="7.04786">
        <ele>1377</ele>
        <time>2022-07-26T10:00:20Z</time>
      </trkpt>
      <trkpt lat="44.09228" lon="7.04787">
        <ele>1377</ele>
        <time>2022-07-26T10:00:21Z</time>
      </trkpt>
      <trkpt lat="44.09228" lon="7.04788">
        <ele>1377</ele>
        <time>2022-07-26T10:00:22Z</time>
      </trkpt>
      <trkpt lat="44.09229" lon="7.04789">
        <ele>1377</ele>
        <time>2022-07-26T10:00:23Z</time>
      </trkpt>
      <trkpt lat="44.09229" lon="7.04791">
        <ele>1377</ele>
        <time>2022-07-26T10:00:24Z</time>
      </trkpt>
      <trkpt lat="44.0923" lon="7.04792">
        <ele>1377</ele>
        <time>2022-07-26T10:00:25Z</time>
      </trkpt>
      <trkpt lat="44.0923" lon="7.04793">
        <ele>1377</ele>
        <time>2022-07-26T10:00:26Z</time>
      </trkpt>
      <trkpt lat="44.0923" lon="7.04794">
        <ele>1377</ele>
        <time>2022-07-26T10:00:27Z</time>
      </trkpt>
      <trkpt lat="44.0923" lon="7.04795">
        <ele>1377</ele>
        <time>2022-07-26T10:00:28Z</time>
      </trkpt>
      <trkpt lat="44.09231" lon="7.04796">
        <ele>1377</ele>
        <time>2022-07-26T10:00:29Z</time>
      </trkpt>
      <trkpt lat="44.09231" lon="7.04797">
        <ele>1377</ele>
        <time>2022-07-26T10:00:30Z</time>
      </trkpt>
      <trkpt lat="44.09231" lon="7.04799">
        <ele>1377</ele>
        <time>2022-07-26T10:00:31Z</time>
      </trkpt>
      <trkpt lat="44.09231" lon="7.048">
        <ele>1377</ele>
        <time>2022-07-26T10:00:32Z</time>
      </trkpt>
      <trkpt lat="44.09232" lon="7.04802">
        <ele>1376</ele>
        <time>2022-07-26T10:00:33Z</time>
      </trkpt>
      <trkpt lat="44.09232" lon="7.04803">
        <ele>1376</ele>
        <time>2022-07-26T10:00:34Z</time>
      </trkpt>
      <trkpt lat="44.09232" lon="7.04805">
        <ele>1376</ele>
        <time>2022-07-26T10:00:35Z</time>
      </trkpt>
      <trkpt lat="44.09233" lon="7.04806">
        <ele>1376</ele>
        <time>2022-07-26T10:00:36Z</time>
      </trkpt>
      <trkpt lat="44.09233" lon="7.04807">
        <ele>1376</ele>
        <time>2022-07-26T10:00:37Z</time>
      </trkpt>
      <trkpt lat="44.09234" lon="7.04808">
        <ele>1376</ele>
        <time>2022-07-26T10:00:38Z</time>
      </trkpt>
      <trkpt lat="44.09234" lon="7.0481">
        <ele>1376</ele>
        <time>2022-07-26T10:00:39Z</time>
      </trkpt>
      <trkpt lat="44.09235" lon="7.04811">
        <ele>1376</ele>
        <time>2022-07-26T10:00:40Z</time>
      </trkpt>
      <trkpt lat="44.09235" lon="7.04812">
        <ele>1376</ele>
        <time>2022-07-26T10:00:41Z</time>
      </trkpt>
      <trkpt lat="44.09236" lon="7.04813">
        <ele>1376</ele>
        <time>2022-07-26T10:00:42Z</time>
      </trkpt>
      <trkpt lat="44.09236" lon="7.04815">
        <ele>1376</ele>
        <time>2022-07-26T10:00:43Z</time>
      </trkpt>
      <trkpt lat="44.09236" lon="7.04816">
        <ele>1376</ele>
        <time>2022-07-26T10:00:44Z</time>
      </trkpt>
      <trkpt lat="44.09236" lon="7.04817">
        <ele>1376</ele>
        <time>2022-07-26T10:00:45Z</time>
      </trkpt>
      <trkpt lat="44.09236" lon="7.04819">
        <ele>1376</ele>
        <time>2022-07-26T10:00:46Z</time>
      </trkpt>
      <trkpt lat="44.09237" lon="7.0482">
        <ele>1376</ele>
        <time>2022-07-26T10:00:47Z</time>
      </trkpt>
      <trkpt lat="44.09237" lon="7.04822">
        <ele>1376</ele>
        <time>2022-07-26T10:00:48Z</time>
      </trkpt>
      <trkpt lat="44.09237" lon="7.04823">
        <ele>1376</ele>
        <time>2022-07-26T10:00:49Z</time>
      </trkpt>
      <trkpt lat="44.09238" lon="7.04824">
        <ele>1376</ele>
        <time>2022-07-26T10:00:50Z</time>
      </trkpt>
      <trkpt lat="44.09238" lon="7.04826">
        <ele>1376</ele>
        <time>2022-07-26T10:00:51Z</time>
      </trkpt>
      <trkpt lat="44.09238" lon="7.04827">
        <ele>1376</ele>
        <time>2022-07-26T10:00:52Z</time>
      </trkpt>
      <trkpt lat="44.09238" lon="7.04829">
        <ele>1376</ele>
        <time>2022-07-26T10:00:53Z</time>
      </trkpt>
      <trkpt lat="44.09238" lon="7.0483">
        <ele>1376</ele>
        <time>2022-07-26T10:00:54Z</time>
      </trkpt>
      <trkpt lat="44.09239" lon="7.04832">
        <ele>1376</ele>
        <time>2022-07-26T10:00:55Z</time>
      </trkpt>
      <trkpt lat="44.09239" lon="7.04834">
        <ele>1376</ele>
        <time>2022-07-26T10:00:56Z</time>
      </trkpt>
      <trkpt lat="44.09239" lon="7.04835">
        <ele>1376</ele>
        <time>2022-07-26T10:00:57Z</time>
      </trkpt>
      <trkpt lat="44.09239" lon="7.04836">
        <ele>1376</ele>
        <time>2022-07-26T10:00:58Z</time>
      </trkpt>
      <trkpt lat="44.09239" lon="7.04837">
        <ele>1376</ele>
        <time>2022-07-26T10:00:59Z</time>
      </trkpt>
      <trkpt lat="44.0924" lon="7.04839">
        <ele>1376</ele>
        <time>2022-07-26T10:01:00Z</time>
      </trkpt>
      <trkpt lat="44.0924" lon="7.0484">
        <ele>1376</ele>
        <time>2022-07-26T10:01:01Z</time>
      </trkpt>
      <trkpt lat="44.0924" lon="7.04841">
        <ele>1376</ele>
        <time>2022-07-26T10:01:02Z</time>
      </trkpt>
      <trkpt lat="44.0924" lon="7.04842">
        <ele>1376</ele>
        <time>2022-07-26T10:01:03Z</time>
      </trkpt>
      <trkpt lat="44.0924" lon="7.04843">
        <ele>1376</ele>
        <time>2022-07-26T10:01:04Z</time>
      </trkpt>
      <trkpt lat="44.0924" lon="7.04844">
        <ele>1376</ele>
        <time>2022-07-26T10:01:05Z</time>
      </trkpt>
      <trkpt lat="44.0924" lon="7.04845">
        <ele>1376</ele>
        <time>2022-07-26T10:01:06Z</time>
      </trkpt>
      <trkpt lat="44.0924" lon="7.04846">
        <ele>1376</ele>
        <time>2022-07-26T10:01:07Z</time>
      </trkpt>
      <trkpt lat="44.0924" lon="7.04848">
        <ele>1375</ele>
        <time>2022-07-26T10:01:08Z</time>
      </trkpt>
      <trkpt lat="44.0924" lon="7.04849">
        <ele>1375</ele>
        <time>2022-07-26T10:01:09Z</time>
      </trkpt>
      <trkpt lat="44.0924" lon="7.0485">
        <ele>1375</ele>
        <time>2022-07-26T10:01:10Z</time>
      </trkpt>
      <trkpt lat="44.0924" lon="7.04852">
        <ele>1375</ele>
        <time>2022-07-26T10:01:11Z</time>
      </trkpt>
      <trkpt lat="44.0924" lon="7.04854">
        <ele>1375</ele>
        <time>2022-07-26T10:01:12Z</time>
      </trkpt>
      <trkpt lat="44.09241" lon="7.04856">
        <ele>1375</ele>
        <time>2022-07-26T10:01:13Z</time>
      </trkpt>
      <trkpt lat="44.09241" lon="7.04857">
        <ele>1375</ele>
        <time>2022-07-26T10:01:14Z</time>
      </trkpt>
      <trkpt lat="44.09242" lon="7.04859">
        <ele>1375</ele>
        <time>2022-07-26T10:01:15Z</time>
      </trkpt>
      <trkpt lat="44.09243" lon="7.04861">
        <ele>1375</ele>
        <time>2022-07-26T10:01:16Z</time>
      </trkpt>
      <trkpt lat="44.09244" lon="7.04862">
        <ele>1375</ele>
        <time>2022-07-26T10:01:17Z</time>
      </trkpt>
      <trkpt lat="44.09245" lon="7.04864">
        <ele>1375</ele>
        <time>2022-07-26T10:01:18Z</time>
      </trkpt>
      <trkpt lat="44.09245" lon="7.04865">
        <ele>1375</ele>
        <time>2022-07-26T10:01:19Z</time>
      </trkpt>
      <trkpt lat="44.09246" lon="7.04866">
        <ele>1375</ele>
        <time>2022-07-26T10:01:20Z</time>
      </trkpt>
      <trkpt lat="44.09245" lon="7.04867">
        <ele>1375</ele>
        <time>2022-07-26T10:01:21Z</time>
      </trkpt>
      <trkpt lat="44.09245" lon="7.04869">
        <ele>1375</ele>
        <time>2022-07-26T10:01:22Z</time>
      </trkpt>
      <trkpt lat="44.09245" lon="7.0487">
        <ele>1374</ele>
        <time>2022-07-26T10:01:23Z</time>
      </trkpt>
      <trkpt lat="44.09244" lon="7.04871">
        <ele>1374</ele>
        <time>2022-07-26T10:01:24Z</time>
      </trkpt>
      <trkpt lat="44.09244" lon="7.04872">
        <ele>1374</ele>
        <time>2022-07-26T10:01:25Z</time>
      </trkpt>
      <trkpt lat="44.09244" lon="7.04874">
        <ele>1374</ele>
        <time>2022-07-26T10:01:26Z</time>
      </trkpt>
      <trkpt lat="44.09244" lon="7.04875">
        <ele>1372</ele>
        <time>2022-07-26T10:01:47Z</time>
      </trkpt>
      <trkpt lat="44.09244" lon="7.04876">
        <ele>1372</ele>
        <time>2022-07-26T10:01:48Z</time>
      </trkpt>
      <trkpt lat="44.09244" lon="7.04876">
        <ele>1372</ele>
        <time>2022-07-26T10:01:49Z</time>
      </trkpt>
      <trkpt lat="44.09243" lon="7.04876">
        <ele>1371</ele>
        <time>2022-07-26T10:02:03Z</time>
      </trkpt>
      <trkpt lat="44.09243" lon="7.04875">
        <ele>1371</ele>
        <time>2022-07-26T10:02:04Z</time>
      </trkpt>
      <trkpt lat="44.09243" lon="7.04875">
        <ele>1371</ele>
        <time>2022-07-26T10:02:05Z</time>
      </trkpt>
      <trkpt lat="44.09243" lon="7.04874">
        <ele>1371</ele>
        <time>2022-07-26T10:02:06Z</time>
      </trkpt>
      <trkpt lat="44.09243" lon="7.04874">
        <ele>1371</ele>
        <time>2022-07-26T10:02:07Z</time>
      </trkpt>
      <trkpt lat="44.09243" lon="7.04873">
        <ele>1371</ele>
        <time>2022-07-26T10:02:27Z</time>
      </trkpt>
      <trkpt lat="44.09243" lon="7.04872">
        <ele>1371</ele>
        <time>2022-07-26T10:02:28Z</time>
      </trkpt>
      <trkpt lat="44.09243" lon="7.04872">
        <ele>1371</ele>
        <time>2022-07-26T10:02:29Z</time>
      </trkpt>
      <trkpt lat="44.09242" lon="7.04873">
        <ele>1371</ele>
        <time>2022-07-26T10:03:17Z</time>
      </trkpt>
      <trkpt lat="44.09243" lon="7.04873">
        <ele>1371</ele>
        <time>2022-07-26T10:03:18Z</time>
      </trkpt>
      <trkpt lat="44.09243" lon="7.04873">
        <ele>1371</ele>
        <time>2022-07-26T10:03:19Z</time>
      </trkpt>
      <trkpt lat="44.09243" lon="7.04873">
        <ele>1371</ele>
        <time>2022-07-26T10:03:20Z</time>
      </trkpt>
      <trkpt lat="44.09243" lon="7.04872">
        <ele>1371</ele>
        <time>2022-07-26T10:03:21Z</time>
      </trkpt>
      <trkpt lat="44.09244" lon="7.04872">
        <ele>1371</ele>
        <time>2022-07-26T10:03:28Z</time>
      </trkpt>
      <trkpt lat="44.09244" lon="7.04871">
        <ele>1371</ele>
        <time>2022-07-26T10:03:29Z</time>
      </trkpt>
      <trkpt lat="44.09245" lon="7.04871">
        <ele>1371</ele>
        <time>2022-07-26T10:03:30Z</time>
      </trkpt>
      <trkpt lat="44.09247" lon="7.04871">
        <ele>1371</ele>
        <time>2022-07-26T10:03:39Z</time>
      </trkpt>
      <trkpt lat="44.09247" lon="7.0487">
        <ele>1371</ele>
        <time>2022-07-26T10:03:40Z</time>
      </trkpt>
      <trkpt lat="44.09248" lon="7.0487">
        <ele>1371</ele>
        <time>2022-07-26T10:03:41Z</time>
      </trkpt>
      <trkpt lat="44.09248" lon="7.04869">
        <ele>1371</ele>
        <time>2022-07-26T10:03:42Z</time>
      </trkpt>
      <trkpt lat="44.09248" lon="7.04868">
        <ele>1371</ele>
        <time>2022-07-26T10:03:43Z</time>
      </trkpt>
      <trkpt lat="44.09248" lon="7.04867">
        <ele>1371</ele>
        <time>2022-07-26T10:03:44Z</time>
      </trkpt>
      <trkpt lat="44.09248" lon="7.04866">
        <ele>1371</ele>
        <time>2022-07-26T10:03:45Z</time>
      </trkpt>
      <trkpt lat="44.09247" lon="7.04863">
        <ele>1371</ele>
        <time>2022-07-26T10:03:46Z</time>
      </trkpt>
      <trkpt lat="44.09246" lon="7.04861">
        <ele>1371</ele>
        <time>2022-07-26T10:03:47Z</time>
      </trkpt>
      <trkpt lat="44.09245" lon="7.04859">
        <ele>1371</ele>
        <time>2022-07-26T10:03:48Z</time>
      </trkpt>
      <trkpt lat="44.09244" lon="7.04857">
        <ele>1371</ele>
        <time>2022-07-26T10:03:49Z</time>
      </trkpt>
      <trkpt lat="44.09243" lon="7.04864">
        <ele>1370</ele>
        <time>2022-07-26T10:04:36Z</time>
      </trkpt>
      <trkpt lat="44.09243" lon="7.04868">
        <ele>1370</ele>
        <time>2022-07-26T10:04:37Z</time>
      </trkpt>
      <trkpt lat="44.09242" lon="7.04873">
        <ele>1370</ele>
        <time>2022-07-26T10:04:38Z</time>
      </trkpt>
      <trkpt lat="44.09243" lon="7.04878">
        <ele>1370</ele>
        <time>2022-07-26T10:04:47Z</time>
      </trkpt>
      <trkpt lat="44.09243" lon="7.04879">
        <ele>1370</ele>
        <time>2022-07-26T10:04:48Z</time>
      </trkpt>
      <trkpt lat="44.09243" lon="7.0488">
        <ele>1370</ele>
        <time>2022-07-26T10:04:49Z</time>
      </trkpt>
      <trkpt lat="44.09243" lon="7.0488">
        <ele>1370</ele>
        <time>2022-07-26T10:04:50Z</time>
      </trkpt>
      <trkpt lat="44.09242" lon="7.0488">
        <ele>1370</ele>
        <time>2022-07-26T10:04:51Z</time>
      </trkpt>
      <trkpt lat="44.09241" lon="7.0488">
        <ele>1370</ele>
        <time>2022-07-26T10:04:52Z</time>
      </trkpt>
      <trkpt lat="44.0924" lon="7.0488">
        <ele>1370</ele>
        <time>2022-07-26T10:04:53Z</time>
      </trkpt>
      <trkpt lat="44.0924" lon="7.04881">
        <ele>1370</ele>
        <time>2022-07-26T10:04:54Z</time>
      </trkpt>
      <trkpt lat="44.09239" lon="7.04881">
        <ele>1370</ele>
        <time>2022-07-26T10:04:55Z</time>
      </trkpt>
      <trkpt lat="44.09238" lon="7.04883">
        <ele>1370</ele>
        <time>2022-07-26T10:04:56Z</time>
      </trkpt>
      <trkpt lat="44.09238" lon="7.04884">
        <ele>1370</ele>
        <time>2022-07-26T10:04:57Z</time>
      </trkpt>
      <trkpt lat="44.09237" lon="7.04885">
        <ele>1370</ele>
        <time>2022-07-26T10:04:58Z</time>
      </trkpt>
      <trkpt lat="44.09237" lon="7.04886">
        <ele>1370</ele>
        <time>2022-07-26T10:04:59Z</time>
      </trkpt>
      <trkpt lat="44.09236" lon="7.04887">
        <ele>1370</ele>
        <time>2022-07-26T10:05:00Z</time>
      </trkpt>
      <trkpt lat="44.09236" lon="7.04889">
        <ele>1370</ele>
        <time>2022-07-26T10:05:01Z</time>
      </trkpt>
      <trkpt lat="44.09235" lon="7.0489">
        <ele>1370</ele>
        <time>2022-07-26T10:05:02Z</time>
      </trkpt>
      <trkpt lat="44.09235" lon="7.04891">
        <ele>1370</ele>
        <time>2022-07-26T10:05:03Z</time>
      </trkpt>
      <trkpt lat="44.09235" lon="7.04892">
        <ele>1370</ele>
        <time>2022-07-26T10:05:04Z</time>
      </trkpt>
      <trkpt lat="44.09234" lon="7.04894">
        <ele>1370</ele>
        <time>2022-07-26T10:05:05Z</time>
      </trkpt>
      <trkpt lat="44.09234" lon="7.04895">
        <ele>1370</ele>
        <time>2022-07-26T10:05:06Z</time>
      </trkpt>
      <trkpt lat="44.09234" lon="7.04895">
        <ele>1370</ele>
        <time>2022-07-26T10:05:07Z</time>
      </trkpt>
      <trkpt lat="44.09233" lon="7.04896">
        <ele>1370</ele>
        <time>2022-07-26T10:05:08Z</time>
      </trkpt>
      <trkpt lat="44.09232" lon="7.04896">
        <ele>1370</ele>
        <time>2022-07-26T10:05:09Z</time>
      </trkpt>
      <trkpt lat="44.09231" lon="7.04896">
        <ele>1370</ele>
        <time>2022-07-26T10:05:10Z</time>
      </trkpt>
      <trkpt lat="44.09231" lon="7.04896">
        <ele>1370</ele>
        <time>2022-07-26T10:05:11Z</time>
      </trkpt>
      <trkpt lat="44.0923" lon="7.04896">
        <ele>1370</ele>
        <time>2022-07-26T10:05:12Z</time>
      </trkpt>
      <trkpt lat="44.09229" lon="7.04895">
        <ele>1370</ele>
        <time>2022-07-26T10:05:13Z</time>
      </trkpt>
      <trkpt lat="44.09228" lon="7.04895">
        <ele>1370</ele>
        <time>2022-07-26T10:05:14Z</time>
      </trkpt>
      <trkpt lat="44.09227" lon="7.04895">
        <ele>1370</ele>
        <time>2022-07-26T10:05:15Z</time>
      </trkpt>
      <trkpt lat="44.09227" lon="7.04895">
        <ele>1370</ele>
        <time>2022-07-26T10:05:16Z</time>
      </trkpt>
      <trkpt lat="44.09226" lon="7.04895">
        <ele>1370</ele>
        <time>2022-07-26T10:05:17Z</time>
      </trkpt>
      <trkpt lat="44.09225" lon="7.04896">
        <ele>1370</ele>
        <time>2022-07-26T10:05:18Z</time>
      </trkpt>
      <trkpt lat="44.09225" lon="7.04896">
        <ele>1370</ele>
        <time>2022-07-26T10:05:19Z</time>
      </trkpt>
      <trkpt lat="44.09224" lon="7.04898">
        <ele>1375</ele>
        <time>2022-07-26T10:10:58Z</time>
      </trkpt>
      <trkpt lat="44.09224" lon="7.04899">
        <ele>1375</ele>
        <time>2022-07-26T10:10:59Z</time>
      </trkpt>
      <trkpt lat="44.09224" lon="7.04899">
        <ele>1375</ele>
        <time>2022-07-26T10:11:00Z</time>
      </trkpt>
      <trkpt lat="44.09224" lon="7.04898">
        <ele>1374</ele>
        <time>2022-07-26T10:12:18Z</time>
      </trkpt>
      <trkpt lat="44.09225" lon="7.04898">
        <ele>1374</ele>
        <time>2022-07-26T10:12:19Z</time>
      </trkpt>
      <trkpt lat="44.09226" lon="7.04897">
        <ele>1374</ele>
        <time>2022-07-26T10:12:20Z</time>
      </trkpt>
      <trkpt lat="44.09226" lon="7.04897">
        <ele>1374</ele>
        <time>2022-07-26T10:12:21Z</time>
      </trkpt>
      <trkpt lat="44.09227" lon="7.04897">
        <ele>1374</ele>
        <time>2022-07-26T10:12:22Z</time>
      </trkpt>
      <trkpt lat="44.09227" lon="7.04897">
        <ele>1373</ele>
        <time>2022-07-26T10:12:23Z</time>
      </trkpt>
      <trkpt lat="44.09228" lon="7.04898">
        <ele>1373</ele>
        <time>2022-07-26T10:12:24Z</time>
      </trkpt>
      <trkpt lat="44.09229" lon="7.04898">
        <ele>1373</ele>
        <time>2022-07-26T10:12:25Z</time>
      </trkpt>
      <trkpt lat="44.0923" lon="7.04898">
        <ele>1373</ele>
        <time>2022-07-26T10:12:26Z</time>
      </trkpt>
      <trkpt lat="44.09231" lon="7.04898">
        <ele>1373</ele>
        <time>2022-07-26T10:12:27Z</time>
      </trkpt>
      <trkpt lat="44.09232" lon="7.04898">
        <ele>1373</ele>
        <time>2022-07-26T10:12:28Z</time>
      </trkpt>
      <trkpt lat="44.09233" lon="7.04898">
        <ele>1373</ele>
        <time>2022-07-26T10:12:29Z</time>
      </trkpt>
      <trkpt lat="44.09234" lon="7.04897">
        <ele>1373</ele>
        <time>2022-07-26T10:12:30Z</time>
      </trkpt>
      <trkpt lat="44.09235" lon="7.04897">
        <ele>1373</ele>
        <time>2022-07-26T10:12:31Z</time>
      </trkpt>
      <trkpt lat="44.09236" lon="7.04896">
        <ele>1373</ele>
        <time>2022-07-26T10:12:32Z</time>
      </trkpt>
      <trkpt lat="44.09236" lon="7.04894">
        <ele>1372</ele>
        <time>2022-07-26T10:12:33Z</time>
      </trkpt>
      <trkpt lat="44.09237" lon="7.04893">
        <ele>1372</ele>
        <time>2022-07-26T10:12:34Z</time>
      </trkpt>
      <trkpt lat="44.09237" lon="7.04892">
        <ele>1372</ele>
        <time>2022-07-26T10:12:35Z</time>
      </trkpt>
      <trkpt lat="44.09238" lon="7.04891">
        <ele>1372</ele>
        <time>2022-07-26T10:12:36Z</time>
      </trkpt>
      <trkpt lat="44.09238" lon="7.04889">
        <ele>1371</ele>
        <time>2022-07-26T10:14:07Z</time>
      </trkpt>
      <trkpt lat="44.09238" lon="7.04888">
        <ele>1371</ele>
        <time>2022-07-26T10:14:08Z</time>
      </trkpt>
      <trkpt lat="44.09238" lon="7.04887">
        <ele>1371</ele>
        <time>2022-07-26T10:14:09Z</time>
      </trkpt>
      <trkpt lat="44.09238" lon="7.04888">
        <ele>1371</ele>
        <time>2022-07-26T10:14:32Z</time>
      </trkpt>
      <trkpt lat="44.09238" lon="7.04888">
        <ele>1371</ele>
        <time>2022-07-26T10:14:33Z</time>
      </trkpt>
      <trkpt lat="44.09237" lon="7.04888">
        <ele>1371</ele>
        <time>2022-07-26T10:14:34Z</time>
      </trkpt>
      <trkpt lat="44.09237" lon="7.04887">
        <ele>1371</ele>
        <time>2022-07-26T10:14:35Z</time>
      </trkpt>
      <trkpt lat="44.09237" lon="7.04887">
        <ele>1371</ele>
        <time>2022-07-26T10:14:36Z</time>
      </trkpt>
      <trkpt lat="44.09238" lon="7.04886">
        <ele>1371</ele>
        <time>2022-07-26T10:14:37Z</time>
      </trkpt>
      <trkpt lat="44.09238" lon="7.04885">
        <ele>1371</ele>
        <time>2022-07-26T10:14:38Z</time>
      </trkpt>
      <trkpt lat="44.09239" lon="7.04884">
        <ele>1371</ele>
        <time>2022-07-26T10:14:39Z</time>
      </trkpt>
      <trkpt lat="44.09239" lon="7.04883">
        <ele>1371</ele>
        <time>2022-07-26T10:14:40Z</time>
      </trkpt>
      <trkpt lat="44.09239" lon="7.04883">
        <ele>1371</ele>
        <time>2022-07-26T10:14:41Z</time>
      </trkpt>
      <trkpt lat="44.0924" lon="7.04882">
        <ele>1371</ele>
        <time>2022-07-26T10:14:42Z</time>
      </trkpt>
      <trkpt lat="44.0924" lon="7.04881">
        <ele>1371</ele>
        <time>2022-07-26T10:14:43Z</time>
      </trkpt>
      <trkpt lat="44.0924" lon="7.0488">
        <ele>1371</ele>
        <time>2022-07-26T10:14:44Z</time>
      </trkpt>
      <trkpt lat="44.09241" lon="7.04879">
        <ele>1371</ele>
        <time>2022-07-26T10:14:45Z</time>
      </trkpt>
      <trkpt lat="44.09241" lon="7.04878">
        <ele>1371</ele>
        <time>2022-07-26T10:14:46Z</time>
      </trkpt>
      <trkpt lat="44.09241" lon="7.04877">
        <ele>1371</ele>
        <time>2022-07-26T10:14:58Z</time>
      </trkpt>
      <trkpt lat="44.09241" lon="7.04876">
        <ele>1371</ele>
        <time>2022-07-26T10:14:59Z</time>
      </trkpt>
      <trkpt lat="44.09241" lon="7.04875">
        <ele>1371</ele>
        <time>2022-07-26T10:15:00Z</time>
      </trkpt>
      <trkpt lat="44.0924" lon="7.04875">
        <ele>1372</ele>
        <time>2022-07-26T10:15:08Z</time>
      </trkpt>
      <trkpt lat="44.0924" lon="7.04875">
        <ele>1372</ele>
        <time>2022-07-26T10:15:09Z</time>
      </trkpt>
      <trkpt lat="44.0924" lon="7.04875">
        <ele>1372</ele>
        <time>2022-07-26T10:15:10Z</time>
      </trkpt>
      <trkpt lat="44.09241" lon="7.04876">
        <ele>1372</ele>
        <time>2022-07-26T10:15:11Z</time>
      </trkpt>
      <trkpt lat="44.09241" lon="7.04876">
        <ele>1372</ele>
        <time>2022-07-26T10:15:12Z</time>
      </trkpt>
      <trkpt lat="44.09241" lon="7.04876">
        <ele>1372</ele>
        <time>2022-07-26T10:15:13Z</time>
      </trkpt>
      <trkpt lat="44.09241" lon="7.04875">
        <ele>1372</ele>
        <time>2022-07-26T10:15:14Z</time>
      </trkpt>
      <trkpt lat="44.09241" lon="7.04875">
        <ele>1372</ele>
        <time>2022-07-26T10:15:15Z</time>
      </trkpt>
      <trkpt lat="44.09241" lon="7.04875">
        <ele>1372</ele>
        <time>2022-07-26T10:15:16Z</time>
      </trkpt>
      <trkpt lat="44.09241" lon="7.04876">
        <ele>1372</ele>
        <time>2022-07-26T10:15:17Z</time>
      </trkpt>
      <trkpt lat="44.09241" lon="7.04876">
        <ele>1372</ele>
        <time>2022-07-26T10:15:18Z</time>
      </trkpt>
      <trkpt lat="44.0924" lon="7.04877">
        <ele>1372</ele>
        <time>2022-07-26T10:15:19Z</time>
      </trkpt>
      <trkpt lat="44.09241" lon="7.04879">
        <ele>1372</ele>
        <time>2022-07-26T10:15:33Z</time>
      </trkpt>
      <trkpt lat="44.0924" lon="7.0488">
        <ele>1372</ele>
        <time>2022-07-26T10:15:34Z</time>
      </trkpt>
      <trkpt lat="44.0924" lon="7.04881">
        <ele>1372</ele>
        <time>2022-07-26T10:15:35Z</time>
      </trkpt>
      <trkpt lat="44.0924" lon="7.04882">
        <ele>1372</ele>
        <time>2022-07-26T10:15:36Z</time>
      </trkpt>
      <trkpt lat="44.0924" lon="7.04882">
        <ele>1372</ele>
        <time>2022-07-26T10:15:37Z</time>
      </trkpt>
      <trkpt lat="44.09239" lon="7.04884">
        <ele>1372</ele>
        <time>2022-07-26T10:15:43Z</time>
      </trkpt>
      <trkpt lat="44.09239" lon="7.04885">
        <ele>1372</ele>
        <time>2022-07-26T10:15:44Z</time>
      </trkpt>
      <trkpt lat="44.09238" lon="7.04886">
        <ele>1372</ele>
        <time>2022-07-26T10:15:45Z</time>
      </trkpt>
      <trkpt lat="44.09238" lon="7.04887">
        <ele>1372</ele>
        <time>2022-07-26T10:15:46Z</time>
      </trkpt>
      <trkpt lat="44.09238" lon="7.04888">
        <ele>1372</ele>
        <time>2022-07-26T10:15:47Z</time>
      </trkpt>
      <trkpt lat="44.09238" lon="7.04888">
        <ele>1372</ele>
        <time>2022-07-26T10:15:48Z</time>
      </trkpt>
      <trkpt lat="44.09238" lon="7.04889">
        <ele>1372</ele>
        <time>2022-07-26T10:15:49Z</time>
      </trkpt>
      <trkpt lat="44.09237" lon="7.04889">
        <ele>1372</ele>
        <time>2022-07-26T10:15:50Z</time>
      </trkpt>
      <trkpt lat="44.09237" lon="7.0489">
        <ele>1372</ele>
        <time>2022-07-26T10:15:51Z</time>
      </trkpt>
      <trkpt lat="44.09237" lon="7.0489">
        <ele>1372</ele>
        <time>2022-07-26T10:15:52Z</time>
      </trkpt>
      <trkpt lat="44.09237" lon="7.0489">
        <ele>1371</ele>
        <time>2022-07-26T10:15:53Z</time>
      </trkpt>
      <trkpt lat="44.09236" lon="7.0489">
        <ele>1371</ele>
        <time>2022-07-26T10:15:54Z</time>
      </trkpt>
      <trkpt lat="44.09236" lon="7.04891">
        <ele>1371</ele>
        <time>2022-07-26T10:15:55Z</time>
      </trkpt>
      <trkpt lat="44.09236" lon="7.04891">
        <ele>1371</ele>
        <time>2022-07-26T10:15:56Z</time>
      </trkpt>
      <trkpt lat="44.09236" lon="7.04892">
        <ele>1371</ele>
        <time>2022-07-26T10:15:57Z</time>
      </trkpt>
      <trkpt lat="44.09236" lon="7.04893">
        <ele>1371</ele>
        <time>2022-07-26T10:15:58Z</time>
      </trkpt>
      <trkpt lat="44.09236" lon="7.04894">
        <ele>1371</ele>
        <time>2022-07-26T10:15:59Z</time>
      </trkpt>
      <trkpt lat="44.09236" lon="7.04895">
        <ele>1371</ele>
        <time>2022-07-26T10:16:00Z</time>
      </trkpt>
      <trkpt lat="44.09237" lon="7.04896">
        <ele>1371</ele>
        <time>2022-07-26T10:16:01Z</time>
      </trkpt>
      <trkpt lat="44.09237" lon="7.04897">
        <ele>1371</ele>
        <time>2022-07-26T10:16:02Z</time>
      </trkpt>
      <trkpt lat="44.09237" lon="7.04898">
        <ele>1371</ele>
        <time>2022-07-26T10:16:03Z</time>
      </trkpt>
      <trkpt lat="44.09238" lon="7.04899">
        <ele>1371</ele>
        <time>2022-07-26T10:16:04Z</time>
      </trkpt>
      <trkpt lat="44.09238" lon="7.049">
        <ele>1371</ele>
        <time>2022-07-26T10:16:05Z</time>
      </trkpt>
      <trkpt lat="44.09239" lon="7.04901">
        <ele>1371</ele>
        <time>2022-07-26T10:16:06Z</time>
      </trkpt>
      <trkpt lat="44.09239" lon="7.04902">
        <ele>1371</ele>
        <time>2022-07-26T10:16:07Z</time>
      </trkpt>
      <trkpt lat="44.0924" lon="7.04903">
        <ele>1370</ele>
        <time>2022-07-26T10:16:08Z</time>
      </trkpt>
      <trkpt lat="44.0924" lon="7.04905">
        <ele>1370</ele>
        <time>2022-07-26T10:16:09Z</time>
      </trkpt>
      <trkpt lat="44.09241" lon="7.04906">
        <ele>1370</ele>
        <time>2022-07-26T10:16:10Z</time>
      </trkpt>
      <trkpt lat="44.09242" lon="7.04907">
        <ele>1370</ele>
        <time>2022-07-26T10:16:11Z</time>
      </trkpt>
      <trkpt lat="44.09243" lon="7.04908">
        <ele>1370</ele>
        <time>2022-07-26T10:16:12Z</time>
      </trkpt>
      <trkpt lat="44.09243" lon="7.0491">
        <ele>1370</ele>
        <time>2022-07-26T10:16:13Z</time>
      </trkpt>
      <trkpt lat="44.09244" lon="7.04912">
        <ele>1370</ele>
        <time>2022-07-26T10:16:14Z</time>
      </trkpt>
      <trkpt lat="44.09244" lon="7.04913">
        <ele>1370</ele>
        <time>2022-07-26T10:16:15Z</time>
      </trkpt>
      <trkpt lat="44.09245" lon="7.04915">
        <ele>1370</ele>
        <time>2022-07-26T10:16:16Z</time>
      </trkpt>
      <trkpt lat="44.09245" lon="7.04916">
        <ele>1370</ele>
        <time>2022-07-26T10:16:17Z</time>
      </trkpt>
      <trkpt lat="44.09246" lon="7.04917">
        <ele>1369</ele>
        <time>2022-07-26T10:16:18Z</time>
      </trkpt>
      <trkpt lat="44.09247" lon="7.04918">
        <ele>1369</ele>
        <time>2022-07-26T10:16:19Z</time>
      </trkpt>
      <trkpt lat="44.09247" lon="7.04919">
        <ele>1369</ele>
        <time>2022-07-26T10:16:20Z</time>
      </trkpt>
      <trkpt lat="44.09248" lon="7.04919">
        <ele>1369</ele>
        <time>2022-07-26T10:16:21Z</time>
      </trkpt>
      <trkpt lat="44.09248" lon="7.04919">
        <ele>1369</ele>
        <time>2022-07-26T10:16:22Z</time>
      </trkpt>
      <trkpt lat="44.09248" lon="7.0492">
        <ele>1369</ele>
        <time>2022-07-26T10:16:23Z</time>
      </trkpt>
      <trkpt lat="44.09249" lon="7.0492">
        <ele>1369</ele>
        <time>2022-07-26T10:16:24Z</time>
      </trkpt>
      <trkpt lat="44.09249" lon="7.04921">
        <ele>1369</ele>
        <time>2022-07-26T10:16:25Z</time>
      </trkpt>
      <trkpt lat="44.09249" lon="7.04921">
        <ele>1369</ele>
        <time>2022-07-26T10:16:26Z</time>
      </trkpt>
      <trkpt lat="44.09249" lon="7.04922">
        <ele>1369</ele>
        <time>2022-07-26T10:16:27Z</time>
      </trkpt>
      <trkpt lat="44.0925" lon="7.04923">
        <ele>1369</ele>
        <time>2022-07-26T10:16:28Z</time>
      </trkpt>
      <trkpt lat="44.0925" lon="7.04924">
        <ele>1369</ele>
        <time>2022-07-26T10:16:29Z</time>
      </trkpt>
      <trkpt lat="44.0925" lon="7.04924">
        <ele>1369</ele>
        <time>2022-07-26T10:16:30Z</time>
      </trkpt>
      <trkpt lat="44.0925" lon="7.04925">
        <ele>1369</ele>
        <time>2022-07-26T10:16:31Z</time>
      </trkpt>
      <trkpt lat="44.09251" lon="7.04925">
        <ele>1369</ele>
        <time>2022-07-26T10:16:32Z</time>
      </trkpt>
      <trkpt lat="44.09251" lon="7.04925">
        <ele>1369</ele>
        <time>2022-07-26T10:16:33Z</time>
      </trkpt>
      <trkpt lat="44.09252" lon="7.04924">
        <ele>1367</ele>
        <time>2022-07-26T10:16:43Z</time>
      </trkpt>
      <trkpt lat="44.09252" lon="7.04924">
        <ele>1367</ele>
        <time>2022-07-26T10:16:44Z</time>
      </trkpt>
      <trkpt lat="44.09252" lon="7.04924">
        <ele>1367</ele>
        <time>2022-07-26T10:16:45Z</time>
      </trkpt>
      <trkpt lat="44.09252" lon="7.04925">
        <ele>1367</ele>
        <time>2022-07-26T10:16:46Z</time>
      </trkpt>
      <trkpt lat="44.09251" lon="7.04925">
        <ele>1367</ele>
        <time>2022-07-26T10:16:47Z</time>
      </trkpt>
      <trkpt lat="44.09252" lon="7.04925">
        <ele>1367</ele>
        <time>2022-07-26T10:16:48Z</time>
      </trkpt>
      <trkpt lat="44.09252" lon="7.04926">
        <ele>1367</ele>
        <time>2022-07-26T10:16:49Z</time>
      </trkpt>
      <trkpt lat="44.09252" lon="7.04927">
        <ele>1367</ele>
        <time>2022-07-26T10:16:59Z</time>
      </trkpt>
      <trkpt lat="44.09253" lon="7.04928">
        <ele>1367</ele>
        <time>2022-07-26T10:17:00Z</time>
      </trkpt>
      <trkpt lat="44.09254" lon="7.04929">
        <ele>1367</ele>
        <time>2022-07-26T10:17:01Z</time>
      </trkpt>
      <trkpt lat="44.09254" lon="7.0493">
        <ele>1367</ele>
        <time>2022-07-26T10:17:02Z</time>
      </trkpt>
      <trkpt lat="44.09254" lon="7.0493">
        <ele>1366</ele>
        <time>2022-07-26T10:17:03Z</time>
      </trkpt>
      <trkpt lat="44.09255" lon="7.04932">
        <ele>1366</ele>
        <time>2022-07-26T10:17:04Z</time>
      </trkpt>
      <trkpt lat="44.09255" lon="7.04933">
        <ele>1366</ele>
        <time>2022-07-26T10:17:05Z</time>
      </trkpt>
      <trkpt lat="44.09256" lon="7.04934">
        <ele>1366</ele>
        <time>2022-07-26T10:17:06Z</time>
      </trkpt>
      <trkpt lat="44.09256" lon="7.04936">
        <ele>1366</ele>
        <time>2022-07-26T10:17:07Z</time>
      </trkpt>
      <trkpt lat="44.09256" lon="7.04937">
        <ele>1365</ele>
        <time>2022-07-26T10:17:08Z</time>
      </trkpt>
      <trkpt lat="44.09255" lon="7.04939">
        <ele>1365</ele>
        <time>2022-07-26T10:17:09Z</time>
      </trkpt>
      <trkpt lat="44.09255" lon="7.0494">
        <ele>1365</ele>
        <time>2022-07-26T10:17:10Z</time>
      </trkpt>
      <trkpt lat="44.09255" lon="7.04941">
        <ele>1365</ele>
        <time>2022-07-26T10:17:11Z</time>
      </trkpt>
      <trkpt lat="44.09255" lon="7.04942">
        <ele>1365</ele>
        <time>2022-07-26T10:17:12Z</time>
      </trkpt>
      <trkpt lat="44.09254" lon="7.04942">
        <ele>1365</ele>
        <time>2022-07-26T10:17:13Z</time>
      </trkpt>
      <trkpt lat="44.09254" lon="7.04943">
        <ele>1365</ele>
        <time>2022-07-26T10:17:14Z</time>
      </trkpt>
      <trkpt lat="44.09254" lon="7.04944">
        <ele>1365</ele>
        <time>2022-07-26T10:17:15Z</time>
      </trkpt>
      <trkpt lat="44.09253" lon="7.04945">
        <ele>1365</ele>
        <time>2022-07-26T10:17:16Z</time>
      </trkpt>
      <trkpt lat="44.09253" lon="7.04946">
        <ele>1365</ele>
        <time>2022-07-26T10:17:17Z</time>
      </trkpt>
      <trkpt lat="44.09253" lon="7.04947">
        <ele>1364</ele>
        <time>2022-07-26T10:17:18Z</time>
      </trkpt>
      <trkpt lat="44.09253" lon="7.04947">
        <ele>1364</ele>
        <time>2022-07-26T10:17:19Z</time>
      </trkpt>
      <trkpt lat="44.09253" lon="7.04948">
        <ele>1364</ele>
        <time>2022-07-26T10:17:20Z</time>
      </trkpt>
      <trkpt lat="44.09253" lon="7.04949">
        <ele>1364</ele>
        <time>2022-07-26T10:17:21Z</time>
      </trkpt>
      <trkpt lat="44.09252" lon="7.0495">
        <ele>1364</ele>
        <time>2022-07-26T10:17:22Z</time>
      </trkpt>
      <trkpt lat="44.09252" lon="7.04951">
        <ele>1363</ele>
        <time>2022-07-26T10:17:23Z</time>
      </trkpt>
      <trkpt lat="44.09252" lon="7.04952">
        <ele>1363</ele>
        <time>2022-07-26T10:17:24Z</time>
      </trkpt>
      <trkpt lat="44.09252" lon="7.04953">
        <ele>1363</ele>
        <time>2022-07-26T10:17:25Z</time>
      </trkpt>
      <trkpt lat="44.09251" lon="7.04953">
        <ele>1363</ele>
        <time>2022-07-26T10:17:26Z</time>
      </trkpt>
      <trkpt lat="44.0925" lon="7.04954">
        <ele>1363</ele>
        <time>2022-07-26T10:17:27Z</time>
      </trkpt>
      <trkpt lat="44.09249" lon="7.04954">
        <ele>1362</ele>
        <time>2022-07-26T10:17:28Z</time>
      </trkpt>
      <trkpt lat="44.09248" lon="7.04955">
        <ele>1362</ele>
        <time>2022-07-26T10:17:29Z</time>
      </trkpt>
      <trkpt lat="44.09248" lon="7.04955">
        <ele>1362</ele>
        <time>2022-07-26T10:17:30Z</time>
      </trkpt>
      <trkpt lat="44.09247" lon="7.04956">
        <ele>1362</ele>
        <time>2022-07-26T10:17:31Z</time>
      </trkpt>
      <trkpt lat="44.09246" lon="7.04978">
        <ele>1359</ele>
        <time>2022-07-26T10:17:47Z</time>
      </trkpt>
      <trkpt lat="44.09247" lon="7.04979">
        <ele>1358</ele>
        <time>2022-07-26T10:17:48Z</time>
      </trkpt>
      <trkpt lat="44.09249" lon="7.0498">
        <ele>1358</ele>
        <time>2022-07-26T10:17:49Z</time>
      </trkpt>
      <trkpt lat="44.09249" lon="7.04981">
        <ele>1358</ele>
        <time>2022-07-26T10:17:50Z</time>
      </trkpt>
      <trkpt lat="44.0925" lon="7.04983">
        <ele>1358</ele>
        <time>2022-07-26T10:17:51Z</time>
      </trkpt>
      <trkpt lat="44.09251" lon="7.04984">
        <ele>1358</ele>
        <time>2022-07-26T10:17:52Z</time>
      </trkpt>
      <trkpt lat="44.09251" lon="7.04985">
        <ele>1357</ele>
        <time>2022-07-26T10:17:53Z</time>
      </trkpt>
      <trkpt lat="44.09251" lon="7.04986">
        <ele>1357</ele>
        <time>2022-07-26T10:17:54Z</time>
      </trkpt>
      <trkpt lat="44.0925" lon="7.04987">
        <ele>1357</ele>
        <time>2022-07-26T10:17:55Z</time>
      </trkpt>
      <trkpt lat="44.09249" lon="7.04987">
        <ele>1357</ele>
        <time>2022-07-26T10:17:56Z</time>
      </trkpt>
      <trkpt lat="44.09248" lon="7.04988">
        <ele>1357</ele>
        <time>2022-07-26T10:17:57Z</time>
      </trkpt>
      <trkpt lat="44.09248" lon="7.04989">
        <ele>1356</ele>
        <time>2022-07-26T10:17:58Z</time>
      </trkpt>
      <trkpt lat="44.09247" lon="7.0499">
        <ele>1356</ele>
        <time>2022-07-26T10:17:59Z</time>
      </trkpt>
      <trkpt lat="44.09246" lon="7.0499">
        <ele>1356</ele>
        <time>2022-07-26T10:18:00Z</time>
      </trkpt>
      <trkpt lat="44.09245" lon="7.04991">
        <ele>1356</ele>
        <time>2022-07-26T10:18:01Z</time>
      </trkpt>
      <trkpt lat="44.09243" lon="7.04991">
        <ele>1356</ele>
        <time>2022-07-26T10:18:02Z</time>
      </trkpt>
      <trkpt lat="44.09242" lon="7.04991">
        <ele>1355</ele>
        <time>2022-07-26T10:18:03Z</time>
      </trkpt>
      <trkpt lat="44.09242" lon="7.04992">
        <ele>1355</ele>
        <time>2022-07-26T10:18:04Z</time>
      </trkpt>
      <trkpt lat="44.09242" lon="7.04993">
        <ele>1355</ele>
        <time>2022-07-26T10:18:05Z</time>
      </trkpt>
      <trkpt lat="44.09243" lon="7.04994">
        <ele>1355</ele>
        <time>2022-07-26T10:18:06Z</time>
      </trkpt>
      <trkpt lat="44.09243" lon="7.04996">
        <ele>1355</ele>
        <time>2022-07-26T10:18:07Z</time>
      </trkpt>
      <trkpt lat="44.09245" lon="7.04997">
        <ele>1354</ele>
        <time>2022-07-26T10:18:08Z</time>
      </trkpt>
      <trkpt lat="44.09246" lon="7.04999">
        <ele>1354</ele>
        <time>2022-07-26T10:18:09Z</time>
      </trkpt>
      <trkpt lat="44.09247" lon="7.05">
        <ele>1354</ele>
        <time>2022-07-26T10:18:10Z</time>
      </trkpt>
      <trkpt lat="44.09248" lon="7.05002">
        <ele>1354</ele>
        <time>2022-07-26T10:18:11Z</time>
      </trkpt>
      <trkpt lat="44.09249" lon="7.05003">
        <ele>1354</ele>
        <time>2022-07-26T10:18:12Z</time>
      </trkpt>
      <trkpt lat="44.09249" lon="7.05004">
        <ele>1353</ele>
        <time>2022-07-26T10:18:13Z</time>
      </trkpt>
      <trkpt lat="44.0925" lon="7.05005">
        <ele>1353</ele>
        <time>2022-07-26T10:18:14Z</time>
      </trkpt>
      <trkpt lat="44.09251" lon="7.05007">
        <ele>1353</ele>
        <time>2022-07-26T10:18:15Z</time>
      </trkpt>
      <trkpt lat="44.09251" lon="7.05008">
        <ele>1353</ele>
        <time>2022-07-26T10:18:16Z</time>
      </trkpt>
      <trkpt lat="44.09251" lon="7.0501">
        <ele>1353</ele>
        <time>2022-07-26T10:18:17Z</time>
      </trkpt>
      <trkpt lat="44.09251" lon="7.05011">
        <ele>1352</ele>
        <time>2022-07-26T10:18:18Z</time>
      </trkpt>
      <trkpt lat="44.09251" lon="7.05013">
        <ele>1352</ele>
        <time>2022-07-26T10:18:19Z</time>
      </trkpt>
      <trkpt lat="44.09252" lon="7.05014">
        <ele>1352</ele>
        <time>2022-07-26T10:18:20Z</time>
      </trkpt>
      <trkpt lat="44.09252" lon="7.05016">
        <ele>1352</ele>
        <time>2022-07-26T10:18:21Z</time>
      </trkpt>
      <trkpt lat="44.09252" lon="7.05017">
        <ele>1352</ele>
        <time>2022-07-26T10:18:22Z</time>
      </trkpt>
      <trkpt lat="44.09253" lon="7.05018">
        <ele>1351</ele>
        <time>2022-07-26T10:18:23Z</time>
      </trkpt>
      <trkpt lat="44.09253" lon="7.05019">
        <ele>1351</ele>
        <time>2022-07-26T10:18:24Z</time>
      </trkpt>
      <trkpt lat="44.09253" lon="7.0502">
        <ele>1350</ele>
        <time>2022-07-26T10:18:25Z</time>
      </trkpt>
      <trkpt lat="44.09254" lon="7.05021">
        <ele>1350</ele>
        <time>2022-07-26T10:18:26Z</time>
      </trkpt>
      <trkpt lat="44.09254" lon="7.05022">
        <ele>1350</ele>
        <time>2022-07-26T10:18:27Z</time>
      </trkpt>
      <trkpt lat="44.09255" lon="7.05023">
        <ele>1349</ele>
        <time>2022-07-26T10:18:28Z</time>
      </trkpt>
      <trkpt lat="44.09256" lon="7.05024">
        <ele>1349</ele>
        <time>2022-07-26T10:18:29Z</time>
      </trkpt>
      <trkpt lat="44.09257" lon="7.05025">
        <ele>1349</ele>
        <time>2022-07-26T10:18:30Z</time>
      </trkpt>
      <trkpt lat="44.09258" lon="7.05026">
        <ele>1349</ele>
        <time>2022-07-26T10:18:31Z</time>
      </trkpt>
      <trkpt lat="44.09259" lon="7.05027">
        <ele>1349</ele>
        <time>2022-07-26T10:18:32Z</time>
      </trkpt>
      <trkpt lat="44.09261" lon="7.05027">
        <ele>1348</ele>
        <time>2022-07-26T10:18:33Z</time>
      </trkpt>
      <trkpt lat="44.09262" lon="7.05027">
        <ele>1348</ele>
        <time>2022-07-26T10:18:34Z</time>
      </trkpt>
      <trkpt lat="44.09263" lon="7.05027">
        <ele>1348</ele>
        <time>2022-07-26T10:18:35Z</time>
      </trkpt>
      <trkpt lat="44.09264" lon="7.05028">
        <ele>1348</ele>
        <time>2022-07-26T10:18:36Z</time>
      </trkpt>
      <trkpt lat="44.09264" lon="7.05029">
        <ele>1348</ele>
        <time>2022-07-26T10:18:37Z</time>
      </trkpt>
      <trkpt lat="44.09265" lon="7.0503">
        <ele>1347</ele>
        <time>2022-07-26T10:18:38Z</time>
      </trkpt>
      <trkpt lat="44.09265" lon="7.05031">
        <ele>1347</ele>
        <time>2022-07-26T10:18:39Z</time>
      </trkpt>
      <trkpt lat="44.09266" lon="7.05032">
        <ele>1347</ele>
        <time>2022-07-26T10:18:40Z</time>
      </trkpt>
      <trkpt lat="44.09267" lon="7.05033">
        <ele>1347</ele>
        <time>2022-07-26T10:18:41Z</time>
      </trkpt>
      <trkpt lat="44.09268" lon="7.05033">
        <ele>1347</ele>
        <time>2022-07-26T10:18:42Z</time>
      </trkpt>
      <trkpt lat="44.09269" lon="7.05034">
        <ele>1346</ele>
        <time>2022-07-26T10:18:43Z</time>
      </trkpt>
      <trkpt lat="44.0927" lon="7.05034">
        <ele>1346</ele>
        <time>2022-07-26T10:18:44Z</time>
      </trkpt>
      <trkpt lat="44.0927" lon="7.05034">
        <ele>1346</ele>
        <time>2022-07-26T10:18:45Z</time>
      </trkpt>
      <trkpt lat="44.09271" lon="7.05035">
        <ele>1346</ele>
        <time>2022-07-26T10:18:46Z</time>
      </trkpt>
      <trkpt lat="44.09272" lon="7.05035">
        <ele>1346</ele>
        <time>2022-07-26T10:18:47Z</time>
      </trkpt>
      <trkpt lat="44.09273" lon="7.05035">
        <ele>1345</ele>
        <time>2022-07-26T10:18:48Z</time>
      </trkpt>
      <trkpt lat="44.09274" lon="7.05036">
        <ele>1345</ele>
        <time>2022-07-26T10:18:49Z</time>
      </trkpt>
      <trkpt lat="44.09275" lon="7.05037">
        <ele>1345</ele>
        <time>2022-07-26T10:18:50Z</time>
      </trkpt>
      <trkpt lat="44.09276" lon="7.05038">
        <ele>1345</ele>
        <time>2022-07-26T10:18:51Z</time>
      </trkpt>
      <trkpt lat="44.09276" lon="7.05039">
        <ele>1345</ele>
        <time>2022-07-26T10:18:52Z</time>
      </trkpt>
      <trkpt lat="44.09277" lon="7.05041">
        <ele>1344</ele>
        <time>2022-07-26T10:18:53Z</time>
      </trkpt>
      <trkpt lat="44.09277" lon="7.05043">
        <ele>1344</ele>
        <time>2022-07-26T10:18:54Z</time>
      </trkpt>
      <trkpt lat="44.09278" lon="7.05045">
        <ele>1344</ele>
        <time>2022-07-26T10:18:55Z</time>
      </trkpt>
      <trkpt lat="44.09278" lon="7.05046">
        <ele>1344</ele>
        <time>2022-07-26T10:18:56Z</time>
      </trkpt>
      <trkpt lat="44.09278" lon="7.05047">
        <ele>1344</ele>
        <time>2022-07-26T10:18:57Z</time>
      </trkpt>
      <trkpt lat="44.09278" lon="7.05048">
        <ele>1343</ele>
        <time>2022-07-26T10:18:58Z</time>
      </trkpt>
      <trkpt lat="44.09279" lon="7.0505">
        <ele>1343</ele>
        <time>2022-07-26T10:18:59Z</time>
      </trkpt>
      <trkpt lat="44.09279" lon="7.05051">
        <ele>1343</ele>
        <time>2022-07-26T10:19:00Z</time>
      </trkpt>
      <trkpt lat="44.09279" lon="7.05052">
        <ele>1343</ele>
        <time>2022-07-26T10:19:01Z</time>
      </trkpt>
      <trkpt lat="44.09279" lon="7.05054">
        <ele>1343</ele>
        <time>2022-07-26T10:19:02Z</time>
      </trkpt>
      <trkpt lat="44.09279" lon="7.05055">
        <ele>1342</ele>
        <time>2022-07-26T10:19:03Z</time>
      </trkpt>
      <trkpt lat="44.09279" lon="7.05055">
        <ele>1340</ele>
        <time>2022-07-26T10:19:18Z</time>
      </trkpt>
      <trkpt lat="44.09279" lon="7.05055">
        <ele>1340</ele>
        <time>2022-07-26T10:19:19Z</time>
      </trkpt>
      <trkpt lat="44.09279" lon="7.05056">
        <ele>1340</ele>
        <time>2022-07-26T10:19:20Z</time>
      </trkpt>
      <trkpt lat="44.09279" lon="7.05056">
        <ele>1340</ele>
        <time>2022-07-26T10:19:21Z</time>
      </trkpt>
      <trkpt lat="44.09279" lon="7.05057">
        <ele>1340</ele>
        <time>2022-07-26T10:19:22Z</time>
      </trkpt>
      <trkpt lat="44.09279" lon="7.05058">
        <ele>1339</ele>
        <time>2022-07-26T10:19:23Z</time>
      </trkpt>
      <trkpt lat="44.09279" lon="7.05059">
        <ele>1339</ele>
        <time>2022-07-26T10:19:24Z</time>
      </trkpt>
      <trkpt lat="44.09279" lon="7.0506">
        <ele>1339</ele>
        <time>2022-07-26T10:19:25Z</time>
      </trkpt>
      <trkpt lat="44.09279" lon="7.05062">
        <ele>1339</ele>
        <time>2022-07-26T10:19:26Z</time>
      </trkpt>
      <trkpt lat="44.09279" lon="7.05063">
        <ele>1339</ele>
        <time>2022-07-26T10:19:27Z</time>
      </trkpt>
      <trkpt lat="44.09279" lon="7.05065">
        <ele>1338</ele>
        <time>2022-07-26T10:19:28Z</time>
      </trkpt>
      <trkpt lat="44.09279" lon="7.05066">
        <ele>1338</ele>
        <time>2022-07-26T10:19:29Z</time>
      </trkpt>
      <trkpt lat="44.09279" lon="7.05068">
        <ele>1338</ele>
        <time>2022-07-26T10:19:30Z</time>
      </trkpt>
      <trkpt lat="44.0928" lon="7.0507">
        <ele>1338</ele>
        <time>2022-07-26T10:19:31Z</time>
      </trkpt>
      <trkpt lat="44.0928" lon="7.05071">
        <ele>1338</ele>
        <time>2022-07-26T10:19:32Z</time>
      </trkpt>
      <trkpt lat="44.09281" lon="7.05073">
        <ele>1338</ele>
        <time>2022-07-26T10:19:33Z</time>
      </trkpt>
      <trkpt lat="44.09282" lon="7.05075">
        <ele>1338</ele>
        <time>2022-07-26T10:19:34Z</time>
      </trkpt>
      <trkpt lat="44.09283" lon="7.05077">
        <ele>1338</ele>
        <time>2022-07-26T10:19:35Z</time>
      </trkpt>
      <trkpt lat="44.09283" lon="7.05079">
        <ele>1338</ele>
        <time>2022-07-26T10:19:36Z</time>
      </trkpt>
      <trkpt lat="44.09284" lon="7.0508">
        <ele>1338</ele>
        <time>2022-07-26T10:19:37Z</time>
      </trkpt>
      <trkpt lat="44.09285" lon="7.05082">
        <ele>1338</ele>
        <time>2022-07-26T10:19:38Z</time>
      </trkpt>
      <trkpt lat="44.09286" lon="7.05083">
        <ele>1338</ele>
        <time>2022-07-26T10:19:39Z</time>
      </trkpt>
      <trkpt lat="44.09287" lon="7.05085">
        <ele>1338</ele>
        <time>2022-07-26T10:19:40Z</time>
      </trkpt>
      <trkpt lat="44.09287" lon="7.05086">
        <ele>1338</ele>
        <time>2022-07-26T10:19:41Z</time>
      </trkpt>
      <trkpt lat="44.09288" lon="7.05087">
        <ele>1338</ele>
        <time>2022-07-26T10:19:42Z</time>
      </trkpt>
      <trkpt lat="44.09288" lon="7.05088">
        <ele>1338</ele>
        <time>2022-07-26T10:19:43Z</time>
      </trkpt>
      <trkpt lat="44.09289" lon="7.05089">
        <ele>1338</ele>
        <time>2022-07-26T10:19:44Z</time>
      </trkpt>
      <trkpt lat="44.0929" lon="7.0509">
        <ele>1338</ele>
        <time>2022-07-26T10:19:45Z</time>
      </trkpt>
      <trkpt lat="44.09291" lon="7.05091">
        <ele>1338</ele>
        <time>2022-07-26T10:19:46Z</time>
      </trkpt>
      <trkpt lat="44.09291" lon="7.05093">
        <ele>1338</ele>
        <time>2022-07-26T10:19:47Z</time>
      </trkpt>
      <trkpt lat="44.09292" lon="7.05094">
        <ele>1337</ele>
        <time>2022-07-26T10:19:48Z</time>
      </trkpt>
      <trkpt lat="44.09292" lon="7.05096">
        <ele>1337</ele>
        <time>2022-07-26T10:19:49Z</time>
      </trkpt>
      <trkpt lat="44.09292" lon="7.05098">
        <ele>1337</ele>
        <time>2022-07-26T10:19:50Z</time>
      </trkpt>
      <trkpt lat="44.09293" lon="7.05099">
        <ele>1337</ele>
        <time>2022-07-26T10:19:51Z</time>
      </trkpt>
      <trkpt lat="44.09293" lon="7.05101">
        <ele>1337</ele>
        <time>2022-07-26T10:19:52Z</time>
      </trkpt>
      <trkpt lat="44.09294" lon="7.05102">
        <ele>1337</ele>
        <time>2022-07-26T10:19:53Z</time>
      </trkpt>
      <trkpt lat="44.09294" lon="7.05102">
        <ele>1337</ele>
        <time>2022-07-26T10:19:54Z</time>
      </trkpt>
      <trkpt lat="44.09295" lon="7.05103">
        <ele>1337</ele>
        <time>2022-07-26T10:19:55Z</time>
      </trkpt>
      <trkpt lat="44.09295" lon="7.05103">
        <ele>1337</ele>
        <time>2022-07-26T10:19:56Z</time>
      </trkpt>
      <trkpt lat="44.09296" lon="7.05104">
        <ele>1338</ele>
        <time>2022-07-26T10:19:57Z</time>
      </trkpt>
      <trkpt lat="44.09296" lon="7.05105">
        <ele>1338</ele>
        <time>2022-07-26T10:19:58Z</time>
      </trkpt>
      <trkpt lat="44.09296" lon="7.05106">
        <ele>1338</ele>
        <time>2022-07-26T10:19:59Z</time>
      </trkpt>
      <trkpt lat="44.09297" lon="7.05106">
        <ele>1338</ele>
        <time>2022-07-26T10:20:00Z</time>
      </trkpt>
      <trkpt lat="44.09297" lon="7.05107">
        <ele>1338</ele>
        <time>2022-07-26T10:20:01Z</time>
      </trkpt>
      <trkpt lat="44.09297" lon="7.05108">
        <ele>1338</ele>
        <time>2022-07-26T10:20:02Z</time>
      </trkpt>
      <trkpt lat="44.09297" lon="7.05109">
        <ele>1338</ele>
        <time>2022-07-26T10:20:03Z</time>
      </trkpt>
      <trkpt lat="44.09296" lon="7.05111">
        <ele>1338</ele>
        <time>2022-07-26T10:20:04Z</time>
      </trkpt>
      <trkpt lat="44.09295" lon="7.05113">
        <ele>1338</ele>
        <time>2022-07-26T10:20:05Z</time>
      </trkpt>
      <trkpt lat="44.09294" lon="7.05115">
        <ele>1338</ele>
        <time>2022-07-26T10:20:06Z</time>
      </trkpt>
      <trkpt lat="44.09294" lon="7.05117">
        <ele>1338</ele>
        <time>2022-07-26T10:20:07Z</time>
      </trkpt>
      <trkpt lat="44.09293" lon="7.05119">
        <ele>1338</ele>
        <time>2022-07-26T10:20:08Z</time>
      </trkpt>
      <trkpt lat="44.09294" lon="7.05122">
        <ele>1338</ele>
        <time>2022-07-26T10:20:09Z</time>
      </trkpt>
      <trkpt lat="44.09295" lon="7.05124">
        <ele>1338</ele>
        <time>2022-07-26T10:20:10Z</time>
      </trkpt>
      <trkpt lat="44.09296" lon="7.05127">
        <ele>1338</ele>
        <time>2022-07-26T10:20:11Z</time>
      </trkpt>
      <trkpt lat="44.09298" lon="7.05129">
        <ele>1339</ele>
        <time>2022-07-26T10:20:12Z</time>
      </trkpt>
      <trkpt lat="44.09299" lon="7.05131">
        <ele>1339</ele>
        <time>2022-07-26T10:20:13Z</time>
      </trkpt>
      <trkpt lat="44.093" lon="7.05132">
        <ele>1339</ele>
        <time>2022-07-26T10:20:14Z</time>
      </trkpt>
      <trkpt lat="44.09301" lon="7.05134">
        <ele>1339</ele>
        <time>2022-07-26T10:20:15Z</time>
      </trkpt>
      <trkpt lat="44.09302" lon="7.05135">
        <ele>1339</ele>
        <time>2022-07-26T10:20:16Z</time>
      </trkpt>
      <trkpt lat="44.09303" lon="7.05136">
        <ele>1339</ele>
        <time>2022-07-26T10:20:17Z</time>
      </trkpt>
      <trkpt lat="44.09304" lon="7.05138">
        <ele>1339</ele>
        <time>2022-07-26T10:20:18Z</time>
      </trkpt>
      <trkpt lat="44.09305" lon="7.05139">
        <ele>1339</ele>
        <time>2022-07-26T10:20:19Z</time>
      </trkpt>
      <trkpt lat="44.09306" lon="7.0514">
        <ele>1339</ele>
        <time>2022-07-26T10:20:20Z</time>
      </trkpt>
      <trkpt lat="44.09307" lon="7.0514">
        <ele>1339</ele>
        <time>2022-07-26T10:20:21Z</time>
      </trkpt>
      <trkpt lat="44.09307" lon="7.05141">
        <ele>1339</ele>
        <time>2022-07-26T10:20:22Z</time>
      </trkpt>
      <trkpt lat="44.09308" lon="7.05141">
        <ele>1339</ele>
        <time>2022-07-26T10:20:30Z</time>
      </trkpt>
      <trkpt lat="44.09308" lon="7.05141">
        <ele>1339</ele>
        <time>2022-07-26T10:20:31Z</time>
      </trkpt>
      <trkpt lat="44.09308" lon="7.0514">
        <ele>1340</ele>
        <time>2022-07-26T10:20:32Z</time>
      </trkpt>
      <trkpt lat="44.09307" lon="7.05139">
        <ele>1340</ele>
        <time>2022-07-26T10:20:33Z</time>
      </trkpt>
      <trkpt lat="44.09306" lon="7.05138">
        <ele>1340</ele>
        <time>2022-07-26T10:20:34Z</time>
      </trkpt>
      <trkpt lat="44.09304" lon="7.05137">
        <ele>1340</ele>
        <time>2022-07-26T10:20:35Z</time>
      </trkpt>
      <trkpt lat="44.09303" lon="7.05136">
        <ele>1340</ele>
        <time>2022-07-26T10:20:36Z</time>
      </trkpt>
      <trkpt lat="44.09302" lon="7.05136">
        <ele>1340</ele>
        <time>2022-07-26T10:20:37Z</time>
      </trkpt>
      <trkpt lat="44.093" lon="7.05135">
        <ele>1340</ele>
        <time>2022-07-26T10:20:38Z</time>
      </trkpt>
      <trkpt lat="44.09299" lon="7.05135">
        <ele>1340</ele>
        <time>2022-07-26T10:20:39Z</time>
      </trkpt>
      <trkpt lat="44.09298" lon="7.05135">
        <ele>1340</ele>
        <time>2022-07-26T10:20:40Z</time>
      </trkpt>
      <trkpt lat="44.09297" lon="7.05135">
        <ele>1340</ele>
        <time>2022-07-26T10:20:41Z</time>
      </trkpt>
      <trkpt lat="44.09296" lon="7.05136">
        <ele>1340</ele>
        <time>2022-07-26T10:20:42Z</time>
      </trkpt>
      <trkpt lat="44.09295" lon="7.05136">
        <ele>1340</ele>
        <time>2022-07-26T10:20:43Z</time>
      </trkpt>
      <trkpt lat="44.09295" lon="7.05137">
        <ele>1340</ele>
        <time>2022-07-26T10:20:44Z</time>
      </trkpt>
      <trkpt lat="44.09294" lon="7.05139">
        <ele>1340</ele>
        <time>2022-07-26T10:20:45Z</time>
      </trkpt>
      <trkpt lat="44.09294" lon="7.0514">
        <ele>1340</ele>
        <time>2022-07-26T10:20:46Z</time>
      </trkpt>
      <trkpt lat="44.09294" lon="7.05142">
        <ele>1340</ele>
        <time>2022-07-26T10:20:47Z</time>
      </trkpt>
      <trkpt lat="44.09294" lon="7.05144">
        <ele>1340</ele>
        <time>2022-07-26T10:20:48Z</time>
      </trkpt>
      <trkpt lat="44.09295" lon="7.05144">
        <ele>1340</ele>
        <time>2022-07-26T10:20:49Z</time>
      </trkpt>
      <trkpt lat="44.09295" lon="7.05145">
        <ele>1340</ele>
        <time>2022-07-26T10:20:50Z</time>
      </trkpt>
      <trkpt lat="44.09295" lon="7.05146">
        <ele>1340</ele>
        <time>2022-07-26T10:20:51Z</time>
      </trkpt>
      <trkpt lat="44.09296" lon="7.05146">
        <ele>1340</ele>
        <time>2022-07-26T10:20:52Z</time>
      </trkpt>
      <trkpt lat="44.09296" lon="7.05147">
        <ele>1340</ele>
        <time>2022-07-26T10:20:53Z</time>
      </trkpt>
      <trkpt lat="44.09297" lon="7.05147">
        <ele>1340</ele>
        <time>2022-07-26T10:20:54Z</time>
      </trkpt>
      <trkpt lat="44.09297" lon="7.05148">
        <ele>1340</ele>
        <time>2022-07-26T10:20:55Z</time>
      </trkpt>
      <trkpt lat="44.09297" lon="7.05147">
        <ele>1340</ele>
        <time>2022-07-26T10:20:56Z</time>
      </trkpt>
      <trkpt lat="44.09298" lon="7.05147">
        <ele>1340</ele>
        <time>2022-07-26T10:20:57Z</time>
      </trkpt>
      <trkpt lat="44.09298" lon="7.05147">
        <ele>1340</ele>
        <time>2022-07-26T10:20:58Z</time>
      </trkpt>
      <trkpt lat="44.09298" lon="7.05146">
        <ele>1340</ele>
        <time>2022-07-26T10:20:59Z</time>
      </trkpt>
      <trkpt lat="44.09299" lon="7.05144">
        <ele>1340</ele>
        <time>2022-07-26T10:21:00Z</time>
      </trkpt>
      <trkpt lat="44.09298" lon="7.05143">
        <ele>1340</ele>
        <time>2022-07-26T10:21:01Z</time>
      </trkpt>
      <trkpt lat="44.09298" lon="7.05142">
        <ele>1340</ele>
        <time>2022-07-26T10:21:02Z</time>
      </trkpt>
      <trkpt lat="44.09298" lon="7.05141">
        <ele>1340</ele>
        <time>2022-07-26T10:21:03Z</time>
      </trkpt>
      <trkpt lat="44.09298" lon="7.05139">
        <ele>1340</ele>
        <time>2022-07-26T10:21:04Z</time>
      </trkpt>
      <trkpt lat="44.09299" lon="7.05138">
        <ele>1340</ele>
        <time>2022-07-26T10:21:05Z</time>
      </trkpt>
      <trkpt lat="44.09299" lon="7.05137">
        <ele>1340</ele>
        <time>2022-07-26T10:21:06Z</time>
      </trkpt>
      <trkpt lat="44.093" lon="7.05137">
        <ele>1340</ele>
        <time>2022-07-26T10:21:07Z</time>
      </trkpt>
      <trkpt lat="44.093" lon="7.05137">
        <ele>1340</ele>
        <time>2022-07-26T10:21:08Z</time>
      </trkpt>
      <trkpt lat="44.09301" lon="7.05137">
        <ele>1340</ele>
        <time>2022-07-26T10:21:09Z</time>
      </trkpt>
      <trkpt lat="44.09301" lon="7.05136">
        <ele>1340</ele>
        <time>2022-07-26T10:21:10Z</time>
      </trkpt>
      <trkpt lat="44.09302" lon="7.05136">
        <ele>1340</ele>
        <time>2022-07-26T10:21:11Z</time>
      </trkpt>
      <trkpt lat="44.09302" lon="7.05136">
        <ele>1340</ele>
        <time>2022-07-26T10:21:12Z</time>
      </trkpt>
      <trkpt lat="44.09303" lon="7.05135">
        <ele>1340</ele>
        <time>2022-07-26T10:21:13Z</time>
      </trkpt>
      <trkpt lat="44.09304" lon="7.05135">
        <ele>1340</ele>
        <time>2022-07-26T10:21:14Z</time>
      </trkpt>
      <trkpt lat="44.09305" lon="7.05134">
        <ele>1340</ele>
        <time>2022-07-26T10:21:15Z</time>
      </trkpt>
      <trkpt lat="44.09306" lon="7.05134">
        <ele>1340</ele>
        <time>2022-07-26T10:21:16Z</time>
      </trkpt>
      <trkpt lat="44.09307" lon="7.05133">
        <ele>1340</ele>
        <time>2022-07-26T10:21:17Z</time>
      </trkpt>
      <trkpt lat="44.09309" lon="7.05132">
        <ele>1340</ele>
        <time>2022-07-26T10:21:18Z</time>
      </trkpt>
      <trkpt lat="44.0931" lon="7.05131">
        <ele>1340</ele>
        <time>2022-07-26T10:21:19Z</time>
      </trkpt>
      <trkpt lat="44.09311" lon="7.0513">
        <ele>1340</ele>
        <time>2022-07-26T10:21:20Z</time>
      </trkpt>
      <trkpt lat="44.09313" lon="7.05129">
        <ele>1340</ele>
        <time>2022-07-26T10:21:21Z</time>
      </trkpt>
      <trkpt lat="44.09314" lon="7.05128">
        <ele>1340</ele>
        <time>2022-07-26T10:21:22Z</time>
      </trkpt>
      <trkpt lat="44.09315" lon="7.05128">
        <ele>1340</ele>
        <time>2022-07-26T10:21:23Z</time>
      </trkpt>
      <trkpt lat="44.09317" lon="7.05127">
        <ele>1340</ele>
        <time>2022-07-26T10:21:24Z</time>
      </trkpt>
      <trkpt lat="44.09318" lon="7.05126">
        <ele>1340</ele>
        <time>2022-07-26T10:21:25Z</time>
      </trkpt>
      <trkpt lat="44.0932" lon="7.05126">
        <ele>1340</ele>
        <time>2022-07-26T10:21:26Z</time>
      </trkpt>
      <trkpt lat="44.09321" lon="7.05126">
        <ele>1340</ele>
        <time>2022-07-26T10:21:27Z</time>
      </trkpt>
      <trkpt lat="44.09323" lon="7.05127">
        <ele>1340</ele>
        <time>2022-07-26T10:21:28Z</time>
      </trkpt>
      <trkpt lat="44.09388" lon="7.05101">
        <ele>1340</ele>
        <time>2022-07-26T10:21:59Z</time>
      </trkpt>
      <trkpt lat="44.09388" lon="7.051">
        <ele>1340</ele>
        <time>2022-07-26T10:22:00Z</time>
      </trkpt>
      <trkpt lat="44.09387" lon="7.051">
        <ele>1340</ele>
        <time>2022-07-26T10:22:01Z</time>
      </trkpt>
      <trkpt lat="44.09385" lon="7.05099">
        <ele>1340</ele>
        <time>2022-07-26T10:22:02Z</time>
      </trkpt>
      <trkpt lat="44.09383" lon="7.05098">
        <ele>1340</ele>
        <time>2022-07-26T10:22:03Z</time>
      </trkpt>
      <trkpt lat="44.09382" lon="7.05098">
        <ele>1340</ele>
        <time>2022-07-26T10:22:04Z</time>
      </trkpt>
      <trkpt lat="44.0938" lon="7.05098">
        <ele>1340</ele>
        <time>2022-07-26T10:22:05Z</time>
      </trkpt>
      <trkpt lat="44.09378" lon="7.05097">
        <ele>1340</ele>
        <time>2022-07-26T10:22:06Z</time>
      </trkpt>
      <trkpt lat="44.09375" lon="7.05097">
        <ele>1340</ele>
        <time>2022-07-26T10:22:17Z</time>
      </trkpt>
      <trkpt lat="44.09373" lon="7.05096">
        <ele>1340</ele>
        <time>2022-07-26T10:22:18Z</time>
      </trkpt>
      <trkpt lat="44.09371" lon="7.05096">
        <ele>1340</ele>
        <time>2022-07-26T10:22:19Z</time>
      </trkpt>
      <trkpt lat="44.09369" lon="7.05096">
        <ele>1340</ele>
        <time>2022-07-26T10:22:20Z</time>
      </trkpt>
      <trkpt lat="44.09368" lon="7.05095">
        <ele>1340</ele>
        <time>2022-07-26T10:22:21Z</time>
      </trkpt>
      <trkpt lat="44.09368" lon="7.05094">
        <ele>1340</ele>
        <time>2022-07-26T10:22:22Z</time>
      </trkpt>
      <trkpt lat="44.09367" lon="7.05093">
        <ele>1340</ele>
        <time>2022-07-26T10:22:23Z</time>
      </trkpt>
      <trkpt lat="44.09367" lon="7.05091">
        <ele>1340</ele>
        <time>2022-07-26T10:22:24Z</time>
      </trkpt>
      <trkpt lat="44.09366" lon="7.0509">
        <ele>1340</ele>
        <time>2022-07-26T10:22:25Z</time>
      </trkpt>
      <trkpt lat="44.09366" lon="7.05088">
        <ele>1340</ele>
        <time>2022-07-26T10:22:26Z</time>
      </trkpt>
      <trkpt lat="44.09366" lon="7.05087">
        <ele>1341</ele>
        <time>2022-07-26T10:22:27Z</time>
      </trkpt>
      <trkpt lat="44.09367" lon="7.05085">
        <ele>1341</ele>
        <time>2022-07-26T10:22:28Z</time>
      </trkpt>
      <trkpt lat="44.09367" lon="7.05084">
        <ele>1341</ele>
        <time>2022-07-26T10:22:29Z</time>
      </trkpt>
      <trkpt lat="44.09367" lon="7.05083">
        <ele>1341</ele>
        <time>2022-07-26T10:22:30Z</time>
      </trkpt>
      <trkpt lat="44.09367" lon="7.05081">
        <ele>1341</ele>
        <time>2022-07-26T10:22:31Z</time>
      </trkpt>
      <trkpt lat="44.09367" lon="7.0508">
        <ele>1341</ele>
        <time>2022-07-26T10:22:32Z</time>
      </trkpt>
      <trkpt lat="44.09367" lon="7.05078">
        <ele>1341</ele>
        <time>2022-07-26T10:22:33Z</time>
      </trkpt>
      <trkpt lat="44.09367" lon="7.05077">
        <ele>1341</ele>
        <time>2022-07-26T10:22:34Z</time>
      </trkpt>
      <trkpt lat="44.09367" lon="7.05076">
        <ele>1341</ele>
        <time>2022-07-26T10:22:35Z</time>
      </trkpt>
      <trkpt lat="44.09368" lon="7.05075">
        <ele>1341</ele>
        <time>2022-07-26T10:22:36Z</time>
      </trkpt>
      <trkpt lat="44.09368" lon="7.05074">
        <ele>1341</ele>
        <time>2022-07-26T10:22:37Z</time>
      </trkpt>
      <trkpt lat="44.09369" lon="7.05073">
        <ele>1341</ele>
        <time>2022-07-26T10:22:38Z</time>
      </trkpt>
      <trkpt lat="44.09369" lon="7.05072">
        <ele>1341</ele>
        <time>2022-07-26T10:22:39Z</time>
      </trkpt>
      <trkpt lat="44.09369" lon="7.05072">
        <ele>1341</ele>
        <time>2022-07-26T10:22:40Z</time>
      </trkpt>
      <trkpt lat="44.0937" lon="7.05071">
        <ele>1341</ele>
        <time>2022-07-26T10:22:41Z</time>
      </trkpt>
      <trkpt lat="44.0937" lon="7.05071">
        <ele>1341</ele>
        <time>2022-07-26T10:22:42Z</time>
      </trkpt>
      <trkpt lat="44.09371" lon="7.0507">
        <ele>1341</ele>
        <time>2022-07-26T10:22:43Z</time>
      </trkpt>
      <trkpt lat="44.09371" lon="7.05069">
        <ele>1341</ele>
        <time>2022-07-26T10:22:44Z</time>
      </trkpt>
      <trkpt lat="44.09371" lon="7.05068">
        <ele>1341</ele>
        <time>2022-07-26T10:22:45Z</time>
      </trkpt>
      <trkpt lat="44.09371" lon="7.05068">
        <ele>1341</ele>
        <time>2022-07-26T10:22:46Z</time>
      </trkpt>
      <trkpt lat="44.09372" lon="7.05067">
        <ele>1341</ele>
        <time>2022-07-26T10:22:47Z</time>
      </trkpt>
      <trkpt lat="44.09372" lon="7.05066">
        <ele>1341</ele>
        <time>2022-07-26T10:22:48Z</time>
      </trkpt>
      <trkpt lat="44.09372" lon="7.05065">
        <ele>1341</ele>
        <time>2022-07-26T10:22:49Z</time>
      </trkpt>
      <trkpt lat="44.09372" lon="7.05064">
        <ele>1341</ele>
        <time>2022-07-26T10:22:50Z</time>
      </trkpt>
      <trkpt lat="44.09373" lon="7.05063">
        <ele>1341</ele>
        <time>2022-07-26T10:22:51Z</time>
      </trkpt>
      <trkpt lat="44.09373" lon="7.05062">
        <ele>1341</ele>
        <time>2022-07-26T10:22:52Z</time>
      </trkpt>
      <trkpt lat="44.09373" lon="7.05061">
        <ele>1341</ele>
        <time>2022-07-26T10:22:53Z</time>
      </trkpt>
      <trkpt lat="44.09374" lon="7.0506">
        <ele>1341</ele>
        <time>2022-07-26T10:22:54Z</time>
      </trkpt>
      <trkpt lat="44.09374" lon="7.05057">
        <ele>1341</ele>
        <time>2022-07-26T10:23:08Z</time>
      </trkpt>
      <trkpt lat="44.09375" lon="7.05056">
        <ele>1341</ele>
        <time>2022-07-26T10:23:09Z</time>
      </trkpt>
      <trkpt lat="44.09375" lon="7.05055">
        <ele>1341</ele>
        <time>2022-07-26T10:23:10Z</time>
      </trkpt>
      <trkpt lat="44.09375" lon="7.05056">
        <ele>1341</ele>
        <time>2022-07-26T10:24:54Z</time>
      </trkpt>
      <trkpt lat="44.09375" lon="7.05057">
        <ele>1341</ele>
        <time>2022-07-26T10:24:55Z</time>
      </trkpt>
      <trkpt lat="44.09374" lon="7.05058">
        <ele>1341</ele>
        <time>2022-07-26T10:24:56Z</time>
      </trkpt>
      <trkpt lat="44.09374" lon="7.05059">
        <ele>1341</ele>
        <time>2022-07-26T10:24:57Z</time>
      </trkpt>
      <trkpt lat="44.09374" lon="7.05059">
        <ele>1341</ele>
        <time>2022-07-26T10:24:58Z</time>
      </trkpt>
      <trkpt lat="44.09373" lon="7.0506">
        <ele>1341</ele>
        <time>2022-07-26T10:24:59Z</time>
      </trkpt>
      <trkpt lat="44.09373" lon="7.0506">
        <ele>1341</ele>
        <time>2022-07-26T10:25:00Z</time>
      </trkpt>
      <trkpt lat="44.09372" lon="7.05062">
        <ele>1340</ele>
        <time>2022-07-26T10:27:14Z</time>
      </trkpt>
      <trkpt lat="44.09372" lon="7.05064">
        <ele>1340</ele>
        <time>2022-07-26T10:27:15Z</time>
      </trkpt>
      <trkpt lat="44.09371" lon="7.05065">
        <ele>1340</ele>
        <time>2022-07-26T10:27:16Z</time>
      </trkpt>
      <trkpt lat="44.09373" lon="7.05066">
        <ele>1341</ele>
        <time>2022-07-26T10:40:06Z</time>
      </trkpt>
      <trkpt lat="44.09374" lon="7.05066">
        <ele>1341</ele>
        <time>2022-07-26T10:40:07Z</time>
      </trkpt>
      <trkpt lat="44.09374" lon="7.05067">
        <ele>1341</ele>
        <time>2022-07-26T10:40:08Z</time>
      </trkpt>
      <trkpt lat="44.09373" lon="7.05067">
        <ele>1341</ele>
        <time>2022-07-26T10:47:23Z</time>
      </trkpt>
      <trkpt lat="44.09373" lon="7.05067">
        <ele>1341</ele>
        <time>2022-07-26T10:47:24Z</time>
      </trkpt>
      <trkpt lat="44.09373" lon="7.05068">
        <ele>1341</ele>
        <time>2022-07-26T10:47:25Z</time>
      </trkpt>
      <trkpt lat="44.09373" lon="7.05068">
        <ele>1341</ele>
        <time>2022-07-26T10:47:34Z</time>
      </trkpt>
      <trkpt lat="44.09373" lon="7.05068">
        <ele>1341</ele>
        <time>2022-07-26T10:47:35Z</time>
      </trkpt>
      <trkpt lat="44.09373" lon="7.05067">
        <ele>1341</ele>
        <time>2022-07-26T10:47:36Z</time>
      </trkpt>
      <trkpt lat="44.09373" lon="7.05067">
        <ele>1341</ele>
        <time>2022-07-26T10:47:37Z</time>
      </trkpt>
      <trkpt lat="44.09373" lon="7.05066">
        <ele>1341</ele>
        <time>2022-07-26T10:47:38Z</time>
      </trkpt>
      <trkpt lat="44.09371" lon="7.05065">
        <ele>1341</ele>
        <time>2022-07-26T11:10:35Z</time>
      </trkpt>
      <trkpt lat="44.0937" lon="7.05065">
        <ele>1341</ele>
        <time>2022-07-26T11:10:36Z</time>
      </trkpt>
      <trkpt lat="44.0937" lon="7.05064">
        <ele>1341</ele>
        <time>2022-07-26T11:10:37Z</time>
      </trkpt>
      <trkpt lat="44.0937" lon="7.05064">
        <ele>1341</ele>
        <time>2022-07-26T11:10:38Z</time>
      </trkpt>
      <trkpt lat="44.0937" lon="7.05064">
        <ele>1341</ele>
        <time>2022-07-26T11:10:39Z</time>
      </trkpt>
      <trkpt lat="44.09372" lon="7.05063">
        <ele>1341</ele>
        <time>2022-07-26T11:10:46Z</time>
      </trkpt>
      <trkpt lat="44.09373" lon="7.05062">
        <ele>1341</ele>
        <time>2022-07-26T11:10:47Z</time>
      </trkpt>
      <trkpt lat="44.09373" lon="7.05061">
        <ele>1341</ele>
        <time>2022-07-26T11:10:48Z</time>
      </trkpt>
      <trkpt lat="44.09373" lon="7.0506">
        <ele>1341</ele>
        <time>2022-07-26T11:10:49Z</time>
      </trkpt>
      <trkpt lat="44.09373" lon="7.0506">
        <ele>1341</ele>
        <time>2022-07-26T11:10:50Z</time>
      </trkpt>
      <trkpt lat="44.09373" lon="7.05059">
        <ele>1341</ele>
        <time>2022-07-26T11:10:51Z</time>
      </trkpt>
      <trkpt lat="44.09373" lon="7.05058">
        <ele>1341</ele>
        <time>2022-07-26T11:10:52Z</time>
      </trkpt>
      <trkpt lat="44.09374" lon="7.05057">
        <ele>1341</ele>
        <time>2022-07-26T11:10:53Z</time>
      </trkpt>
      <trkpt lat="44.09374" lon="7.05056">
        <ele>1341</ele>
        <time>2022-07-26T11:10:54Z</time>
      </trkpt>
      <trkpt lat="44.09375" lon="7.05056">
        <ele>1341</ele>
        <time>2022-07-26T11:10:55Z</time>
      </trkpt>
      <trkpt lat="44.09375" lon="7.05056">
        <ele>1341</ele>
        <time>2022-07-26T11:10:56Z</time>
      </trkpt>
      <trkpt lat="44.09376" lon="7.05056">
        <ele>1341</ele>
        <time>2022-07-26T11:10:57Z</time>
      </trkpt>
      <trkpt lat="44.09376" lon="7.05056">
        <ele>1341</ele>
        <time>2022-07-26T11:10:58Z</time>
      </trkpt>
      <trkpt lat="44.09376" lon="7.05056">
        <ele>1341</ele>
        <time>2022-07-26T11:10:59Z</time>
      </trkpt>
      <trkpt lat="44.09377" lon="7.05056">
        <ele>1341</ele>
        <time>2022-07-26T11:11:00Z</time>
      </trkpt>
      <trkpt lat="44.09377" lon="7.05056">
        <ele>1341</ele>
        <time>2022-07-26T11:11:01Z</time>
      </trkpt>
      <trkpt lat="44.09378" lon="7.05057">
        <ele>1341</ele>
        <time>2022-07-26T11:11:02Z</time>
      </trkpt>
      <trkpt lat="44.09378" lon="7.05057">
        <ele>1341</ele>
        <time>2022-07-26T11:11:03Z</time>
      </trkpt>
      <trkpt lat="44.09378" lon="7.05057">
        <ele>1341</ele>
        <time>2022-07-26T11:11:04Z</time>
      </trkpt>
      <trkpt lat="44.09378" lon="7.05057">
        <ele>1341</ele>
        <time>2022-07-26T11:11:05Z</time>
      </trkpt>
      <trkpt lat="44.09377" lon="7.05058">
        <ele>1341</ele>
        <time>2022-07-26T11:11:06Z</time>
      </trkpt>
      <trkpt lat="44.09378" lon="7.05058">
        <ele>1341</ele>
        <time>2022-07-26T11:11:07Z</time>
      </trkpt>
      <trkpt lat="44.09378" lon="7.05058">
        <ele>1340</ele>
        <time>2022-07-26T11:11:08Z</time>
      </trkpt>
      <trkpt lat="44.09375" lon="7.05062">
        <ele>1341</ele>
        <time>2022-07-26T11:31:31Z</time>
      </trkpt>
      <trkpt lat="44.09374" lon="7.05064">
        <ele>1341</ele>
        <time>2022-07-26T11:31:32Z</time>
      </trkpt>
      <trkpt lat="44.09372" lon="7.05066">
        <ele>1341</ele>
        <time>2022-07-26T11:31:33Z</time>
      </trkpt>
      <trkpt lat="44.09371" lon="7.05067">
        <ele>1341</ele>
        <time>2022-07-26T11:31:34Z</time>
      </trkpt>
      <trkpt lat="44.0937" lon="7.05068">
        <ele>1341</ele>
        <time>2022-07-26T11:31:35Z</time>
      </trkpt>
      <trkpt lat="44.09369" lon="7.05069">
        <ele>1341</ele>
        <time>2022-07-26T11:31:36Z</time>
      </trkpt>
      <trkpt lat="44.09368" lon="7.05069">
        <ele>1341</ele>
        <time>2022-07-26T11:31:37Z</time>
      </trkpt>
      <trkpt lat="44.0937" lon="7.05071">
        <ele>1340</ele>
        <time>2022-07-26T11:36:26Z</time>
      </trkpt>
      <trkpt lat="44.09371" lon="7.05071">
        <ele>1340</ele>
        <time>2022-07-26T11:36:27Z</time>
      </trkpt>
      <trkpt lat="44.09372" lon="7.05072">
        <ele>1340</ele>
        <time>2022-07-26T11:36:28Z</time>
      </trkpt>
      <trkpt lat="44.0937" lon="7.05072">
        <ele>1341</ele>
        <time>2022-07-26T11:43:13Z</time>
      </trkpt>
      <trkpt lat="44.09369" lon="7.05071">
        <ele>1341</ele>
        <time>2022-07-26T11:43:14Z</time>
      </trkpt>
      <trkpt lat="44.09368" lon="7.05071">
        <ele>1341</ele>
        <time>2022-07-26T11:43:15Z</time>
      </trkpt>
      <trkpt lat="44.09368" lon="7.0507">
        <ele>1341</ele>
        <time>2022-07-26T11:43:16Z</time>
      </trkpt>
      <trkpt lat="44.09368" lon="7.0507">
        <ele>1341</ele>
        <time>2022-07-26T11:43:17Z</time>
      </trkpt>
      <trkpt lat="44.09369" lon="7.05069">
        <ele>1341</ele>
        <time>2022-07-26T11:44:58Z</time>
      </trkpt>
      <trkpt lat="44.0937" lon="7.0507">
        <ele>1341</ele>
        <time>2022-07-26T11:44:59Z</time>
      </trkpt>
      <trkpt lat="44.0937" lon="7.0507">
        <ele>1341</ele>
        <time>2022-07-26T11:45:00Z</time>
      </trkpt>
      <trkpt lat="44.0937" lon="7.05071">
        <ele>1341</ele>
        <time>2022-07-26T11:45:15Z</time>
      </trkpt>
      <trkpt lat="44.09369" lon="7.05072">
        <ele>1341</ele>
        <time>2022-07-26T11:45:16Z</time>
      </trkpt>
      <trkpt lat="44.09369" lon="7.05073">
        <ele>1341</ele>
        <time>2022-07-26T11:45:17Z</time>
      </trkpt>
      <trkpt lat="44.0937" lon="7.05074">
        <ele>1341</ele>
        <time>2022-07-26T11:45:18Z</time>
      </trkpt>
      <trkpt lat="44.0937" lon="7.05074">
        <ele>1341</ele>
        <time>2022-07-26T11:45:19Z</time>
      </trkpt>
      <trkpt lat="44.09371" lon="7.05074">
        <ele>1341</ele>
        <time>2022-07-26T11:45:20Z</time>
      </trkpt>
      <trkpt lat="44.09371" lon="7.05074">
        <ele>1341</ele>
        <time>2022-07-26T11:45:21Z</time>
      </trkpt>
      <trkpt lat="44.09371" lon="7.05073">
        <ele>1341</ele>
        <time>2022-07-26T11:45:32Z</time>
      </trkpt>
      <trkpt lat="44.09371" lon="7.05073">
        <ele>1341</ele>
        <time>2022-07-26T11:45:33Z</time>
      </trkpt>
      <trkpt lat="44.09371" lon="7.05073">
        <ele>1341</ele>
        <time>2022-07-26T11:45:34Z</time>
      </trkpt>
      <trkpt lat="44.0937" lon="7.05072">
        <ele>1341</ele>
        <time>2022-07-26T11:45:42Z</time>
      </trkpt>
      <trkpt lat="44.0937" lon="7.05071">
        <ele>1341</ele>
        <time>2022-07-26T11:45:43Z</time>
      </trkpt>
      <trkpt lat="44.09369" lon="7.05071">
        <ele>1341</ele>
        <time>2022-07-26T11:45:44Z</time>
      </trkpt>
      <trkpt lat="44.09369" lon="7.0507">
        <ele>1341</ele>
        <time>2022-07-26T11:46:18Z</time>
      </trkpt>
      <trkpt lat="44.09368" lon="7.0507">
        <ele>1341</ele>
        <time>2022-07-26T11:46:19Z</time>
      </trkpt>
      <trkpt lat="44.09368" lon="7.0507">
        <ele>1341</ele>
        <time>2022-07-26T11:46:20Z</time>
      </trkpt>
      <trkpt lat="44.09367" lon="7.0507">
        <ele>1341</ele>
        <time>2022-07-26T11:46:21Z</time>
      </trkpt>
      <trkpt lat="44.09367" lon="7.0507">
        <ele>1341</ele>
        <time>2022-07-26T11:46:22Z</time>
      </trkpt>
      <trkpt lat="44.09366" lon="7.05072">
        <ele>1341</ele>
        <time>2022-07-26T11:46:28Z</time>
      </trkpt>
      <trkpt lat="44.09365" lon="7.05073">
        <ele>1341</ele>
        <time>2022-07-26T11:46:29Z</time>
      </trkpt>
      <trkpt lat="44.09365" lon="7.05074">
        <ele>1341</ele>
        <time>2022-07-26T11:46:30Z</time>
      </trkpt>
      <trkpt lat="44.09364" lon="7.05075">
        <ele>1341</ele>
        <time>2022-07-26T11:46:31Z</time>
      </trkpt>
      <trkpt lat="44.09364" lon="7.05075">
        <ele>1341</ele>
        <time>2022-07-26T11:46:32Z</time>
      </trkpt>
      <trkpt lat="44.09363" lon="7.05076">
        <ele>1341</ele>
        <time>2022-07-26T11:46:33Z</time>
      </trkpt>
      <trkpt lat="44.09363" lon="7.05077">
        <ele>1341</ele>
        <time>2022-07-26T11:46:34Z</time>
      </trkpt>
      <trkpt lat="44.09361" lon="7.05079">
        <ele>1341</ele>
        <time>2022-07-26T11:46:52Z</time>
      </trkpt>
      <trkpt lat="44.0936" lon="7.0508">
        <ele>1341</ele>
        <time>2022-07-26T11:46:53Z</time>
      </trkpt>
      <trkpt lat="44.0936" lon="7.05081">
        <ele>1341</ele>
        <time>2022-07-26T11:46:54Z</time>
      </trkpt>
      <trkpt lat="44.09359" lon="7.05081">
        <ele>1341</ele>
        <time>2022-07-26T11:46:55Z</time>
      </trkpt>
      <trkpt lat="44.09358" lon="7.05082">
        <ele>1341</ele>
        <time>2022-07-26T11:46:56Z</time>
      </trkpt>
      <trkpt lat="44.09358" lon="7.05083">
        <ele>1341</ele>
        <time>2022-07-26T11:46:57Z</time>
      </trkpt>
      <trkpt lat="44.09358" lon="7.05084">
        <ele>1341</ele>
        <time>2022-07-26T11:46:58Z</time>
      </trkpt>
      <trkpt lat="44.09358" lon="7.05085">
        <ele>1341</ele>
        <time>2022-07-26T11:46:59Z</time>
      </trkpt>
      <trkpt lat="44.09357" lon="7.05086">
        <ele>1341</ele>
        <time>2022-07-26T11:47:00Z</time>
      </trkpt>
      <trkpt lat="44.09357" lon="7.05087">
        <ele>1341</ele>
        <time>2022-07-26T11:47:01Z</time>
      </trkpt>
      <trkpt lat="44.09357" lon="7.05088">
        <ele>1341</ele>
        <time>2022-07-26T11:47:02Z</time>
      </trkpt>
      <trkpt lat="44.09357" lon="7.05089">
        <ele>1341</ele>
        <time>2022-07-26T11:47:03Z</time>
      </trkpt>
      <trkpt lat="44.09357" lon="7.0509">
        <ele>1341</ele>
        <time>2022-07-26T11:47:04Z</time>
      </trkpt>
      <trkpt lat="44.09357" lon="7.05091">
        <ele>1341</ele>
        <time>2022-07-26T11:47:05Z</time>
      </trkpt>
      <trkpt lat="44.09357" lon="7.05093">
        <ele>1341</ele>
        <time>2022-07-26T11:47:06Z</time>
      </trkpt>
      <trkpt lat="44.09357" lon="7.05094">
        <ele>1341</ele>
        <time>2022-07-26T11:47:07Z</time>
      </trkpt>
      <trkpt lat="44.09358" lon="7.05095">
        <ele>1341</ele>
        <time>2022-07-26T11:47:08Z</time>
      </trkpt>
      <trkpt lat="44.09357" lon="7.05095">
        <ele>1341</ele>
        <time>2022-07-26T11:47:09Z</time>
      </trkpt>
      <trkpt lat="44.09357" lon="7.05096">
        <ele>1341</ele>
        <time>2022-07-26T11:47:10Z</time>
      </trkpt>
      <trkpt lat="44.09356" lon="7.05097">
        <ele>1341</ele>
        <time>2022-07-26T11:47:11Z</time>
      </trkpt>
      <trkpt lat="44.09355" lon="7.05097">
        <ele>1341</ele>
        <time>2022-07-26T11:47:12Z</time>
      </trkpt>
      <trkpt lat="44.09355" lon="7.05098">
        <ele>1341</ele>
        <time>2022-07-26T11:47:13Z</time>
      </trkpt>
      <trkpt lat="44.09354" lon="7.05099">
        <ele>1341</ele>
        <time>2022-07-26T11:47:14Z</time>
      </trkpt>
      <trkpt lat="44.09354" lon="7.05099">
        <ele>1341</ele>
        <time>2022-07-26T11:47:15Z</time>
      </trkpt>
      <trkpt lat="44.09354" lon="7.051">
        <ele>1341</ele>
        <time>2022-07-26T11:47:16Z</time>
      </trkpt>
      <trkpt lat="44.09353" lon="7.051">
        <ele>1341</ele>
        <time>2022-07-26T11:47:17Z</time>
      </trkpt>
      <trkpt lat="44.09353" lon="7.05101">
        <ele>1341</ele>
        <time>2022-07-26T11:47:18Z</time>
      </trkpt>
      <trkpt lat="44.09353" lon="7.05101">
        <ele>1341</ele>
        <time>2022-07-26T11:47:19Z</time>
      </trkpt>
      <trkpt lat="44.09353" lon="7.05102">
        <ele>1341</ele>
        <time>2022-07-26T11:47:20Z</time>
      </trkpt>
      <trkpt lat="44.09353" lon="7.05102">
        <ele>1341</ele>
        <time>2022-07-26T11:47:21Z</time>
      </trkpt>
      <trkpt lat="44.09354" lon="7.05102">
        <ele>1341</ele>
        <time>2022-07-26T11:47:22Z</time>
      </trkpt>
      <trkpt lat="44.09354" lon="7.05103">
        <ele>1341</ele>
        <time>2022-07-26T11:47:23Z</time>
      </trkpt>
      <trkpt lat="44.09355" lon="7.05102">
        <ele>1341</ele>
        <time>2022-07-26T11:47:24Z</time>
      </trkpt>
      <trkpt lat="44.09356" lon="7.05102">
        <ele>1341</ele>
        <time>2022-07-26T11:47:25Z</time>
      </trkpt>
      <trkpt lat="44.09324" lon="7.0513">
        <ele>1340</ele>
        <time>2022-07-26T11:48:22Z</time>
      </trkpt>
      <trkpt lat="44.09323" lon="7.0513">
        <ele>1340</ele>
        <time>2022-07-26T11:48:23Z</time>
      </trkpt>
      <trkpt lat="44.09323" lon="7.0513">
        <ele>1340</ele>
        <time>2022-07-26T11:48:24Z</time>
      </trkpt>
      <trkpt lat="44.09322" lon="7.0513">
        <ele>1340</ele>
        <time>2022-07-26T11:48:25Z</time>
      </trkpt>
      <trkpt lat="44.09321" lon="7.0513">
        <ele>1340</ele>
        <time>2022-07-26T11:48:26Z</time>
      </trkpt>
      <trkpt lat="44.0932" lon="7.0513">
        <ele>1340</ele>
        <time>2022-07-26T11:48:27Z</time>
      </trkpt>
      <trkpt lat="44.09319" lon="7.0513">
        <ele>1340</ele>
        <time>2022-07-26T11:48:28Z</time>
      </trkpt>
      <trkpt lat="44.09317" lon="7.05129">
        <ele>1340</ele>
        <time>2022-07-26T11:48:29Z</time>
      </trkpt>
      <trkpt lat="44.09316" lon="7.05129">
        <ele>1340</ele>
        <time>2022-07-26T11:48:30Z</time>
      </trkpt>
      <trkpt lat="44.09315" lon="7.05129">
        <ele>1340</ele>
        <time>2022-07-26T11:48:31Z</time>
      </trkpt>
      <trkpt lat="44.09314" lon="7.0513">
        <ele>1340</ele>
        <time>2022-07-26T11:48:32Z</time>
      </trkpt>
      <trkpt lat="44.09313" lon="7.0513">
        <ele>1340</ele>
        <time>2022-07-26T11:48:33Z</time>
      </trkpt>
      <trkpt lat="44.09312" lon="7.05131">
        <ele>1340</ele>
        <time>2022-07-26T11:48:34Z</time>
      </trkpt>
      <trkpt lat="44.09311" lon="7.05131">
        <ele>1340</ele>
        <time>2022-07-26T11:48:35Z</time>
      </trkpt>
      <trkpt lat="44.09311" lon="7.05132">
        <ele>1340</ele>
        <time>2022-07-26T11:48:36Z</time>
      </trkpt>
      <trkpt lat="44.0931" lon="7.05131">
        <ele>1340</ele>
        <time>2022-07-26T11:48:37Z</time>
      </trkpt>
      <trkpt lat="44.09309" lon="7.05131">
        <ele>1340</ele>
        <time>2022-07-26T11:48:38Z</time>
      </trkpt>
      <trkpt lat="44.09308" lon="7.05129">
        <ele>1340</ele>
        <time>2022-07-26T11:48:39Z</time>
      </trkpt>
      <trkpt lat="44.09307" lon="7.05127">
        <ele>1340</ele>
        <time>2022-07-26T11:48:40Z</time>
      </trkpt>
      <trkpt lat="44.09306" lon="7.05126">
        <ele>1340</ele>
        <time>2022-07-26T11:48:41Z</time>
      </trkpt>
      <trkpt lat="44.09305" lon="7.05124">
        <ele>1340</ele>
        <time>2022-07-26T11:48:42Z</time>
      </trkpt>
      <trkpt lat="44.09304" lon="7.05124">
        <ele>1340</ele>
        <time>2022-07-26T11:48:43Z</time>
      </trkpt>
      <trkpt lat="44.09304" lon="7.05124">
        <ele>1340</ele>
        <time>2022-07-26T11:48:44Z</time>
      </trkpt>
      <trkpt lat="44.09303" lon="7.05125">
        <ele>1340</ele>
        <time>2022-07-26T11:48:45Z</time>
      </trkpt>
      <trkpt lat="44.09303" lon="7.05127">
        <ele>1340</ele>
        <time>2022-07-26T11:48:46Z</time>
      </trkpt>
      <trkpt lat="44.09305" lon="7.05127">
        <ele>1339</ele>
        <time>2022-07-26T11:50:37Z</time>
      </trkpt>
      <trkpt lat="44.09306" lon="7.05127">
        <ele>1339</ele>
        <time>2022-07-26T11:50:38Z</time>
      </trkpt>
      <trkpt lat="44.09307" lon="7.05127">
        <ele>1339</ele>
        <time>2022-07-26T11:50:39Z</time>
      </trkpt>
      <trkpt lat="44.09308" lon="7.05127">
        <ele>1339</ele>
        <time>2022-07-26T11:53:27Z</time>
      </trkpt>
      <trkpt lat="44.09308" lon="7.05127">
        <ele>1339</ele>
        <time>2022-07-26T11:53:28Z</time>
      </trkpt>
      <trkpt lat="44.09308" lon="7.05127">
        <ele>1339</ele>
        <time>2022-07-26T11:53:29Z</time>
      </trkpt>
      <trkpt lat="44.09308" lon="7.05126">
        <ele>1339</ele>
        <time>2022-07-26T11:53:30Z</time>
      </trkpt>
      <trkpt lat="44.09308" lon="7.05126">
        <ele>1339</ele>
        <time>2022-07-26T11:53:31Z</time>
      </trkpt>
      <trkpt lat="44.09305" lon="7.05126">
        <ele>1340</ele>
        <time>2022-07-26T11:54:37Z</time>
      </trkpt>
      <trkpt lat="44.09303" lon="7.05126">
        <ele>1340</ele>
        <time>2022-07-26T11:54:38Z</time>
      </trkpt>
      <trkpt lat="44.09301" lon="7.05127">
        <ele>1340</ele>
        <time>2022-07-26T11:54:39Z</time>
      </trkpt>
      <trkpt lat="44.093" lon="7.05127">
        <ele>1340</ele>
        <time>2022-07-26T11:54:40Z</time>
      </trkpt>
      <trkpt lat="44.09299" lon="7.05128">
        <ele>1340</ele>
        <time>2022-07-26T11:54:41Z</time>
      </trkpt>
      <trkpt lat="44.09297" lon="7.05127">
        <ele>1339</ele>
        <time>2022-07-26T11:54:51Z</time>
      </trkpt>
      <trkpt lat="44.09295" lon="7.05127">
        <ele>1339</ele>
        <time>2022-07-26T11:54:52Z</time>
      </trkpt>
      <trkpt lat="44.09294" lon="7.05126">
        <ele>1338</ele>
        <time>2022-07-26T11:54:53Z</time>
      </trkpt>
      <trkpt lat="44.09293" lon="7.05126">
        <ele>1338</ele>
        <time>2022-07-26T11:54:54Z</time>
      </trkpt>
      <trkpt lat="44.09292" lon="7.05125">
        <ele>1338</ele>
        <time>2022-07-26T11:54:55Z</time>
      </trkpt>
      <trkpt lat="44.09291" lon="7.05125">
        <ele>1338</ele>
        <time>2022-07-26T11:54:56Z</time>
      </trkpt>
      <trkpt lat="44.0929" lon="7.05124">
        <ele>1338</ele>
        <time>2022-07-26T11:54:57Z</time>
      </trkpt>
      <trkpt lat="44.09289" lon="7.05124">
        <ele>1338</ele>
        <time>2022-07-26T11:54:58Z</time>
      </trkpt>
      <trkpt lat="44.09288" lon="7.05124">
        <ele>1338</ele>
        <time>2022-07-26T11:54:59Z</time>
      </trkpt>
      <trkpt lat="44.09288" lon="7.05123">
        <ele>1338</ele>
        <time>2022-07-26T11:55:00Z</time>
      </trkpt>
      <trkpt lat="44.09287" lon="7.05123">
        <ele>1338</ele>
        <time>2022-07-26T11:55:01Z</time>
      </trkpt>
      <trkpt lat="44.09287" lon="7.05122">
        <ele>1338</ele>
        <time>2022-07-26T11:55:02Z</time>
      </trkpt>
      <trkpt lat="44.09286" lon="7.05122">
        <ele>1337</ele>
        <time>2022-07-26T11:55:03Z</time>
      </trkpt>
      <trkpt lat="44.09286" lon="7.0512">
        <ele>1336</ele>
        <time>2022-07-26T11:55:11Z</time>
      </trkpt>
      <trkpt lat="44.09285" lon="7.05119">
        <ele>1336</ele>
        <time>2022-07-26T11:55:12Z</time>
      </trkpt>
      <trkpt lat="44.09285" lon="7.05119">
        <ele>1336</ele>
        <time>2022-07-26T11:55:13Z</time>
      </trkpt>
      <trkpt lat="44.09285" lon="7.05117">
        <ele>1336</ele>
        <time>2022-07-26T11:55:14Z</time>
      </trkpt>
      <trkpt lat="44.09285" lon="7.05116">
        <ele>1336</ele>
        <time>2022-07-26T11:55:15Z</time>
      </trkpt>
      <trkpt lat="44.09285" lon="7.05115">
        <ele>1336</ele>
        <time>2022-07-26T11:55:16Z</time>
      </trkpt>
      <trkpt lat="44.09285" lon="7.05114">
        <ele>1336</ele>
        <time>2022-07-26T11:55:17Z</time>
      </trkpt>
      <trkpt lat="44.09285" lon="7.05112">
        <ele>1335</ele>
        <time>2022-07-26T11:55:18Z</time>
      </trkpt>
      <trkpt lat="44.09285" lon="7.0511">
        <ele>1335</ele>
        <time>2022-07-26T11:55:19Z</time>
      </trkpt>
      <trkpt lat="44.09286" lon="7.05108">
        <ele>1335</ele>
        <time>2022-07-26T11:55:20Z</time>
      </trkpt>
      <trkpt lat="44.09286" lon="7.05106">
        <ele>1335</ele>
        <time>2022-07-26T11:55:21Z</time>
      </trkpt>
      <trkpt lat="44.09287" lon="7.05103">
        <ele>1335</ele>
        <time>2022-07-26T11:55:22Z</time>
      </trkpt>
      <trkpt lat="44.09287" lon="7.05101">
        <ele>1335</ele>
        <time>2022-07-26T11:55:23Z</time>
      </trkpt>
      <trkpt lat="44.09288" lon="7.05099">
        <ele>1335</ele>
        <time>2022-07-26T11:55:24Z</time>
      </trkpt>
      <trkpt lat="44.09288" lon="7.05098">
        <ele>1335</ele>
        <time>2022-07-26T11:55:25Z</time>
      </trkpt>
      <trkpt lat="44.09288" lon="7.05097">
        <ele>1335</ele>
        <time>2022-07-26T11:55:26Z</time>
      </trkpt>
      <trkpt lat="44.09288" lon="7.05095">
        <ele>1335</ele>
        <time>2022-07-26T11:55:27Z</time>
      </trkpt>
      <trkpt lat="44.09287" lon="7.05094">
        <ele>1334</ele>
        <time>2022-07-26T11:55:28Z</time>
      </trkpt>
      <trkpt lat="44.09286" lon="7.05093">
        <ele>1334</ele>
        <time>2022-07-26T11:55:29Z</time>
      </trkpt>
      <trkpt lat="44.09285" lon="7.05092">
        <ele>1333</ele>
        <time>2022-07-26T11:55:30Z</time>
      </trkpt>
      <trkpt lat="44.09284" lon="7.05091">
        <ele>1333</ele>
        <time>2022-07-26T11:55:31Z</time>
      </trkpt>
      <trkpt lat="44.09284" lon="7.0509">
        <ele>1333</ele>
        <time>2022-07-26T11:55:32Z</time>
      </trkpt>
      <trkpt lat="44.09283" lon="7.0509">
        <ele>1332</ele>
        <time>2022-07-26T11:55:33Z</time>
      </trkpt>
      <trkpt lat="44.09283" lon="7.05089">
        <ele>1332</ele>
        <time>2022-07-26T11:55:34Z</time>
      </trkpt>
      <trkpt lat="44.09283" lon="7.05088">
        <ele>1332</ele>
        <time>2022-07-26T11:55:35Z</time>
      </trkpt>
      <trkpt lat="44.09282" lon="7.05087">
        <ele>1332</ele>
        <time>2022-07-26T11:55:36Z</time>
      </trkpt>
      <trkpt lat="44.09282" lon="7.05086">
        <ele>1332</ele>
        <time>2022-07-26T11:55:37Z</time>
      </trkpt>
      <trkpt lat="44.09281" lon="7.05085">
        <ele>1331</ele>
        <time>2022-07-26T11:55:38Z</time>
      </trkpt>
      <trkpt lat="44.0928" lon="7.05084">
        <ele>1331</ele>
        <time>2022-07-26T11:55:39Z</time>
      </trkpt>
      <trkpt lat="44.09279" lon="7.05083">
        <ele>1331</ele>
        <time>2022-07-26T11:55:40Z</time>
      </trkpt>
      <trkpt lat="44.09279" lon="7.05082">
        <ele>1330</ele>
        <time>2022-07-26T11:55:48Z</time>
      </trkpt>
      <trkpt lat="44.09278" lon="7.05081">
        <ele>1330</ele>
        <time>2022-07-26T11:55:49Z</time>
      </trkpt>
      <trkpt lat="44.09278" lon="7.0508">
        <ele>1330</ele>
        <time>2022-07-26T11:55:50Z</time>
      </trkpt>
      <trkpt lat="44.09278" lon="7.05079">
        <ele>1330</ele>
        <time>2022-07-26T11:55:51Z</time>
      </trkpt>
      <trkpt lat="44.09277" lon="7.05078">
        <ele>1330</ele>
        <time>2022-07-26T11:55:52Z</time>
      </trkpt>
      <trkpt lat="44.09277" lon="7.05077">
        <ele>1329</ele>
        <time>2022-07-26T11:55:53Z</time>
      </trkpt>
      <trkpt lat="44.09277" lon="7.05075">
        <ele>1329</ele>
        <time>2022-07-26T11:55:54Z</time>
      </trkpt>
      <trkpt lat="44.09276" lon="7.05074">
        <ele>1328</ele>
        <time>2022-07-26T11:56:13Z</time>
      </trkpt>
      <trkpt lat="44.09276" lon="7.05073">
        <ele>1328</ele>
        <time>2022-07-26T11:56:14Z</time>
      </trkpt>
      <trkpt lat="44.09275" lon="7.05072">
        <ele>1328</ele>
        <time>2022-07-26T11:56:15Z</time>
      </trkpt>
      <trkpt lat="44.09275" lon="7.05071">
        <ele>1328</ele>
        <time>2022-07-26T11:56:16Z</time>
      </trkpt>
      <trkpt lat="44.09274" lon="7.0507">
        <ele>1328</ele>
        <time>2022-07-26T11:56:17Z</time>
      </trkpt>
      <trkpt lat="44.09274" lon="7.05069">
        <ele>1327</ele>
        <time>2022-07-26T11:56:18Z</time>
      </trkpt>
      <trkpt lat="44.09273" lon="7.05068">
        <ele>1327</ele>
        <time>2022-07-26T11:56:19Z</time>
      </trkpt>
      <trkpt lat="44.09272" lon="7.05067">
        <ele>1327</ele>
        <time>2022-07-26T11:56:20Z</time>
      </trkpt>
      <trkpt lat="44.09271" lon="7.05066">
        <ele>1327</ele>
        <time>2022-07-26T11:56:21Z</time>
      </trkpt>
      <trkpt lat="44.0927" lon="7.05065">
        <ele>1327</ele>
        <time>2022-07-26T11:56:22Z</time>
      </trkpt>
      <trkpt lat="44.09269" lon="7.05064">
        <ele>1326</ele>
        <time>2022-07-26T11:56:23Z</time>
      </trkpt>
      <trkpt lat="44.09267" lon="7.05063">
        <ele>1326</ele>
        <time>2022-07-26T11:56:24Z</time>
      </trkpt>
      <trkpt lat="44.09266" lon="7.05063">
        <ele>1326</ele>
        <time>2022-07-26T11:56:25Z</time>
      </trkpt>
      <trkpt lat="44.09265" lon="7.05063">
        <ele>1326</ele>
        <time>2022-07-26T11:56:26Z</time>
      </trkpt>
      <trkpt lat="44.09264" lon="7.05062">
        <ele>1326</ele>
        <time>2022-07-26T11:56:27Z</time>
      </trkpt>
      <trkpt lat="44.09263" lon="7.05062">
        <ele>1326</ele>
        <time>2022-07-26T11:56:28Z</time>
      </trkpt>
      <trkpt lat="44.09262" lon="7.05062">
        <ele>1326</ele>
        <time>2022-07-26T11:56:29Z</time>
      </trkpt>
      <trkpt lat="44.0926" lon="7.05062">
        <ele>1326</ele>
        <time>2022-07-26T11:56:30Z</time>
      </trkpt>
      <trkpt lat="44.09259" lon="7.05063">
        <ele>1326</ele>
        <time>2022-07-26T11:56:31Z</time>
      </trkpt>
      <trkpt lat="44.09257" lon="7.05063">
        <ele>1326</ele>
        <time>2022-07-26T11:56:32Z</time>
      </trkpt>
      <trkpt lat="44.09256" lon="7.05063">
        <ele>1325</ele>
        <time>2022-07-26T11:56:33Z</time>
      </trkpt>
      <trkpt lat="44.09254" lon="7.05064">
        <ele>1325</ele>
        <time>2022-07-26T11:56:34Z</time>
      </trkpt>
      <trkpt lat="44.09253" lon="7.05065">
        <ele>1325</ele>
        <time>2022-07-26T11:56:35Z</time>
      </trkpt>
      <trkpt lat="44.09252" lon="7.05065">
        <ele>1325</ele>
        <time>2022-07-26T11:56:36Z</time>
      </trkpt>
      <trkpt lat="44.0925" lon="7.05066">
        <ele>1325</ele>
        <time>2022-07-26T11:56:37Z</time>
      </trkpt>
      <trkpt lat="44.09249" lon="7.05067">
        <ele>1324</ele>
        <time>2022-07-26T11:56:38Z</time>
      </trkpt>
      <trkpt lat="44.09248" lon="7.05068">
        <ele>1324</ele>
        <time>2022-07-26T11:56:39Z</time>
      </trkpt>
      <trkpt lat="44.09246" lon="7.05068">
        <ele>1324</ele>
        <time>2022-07-26T11:56:40Z</time>
      </trkpt>
      <trkpt lat="44.09245" lon="7.05069">
        <ele>1324</ele>
        <time>2022-07-26T11:56:41Z</time>
      </trkpt>
      <trkpt lat="44.09244" lon="7.0507">
        <ele>1324</ele>
        <time>2022-07-26T11:56:42Z</time>
      </trkpt>
      <trkpt lat="44.09243" lon="7.0507">
        <ele>1323</ele>
        <time>2022-07-26T11:56:43Z</time>
      </trkpt>
      <trkpt lat="44.09242" lon="7.0507">
        <ele>1323</ele>
        <time>2022-07-26T11:56:44Z</time>
      </trkpt>
      <trkpt lat="44.09241" lon="7.0507">
        <ele>1323</ele>
        <time>2022-07-26T11:56:45Z</time>
      </trkpt>
      <trkpt lat="44.0924" lon="7.0507">
        <ele>1323</ele>
        <time>2022-07-26T11:56:46Z</time>
      </trkpt>
      <trkpt lat="44.09239" lon="7.05071">
        <ele>1323</ele>
        <time>2022-07-26T11:56:47Z</time>
      </trkpt>
      <trkpt lat="44.09238" lon="7.0507">
        <ele>1323</ele>
        <time>2022-07-26T11:56:48Z</time>
      </trkpt>
      <trkpt lat="44.09237" lon="7.0507">
        <ele>1323</ele>
        <time>2022-07-26T11:56:49Z</time>
      </trkpt>
      <trkpt lat="44.09236" lon="7.05069">
        <ele>1323</ele>
        <time>2022-07-26T11:56:50Z</time>
      </trkpt>
      <trkpt lat="44.09235" lon="7.05068">
        <ele>1323</ele>
        <time>2022-07-26T11:56:51Z</time>
      </trkpt>
      <trkpt lat="44.09235" lon="7.05067">
        <ele>1323</ele>
        <time>2022-07-26T11:56:52Z</time>
      </trkpt>
      <trkpt lat="44.09234" lon="7.05066">
        <ele>1322</ele>
        <time>2022-07-26T11:56:53Z</time>
      </trkpt>
      <trkpt lat="44.09233" lon="7.05066">
        <ele>1322</ele>
        <time>2022-07-26T11:56:54Z</time>
      </trkpt>
      <trkpt lat="44.09232" lon="7.05065">
        <ele>1322</ele>
        <time>2022-07-26T11:56:55Z</time>
      </trkpt>
      <trkpt lat="44.09231" lon="7.05065">
        <ele>1322</ele>
        <time>2022-07-26T11:56:56Z</time>
      </trkpt>
      <trkpt lat="44.0923" lon="7.05065">
        <ele>1322</ele>
        <time>2022-07-26T11:56:57Z</time>
      </trkpt>
      <trkpt lat="44.0923" lon="7.05064">
        <ele>1321</ele>
        <time>2022-07-26T11:56:58Z</time>
      </trkpt>
      <trkpt lat="44.09229" lon="7.05064">
        <ele>1321</ele>
        <time>2022-07-26T11:56:59Z</time>
      </trkpt>
      <trkpt lat="44.09228" lon="7.05064">
        <ele>1321</ele>
        <time>2022-07-26T11:57:00Z</time>
      </trkpt>
      <trkpt lat="44.09227" lon="7.05063">
        <ele>1321</ele>
        <time>2022-07-26T11:57:01Z</time>
      </trkpt>
      <trkpt lat="44.09226" lon="7.05063">
        <ele>1321</ele>
        <time>2022-07-26T11:57:02Z</time>
      </trkpt>
      <trkpt lat="44.09225" lon="7.05062">
        <ele>1320</ele>
        <time>2022-07-26T11:57:03Z</time>
      </trkpt>
      <trkpt lat="44.09224" lon="7.05061">
        <ele>1320</ele>
        <time>2022-07-26T11:57:04Z</time>
      </trkpt>
      <trkpt lat="44.09223" lon="7.05061">
        <ele>1320</ele>
        <time>2022-07-26T11:57:05Z</time>
      </trkpt>
      <trkpt lat="44.09222" lon="7.0506">
        <ele>1320</ele>
        <time>2022-07-26T11:57:06Z</time>
      </trkpt>
      <trkpt lat="44.09221" lon="7.05059">
        <ele>1320</ele>
        <time>2022-07-26T11:57:07Z</time>
      </trkpt>
      <trkpt lat="44.0922" lon="7.05059">
        <ele>1319</ele>
        <time>2022-07-26T11:57:08Z</time>
      </trkpt>
      <trkpt lat="44.09219" lon="7.05058">
        <ele>1319</ele>
        <time>2022-07-26T11:57:09Z</time>
      </trkpt>
      <trkpt lat="44.09218" lon="7.05058">
        <ele>1319</ele>
        <time>2022-07-26T11:57:10Z</time>
      </trkpt>
      <trkpt lat="44.09217" lon="7.05057">
        <ele>1319</ele>
        <time>2022-07-26T11:57:11Z</time>
      </trkpt>
      <trkpt lat="44.09216" lon="7.05056">
        <ele>1319</ele>
        <time>2022-07-26T11:57:12Z</time>
      </trkpt>
      <trkpt lat="44.09215" lon="7.05055">
        <ele>1318</ele>
        <time>2022-07-26T11:57:13Z</time>
      </trkpt>
      <trkpt lat="44.09214" lon="7.05054">
        <ele>1318</ele>
        <time>2022-07-26T11:57:14Z</time>
      </trkpt>
      <trkpt lat="44.09214" lon="7.05053">
        <ele>1318</ele>
        <time>2022-07-26T11:57:15Z</time>
      </trkpt>
      <trkpt lat="44.09213" lon="7.05052">
        <ele>1318</ele>
        <time>2022-07-26T11:57:16Z</time>
      </trkpt>
      <trkpt lat="44.09212" lon="7.05051">
        <ele>1318</ele>
        <time>2022-07-26T11:57:17Z</time>
      </trkpt>
      <trkpt lat="44.09212" lon="7.0505">
        <ele>1317</ele>
        <time>2022-07-26T11:57:18Z</time>
      </trkpt>
      <trkpt lat="44.09211" lon="7.0505">
        <ele>1317</ele>
        <time>2022-07-26T11:57:19Z</time>
      </trkpt>
      <trkpt lat="44.0921" lon="7.05049">
        <ele>1316</ele>
        <time>2022-07-26T11:57:20Z</time>
      </trkpt>
      <trkpt lat="44.09209" lon="7.05048">
        <ele>1316</ele>
        <time>2022-07-26T11:57:21Z</time>
      </trkpt>
      <trkpt lat="44.09208" lon="7.05048">
        <ele>1316</ele>
        <time>2022-07-26T11:57:22Z</time>
      </trkpt>
      <trkpt lat="44.09206" lon="7.05047">
        <ele>1315</ele>
        <time>2022-07-26T11:57:23Z</time>
      </trkpt>
      <trkpt lat="44.09205" lon="7.05047">
        <ele>1315</ele>
        <time>2022-07-26T11:57:24Z</time>
      </trkpt>
      <trkpt lat="44.09204" lon="7.05046">
        <ele>1314</ele>
        <time>2022-07-26T11:57:25Z</time>
      </trkpt>
      <trkpt lat="44.09203" lon="7.05045">
        <ele>1314</ele>
        <time>2022-07-26T11:57:26Z</time>
      </trkpt>
      <trkpt lat="44.09202" lon="7.05044">
        <ele>1314</ele>
        <time>2022-07-26T11:57:27Z</time>
      </trkpt>
      <trkpt lat="44.09201" lon="7.05043">
        <ele>1313</ele>
        <time>2022-07-26T11:57:28Z</time>
      </trkpt>
      <trkpt lat="44.092" lon="7.05042">
        <ele>1313</ele>
        <time>2022-07-26T11:57:29Z</time>
      </trkpt>
      <trkpt lat="44.092" lon="7.05041">
        <ele>1313</ele>
        <time>2022-07-26T11:57:30Z</time>
      </trkpt>
      <trkpt lat="44.09199" lon="7.0504">
        <ele>1313</ele>
        <time>2022-07-26T11:57:31Z</time>
      </trkpt>
      <trkpt lat="44.09198" lon="7.0504">
        <ele>1310</ele>
        <time>2022-07-26T11:57:42Z</time>
      </trkpt>
      <trkpt lat="44.09197" lon="7.0504">
        <ele>1309</ele>
        <time>2022-07-26T11:57:43Z</time>
      </trkpt>
      <trkpt lat="44.09196" lon="7.0504">
        <ele>1309</ele>
        <time>2022-07-26T11:57:44Z</time>
      </trkpt>
      <trkpt lat="44.09196" lon="7.0504">
        <ele>1309</ele>
        <time>2022-07-26T11:57:45Z</time>
      </trkpt>
      <trkpt lat="44.09195" lon="7.05041">
        <ele>1309</ele>
        <time>2022-07-26T11:57:46Z</time>
      </trkpt>
      <trkpt lat="44.09195" lon="7.05042">
        <ele>1309</ele>
        <time>2022-07-26T11:57:47Z</time>
      </trkpt>
      <trkpt lat="44.09195" lon="7.05043">
        <ele>1309</ele>
        <time>2022-07-26T11:57:48Z</time>
      </trkpt>
      <trkpt lat="44.09195" lon="7.05044">
        <ele>1309</ele>
        <time>2022-07-26T11:57:49Z</time>
      </trkpt>
      <trkpt lat="44.09196" lon="7.05045">
        <ele>1309</ele>
        <time>2022-07-26T11:57:50Z</time>
      </trkpt>
      <trkpt lat="44.09196" lon="7.05046">
        <ele>1309</ele>
        <time>2022-07-26T11:57:51Z</time>
      </trkpt>
      <trkpt lat="44.09196" lon="7.05047">
        <ele>1309</ele>
        <time>2022-07-26T11:57:52Z</time>
      </trkpt>
      <trkpt lat="44.09196" lon="7.05048">
        <ele>1307</ele>
        <time>2022-07-26T11:58:02Z</time>
      </trkpt>
      <trkpt lat="44.09196" lon="7.05049">
        <ele>1306</ele>
        <time>2022-07-26T11:58:03Z</time>
      </trkpt>
      <trkpt lat="44.09196" lon="7.0505">
        <ele>1306</ele>
        <time>2022-07-26T11:58:04Z</time>
      </trkpt>
      <trkpt lat="44.09195" lon="7.0505">
        <ele>1306</ele>
        <time>2022-07-26T11:58:05Z</time>
      </trkpt>
      <trkpt lat="44.09195" lon="7.0505">
        <ele>1306</ele>
        <time>2022-07-26T11:58:06Z</time>
      </trkpt>
      <trkpt lat="44.09194" lon="7.0505">
        <ele>1306</ele>
        <time>2022-07-26T11:58:07Z</time>
      </trkpt>
      <trkpt lat="44.09193" lon="7.0505">
        <ele>1305</ele>
        <time>2022-07-26T11:58:08Z</time>
      </trkpt>
      <trkpt lat="44.09192" lon="7.0505">
        <ele>1305</ele>
        <time>2022-07-26T11:58:09Z</time>
      </trkpt>
      <trkpt lat="44.09191" lon="7.05049">
        <ele>1305</ele>
        <time>2022-07-26T11:58:10Z</time>
      </trkpt>
      <trkpt lat="44.0919" lon="7.05049">
        <ele>1305</ele>
        <time>2022-07-26T11:58:11Z</time>
      </trkpt>
      <trkpt lat="44.09189" lon="7.05048">
        <ele>1305</ele>
        <time>2022-07-26T11:58:12Z</time>
      </trkpt>
      <trkpt lat="44.09188" lon="7.05047">
        <ele>1304</ele>
        <time>2022-07-26T11:58:13Z</time>
      </trkpt>
      <trkpt lat="44.09187" lon="7.05047">
        <ele>1304</ele>
        <time>2022-07-26T11:58:14Z</time>
      </trkpt>
      <trkpt lat="44.09186" lon="7.05046">
        <ele>1304</ele>
        <time>2022-07-26T11:58:15Z</time>
      </trkpt>
      <trkpt lat="44.09185" lon="7.05045">
        <ele>1304</ele>
        <time>2022-07-26T11:58:16Z</time>
      </trkpt>
      <trkpt lat="44.09184" lon="7.05044">
        <ele>1304</ele>
        <time>2022-07-26T11:58:17Z</time>
      </trkpt>
      <trkpt lat="44.09183" lon="7.05044">
        <ele>1303</ele>
        <time>2022-07-26T11:58:18Z</time>
      </trkpt>
      <trkpt lat="44.09183" lon="7.05043">
        <ele>1303</ele>
        <time>2022-07-26T11:58:19Z</time>
      </trkpt>
      <trkpt lat="44.09182" lon="7.05043">
        <ele>1303</ele>
        <time>2022-07-26T11:58:20Z</time>
      </trkpt>
      <trkpt lat="44.09181" lon="7.05043">
        <ele>1303</ele>
        <time>2022-07-26T11:58:21Z</time>
      </trkpt>
      <trkpt lat="44.09181" lon="7.05042">
        <ele>1303</ele>
        <time>2022-07-26T11:58:22Z</time>
      </trkpt>
      <trkpt lat="44.0918" lon="7.05042">
        <ele>1302</ele>
        <time>2022-07-26T11:58:23Z</time>
      </trkpt>
      <trkpt lat="44.09179" lon="7.05042">
        <ele>1302</ele>
        <time>2022-07-26T11:58:24Z</time>
      </trkpt>
      <trkpt lat="44.09178" lon="7.05042">
        <ele>1302</ele>
        <time>2022-07-26T11:58:25Z</time>
      </trkpt>
      <trkpt lat="44.09178" lon="7.05041">
        <ele>1302</ele>
        <time>2022-07-26T11:58:26Z</time>
      </trkpt>
      <trkpt lat="44.09177" lon="7.05041">
        <ele>1302</ele>
        <time>2022-07-26T11:58:27Z</time>
      </trkpt>
      <trkpt lat="44.09176" lon="7.05041">
        <ele>1301</ele>
        <time>2022-07-26T11:58:28Z</time>
      </trkpt>
      <trkpt lat="44.09176" lon="7.05041">
        <ele>1301</ele>
        <time>2022-07-26T11:58:29Z</time>
      </trkpt>
      <trkpt lat="44.09175" lon="7.0504">
        <ele>1301</ele>
        <time>2022-07-26T11:58:30Z</time>
      </trkpt>
      <trkpt lat="44.09175" lon="7.0504">
        <ele>1301</ele>
        <time>2022-07-26T11:58:31Z</time>
      </trkpt>
      <trkpt lat="44.09174" lon="7.05039">
        <ele>1301</ele>
        <time>2022-07-26T11:58:32Z</time>
      </trkpt>
      <trkpt lat="44.09174" lon="7.05039">
        <ele>1300</ele>
        <time>2022-07-26T11:58:33Z</time>
      </trkpt>
      <trkpt lat="44.09173" lon="7.05038">
        <ele>1300</ele>
        <time>2022-07-26T11:58:34Z</time>
      </trkpt>
      <trkpt lat="44.09173" lon="7.05038">
        <ele>1299</ele>
        <time>2022-07-26T11:58:35Z</time>
      </trkpt>
      <trkpt lat="44.09172" lon="7.05037">
        <ele>1299</ele>
        <time>2022-07-26T11:58:36Z</time>
      </trkpt>
      <trkpt lat="44.09172" lon="7.05036">
        <ele>1299</ele>
        <time>2022-07-26T11:58:37Z</time>
      </trkpt>
      <trkpt lat="44.09171" lon="7.05036">
        <ele>1298</ele>
        <time>2022-07-26T11:58:38Z</time>
      </trkpt>
      <trkpt lat="44.09171" lon="7.05035">
        <ele>1298</ele>
        <time>2022-07-26T11:58:39Z</time>
      </trkpt>
      <trkpt lat="44.0917" lon="7.05035">
        <ele>1298</ele>
        <time>2022-07-26T11:58:40Z</time>
      </trkpt>
      <trkpt lat="44.0917" lon="7.05034">
        <ele>1298</ele>
        <time>2022-07-26T11:58:41Z</time>
      </trkpt>
      <trkpt lat="44.09169" lon="7.05033">
        <ele>1298</ele>
        <time>2022-07-26T11:58:42Z</time>
      </trkpt>
      <trkpt lat="44.09169" lon="7.05032">
        <ele>1297</ele>
        <time>2022-07-26T11:58:43Z</time>
      </trkpt>
      <trkpt lat="44.09169" lon="7.05031">
        <ele>1297</ele>
        <time>2022-07-26T11:58:44Z</time>
      </trkpt>
      <trkpt lat="44.09168" lon="7.0503">
        <ele>1297</ele>
        <time>2022-07-26T11:58:45Z</time>
      </trkpt>
      <trkpt lat="44.09168" lon="7.05029">
        <ele>1297</ele>
        <time>2022-07-26T11:58:46Z</time>
      </trkpt>
      <trkpt lat="44.09167" lon="7.05028">
        <ele>1297</ele>
        <time>2022-07-26T11:58:47Z</time>
      </trkpt>
      <trkpt lat="44.09166" lon="7.05027">
        <ele>1296</ele>
        <time>2022-07-26T11:58:48Z</time>
      </trkpt>
      <trkpt lat="44.09165" lon="7.05026">
        <ele>1296</ele>
        <time>2022-07-26T11:58:49Z</time>
      </trkpt>
      <trkpt lat="44.09165" lon="7.05025">
        <ele>1296</ele>
        <time>2022-07-26T11:58:50Z</time>
      </trkpt>
      <trkpt lat="44.09164" lon="7.05024">
        <ele>1296</ele>
        <time>2022-07-26T11:58:51Z</time>
      </trkpt>
      <trkpt lat="44.09163" lon="7.05023">
        <ele>1296</ele>
        <time>2022-07-26T11:58:52Z</time>
      </trkpt>
      <trkpt lat="44.09162" lon="7.05023">
        <ele>1295</ele>
        <time>2022-07-26T11:58:53Z</time>
      </trkpt>
      <trkpt lat="44.09161" lon="7.05023">
        <ele>1295</ele>
        <time>2022-07-26T11:58:54Z</time>
      </trkpt>
      <trkpt lat="44.0916" lon="7.05024">
        <ele>1295</ele>
        <time>2022-07-26T11:58:55Z</time>
      </trkpt>
      <trkpt lat="44.0916" lon="7.05024">
        <ele>1295</ele>
        <time>2022-07-26T11:58:56Z</time>
      </trkpt>
      <trkpt lat="44.0916" lon="7.05025">
        <ele>1295</ele>
        <time>2022-07-26T11:58:57Z</time>
      </trkpt>
      <trkpt lat="44.0916" lon="7.05027">
        <ele>1294</ele>
        <time>2022-07-26T11:58:58Z</time>
      </trkpt>
      <trkpt lat="44.0916" lon="7.05028">
        <ele>1294</ele>
        <time>2022-07-26T11:58:59Z</time>
      </trkpt>
      <trkpt lat="44.0916" lon="7.0503">
        <ele>1294</ele>
        <time>2022-07-26T11:59:00Z</time>
      </trkpt>
      <trkpt lat="44.0916" lon="7.05031">
        <ele>1294</ele>
        <time>2022-07-26T11:59:01Z</time>
      </trkpt>
      <trkpt lat="44.0916" lon="7.05032">
        <ele>1294</ele>
        <time>2022-07-26T11:59:02Z</time>
      </trkpt>
      <trkpt lat="44.09161" lon="7.05034">
        <ele>1293</ele>
        <time>2022-07-26T11:59:03Z</time>
      </trkpt>
      <trkpt lat="44.09161" lon="7.05035">
        <ele>1293</ele>
        <time>2022-07-26T11:59:04Z</time>
      </trkpt>
      <trkpt lat="44.09161" lon="7.05037">
        <ele>1293</ele>
        <time>2022-07-26T11:59:05Z</time>
      </trkpt>
      <trkpt lat="44.09161" lon="7.05038">
        <ele>1293</ele>
        <time>2022-07-26T11:59:06Z</time>
      </trkpt>
      <trkpt lat="44.09161" lon="7.05039">
        <ele>1293</ele>
        <time>2022-07-26T11:59:07Z</time>
      </trkpt>
      <trkpt lat="44.09161" lon="7.05041">
        <ele>1292</ele>
        <time>2022-07-26T11:59:08Z</time>
      </trkpt>
      <trkpt lat="44.0916" lon="7.05042">
        <ele>1292</ele>
        <time>2022-07-26T11:59:09Z</time>
      </trkpt>
      <trkpt lat="44.0916" lon="7.05043">
        <ele>1292</ele>
        <time>2022-07-26T11:59:10Z</time>
      </trkpt>
      <trkpt lat="44.09159" lon="7.05043">
        <ele>1292</ele>
        <time>2022-07-26T11:59:11Z</time>
      </trkpt>
      <trkpt lat="44.09158" lon="7.05044">
        <ele>1292</ele>
        <time>2022-07-26T11:59:12Z</time>
      </trkpt>
      <trkpt lat="44.09157" lon="7.05044">
        <ele>1291</ele>
        <time>2022-07-26T11:59:13Z</time>
      </trkpt>
      <trkpt lat="44.09156" lon="7.05044">
        <ele>1291</ele>
        <time>2022-07-26T11:59:14Z</time>
      </trkpt>
      <trkpt lat="44.09155" lon="7.05043">
        <ele>1291</ele>
        <time>2022-07-26T11:59:15Z</time>
      </trkpt>
      <trkpt lat="44.09154" lon="7.05043">
        <ele>1291</ele>
        <time>2022-07-26T11:59:16Z</time>
      </trkpt>
      <trkpt lat="44.09153" lon="7.05042">
        <ele>1291</ele>
        <time>2022-07-26T11:59:17Z</time>
      </trkpt>
      <trkpt lat="44.09152" lon="7.0504">
        <ele>1290</ele>
        <time>2022-07-26T11:59:18Z</time>
      </trkpt>
      <trkpt lat="44.09152" lon="7.05039">
        <ele>1290</ele>
        <time>2022-07-26T11:59:19Z</time>
      </trkpt>
      <trkpt lat="44.09151" lon="7.05038">
        <ele>1290</ele>
        <time>2022-07-26T11:59:20Z</time>
      </trkpt>
      <trkpt lat="44.09151" lon="7.05036">
        <ele>1290</ele>
        <time>2022-07-26T11:59:21Z</time>
      </trkpt>
      <trkpt lat="44.0915" lon="7.05035">
        <ele>1290</ele>
        <time>2022-07-26T11:59:22Z</time>
      </trkpt>
      <trkpt lat="44.0915" lon="7.05033">
        <ele>1289</ele>
        <time>2022-07-26T11:59:23Z</time>
      </trkpt>
      <trkpt lat="44.09149" lon="7.05032">
        <ele>1289</ele>
        <time>2022-07-26T11:59:24Z</time>
      </trkpt>
      <trkpt lat="44.09149" lon="7.05031">
        <ele>1289</ele>
        <time>2022-07-26T11:59:25Z</time>
      </trkpt>
      <trkpt lat="44.09148" lon="7.05029">
        <ele>1289</ele>
        <time>2022-07-26T11:59:26Z</time>
      </trkpt>
      <trkpt lat="44.09148" lon="7.05028">
        <ele>1289</ele>
        <time>2022-07-26T11:59:27Z</time>
      </trkpt>
      <trkpt lat="44.09147" lon="7.05027">
        <ele>1288</ele>
        <time>2022-07-26T11:59:28Z</time>
      </trkpt>
      <trkpt lat="44.09147" lon="7.05025">
        <ele>1288</ele>
        <time>2022-07-26T11:59:29Z</time>
      </trkpt>
      <trkpt lat="44.09146" lon="7.05024">
        <ele>1288</ele>
        <time>2022-07-26T11:59:30Z</time>
      </trkpt>
      <trkpt lat="44.09145" lon="7.05023">
        <ele>1288</ele>
        <time>2022-07-26T11:59:31Z</time>
      </trkpt>
      <trkpt lat="44.09145" lon="7.05021">
        <ele>1288</ele>
        <time>2022-07-26T11:59:32Z</time>
      </trkpt>
      <trkpt lat="44.09144" lon="7.0502">
        <ele>1287</ele>
        <time>2022-07-26T11:59:33Z</time>
      </trkpt>
      <trkpt lat="44.09143" lon="7.05019">
        <ele>1287</ele>
        <time>2022-07-26T11:59:34Z</time>
      </trkpt>
      <trkpt lat="44.09143" lon="7.05018">
        <ele>1286</ele>
        <time>2022-07-26T11:59:35Z</time>
      </trkpt>
      <trkpt lat="44.09142" lon="7.05017">
        <ele>1286</ele>
        <time>2022-07-26T11:59:36Z</time>
      </trkpt>
      <trkpt lat="44.09141" lon="7.05016">
        <ele>1286</ele>
        <time>2022-07-26T11:59:37Z</time>
      </trkpt>
      <trkpt lat="44.0914" lon="7.05015">
        <ele>1285</ele>
        <time>2022-07-26T11:59:38Z</time>
      </trkpt>
      <trkpt lat="44.09139" lon="7.05014">
        <ele>1285</ele>
        <time>2022-07-26T11:59:39Z</time>
      </trkpt>
      <trkpt lat="44.09139" lon="7.05013">
        <ele>1285</ele>
        <time>2022-07-26T11:59:40Z</time>
      </trkpt>
      <trkpt lat="44.09138" lon="7.05012">
        <ele>1285</ele>
        <time>2022-07-26T11:59:41Z</time>
      </trkpt>
      <trkpt lat="44.09137" lon="7.0501">
        <ele>1285</ele>
        <time>2022-07-26T11:59:42Z</time>
      </trkpt>
      <trkpt lat="44.09136" lon="7.05009">
        <ele>1284</ele>
        <time>2022-07-26T11:59:43Z</time>
      </trkpt>
      <trkpt lat="44.09135" lon="7.05008">
        <ele>1284</ele>
        <time>2022-07-26T11:59:44Z</time>
      </trkpt>
      <trkpt lat="44.09134" lon="7.05007">
        <ele>1284</ele>
        <time>2022-07-26T11:59:45Z</time>
      </trkpt>
      <trkpt lat="44.09134" lon="7.05006">
        <ele>1284</ele>
        <time>2022-07-26T11:59:46Z</time>
      </trkpt>
      <trkpt lat="44.09133" lon="7.05005">
        <ele>1284</ele>
        <time>2022-07-26T11:59:47Z</time>
      </trkpt>
      <trkpt lat="44.09132" lon="7.05003">
        <ele>1283</ele>
        <time>2022-07-26T11:59:48Z</time>
      </trkpt>
      <trkpt lat="44.09131" lon="7.05002">
        <ele>1283</ele>
        <time>2022-07-26T11:59:49Z</time>
      </trkpt>
      <trkpt lat="44.0913" lon="7.05001">
        <ele>1283</ele>
        <time>2022-07-26T11:59:50Z</time>
      </trkpt>
      <trkpt lat="44.0913" lon="7.05">
        <ele>1283</ele>
        <time>2022-07-26T11:59:51Z</time>
      </trkpt>
      <trkpt lat="44.09129" lon="7.04999">
        <ele>1283</ele>
        <time>2022-07-26T11:59:52Z</time>
      </trkpt>
      <trkpt lat="44.09128" lon="7.04997">
        <ele>1282</ele>
        <time>2022-07-26T11:59:53Z</time>
      </trkpt>
      <trkpt lat="44.09127" lon="7.04996">
        <ele>1282</ele>
        <time>2022-07-26T11:59:54Z</time>
      </trkpt>
      <trkpt lat="44.09126" lon="7.04995">
        <ele>1281</ele>
        <time>2022-07-26T11:59:55Z</time>
      </trkpt>
      <trkpt lat="44.09125" lon="7.04995">
        <ele>1281</ele>
        <time>2022-07-26T11:59:56Z</time>
      </trkpt>
      <trkpt lat="44.09124" lon="7.04995">
        <ele>1281</ele>
        <time>2022-07-26T11:59:57Z</time>
      </trkpt>
      <trkpt lat="44.09123" lon="7.04995">
        <ele>1280</ele>
        <time>2022-07-26T11:59:58Z</time>
      </trkpt>
      <trkpt lat="44.09122" lon="7.04996">
        <ele>1280</ele>
        <time>2022-07-26T11:59:59Z</time>
      </trkpt>
      <trkpt lat="44.09122" lon="7.04997">
        <ele>1280</ele>
        <time>2022-07-26T12:00:00Z</time>
      </trkpt>
      <trkpt lat="44.09121" lon="7.04999">
        <ele>1280</ele>
        <time>2022-07-26T12:00:01Z</time>
      </trkpt>
      <trkpt lat="44.09121" lon="7.05">
        <ele>1280</ele>
        <time>2022-07-26T12:00:02Z</time>
      </trkpt>
      <trkpt lat="44.09121" lon="7.05002">
        <ele>1278</ele>
        <time>2022-07-26T12:00:21Z</time>
      </trkpt>
      <trkpt lat="44.09122" lon="7.05004">
        <ele>1278</ele>
        <time>2022-07-26T12:00:22Z</time>
      </trkpt>
      <trkpt lat="44.09122" lon="7.05005">
        <ele>1278</ele>
        <time>2022-07-26T12:00:23Z</time>
      </trkpt>
      <trkpt lat="44.09123" lon="7.05007">
        <ele>1278</ele>
        <time>2022-07-26T12:00:24Z</time>
      </trkpt>
      <trkpt lat="44.09123" lon="7.05008">
        <ele>1278</ele>
        <time>2022-07-26T12:00:25Z</time>
      </trkpt>
      <trkpt lat="44.09123" lon="7.05009">
        <ele>1278</ele>
        <time>2022-07-26T12:00:26Z</time>
      </trkpt>
      <trkpt lat="44.09124" lon="7.0501">
        <ele>1278</ele>
        <time>2022-07-26T12:00:27Z</time>
      </trkpt>
      <trkpt lat="44.09124" lon="7.05012">
        <ele>1278</ele>
        <time>2022-07-26T12:00:28Z</time>
      </trkpt>
      <trkpt lat="44.09125" lon="7.05013">
        <ele>1278</ele>
        <time>2022-07-26T12:00:29Z</time>
      </trkpt>
      <trkpt lat="44.09126" lon="7.05015">
        <ele>1278</ele>
        <time>2022-07-26T12:00:30Z</time>
      </trkpt>
      <trkpt lat="44.09126" lon="7.05016">
        <ele>1278</ele>
        <time>2022-07-26T12:00:31Z</time>
      </trkpt>
      <trkpt lat="44.09127" lon="7.05018">
        <ele>1278</ele>
        <time>2022-07-26T12:00:32Z</time>
      </trkpt>
      <trkpt lat="44.09127" lon="7.05019">
        <ele>1278</ele>
        <time>2022-07-26T12:00:33Z</time>
      </trkpt>
      <trkpt lat="44.09128" lon="7.0502">
        <ele>1278</ele>
        <time>2022-07-26T12:00:34Z</time>
      </trkpt>
      <trkpt lat="44.09129" lon="7.05022">
        <ele>1278</ele>
        <time>2022-07-26T12:00:35Z</time>
      </trkpt>
      <trkpt lat="44.09129" lon="7.05023">
        <ele>1278</ele>
        <time>2022-07-26T12:00:36Z</time>
      </trkpt>
      <trkpt lat="44.0913" lon="7.05024">
        <ele>1278</ele>
        <time>2022-07-26T12:00:37Z</time>
      </trkpt>
      <trkpt lat="44.09131" lon="7.05025">
        <ele>1277</ele>
        <time>2022-07-26T12:00:38Z</time>
      </trkpt>
      <trkpt lat="44.09131" lon="7.05026">
        <ele>1277</ele>
        <time>2022-07-26T12:00:39Z</time>
      </trkpt>
      <trkpt lat="44.09132" lon="7.05027">
        <ele>1277</ele>
        <time>2022-07-26T12:00:40Z</time>
      </trkpt>
      <trkpt lat="44.09132" lon="7.05028">
        <ele>1277</ele>
        <time>2022-07-26T12:00:41Z</time>
      </trkpt>
      <trkpt lat="44.09133" lon="7.05029">
        <ele>1277</ele>
        <time>2022-07-26T12:00:42Z</time>
      </trkpt>
      <trkpt lat="44.09133" lon="7.05031">
        <ele>1277</ele>
        <time>2022-07-26T12:00:43Z</time>
      </trkpt>
      <trkpt lat="44.09134" lon="7.05032">
        <ele>1277</ele>
        <time>2022-07-26T12:00:44Z</time>
      </trkpt>
      <trkpt lat="44.09135" lon="7.05033">
        <ele>1277</ele>
        <time>2022-07-26T12:00:45Z</time>
      </trkpt>
      <trkpt lat="44.09135" lon="7.05034">
        <ele>1277</ele>
        <time>2022-07-26T12:00:46Z</time>
      </trkpt>
      <trkpt lat="44.09136" lon="7.05035">
        <ele>1277</ele>
        <time>2022-07-26T12:00:47Z</time>
      </trkpt>
      <trkpt lat="44.09137" lon="7.05037">
        <ele>1277</ele>
        <time>2022-07-26T12:00:48Z</time>
      </trkpt>
      <trkpt lat="44.09137" lon="7.05038">
        <ele>1277</ele>
        <time>2022-07-26T12:00:49Z</time>
      </trkpt>
      <trkpt lat="44.09138" lon="7.05039">
        <ele>1277</ele>
        <time>2022-07-26T12:00:50Z</time>
      </trkpt>
      <trkpt lat="44.09138" lon="7.0504">
        <ele>1277</ele>
        <time>2022-07-26T12:00:51Z</time>
      </trkpt>
      <trkpt lat="44.09139" lon="7.05041">
        <ele>1277</ele>
        <time>2022-07-26T12:00:52Z</time>
      </trkpt>
      <trkpt lat="44.0914" lon="7.05042">
        <ele>1276</ele>
        <time>2022-07-26T12:00:53Z</time>
      </trkpt>
      <trkpt lat="44.0914" lon="7.05043">
        <ele>1276</ele>
        <time>2022-07-26T12:00:54Z</time>
      </trkpt>
      <trkpt lat="44.09141" lon="7.05045">
        <ele>1276</ele>
        <time>2022-07-26T12:00:55Z</time>
      </trkpt>
      <trkpt lat="44.09141" lon="7.05046">
        <ele>1276</ele>
        <time>2022-07-26T12:00:56Z</time>
      </trkpt>
      <trkpt lat="44.09141" lon="7.05047">
        <ele>1276</ele>
        <time>2022-07-26T12:00:57Z</time>
      </trkpt>
      <trkpt lat="44.09142" lon="7.05049">
        <ele>1276</ele>
        <time>2022-07-26T12:00:58Z</time>
      </trkpt>
      <trkpt lat="44.09142" lon="7.0505">
        <ele>1276</ele>
        <time>2022-07-26T12:00:59Z</time>
      </trkpt>
      <trkpt lat="44.09142" lon="7.05052">
        <ele>1276</ele>
        <time>2022-07-26T12:01:00Z</time>
      </trkpt>
      <trkpt lat="44.09142" lon="7.05053">
        <ele>1276</ele>
        <time>2022-07-26T12:01:01Z</time>
      </trkpt>
      <trkpt lat="44.09143" lon="7.05055">
        <ele>1276</ele>
        <time>2022-07-26T12:01:02Z</time>
      </trkpt>
      <trkpt lat="44.09143" lon="7.05056">
        <ele>1275</ele>
        <time>2022-07-26T12:01:03Z</time>
      </trkpt>
      <trkpt lat="44.09143" lon="7.05058">
        <ele>1275</ele>
        <time>2022-07-26T12:01:04Z</time>
      </trkpt>
      <trkpt lat="44.09144" lon="7.0506">
        <ele>1275</ele>
        <time>2022-07-26T12:01:05Z</time>
      </trkpt>
      <trkpt lat="44.09144" lon="7.05061">
        <ele>1275</ele>
        <time>2022-07-26T12:01:06Z</time>
      </trkpt>
      <trkpt lat="44.09145" lon="7.05063">
        <ele>1275</ele>
        <time>2022-07-26T12:01:07Z</time>
      </trkpt>
      <trkpt lat="44.09146" lon="7.05064">
        <ele>1275</ele>
        <time>2022-07-26T12:01:08Z</time>
      </trkpt>
      <trkpt lat="44.09146" lon="7.05066">
        <ele>1275</ele>
        <time>2022-07-26T12:01:09Z</time>
      </trkpt>
      <trkpt lat="44.09147" lon="7.05067">
        <ele>1275</ele>
        <time>2022-07-26T12:01:10Z</time>
      </trkpt>
      <trkpt lat="44.09148" lon="7.05068">
        <ele>1275</ele>
        <time>2022-07-26T12:01:11Z</time>
      </trkpt>
      <trkpt lat="44.09149" lon="7.05069">
        <ele>1275</ele>
        <time>2022-07-26T12:01:12Z</time>
      </trkpt>
      <trkpt lat="44.09149" lon="7.0507">
        <ele>1275</ele>
        <time>2022-07-26T12:01:13Z</time>
      </trkpt>
      <trkpt lat="44.0915" lon="7.05071">
        <ele>1275</ele>
        <time>2022-07-26T12:01:14Z</time>
      </trkpt>
      <trkpt lat="44.09151" lon="7.05072">
        <ele>1275</ele>
        <time>2022-07-26T12:01:15Z</time>
      </trkpt>
      <trkpt lat="44.09152" lon="7.05072">
        <ele>1275</ele>
        <time>2022-07-26T12:01:16Z</time>
      </trkpt>
      <trkpt lat="44.09153" lon="7.05073">
        <ele>1275</ele>
        <time>2022-07-26T12:01:17Z</time>
      </trkpt>
      <trkpt lat="44.09154" lon="7.05073">
        <ele>1274</ele>
        <time>2022-07-26T12:01:18Z</time>
      </trkpt>
      <trkpt lat="44.09155" lon="7.05074">
        <ele>1274</ele>
        <time>2022-07-26T12:01:19Z</time>
      </trkpt>
      <trkpt lat="44.09156" lon="7.05074">
        <ele>1274</ele>
        <time>2022-07-26T12:01:20Z</time>
      </trkpt>
      <trkpt lat="44.09157" lon="7.05075">
        <ele>1274</ele>
        <time>2022-07-26T12:01:21Z</time>
      </trkpt>
      <trkpt lat="44.09158" lon="7.05075">
        <ele>1274</ele>
        <time>2022-07-26T12:01:22Z</time>
      </trkpt>
      <trkpt lat="44.0916" lon="7.05076">
        <ele>1274</ele>
        <time>2022-07-26T12:01:23Z</time>
      </trkpt>
      <trkpt lat="44.09161" lon="7.05076">
        <ele>1274</ele>
        <time>2022-07-26T12:01:24Z</time>
      </trkpt>
      <trkpt lat="44.09162" lon="7.05077">
        <ele>1274</ele>
        <time>2022-07-26T12:01:25Z</time>
      </trkpt>
      <trkpt lat="44.09163" lon="7.05077">
        <ele>1274</ele>
        <time>2022-07-26T12:01:26Z</time>
      </trkpt>
      <trkpt lat="44.09164" lon="7.05078">
        <ele>1274</ele>
        <time>2022-07-26T12:01:27Z</time>
      </trkpt>
      <trkpt lat="44.09165" lon="7.05079">
        <ele>1273</ele>
        <time>2022-07-26T12:01:28Z</time>
      </trkpt>
      <trkpt lat="44.09167" lon="7.0508">
        <ele>1273</ele>
        <time>2022-07-26T12:01:29Z</time>
      </trkpt>
      <trkpt lat="44.09168" lon="7.0508">
        <ele>1273</ele>
        <time>2022-07-26T12:01:30Z</time>
      </trkpt>
      <trkpt lat="44.09169" lon="7.05081">
        <ele>1273</ele>
        <time>2022-07-26T12:01:31Z</time>
      </trkpt>
      <trkpt lat="44.0917" lon="7.05082">
        <ele>1273</ele>
        <time>2022-07-26T12:01:32Z</time>
      </trkpt>
      <trkpt lat="44.09171" lon="7.05082">
        <ele>1273</ele>
        <time>2022-07-26T12:01:33Z</time>
      </trkpt>
      <trkpt lat="44.09172" lon="7.05083">
        <ele>1273</ele>
        <time>2022-07-26T12:01:34Z</time>
      </trkpt>
      <trkpt lat="44.09173" lon="7.05084">
        <ele>1273</ele>
        <time>2022-07-26T12:01:35Z</time>
      </trkpt>
      <trkpt lat="44.09174" lon="7.05084">
        <ele>1273</ele>
        <time>2022-07-26T12:01:36Z</time>
      </trkpt>
      <trkpt lat="44.09175" lon="7.05085">
        <ele>1273</ele>
        <time>2022-07-26T12:01:37Z</time>
      </trkpt>
      <trkpt lat="44.09176" lon="7.05086">
        <ele>1272</ele>
        <time>2022-07-26T12:01:38Z</time>
      </trkpt>
      <trkpt lat="44.09177" lon="7.05087">
        <ele>1272</ele>
        <time>2022-07-26T12:01:39Z</time>
      </trkpt>
      <trkpt lat="44.09178" lon="7.05087">
        <ele>1272</ele>
        <time>2022-07-26T12:01:40Z</time>
      </trkpt>
      <trkpt lat="44.09179" lon="7.05088">
        <ele>1272</ele>
        <time>2022-07-26T12:01:41Z</time>
      </trkpt>
      <trkpt lat="44.0918" lon="7.05089">
        <ele>1272</ele>
        <time>2022-07-26T12:01:42Z</time>
      </trkpt>
      <trkpt lat="44.09181" lon="7.05089">
        <ele>1272</ele>
        <time>2022-07-26T12:01:43Z</time>
      </trkpt>
      <trkpt lat="44.09182" lon="7.0509">
        <ele>1272</ele>
        <time>2022-07-26T12:01:44Z</time>
      </trkpt>
      <trkpt lat="44.09183" lon="7.05091">
        <ele>1272</ele>
        <time>2022-07-26T12:01:45Z</time>
      </trkpt>
      <trkpt lat="44.09184" lon="7.05092">
        <ele>1272</ele>
        <time>2022-07-26T12:01:46Z</time>
      </trkpt>
      <trkpt lat="44.09185" lon="7.05093">
        <ele>1272</ele>
        <time>2022-07-26T12:01:47Z</time>
      </trkpt>
      <trkpt lat="44.09186" lon="7.05093">
        <ele>1272</ele>
        <time>2022-07-26T12:01:48Z</time>
      </trkpt>
      <trkpt lat="44.09187" lon="7.05094">
        <ele>1272</ele>
        <time>2022-07-26T12:01:49Z</time>
      </trkpt>
      <trkpt lat="44.09188" lon="7.05095">
        <ele>1272</ele>
        <time>2022-07-26T12:01:50Z</time>
      </trkpt>
      <trkpt lat="44.09188" lon="7.05095">
        <ele>1272</ele>
        <time>2022-07-26T12:01:51Z</time>
      </trkpt>
      <trkpt lat="44.09189" lon="7.05096">
        <ele>1272</ele>
        <time>2022-07-26T12:01:52Z</time>
      </trkpt>
      <trkpt lat="44.0919" lon="7.05097">
        <ele>1271</ele>
        <time>2022-07-26T12:01:53Z</time>
      </trkpt>
      <trkpt lat="44.09191" lon="7.05098">
        <ele>1271</ele>
        <time>2022-07-26T12:01:54Z</time>
      </trkpt>
      <trkpt lat="44.09192" lon="7.05099">
        <ele>1271</ele>
        <time>2022-07-26T12:01:55Z</time>
      </trkpt>
      <trkpt lat="44.09192" lon="7.051">
        <ele>1271</ele>
        <time>2022-07-26T12:01:56Z</time>
      </trkpt>
      <trkpt lat="44.09193" lon="7.05101">
        <ele>1271</ele>
        <time>2022-07-26T12:01:57Z</time>
      </trkpt>
      <trkpt lat="44.09194" lon="7.05103">
        <ele>1271</ele>
        <time>2022-07-26T12:01:58Z</time>
      </trkpt>
      <trkpt lat="44.09195" lon="7.05104">
        <ele>1271</ele>
        <time>2022-07-26T12:01:59Z</time>
      </trkpt>
      <trkpt lat="44.09196" lon="7.05106">
        <ele>1271</ele>
        <time>2022-07-26T12:02:00Z</time>
      </trkpt>
      <trkpt lat="44.09197" lon="7.05107">
        <ele>1271</ele>
        <time>2022-07-26T12:02:01Z</time>
      </trkpt>
      <trkpt lat="44.09198" lon="7.05109">
        <ele>1271</ele>
        <time>2022-07-26T12:02:02Z</time>
      </trkpt>
      <trkpt lat="44.09199" lon="7.0511">
        <ele>1270</ele>
        <time>2022-07-26T12:02:03Z</time>
      </trkpt>
      <trkpt lat="44.092" lon="7.05112">
        <ele>1270</ele>
        <time>2022-07-26T12:02:04Z</time>
      </trkpt>
      <trkpt lat="44.09201" lon="7.05114">
        <ele>1270</ele>
        <time>2022-07-26T12:02:05Z</time>
      </trkpt>
      <trkpt lat="44.09202" lon="7.05115">
        <ele>1270</ele>
        <time>2022-07-26T12:02:06Z</time>
      </trkpt>
      <trkpt lat="44.09203" lon="7.05116">
        <ele>1270</ele>
        <time>2022-07-26T12:02:07Z</time>
      </trkpt>
      <trkpt lat="44.09204" lon="7.05117">
        <ele>1270</ele>
        <time>2022-07-26T12:02:08Z</time>
      </trkpt>
      <trkpt lat="44.09205" lon="7.05118">
        <ele>1270</ele>
        <time>2022-07-26T12:02:09Z</time>
      </trkpt>
      <trkpt lat="44.09206" lon="7.05119">
        <ele>1270</ele>
        <time>2022-07-26T12:02:10Z</time>
      </trkpt>
      <trkpt lat="44.09206" lon="7.0512">
        <ele>1270</ele>
        <time>2022-07-26T12:02:11Z</time>
      </trkpt>
      <trkpt lat="44.09207" lon="7.05121">
        <ele>1270</ele>
        <time>2022-07-26T12:02:12Z</time>
      </trkpt>
      <trkpt lat="44.09208" lon="7.05122">
        <ele>1269</ele>
        <time>2022-07-26T12:02:13Z</time>
      </trkpt>
      <trkpt lat="44.09209" lon="7.05123">
        <ele>1269</ele>
        <time>2022-07-26T12:02:14Z</time>
      </trkpt>
      <trkpt lat="44.09209" lon="7.05124">
        <ele>1269</ele>
        <time>2022-07-26T12:02:15Z</time>
      </trkpt>
      <trkpt lat="44.0921" lon="7.05125">
        <ele>1269</ele>
        <time>2022-07-26T12:02:16Z</time>
      </trkpt>
      <trkpt lat="44.09211" lon="7.05127">
        <ele>1269</ele>
        <time>2022-07-26T12:02:17Z</time>
      </trkpt>
      <trkpt lat="44.09212" lon="7.05128">
        <ele>1269</ele>
        <time>2022-07-26T12:02:18Z</time>
      </trkpt>
      <trkpt lat="44.09213" lon="7.05129">
        <ele>1269</ele>
        <time>2022-07-26T12:02:19Z</time>
      </trkpt>
      <trkpt lat="44.09213" lon="7.05131">
        <ele>1269</ele>
        <time>2022-07-26T12:02:20Z</time>
      </trkpt>
      <trkpt lat="44.09214" lon="7.05132">
        <ele>1269</ele>
        <time>2022-07-26T12:02:21Z</time>
      </trkpt>
      <trkpt lat="44.09214" lon="7.05134">
        <ele>1269</ele>
        <time>2022-07-26T12:02:22Z</time>
      </trkpt>
      <trkpt lat="44.09215" lon="7.05135">
        <ele>1268</ele>
        <time>2022-07-26T12:02:23Z</time>
      </trkpt>
      <trkpt lat="44.09215" lon="7.05137">
        <ele>1268</ele>
        <time>2022-07-26T12:02:24Z</time>
      </trkpt>
      <trkpt lat="44.09215" lon="7.05139">
        <ele>1268</ele>
        <time>2022-07-26T12:02:25Z</time>
      </trkpt>
      <trkpt lat="44.09216" lon="7.0514">
        <ele>1268</ele>
        <time>2022-07-26T12:02:26Z</time>
      </trkpt>
      <trkpt lat="44.09216" lon="7.05142">
        <ele>1268</ele>
        <time>2022-07-26T12:02:27Z</time>
      </trkpt>
      <trkpt lat="44.09216" lon="7.05143">
        <ele>1268</ele>
        <time>2022-07-26T12:02:28Z</time>
      </trkpt>
      <trkpt lat="44.09217" lon="7.05145">
        <ele>1268</ele>
        <time>2022-07-26T12:02:29Z</time>
      </trkpt>
      <trkpt lat="44.09217" lon="7.05147">
        <ele>1268</ele>
        <time>2022-07-26T12:02:30Z</time>
      </trkpt>
      <trkpt lat="44.09217" lon="7.05148">
        <ele>1268</ele>
        <time>2022-07-26T12:02:31Z</time>
      </trkpt>
      <trkpt lat="44.09218" lon="7.0515">
        <ele>1268</ele>
        <time>2022-07-26T12:02:32Z</time>
      </trkpt>
      <trkpt lat="44.09218" lon="7.05151">
        <ele>1267</ele>
        <time>2022-07-26T12:02:33Z</time>
      </trkpt>
      <trkpt lat="44.09218" lon="7.05153">
        <ele>1267</ele>
        <time>2022-07-26T12:02:34Z</time>
      </trkpt>
      <trkpt lat="44.09218" lon="7.05154">
        <ele>1267</ele>
        <time>2022-07-26T12:02:35Z</time>
      </trkpt>
      <trkpt lat="44.09219" lon="7.05156">
        <ele>1267</ele>
        <time>2022-07-26T12:02:36Z</time>
      </trkpt>
      <trkpt lat="44.09219" lon="7.05157">
        <ele>1267</ele>
        <time>2022-07-26T12:02:37Z</time>
      </trkpt>
      <trkpt lat="44.09219" lon="7.05158">
        <ele>1267</ele>
        <time>2022-07-26T12:02:38Z</time>
      </trkpt>
      <trkpt lat="44.09219" lon="7.0516">
        <ele>1267</ele>
        <time>2022-07-26T12:02:39Z</time>
      </trkpt>
      <trkpt lat="44.0922" lon="7.05161">
        <ele>1267</ele>
        <time>2022-07-26T12:02:40Z</time>
      </trkpt>
      <trkpt lat="44.0922" lon="7.05163">
        <ele>1267</ele>
        <time>2022-07-26T12:02:41Z</time>
      </trkpt>
      <trkpt lat="44.0922" lon="7.05164">
        <ele>1267</ele>
        <time>2022-07-26T12:02:42Z</time>
      </trkpt>
      <trkpt lat="44.09221" lon="7.05165">
        <ele>1267</ele>
        <time>2022-07-26T12:02:43Z</time>
      </trkpt>
      <trkpt lat="44.09221" lon="7.05167">
        <ele>1267</ele>
        <time>2022-07-26T12:02:44Z</time>
      </trkpt>
      <trkpt lat="44.09221" lon="7.05168">
        <ele>1267</ele>
        <time>2022-07-26T12:02:45Z</time>
      </trkpt>
      <trkpt lat="44.09222" lon="7.05169">
        <ele>1267</ele>
        <time>2022-07-26T12:02:46Z</time>
      </trkpt>
      <trkpt lat="44.09222" lon="7.05171">
        <ele>1267</ele>
        <time>2022-07-26T12:02:47Z</time>
      </trkpt>
      <trkpt lat="44.09223" lon="7.05172">
        <ele>1266</ele>
        <time>2022-07-26T12:02:48Z</time>
      </trkpt>
      <trkpt lat="44.09223" lon="7.05174">
        <ele>1266</ele>
        <time>2022-07-26T12:02:49Z</time>
      </trkpt>
      <trkpt lat="44.09223" lon="7.05176">
        <ele>1266</ele>
        <time>2022-07-26T12:02:50Z</time>
      </trkpt>
      <trkpt lat="44.09224" lon="7.05177">
        <ele>1266</ele>
        <time>2022-07-26T12:02:51Z</time>
      </trkpt>
      <trkpt lat="44.09224" lon="7.05179">
        <ele>1266</ele>
        <time>2022-07-26T12:02:52Z</time>
      </trkpt>
      <trkpt lat="44.09224" lon="7.05181">
        <ele>1266</ele>
        <time>2022-07-26T12:02:53Z</time>
      </trkpt>
      <trkpt lat="44.09224" lon="7.05182">
        <ele>1266</ele>
        <time>2022-07-26T12:02:54Z</time>
      </trkpt>
      <trkpt lat="44.09224" lon="7.05184">
        <ele>1266</ele>
        <time>2022-07-26T12:02:55Z</time>
      </trkpt>
      <trkpt lat="44.09225" lon="7.05186">
        <ele>1266</ele>
        <time>2022-07-26T12:02:56Z</time>
      </trkpt>
      <trkpt lat="44.09225" lon="7.05187">
        <ele>1266</ele>
        <time>2022-07-26T12:02:57Z</time>
      </trkpt>
      <trkpt lat="44.09225" lon="7.05189">
        <ele>1265</ele>
        <time>2022-07-26T12:02:58Z</time>
      </trkpt>
      <trkpt lat="44.09225" lon="7.0519">
        <ele>1265</ele>
        <time>2022-07-26T12:02:59Z</time>
      </trkpt>
      <trkpt lat="44.09225" lon="7.05192">
        <ele>1264</ele>
        <time>2022-07-26T12:03:00Z</time>
      </trkpt>
      <trkpt lat="44.09226" lon="7.05194">
        <ele>1264</ele>
        <time>2022-07-26T12:03:01Z</time>
      </trkpt>
      <trkpt lat="44.09226" lon="7.05196">
        <ele>1264</ele>
        <time>2022-07-26T12:03:02Z</time>
      </trkpt>
      <trkpt lat="44.09226" lon="7.05198">
        <ele>1264</ele>
        <time>2022-07-26T12:03:03Z</time>
      </trkpt>
      <trkpt lat="44.09226" lon="7.05199">
        <ele>1264</ele>
        <time>2022-07-26T12:03:04Z</time>
      </trkpt>
      <trkpt lat="44.09226" lon="7.05201">
        <ele>1264</ele>
        <time>2022-07-26T12:03:05Z</time>
      </trkpt>
      <trkpt lat="44.09226" lon="7.05203">
        <ele>1264</ele>
        <time>2022-07-26T12:03:06Z</time>
      </trkpt>
      <trkpt lat="44.09226" lon="7.05204">
        <ele>1264</ele>
        <time>2022-07-26T12:03:07Z</time>
      </trkpt>
      <trkpt lat="44.09226" lon="7.05206">
        <ele>1264</ele>
        <time>2022-07-26T12:03:08Z</time>
      </trkpt>
      <trkpt lat="44.09227" lon="7.05208">
        <ele>1264</ele>
        <time>2022-07-26T12:03:09Z</time>
      </trkpt>
      <trkpt lat="44.09227" lon="7.05209">
        <ele>1264</ele>
        <time>2022-07-26T12:03:10Z</time>
      </trkpt>
      <trkpt lat="44.09227" lon="7.05211">
        <ele>1264</ele>
        <time>2022-07-26T12:03:11Z</time>
      </trkpt>
      <trkpt lat="44.09227" lon="7.05213">
        <ele>1264</ele>
        <time>2022-07-26T12:03:12Z</time>
      </trkpt>
      <trkpt lat="44.09227" lon="7.05215">
        <ele>1263</ele>
        <time>2022-07-26T12:03:13Z</time>
      </trkpt>
      <trkpt lat="44.09227" lon="7.05217">
        <ele>1263</ele>
        <time>2022-07-26T12:03:14Z</time>
      </trkpt>
      <trkpt lat="44.09228" lon="7.05218">
        <ele>1263</ele>
        <time>2022-07-26T12:03:15Z</time>
      </trkpt>
      <trkpt lat="44.09228" lon="7.0522">
        <ele>1263</ele>
        <time>2022-07-26T12:03:16Z</time>
      </trkpt>
      <trkpt lat="44.09229" lon="7.05222">
        <ele>1263</ele>
        <time>2022-07-26T12:03:17Z</time>
      </trkpt>
      <trkpt lat="44.09229" lon="7.05223">
        <ele>1263</ele>
        <time>2022-07-26T12:03:18Z</time>
      </trkpt>
      <trkpt lat="44.0923" lon="7.05224">
        <ele>1263</ele>
        <time>2022-07-26T12:03:19Z</time>
      </trkpt>
      <trkpt lat="44.09231" lon="7.05226">
        <ele>1263</ele>
        <time>2022-07-26T12:03:20Z</time>
      </trkpt>
      <trkpt lat="44.09232" lon="7.05227">
        <ele>1263</ele>
        <time>2022-07-26T12:03:21Z</time>
      </trkpt>
      <trkpt lat="44.09233" lon="7.05228">
        <ele>1263</ele>
        <time>2022-07-26T12:03:22Z</time>
      </trkpt>
      <trkpt lat="44.09233" lon="7.0523">
        <ele>1263</ele>
        <time>2022-07-26T12:03:23Z</time>
      </trkpt>
      <trkpt lat="44.09234" lon="7.05231">
        <ele>1263</ele>
        <time>2022-07-26T12:03:24Z</time>
      </trkpt>
      <trkpt lat="44.09235" lon="7.05232">
        <ele>1263</ele>
        <time>2022-07-26T12:03:25Z</time>
      </trkpt>
      <trkpt lat="44.09236" lon="7.05233">
        <ele>1263</ele>
        <time>2022-07-26T12:03:26Z</time>
      </trkpt>
      <trkpt lat="44.09237" lon="7.05234">
        <ele>1263</ele>
        <time>2022-07-26T12:03:27Z</time>
      </trkpt>
      <trkpt lat="44.09238" lon="7.05236">
        <ele>1262</ele>
        <time>2022-07-26T12:03:28Z</time>
      </trkpt>
      <trkpt lat="44.09239" lon="7.05237">
        <ele>1262</ele>
        <time>2022-07-26T12:03:29Z</time>
      </trkpt>
      <trkpt lat="44.09239" lon="7.05238">
        <ele>1262</ele>
        <time>2022-07-26T12:03:30Z</time>
      </trkpt>
      <trkpt lat="44.0924" lon="7.05239">
        <ele>1262</ele>
        <time>2022-07-26T12:03:31Z</time>
      </trkpt>
      <trkpt lat="44.09241" lon="7.0524">
        <ele>1262</ele>
        <time>2022-07-26T12:03:32Z</time>
      </trkpt>
      <trkpt lat="44.09242" lon="7.05241">
        <ele>1262</ele>
        <time>2022-07-26T12:03:33Z</time>
      </trkpt>
      <trkpt lat="44.09243" lon="7.05242">
        <ele>1262</ele>
        <time>2022-07-26T12:03:34Z</time>
      </trkpt>
      <trkpt lat="44.09244" lon="7.05243">
        <ele>1262</ele>
        <time>2022-07-26T12:03:35Z</time>
      </trkpt>
      <trkpt lat="44.09245" lon="7.05244">
        <ele>1262</ele>
        <time>2022-07-26T12:03:36Z</time>
      </trkpt>
      <trkpt lat="44.09246" lon="7.05246">
        <ele>1262</ele>
        <time>2022-07-26T12:03:37Z</time>
      </trkpt>
      <trkpt lat="44.09247" lon="7.05247">
        <ele>1261</ele>
        <time>2022-07-26T12:03:38Z</time>
      </trkpt>
      <trkpt lat="44.09247" lon="7.05248">
        <ele>1261</ele>
        <time>2022-07-26T12:03:39Z</time>
      </trkpt>
      <trkpt lat="44.09248" lon="7.0525">
        <ele>1261</ele>
        <time>2022-07-26T12:03:40Z</time>
      </trkpt>
      <trkpt lat="44.09249" lon="7.05251">
        <ele>1261</ele>
        <time>2022-07-26T12:03:41Z</time>
      </trkpt>
      <trkpt lat="44.09249" lon="7.05253">
        <ele>1261</ele>
        <time>2022-07-26T12:03:42Z</time>
      </trkpt>
      <trkpt lat="44.0925" lon="7.05254">
        <ele>1261</ele>
        <time>2022-07-26T12:03:43Z</time>
      </trkpt>
      <trkpt lat="44.09251" lon="7.05255">
        <ele>1261</ele>
        <time>2022-07-26T12:03:44Z</time>
      </trkpt>
      <trkpt lat="44.09251" lon="7.05256">
        <ele>1261</ele>
        <time>2022-07-26T12:03:45Z</time>
      </trkpt>
      <trkpt lat="44.09252" lon="7.05257">
        <ele>1261</ele>
        <time>2022-07-26T12:03:46Z</time>
      </trkpt>
      <trkpt lat="44.09252" lon="7.05258">
        <ele>1261</ele>
        <time>2022-07-26T12:03:47Z</time>
      </trkpt>
      <trkpt lat="44.09253" lon="7.05259">
        <ele>1260</ele>
        <time>2022-07-26T12:03:48Z</time>
      </trkpt>
      <trkpt lat="44.09254" lon="7.0526">
        <ele>1260</ele>
        <time>2022-07-26T12:03:49Z</time>
      </trkpt>
      <trkpt lat="44.09254" lon="7.05261">
        <ele>1260</ele>
        <time>2022-07-26T12:03:50Z</time>
      </trkpt>
      <trkpt lat="44.09255" lon="7.05263">
        <ele>1260</ele>
        <time>2022-07-26T12:03:51Z</time>
      </trkpt>
      <trkpt lat="44.09256" lon="7.05264">
        <ele>1260</ele>
        <time>2022-07-26T12:03:52Z</time>
      </trkpt>
      <trkpt lat="44.09256" lon="7.05266">
        <ele>1260</ele>
        <time>2022-07-26T12:03:53Z</time>
      </trkpt>
      <trkpt lat="44.09257" lon="7.05267">
        <ele>1260</ele>
        <time>2022-07-26T12:03:54Z</time>
      </trkpt>
      <trkpt lat="44.09258" lon="7.05269">
        <ele>1260</ele>
        <time>2022-07-26T12:03:55Z</time>
      </trkpt>
      <trkpt lat="44.09258" lon="7.0527">
        <ele>1260</ele>
        <time>2022-07-26T12:03:56Z</time>
      </trkpt>
      <trkpt lat="44.09259" lon="7.05271">
        <ele>1260</ele>
        <time>2022-07-26T12:03:57Z</time>
      </trkpt>
      <trkpt lat="44.0926" lon="7.05273">
        <ele>1259</ele>
        <time>2022-07-26T12:03:58Z</time>
      </trkpt>
      <trkpt lat="44.09261" lon="7.05274">
        <ele>1259</ele>
        <time>2022-07-26T12:03:59Z</time>
      </trkpt>
      <trkpt lat="44.09262" lon="7.05275">
        <ele>1259</ele>
        <time>2022-07-26T12:04:00Z</time>
      </trkpt>
      <trkpt lat="44.09263" lon="7.05277">
        <ele>1259</ele>
        <time>2022-07-26T12:04:01Z</time>
      </trkpt>
      <trkpt lat="44.09264" lon="7.05278">
        <ele>1259</ele>
        <time>2022-07-26T12:04:02Z</time>
      </trkpt>
      <trkpt lat="44.09265" lon="7.05279">
        <ele>1259</ele>
        <time>2022-07-26T12:04:03Z</time>
      </trkpt>
      <trkpt lat="44.09266" lon="7.05281">
        <ele>1259</ele>
        <time>2022-07-26T12:04:04Z</time>
      </trkpt>
      <trkpt lat="44.09267" lon="7.05282">
        <ele>1259</ele>
        <time>2022-07-26T12:04:05Z</time>
      </trkpt>
      <trkpt lat="44.09268" lon="7.05283">
        <ele>1259</ele>
        <time>2022-07-26T12:04:06Z</time>
      </trkpt>
      <trkpt lat="44.09269" lon="7.05284">
        <ele>1259</ele>
        <time>2022-07-26T12:04:07Z</time>
      </trkpt>
      <trkpt lat="44.0927" lon="7.05285">
        <ele>1258</ele>
        <time>2022-07-26T12:04:08Z</time>
      </trkpt>
      <trkpt lat="44.09271" lon="7.05286">
        <ele>1258</ele>
        <time>2022-07-26T12:04:09Z</time>
      </trkpt>
      <trkpt lat="44.09272" lon="7.05286">
        <ele>1258</ele>
        <time>2022-07-26T12:04:10Z</time>
      </trkpt>
      <trkpt lat="44.09273" lon="7.05287">
        <ele>1258</ele>
        <time>2022-07-26T12:04:11Z</time>
      </trkpt>
      <trkpt lat="44.09274" lon="7.05288">
        <ele>1258</ele>
        <time>2022-07-26T12:04:12Z</time>
      </trkpt>
      <trkpt lat="44.09275" lon="7.05288">
        <ele>1258</ele>
        <time>2022-07-26T12:04:13Z</time>
      </trkpt>
      <trkpt lat="44.09276" lon="7.05289">
        <ele>1258</ele>
        <time>2022-07-26T12:04:14Z</time>
      </trkpt>
      <trkpt lat="44.09276" lon="7.0529">
        <ele>1258</ele>
        <time>2022-07-26T12:04:15Z</time>
      </trkpt>
      <trkpt lat="44.09278" lon="7.05291">
        <ele>1258</ele>
        <time>2022-07-26T12:04:16Z</time>
      </trkpt>
      <trkpt lat="44.09279" lon="7.05291">
        <ele>1258</ele>
        <time>2022-07-26T12:04:17Z</time>
      </trkpt>
      <trkpt lat="44.0928" lon="7.05292">
        <ele>1257</ele>
        <time>2022-07-26T12:04:18Z</time>
      </trkpt>
      <trkpt lat="44.09281" lon="7.05293">
        <ele>1257</ele>
        <time>2022-07-26T12:04:19Z</time>
      </trkpt>
      <trkpt lat="44.09282" lon="7.05294">
        <ele>1257</ele>
        <time>2022-07-26T12:04:20Z</time>
      </trkpt>
      <trkpt lat="44.09283" lon="7.05295">
        <ele>1257</ele>
        <time>2022-07-26T12:04:21Z</time>
      </trkpt>
      <trkpt lat="44.09283" lon="7.05295">
        <ele>1257</ele>
        <time>2022-07-26T12:04:22Z</time>
      </trkpt>
      <trkpt lat="44.09284" lon="7.05296">
        <ele>1257</ele>
        <time>2022-07-26T12:04:23Z</time>
      </trkpt>
      <trkpt lat="44.09285" lon="7.05297">
        <ele>1257</ele>
        <time>2022-07-26T12:04:24Z</time>
      </trkpt>
      <trkpt lat="44.09286" lon="7.05298">
        <ele>1257</ele>
        <time>2022-07-26T12:04:25Z</time>
      </trkpt>
      <trkpt lat="44.09287" lon="7.05299">
        <ele>1257</ele>
        <time>2022-07-26T12:04:26Z</time>
      </trkpt>
      <trkpt lat="44.09288" lon="7.05299">
        <ele>1257</ele>
        <time>2022-07-26T12:04:27Z</time>
      </trkpt>
      <trkpt lat="44.09288" lon="7.053">
        <ele>1256</ele>
        <time>2022-07-26T12:04:28Z</time>
      </trkpt>
      <trkpt lat="44.09289" lon="7.05301">
        <ele>1256</ele>
        <time>2022-07-26T12:04:29Z</time>
      </trkpt>
      <trkpt lat="44.09289" lon="7.05302">
        <ele>1256</ele>
        <time>2022-07-26T12:04:30Z</time>
      </trkpt>
      <trkpt lat="44.09289" lon="7.05303">
        <ele>1256</ele>
        <time>2022-07-26T12:04:31Z</time>
      </trkpt>
      <trkpt lat="44.09289" lon="7.05303">
        <ele>1256</ele>
        <time>2022-07-26T12:04:32Z</time>
      </trkpt>
      <trkpt lat="44.09288" lon="7.05304">
        <ele>1255</ele>
        <time>2022-07-26T12:04:33Z</time>
      </trkpt>
      <trkpt lat="44.09288" lon="7.05304">
        <ele>1255</ele>
        <time>2022-07-26T12:04:34Z</time>
      </trkpt>
      <trkpt lat="44.09287" lon="7.05304">
        <ele>1255</ele>
        <time>2022-07-26T12:04:35Z</time>
      </trkpt>
      <trkpt lat="44.09286" lon="7.05304">
        <ele>1255</ele>
        <time>2022-07-26T12:04:36Z</time>
      </trkpt>
      <trkpt lat="44.09286" lon="7.05304">
        <ele>1255</ele>
        <time>2022-07-26T12:04:37Z</time>
      </trkpt>
      <trkpt lat="44.09285" lon="7.05303">
        <ele>1255</ele>
        <time>2022-07-26T12:04:38Z</time>
      </trkpt>
      <trkpt lat="44.09284" lon="7.05302">
        <ele>1255</ele>
        <time>2022-07-26T12:04:39Z</time>
      </trkpt>
      <trkpt lat="44.09283" lon="7.05301">
        <ele>1255</ele>
        <time>2022-07-26T12:04:40Z</time>
      </trkpt>
      <trkpt lat="44.09282" lon="7.053">
        <ele>1255</ele>
        <time>2022-07-26T12:04:41Z</time>
      </trkpt>
      <trkpt lat="44.09281" lon="7.05299">
        <ele>1255</ele>
        <time>2022-07-26T12:04:42Z</time>
      </trkpt>
      <trkpt lat="44.0928" lon="7.05298">
        <ele>1254</ele>
        <time>2022-07-26T12:04:43Z</time>
      </trkpt>
      <trkpt lat="44.0928" lon="7.05296">
        <ele>1254</ele>
        <time>2022-07-26T12:04:44Z</time>
      </trkpt>
      <trkpt lat="44.09279" lon="7.05295">
        <ele>1254</ele>
        <time>2022-07-26T12:04:45Z</time>
      </trkpt>
      <trkpt lat="44.09278" lon="7.05294">
        <ele>1254</ele>
        <time>2022-07-26T12:04:46Z</time>
      </trkpt>
      <trkpt lat="44.09277" lon="7.05293">
        <ele>1254</ele>
        <time>2022-07-26T12:04:47Z</time>
      </trkpt>
      <trkpt lat="44.09276" lon="7.05292">
        <ele>1254</ele>
        <time>2022-07-26T12:04:48Z</time>
      </trkpt>
      <trkpt lat="44.09275" lon="7.05291">
        <ele>1254</ele>
        <time>2022-07-26T12:04:49Z</time>
      </trkpt>
      <trkpt lat="44.09273" lon="7.05289">
        <ele>1254</ele>
        <time>2022-07-26T12:04:50Z</time>
      </trkpt>
      <trkpt lat="44.09272" lon="7.05288">
        <ele>1254</ele>
        <time>2022-07-26T12:04:51Z</time>
      </trkpt>
      <trkpt lat="44.09271" lon="7.05287">
        <ele>1254</ele>
        <time>2022-07-26T12:04:52Z</time>
      </trkpt>
      <trkpt lat="44.0927" lon="7.05286">
        <ele>1254</ele>
        <time>2022-07-26T12:04:53Z</time>
      </trkpt>
      <trkpt lat="44.09268" lon="7.05285">
        <ele>1254</ele>
        <time>2022-07-26T12:04:54Z</time>
      </trkpt>
      <trkpt lat="44.09267" lon="7.05284">
        <ele>1254</ele>
        <time>2022-07-26T12:04:55Z</time>
      </trkpt>
      <trkpt lat="44.09266" lon="7.05283">
        <ele>1254</ele>
        <time>2022-07-26T12:04:56Z</time>
      </trkpt>
      <trkpt lat="44.09265" lon="7.05282">
        <ele>1254</ele>
        <time>2022-07-26T12:04:57Z</time>
      </trkpt>
      <trkpt lat="44.09263" lon="7.05282">
        <ele>1253</ele>
        <time>2022-07-26T12:04:58Z</time>
      </trkpt>
      <trkpt lat="44.09262" lon="7.05281">
        <ele>1253</ele>
        <time>2022-07-26T12:04:59Z</time>
      </trkpt>
      <trkpt lat="44.09261" lon="7.0528">
        <ele>1253</ele>
        <time>2022-07-26T12:05:00Z</time>
      </trkpt>
      <trkpt lat="44.0926" lon="7.05279">
        <ele>1253</ele>
        <time>2022-07-26T12:05:01Z</time>
      </trkpt>
      <trkpt lat="44.09259" lon="7.05279">
        <ele>1253</ele>
        <time>2022-07-26T12:05:02Z</time>
      </trkpt>
      <trkpt lat="44.09258" lon="7.05278">
        <ele>1253</ele>
        <time>2022-07-26T12:05:03Z</time>
      </trkpt>
      <trkpt lat="44.09256" lon="7.05278">
        <ele>1253</ele>
        <time>2022-07-26T12:05:04Z</time>
      </trkpt>
      <trkpt lat="44.09255" lon="7.05277">
        <ele>1253</ele>
        <time>2022-07-26T12:05:05Z</time>
      </trkpt>
      <trkpt lat="44.09254" lon="7.05277">
        <ele>1253</ele>
        <time>2022-07-26T12:05:06Z</time>
      </trkpt>
      <trkpt lat="44.09253" lon="7.05276">
        <ele>1253</ele>
        <time>2022-07-26T12:05:07Z</time>
      </trkpt>
      <trkpt lat="44.09251" lon="7.05275">
        <ele>1252</ele>
        <time>2022-07-26T12:05:08Z</time>
      </trkpt>
      <trkpt lat="44.0925" lon="7.05274">
        <ele>1252</ele>
        <time>2022-07-26T12:05:09Z</time>
      </trkpt>
      <trkpt lat="44.09249" lon="7.05273">
        <ele>1252</ele>
        <time>2022-07-26T12:05:10Z</time>
      </trkpt>
      <trkpt lat="44.09248" lon="7.05272">
        <ele>1252</ele>
        <time>2022-07-26T12:05:11Z</time>
      </trkpt>
      <trkpt lat="44.09247" lon="7.05272">
        <ele>1252</ele>
        <time>2022-07-26T12:05:12Z</time>
      </trkpt>
      <trkpt lat="44.09245" lon="7.05271">
        <ele>1252</ele>
        <time>2022-07-26T12:05:13Z</time>
      </trkpt>
      <trkpt lat="44.09244" lon="7.0527">
        <ele>1252</ele>
        <time>2022-07-26T12:05:14Z</time>
      </trkpt>
      <trkpt lat="44.09243" lon="7.0527">
        <ele>1252</ele>
        <time>2022-07-26T12:05:15Z</time>
      </trkpt>
      <trkpt lat="44.09243" lon="7.05269">
        <ele>1252</ele>
        <time>2022-07-26T12:05:16Z</time>
      </trkpt>
      <trkpt lat="44.09242" lon="7.05268">
        <ele>1252</ele>
        <time>2022-07-26T12:05:17Z</time>
      </trkpt>
      <trkpt lat="44.0924" lon="7.05266">
        <ele>1250</ele>
        <time>2022-07-26T12:05:38Z</time>
      </trkpt>
      <trkpt lat="44.09239" lon="7.05265">
        <ele>1250</ele>
        <time>2022-07-26T12:05:39Z</time>
      </trkpt>
      <trkpt lat="44.09237" lon="7.05264">
        <ele>1250</ele>
        <time>2022-07-26T12:05:40Z</time>
      </trkpt>
      <trkpt lat="44.09237" lon="7.05264">
        <ele>1250</ele>
        <time>2022-07-26T12:05:41Z</time>
      </trkpt>
      <trkpt lat="44.09236" lon="7.05263">
        <ele>1250</ele>
        <time>2022-07-26T12:05:42Z</time>
      </trkpt>
      <trkpt lat="44.09235" lon="7.05262">
        <ele>1249</ele>
        <time>2022-07-26T12:05:43Z</time>
      </trkpt>
      <trkpt lat="44.09234" lon="7.05262">
        <ele>1249</ele>
        <time>2022-07-26T12:05:44Z</time>
      </trkpt>
      <trkpt lat="44.09233" lon="7.05261">
        <ele>1249</ele>
        <time>2022-07-26T12:05:45Z</time>
      </trkpt>
      <trkpt lat="44.09233" lon="7.0526">
        <ele>1249</ele>
        <time>2022-07-26T12:05:46Z</time>
      </trkpt>
      <trkpt lat="44.09232" lon="7.05258">
        <ele>1249</ele>
        <time>2022-07-26T12:05:47Z</time>
      </trkpt>
      <trkpt lat="44.09231" lon="7.05257">
        <ele>1249</ele>
        <time>2022-07-26T12:05:48Z</time>
      </trkpt>
      <trkpt lat="44.0923" lon="7.05256">
        <ele>1249</ele>
        <time>2022-07-26T12:05:49Z</time>
      </trkpt>
      <trkpt lat="44.09229" lon="7.05254">
        <ele>1249</ele>
        <time>2022-07-26T12:05:50Z</time>
      </trkpt>
      <trkpt lat="44.09228" lon="7.05253">
        <ele>1249</ele>
        <time>2022-07-26T12:05:51Z</time>
      </trkpt>
      <trkpt lat="44.09227" lon="7.05252">
        <ele>1249</ele>
        <time>2022-07-26T12:05:52Z</time>
      </trkpt>
      <trkpt lat="44.09226" lon="7.05251">
        <ele>1248</ele>
        <time>2022-07-26T12:05:53Z</time>
      </trkpt>
      <trkpt lat="44.09225" lon="7.0525">
        <ele>1248</ele>
        <time>2022-07-26T12:05:54Z</time>
      </trkpt>
      <trkpt lat="44.09225" lon="7.05251">
        <ele>1247</ele>
        <time>2022-07-26T12:05:55Z</time>
      </trkpt>
      <trkpt lat="44.09224" lon="7.05251">
        <ele>1247</ele>
        <time>2022-07-26T12:05:56Z</time>
      </trkpt>
      <trkpt lat="44.09224" lon="7.05252">
        <ele>1247</ele>
        <time>2022-07-26T12:05:57Z</time>
      </trkpt>
      <trkpt lat="44.09223" lon="7.05253">
        <ele>1246</ele>
        <time>2022-07-26T12:05:58Z</time>
      </trkpt>
      <trkpt lat="44.09223" lon="7.05254">
        <ele>1246</ele>
        <time>2022-07-26T12:05:59Z</time>
      </trkpt>
      <trkpt lat="44.09224" lon="7.05255">
        <ele>1245</ele>
        <time>2022-07-26T12:06:00Z</time>
      </trkpt>
      <trkpt lat="44.09224" lon="7.05257">
        <ele>1245</ele>
        <time>2022-07-26T12:06:01Z</time>
      </trkpt>
      <trkpt lat="44.09225" lon="7.05258">
        <ele>1245</ele>
        <time>2022-07-26T12:06:02Z</time>
      </trkpt>
      <trkpt lat="44.09225" lon="7.0526">
        <ele>1244</ele>
        <time>2022-07-26T12:06:03Z</time>
      </trkpt>
      <trkpt lat="44.09226" lon="7.05261">
        <ele>1244</ele>
        <time>2022-07-26T12:06:04Z</time>
      </trkpt>
      <trkpt lat="44.09226" lon="7.05262">
        <ele>1244</ele>
        <time>2022-07-26T12:06:05Z</time>
      </trkpt>
      <trkpt lat="44.09227" lon="7.05264">
        <ele>1244</ele>
        <time>2022-07-26T12:06:06Z</time>
      </trkpt>
      <trkpt lat="44.09227" lon="7.05265">
        <ele>1244</ele>
        <time>2022-07-26T12:06:07Z</time>
      </trkpt>
      <trkpt lat="44.09227" lon="7.05267">
        <ele>1243</ele>
        <time>2022-07-26T12:06:08Z</time>
      </trkpt>
      <trkpt lat="44.09228" lon="7.05268">
        <ele>1243</ele>
        <time>2022-07-26T12:06:09Z</time>
      </trkpt>
      <trkpt lat="44.09228" lon="7.0527">
        <ele>1243</ele>
        <time>2022-07-26T12:06:10Z</time>
      </trkpt>
      <trkpt lat="44.09228" lon="7.05272">
        <ele>1243</ele>
        <time>2022-07-26T12:06:11Z</time>
      </trkpt>
      <trkpt lat="44.09228" lon="7.05274">
        <ele>1243</ele>
        <time>2022-07-26T12:06:12Z</time>
      </trkpt>
      <trkpt lat="44.09228" lon="7.05276">
        <ele>1242</ele>
        <time>2022-07-26T12:06:13Z</time>
      </trkpt>
      <trkpt lat="44.09229" lon="7.05278">
        <ele>1242</ele>
        <time>2022-07-26T12:06:14Z</time>
      </trkpt>
      <trkpt lat="44.09229" lon="7.0528">
        <ele>1242</ele>
        <time>2022-07-26T12:06:15Z</time>
      </trkpt>
      <trkpt lat="44.09229" lon="7.05282">
        <ele>1242</ele>
        <time>2022-07-26T12:06:16Z</time>
      </trkpt>
      <trkpt lat="44.0923" lon="7.05284">
        <ele>1242</ele>
        <time>2022-07-26T12:06:17Z</time>
      </trkpt>
      <trkpt lat="44.0923" lon="7.05286">
        <ele>1241</ele>
        <time>2022-07-26T12:06:18Z</time>
      </trkpt>
      <trkpt lat="44.09231" lon="7.05288">
        <ele>1241</ele>
        <time>2022-07-26T12:06:19Z</time>
      </trkpt>
      <trkpt lat="44.09231" lon="7.0529">
        <ele>1241</ele>
        <time>2022-07-26T12:06:20Z</time>
      </trkpt>
      <trkpt lat="44.09232" lon="7.05291">
        <ele>1241</ele>
        <time>2022-07-26T12:06:21Z</time>
      </trkpt>
      <trkpt lat="44.09233" lon="7.05292">
        <ele>1241</ele>
        <time>2022-07-26T12:06:22Z</time>
      </trkpt>
      <trkpt lat="44.09234" lon="7.05293">
        <ele>1241</ele>
        <time>2022-07-26T12:06:23Z</time>
      </trkpt>
      <trkpt lat="44.09234" lon="7.05295">
        <ele>1241</ele>
        <time>2022-07-26T12:06:24Z</time>
      </trkpt>
      <trkpt lat="44.09235" lon="7.05296">
        <ele>1241</ele>
        <time>2022-07-26T12:06:25Z</time>
      </trkpt>
      <trkpt lat="44.09236" lon="7.05297">
        <ele>1241</ele>
        <time>2022-07-26T12:06:26Z</time>
      </trkpt>
      <trkpt lat="44.09237" lon="7.05298">
        <ele>1241</ele>
        <time>2022-07-26T12:06:27Z</time>
      </trkpt>
      <trkpt lat="44.09237" lon="7.05298">
        <ele>1240</ele>
        <time>2022-07-26T12:06:28Z</time>
      </trkpt>
      <trkpt lat="44.09238" lon="7.05299">
        <ele>1240</ele>
        <time>2022-07-26T12:06:29Z</time>
      </trkpt>
      <trkpt lat="44.09239" lon="7.053">
        <ele>1240</ele>
        <time>2022-07-26T12:06:30Z</time>
      </trkpt>
      <trkpt lat="44.0924" lon="7.05301">
        <ele>1240</ele>
        <time>2022-07-26T12:06:31Z</time>
      </trkpt>
      <trkpt lat="44.09241" lon="7.05301">
        <ele>1240</ele>
        <time>2022-07-26T12:06:32Z</time>
      </trkpt>
      <trkpt lat="44.09242" lon="7.05301">
        <ele>1240</ele>
        <time>2022-07-26T12:06:33Z</time>
      </trkpt>
      <trkpt lat="44.09243" lon="7.05301">
        <ele>1240</ele>
        <time>2022-07-26T12:06:34Z</time>
      </trkpt>
      <trkpt lat="44.09244" lon="7.05301">
        <ele>1240</ele>
        <time>2022-07-26T12:06:35Z</time>
      </trkpt>
      <trkpt lat="44.09245" lon="7.05302">
        <ele>1240</ele>
        <time>2022-07-26T12:06:36Z</time>
      </trkpt>
      <trkpt lat="44.09245" lon="7.05302">
        <ele>1240</ele>
        <time>2022-07-26T12:06:37Z</time>
      </trkpt>
      <trkpt lat="44.09246" lon="7.05302">
        <ele>1240</ele>
        <time>2022-07-26T12:06:38Z</time>
      </trkpt>
      <trkpt lat="44.09247" lon="7.05303">
        <ele>1240</ele>
        <time>2022-07-26T12:06:39Z</time>
      </trkpt>
      <trkpt lat="44.09247" lon="7.05303">
        <ele>1240</ele>
        <time>2022-07-26T12:06:40Z</time>
      </trkpt>
      <trkpt lat="44.09248" lon="7.05303">
        <ele>1240</ele>
        <time>2022-07-26T12:06:41Z</time>
      </trkpt>
      <trkpt lat="44.09249" lon="7.05304">
        <ele>1240</ele>
        <time>2022-07-26T12:06:42Z</time>
      </trkpt>
      <trkpt lat="44.0925" lon="7.05304">
        <ele>1240</ele>
        <time>2022-07-26T12:06:43Z</time>
      </trkpt>
      <trkpt lat="44.0925" lon="7.05304">
        <ele>1240</ele>
        <time>2022-07-26T12:06:44Z</time>
      </trkpt>
      <trkpt lat="44.09251" lon="7.05304">
        <ele>1240</ele>
        <time>2022-07-26T12:06:45Z</time>
      </trkpt>
      <trkpt lat="44.09252" lon="7.05304">
        <ele>1240</ele>
        <time>2022-07-26T12:06:46Z</time>
      </trkpt>
      <trkpt lat="44.09252" lon="7.05305">
        <ele>1240</ele>
        <time>2022-07-26T12:06:47Z</time>
      </trkpt>
      <trkpt lat="44.09253" lon="7.05305">
        <ele>1240</ele>
        <time>2022-07-26T12:06:48Z</time>
      </trkpt>
      <trkpt lat="44.09253" lon="7.05306">
        <ele>1240</ele>
        <time>2022-07-26T12:06:49Z</time>
      </trkpt>
      <trkpt lat="44.09254" lon="7.05306">
        <ele>1240</ele>
        <time>2022-07-26T12:06:50Z</time>
      </trkpt>
      <trkpt lat="44.09254" lon="7.05307">
        <ele>1240</ele>
        <time>2022-07-26T12:06:51Z</time>
      </trkpt>
      <trkpt lat="44.09255" lon="7.05307">
        <ele>1240</ele>
        <time>2022-07-26T12:06:52Z</time>
      </trkpt>
      <trkpt lat="44.09256" lon="7.05308">
        <ele>1240</ele>
        <time>2022-07-26T12:06:53Z</time>
      </trkpt>
      <trkpt lat="44.09257" lon="7.05309">
        <ele>1240</ele>
        <time>2022-07-26T12:06:54Z</time>
      </trkpt>
      <trkpt lat="44.09258" lon="7.05309">
        <ele>1240</ele>
        <time>2022-07-26T12:06:55Z</time>
      </trkpt>
      <trkpt lat="44.09259" lon="7.0531">
        <ele>1240</ele>
        <time>2022-07-26T12:06:56Z</time>
      </trkpt>
      <trkpt lat="44.09259" lon="7.05311">
        <ele>1240</ele>
        <time>2022-07-26T12:06:57Z</time>
      </trkpt>
      <trkpt lat="44.0926" lon="7.05312">
        <ele>1240</ele>
        <time>2022-07-26T12:06:58Z</time>
      </trkpt>
      <trkpt lat="44.09261" lon="7.05313">
        <ele>1240</ele>
        <time>2022-07-26T12:06:59Z</time>
      </trkpt>
      <trkpt lat="44.09261" lon="7.05314">
        <ele>1240</ele>
        <time>2022-07-26T12:07:00Z</time>
      </trkpt>
      <trkpt lat="44.09262" lon="7.05316">
        <ele>1240</ele>
        <time>2022-07-26T12:07:01Z</time>
      </trkpt>
      <trkpt lat="44.09263" lon="7.05317">
        <ele>1240</ele>
        <time>2022-07-26T12:07:02Z</time>
      </trkpt>
      <trkpt lat="44.09263" lon="7.05318">
        <ele>1240</ele>
        <time>2022-07-26T12:07:03Z</time>
      </trkpt>
      <trkpt lat="44.09264" lon="7.05318">
        <ele>1240</ele>
        <time>2022-07-26T12:07:04Z</time>
      </trkpt>
      <trkpt lat="44.09265" lon="7.05319">
        <ele>1240</ele>
        <time>2022-07-26T12:07:05Z</time>
      </trkpt>
      <trkpt lat="44.09266" lon="7.0532">
        <ele>1240</ele>
        <time>2022-07-26T12:07:06Z</time>
      </trkpt>
      <trkpt lat="44.09267" lon="7.05321">
        <ele>1240</ele>
        <time>2022-07-26T12:07:07Z</time>
      </trkpt>
      <trkpt lat="44.09267" lon="7.05321">
        <ele>1240</ele>
        <time>2022-07-26T12:07:08Z</time>
      </trkpt>
      <trkpt lat="44.09268" lon="7.05322">
        <ele>1240</ele>
        <time>2022-07-26T12:07:09Z</time>
      </trkpt>
      <trkpt lat="44.09269" lon="7.05323">
        <ele>1240</ele>
        <time>2022-07-26T12:07:10Z</time>
      </trkpt>
      <trkpt lat="44.09269" lon="7.05323">
        <ele>1240</ele>
        <time>2022-07-26T12:07:11Z</time>
      </trkpt>
      <trkpt lat="44.0927" lon="7.05324">
        <ele>1240</ele>
        <time>2022-07-26T12:07:12Z</time>
      </trkpt>
      <trkpt lat="44.0927" lon="7.05324">
        <ele>1240</ele>
        <time>2022-07-26T12:07:13Z</time>
      </trkpt>
      <trkpt lat="44.0927" lon="7.05324">
        <ele>1240</ele>
        <time>2022-07-26T12:07:14Z</time>
      </trkpt>
      <trkpt lat="44.0927" lon="7.05324">
        <ele>1240</ele>
        <time>2022-07-26T12:07:15Z</time>
      </trkpt>
      <trkpt lat="44.09271" lon="7.05325">
        <ele>1240</ele>
        <time>2022-07-26T12:07:16Z</time>
      </trkpt>
      <trkpt lat="44.09271" lon="7.05326">
        <ele>1240</ele>
        <time>2022-07-26T12:07:17Z</time>
      </trkpt>
      <trkpt lat="44.09271" lon="7.05326">
        <ele>1239</ele>
        <time>2022-07-26T12:07:18Z</time>
      </trkpt>
      <trkpt lat="44.09272" lon="7.05327">
        <ele>1239</ele>
        <time>2022-07-26T12:07:19Z</time>
      </trkpt>
      <trkpt lat="44.09272" lon="7.05328">
        <ele>1239</ele>
        <time>2022-07-26T12:07:20Z</time>
      </trkpt>
      <trkpt lat="44.09272" lon="7.05329">
        <ele>1239</ele>
        <time>2022-07-26T12:07:21Z</time>
      </trkpt>
      <trkpt lat="44.09272" lon="7.05331">
        <ele>1239</ele>
        <time>2022-07-26T12:07:22Z</time>
      </trkpt>
      <trkpt lat="44.09273" lon="7.05332">
        <ele>1238</ele>
        <time>2022-07-26T12:07:23Z</time>
      </trkpt>
      <trkpt lat="44.09273" lon="7.05333">
        <ele>1238</ele>
        <time>2022-07-26T12:07:24Z</time>
      </trkpt>
      <trkpt lat="44.09274" lon="7.05334">
        <ele>1238</ele>
        <time>2022-07-26T12:07:25Z</time>
      </trkpt>
      <trkpt lat="44.09274" lon="7.05335">
        <ele>1238</ele>
        <time>2022-07-26T12:07:26Z</time>
      </trkpt>
      <trkpt lat="44.09275" lon="7.05336">
        <ele>1238</ele>
        <time>2022-07-26T12:07:27Z</time>
      </trkpt>
      <trkpt lat="44.09275" lon="7.05338">
        <ele>1238</ele>
        <time>2022-07-26T12:07:28Z</time>
      </trkpt>
      <trkpt lat="44.09275" lon="7.05338">
        <ele>1238</ele>
        <time>2022-07-26T12:07:29Z</time>
      </trkpt>
      <trkpt lat="44.09276" lon="7.05339">
        <ele>1238</ele>
        <time>2022-07-26T12:07:30Z</time>
      </trkpt>
      <trkpt lat="44.09276" lon="7.0534">
        <ele>1238</ele>
        <time>2022-07-26T12:07:31Z</time>
      </trkpt>
      <trkpt lat="44.09276" lon="7.05341">
        <ele>1238</ele>
        <time>2022-07-26T12:07:32Z</time>
      </trkpt>
      <trkpt lat="44.09277" lon="7.05342">
        <ele>1237</ele>
        <time>2022-07-26T12:07:33Z</time>
      </trkpt>
      <trkpt lat="44.09277" lon="7.05342">
        <ele>1237</ele>
        <time>2022-07-26T12:07:34Z</time>
      </trkpt>
      <trkpt lat="44.09278" lon="7.05344">
        <ele>1235</ele>
        <time>2022-07-26T12:08:09Z</time>
      </trkpt>
      <trkpt lat="44.09279" lon="7.05345">
        <ele>1235</ele>
        <time>2022-07-26T12:08:10Z</time>
      </trkpt>
      <trkpt lat="44.0928" lon="7.05345">
        <ele>1235</ele>
        <time>2022-07-26T12:08:11Z</time>
      </trkpt>
      <trkpt lat="44.09281" lon="7.05346">
        <ele>1235</ele>
        <time>2022-07-26T12:08:12Z</time>
      </trkpt>
      <trkpt lat="44.09281" lon="7.05346">
        <ele>1235</ele>
        <time>2022-07-26T12:08:13Z</time>
      </trkpt>
      <trkpt lat="44.09282" lon="7.05346">
        <ele>1235</ele>
        <time>2022-07-26T12:08:14Z</time>
      </trkpt>
      <trkpt lat="44.09282" lon="7.05347">
        <ele>1235</ele>
        <time>2022-07-26T12:08:15Z</time>
      </trkpt>
      <trkpt lat="44.09282" lon="7.05347">
        <ele>1235</ele>
        <time>2022-07-26T12:08:16Z</time>
      </trkpt>
      <trkpt lat="44.09282" lon="7.05347">
        <ele>1235</ele>
        <time>2022-07-26T12:08:17Z</time>
      </trkpt>
      <trkpt lat="44.09283" lon="7.05348">
        <ele>1235</ele>
        <time>2022-07-26T12:08:18Z</time>
      </trkpt>
      <trkpt lat="44.09283" lon="7.05348">
        <ele>1235</ele>
        <time>2022-07-26T12:08:19Z</time>
      </trkpt>
      <trkpt lat="44.09283" lon="7.0535">
        <ele>1233</ele>
        <time>2022-07-26T12:08:42Z</time>
      </trkpt>
      <trkpt lat="44.09283" lon="7.05351">
        <ele>1233</ele>
        <time>2022-07-26T12:08:43Z</time>
      </trkpt>
      <trkpt lat="44.09283" lon="7.05352">
        <ele>1233</ele>
        <time>2022-07-26T12:08:44Z</time>
      </trkpt>
      <trkpt lat="44.09284" lon="7.05353">
        <ele>1233</ele>
        <time>2022-07-26T12:08:45Z</time>
      </trkpt>
      <trkpt lat="44.09284" lon="7.05353">
        <ele>1233</ele>
        <time>2022-07-26T12:08:46Z</time>
      </trkpt>
      <trkpt lat="44.09284" lon="7.05354">
        <ele>1233</ele>
        <time>2022-07-26T12:08:47Z</time>
      </trkpt>
      <trkpt lat="44.09285" lon="7.05354">
        <ele>1232</ele>
        <time>2022-07-26T12:08:48Z</time>
      </trkpt>
      <trkpt lat="44.09285" lon="7.05355">
        <ele>1232</ele>
        <time>2022-07-26T12:08:49Z</time>
      </trkpt>
      <trkpt lat="44.09286" lon="7.05355">
        <ele>1232</ele>
        <time>2022-07-26T12:08:50Z</time>
      </trkpt>
      <trkpt lat="44.09286" lon="7.05356">
        <ele>1232</ele>
        <time>2022-07-26T12:08:51Z</time>
      </trkpt>
      <trkpt lat="44.09287" lon="7.05356">
        <ele>1232</ele>
        <time>2022-07-26T12:08:52Z</time>
      </trkpt>
      <trkpt lat="44.09288" lon="7.05357">
        <ele>1232</ele>
        <time>2022-07-26T12:08:53Z</time>
      </trkpt>
      <trkpt lat="44.09288" lon="7.05358">
        <ele>1232</ele>
        <time>2022-07-26T12:08:54Z</time>
      </trkpt>
      <trkpt lat="44.09289" lon="7.05358">
        <ele>1232</ele>
        <time>2022-07-26T12:08:55Z</time>
      </trkpt>
      <trkpt lat="44.0929" lon="7.05359">
        <ele>1232</ele>
        <time>2022-07-26T12:08:56Z</time>
      </trkpt>
      <trkpt lat="44.09291" lon="7.0536">
        <ele>1232</ele>
        <time>2022-07-26T12:08:57Z</time>
      </trkpt>
      <trkpt lat="44.09291" lon="7.05361">
        <ele>1231</ele>
        <time>2022-07-26T12:08:58Z</time>
      </trkpt>
      <trkpt lat="44.09292" lon="7.05362">
        <ele>1231</ele>
        <time>2022-07-26T12:08:59Z</time>
      </trkpt>
      <trkpt lat="44.09293" lon="7.05362">
        <ele>1230</ele>
        <time>2022-07-26T12:09:00Z</time>
      </trkpt>
      <trkpt lat="44.09294" lon="7.05363">
        <ele>1230</ele>
        <time>2022-07-26T12:09:01Z</time>
      </trkpt>
      <trkpt lat="44.09295" lon="7.05364">
        <ele>1230</ele>
        <time>2022-07-26T12:09:02Z</time>
      </trkpt>
      <trkpt lat="44.09296" lon="7.05364">
        <ele>1229</ele>
        <time>2022-07-26T12:09:03Z</time>
      </trkpt>
      <trkpt lat="44.09297" lon="7.05365">
        <ele>1229</ele>
        <time>2022-07-26T12:09:04Z</time>
      </trkpt>
      <trkpt lat="44.09298" lon="7.05366">
        <ele>1229</ele>
        <time>2022-07-26T12:09:05Z</time>
      </trkpt>
      <trkpt lat="44.09299" lon="7.05366">
        <ele>1229</ele>
        <time>2022-07-26T12:09:06Z</time>
      </trkpt>
      <trkpt lat="44.09299" lon="7.05367">
        <ele>1229</ele>
        <time>2022-07-26T12:09:07Z</time>
      </trkpt>
      <trkpt lat="44.093" lon="7.05368">
        <ele>1228</ele>
        <time>2022-07-26T12:09:08Z</time>
      </trkpt>
      <trkpt lat="44.09301" lon="7.05369">
        <ele>1228</ele>
        <time>2022-07-26T12:09:09Z</time>
      </trkpt>
      <trkpt lat="44.09302" lon="7.05369">
        <ele>1228</ele>
        <time>2022-07-26T12:09:10Z</time>
      </trkpt>
      <trkpt lat="44.09303" lon="7.0537">
        <ele>1228</ele>
        <time>2022-07-26T12:09:11Z</time>
      </trkpt>
      <trkpt lat="44.09304" lon="7.05371">
        <ele>1228</ele>
        <time>2022-07-26T12:09:12Z</time>
      </trkpt>
      <trkpt lat="44.09305" lon="7.05371">
        <ele>1227</ele>
        <time>2022-07-26T12:09:13Z</time>
      </trkpt>
      <trkpt lat="44.09305" lon="7.05372">
        <ele>1227</ele>
        <time>2022-07-26T12:09:14Z</time>
      </trkpt>
      <trkpt lat="44.09306" lon="7.05372">
        <ele>1227</ele>
        <time>2022-07-26T12:09:15Z</time>
      </trkpt>
      <trkpt lat="44.09306" lon="7.05373">
        <ele>1227</ele>
        <time>2022-07-26T12:09:16Z</time>
      </trkpt>
      <trkpt lat="44.09306" lon="7.05373">
        <ele>1227</ele>
        <time>2022-07-26T12:09:17Z</time>
      </trkpt>
      <trkpt lat="44.09306" lon="7.05374">
        <ele>1226</ele>
        <time>2022-07-26T12:09:18Z</time>
      </trkpt>
      <trkpt lat="44.09306" lon="7.05375">
        <ele>1226</ele>
        <time>2022-07-26T12:09:19Z</time>
      </trkpt>
      <trkpt lat="44.09306" lon="7.05375">
        <ele>1226</ele>
        <time>2022-07-26T12:09:20Z</time>
      </trkpt>
      <trkpt lat="44.09306" lon="7.05376">
        <ele>1226</ele>
        <time>2022-07-26T12:09:21Z</time>
      </trkpt>
      <trkpt lat="44.09306" lon="7.05377">
        <ele>1226</ele>
        <time>2022-07-26T12:09:22Z</time>
      </trkpt>
      <trkpt lat="44.09307" lon="7.05377">
        <ele>1225</ele>
        <time>2022-07-26T12:09:23Z</time>
      </trkpt>
      <trkpt lat="44.09307" lon="7.05377">
        <ele>1225</ele>
        <time>2022-07-26T12:09:24Z</time>
      </trkpt>
      <trkpt lat="44.09308" lon="7.05378">
        <ele>1225</ele>
        <time>2022-07-26T12:09:25Z</time>
      </trkpt>
      <trkpt lat="44.09308" lon="7.05378">
        <ele>1225</ele>
        <time>2022-07-26T12:09:26Z</time>
      </trkpt>
      <trkpt lat="44.09309" lon="7.05379">
        <ele>1225</ele>
        <time>2022-07-26T12:09:27Z</time>
      </trkpt>
      <trkpt lat="44.09309" lon="7.05379">
        <ele>1224</ele>
        <time>2022-07-26T12:09:28Z</time>
      </trkpt>
      <trkpt lat="44.09309" lon="7.05379">
        <ele>1224</ele>
        <time>2022-07-26T12:09:29Z</time>
      </trkpt>
      <trkpt lat="44.09309" lon="7.0538">
        <ele>1224</ele>
        <time>2022-07-26T12:09:30Z</time>
      </trkpt>
      <trkpt lat="44.09309" lon="7.05381">
        <ele>1224</ele>
        <time>2022-07-26T12:09:31Z</time>
      </trkpt>
      <trkpt lat="44.09308" lon="7.05381">
        <ele>1224</ele>
        <time>2022-07-26T12:09:32Z</time>
      </trkpt>
      <trkpt lat="44.09308" lon="7.05382">
        <ele>1223</ele>
        <time>2022-07-26T12:09:33Z</time>
      </trkpt>
      <trkpt lat="44.09307" lon="7.05382">
        <ele>1223</ele>
        <time>2022-07-26T12:09:34Z</time>
      </trkpt>
      <trkpt lat="44.09306" lon="7.05382">
        <ele>1222</ele>
        <time>2022-07-26T12:09:35Z</time>
      </trkpt>
      <trkpt lat="44.09305" lon="7.05383">
        <ele>1219</ele>
        <time>2022-07-26T12:09:53Z</time>
      </trkpt>
      <trkpt lat="44.09305" lon="7.05384">
        <ele>1219</ele>
        <time>2022-07-26T12:09:54Z</time>
      </trkpt>
      <trkpt lat="44.09304" lon="7.05384">
        <ele>1219</ele>
        <time>2022-07-26T12:09:55Z</time>
      </trkpt>
      <trkpt lat="44.09304" lon="7.05384">
        <ele>1219</ele>
        <time>2022-07-26T12:09:56Z</time>
      </trkpt>
      <trkpt lat="44.09304" lon="7.05384">
        <ele>1219</ele>
        <time>2022-07-26T12:09:57Z</time>
      </trkpt>
      <trkpt lat="44.09303" lon="7.05384">
        <ele>1218</ele>
        <time>2022-07-26T12:09:58Z</time>
      </trkpt>
      <trkpt lat="44.09303" lon="7.05384">
        <ele>1218</ele>
        <time>2022-07-26T12:09:59Z</time>
      </trkpt>
      <trkpt lat="44.09302" lon="7.05385">
        <ele>1218</ele>
        <time>2022-07-26T12:10:00Z</time>
      </trkpt>
      <trkpt lat="44.09302" lon="7.05385">
        <ele>1218</ele>
        <time>2022-07-26T12:10:01Z</time>
      </trkpt>
      <trkpt lat="44.09301" lon="7.05385">
        <ele>1218</ele>
        <time>2022-07-26T12:10:02Z</time>
      </trkpt>
      <trkpt lat="44.093" lon="7.05386">
        <ele>1218</ele>
        <time>2022-07-26T12:10:03Z</time>
      </trkpt>
      <trkpt lat="44.093" lon="7.05386">
        <ele>1218</ele>
        <time>2022-07-26T12:10:04Z</time>
      </trkpt>
      <trkpt lat="44.09299" lon="7.05386">
        <ele>1218</ele>
        <time>2022-07-26T12:10:05Z</time>
      </trkpt>
      <trkpt lat="44.09298" lon="7.05386">
        <ele>1218</ele>
        <time>2022-07-26T12:10:06Z</time>
      </trkpt>
      <trkpt lat="44.09298" lon="7.05386">
        <ele>1218</ele>
        <time>2022-07-26T12:10:07Z</time>
      </trkpt>
      <trkpt lat="44.09297" lon="7.05386">
        <ele>1217</ele>
        <time>2022-07-26T12:10:08Z</time>
      </trkpt>
      <trkpt lat="44.09296" lon="7.05386">
        <ele>1217</ele>
        <time>2022-07-26T12:10:09Z</time>
      </trkpt>
      <trkpt lat="44.09296" lon="7.05387">
        <ele>1217</ele>
        <time>2022-07-26T12:10:10Z</time>
      </trkpt>
      <trkpt lat="44.09295" lon="7.05387">
        <ele>1217</ele>
        <time>2022-07-26T12:10:11Z</time>
      </trkpt>
      <trkpt lat="44.09295" lon="7.05388">
        <ele>1217</ele>
        <time>2022-07-26T12:10:12Z</time>
      </trkpt>
      <trkpt lat="44.09294" lon="7.05388">
        <ele>1216</ele>
        <time>2022-07-26T12:10:13Z</time>
      </trkpt>
      <trkpt lat="44.09293" lon="7.05388">
        <ele>1216</ele>
        <time>2022-07-26T12:10:14Z</time>
      </trkpt>
      <trkpt lat="44.09292" lon="7.05387">
        <ele>1216</ele>
        <time>2022-07-26T12:10:15Z</time>
      </trkpt>
      <trkpt lat="44.09291" lon="7.05387">
        <ele>1216</ele>
        <time>2022-07-26T12:10:16Z</time>
      </trkpt>
      <trkpt lat="44.09291" lon="7.05387">
        <ele>1216</ele>
        <time>2022-07-26T12:10:17Z</time>
      </trkpt>
      <trkpt lat="44.0929" lon="7.05387">
        <ele>1215</ele>
        <time>2022-07-26T12:10:18Z</time>
      </trkpt>
      <trkpt lat="44.09289" lon="7.05387">
        <ele>1215</ele>
        <time>2022-07-26T12:10:19Z</time>
      </trkpt>
      <trkpt lat="44.09287" lon="7.05388">
        <ele>1215</ele>
        <time>2022-07-26T12:10:20Z</time>
      </trkpt>
      <trkpt lat="44.09287" lon="7.05388">
        <ele>1215</ele>
        <time>2022-07-26T12:10:21Z</time>
      </trkpt>
      <trkpt lat="44.09286" lon="7.05389">
        <ele>1215</ele>
        <time>2022-07-26T12:10:22Z</time>
      </trkpt>
      <trkpt lat="44.09285" lon="7.0539">
        <ele>1214</ele>
        <time>2022-07-26T12:10:23Z</time>
      </trkpt>
      <trkpt lat="44.09285" lon="7.05391">
        <ele>1214</ele>
        <time>2022-07-26T12:10:24Z</time>
      </trkpt>
      <trkpt lat="44.09284" lon="7.05392">
        <ele>1213</ele>
        <time>2022-07-26T12:10:25Z</time>
      </trkpt>
      <trkpt lat="44.09284" lon="7.05393">
        <ele>1213</ele>
        <time>2022-07-26T12:10:26Z</time>
      </trkpt>
      <trkpt lat="44.09283" lon="7.05394">
        <ele>1213</ele>
        <time>2022-07-26T12:10:27Z</time>
      </trkpt>
      <trkpt lat="44.09283" lon="7.05395">
        <ele>1212</ele>
        <time>2022-07-26T12:10:28Z</time>
      </trkpt>
      <trkpt lat="44.09282" lon="7.05395">
        <ele>1212</ele>
        <time>2022-07-26T12:10:29Z</time>
      </trkpt>
      <trkpt lat="44.09282" lon="7.05396">
        <ele>1211</ele>
        <time>2022-07-26T12:10:30Z</time>
      </trkpt>
      <trkpt lat="44.09281" lon="7.05396">
        <ele>1211</ele>
        <time>2022-07-26T12:10:31Z</time>
      </trkpt>
      <trkpt lat="44.09281" lon="7.05397">
        <ele>1211</ele>
        <time>2022-07-26T12:10:32Z</time>
      </trkpt>
      <trkpt lat="44.0928" lon="7.05398">
        <ele>1210</ele>
        <time>2022-07-26T12:10:33Z</time>
      </trkpt>
      <trkpt lat="44.0928" lon="7.05398">
        <ele>1210</ele>
        <time>2022-07-26T12:10:34Z</time>
      </trkpt>
      <trkpt lat="44.0928" lon="7.05399">
        <ele>1210</ele>
        <time>2022-07-26T12:10:35Z</time>
      </trkpt>
      <trkpt lat="44.09279" lon="7.054">
        <ele>1210</ele>
        <time>2022-07-26T12:10:36Z</time>
      </trkpt>
      <trkpt lat="44.09279" lon="7.054">
        <ele>1210</ele>
        <time>2022-07-26T12:10:37Z</time>
      </trkpt>
      <trkpt lat="44.09279" lon="7.05401">
        <ele>1209</ele>
        <time>2022-07-26T12:10:38Z</time>
      </trkpt>
      <trkpt lat="44.09278" lon="7.05401">
        <ele>1209</ele>
        <time>2022-07-26T12:10:39Z</time>
      </trkpt>
      <trkpt lat="44.09278" lon="7.05401">
        <ele>1208</ele>
        <time>2022-07-26T12:10:40Z</time>
      </trkpt>
      <trkpt lat="44.09278" lon="7.05402">
        <ele>1208</ele>
        <time>2022-07-26T12:10:41Z</time>
      </trkpt>
      <trkpt lat="44.09277" lon="7.05403">
        <ele>1208</ele>
        <time>2022-07-26T12:10:42Z</time>
      </trkpt>
      <trkpt lat="44.09276" lon="7.05404">
        <ele>1207</ele>
        <time>2022-07-26T12:10:43Z</time>
      </trkpt>
      <trkpt lat="44.09276" lon="7.05405">
        <ele>1207</ele>
        <time>2022-07-26T12:10:44Z</time>
      </trkpt>
      <trkpt lat="44.09275" lon="7.05406">
        <ele>1207</ele>
        <time>2022-07-26T12:10:45Z</time>
      </trkpt>
      <trkpt lat="44.09274" lon="7.05407">
        <ele>1207</ele>
        <time>2022-07-26T12:10:46Z</time>
      </trkpt>
      <trkpt lat="44.09273" lon="7.05408">
        <ele>1207</ele>
        <time>2022-07-26T12:10:47Z</time>
      </trkpt>
      <trkpt lat="44.09271" lon="7.05409">
        <ele>1206</ele>
        <time>2022-07-26T12:10:48Z</time>
      </trkpt>
      <trkpt lat="44.0927" lon="7.05409">
        <ele>1206</ele>
        <time>2022-07-26T12:10:49Z</time>
      </trkpt>
      <trkpt lat="44.09269" lon="7.0541">
        <ele>1206</ele>
        <time>2022-07-26T12:10:50Z</time>
      </trkpt>
      <trkpt lat="44.09268" lon="7.0541">
        <ele>1206</ele>
        <time>2022-07-26T12:10:51Z</time>
      </trkpt>
      <trkpt lat="44.09267" lon="7.0541">
        <ele>1206</ele>
        <time>2022-07-26T12:10:52Z</time>
      </trkpt>
      <trkpt lat="44.09266" lon="7.05412">
        <ele>1203</ele>
        <time>2022-07-26T12:10:59Z</time>
      </trkpt>
      <trkpt lat="44.09266" lon="7.05413">
        <ele>1203</ele>
        <time>2022-07-26T12:11:00Z</time>
      </trkpt>
      <trkpt lat="44.09265" lon="7.05414">
        <ele>1203</ele>
        <time>2022-07-26T12:11:01Z</time>
      </trkpt>
      <trkpt lat="44.09265" lon="7.05414">
        <ele>1203</ele>
        <time>2022-07-26T12:11:02Z</time>
      </trkpt>
      <trkpt lat="44.09265" lon="7.05415">
        <ele>1202</ele>
        <time>2022-07-26T12:11:03Z</time>
      </trkpt>
      <trkpt lat="44.09265" lon="7.05415">
        <ele>1202</ele>
        <time>2022-07-26T12:11:04Z</time>
      </trkpt>
      <trkpt lat="44.09266" lon="7.05416">
        <ele>1200</ele>
        <time>2022-07-26T12:11:13Z</time>
      </trkpt>
      <trkpt lat="44.09267" lon="7.05417">
        <ele>1200</ele>
        <time>2022-07-26T12:11:14Z</time>
      </trkpt>
      <trkpt lat="44.09267" lon="7.05418">
        <ele>1200</ele>
        <time>2022-07-26T12:11:15Z</time>
      </trkpt>
      <trkpt lat="44.09268" lon="7.0542">
        <ele>1199</ele>
        <time>2022-07-26T12:11:21Z</time>
      </trkpt>
      <trkpt lat="44.09268" lon="7.05421">
        <ele>1199</ele>
        <time>2022-07-26T12:11:22Z</time>
      </trkpt>
      <trkpt lat="44.09268" lon="7.05422">
        <ele>1198</ele>
        <time>2022-07-26T12:11:23Z</time>
      </trkpt>
      <trkpt lat="44.09269" lon="7.05423">
        <ele>1198</ele>
        <time>2022-07-26T12:11:24Z</time>
      </trkpt>
      <trkpt lat="44.09269" lon="7.05424">
        <ele>1198</ele>
        <time>2022-07-26T12:11:25Z</time>
      </trkpt>
      <trkpt lat="44.09269" lon="7.05425">
        <ele>1198</ele>
        <time>2022-07-26T12:11:26Z</time>
      </trkpt>
      <trkpt lat="44.09269" lon="7.05426">
        <ele>1198</ele>
        <time>2022-07-26T12:11:27Z</time>
      </trkpt>
      <trkpt lat="44.09269" lon="7.05427">
        <ele>1197</ele>
        <time>2022-07-26T12:11:28Z</time>
      </trkpt>
      <trkpt lat="44.09269" lon="7.05428">
        <ele>1197</ele>
        <time>2022-07-26T12:11:29Z</time>
      </trkpt>
      <trkpt lat="44.09268" lon="7.05429">
        <ele>1196</ele>
        <time>2022-07-26T12:11:30Z</time>
      </trkpt>
      <trkpt lat="44.09268" lon="7.05431">
        <ele>1196</ele>
        <time>2022-07-26T12:11:31Z</time>
      </trkpt>
      <trkpt lat="44.09268" lon="7.05432">
        <ele>1196</ele>
        <time>2022-07-26T12:11:32Z</time>
      </trkpt>
      <trkpt lat="44.09268" lon="7.05434">
        <ele>1195</ele>
        <time>2022-07-26T12:11:33Z</time>
      </trkpt>
      <trkpt lat="44.09268" lon="7.05435">
        <ele>1195</ele>
        <time>2022-07-26T12:11:34Z</time>
      </trkpt>
      <trkpt lat="44.09267" lon="7.05436">
        <ele>1194</ele>
        <time>2022-07-26T12:11:35Z</time>
      </trkpt>
      <trkpt lat="44.09267" lon="7.05438">
        <ele>1194</ele>
        <time>2022-07-26T12:11:36Z</time>
      </trkpt>
      <trkpt lat="44.09268" lon="7.05439">
        <ele>1194</ele>
        <time>2022-07-26T12:11:37Z</time>
      </trkpt>
      <trkpt lat="44.09268" lon="7.05441">
        <ele>1193</ele>
        <time>2022-07-26T12:11:38Z</time>
      </trkpt>
      <trkpt lat="44.09268" lon="7.05442">
        <ele>1193</ele>
        <time>2022-07-26T12:11:39Z</time>
      </trkpt>
      <trkpt lat="44.09268" lon="7.05444">
        <ele>1193</ele>
        <time>2022-07-26T12:11:40Z</time>
      </trkpt>
      <trkpt lat="44.09268" lon="7.05445">
        <ele>1193</ele>
        <time>2022-07-26T12:11:41Z</time>
      </trkpt>
      <trkpt lat="44.09268" lon="7.05447">
        <ele>1193</ele>
        <time>2022-07-26T12:11:42Z</time>
      </trkpt>
      <trkpt lat="44.09269" lon="7.05449">
        <ele>1192</ele>
        <time>2022-07-26T12:11:43Z</time>
      </trkpt>
      <trkpt lat="44.09269" lon="7.05451">
        <ele>1192</ele>
        <time>2022-07-26T12:11:44Z</time>
      </trkpt>
      <trkpt lat="44.09269" lon="7.05452">
        <ele>1192</ele>
        <time>2022-07-26T12:11:45Z</time>
      </trkpt>
      <trkpt lat="44.0927" lon="7.05454">
        <ele>1192</ele>
        <time>2022-07-26T12:11:46Z</time>
      </trkpt>
      <trkpt lat="44.0927" lon="7.05456">
        <ele>1192</ele>
        <time>2022-07-26T12:11:47Z</time>
      </trkpt>
      <trkpt lat="44.0927" lon="7.05458">
        <ele>1191</ele>
        <time>2022-07-26T12:11:48Z</time>
      </trkpt>
      <trkpt lat="44.0927" lon="7.0546">
        <ele>1191</ele>
        <time>2022-07-26T12:11:49Z</time>
      </trkpt>
      <trkpt lat="44.0927" lon="7.05462">
        <ele>1191</ele>
        <time>2022-07-26T12:11:50Z</time>
      </trkpt>
      <trkpt lat="44.0927" lon="7.05464">
        <ele>1191</ele>
        <time>2022-07-26T12:11:51Z</time>
      </trkpt>
      <trkpt lat="44.09269" lon="7.05466">
        <ele>1191</ele>
        <time>2022-07-26T12:11:52Z</time>
      </trkpt>
      <trkpt lat="44.09269" lon="7.05468">
        <ele>1190</ele>
        <time>2022-07-26T12:11:53Z</time>
      </trkpt>
      <trkpt lat="44.09268" lon="7.0547">
        <ele>1190</ele>
        <time>2022-07-26T12:11:54Z</time>
      </trkpt>
      <trkpt lat="44.09267" lon="7.05471">
        <ele>1190</ele>
        <time>2022-07-26T12:11:55Z</time>
      </trkpt>
      <trkpt lat="44.09267" lon="7.05473">
        <ele>1190</ele>
        <time>2022-07-26T12:11:56Z</time>
      </trkpt>
      <trkpt lat="44.09266" lon="7.05474">
        <ele>1190</ele>
        <time>2022-07-26T12:11:57Z</time>
      </trkpt>
      <trkpt lat="44.09265" lon="7.05475">
        <ele>1189</ele>
        <time>2022-07-26T12:11:58Z</time>
      </trkpt>
      <trkpt lat="44.09264" lon="7.05477">
        <ele>1189</ele>
        <time>2022-07-26T12:11:59Z</time>
      </trkpt>
      <trkpt lat="44.09263" lon="7.05478">
        <ele>1189</ele>
        <time>2022-07-26T12:12:00Z</time>
      </trkpt>
      <trkpt lat="44.09262" lon="7.05479">
        <ele>1189</ele>
        <time>2022-07-26T12:12:01Z</time>
      </trkpt>
      <trkpt lat="44.09261" lon="7.0548">
        <ele>1189</ele>
        <time>2022-07-26T12:12:02Z</time>
      </trkpt>
      <trkpt lat="44.0926" lon="7.05481">
        <ele>1188</ele>
        <time>2022-07-26T12:12:03Z</time>
      </trkpt>
      <trkpt lat="44.0926" lon="7.05482">
        <ele>1188</ele>
        <time>2022-07-26T12:12:04Z</time>
      </trkpt>
      <trkpt lat="44.09259" lon="7.05483">
        <ele>1188</ele>
        <time>2022-07-26T12:12:05Z</time>
      </trkpt>
      <trkpt lat="44.09258" lon="7.05485">
        <ele>1188</ele>
        <time>2022-07-26T12:12:06Z</time>
      </trkpt>
      <trkpt lat="44.09257" lon="7.05486">
        <ele>1188</ele>
        <time>2022-07-26T12:12:07Z</time>
      </trkpt>
      <trkpt lat="44.09256" lon="7.05487">
        <ele>1187</ele>
        <time>2022-07-26T12:12:08Z</time>
      </trkpt>
      <trkpt lat="44.09256" lon="7.05488">
        <ele>1187</ele>
        <time>2022-07-26T12:12:09Z</time>
      </trkpt>
      <trkpt lat="44.09255" lon="7.05489">
        <ele>1187</ele>
        <time>2022-07-26T12:12:10Z</time>
      </trkpt>
      <trkpt lat="44.09254" lon="7.0549">
        <ele>1187</ele>
        <time>2022-07-26T12:12:11Z</time>
      </trkpt>
      <trkpt lat="44.09254" lon="7.05491">
        <ele>1187</ele>
        <time>2022-07-26T12:12:12Z</time>
      </trkpt>
      <trkpt lat="44.09253" lon="7.05492">
        <ele>1186</ele>
        <time>2022-07-26T12:12:13Z</time>
      </trkpt>
      <trkpt lat="44.09253" lon="7.05494">
        <ele>1186</ele>
        <time>2022-07-26T12:12:14Z</time>
      </trkpt>
      <trkpt lat="44.09252" lon="7.05495">
        <ele>1186</ele>
        <time>2022-07-26T12:12:15Z</time>
      </trkpt>
      <trkpt lat="44.09252" lon="7.05497">
        <ele>1186</ele>
        <time>2022-07-26T12:12:16Z</time>
      </trkpt>
      <trkpt lat="44.09251" lon="7.05498">
        <ele>1186</ele>
        <time>2022-07-26T12:12:17Z</time>
      </trkpt>
      <trkpt lat="44.09251" lon="7.055">
        <ele>1185</ele>
        <time>2022-07-26T12:12:18Z</time>
      </trkpt>
      <trkpt lat="44.09251" lon="7.05501">
        <ele>1185</ele>
        <time>2022-07-26T12:12:19Z</time>
      </trkpt>
      <trkpt lat="44.0925" lon="7.05503">
        <ele>1185</ele>
        <time>2022-07-26T12:12:20Z</time>
      </trkpt>
      <trkpt lat="44.0925" lon="7.05504">
        <ele>1185</ele>
        <time>2022-07-26T12:12:21Z</time>
      </trkpt>
      <trkpt lat="44.0925" lon="7.05506">
        <ele>1185</ele>
        <time>2022-07-26T12:12:22Z</time>
      </trkpt>
      <trkpt lat="44.09249" lon="7.05507">
        <ele>1184</ele>
        <time>2022-07-26T12:12:23Z</time>
      </trkpt>
      <trkpt lat="44.09249" lon="7.05508">
        <ele>1184</ele>
        <time>2022-07-26T12:12:24Z</time>
      </trkpt>
      <trkpt lat="44.09248" lon="7.05509">
        <ele>1184</ele>
        <time>2022-07-26T12:12:25Z</time>
      </trkpt>
      <trkpt lat="44.09248" lon="7.0551">
        <ele>1184</ele>
        <time>2022-07-26T12:12:26Z</time>
      </trkpt>
      <trkpt lat="44.09247" lon="7.05511">
        <ele>1184</ele>
        <time>2022-07-26T12:12:27Z</time>
      </trkpt>
      <trkpt lat="44.09246" lon="7.05512">
        <ele>1183</ele>
        <time>2022-07-26T12:12:28Z</time>
      </trkpt>
      <trkpt lat="44.09246" lon="7.05513">
        <ele>1183</ele>
        <time>2022-07-26T12:12:29Z</time>
      </trkpt>
      <trkpt lat="44.09245" lon="7.05514">
        <ele>1183</ele>
        <time>2022-07-26T12:12:30Z</time>
      </trkpt>
      <trkpt lat="44.09245" lon="7.05515">
        <ele>1183</ele>
        <time>2022-07-26T12:12:31Z</time>
      </trkpt>
      <trkpt lat="44.09244" lon="7.05517">
        <ele>1183</ele>
        <time>2022-07-26T12:12:32Z</time>
      </trkpt>
      <trkpt lat="44.09244" lon="7.05518">
        <ele>1182</ele>
        <time>2022-07-26T12:12:33Z</time>
      </trkpt>
      <trkpt lat="44.09244" lon="7.05519">
        <ele>1182</ele>
        <time>2022-07-26T12:12:34Z</time>
      </trkpt>
      <trkpt lat="44.09243" lon="7.05521">
        <ele>1182</ele>
        <time>2022-07-26T12:12:35Z</time>
      </trkpt>
      <trkpt lat="44.09243" lon="7.05522">
        <ele>1182</ele>
        <time>2022-07-26T12:12:36Z</time>
      </trkpt>
      <trkpt lat="44.09243" lon="7.05524">
        <ele>1182</ele>
        <time>2022-07-26T12:12:37Z</time>
      </trkpt>
      <trkpt lat="44.09242" lon="7.05525">
        <ele>1181</ele>
        <time>2022-07-26T12:12:38Z</time>
      </trkpt>
      <trkpt lat="44.09242" lon="7.05526">
        <ele>1181</ele>
        <time>2022-07-26T12:12:39Z</time>
      </trkpt>
      <trkpt lat="44.09241" lon="7.05528">
        <ele>1181</ele>
        <time>2022-07-26T12:12:40Z</time>
      </trkpt>
      <trkpt lat="44.09241" lon="7.05529">
        <ele>1181</ele>
        <time>2022-07-26T12:12:41Z</time>
      </trkpt>
      <trkpt lat="44.0924" lon="7.05531">
        <ele>1181</ele>
        <time>2022-07-26T12:12:42Z</time>
      </trkpt>
      <trkpt lat="44.09239" lon="7.05532">
        <ele>1180</ele>
        <time>2022-07-26T12:12:43Z</time>
      </trkpt>
      <trkpt lat="44.09239" lon="7.05533">
        <ele>1180</ele>
        <time>2022-07-26T12:12:44Z</time>
      </trkpt>
      <trkpt lat="44.09238" lon="7.05534">
        <ele>1180</ele>
        <time>2022-07-26T12:12:45Z</time>
      </trkpt>
      <trkpt lat="44.09237" lon="7.05536">
        <ele>1180</ele>
        <time>2022-07-26T12:12:46Z</time>
      </trkpt>
      <trkpt lat="44.09237" lon="7.05537">
        <ele>1180</ele>
        <time>2022-07-26T12:12:47Z</time>
      </trkpt>
      <trkpt lat="44.09236" lon="7.05538">
        <ele>1179</ele>
        <time>2022-07-26T12:12:48Z</time>
      </trkpt>
      <trkpt lat="44.09236" lon="7.05539">
        <ele>1179</ele>
        <time>2022-07-26T12:12:49Z</time>
      </trkpt>
      <trkpt lat="44.09235" lon="7.05539">
        <ele>1178</ele>
        <time>2022-07-26T12:12:50Z</time>
      </trkpt>
      <trkpt lat="44.09235" lon="7.05539">
        <ele>1178</ele>
        <time>2022-07-26T12:12:51Z</time>
      </trkpt>
      <trkpt lat="44.09235" lon="7.0554">
        <ele>1178</ele>
        <time>2022-07-26T12:12:52Z</time>
      </trkpt>
      <trkpt lat="44.09234" lon="7.0554">
        <ele>1177</ele>
        <time>2022-07-26T12:12:53Z</time>
      </trkpt>
      <trkpt lat="44.09234" lon="7.05541">
        <ele>1177</ele>
        <time>2022-07-26T12:12:54Z</time>
      </trkpt>
      <trkpt lat="44.09234" lon="7.05541">
        <ele>1177</ele>
        <time>2022-07-26T12:12:55Z</time>
      </trkpt>
      <trkpt lat="44.09233" lon="7.05542">
        <ele>1177</ele>
        <time>2022-07-26T12:12:56Z</time>
      </trkpt>
      <trkpt lat="44.09233" lon="7.05543">
        <ele>1177</ele>
        <time>2022-07-26T12:12:57Z</time>
      </trkpt>
      <trkpt lat="44.09232" lon="7.05543">
        <ele>1176</ele>
        <time>2022-07-26T12:12:58Z</time>
      </trkpt>
      <trkpt lat="44.09231" lon="7.05545">
        <ele>1175</ele>
        <time>2022-07-26T12:13:06Z</time>
      </trkpt>
      <trkpt lat="44.09231" lon="7.05545">
        <ele>1175</ele>
        <time>2022-07-26T12:13:07Z</time>
      </trkpt>
      <trkpt lat="44.0923" lon="7.05546">
        <ele>1175</ele>
        <time>2022-07-26T12:13:08Z</time>
      </trkpt>
      <trkpt lat="44.09229" lon="7.05547">
        <ele>1175</ele>
        <time>2022-07-26T12:13:09Z</time>
      </trkpt>
      <trkpt lat="44.09229" lon="7.05547">
        <ele>1175</ele>
        <time>2022-07-26T12:13:10Z</time>
      </trkpt>
      <trkpt lat="44.09228" lon="7.05548">
        <ele>1175</ele>
        <time>2022-07-26T12:13:11Z</time>
      </trkpt>
      <trkpt lat="44.09228" lon="7.05548">
        <ele>1175</ele>
        <time>2022-07-26T12:13:12Z</time>
      </trkpt>
      <trkpt lat="44.09228" lon="7.05549">
        <ele>1174</ele>
        <time>2022-07-26T12:13:13Z</time>
      </trkpt>
      <trkpt lat="44.09227" lon="7.0555">
        <ele>1174</ele>
        <time>2022-07-26T12:13:14Z</time>
      </trkpt>
      <trkpt lat="44.09227" lon="7.05552">
        <ele>1174</ele>
        <time>2022-07-26T12:13:15Z</time>
      </trkpt>
      <trkpt lat="44.09227" lon="7.05553">
        <ele>1174</ele>
        <time>2022-07-26T12:13:16Z</time>
      </trkpt>
      <trkpt lat="44.09226" lon="7.05554">
        <ele>1174</ele>
        <time>2022-07-26T12:13:17Z</time>
      </trkpt>
      <trkpt lat="44.09226" lon="7.05556">
        <ele>1173</ele>
        <time>2022-07-26T12:13:18Z</time>
      </trkpt>
      <trkpt lat="44.09226" lon="7.05557">
        <ele>1173</ele>
        <time>2022-07-26T12:13:19Z</time>
      </trkpt>
      <trkpt lat="44.09225" lon="7.05559">
        <ele>1173</ele>
        <time>2022-07-26T12:13:20Z</time>
      </trkpt>
      <trkpt lat="44.09225" lon="7.0556">
        <ele>1173</ele>
        <time>2022-07-26T12:13:21Z</time>
      </trkpt>
      <trkpt lat="44.09225" lon="7.05561">
        <ele>1173</ele>
        <time>2022-07-26T12:13:22Z</time>
      </trkpt>
      <trkpt lat="44.09225" lon="7.05563">
        <ele>1172</ele>
        <time>2022-07-26T12:13:23Z</time>
      </trkpt>
      <trkpt lat="44.09225" lon="7.05564">
        <ele>1172</ele>
        <time>2022-07-26T12:13:24Z</time>
      </trkpt>
      <trkpt lat="44.09225" lon="7.05566">
        <ele>1172</ele>
        <time>2022-07-26T12:13:25Z</time>
      </trkpt>
      <trkpt lat="44.09225" lon="7.05567">
        <ele>1172</ele>
        <time>2022-07-26T12:13:26Z</time>
      </trkpt>
      <trkpt lat="44.09225" lon="7.05569">
        <ele>1172</ele>
        <time>2022-07-26T12:13:27Z</time>
      </trkpt>
      <trkpt lat="44.09225" lon="7.0557">
        <ele>1172</ele>
        <time>2022-07-26T12:13:28Z</time>
      </trkpt>
      <trkpt lat="44.09225" lon="7.05572">
        <ele>1172</ele>
        <time>2022-07-26T12:13:29Z</time>
      </trkpt>
      <trkpt lat="44.09226" lon="7.05573">
        <ele>1172</ele>
        <time>2022-07-26T12:13:30Z</time>
      </trkpt>
      <trkpt lat="44.09226" lon="7.05574">
        <ele>1172</ele>
        <time>2022-07-26T12:13:31Z</time>
      </trkpt>
      <trkpt lat="44.09226" lon="7.05576">
        <ele>1172</ele>
        <time>2022-07-26T12:13:32Z</time>
      </trkpt>
      <trkpt lat="44.09226" lon="7.05577">
        <ele>1171</ele>
        <time>2022-07-26T12:13:33Z</time>
      </trkpt>
      <trkpt lat="44.09227" lon="7.05578">
        <ele>1171</ele>
        <time>2022-07-26T12:13:34Z</time>
      </trkpt>
      <trkpt lat="44.09227" lon="7.05579">
        <ele>1171</ele>
        <time>2022-07-26T12:13:35Z</time>
      </trkpt>
      <trkpt lat="44.09227" lon="7.0558">
        <ele>1171</ele>
        <time>2022-07-26T12:13:36Z</time>
      </trkpt>
      <trkpt lat="44.09228" lon="7.05582">
        <ele>1171</ele>
        <time>2022-07-26T12:13:37Z</time>
      </trkpt>
      <trkpt lat="44.09228" lon="7.05583">
        <ele>1170</ele>
        <time>2022-07-26T12:13:38Z</time>
      </trkpt>
      <trkpt lat="44.09228" lon="7.05584">
        <ele>1170</ele>
        <time>2022-07-26T12:13:39Z</time>
      </trkpt>
      <trkpt lat="44.09228" lon="7.05585">
        <ele>1170</ele>
        <time>2022-07-26T12:13:40Z</time>
      </trkpt>
      <trkpt lat="44.09228" lon="7.05587">
        <ele>1170</ele>
        <time>2022-07-26T12:13:41Z</time>
      </trkpt>
      <trkpt lat="44.09228" lon="7.05588">
        <ele>1170</ele>
        <time>2022-07-26T12:13:42Z</time>
      </trkpt>
      <trkpt lat="44.09228" lon="7.05589">
        <ele>1170</ele>
        <time>2022-07-26T12:13:43Z</time>
      </trkpt>
      <trkpt lat="44.09228" lon="7.05591">
        <ele>1170</ele>
        <time>2022-07-26T12:13:44Z</time>
      </trkpt>
      <trkpt lat="44.09228" lon="7.05592">
        <ele>1170</ele>
        <time>2022-07-26T12:13:45Z</time>
      </trkpt>
      <trkpt lat="44.09228" lon="7.05593">
        <ele>1170</ele>
        <time>2022-07-26T12:13:46Z</time>
      </trkpt>
      <trkpt lat="44.09228" lon="7.05594">
        <ele>1170</ele>
        <time>2022-07-26T12:13:47Z</time>
      </trkpt>
      <trkpt lat="44.09228" lon="7.05595">
        <ele>1169</ele>
        <time>2022-07-26T12:13:48Z</time>
      </trkpt>
      <trkpt lat="44.09229" lon="7.05596">
        <ele>1169</ele>
        <time>2022-07-26T12:13:49Z</time>
      </trkpt>
      <trkpt lat="44.09229" lon="7.05596">
        <ele>1169</ele>
        <time>2022-07-26T12:13:50Z</time>
      </trkpt>
      <trkpt lat="44.09229" lon="7.05597">
        <ele>1169</ele>
        <time>2022-07-26T12:13:51Z</time>
      </trkpt>
      <trkpt lat="44.09229" lon="7.05597">
        <ele>1169</ele>
        <time>2022-07-26T12:13:52Z</time>
      </trkpt>
      <trkpt lat="44.09229" lon="7.05597">
        <ele>1169</ele>
        <time>2022-07-26T12:13:53Z</time>
      </trkpt>
      <trkpt lat="44.0923" lon="7.05598">
        <ele>1169</ele>
        <time>2022-07-26T12:13:54Z</time>
      </trkpt>
      <trkpt lat="44.0923" lon="7.05598">
        <ele>1169</ele>
        <time>2022-07-26T12:13:55Z</time>
      </trkpt>
      <trkpt lat="44.0923" lon="7.05599">
        <ele>1169</ele>
        <time>2022-07-26T12:13:56Z</time>
      </trkpt>
      <trkpt lat="44.09231" lon="7.05599">
        <ele>1169</ele>
        <time>2022-07-26T12:13:57Z</time>
      </trkpt>
      <trkpt lat="44.09231" lon="7.05599">
        <ele>1168</ele>
        <time>2022-07-26T12:13:58Z</time>
      </trkpt>
      <trkpt lat="44.09234" lon="7.05603">
        <ele>1165</ele>
        <time>2022-07-26T12:17:06Z</time>
      </trkpt>
      <trkpt lat="44.09235" lon="7.05604">
        <ele>1165</ele>
        <time>2022-07-26T12:17:07Z</time>
      </trkpt>
      <trkpt lat="44.09237" lon="7.05606">
        <ele>1165</ele>
        <time>2022-07-26T12:17:08Z</time>
      </trkpt>
      <trkpt lat="44.09238" lon="7.05606">
        <ele>1165</ele>
        <time>2022-07-26T12:17:09Z</time>
      </trkpt>
      <trkpt lat="44.09239" lon="7.05606">
        <ele>1165</ele>
        <time>2022-07-26T12:17:10Z</time>
      </trkpt>
      <trkpt lat="44.0924" lon="7.05605">
        <ele>1165</ele>
        <time>2022-07-26T12:17:11Z</time>
      </trkpt>
      <trkpt lat="44.0924" lon="7.05605">
        <ele>1165</ele>
        <time>2022-07-26T12:17:12Z</time>
      </trkpt>
      <trkpt lat="44.09241" lon="7.05604">
        <ele>1165</ele>
        <time>2022-07-26T12:17:13Z</time>
      </trkpt>
      <trkpt lat="44.09241" lon="7.05603">
        <ele>1165</ele>
        <time>2022-07-26T12:17:14Z</time>
      </trkpt>
      <trkpt lat="44.09241" lon="7.05603">
        <ele>1165</ele>
        <time>2022-07-26T12:17:15Z</time>
      </trkpt>
      <trkpt lat="44.09241" lon="7.05603">
        <ele>1165</ele>
        <time>2022-07-26T12:17:16Z</time>
      </trkpt>
      <trkpt lat="44.09242" lon="7.05602">
        <ele>1165</ele>
        <time>2022-07-26T12:17:17Z</time>
      </trkpt>
      <trkpt lat="44.09242" lon="7.05601">
        <ele>1165</ele>
        <time>2022-07-26T12:17:18Z</time>
      </trkpt>
      <trkpt lat="44.09242" lon="7.056">
        <ele>1165</ele>
        <time>2022-07-26T12:17:19Z</time>
      </trkpt>
      <trkpt lat="44.09243" lon="7.05599">
        <ele>1165</ele>
        <time>2022-07-26T12:17:20Z</time>
      </trkpt>
      <trkpt lat="44.09243" lon="7.05599">
        <ele>1165</ele>
        <time>2022-07-26T12:17:21Z</time>
      </trkpt>
      <trkpt lat="44.09243" lon="7.05598">
        <ele>1165</ele>
        <time>2022-07-26T12:17:22Z</time>
      </trkpt>
      <trkpt lat="44.09243" lon="7.05598">
        <ele>1164</ele>
        <time>2022-07-26T12:17:23Z</time>
      </trkpt>
      <trkpt lat="44.09243" lon="7.05597">
        <ele>1164</ele>
        <time>2022-07-26T12:17:24Z</time>
      </trkpt>
      <trkpt lat="44.09244" lon="7.05597">
        <ele>1164</ele>
        <time>2022-07-26T12:17:25Z</time>
      </trkpt>
      <trkpt lat="44.09244" lon="7.05596">
        <ele>1164</ele>
        <time>2022-07-26T12:17:26Z</time>
      </trkpt>
      <trkpt lat="44.09244" lon="7.05596">
        <ele>1164</ele>
        <time>2022-07-26T12:17:27Z</time>
      </trkpt>
      <trkpt lat="44.09244" lon="7.05595">
        <ele>1163</ele>
        <time>2022-07-26T12:17:28Z</time>
      </trkpt>
      <trkpt lat="44.09244" lon="7.05595">
        <ele>1163</ele>
        <time>2022-07-26T12:17:29Z</time>
      </trkpt>
      <trkpt lat="44.09244" lon="7.05594">
        <ele>1163</ele>
        <time>2022-07-26T12:17:30Z</time>
      </trkpt>
      <trkpt lat="44.09244" lon="7.05593">
        <ele>1163</ele>
        <time>2022-07-26T12:17:31Z</time>
      </trkpt>
      <trkpt lat="44.09244" lon="7.05592">
        <ele>1163</ele>
        <time>2022-07-26T12:17:32Z</time>
      </trkpt>
      <trkpt lat="44.09244" lon="7.05591">
        <ele>1163</ele>
        <time>2022-07-26T12:17:33Z</time>
      </trkpt>
      <trkpt lat="44.09244" lon="7.0559">
        <ele>1163</ele>
        <time>2022-07-26T12:17:34Z</time>
      </trkpt>
      <trkpt lat="44.09244" lon="7.05589">
        <ele>1163</ele>
        <time>2022-07-26T12:17:35Z</time>
      </trkpt>
      <trkpt lat="44.09243" lon="7.05587">
        <ele>1163</ele>
        <time>2022-07-26T12:17:36Z</time>
      </trkpt>
      <trkpt lat="44.09243" lon="7.05586">
        <ele>1163</ele>
        <time>2022-07-26T12:17:37Z</time>
      </trkpt>
      <trkpt lat="44.09244" lon="7.05585">
        <ele>1162</ele>
        <time>2022-07-26T12:17:38Z</time>
      </trkpt>
      <trkpt lat="44.09244" lon="7.05583">
        <ele>1162</ele>
        <time>2022-07-26T12:17:39Z</time>
      </trkpt>
      <trkpt lat="44.09244" lon="7.05582">
        <ele>1161</ele>
        <time>2022-07-26T12:17:40Z</time>
      </trkpt>
      <trkpt lat="44.09244" lon="7.0558">
        <ele>1161</ele>
        <time>2022-07-26T12:17:41Z</time>
      </trkpt>
      <trkpt lat="44.09245" lon="7.05579">
        <ele>1161</ele>
        <time>2022-07-26T12:17:42Z</time>
      </trkpt>
      <trkpt lat="44.09245" lon="7.05577">
        <ele>1160</ele>
        <time>2022-07-26T12:17:43Z</time>
      </trkpt>
      <trkpt lat="44.09245" lon="7.05576">
        <ele>1160</ele>
        <time>2022-07-26T12:17:44Z</time>
      </trkpt>
      <trkpt lat="44.09245" lon="7.05576">
        <ele>1160</ele>
        <time>2022-07-26T12:17:45Z</time>
      </trkpt>
      <trkpt lat="44.09246" lon="7.05575">
        <ele>1160</ele>
        <time>2022-07-26T12:17:46Z</time>
      </trkpt>
      <trkpt lat="44.09246" lon="7.05573">
        <ele>1160</ele>
        <time>2022-07-26T12:17:47Z</time>
      </trkpt>
      <trkpt lat="44.09247" lon="7.05572">
        <ele>1160</ele>
        <time>2022-07-26T12:17:48Z</time>
      </trkpt>
      <trkpt lat="44.09247" lon="7.05571">
        <ele>1160</ele>
        <time>2022-07-26T12:17:49Z</time>
      </trkpt>
      <trkpt lat="44.09248" lon="7.05571">
        <ele>1160</ele>
        <time>2022-07-26T12:17:50Z</time>
      </trkpt>
      <trkpt lat="44.09249" lon="7.0557">
        <ele>1160</ele>
        <time>2022-07-26T12:17:51Z</time>
      </trkpt>
      <trkpt lat="44.09249" lon="7.05569">
        <ele>1160</ele>
        <time>2022-07-26T12:17:52Z</time>
      </trkpt>
      <trkpt lat="44.0925" lon="7.05569">
        <ele>1159</ele>
        <time>2022-07-26T12:17:53Z</time>
      </trkpt>
      <trkpt lat="44.09251" lon="7.05568">
        <ele>1159</ele>
        <time>2022-07-26T12:17:54Z</time>
      </trkpt>
      <trkpt lat="44.09252" lon="7.05567">
        <ele>1159</ele>
        <time>2022-07-26T12:17:55Z</time>
      </trkpt>
      <trkpt lat="44.09252" lon="7.05567">
        <ele>1159</ele>
        <time>2022-07-26T12:17:56Z</time>
      </trkpt>
      <trkpt lat="44.09254" lon="7.05566">
        <ele>1159</ele>
        <time>2022-07-26T12:17:57Z</time>
      </trkpt>
      <trkpt lat="44.09255" lon="7.05566">
        <ele>1158</ele>
        <time>2022-07-26T12:17:58Z</time>
      </trkpt>
      <trkpt lat="44.09256" lon="7.05565">
        <ele>1158</ele>
        <time>2022-07-26T12:17:59Z</time>
      </trkpt>
      <trkpt lat="44.09257" lon="7.05564">
        <ele>1158</ele>
        <time>2022-07-26T12:18:00Z</time>
      </trkpt>
      <trkpt lat="44.09258" lon="7.05564">
        <ele>1158</ele>
        <time>2022-07-26T12:18:01Z</time>
      </trkpt>
      <trkpt lat="44.09259" lon="7.05563">
        <ele>1158</ele>
        <time>2022-07-26T12:18:02Z</time>
      </trkpt>
      <trkpt lat="44.0926" lon="7.05563">
        <ele>1157</ele>
        <time>2022-07-26T12:18:03Z</time>
      </trkpt>
      <trkpt lat="44.09261" lon="7.05563">
        <ele>1157</ele>
        <time>2022-07-26T12:18:04Z</time>
      </trkpt>
      <trkpt lat="44.09262" lon="7.05562">
        <ele>1157</ele>
        <time>2022-07-26T12:18:05Z</time>
      </trkpt>
      <trkpt lat="44.09263" lon="7.05562">
        <ele>1157</ele>
        <time>2022-07-26T12:18:06Z</time>
      </trkpt>
      <trkpt lat="44.09264" lon="7.05561">
        <ele>1157</ele>
        <time>2022-07-26T12:18:07Z</time>
      </trkpt>
      <trkpt lat="44.09265" lon="7.05561">
        <ele>1156</ele>
        <time>2022-07-26T12:18:08Z</time>
      </trkpt>
      <trkpt lat="44.09266" lon="7.0556">
        <ele>1156</ele>
        <time>2022-07-26T12:18:09Z</time>
      </trkpt>
      <trkpt lat="44.09267" lon="7.0556">
        <ele>1156</ele>
        <time>2022-07-26T12:18:10Z</time>
      </trkpt>
      <trkpt lat="44.09268" lon="7.0556">
        <ele>1156</ele>
        <time>2022-07-26T12:18:11Z</time>
      </trkpt>
      <trkpt lat="44.09268" lon="7.0556">
        <ele>1156</ele>
        <time>2022-07-26T12:18:12Z</time>
      </trkpt>
      <trkpt lat="44.09269" lon="7.0556">
        <ele>1155</ele>
        <time>2022-07-26T12:18:13Z</time>
      </trkpt>
      <trkpt lat="44.0927" lon="7.05559">
        <ele>1155</ele>
        <time>2022-07-26T12:18:14Z</time>
      </trkpt>
      <trkpt lat="44.0927" lon="7.05559">
        <ele>1155</ele>
        <time>2022-07-26T12:18:15Z</time>
      </trkpt>
      <trkpt lat="44.09271" lon="7.05559">
        <ele>1155</ele>
        <time>2022-07-26T12:18:16Z</time>
      </trkpt>
      <trkpt lat="44.09272" lon="7.05559">
        <ele>1155</ele>
        <time>2022-07-26T12:18:17Z</time>
      </trkpt>
      <trkpt lat="44.09273" lon="7.05558">
        <ele>1155</ele>
        <time>2022-07-26T12:18:18Z</time>
      </trkpt>
      <trkpt lat="44.09273" lon="7.05558">
        <ele>1155</ele>
        <time>2022-07-26T12:18:19Z</time>
      </trkpt>
      <trkpt lat="44.09274" lon="7.05557">
        <ele>1155</ele>
        <time>2022-07-26T12:18:20Z</time>
      </trkpt>
      <trkpt lat="44.09275" lon="7.05556">
        <ele>1155</ele>
        <time>2022-07-26T12:18:21Z</time>
      </trkpt>
      <trkpt lat="44.09275" lon="7.05555">
        <ele>1155</ele>
        <time>2022-07-26T12:18:22Z</time>
      </trkpt>
      <trkpt lat="44.09276" lon="7.05553">
        <ele>1154</ele>
        <time>2022-07-26T12:18:23Z</time>
      </trkpt>
      <trkpt lat="44.09277" lon="7.05552">
        <ele>1154</ele>
        <time>2022-07-26T12:18:24Z</time>
      </trkpt>
      <trkpt lat="44.09278" lon="7.05551">
        <ele>1154</ele>
        <time>2022-07-26T12:18:25Z</time>
      </trkpt>
      <trkpt lat="44.09279" lon="7.0555">
        <ele>1154</ele>
        <time>2022-07-26T12:18:26Z</time>
      </trkpt>
      <trkpt lat="44.0928" lon="7.05549">
        <ele>1154</ele>
        <time>2022-07-26T12:18:27Z</time>
      </trkpt>
      <trkpt lat="44.09281" lon="7.05547">
        <ele>1153</ele>
        <time>2022-07-26T12:18:28Z</time>
      </trkpt>
      <trkpt lat="44.09282" lon="7.05546">
        <ele>1153</ele>
        <time>2022-07-26T12:18:29Z</time>
      </trkpt>
      <trkpt lat="44.09283" lon="7.05544">
        <ele>1153</ele>
        <time>2022-07-26T12:18:30Z</time>
      </trkpt>
      <trkpt lat="44.09283" lon="7.05542">
        <ele>1153</ele>
        <time>2022-07-26T12:18:31Z</time>
      </trkpt>
      <trkpt lat="44.09284" lon="7.0554">
        <ele>1153</ele>
        <time>2022-07-26T12:18:32Z</time>
      </trkpt>
      <trkpt lat="44.09284" lon="7.05539">
        <ele>1153</ele>
        <time>2022-07-26T12:18:33Z</time>
      </trkpt>
      <trkpt lat="44.09285" lon="7.05538">
        <ele>1153</ele>
        <time>2022-07-26T12:18:34Z</time>
      </trkpt>
      <trkpt lat="44.09285" lon="7.05536">
        <ele>1153</ele>
        <time>2022-07-26T12:18:35Z</time>
      </trkpt>
      <trkpt lat="44.09286" lon="7.05535">
        <ele>1153</ele>
        <time>2022-07-26T12:18:36Z</time>
      </trkpt>
      <trkpt lat="44.09287" lon="7.05534">
        <ele>1153</ele>
        <time>2022-07-26T12:18:37Z</time>
      </trkpt>
      <trkpt lat="44.09287" lon="7.05533">
        <ele>1152</ele>
        <time>2022-07-26T12:18:38Z</time>
      </trkpt>
      <trkpt lat="44.09287" lon="7.05532">
        <ele>1152</ele>
        <time>2022-07-26T12:18:39Z</time>
      </trkpt>
      <trkpt lat="44.09288" lon="7.05531">
        <ele>1152</ele>
        <time>2022-07-26T12:18:40Z</time>
      </trkpt>
      <trkpt lat="44.09288" lon="7.0553">
        <ele>1152</ele>
        <time>2022-07-26T12:18:41Z</time>
      </trkpt>
      <trkpt lat="44.09289" lon="7.05529">
        <ele>1152</ele>
        <time>2022-07-26T12:18:42Z</time>
      </trkpt>
      <trkpt lat="44.09289" lon="7.05528">
        <ele>1151</ele>
        <time>2022-07-26T12:18:43Z</time>
      </trkpt>
      <trkpt lat="44.09289" lon="7.05526">
        <ele>1151</ele>
        <time>2022-07-26T12:18:44Z</time>
      </trkpt>
      <trkpt lat="44.0929" lon="7.05525">
        <ele>1151</ele>
        <time>2022-07-26T12:18:45Z</time>
      </trkpt>
      <trkpt lat="44.0929" lon="7.05524">
        <ele>1151</ele>
        <time>2022-07-26T12:18:46Z</time>
      </trkpt>
      <trkpt lat="44.09291" lon="7.05523">
        <ele>1151</ele>
        <time>2022-07-26T12:18:47Z</time>
      </trkpt>
      <trkpt lat="44.09292" lon="7.05521">
        <ele>1150</ele>
        <time>2022-07-26T12:18:48Z</time>
      </trkpt>
      <trkpt lat="44.09293" lon="7.05521">
        <ele>1150</ele>
        <time>2022-07-26T12:18:49Z</time>
      </trkpt>
      <trkpt lat="44.09294" lon="7.0552">
        <ele>1150</ele>
        <time>2022-07-26T12:18:50Z</time>
      </trkpt>
      <trkpt lat="44.09295" lon="7.05519">
        <ele>1150</ele>
        <time>2022-07-26T12:18:51Z</time>
      </trkpt>
      <trkpt lat="44.09296" lon="7.05519">
        <ele>1150</ele>
        <time>2022-07-26T12:18:52Z</time>
      </trkpt>
      <trkpt lat="44.09297" lon="7.05518">
        <ele>1149</ele>
        <time>2022-07-26T12:18:53Z</time>
      </trkpt>
      <trkpt lat="44.09298" lon="7.05518">
        <ele>1149</ele>
        <time>2022-07-26T12:18:54Z</time>
      </trkpt>
      <trkpt lat="44.09299" lon="7.05517">
        <ele>1149</ele>
        <time>2022-07-26T12:18:55Z</time>
      </trkpt>
      <trkpt lat="44.093" lon="7.05516">
        <ele>1149</ele>
        <time>2022-07-26T12:18:56Z</time>
      </trkpt>
      <trkpt lat="44.09301" lon="7.05515">
        <ele>1149</ele>
        <time>2022-07-26T12:18:57Z</time>
      </trkpt>
      <trkpt lat="44.09302" lon="7.05514">
        <ele>1148</ele>
        <time>2022-07-26T12:18:58Z</time>
      </trkpt>
      <trkpt lat="44.09302" lon="7.05514">
        <ele>1148</ele>
        <time>2022-07-26T12:18:59Z</time>
      </trkpt>
      <trkpt lat="44.09303" lon="7.05513">
        <ele>1148</ele>
        <time>2022-07-26T12:19:00Z</time>
      </trkpt>
      <trkpt lat="44.09303" lon="7.05513">
        <ele>1148</ele>
        <time>2022-07-26T12:19:01Z</time>
      </trkpt>
      <trkpt lat="44.09304" lon="7.05512">
        <ele>1148</ele>
        <time>2022-07-26T12:19:02Z</time>
      </trkpt>
      <trkpt lat="44.09305" lon="7.05512">
        <ele>1147</ele>
        <time>2022-07-26T12:19:03Z</time>
      </trkpt>
      <trkpt lat="44.09305" lon="7.05511">
        <ele>1147</ele>
        <time>2022-07-26T12:19:04Z</time>
      </trkpt>
      <trkpt lat="44.09306" lon="7.05511">
        <ele>1147</ele>
        <time>2022-07-26T12:19:05Z</time>
      </trkpt>
      <trkpt lat="44.09306" lon="7.05511">
        <ele>1147</ele>
        <time>2022-07-26T12:19:06Z</time>
      </trkpt>
      <trkpt lat="44.09306" lon="7.05511">
        <ele>1147</ele>
        <time>2022-07-26T12:19:07Z</time>
      </trkpt>
      <trkpt lat="44.09306" lon="7.0551">
        <ele>1146</ele>
        <time>2022-07-26T12:19:08Z</time>
      </trkpt>
      <trkpt lat="44.09306" lon="7.0551">
        <ele>1146</ele>
        <time>2022-07-26T12:19:09Z</time>
      </trkpt>
      <trkpt lat="44.09307" lon="7.0551">
        <ele>1146</ele>
        <time>2022-07-26T12:19:10Z</time>
      </trkpt>
      <trkpt lat="44.09307" lon="7.05509">
        <ele>1146</ele>
        <time>2022-07-26T12:19:11Z</time>
      </trkpt>
      <trkpt lat="44.09308" lon="7.0551">
        <ele>1146</ele>
        <time>2022-07-26T12:19:12Z</time>
      </trkpt>
      <trkpt lat="44.09308" lon="7.0551">
        <ele>1145</ele>
        <time>2022-07-26T12:19:13Z</time>
      </trkpt>
      <trkpt lat="44.09308" lon="7.05511">
        <ele>1145</ele>
        <time>2022-07-26T12:19:14Z</time>
      </trkpt>
      <trkpt lat="44.09309" lon="7.05512">
        <ele>1144</ele>
        <time>2022-07-26T12:19:15Z</time>
      </trkpt>
      <trkpt lat="44.09309" lon="7.05513">
        <ele>1144</ele>
        <time>2022-07-26T12:19:16Z</time>
      </trkpt>
      <trkpt lat="44.0931" lon="7.05514">
        <ele>1144</ele>
        <time>2022-07-26T12:19:17Z</time>
      </trkpt>
      <trkpt lat="44.0931" lon="7.05514">
        <ele>1144</ele>
        <time>2022-07-26T12:19:18Z</time>
      </trkpt>
      <trkpt lat="44.09311" lon="7.05515">
        <ele>1144</ele>
        <time>2022-07-26T12:19:19Z</time>
      </trkpt>
      <trkpt lat="44.09312" lon="7.05515">
        <ele>1144</ele>
        <time>2022-07-26T12:19:20Z</time>
      </trkpt>
      <trkpt lat="44.09313" lon="7.05516">
        <ele>1144</ele>
        <time>2022-07-26T12:19:21Z</time>
      </trkpt>
      <trkpt lat="44.09314" lon="7.05517">
        <ele>1144</ele>
        <time>2022-07-26T12:19:22Z</time>
      </trkpt>
      <trkpt lat="44.09315" lon="7.05518">
        <ele>1143</ele>
        <time>2022-07-26T12:19:23Z</time>
      </trkpt>
      <trkpt lat="44.09315" lon="7.05519">
        <ele>1143</ele>
        <time>2022-07-26T12:19:24Z</time>
      </trkpt>
      <trkpt lat="44.09316" lon="7.0552">
        <ele>1143</ele>
        <time>2022-07-26T12:19:25Z</time>
      </trkpt>
      <trkpt lat="44.09316" lon="7.05521">
        <ele>1143</ele>
        <time>2022-07-26T12:19:26Z</time>
      </trkpt>
      <trkpt lat="44.09317" lon="7.05522">
        <ele>1143</ele>
        <time>2022-07-26T12:19:27Z</time>
      </trkpt>
      <trkpt lat="44.09317" lon="7.05523">
        <ele>1143</ele>
        <time>2022-07-26T12:19:28Z</time>
      </trkpt>
      <trkpt lat="44.09318" lon="7.05524">
        <ele>1143</ele>
        <time>2022-07-26T12:19:29Z</time>
      </trkpt>
      <trkpt lat="44.09318" lon="7.05525">
        <ele>1143</ele>
        <time>2022-07-26T12:19:30Z</time>
      </trkpt>
      <trkpt lat="44.09318" lon="7.05526">
        <ele>1143</ele>
        <time>2022-07-26T12:19:31Z</time>
      </trkpt>
      <trkpt lat="44.09319" lon="7.05527">
        <ele>1143</ele>
        <time>2022-07-26T12:19:32Z</time>
      </trkpt>
      <trkpt lat="44.09319" lon="7.05528">
        <ele>1142</ele>
        <time>2022-07-26T12:19:33Z</time>
      </trkpt>
      <trkpt lat="44.09319" lon="7.05529">
        <ele>1142</ele>
        <time>2022-07-26T12:19:34Z</time>
      </trkpt>
      <trkpt lat="44.0932" lon="7.0553">
        <ele>1142</ele>
        <time>2022-07-26T12:19:35Z</time>
      </trkpt>
      <trkpt lat="44.0932" lon="7.05531">
        <ele>1142</ele>
        <time>2022-07-26T12:19:36Z</time>
      </trkpt>
      <trkpt lat="44.09321" lon="7.05532">
        <ele>1142</ele>
        <time>2022-07-26T12:19:37Z</time>
      </trkpt>
      <trkpt lat="44.09321" lon="7.05533">
        <ele>1141</ele>
        <time>2022-07-26T12:19:38Z</time>
      </trkpt>
      <trkpt lat="44.09322" lon="7.05533">
        <ele>1141</ele>
        <time>2022-07-26T12:19:39Z</time>
      </trkpt>
      <trkpt lat="44.09323" lon="7.05534">
        <ele>1141</ele>
        <time>2022-07-26T12:19:40Z</time>
      </trkpt>
      <trkpt lat="44.09323" lon="7.05534">
        <ele>1141</ele>
        <time>2022-07-26T12:19:41Z</time>
      </trkpt>
      <trkpt lat="44.09324" lon="7.05535">
        <ele>1141</ele>
        <time>2022-07-26T12:19:42Z</time>
      </trkpt>
      <trkpt lat="44.09325" lon="7.05535">
        <ele>1141</ele>
        <time>2022-07-26T12:19:43Z</time>
      </trkpt>
      <trkpt lat="44.09326" lon="7.05535">
        <ele>1141</ele>
        <time>2022-07-26T12:19:44Z</time>
      </trkpt>
      <trkpt lat="44.09327" lon="7.05535">
        <ele>1141</ele>
        <time>2022-07-26T12:19:45Z</time>
      </trkpt>
      <trkpt lat="44.09328" lon="7.05535">
        <ele>1141</ele>
        <time>2022-07-26T12:19:46Z</time>
      </trkpt>
      <trkpt lat="44.09329" lon="7.05534">
        <ele>1141</ele>
        <time>2022-07-26T12:19:47Z</time>
      </trkpt>
      <trkpt lat="44.0933" lon="7.05533">
        <ele>1140</ele>
        <time>2022-07-26T12:19:48Z</time>
      </trkpt>
      <trkpt lat="44.09331" lon="7.05532">
        <ele>1140</ele>
        <time>2022-07-26T12:19:49Z</time>
      </trkpt>
      <trkpt lat="44.09331" lon="7.05532">
        <ele>1140</ele>
        <time>2022-07-26T12:19:50Z</time>
      </trkpt>
      <trkpt lat="44.09332" lon="7.05531">
        <ele>1140</ele>
        <time>2022-07-26T12:19:51Z</time>
      </trkpt>
      <trkpt lat="44.09333" lon="7.05531">
        <ele>1140</ele>
        <time>2022-07-26T12:19:52Z</time>
      </trkpt>
      <trkpt lat="44.09335" lon="7.05531">
        <ele>1139</ele>
        <time>2022-07-26T12:19:53Z</time>
      </trkpt>
      <trkpt lat="44.09335" lon="7.05531">
        <ele>1139</ele>
        <time>2022-07-26T12:19:54Z</time>
      </trkpt>
      <trkpt lat="44.09336" lon="7.05531">
        <ele>1139</ele>
        <time>2022-07-26T12:19:55Z</time>
      </trkpt>
      <trkpt lat="44.09336" lon="7.05531">
        <ele>1139</ele>
        <time>2022-07-26T12:19:56Z</time>
      </trkpt>
      <trkpt lat="44.09336" lon="7.05531">
        <ele>1139</ele>
        <time>2022-07-26T12:19:57Z</time>
      </trkpt>
      <trkpt lat="44.09337" lon="7.05532">
        <ele>1138</ele>
        <time>2022-07-26T12:19:58Z</time>
      </trkpt>
      <trkpt lat="44.09336" lon="7.05532">
        <ele>1138</ele>
        <time>2022-07-26T12:19:59Z</time>
      </trkpt>
      <trkpt lat="44.09336" lon="7.05533">
        <ele>1138</ele>
        <time>2022-07-26T12:20:00Z</time>
      </trkpt>
      <trkpt lat="44.09335" lon="7.05533">
        <ele>1138</ele>
        <time>2022-07-26T12:20:01Z</time>
      </trkpt>
      <trkpt lat="44.09334" lon="7.05534">
        <ele>1138</ele>
        <time>2022-07-26T12:20:02Z</time>
      </trkpt>
      <trkpt lat="44.09334" lon="7.05534">
        <ele>1137</ele>
        <time>2022-07-26T12:20:03Z</time>
      </trkpt>
      <trkpt lat="44.09333" lon="7.05535">
        <ele>1137</ele>
        <time>2022-07-26T12:20:04Z</time>
      </trkpt>
      <trkpt lat="44.09333" lon="7.05536">
        <ele>1137</ele>
        <time>2022-07-26T12:20:05Z</time>
      </trkpt>
      <trkpt lat="44.09332" lon="7.05537">
        <ele>1137</ele>
        <time>2022-07-26T12:20:06Z</time>
      </trkpt>
      <trkpt lat="44.09331" lon="7.05538">
        <ele>1137</ele>
        <time>2022-07-26T12:20:07Z</time>
      </trkpt>
      <trkpt lat="44.0933" lon="7.05539">
        <ele>1136</ele>
        <time>2022-07-26T12:20:08Z</time>
      </trkpt>
      <trkpt lat="44.0933" lon="7.0554">
        <ele>1136</ele>
        <time>2022-07-26T12:20:09Z</time>
      </trkpt>
      <trkpt lat="44.09329" lon="7.05541">
        <ele>1136</ele>
        <time>2022-07-26T12:20:10Z</time>
      </trkpt>
      <trkpt lat="44.09329" lon="7.05542">
        <ele>1136</ele>
        <time>2022-07-26T12:20:11Z</time>
      </trkpt>
      <trkpt lat="44.09328" lon="7.05543">
        <ele>1136</ele>
        <time>2022-07-26T12:20:12Z</time>
      </trkpt>
      <trkpt lat="44.09327" lon="7.05543">
        <ele>1135</ele>
        <time>2022-07-26T12:20:13Z</time>
      </trkpt>
      <trkpt lat="44.09327" lon="7.05543">
        <ele>1135</ele>
        <time>2022-07-26T12:20:14Z</time>
      </trkpt>
      <trkpt lat="44.09326" lon="7.05543">
        <ele>1135</ele>
        <time>2022-07-26T12:20:15Z</time>
      </trkpt>
      <trkpt lat="44.09326" lon="7.05544">
        <ele>1135</ele>
        <time>2022-07-26T12:20:16Z</time>
      </trkpt>
      <trkpt lat="44.09325" lon="7.05544">
        <ele>1135</ele>
        <time>2022-07-26T12:20:17Z</time>
      </trkpt>
      <trkpt lat="44.09324" lon="7.05544">
        <ele>1134</ele>
        <time>2022-07-26T12:20:18Z</time>
      </trkpt>
      <trkpt lat="44.09324" lon="7.05545">
        <ele>1134</ele>
        <time>2022-07-26T12:20:19Z</time>
      </trkpt>
      <trkpt lat="44.09323" lon="7.05545">
        <ele>1134</ele>
        <time>2022-07-26T12:20:20Z</time>
      </trkpt>
      <trkpt lat="44.09322" lon="7.05545">
        <ele>1134</ele>
        <time>2022-07-26T12:20:21Z</time>
      </trkpt>
      <trkpt lat="44.09322" lon="7.05546">
        <ele>1134</ele>
        <time>2022-07-26T12:20:22Z</time>
      </trkpt>
      <trkpt lat="44.09321" lon="7.05546">
        <ele>1133</ele>
        <time>2022-07-26T12:20:23Z</time>
      </trkpt>
      <trkpt lat="44.09321" lon="7.05546">
        <ele>1133</ele>
        <time>2022-07-26T12:20:24Z</time>
      </trkpt>
      <trkpt lat="44.0932" lon="7.05547">
        <ele>1133</ele>
        <time>2022-07-26T12:20:25Z</time>
      </trkpt>
      <trkpt lat="44.0932" lon="7.05547">
        <ele>1133</ele>
        <time>2022-07-26T12:20:26Z</time>
      </trkpt>
      <trkpt lat="44.0932" lon="7.05548">
        <ele>1133</ele>
        <time>2022-07-26T12:20:27Z</time>
      </trkpt>
      <trkpt lat="44.0932" lon="7.05548">
        <ele>1132</ele>
        <time>2022-07-26T12:20:28Z</time>
      </trkpt>
      <trkpt lat="44.0932" lon="7.05549">
        <ele>1132</ele>
        <time>2022-07-26T12:20:29Z</time>
      </trkpt>
      <trkpt lat="44.09321" lon="7.0555">
        <ele>1131</ele>
        <time>2022-07-26T12:20:30Z</time>
      </trkpt>
      <trkpt lat="44.09321" lon="7.05551">
        <ele>1131</ele>
        <time>2022-07-26T12:20:31Z</time>
      </trkpt>
      <trkpt lat="44.09322" lon="7.05551">
        <ele>1131</ele>
        <time>2022-07-26T12:20:32Z</time>
      </trkpt>
      <trkpt lat="44.09323" lon="7.05552">
        <ele>1131</ele>
        <time>2022-07-26T12:20:33Z</time>
      </trkpt>
      <trkpt lat="44.09323" lon="7.05554">
        <ele>1131</ele>
        <time>2022-07-26T12:20:34Z</time>
      </trkpt>
      <trkpt lat="44.09323" lon="7.05555">
        <ele>1131</ele>
        <time>2022-07-26T12:20:35Z</time>
      </trkpt>
      <trkpt lat="44.09322" lon="7.05556">
        <ele>1131</ele>
        <time>2022-07-26T12:20:36Z</time>
      </trkpt>
      <trkpt lat="44.09322" lon="7.05557">
        <ele>1131</ele>
        <time>2022-07-26T12:20:37Z</time>
      </trkpt>
      <trkpt lat="44.09321" lon="7.05556">
        <ele>1130</ele>
        <time>2022-07-26T12:20:38Z</time>
      </trkpt>
      <trkpt lat="44.09321" lon="7.05556">
        <ele>1130</ele>
        <time>2022-07-26T12:20:39Z</time>
      </trkpt>
      <trkpt lat="44.0932" lon="7.05556">
        <ele>1129</ele>
        <time>2022-07-26T12:20:40Z</time>
      </trkpt>
      <trkpt lat="44.09319" lon="7.05555">
        <ele>1129</ele>
        <time>2022-07-26T12:20:41Z</time>
      </trkpt>
      <trkpt lat="44.09319" lon="7.05555">
        <ele>1129</ele>
        <time>2022-07-26T12:20:42Z</time>
      </trkpt>
      <trkpt lat="44.09318" lon="7.05554">
        <ele>1128</ele>
        <time>2022-07-26T12:20:43Z</time>
      </trkpt>
      <trkpt lat="44.09318" lon="7.05554">
        <ele>1128</ele>
        <time>2022-07-26T12:20:44Z</time>
      </trkpt>
      <trkpt lat="44.09317" lon="7.05553">
        <ele>1127</ele>
        <time>2022-07-26T12:20:45Z</time>
      </trkpt>
      <trkpt lat="44.09316" lon="7.05553">
        <ele>1127</ele>
        <time>2022-07-26T12:20:46Z</time>
      </trkpt>
      <trkpt lat="44.09316" lon="7.05552">
        <ele>1127</ele>
        <time>2022-07-26T12:20:47Z</time>
      </trkpt>
      <trkpt lat="44.09315" lon="7.05552">
        <ele>1126</ele>
        <time>2022-07-26T12:20:48Z</time>
      </trkpt>
      <trkpt lat="44.09315" lon="7.05552">
        <ele>1126</ele>
        <time>2022-07-26T12:20:49Z</time>
      </trkpt>
      <trkpt lat="44.09314" lon="7.05551">
        <ele>1126</ele>
        <time>2022-07-26T12:20:50Z</time>
      </trkpt>
      <trkpt lat="44.09313" lon="7.05551">
        <ele>1126</ele>
        <time>2022-07-26T12:20:51Z</time>
      </trkpt>
      <trkpt lat="44.09313" lon="7.05548">
        <ele>1123</ele>
        <time>2022-07-26T12:21:18Z</time>
      </trkpt>
      <trkpt lat="44.09313" lon="7.05546">
        <ele>1123</ele>
        <time>2022-07-26T12:21:19Z</time>
      </trkpt>
      <trkpt lat="44.09313" lon="7.05545">
        <ele>1123</ele>
        <time>2022-07-26T12:21:20Z</time>
      </trkpt>
      <trkpt lat="44.09313" lon="7.05544">
        <ele>1123</ele>
        <time>2022-07-26T12:21:21Z</time>
      </trkpt>
      <trkpt lat="44.09313" lon="7.05544">
        <ele>1123</ele>
        <time>2022-07-26T12:21:22Z</time>
      </trkpt>
      <trkpt lat="44.09312" lon="7.05544">
        <ele>1122</ele>
        <time>2022-07-26T12:21:23Z</time>
      </trkpt>
      <trkpt lat="44.09312" lon="7.05543">
        <ele>1122</ele>
        <time>2022-07-26T12:21:24Z</time>
      </trkpt>
      <trkpt lat="44.09311" lon="7.05544">
        <ele>1122</ele>
        <time>2022-07-26T12:21:25Z</time>
      </trkpt>
      <trkpt lat="44.0931" lon="7.05544">
        <ele>1122</ele>
        <time>2022-07-26T12:21:26Z</time>
      </trkpt>
      <trkpt lat="44.0931" lon="7.05545">
        <ele>1122</ele>
        <time>2022-07-26T12:21:27Z</time>
      </trkpt>
      <trkpt lat="44.09309" lon="7.05546">
        <ele>1122</ele>
        <time>2022-07-26T12:21:28Z</time>
      </trkpt>
      <trkpt lat="44.09309" lon="7.05547">
        <ele>1122</ele>
        <time>2022-07-26T12:21:29Z</time>
      </trkpt>
      <trkpt lat="44.09309" lon="7.05549">
        <ele>1122</ele>
        <time>2022-07-26T12:21:30Z</time>
      </trkpt>
      <trkpt lat="44.09309" lon="7.05551">
        <ele>1122</ele>
        <time>2022-07-26T12:21:31Z</time>
      </trkpt>
      <trkpt lat="44.09309" lon="7.05553">
        <ele>1122</ele>
        <time>2022-07-26T12:21:32Z</time>
      </trkpt>
      <trkpt lat="44.09309" lon="7.05554">
        <ele>1121</ele>
        <time>2022-07-26T12:21:33Z</time>
      </trkpt>
      <trkpt lat="44.09309" lon="7.05556">
        <ele>1121</ele>
        <time>2022-07-26T12:21:34Z</time>
      </trkpt>
      <trkpt lat="44.09309" lon="7.05557">
        <ele>1121</ele>
        <time>2022-07-26T12:21:35Z</time>
      </trkpt>
      <trkpt lat="44.09309" lon="7.05559">
        <ele>1121</ele>
        <time>2022-07-26T12:21:36Z</time>
      </trkpt>
      <trkpt lat="44.09308" lon="7.0556">
        <ele>1121</ele>
        <time>2022-07-26T12:21:37Z</time>
      </trkpt>
      <trkpt lat="44.09308" lon="7.05562">
        <ele>1120</ele>
        <time>2022-07-26T12:21:38Z</time>
      </trkpt>
      <trkpt lat="44.09309" lon="7.05563">
        <ele>1120</ele>
        <time>2022-07-26T12:21:39Z</time>
      </trkpt>
      <trkpt lat="44.09309" lon="7.05564">
        <ele>1119</ele>
        <time>2022-07-26T12:21:40Z</time>
      </trkpt>
      <trkpt lat="44.09309" lon="7.05566">
        <ele>1119</ele>
        <time>2022-07-26T12:21:41Z</time>
      </trkpt>
      <trkpt lat="44.09309" lon="7.05567">
        <ele>1119</ele>
        <time>2022-07-26T12:21:42Z</time>
      </trkpt>
      <trkpt lat="44.09309" lon="7.05568">
        <ele>1118</ele>
        <time>2022-07-26T12:21:43Z</time>
      </trkpt>
      <trkpt lat="44.09309" lon="7.0557">
        <ele>1118</ele>
        <time>2022-07-26T12:21:44Z</time>
      </trkpt>
      <trkpt lat="44.09309" lon="7.0557">
        <ele>1118</ele>
        <time>2022-07-26T12:21:45Z</time>
      </trkpt>
      <trkpt lat="44.09309" lon="7.05571">
        <ele>1118</ele>
        <time>2022-07-26T12:21:46Z</time>
      </trkpt>
      <trkpt lat="44.09309" lon="7.05573">
        <ele>1118</ele>
        <time>2022-07-26T12:21:47Z</time>
      </trkpt>
      <trkpt lat="44.09309" lon="7.05574">
        <ele>1117</ele>
        <time>2022-07-26T12:21:48Z</time>
      </trkpt>
      <trkpt lat="44.09308" lon="7.05575">
        <ele>1117</ele>
        <time>2022-07-26T12:21:49Z</time>
      </trkpt>
      <trkpt lat="44.09308" lon="7.05576">
        <ele>1117</ele>
        <time>2022-07-26T12:21:50Z</time>
      </trkpt>
      <trkpt lat="44.09308" lon="7.05576">
        <ele>1117</ele>
        <time>2022-07-26T12:21:51Z</time>
      </trkpt>
      <trkpt lat="44.09308" lon="7.05577">
        <ele>1117</ele>
        <time>2022-07-26T12:21:52Z</time>
      </trkpt>
      <trkpt lat="44.09307" lon="7.05578">
        <ele>1116</ele>
        <time>2022-07-26T12:21:53Z</time>
      </trkpt>
      <trkpt lat="44.09307" lon="7.05579">
        <ele>1116</ele>
        <time>2022-07-26T12:21:54Z</time>
      </trkpt>
      <trkpt lat="44.09307" lon="7.0558">
        <ele>1116</ele>
        <time>2022-07-26T12:21:55Z</time>
      </trkpt>
      <trkpt lat="44.09307" lon="7.05581">
        <ele>1116</ele>
        <time>2022-07-26T12:21:56Z</time>
      </trkpt>
      <trkpt lat="44.09308" lon="7.05583">
        <ele>1114</ele>
        <time>2022-07-26T12:22:02Z</time>
      </trkpt>
      <trkpt lat="44.09308" lon="7.05584">
        <ele>1113</ele>
        <time>2022-07-26T12:22:03Z</time>
      </trkpt>
      <trkpt lat="44.09308" lon="7.05585">
        <ele>1113</ele>
        <time>2022-07-26T12:22:04Z</time>
      </trkpt>
      <trkpt lat="44.09307" lon="7.05584">
        <ele>1109</ele>
        <time>2022-07-26T12:22:18Z</time>
      </trkpt>
      <trkpt lat="44.09306" lon="7.05584">
        <ele>1109</ele>
        <time>2022-07-26T12:22:19Z</time>
      </trkpt>
      <trkpt lat="44.09305" lon="7.05584">
        <ele>1109</ele>
        <time>2022-07-26T12:22:20Z</time>
      </trkpt>
      <trkpt lat="44.09305" lon="7.05585">
        <ele>1109</ele>
        <time>2022-07-26T12:22:21Z</time>
      </trkpt>
      <trkpt lat="44.09304" lon="7.05585">
        <ele>1109</ele>
        <time>2022-07-26T12:22:22Z</time>
      </trkpt>
      <trkpt lat="44.09304" lon="7.05587">
        <ele>1108</ele>
        <time>2022-07-26T12:22:23Z</time>
      </trkpt>
      <trkpt lat="44.09304" lon="7.05588">
        <ele>1108</ele>
        <time>2022-07-26T12:22:24Z</time>
      </trkpt>
      <trkpt lat="44.09304" lon="7.05589">
        <ele>1108</ele>
        <time>2022-07-26T12:22:25Z</time>
      </trkpt>
      <trkpt lat="44.09304" lon="7.05591">
        <ele>1108</ele>
        <time>2022-07-26T12:22:26Z</time>
      </trkpt>
      <trkpt lat="44.09304" lon="7.05592">
        <ele>1108</ele>
        <time>2022-07-26T12:22:27Z</time>
      </trkpt>
      <trkpt lat="44.09304" lon="7.05594">
        <ele>1107</ele>
        <time>2022-07-26T12:22:28Z</time>
      </trkpt>
      <trkpt lat="44.09305" lon="7.05596">
        <ele>1107</ele>
        <time>2022-07-26T12:22:29Z</time>
      </trkpt>
      <trkpt lat="44.09305" lon="7.05598">
        <ele>1107</ele>
        <time>2022-07-26T12:22:30Z</time>
      </trkpt>
      <trkpt lat="44.09306" lon="7.056">
        <ele>1107</ele>
        <time>2022-07-26T12:22:31Z</time>
      </trkpt>
      <trkpt lat="44.09306" lon="7.05602">
        <ele>1107</ele>
        <time>2022-07-26T12:22:32Z</time>
      </trkpt>
      <trkpt lat="44.09306" lon="7.05603">
        <ele>1106</ele>
        <time>2022-07-26T12:22:33Z</time>
      </trkpt>
      <trkpt lat="44.09306" lon="7.05604">
        <ele>1106</ele>
        <time>2022-07-26T12:22:34Z</time>
      </trkpt>
      <trkpt lat="44.09306" lon="7.05604">
        <ele>1106</ele>
        <time>2022-07-26T12:22:35Z</time>
      </trkpt>
      <trkpt lat="44.09306" lon="7.05605">
        <ele>1106</ele>
        <time>2022-07-26T12:22:36Z</time>
      </trkpt>
      <trkpt lat="44.09306" lon="7.05606">
        <ele>1106</ele>
        <time>2022-07-26T12:22:37Z</time>
      </trkpt>
      <trkpt lat="44.09306" lon="7.05606">
        <ele>1105</ele>
        <time>2022-07-26T12:22:38Z</time>
      </trkpt>
      <trkpt lat="44.09307" lon="7.05607">
        <ele>1105</ele>
        <time>2022-07-26T12:22:39Z</time>
      </trkpt>
      <trkpt lat="44.09307" lon="7.05608">
        <ele>1104</ele>
        <time>2022-07-26T12:22:40Z</time>
      </trkpt>
      <trkpt lat="44.09307" lon="7.05608">
        <ele>1104</ele>
        <time>2022-07-26T12:22:41Z</time>
      </trkpt>
      <trkpt lat="44.09308" lon="7.05609">
        <ele>1104</ele>
        <time>2022-07-26T12:22:42Z</time>
      </trkpt>
      <trkpt lat="44.09308" lon="7.0561">
        <ele>1103</ele>
        <time>2022-07-26T12:22:43Z</time>
      </trkpt>
      <trkpt lat="44.09309" lon="7.05611">
        <ele>1103</ele>
        <time>2022-07-26T12:22:44Z</time>
      </trkpt>
      <trkpt lat="44.09309" lon="7.05612">
        <ele>1103</ele>
        <time>2022-07-26T12:22:45Z</time>
      </trkpt>
      <trkpt lat="44.0931" lon="7.05612">
        <ele>1103</ele>
        <time>2022-07-26T12:22:46Z</time>
      </trkpt>
      <trkpt lat="44.0931" lon="7.05613">
        <ele>1103</ele>
        <time>2022-07-26T12:22:47Z</time>
      </trkpt>
      <trkpt lat="44.0931" lon="7.05613">
        <ele>1102</ele>
        <time>2022-07-26T12:22:48Z</time>
      </trkpt>
      <trkpt lat="44.09311" lon="7.05614">
        <ele>1102</ele>
        <time>2022-07-26T12:22:49Z</time>
      </trkpt>
      <trkpt lat="44.09311" lon="7.05615">
        <ele>1102</ele>
        <time>2022-07-26T12:22:50Z</time>
      </trkpt>
      <trkpt lat="44.09312" lon="7.05616">
        <ele>1102</ele>
        <time>2022-07-26T12:22:51Z</time>
      </trkpt>
      <trkpt lat="44.09313" lon="7.05616">
        <ele>1102</ele>
        <time>2022-07-26T12:22:52Z</time>
      </trkpt>
      <trkpt lat="44.09313" lon="7.05617">
        <ele>1101</ele>
        <time>2022-07-26T12:22:53Z</time>
      </trkpt>
      <trkpt lat="44.09314" lon="7.05617">
        <ele>1101</ele>
        <time>2022-07-26T12:22:54Z</time>
      </trkpt>
      <trkpt lat="44.09314" lon="7.05617">
        <ele>1101</ele>
        <time>2022-07-26T12:22:55Z</time>
      </trkpt>
      <trkpt lat="44.09314" lon="7.05617">
        <ele>1101</ele>
        <time>2022-07-26T12:22:56Z</time>
      </trkpt>
      <trkpt lat="44.09314" lon="7.05617">
        <ele>1101</ele>
        <time>2022-07-26T12:22:57Z</time>
      </trkpt>
      <trkpt lat="44.09315" lon="7.05618">
        <ele>1100</ele>
        <time>2022-07-26T12:22:58Z</time>
      </trkpt>
      <trkpt lat="44.09315" lon="7.05618">
        <ele>1100</ele>
        <time>2022-07-26T12:22:59Z</time>
      </trkpt>
      <trkpt lat="44.09315" lon="7.05618">
        <ele>1100</ele>
        <time>2022-07-26T12:23:00Z</time>
      </trkpt>
      <trkpt lat="44.09314" lon="7.05618">
        <ele>1100</ele>
        <time>2022-07-26T12:23:01Z</time>
      </trkpt>
      <trkpt lat="44.09314" lon="7.05619">
        <ele>1100</ele>
        <time>2022-07-26T12:23:02Z</time>
      </trkpt>
      <trkpt lat="44.09313" lon="7.0562">
        <ele>1099</ele>
        <time>2022-07-26T12:23:03Z</time>
      </trkpt>
      <trkpt lat="44.09312" lon="7.0562">
        <ele>1099</ele>
        <time>2022-07-26T12:23:04Z</time>
      </trkpt>
      <trkpt lat="44.09311" lon="7.05621">
        <ele>1099</ele>
        <time>2022-07-26T12:23:05Z</time>
      </trkpt>
      <trkpt lat="44.0931" lon="7.05621">
        <ele>1099</ele>
        <time>2022-07-26T12:23:06Z</time>
      </trkpt>
      <trkpt lat="44.0931" lon="7.05622">
        <ele>1099</ele>
        <time>2022-07-26T12:23:07Z</time>
      </trkpt>
      <trkpt lat="44.09309" lon="7.05623">
        <ele>1098</ele>
        <time>2022-07-26T12:23:08Z</time>
      </trkpt>
      <trkpt lat="44.09308" lon="7.05624">
        <ele>1098</ele>
        <time>2022-07-26T12:23:09Z</time>
      </trkpt>
      <trkpt lat="44.09307" lon="7.05624">
        <ele>1098</ele>
        <time>2022-07-26T12:23:10Z</time>
      </trkpt>
      <trkpt lat="44.09307" lon="7.05625">
        <ele>1098</ele>
        <time>2022-07-26T12:23:11Z</time>
      </trkpt>
      <trkpt lat="44.09307" lon="7.05626">
        <ele>1098</ele>
        <time>2022-07-26T12:23:12Z</time>
      </trkpt>
      <trkpt lat="44.09307" lon="7.05626">
        <ele>1097</ele>
        <time>2022-07-26T12:23:13Z</time>
      </trkpt>
      <trkpt lat="44.09308" lon="7.05627">
        <ele>1097</ele>
        <time>2022-07-26T12:23:14Z</time>
      </trkpt>
      <trkpt lat="44.09308" lon="7.05628">
        <ele>1097</ele>
        <time>2022-07-26T12:23:15Z</time>
      </trkpt>
      <trkpt lat="44.09308" lon="7.05629">
        <ele>1097</ele>
        <time>2022-07-26T12:23:16Z</time>
      </trkpt>
      <trkpt lat="44.09308" lon="7.0563">
        <ele>1097</ele>
        <time>2022-07-26T12:23:17Z</time>
      </trkpt>
      <trkpt lat="44.09308" lon="7.05631">
        <ele>1096</ele>
        <time>2022-07-26T12:23:18Z</time>
      </trkpt>
      <trkpt lat="44.09307" lon="7.05632">
        <ele>1096</ele>
        <time>2022-07-26T12:23:19Z</time>
      </trkpt>
      <trkpt lat="44.09307" lon="7.05633">
        <ele>1096</ele>
        <time>2022-07-26T12:23:20Z</time>
      </trkpt>
      <trkpt lat="44.09306" lon="7.05634">
        <ele>1096</ele>
        <time>2022-07-26T12:23:21Z</time>
      </trkpt>
      <trkpt lat="44.09306" lon="7.05635">
        <ele>1096</ele>
        <time>2022-07-26T12:23:22Z</time>
      </trkpt>
      <trkpt lat="44.09306" lon="7.05636">
        <ele>1095</ele>
        <time>2022-07-26T12:23:23Z</time>
      </trkpt>
      <trkpt lat="44.09306" lon="7.05638">
        <ele>1095</ele>
        <time>2022-07-26T12:23:24Z</time>
      </trkpt>
      <trkpt lat="44.09306" lon="7.05638">
        <ele>1095</ele>
        <time>2022-07-26T12:23:25Z</time>
      </trkpt>
      <trkpt lat="44.09307" lon="7.05639">
        <ele>1095</ele>
        <time>2022-07-26T12:23:26Z</time>
      </trkpt>
      <trkpt lat="44.09308" lon="7.05638">
        <ele>1095</ele>
        <time>2022-07-26T12:23:27Z</time>
      </trkpt>
      <trkpt lat="44.09309" lon="7.05638">
        <ele>1094</ele>
        <time>2022-07-26T12:23:28Z</time>
      </trkpt>
      <trkpt lat="44.09309" lon="7.05638">
        <ele>1094</ele>
        <time>2022-07-26T12:23:29Z</time>
      </trkpt>
      <trkpt lat="44.0931" lon="7.05637">
        <ele>1094</ele>
        <time>2022-07-26T12:23:30Z</time>
      </trkpt>
      <trkpt lat="44.09311" lon="7.05637">
        <ele>1094</ele>
        <time>2022-07-26T12:23:31Z</time>
      </trkpt>
      <trkpt lat="44.09312" lon="7.05636">
        <ele>1094</ele>
        <time>2022-07-26T12:23:32Z</time>
      </trkpt>
      <trkpt lat="44.09313" lon="7.05635">
        <ele>1093</ele>
        <time>2022-07-26T12:23:33Z</time>
      </trkpt>
      <trkpt lat="44.09314" lon="7.05634">
        <ele>1093</ele>
        <time>2022-07-26T12:23:34Z</time>
      </trkpt>
      <trkpt lat="44.09315" lon="7.05633">
        <ele>1092</ele>
        <time>2022-07-26T12:23:35Z</time>
      </trkpt>
      <trkpt lat="44.09315" lon="7.05633">
        <ele>1092</ele>
        <time>2022-07-26T12:23:36Z</time>
      </trkpt>
      <trkpt lat="44.09316" lon="7.05633">
        <ele>1092</ele>
        <time>2022-07-26T12:23:37Z</time>
      </trkpt>
      <trkpt lat="44.09317" lon="7.05633">
        <ele>1091</ele>
        <time>2022-07-26T12:23:38Z</time>
      </trkpt>
      <trkpt lat="44.09318" lon="7.05633">
        <ele>1091</ele>
        <time>2022-07-26T12:23:39Z</time>
      </trkpt>
      <trkpt lat="44.09319" lon="7.05633">
        <ele>1091</ele>
        <time>2022-07-26T12:23:40Z</time>
      </trkpt>
      <trkpt lat="44.0932" lon="7.05633">
        <ele>1091</ele>
        <time>2022-07-26T12:23:41Z</time>
      </trkpt>
      <trkpt lat="44.09321" lon="7.05633">
        <ele>1091</ele>
        <time>2022-07-26T12:23:42Z</time>
      </trkpt>
      <trkpt lat="44.09321" lon="7.05633">
        <ele>1090</ele>
        <time>2022-07-26T12:23:43Z</time>
      </trkpt>
      <trkpt lat="44.09322" lon="7.05633">
        <ele>1090</ele>
        <time>2022-07-26T12:23:44Z</time>
      </trkpt>
      <trkpt lat="44.09323" lon="7.05633">
        <ele>1090</ele>
        <time>2022-07-26T12:23:45Z</time>
      </trkpt>
      <trkpt lat="44.09324" lon="7.05633">
        <ele>1090</ele>
        <time>2022-07-26T12:23:46Z</time>
      </trkpt>
      <trkpt lat="44.09325" lon="7.05635">
        <ele>1086</ele>
        <time>2022-07-26T12:24:07Z</time>
      </trkpt>
      <trkpt lat="44.09324" lon="7.05636">
        <ele>1085</ele>
        <time>2022-07-26T12:24:08Z</time>
      </trkpt>
      <trkpt lat="44.09324" lon="7.05637">
        <ele>1085</ele>
        <time>2022-07-26T12:24:09Z</time>
      </trkpt>
      <trkpt lat="44.09323" lon="7.05637">
        <ele>1085</ele>
        <time>2022-07-26T12:24:10Z</time>
      </trkpt>
      <trkpt lat="44.09322" lon="7.05638">
        <ele>1085</ele>
        <time>2022-07-26T12:24:11Z</time>
      </trkpt>
      <trkpt lat="44.09321" lon="7.05639">
        <ele>1085</ele>
        <time>2022-07-26T12:24:12Z</time>
      </trkpt>
      <trkpt lat="44.09321" lon="7.05639">
        <ele>1085</ele>
        <time>2022-07-26T12:24:13Z</time>
      </trkpt>
      <trkpt lat="44.0932" lon="7.0564">
        <ele>1085</ele>
        <time>2022-07-26T12:24:14Z</time>
      </trkpt>
      <trkpt lat="44.09319" lon="7.05641">
        <ele>1085</ele>
        <time>2022-07-26T12:24:15Z</time>
      </trkpt>
      <trkpt lat="44.09318" lon="7.05642">
        <ele>1085</ele>
        <time>2022-07-26T12:24:16Z</time>
      </trkpt>
      <trkpt lat="44.09317" lon="7.05643">
        <ele>1085</ele>
        <time>2022-07-26T12:24:17Z</time>
      </trkpt>
      <trkpt lat="44.09317" lon="7.05645">
        <ele>1084</ele>
        <time>2022-07-26T12:24:18Z</time>
      </trkpt>
      <trkpt lat="44.09316" lon="7.05646">
        <ele>1084</ele>
        <time>2022-07-26T12:24:19Z</time>
      </trkpt>
      <trkpt lat="44.09316" lon="7.05647">
        <ele>1084</ele>
        <time>2022-07-26T12:24:20Z</time>
      </trkpt>
      <trkpt lat="44.09315" lon="7.05648">
        <ele>1084</ele>
        <time>2022-07-26T12:24:21Z</time>
      </trkpt>
      <trkpt lat="44.09315" lon="7.05649">
        <ele>1084</ele>
        <time>2022-07-26T12:24:22Z</time>
      </trkpt>
      <trkpt lat="44.09315" lon="7.05651">
        <ele>1083</ele>
        <time>2022-07-26T12:24:23Z</time>
      </trkpt>
      <trkpt lat="44.09314" lon="7.05652">
        <ele>1083</ele>
        <time>2022-07-26T12:24:24Z</time>
      </trkpt>
      <trkpt lat="44.09314" lon="7.05653">
        <ele>1083</ele>
        <time>2022-07-26T12:24:25Z</time>
      </trkpt>
      <trkpt lat="44.09313" lon="7.05654">
        <ele>1083</ele>
        <time>2022-07-26T12:24:26Z</time>
      </trkpt>
      <trkpt lat="44.09312" lon="7.05656">
        <ele>1083</ele>
        <time>2022-07-26T12:24:27Z</time>
      </trkpt>
      <trkpt lat="44.09311" lon="7.05657">
        <ele>1082</ele>
        <time>2022-07-26T12:24:28Z</time>
      </trkpt>
      <trkpt lat="44.09311" lon="7.05658">
        <ele>1082</ele>
        <time>2022-07-26T12:24:29Z</time>
      </trkpt>
      <trkpt lat="44.0931" lon="7.05659">
        <ele>1081</ele>
        <time>2022-07-26T12:24:30Z</time>
      </trkpt>
      <trkpt lat="44.0931" lon="7.0566">
        <ele>1081</ele>
        <time>2022-07-26T12:24:31Z</time>
      </trkpt>
      <trkpt lat="44.09309" lon="7.05661">
        <ele>1081</ele>
        <time>2022-07-26T12:24:32Z</time>
      </trkpt>
      <trkpt lat="44.09309" lon="7.05662">
        <ele>1080</ele>
        <time>2022-07-26T12:24:33Z</time>
      </trkpt>
      <trkpt lat="44.09309" lon="7.05663">
        <ele>1080</ele>
        <time>2022-07-26T12:24:34Z</time>
      </trkpt>
      <trkpt lat="44.09309" lon="7.05664">
        <ele>1080</ele>
        <time>2022-07-26T12:24:35Z</time>
      </trkpt>
      <trkpt lat="44.09308" lon="7.05665">
        <ele>1080</ele>
        <time>2022-07-26T12:24:36Z</time>
      </trkpt>
      <trkpt lat="44.09308" lon="7.05666">
        <ele>1080</ele>
        <time>2022-07-26T12:24:37Z</time>
      </trkpt>
      <trkpt lat="44.09307" lon="7.05666">
        <ele>1079</ele>
        <time>2022-07-26T12:24:38Z</time>
      </trkpt>
      <trkpt lat="44.09306" lon="7.05667">
        <ele>1079</ele>
        <time>2022-07-26T12:24:39Z</time>
      </trkpt>
      <trkpt lat="44.09306" lon="7.05667">
        <ele>1079</ele>
        <time>2022-07-26T12:24:40Z</time>
      </trkpt>
      <trkpt lat="44.09305" lon="7.05667">
        <ele>1079</ele>
        <time>2022-07-26T12:24:41Z</time>
      </trkpt>
      <trkpt lat="44.09304" lon="7.05668">
        <ele>1079</ele>
        <time>2022-07-26T12:24:42Z</time>
      </trkpt>
      <trkpt lat="44.09304" lon="7.05669">
        <ele>1078</ele>
        <time>2022-07-26T12:24:43Z</time>
      </trkpt>
      <trkpt lat="44.09303" lon="7.0567">
        <ele>1078</ele>
        <time>2022-07-26T12:24:44Z</time>
      </trkpt>
      <trkpt lat="44.09303" lon="7.05671">
        <ele>1078</ele>
        <time>2022-07-26T12:24:45Z</time>
      </trkpt>
      <trkpt lat="44.09302" lon="7.05672">
        <ele>1075</ele>
        <time>2022-07-26T12:24:51Z</time>
      </trkpt>
      <trkpt lat="44.09302" lon="7.05672">
        <ele>1075</ele>
        <time>2022-07-26T12:24:52Z</time>
      </trkpt>
      <trkpt lat="44.09301" lon="7.05672">
        <ele>1074</ele>
        <time>2022-07-26T12:24:53Z</time>
      </trkpt>
      <trkpt lat="44.09301" lon="7.05672">
        <ele>1074</ele>
        <time>2022-07-26T12:24:54Z</time>
      </trkpt>
      <trkpt lat="44.093" lon="7.05671">
        <ele>1074</ele>
        <time>2022-07-26T12:24:55Z</time>
      </trkpt>
      <trkpt lat="44.093" lon="7.0567">
        <ele>1074</ele>
        <time>2022-07-26T12:24:56Z</time>
      </trkpt>
      <trkpt lat="44.093" lon="7.05668">
        <ele>1074</ele>
        <time>2022-07-26T12:24:57Z</time>
      </trkpt>
      <trkpt lat="44.09299" lon="7.05667">
        <ele>1073</ele>
        <time>2022-07-26T12:24:58Z</time>
      </trkpt>
      <trkpt lat="44.09299" lon="7.05666">
        <ele>1073</ele>
        <time>2022-07-26T12:24:59Z</time>
      </trkpt>
      <trkpt lat="44.09298" lon="7.05665">
        <ele>1073</ele>
        <time>2022-07-26T12:25:00Z</time>
      </trkpt>
      <trkpt lat="44.09298" lon="7.05664">
        <ele>1073</ele>
        <time>2022-07-26T12:25:01Z</time>
      </trkpt>
      <trkpt lat="44.09298" lon="7.05665">
        <ele>1073</ele>
        <time>2022-07-26T12:25:02Z</time>
      </trkpt>
      <trkpt lat="44.09297" lon="7.05665">
        <ele>1072</ele>
        <time>2022-07-26T12:25:03Z</time>
      </trkpt>
      <trkpt lat="44.09297" lon="7.05665">
        <ele>1072</ele>
        <time>2022-07-26T12:25:04Z</time>
      </trkpt>
      <trkpt lat="44.09297" lon="7.05665">
        <ele>1072</ele>
        <time>2022-07-26T12:25:05Z</time>
      </trkpt>
      <trkpt lat="44.09296" lon="7.05666">
        <ele>1072</ele>
        <time>2022-07-26T12:25:06Z</time>
      </trkpt>
      <trkpt lat="44.09296" lon="7.05667">
        <ele>1072</ele>
        <time>2022-07-26T12:25:07Z</time>
      </trkpt>
      <trkpt lat="44.09296" lon="7.05668">
        <ele>1071</ele>
        <time>2022-07-26T12:25:08Z</time>
      </trkpt>
      <trkpt lat="44.09296" lon="7.05669">
        <ele>1071</ele>
        <time>2022-07-26T12:25:09Z</time>
      </trkpt>
      <trkpt lat="44.09296" lon="7.0567">
        <ele>1070</ele>
        <time>2022-07-26T12:25:10Z</time>
      </trkpt>
      <trkpt lat="44.09296" lon="7.05672">
        <ele>1070</ele>
        <time>2022-07-26T12:25:11Z</time>
      </trkpt>
      <trkpt lat="44.09297" lon="7.05673">
        <ele>1070</ele>
        <time>2022-07-26T12:25:12Z</time>
      </trkpt>
      <trkpt lat="44.09297" lon="7.05675">
        <ele>1069</ele>
        <time>2022-07-26T12:25:13Z</time>
      </trkpt>
      <trkpt lat="44.09297" lon="7.05676">
        <ele>1069</ele>
        <time>2022-07-26T12:25:14Z</time>
      </trkpt>
      <trkpt lat="44.09298" lon="7.05677">
        <ele>1069</ele>
        <time>2022-07-26T12:25:15Z</time>
      </trkpt>
      <trkpt lat="44.09298" lon="7.05679">
        <ele>1069</ele>
        <time>2022-07-26T12:25:16Z</time>
      </trkpt>
      <trkpt lat="44.09299" lon="7.0568">
        <ele>1069</ele>
        <time>2022-07-26T12:25:17Z</time>
      </trkpt>
      <trkpt lat="44.09299" lon="7.05681">
        <ele>1068</ele>
        <time>2022-07-26T12:25:18Z</time>
      </trkpt>
      <trkpt lat="44.093" lon="7.05682">
        <ele>1068</ele>
        <time>2022-07-26T12:25:19Z</time>
      </trkpt>
      <trkpt lat="44.093" lon="7.05683">
        <ele>1068</ele>
        <time>2022-07-26T12:25:20Z</time>
      </trkpt>
      <trkpt lat="44.09301" lon="7.05684">
        <ele>1068</ele>
        <time>2022-07-26T12:25:21Z</time>
      </trkpt>
      <trkpt lat="44.09302" lon="7.05685">
        <ele>1068</ele>
        <time>2022-07-26T12:25:22Z</time>
      </trkpt>
      <trkpt lat="44.09302" lon="7.05686">
        <ele>1067</ele>
        <time>2022-07-26T12:25:23Z</time>
      </trkpt>
      <trkpt lat="44.09303" lon="7.05687">
        <ele>1067</ele>
        <time>2022-07-26T12:25:24Z</time>
      </trkpt>
      <trkpt lat="44.09304" lon="7.05688">
        <ele>1067</ele>
        <time>2022-07-26T12:25:25Z</time>
      </trkpt>
      <trkpt lat="44.09305" lon="7.05688">
        <ele>1067</ele>
        <time>2022-07-26T12:25:26Z</time>
      </trkpt>
      <trkpt lat="44.09306" lon="7.05688">
        <ele>1067</ele>
        <time>2022-07-26T12:25:27Z</time>
      </trkpt>
      <trkpt lat="44.09306" lon="7.05688">
        <ele>1066</ele>
        <time>2022-07-26T12:25:28Z</time>
      </trkpt>
      <trkpt lat="44.09307" lon="7.05688">
        <ele>1066</ele>
        <time>2022-07-26T12:25:29Z</time>
      </trkpt>
      <trkpt lat="44.09308" lon="7.05688">
        <ele>1066</ele>
        <time>2022-07-26T12:25:30Z</time>
      </trkpt>
      <trkpt lat="44.09308" lon="7.05687">
        <ele>1066</ele>
        <time>2022-07-26T12:25:31Z</time>
      </trkpt>
      <trkpt lat="44.09309" lon="7.05687">
        <ele>1066</ele>
        <time>2022-07-26T12:25:32Z</time>
      </trkpt>
      <trkpt lat="44.09309" lon="7.05687">
        <ele>1065</ele>
        <time>2022-07-26T12:25:33Z</time>
      </trkpt>
      <trkpt lat="44.0931" lon="7.05686">
        <ele>1065</ele>
        <time>2022-07-26T12:25:34Z</time>
      </trkpt>
      <trkpt lat="44.09311" lon="7.05686">
        <ele>1065</ele>
        <time>2022-07-26T12:25:35Z</time>
      </trkpt>
      <trkpt lat="44.09311" lon="7.05686">
        <ele>1065</ele>
        <time>2022-07-26T12:25:36Z</time>
      </trkpt>
      <trkpt lat="44.09312" lon="7.05686">
        <ele>1065</ele>
        <time>2022-07-26T12:25:37Z</time>
      </trkpt>
      <trkpt lat="44.09313" lon="7.05686">
        <ele>1064</ele>
        <time>2022-07-26T12:25:38Z</time>
      </trkpt>
      <trkpt lat="44.09314" lon="7.05687">
        <ele>1063</ele>
        <time>2022-07-26T12:25:45Z</time>
      </trkpt>
      <trkpt lat="44.09314" lon="7.05687">
        <ele>1063</ele>
        <time>2022-07-26T12:25:46Z</time>
      </trkpt>
      <trkpt lat="44.09315" lon="7.05688">
        <ele>1063</ele>
        <time>2022-07-26T12:25:47Z</time>
      </trkpt>
      <trkpt lat="44.09315" lon="7.05688">
        <ele>1062</ele>
        <time>2022-07-26T12:25:48Z</time>
      </trkpt>
      <trkpt lat="44.09315" lon="7.05689">
        <ele>1062</ele>
        <time>2022-07-26T12:25:49Z</time>
      </trkpt>
      <trkpt lat="44.09314" lon="7.05689">
        <ele>1062</ele>
        <time>2022-07-26T12:25:50Z</time>
      </trkpt>
      <trkpt lat="44.09314" lon="7.05689">
        <ele>1062</ele>
        <time>2022-07-26T12:25:51Z</time>
      </trkpt>
      <trkpt lat="44.09313" lon="7.0569">
        <ele>1062</ele>
        <time>2022-07-26T12:25:52Z</time>
      </trkpt>
      <trkpt lat="44.09312" lon="7.0569">
        <ele>1061</ele>
        <time>2022-07-26T12:25:53Z</time>
      </trkpt>
      <trkpt lat="44.09311" lon="7.05691">
        <ele>1061</ele>
        <time>2022-07-26T12:25:54Z</time>
      </trkpt>
      <trkpt lat="44.0931" lon="7.05692">
        <ele>1061</ele>
        <time>2022-07-26T12:25:55Z</time>
      </trkpt>
      <trkpt lat="44.09309" lon="7.05693">
        <ele>1061</ele>
        <time>2022-07-26T12:25:56Z</time>
      </trkpt>
      <trkpt lat="44.09308" lon="7.05694">
        <ele>1061</ele>
        <time>2022-07-26T12:25:57Z</time>
      </trkpt>
      <trkpt lat="44.09307" lon="7.05695">
        <ele>1060</ele>
        <time>2022-07-26T12:25:58Z</time>
      </trkpt>
      <trkpt lat="44.09306" lon="7.05696">
        <ele>1060</ele>
        <time>2022-07-26T12:25:59Z</time>
      </trkpt>
      <trkpt lat="44.09305" lon="7.05696">
        <ele>1060</ele>
        <time>2022-07-26T12:26:00Z</time>
      </trkpt>
      <trkpt lat="44.09304" lon="7.05697">
        <ele>1060</ele>
        <time>2022-07-26T12:26:01Z</time>
      </trkpt>
      <trkpt lat="44.09303" lon="7.05697">
        <ele>1060</ele>
        <time>2022-07-26T12:26:02Z</time>
      </trkpt>
      <trkpt lat="44.09303" lon="7.05697">
        <ele>1059</ele>
        <time>2022-07-26T12:26:03Z</time>
      </trkpt>
      <trkpt lat="44.09302" lon="7.05697">
        <ele>1059</ele>
        <time>2022-07-26T12:26:04Z</time>
      </trkpt>
      <trkpt lat="44.09301" lon="7.05697">
        <ele>1058</ele>
        <time>2022-07-26T12:26:05Z</time>
      </trkpt>
      <trkpt lat="44.09298" lon="7.05696">
        <ele>1055</ele>
        <time>2022-07-26T12:26:19Z</time>
      </trkpt>
      <trkpt lat="44.09297" lon="7.05696">
        <ele>1055</ele>
        <time>2022-07-26T12:26:20Z</time>
      </trkpt>
      <trkpt lat="44.09295" lon="7.05695">
        <ele>1055</ele>
        <time>2022-07-26T12:26:21Z</time>
      </trkpt>
      <trkpt lat="44.09295" lon="7.05696">
        <ele>1055</ele>
        <time>2022-07-26T12:26:22Z</time>
      </trkpt>
      <trkpt lat="44.09294" lon="7.05696">
        <ele>1054</ele>
        <time>2022-07-26T12:26:23Z</time>
      </trkpt>
      <trkpt lat="44.09294" lon="7.05697">
        <ele>1054</ele>
        <time>2022-07-26T12:26:24Z</time>
      </trkpt>
      <trkpt lat="44.09294" lon="7.05698">
        <ele>1054</ele>
        <time>2022-07-26T12:26:25Z</time>
      </trkpt>
      <trkpt lat="44.09294" lon="7.05698">
        <ele>1054</ele>
        <time>2022-07-26T12:26:26Z</time>
      </trkpt>
      <trkpt lat="44.09294" lon="7.05699">
        <ele>1054</ele>
        <time>2022-07-26T12:26:27Z</time>
      </trkpt>
      <trkpt lat="44.09295" lon="7.057">
        <ele>1053</ele>
        <time>2022-07-26T12:26:28Z</time>
      </trkpt>
      <trkpt lat="44.09296" lon="7.05701">
        <ele>1053</ele>
        <time>2022-07-26T12:26:29Z</time>
      </trkpt>
      <trkpt lat="44.09297" lon="7.05702">
        <ele>1053</ele>
        <time>2022-07-26T12:26:30Z</time>
      </trkpt>
      <trkpt lat="44.09298" lon="7.05702">
        <ele>1053</ele>
        <time>2022-07-26T12:26:31Z</time>
      </trkpt>
      <trkpt lat="44.09299" lon="7.05703">
        <ele>1053</ele>
        <time>2022-07-26T12:26:32Z</time>
      </trkpt>
      <trkpt lat="44.093" lon="7.05703">
        <ele>1053</ele>
        <time>2022-07-26T12:26:33Z</time>
      </trkpt>
      <trkpt lat="44.09301" lon="7.05704">
        <ele>1053</ele>
        <time>2022-07-26T12:26:34Z</time>
      </trkpt>
      <trkpt lat="44.09303" lon="7.05704">
        <ele>1053</ele>
        <time>2022-07-26T12:26:35Z</time>
      </trkpt>
      <trkpt lat="44.09304" lon="7.05704">
        <ele>1053</ele>
        <time>2022-07-26T12:26:36Z</time>
      </trkpt>
      <trkpt lat="44.09305" lon="7.05704">
        <ele>1053</ele>
        <time>2022-07-26T12:26:37Z</time>
      </trkpt>
      <trkpt lat="44.09306" lon="7.05704">
        <ele>1052</ele>
        <time>2022-07-26T12:26:38Z</time>
      </trkpt>
      <trkpt lat="44.09308" lon="7.05704">
        <ele>1052</ele>
        <time>2022-07-26T12:26:39Z</time>
      </trkpt>
      <trkpt lat="44.09309" lon="7.05703">
        <ele>1052</ele>
        <time>2022-07-26T12:26:40Z</time>
      </trkpt>
      <trkpt lat="44.0931" lon="7.05703">
        <ele>1052</ele>
        <time>2022-07-26T12:26:41Z</time>
      </trkpt>
      <trkpt lat="44.09311" lon="7.05703">
        <ele>1052</ele>
        <time>2022-07-26T12:26:42Z</time>
      </trkpt>
      <trkpt lat="44.09313" lon="7.05702">
        <ele>1051</ele>
        <time>2022-07-26T12:26:43Z</time>
      </trkpt>
      <trkpt lat="44.09314" lon="7.05702">
        <ele>1051</ele>
        <time>2022-07-26T12:26:44Z</time>
      </trkpt>
      <trkpt lat="44.09314" lon="7.05701">
        <ele>1051</ele>
        <time>2022-07-26T12:26:45Z</time>
      </trkpt>
      <trkpt lat="44.09315" lon="7.05701">
        <ele>1051</ele>
        <time>2022-07-26T12:26:46Z</time>
      </trkpt>
      <trkpt lat="44.09316" lon="7.057">
        <ele>1051</ele>
        <time>2022-07-26T12:26:47Z</time>
      </trkpt>
      <trkpt lat="44.09317" lon="7.057">
        <ele>1050</ele>
        <time>2022-07-26T12:26:48Z</time>
      </trkpt>
      <trkpt lat="44.09318" lon="7.05699">
        <ele>1050</ele>
        <time>2022-07-26T12:26:49Z</time>
      </trkpt>
      <trkpt lat="44.09319" lon="7.05699">
        <ele>1050</ele>
        <time>2022-07-26T12:26:50Z</time>
      </trkpt>
      <trkpt lat="44.0932" lon="7.05699">
        <ele>1050</ele>
        <time>2022-07-26T12:26:51Z</time>
      </trkpt>
      <trkpt lat="44.09322" lon="7.05698">
        <ele>1050</ele>
        <time>2022-07-26T12:26:52Z</time>
      </trkpt>
      <trkpt lat="44.09323" lon="7.05698">
        <ele>1050</ele>
        <time>2022-07-26T12:26:53Z</time>
      </trkpt>
      <trkpt lat="44.09324" lon="7.05697">
        <ele>1050</ele>
        <time>2022-07-26T12:26:54Z</time>
      </trkpt>
      <trkpt lat="44.09325" lon="7.05696">
        <ele>1050</ele>
        <time>2022-07-26T12:26:55Z</time>
      </trkpt>
      <trkpt lat="44.09326" lon="7.05695">
        <ele>1050</ele>
        <time>2022-07-26T12:26:56Z</time>
      </trkpt>
      <trkpt lat="44.09327" lon="7.05694">
        <ele>1050</ele>
        <time>2022-07-26T12:26:57Z</time>
      </trkpt>
      <trkpt lat="44.09328" lon="7.05693">
        <ele>1049</ele>
        <time>2022-07-26T12:26:58Z</time>
      </trkpt>
      <trkpt lat="44.09329" lon="7.05692">
        <ele>1049</ele>
        <time>2022-07-26T12:26:59Z</time>
      </trkpt>
      <trkpt lat="44.0933" lon="7.05691">
        <ele>1049</ele>
        <time>2022-07-26T12:27:00Z</time>
      </trkpt>
      <trkpt lat="44.0933" lon="7.0569">
        <ele>1049</ele>
        <time>2022-07-26T12:27:01Z</time>
      </trkpt>
      <trkpt lat="44.09331" lon="7.05689">
        <ele>1049</ele>
        <time>2022-07-26T12:27:02Z</time>
      </trkpt>
      <trkpt lat="44.09332" lon="7.05688">
        <ele>1049</ele>
        <time>2022-07-26T12:27:03Z</time>
      </trkpt>
      <trkpt lat="44.09333" lon="7.05687">
        <ele>1049</ele>
        <time>2022-07-26T12:27:04Z</time>
      </trkpt>
      <trkpt lat="44.09334" lon="7.05686">
        <ele>1049</ele>
        <time>2022-07-26T12:27:05Z</time>
      </trkpt>
      <trkpt lat="44.09335" lon="7.05685">
        <ele>1049</ele>
        <time>2022-07-26T12:27:06Z</time>
      </trkpt>
      <trkpt lat="44.09335" lon="7.05684">
        <ele>1049</ele>
        <time>2022-07-26T12:27:07Z</time>
      </trkpt>
      <trkpt lat="44.09336" lon="7.05683">
        <ele>1048</ele>
        <time>2022-07-26T12:27:08Z</time>
      </trkpt>
      <trkpt lat="44.09337" lon="7.05681">
        <ele>1048</ele>
        <time>2022-07-26T12:27:09Z</time>
      </trkpt>
      <trkpt lat="44.09338" lon="7.0568">
        <ele>1048</ele>
        <time>2022-07-26T12:27:10Z</time>
      </trkpt>
      <trkpt lat="44.09339" lon="7.05679">
        <ele>1048</ele>
        <time>2022-07-26T12:27:11Z</time>
      </trkpt>
      <trkpt lat="44.09341" lon="7.05678">
        <ele>1048</ele>
        <time>2022-07-26T12:27:12Z</time>
      </trkpt>
      <trkpt lat="44.09342" lon="7.05677">
        <ele>1047</ele>
        <time>2022-07-26T12:27:13Z</time>
      </trkpt>
      <trkpt lat="44.09343" lon="7.05677">
        <ele>1047</ele>
        <time>2022-07-26T12:27:14Z</time>
      </trkpt>
      <trkpt lat="44.09344" lon="7.05676">
        <ele>1047</ele>
        <time>2022-07-26T12:27:15Z</time>
      </trkpt>
      <trkpt lat="44.09345" lon="7.05676">
        <ele>1047</ele>
        <time>2022-07-26T12:27:16Z</time>
      </trkpt>
      <trkpt lat="44.09346" lon="7.05675">
        <ele>1047</ele>
        <time>2022-07-26T12:27:17Z</time>
      </trkpt>
      <trkpt lat="44.09348" lon="7.05675">
        <ele>1047</ele>
        <time>2022-07-26T12:27:18Z</time>
      </trkpt>
      <trkpt lat="44.09349" lon="7.05674">
        <ele>1047</ele>
        <time>2022-07-26T12:27:19Z</time>
      </trkpt>
      <trkpt lat="44.0935" lon="7.05673">
        <ele>1047</ele>
        <time>2022-07-26T12:27:20Z</time>
      </trkpt>
      <trkpt lat="44.09351" lon="7.05673">
        <ele>1047</ele>
        <time>2022-07-26T12:27:21Z</time>
      </trkpt>
      <trkpt lat="44.09353" lon="7.05672">
        <ele>1047</ele>
        <time>2022-07-26T12:27:22Z</time>
      </trkpt>
      <trkpt lat="44.09354" lon="7.05672">
        <ele>1046</ele>
        <time>2022-07-26T12:27:23Z</time>
      </trkpt>
      <trkpt lat="44.09355" lon="7.05671">
        <ele>1046</ele>
        <time>2022-07-26T12:27:24Z</time>
      </trkpt>
      <trkpt lat="44.09356" lon="7.0567">
        <ele>1046</ele>
        <time>2022-07-26T12:27:25Z</time>
      </trkpt>
      <trkpt lat="44.09357" lon="7.0567">
        <ele>1046</ele>
        <time>2022-07-26T12:27:26Z</time>
      </trkpt>
      <trkpt lat="44.09358" lon="7.05669">
        <ele>1046</ele>
        <time>2022-07-26T12:27:27Z</time>
      </trkpt>
      <trkpt lat="44.0936" lon="7.05669">
        <ele>1045</ele>
        <time>2022-07-26T12:27:28Z</time>
      </trkpt>
      <trkpt lat="44.0936" lon="7.05668">
        <ele>1045</ele>
        <time>2022-07-26T12:27:29Z</time>
      </trkpt>
      <trkpt lat="44.09361" lon="7.05668">
        <ele>1045</ele>
        <time>2022-07-26T12:27:30Z</time>
      </trkpt>
      <trkpt lat="44.09362" lon="7.05668">
        <ele>1045</ele>
        <time>2022-07-26T12:27:31Z</time>
      </trkpt>
      <trkpt lat="44.09363" lon="7.05668">
        <ele>1045</ele>
        <time>2022-07-26T12:27:32Z</time>
      </trkpt>
      <trkpt lat="44.09365" lon="7.05667">
        <ele>1044</ele>
        <time>2022-07-26T12:27:33Z</time>
      </trkpt>
      <trkpt lat="44.09366" lon="7.05667">
        <ele>1044</ele>
        <time>2022-07-26T12:27:34Z</time>
      </trkpt>
      <trkpt lat="44.09367" lon="7.05666">
        <ele>1044</ele>
        <time>2022-07-26T12:27:35Z</time>
      </trkpt>
      <trkpt lat="44.09368" lon="7.05665">
        <ele>1044</ele>
        <time>2022-07-26T12:27:36Z</time>
      </trkpt>
      <trkpt lat="44.09368" lon="7.05665">
        <ele>1044</ele>
        <time>2022-07-26T12:27:37Z</time>
      </trkpt>
      <trkpt lat="44.09369" lon="7.05664">
        <ele>1044</ele>
        <time>2022-07-26T12:27:38Z</time>
      </trkpt>
      <trkpt lat="44.0937" lon="7.05663">
        <ele>1044</ele>
        <time>2022-07-26T12:27:39Z</time>
      </trkpt>
      <trkpt lat="44.09371" lon="7.05663">
        <ele>1044</ele>
        <time>2022-07-26T12:27:40Z</time>
      </trkpt>
      <trkpt lat="44.09372" lon="7.05662">
        <ele>1044</ele>
        <time>2022-07-26T12:27:41Z</time>
      </trkpt>
      <trkpt lat="44.09373" lon="7.05661">
        <ele>1044</ele>
        <time>2022-07-26T12:27:42Z</time>
      </trkpt>
      <trkpt lat="44.09374" lon="7.0566">
        <ele>1044</ele>
        <time>2022-07-26T12:27:43Z</time>
      </trkpt>
      <trkpt lat="44.09375" lon="7.0566">
        <ele>1044</ele>
        <time>2022-07-26T12:27:44Z</time>
      </trkpt>
      <trkpt lat="44.09376" lon="7.05659">
        <ele>1044</ele>
        <time>2022-07-26T12:27:45Z</time>
      </trkpt>
      <trkpt lat="44.09377" lon="7.05659">
        <ele>1044</ele>
        <time>2022-07-26T12:27:46Z</time>
      </trkpt>
      <trkpt lat="44.09379" lon="7.0566">
        <ele>1040</ele>
        <time>2022-07-26T12:28:24Z</time>
      </trkpt>
      <trkpt lat="44.0938" lon="7.0566">
        <ele>1040</ele>
        <time>2022-07-26T12:28:25Z</time>
      </trkpt>
      <trkpt lat="44.0938" lon="7.0566">
        <ele>1040</ele>
        <time>2022-07-26T12:28:26Z</time>
      </trkpt>
      <trkpt lat="44.09382" lon="7.05659">
        <ele>1039</ele>
        <time>2022-07-26T12:28:36Z</time>
      </trkpt>
      <trkpt lat="44.09382" lon="7.05658">
        <ele>1039</ele>
        <time>2022-07-26T12:28:37Z</time>
      </trkpt>
      <trkpt lat="44.09382" lon="7.05657">
        <ele>1039</ele>
        <time>2022-07-26T12:28:38Z</time>
      </trkpt>
      <trkpt lat="44.09382" lon="7.05656">
        <ele>1039</ele>
        <time>2022-07-26T12:28:39Z</time>
      </trkpt>
      <trkpt lat="44.09382" lon="7.05656">
        <ele>1039</ele>
        <time>2022-07-26T12:28:40Z</time>
      </trkpt>
      <trkpt lat="44.09382" lon="7.05655">
        <ele>1039</ele>
        <time>2022-07-26T12:28:41Z</time>
      </trkpt>
      <trkpt lat="44.09382" lon="7.05654">
        <ele>1039</ele>
        <time>2022-07-26T12:28:42Z</time>
      </trkpt>
      <trkpt lat="44.09384" lon="7.05655">
        <ele>1038</ele>
        <time>2022-07-26T12:29:16Z</time>
      </trkpt>
      <trkpt lat="44.09384" lon="7.05656">
        <ele>1038</ele>
        <time>2022-07-26T12:29:17Z</time>
      </trkpt>
      <trkpt lat="44.09385" lon="7.05656">
        <ele>1037</ele>
        <time>2022-07-26T12:29:18Z</time>
      </trkpt>
      <trkpt lat="44.09384" lon="7.05656">
        <ele>1037</ele>
        <time>2022-07-26T12:29:19Z</time>
      </trkpt>
      <trkpt lat="44.09384" lon="7.05657">
        <ele>1037</ele>
        <time>2022-07-26T12:29:20Z</time>
      </trkpt>
      <trkpt lat="44.09384" lon="7.05657">
        <ele>1037</ele>
        <time>2022-07-26T12:29:21Z</time>
      </trkpt>
      <trkpt lat="44.09383" lon="7.05657">
        <ele>1037</ele>
        <time>2022-07-26T12:29:22Z</time>
      </trkpt>
      <trkpt lat="44.09382" lon="7.05657">
        <ele>1036</ele>
        <time>2022-07-26T12:29:23Z</time>
      </trkpt>
      <trkpt lat="44.09381" lon="7.05658">
        <ele>1036</ele>
        <time>2022-07-26T12:29:24Z</time>
      </trkpt>
      <trkpt lat="44.09381" lon="7.05658">
        <ele>1036</ele>
        <time>2022-07-26T12:29:25Z</time>
      </trkpt>
      <trkpt lat="44.0938" lon="7.05658">
        <ele>1036</ele>
        <time>2022-07-26T12:29:26Z</time>
      </trkpt>
      <trkpt lat="44.0938" lon="7.05658">
        <ele>1036</ele>
        <time>2022-07-26T12:29:27Z</time>
      </trkpt>
      <trkpt lat="44.0938" lon="7.05659">
        <ele>1035</ele>
        <time>2022-07-26T12:29:28Z</time>
      </trkpt>
      <trkpt lat="44.09379" lon="7.05659">
        <ele>1035</ele>
        <time>2022-07-26T12:29:29Z</time>
      </trkpt>
      <trkpt lat="44.09378" lon="7.0566">
        <ele>1035</ele>
        <time>2022-07-26T12:29:30Z</time>
      </trkpt>
      <trkpt lat="44.09377" lon="7.05661">
        <ele>1035</ele>
        <time>2022-07-26T12:29:31Z</time>
      </trkpt>
      <trkpt lat="44.09376" lon="7.05662">
        <ele>1035</ele>
        <time>2022-07-26T12:29:32Z</time>
      </trkpt>
      <trkpt lat="44.09376" lon="7.05663">
        <ele>1035</ele>
        <time>2022-07-26T12:29:33Z</time>
      </trkpt>
      <trkpt lat="44.09375" lon="7.05664">
        <ele>1035</ele>
        <time>2022-07-26T12:29:34Z</time>
      </trkpt>
      <trkpt lat="44.09373" lon="7.05666">
        <ele>1034</ele>
        <time>2022-07-26T12:29:42Z</time>
      </trkpt>
      <trkpt lat="44.09373" lon="7.05667">
        <ele>1033</ele>
        <time>2022-07-26T12:29:43Z</time>
      </trkpt>
      <trkpt lat="44.09372" lon="7.05668">
        <ele>1033</ele>
        <time>2022-07-26T12:29:44Z</time>
      </trkpt>
      <trkpt lat="44.09371" lon="7.05668">
        <ele>1033</ele>
        <time>2022-07-26T12:29:45Z</time>
      </trkpt>
      <trkpt lat="44.09371" lon="7.05668">
        <ele>1033</ele>
        <time>2022-07-26T12:29:46Z</time>
      </trkpt>
      <trkpt lat="44.0937" lon="7.05668">
        <ele>1033</ele>
        <time>2022-07-26T12:29:47Z</time>
      </trkpt>
      <trkpt lat="44.0937" lon="7.05668">
        <ele>1033</ele>
        <time>2022-07-26T12:29:48Z</time>
      </trkpt>
      <trkpt lat="44.09368" lon="7.05669">
        <ele>1031</ele>
        <time>2022-07-26T12:30:06Z</time>
      </trkpt>
      <trkpt lat="44.09367" lon="7.05669">
        <ele>1031</ele>
        <time>2022-07-26T12:30:07Z</time>
      </trkpt>
      <trkpt lat="44.09366" lon="7.05669">
        <ele>1031</ele>
        <time>2022-07-26T12:30:08Z</time>
      </trkpt>
      <trkpt lat="44.09365" lon="7.0567">
        <ele>1031</ele>
        <time>2022-07-26T12:30:09Z</time>
      </trkpt>
      <trkpt lat="44.09365" lon="7.0567">
        <ele>1031</ele>
        <time>2022-07-26T12:30:10Z</time>
      </trkpt>
      <trkpt lat="44.09364" lon="7.05671">
        <ele>1031</ele>
        <time>2022-07-26T12:30:11Z</time>
      </trkpt>
      <trkpt lat="44.09363" lon="7.05671">
        <ele>1031</ele>
        <time>2022-07-26T12:30:12Z</time>
      </trkpt>
      <trkpt lat="44.09363" lon="7.05672">
        <ele>1030</ele>
        <time>2022-07-26T12:30:13Z</time>
      </trkpt>
      <trkpt lat="44.09362" lon="7.05674">
        <ele>1030</ele>
        <time>2022-07-26T12:30:14Z</time>
      </trkpt>
      <trkpt lat="44.09361" lon="7.05675">
        <ele>1030</ele>
        <time>2022-07-26T12:30:15Z</time>
      </trkpt>
      <trkpt lat="44.09361" lon="7.05676">
        <ele>1030</ele>
        <time>2022-07-26T12:30:16Z</time>
      </trkpt>
      <trkpt lat="44.0936" lon="7.05677">
        <ele>1030</ele>
        <time>2022-07-26T12:30:17Z</time>
      </trkpt>
      <trkpt lat="44.0936" lon="7.05678">
        <ele>1030</ele>
        <time>2022-07-26T12:30:18Z</time>
      </trkpt>
      <trkpt lat="44.0936" lon="7.05678">
        <ele>1030</ele>
        <time>2022-07-26T12:30:19Z</time>
      </trkpt>
      <trkpt lat="44.0936" lon="7.05679">
        <ele>1030</ele>
        <time>2022-07-26T12:30:20Z</time>
      </trkpt>
      <trkpt lat="44.09361" lon="7.05679">
        <ele>1030</ele>
        <time>2022-07-26T12:30:21Z</time>
      </trkpt>
      <trkpt lat="44.09362" lon="7.05678">
        <ele>1030</ele>
        <time>2022-07-26T12:30:22Z</time>
      </trkpt>
      <trkpt lat="44.09364" lon="7.05678">
        <ele>1029</ele>
        <time>2022-07-26T12:30:23Z</time>
      </trkpt>
      <trkpt lat="44.09365" lon="7.05677">
        <ele>1029</ele>
        <time>2022-07-26T12:30:24Z</time>
      </trkpt>
      <trkpt lat="44.09367" lon="7.05676">
        <ele>1029</ele>
        <time>2022-07-26T12:30:25Z</time>
      </trkpt>
      <trkpt lat="44.09368" lon="7.05675">
        <ele>1029</ele>
        <time>2022-07-26T12:30:26Z</time>
      </trkpt>
      <trkpt lat="44.09369" lon="7.05674">
        <ele>1029</ele>
        <time>2022-07-26T12:30:27Z</time>
      </trkpt>
      <trkpt lat="44.0937" lon="7.05673">
        <ele>1028</ele>
        <time>2022-07-26T12:30:28Z</time>
      </trkpt>
      <trkpt lat="44.09372" lon="7.05673">
        <ele>1028</ele>
        <time>2022-07-26T12:30:29Z</time>
      </trkpt>
      <trkpt lat="44.09373" lon="7.05672">
        <ele>1028</ele>
        <time>2022-07-26T12:30:30Z</time>
      </trkpt>
      <trkpt lat="44.09374" lon="7.05671">
        <ele>1028</ele>
        <time>2022-07-26T12:30:31Z</time>
      </trkpt>
      <trkpt lat="44.09375" lon="7.0567">
        <ele>1028</ele>
        <time>2022-07-26T12:30:32Z</time>
      </trkpt>
      <trkpt lat="44.09376" lon="7.05669">
        <ele>1028</ele>
        <time>2022-07-26T12:30:33Z</time>
      </trkpt>
      <trkpt lat="44.09377" lon="7.05668">
        <ele>1028</ele>
        <time>2022-07-26T12:30:34Z</time>
      </trkpt>
      <trkpt lat="44.09378" lon="7.05667">
        <ele>1028</ele>
        <time>2022-07-26T12:30:35Z</time>
      </trkpt>
      <trkpt lat="44.09379" lon="7.05666">
        <ele>1028</ele>
        <time>2022-07-26T12:30:36Z</time>
      </trkpt>
      <trkpt lat="44.0938" lon="7.05665">
        <ele>1028</ele>
        <time>2022-07-26T12:30:37Z</time>
      </trkpt>
      <trkpt lat="44.09381" lon="7.05664">
        <ele>1027</ele>
        <time>2022-07-26T12:30:38Z</time>
      </trkpt>
      <trkpt lat="44.09382" lon="7.05663">
        <ele>1027</ele>
        <time>2022-07-26T12:30:39Z</time>
      </trkpt>
      <trkpt lat="44.09383" lon="7.05662">
        <ele>1027</ele>
        <time>2022-07-26T12:30:40Z</time>
      </trkpt>
      <trkpt lat="44.09384" lon="7.05661">
        <ele>1027</ele>
        <time>2022-07-26T12:30:41Z</time>
      </trkpt>
      <trkpt lat="44.09386" lon="7.0566">
        <ele>1027</ele>
        <time>2022-07-26T12:30:42Z</time>
      </trkpt>
      <trkpt lat="44.09387" lon="7.05659">
        <ele>1027</ele>
        <time>2022-07-26T12:30:43Z</time>
      </trkpt>
      <trkpt lat="44.09388" lon="7.05659">
        <ele>1027</ele>
        <time>2022-07-26T12:30:44Z</time>
      </trkpt>
      <trkpt lat="44.09389" lon="7.05658">
        <ele>1027</ele>
        <time>2022-07-26T12:30:45Z</time>
      </trkpt>
      <trkpt lat="44.0939" lon="7.05657">
        <ele>1027</ele>
        <time>2022-07-26T12:30:46Z</time>
      </trkpt>
      <trkpt lat="44.09391" lon="7.05656">
        <ele>1027</ele>
        <time>2022-07-26T12:30:47Z</time>
      </trkpt>
      <trkpt lat="44.09392" lon="7.05655">
        <ele>1026</ele>
        <time>2022-07-26T12:30:48Z</time>
      </trkpt>
      <trkpt lat="44.09393" lon="7.05654">
        <ele>1026</ele>
        <time>2022-07-26T12:30:49Z</time>
      </trkpt>
      <trkpt lat="44.09394" lon="7.05653">
        <ele>1026</ele>
        <time>2022-07-26T12:30:50Z</time>
      </trkpt>
      <trkpt lat="44.09395" lon="7.05652">
        <ele>1026</ele>
        <time>2022-07-26T12:30:51Z</time>
      </trkpt>
      <trkpt lat="44.09395" lon="7.05651">
        <ele>1026</ele>
        <time>2022-07-26T12:30:52Z</time>
      </trkpt>
      <trkpt lat="44.09396" lon="7.0565">
        <ele>1026</ele>
        <time>2022-07-26T12:30:53Z</time>
      </trkpt>
      <trkpt lat="44.09397" lon="7.05649">
        <ele>1026</ele>
        <time>2022-07-26T12:30:54Z</time>
      </trkpt>
      <trkpt lat="44.09398" lon="7.05648">
        <ele>1026</ele>
        <time>2022-07-26T12:30:55Z</time>
      </trkpt>
      <trkpt lat="44.09398" lon="7.05647">
        <ele>1026</ele>
        <time>2022-07-26T12:30:56Z</time>
      </trkpt>
      <trkpt lat="44.09399" lon="7.05646">
        <ele>1026</ele>
        <time>2022-07-26T12:30:57Z</time>
      </trkpt>
      <trkpt lat="44.094" lon="7.05645">
        <ele>1025</ele>
        <time>2022-07-26T12:30:58Z</time>
      </trkpt>
      <trkpt lat="44.09401" lon="7.05644">
        <ele>1025</ele>
        <time>2022-07-26T12:30:59Z</time>
      </trkpt>
      <trkpt lat="44.09402" lon="7.05643">
        <ele>1024</ele>
        <time>2022-07-26T12:31:00Z</time>
      </trkpt>
      <trkpt lat="44.09404" lon="7.05643">
        <ele>1022</ele>
        <time>2022-07-26T12:31:23Z</time>
      </trkpt>
      <trkpt lat="44.09405" lon="7.05642">
        <ele>1022</ele>
        <time>2022-07-26T12:31:24Z</time>
      </trkpt>
      <trkpt lat="44.09406" lon="7.05642">
        <ele>1022</ele>
        <time>2022-07-26T12:31:25Z</time>
      </trkpt>
      <trkpt lat="44.09407" lon="7.05641">
        <ele>1022</ele>
        <time>2022-07-26T12:31:26Z</time>
      </trkpt>
      <trkpt lat="44.09408" lon="7.0564">
        <ele>1022</ele>
        <time>2022-07-26T12:31:27Z</time>
      </trkpt>
      <trkpt lat="44.0941" lon="7.05638">
        <ele>1022</ele>
        <time>2022-07-26T12:31:28Z</time>
      </trkpt>
      <trkpt lat="44.09412" lon="7.05636">
        <ele>1022</ele>
        <time>2022-07-26T12:31:29Z</time>
      </trkpt>
      <trkpt lat="44.09415" lon="7.05634">
        <ele>1022</ele>
        <time>2022-07-26T12:31:30Z</time>
      </trkpt>
      <trkpt lat="44.09417" lon="7.05632">
        <ele>1022</ele>
        <time>2022-07-26T12:31:31Z</time>
      </trkpt>
      <trkpt lat="44.0942" lon="7.05629">
        <ele>1022</ele>
        <time>2022-07-26T12:31:32Z</time>
      </trkpt>
      <trkpt lat="44.09422" lon="7.05627">
        <ele>1022</ele>
        <time>2022-07-26T12:31:33Z</time>
      </trkpt>
      <trkpt lat="44.09425" lon="7.05624">
        <ele>1022</ele>
        <time>2022-07-26T12:31:34Z</time>
      </trkpt>
      <trkpt lat="44.09428" lon="7.05622">
        <ele>1022</ele>
        <time>2022-07-26T12:31:35Z</time>
      </trkpt>
      <trkpt lat="44.09431" lon="7.05619">
        <ele>1022</ele>
        <time>2022-07-26T12:31:36Z</time>
      </trkpt>
      <trkpt lat="44.09434" lon="7.05617">
        <ele>1022</ele>
        <time>2022-07-26T12:31:37Z</time>
      </trkpt>
      <trkpt lat="44.09436" lon="7.05614">
        <ele>1021</ele>
        <time>2022-07-26T12:31:38Z</time>
      </trkpt>
      <trkpt lat="44.09438" lon="7.05612">
        <ele>1021</ele>
        <time>2022-07-26T12:31:39Z</time>
      </trkpt>
      <trkpt lat="44.0944" lon="7.0561">
        <ele>1021</ele>
        <time>2022-07-26T12:31:40Z</time>
      </trkpt>
      <trkpt lat="44.09442" lon="7.05608">
        <ele>1021</ele>
        <time>2022-07-26T12:31:41Z</time>
      </trkpt>
      <trkpt lat="44.09444" lon="7.05607">
        <ele>1021</ele>
        <time>2022-07-26T12:31:42Z</time>
      </trkpt>
      <trkpt lat="44.09445" lon="7.05606">
        <ele>1020</ele>
        <time>2022-07-26T12:31:43Z</time>
      </trkpt>
      <trkpt lat="44.09446" lon="7.05605">
        <ele>1020</ele>
        <time>2022-07-26T12:31:44Z</time>
      </trkpt>
      <trkpt lat="44.09447" lon="7.05604">
        <ele>1020</ele>
        <time>2022-07-26T12:31:45Z</time>
      </trkpt>
      <trkpt lat="44.09448" lon="7.05603">
        <ele>1020</ele>
        <time>2022-07-26T12:31:46Z</time>
      </trkpt>
      <trkpt lat="44.0945" lon="7.05602">
        <ele>1020</ele>
        <time>2022-07-26T12:31:47Z</time>
      </trkpt>
      <trkpt lat="44.09451" lon="7.05601">
        <ele>1020</ele>
        <time>2022-07-26T12:31:48Z</time>
      </trkpt>
      <trkpt lat="44.09452" lon="7.05601">
        <ele>1020</ele>
        <time>2022-07-26T12:31:49Z</time>
      </trkpt>
      <trkpt lat="44.09453" lon="7.05601">
        <ele>1020</ele>
        <time>2022-07-26T12:31:50Z</time>
      </trkpt>
      <trkpt lat="44.09454" lon="7.05601">
        <ele>1020</ele>
        <time>2022-07-26T12:31:51Z</time>
      </trkpt>
      <trkpt lat="44.09456" lon="7.056">
        <ele>1020</ele>
        <time>2022-07-26T12:31:52Z</time>
      </trkpt>
      <trkpt lat="44.09457" lon="7.056">
        <ele>1019</ele>
        <time>2022-07-26T12:31:53Z</time>
      </trkpt>
      <trkpt lat="44.09458" lon="7.05599">
        <ele>1019</ele>
        <time>2022-07-26T12:31:54Z</time>
      </trkpt>
      <trkpt lat="44.0946" lon="7.05599">
        <ele>1019</ele>
        <time>2022-07-26T12:31:55Z</time>
      </trkpt>
      <trkpt lat="44.09461" lon="7.05598">
        <ele>1019</ele>
        <time>2022-07-26T12:31:56Z</time>
      </trkpt>
      <trkpt lat="44.09461" lon="7.05597">
        <ele>1019</ele>
        <time>2022-07-26T12:31:57Z</time>
      </trkpt>
      <trkpt lat="44.09462" lon="7.05596">
        <ele>1019</ele>
        <time>2022-07-26T12:31:58Z</time>
      </trkpt>
      <trkpt lat="44.09463" lon="7.05595">
        <ele>1019</ele>
        <time>2022-07-26T12:31:59Z</time>
      </trkpt>
      <trkpt lat="44.09463" lon="7.05594">
        <ele>1019</ele>
        <time>2022-07-26T12:32:00Z</time>
      </trkpt>
      <trkpt lat="44.09464" lon="7.05593">
        <ele>1019</ele>
        <time>2022-07-26T12:32:01Z</time>
      </trkpt>
      <trkpt lat="44.09465" lon="7.05593">
        <ele>1019</ele>
        <time>2022-07-26T12:32:02Z</time>
      </trkpt>
      <trkpt lat="44.09466" lon="7.05592">
        <ele>1018</ele>
        <time>2022-07-26T12:32:03Z</time>
      </trkpt>
      <trkpt lat="44.09467" lon="7.05591">
        <ele>1018</ele>
        <time>2022-07-26T12:32:04Z</time>
      </trkpt>
      <trkpt lat="44.09468" lon="7.0559">
        <ele>1018</ele>
        <time>2022-07-26T12:32:05Z</time>
      </trkpt>
      <trkpt lat="44.09469" lon="7.05589">
        <ele>1018</ele>
        <time>2022-07-26T12:32:06Z</time>
      </trkpt>
      <trkpt lat="44.09471" lon="7.05589">
        <ele>1018</ele>
        <time>2022-07-26T12:32:07Z</time>
      </trkpt>
      <trkpt lat="44.09472" lon="7.05588">
        <ele>1018</ele>
        <time>2022-07-26T12:32:08Z</time>
      </trkpt>
      <trkpt lat="44.09474" lon="7.05587">
        <ele>1018</ele>
        <time>2022-07-26T12:32:09Z</time>
      </trkpt>
      <trkpt lat="44.09475" lon="7.05586">
        <ele>1018</ele>
        <time>2022-07-26T12:32:10Z</time>
      </trkpt>
      <trkpt lat="44.09476" lon="7.05585">
        <ele>1018</ele>
        <time>2022-07-26T12:32:11Z</time>
      </trkpt>
      <trkpt lat="44.09478" lon="7.05584">
        <ele>1018</ele>
        <time>2022-07-26T12:32:12Z</time>
      </trkpt>
      <trkpt lat="44.09479" lon="7.05583">
        <ele>1017</ele>
        <time>2022-07-26T12:32:13Z</time>
      </trkpt>
      <trkpt lat="44.0948" lon="7.05581">
        <ele>1017</ele>
        <time>2022-07-26T12:32:14Z</time>
      </trkpt>
      <trkpt lat="44.09482" lon="7.0558">
        <ele>1017</ele>
        <time>2022-07-26T12:32:15Z</time>
      </trkpt>
      <trkpt lat="44.09482" lon="7.05579">
        <ele>1017</ele>
        <time>2022-07-26T12:32:16Z</time>
      </trkpt>
      <trkpt lat="44.09483" lon="7.05578">
        <ele>1017</ele>
        <time>2022-07-26T12:32:17Z</time>
      </trkpt>
      <trkpt lat="44.09483" lon="7.05577">
        <ele>1017</ele>
        <time>2022-07-26T12:32:18Z</time>
      </trkpt>
      <trkpt lat="44.09484" lon="7.05576">
        <ele>1017</ele>
        <time>2022-07-26T12:32:19Z</time>
      </trkpt>
      <trkpt lat="44.09484" lon="7.05575">
        <ele>1017</ele>
        <time>2022-07-26T12:32:20Z</time>
      </trkpt>
      <trkpt lat="44.09485" lon="7.05574">
        <ele>1017</ele>
        <time>2022-07-26T12:32:21Z</time>
      </trkpt>
      <trkpt lat="44.09485" lon="7.05573">
        <ele>1017</ele>
        <time>2022-07-26T12:32:22Z</time>
      </trkpt>
      <trkpt lat="44.09486" lon="7.05572">
        <ele>1016</ele>
        <time>2022-07-26T12:32:23Z</time>
      </trkpt>
      <trkpt lat="44.09487" lon="7.05572">
        <ele>1016</ele>
        <time>2022-07-26T12:32:24Z</time>
      </trkpt>
      <trkpt lat="44.09488" lon="7.05571">
        <ele>1016</ele>
        <time>2022-07-26T12:32:25Z</time>
      </trkpt>
      <trkpt lat="44.09489" lon="7.05571">
        <ele>1016</ele>
        <time>2022-07-26T12:32:26Z</time>
      </trkpt>
      <trkpt lat="44.0949" lon="7.0557">
        <ele>1016</ele>
        <time>2022-07-26T12:32:27Z</time>
      </trkpt>
      <trkpt lat="44.09491" lon="7.05569">
        <ele>1016</ele>
        <time>2022-07-26T12:32:28Z</time>
      </trkpt>
      <trkpt lat="44.09492" lon="7.05569">
        <ele>1016</ele>
        <time>2022-07-26T12:32:29Z</time>
      </trkpt>
      <trkpt lat="44.09493" lon="7.05569">
        <ele>1016</ele>
        <time>2022-07-26T12:32:30Z</time>
      </trkpt>
      <trkpt lat="44.09494" lon="7.05569">
        <ele>1016</ele>
        <time>2022-07-26T12:32:31Z</time>
      </trkpt>
      <trkpt lat="44.09494" lon="7.05569">
        <ele>1016</ele>
        <time>2022-07-26T12:32:32Z</time>
      </trkpt>
      <trkpt lat="44.09495" lon="7.05569">
        <ele>1015</ele>
        <time>2022-07-26T12:32:33Z</time>
      </trkpt>
      <trkpt lat="44.09496" lon="7.0557">
        <ele>1015</ele>
        <time>2022-07-26T12:32:34Z</time>
      </trkpt>
      <trkpt lat="44.09497" lon="7.0557">
        <ele>1015</ele>
        <time>2022-07-26T12:32:35Z</time>
      </trkpt>
      <trkpt lat="44.09498" lon="7.05571">
        <ele>1015</ele>
        <time>2022-07-26T12:32:36Z</time>
      </trkpt>
      <trkpt lat="44.09499" lon="7.05571">
        <ele>1015</ele>
        <time>2022-07-26T12:32:37Z</time>
      </trkpt>
      <trkpt lat="44.095" lon="7.05572">
        <ele>1015</ele>
        <time>2022-07-26T12:32:38Z</time>
      </trkpt>
      <trkpt lat="44.09501" lon="7.05572">
        <ele>1015</ele>
        <time>2022-07-26T12:32:39Z</time>
      </trkpt>
      <trkpt lat="44.09502" lon="7.05572">
        <ele>1015</ele>
        <time>2022-07-26T12:32:40Z</time>
      </trkpt>
      <trkpt lat="44.09504" lon="7.05572">
        <ele>1015</ele>
        <time>2022-07-26T12:32:41Z</time>
      </trkpt>
      <trkpt lat="44.09505" lon="7.05572">
        <ele>1015</ele>
        <time>2022-07-26T12:32:42Z</time>
      </trkpt>
      <trkpt lat="44.09506" lon="7.05572">
        <ele>1015</ele>
        <time>2022-07-26T12:32:43Z</time>
      </trkpt>
      <trkpt lat="44.09507" lon="7.05572">
        <ele>1015</ele>
        <time>2022-07-26T12:32:44Z</time>
      </trkpt>
      <trkpt lat="44.09507" lon="7.05571">
        <ele>1015</ele>
        <time>2022-07-26T12:32:45Z</time>
      </trkpt>
      <trkpt lat="44.09508" lon="7.0557">
        <ele>1015</ele>
        <time>2022-07-26T12:32:46Z</time>
      </trkpt>
      <trkpt lat="44.09509" lon="7.0557">
        <ele>1015</ele>
        <time>2022-07-26T12:32:47Z</time>
      </trkpt>
      <trkpt lat="44.0951" lon="7.05569">
        <ele>1014</ele>
        <time>2022-07-26T12:32:48Z</time>
      </trkpt>
      <trkpt lat="44.09511" lon="7.05568">
        <ele>1014</ele>
        <time>2022-07-26T12:32:49Z</time>
      </trkpt>
      <trkpt lat="44.09512" lon="7.05567">
        <ele>1014</ele>
        <time>2022-07-26T12:32:50Z</time>
      </trkpt>
      <trkpt lat="44.09513" lon="7.05566">
        <ele>1014</ele>
        <time>2022-07-26T12:32:51Z</time>
      </trkpt>
      <trkpt lat="44.09514" lon="7.05566">
        <ele>1014</ele>
        <time>2022-07-26T12:32:52Z</time>
      </trkpt>
      <trkpt lat="44.09515" lon="7.05566">
        <ele>1014</ele>
        <time>2022-07-26T12:32:53Z</time>
      </trkpt>
      <trkpt lat="44.09516" lon="7.05565">
        <ele>1014</ele>
        <time>2022-07-26T12:32:54Z</time>
      </trkpt>
      <trkpt lat="44.09517" lon="7.05565">
        <ele>1014</ele>
        <time>2022-07-26T12:32:55Z</time>
      </trkpt>
      <trkpt lat="44.09518" lon="7.05564">
        <ele>1014</ele>
        <time>2022-07-26T12:32:56Z</time>
      </trkpt>
      <trkpt lat="44.09519" lon="7.05564">
        <ele>1014</ele>
        <time>2022-07-26T12:32:57Z</time>
      </trkpt>
      <trkpt lat="44.0952" lon="7.05563">
        <ele>1013</ele>
        <time>2022-07-26T12:32:58Z</time>
      </trkpt>
      <trkpt lat="44.09521" lon="7.05562">
        <ele>1013</ele>
        <time>2022-07-26T12:32:59Z</time>
      </trkpt>
      <trkpt lat="44.09523" lon="7.05562">
        <ele>1013</ele>
        <time>2022-07-26T12:33:00Z</time>
      </trkpt>
      <trkpt lat="44.09524" lon="7.05561">
        <ele>1013</ele>
        <time>2022-07-26T12:33:01Z</time>
      </trkpt>
      <trkpt lat="44.09525" lon="7.0556">
        <ele>1013</ele>
        <time>2022-07-26T12:33:02Z</time>
      </trkpt>
      <trkpt lat="44.09526" lon="7.0556">
        <ele>1013</ele>
        <time>2022-07-26T12:33:03Z</time>
      </trkpt>
      <trkpt lat="44.09527" lon="7.05559">
        <ele>1013</ele>
        <time>2022-07-26T12:33:04Z</time>
      </trkpt>
      <trkpt lat="44.09529" lon="7.05558">
        <ele>1013</ele>
        <time>2022-07-26T12:33:05Z</time>
      </trkpt>
      <trkpt lat="44.0953" lon="7.05558">
        <ele>1013</ele>
        <time>2022-07-26T12:33:06Z</time>
      </trkpt>
      <trkpt lat="44.09531" lon="7.05557">
        <ele>1013</ele>
        <time>2022-07-26T12:33:07Z</time>
      </trkpt>
      <trkpt lat="44.09532" lon="7.05556">
        <ele>1012</ele>
        <time>2022-07-26T12:33:08Z</time>
      </trkpt>
      <trkpt lat="44.09534" lon="7.05555">
        <ele>1012</ele>
        <time>2022-07-26T12:33:09Z</time>
      </trkpt>
      <trkpt lat="44.09535" lon="7.05554">
        <ele>1012</ele>
        <time>2022-07-26T12:33:10Z</time>
      </trkpt>
      <trkpt lat="44.09536" lon="7.05554">
        <ele>1012</ele>
        <time>2022-07-26T12:33:11Z</time>
      </trkpt>
      <trkpt lat="44.09537" lon="7.05553">
        <ele>1012</ele>
        <time>2022-07-26T12:33:12Z</time>
      </trkpt>
      <trkpt lat="44.09538" lon="7.05552">
        <ele>1012</ele>
        <time>2022-07-26T12:33:13Z</time>
      </trkpt>
      <trkpt lat="44.09539" lon="7.05552">
        <ele>1012</ele>
        <time>2022-07-26T12:33:14Z</time>
      </trkpt>
      <trkpt lat="44.0954" lon="7.05551">
        <ele>1012</ele>
        <time>2022-07-26T12:33:15Z</time>
      </trkpt>
      <trkpt lat="44.09541" lon="7.05551">
        <ele>1012</ele>
        <time>2022-07-26T12:33:16Z</time>
      </trkpt>
      <trkpt lat="44.09542" lon="7.0555">
        <ele>1012</ele>
        <time>2022-07-26T12:33:17Z</time>
      </trkpt>
      <trkpt lat="44.09543" lon="7.0555">
        <ele>1011</ele>
        <time>2022-07-26T12:33:18Z</time>
      </trkpt>
      <trkpt lat="44.09544" lon="7.0555">
        <ele>1011</ele>
        <time>2022-07-26T12:33:19Z</time>
      </trkpt>
      <trkpt lat="44.09546" lon="7.05549">
        <ele>1011</ele>
        <time>2022-07-26T12:33:20Z</time>
      </trkpt>
      <trkpt lat="44.09547" lon="7.05549">
        <ele>1011</ele>
        <time>2022-07-26T12:33:21Z</time>
      </trkpt>
      <trkpt lat="44.09548" lon="7.05549">
        <ele>1011</ele>
        <time>2022-07-26T12:33:22Z</time>
      </trkpt>
      <trkpt lat="44.09549" lon="7.05549">
        <ele>1011</ele>
        <time>2022-07-26T12:33:23Z</time>
      </trkpt>
      <trkpt lat="44.09551" lon="7.05549">
        <ele>1011</ele>
        <time>2022-07-26T12:33:24Z</time>
      </trkpt>
      <trkpt lat="44.09552" lon="7.05549">
        <ele>1011</ele>
        <time>2022-07-26T12:33:25Z</time>
      </trkpt>
      <trkpt lat="44.09554" lon="7.05549">
        <ele>1011</ele>
        <time>2022-07-26T12:33:26Z</time>
      </trkpt>
      <trkpt lat="44.09555" lon="7.05549">
        <ele>1011</ele>
        <time>2022-07-26T12:33:27Z</time>
      </trkpt>
      <trkpt lat="44.09557" lon="7.05549">
        <ele>1010</ele>
        <time>2022-07-26T12:33:28Z</time>
      </trkpt>
      <trkpt lat="44.09558" lon="7.05549">
        <ele>1010</ele>
        <time>2022-07-26T12:33:29Z</time>
      </trkpt>
      <trkpt lat="44.0956" lon="7.05549">
        <ele>1010</ele>
        <time>2022-07-26T12:33:30Z</time>
      </trkpt>
      <trkpt lat="44.09561" lon="7.05548">
        <ele>1010</ele>
        <time>2022-07-26T12:33:31Z</time>
      </trkpt>
      <trkpt lat="44.09562" lon="7.05548">
        <ele>1010</ele>
        <time>2022-07-26T12:33:32Z</time>
      </trkpt>
      <trkpt lat="44.09564" lon="7.05548">
        <ele>1010</ele>
        <time>2022-07-26T12:33:33Z</time>
      </trkpt>
      <trkpt lat="44.09565" lon="7.05548">
        <ele>1010</ele>
        <time>2022-07-26T12:33:34Z</time>
      </trkpt>
      <trkpt lat="44.09566" lon="7.05548">
        <ele>1010</ele>
        <time>2022-07-26T12:33:35Z</time>
      </trkpt>
      <trkpt lat="44.09567" lon="7.05548">
        <ele>1010</ele>
        <time>2022-07-26T12:33:36Z</time>
      </trkpt>
      <trkpt lat="44.09569" lon="7.05548">
        <ele>1010</ele>
        <time>2022-07-26T12:33:37Z</time>
      </trkpt>
      <trkpt lat="44.0957" lon="7.05548">
        <ele>1009</ele>
        <time>2022-07-26T12:33:38Z</time>
      </trkpt>
      <trkpt lat="44.09571" lon="7.05548">
        <ele>1009</ele>
        <time>2022-07-26T12:33:39Z</time>
      </trkpt>
      <trkpt lat="44.09572" lon="7.05549">
        <ele>1009</ele>
        <time>2022-07-26T12:33:40Z</time>
      </trkpt>
      <trkpt lat="44.09573" lon="7.05549">
        <ele>1009</ele>
        <time>2022-07-26T12:33:41Z</time>
      </trkpt>
      <trkpt lat="44.09574" lon="7.05549">
        <ele>1009</ele>
        <time>2022-07-26T12:33:42Z</time>
      </trkpt>
      <trkpt lat="44.09575" lon="7.05549">
        <ele>1009</ele>
        <time>2022-07-26T12:33:43Z</time>
      </trkpt>
      <trkpt lat="44.09575" lon="7.0555">
        <ele>1009</ele>
        <time>2022-07-26T12:33:44Z</time>
      </trkpt>
      <trkpt lat="44.09576" lon="7.0555">
        <ele>1009</ele>
        <time>2022-07-26T12:33:45Z</time>
      </trkpt>
      <trkpt lat="44.09577" lon="7.0555">
        <ele>1009</ele>
        <time>2022-07-26T12:33:46Z</time>
      </trkpt>
      <trkpt lat="44.09578" lon="7.05551">
        <ele>1009</ele>
        <time>2022-07-26T12:33:47Z</time>
      </trkpt>
      <trkpt lat="44.09579" lon="7.05552">
        <ele>1009</ele>
        <time>2022-07-26T12:33:48Z</time>
      </trkpt>
      <trkpt lat="44.0958" lon="7.05552">
        <ele>1009</ele>
        <time>2022-07-26T12:33:49Z</time>
      </trkpt>
      <trkpt lat="44.09581" lon="7.05553">
        <ele>1009</ele>
        <time>2022-07-26T12:33:50Z</time>
      </trkpt>
      <trkpt lat="44.09582" lon="7.05554">
        <ele>1009</ele>
        <time>2022-07-26T12:33:51Z</time>
      </trkpt>
      <trkpt lat="44.09583" lon="7.05554">
        <ele>1009</ele>
        <time>2022-07-26T12:33:52Z</time>
      </trkpt>
      <trkpt lat="44.09584" lon="7.05555">
        <ele>1008</ele>
        <time>2022-07-26T12:33:53Z</time>
      </trkpt>
      <trkpt lat="44.09586" lon="7.05555">
        <ele>1008</ele>
        <time>2022-07-26T12:33:54Z</time>
      </trkpt>
      <trkpt lat="44.09587" lon="7.05556">
        <ele>1007</ele>
        <time>2022-07-26T12:33:55Z</time>
      </trkpt>
      <trkpt lat="44.09588" lon="7.05556">
        <ele>1007</ele>
        <time>2022-07-26T12:33:56Z</time>
      </trkpt>
      <trkpt lat="44.09589" lon="7.05557">
        <ele>1007</ele>
        <time>2022-07-26T12:33:57Z</time>
      </trkpt>
      <trkpt lat="44.0959" lon="7.05557">
        <ele>1007</ele>
        <time>2022-07-26T12:33:58Z</time>
      </trkpt>
      <trkpt lat="44.09591" lon="7.05557">
        <ele>1007</ele>
        <time>2022-07-26T12:33:59Z</time>
      </trkpt>
      <trkpt lat="44.09593" lon="7.05557">
        <ele>1007</ele>
        <time>2022-07-26T12:34:00Z</time>
      </trkpt>
      <trkpt lat="44.09594" lon="7.05557">
        <ele>1007</ele>
        <time>2022-07-26T12:34:01Z</time>
      </trkpt>
      <trkpt lat="44.09595" lon="7.05556">
        <ele>1007</ele>
        <time>2022-07-26T12:34:02Z</time>
      </trkpt>
      <trkpt lat="44.09596" lon="7.05556">
        <ele>1006</ele>
        <time>2022-07-26T12:34:03Z</time>
      </trkpt>
      <trkpt lat="44.09597" lon="7.05556">
        <ele>1006</ele>
        <time>2022-07-26T12:34:04Z</time>
      </trkpt>
      <trkpt lat="44.09598" lon="7.05555">
        <ele>1006</ele>
        <time>2022-07-26T12:34:05Z</time>
      </trkpt>
      <trkpt lat="44.09599" lon="7.05555">
        <ele>1006</ele>
        <time>2022-07-26T12:34:06Z</time>
      </trkpt>
      <trkpt lat="44.096" lon="7.05555">
        <ele>1006</ele>
        <time>2022-07-26T12:34:07Z</time>
      </trkpt>
      <trkpt lat="44.09601" lon="7.05555">
        <ele>1005</ele>
        <time>2022-07-26T12:34:08Z</time>
      </trkpt>
      <trkpt lat="44.09602" lon="7.05555">
        <ele>1005</ele>
        <time>2022-07-26T12:34:09Z</time>
      </trkpt>
      <trkpt lat="44.09603" lon="7.05555">
        <ele>1005</ele>
        <time>2022-07-26T12:34:10Z</time>
      </trkpt>
      <trkpt lat="44.09604" lon="7.05555">
        <ele>1005</ele>
        <time>2022-07-26T12:34:11Z</time>
      </trkpt>
      <trkpt lat="44.09606" lon="7.05555">
        <ele>1005</ele>
        <time>2022-07-26T12:34:12Z</time>
      </trkpt>
      <trkpt lat="44.09607" lon="7.05555">
        <ele>1005</ele>
        <time>2022-07-26T12:34:13Z</time>
      </trkpt>
      <trkpt lat="44.09608" lon="7.05555">
        <ele>1005</ele>
        <time>2022-07-26T12:34:14Z</time>
      </trkpt>
      <trkpt lat="44.09609" lon="7.05555">
        <ele>1005</ele>
        <time>2022-07-26T12:34:15Z</time>
      </trkpt>
      <trkpt lat="44.0961" lon="7.05555">
        <ele>1005</ele>
        <time>2022-07-26T12:34:16Z</time>
      </trkpt>
      <trkpt lat="44.09611" lon="7.05556">
        <ele>1005</ele>
        <time>2022-07-26T12:34:17Z</time>
      </trkpt>
      <trkpt lat="44.09612" lon="7.05556">
        <ele>1004</ele>
        <time>2022-07-26T12:34:18Z</time>
      </trkpt>
      <trkpt lat="44.09613" lon="7.05557">
        <ele>1004</ele>
        <time>2022-07-26T12:34:19Z</time>
      </trkpt>
      <trkpt lat="44.09614" lon="7.05558">
        <ele>1004</ele>
        <time>2022-07-26T12:34:20Z</time>
      </trkpt>
      <trkpt lat="44.09615" lon="7.05559">
        <ele>1004</ele>
        <time>2022-07-26T12:34:21Z</time>
      </trkpt>
      <trkpt lat="44.09616" lon="7.0556">
        <ele>1004</ele>
        <time>2022-07-26T12:34:22Z</time>
      </trkpt>
      <trkpt lat="44.09617" lon="7.0556">
        <ele>1004</ele>
        <time>2022-07-26T12:34:23Z</time>
      </trkpt>
      <trkpt lat="44.09618" lon="7.05561">
        <ele>1004</ele>
        <time>2022-07-26T12:34:24Z</time>
      </trkpt>
      <trkpt lat="44.09619" lon="7.05562">
        <ele>1004</ele>
        <time>2022-07-26T12:34:25Z</time>
      </trkpt>
      <trkpt lat="44.0962" lon="7.05563">
        <ele>1004</ele>
        <time>2022-07-26T12:34:26Z</time>
      </trkpt>
      <trkpt lat="44.09621" lon="7.05564">
        <ele>1004</ele>
        <time>2022-07-26T12:34:27Z</time>
      </trkpt>
      <trkpt lat="44.09622" lon="7.05565">
        <ele>1003</ele>
        <time>2022-07-26T12:34:28Z</time>
      </trkpt>
      <trkpt lat="44.09623" lon="7.05566">
        <ele>1003</ele>
        <time>2022-07-26T12:34:29Z</time>
      </trkpt>
      <trkpt lat="44.09623" lon="7.05568">
        <ele>1003</ele>
        <time>2022-07-26T12:34:30Z</time>
      </trkpt>
      <trkpt lat="44.09624" lon="7.05569">
        <ele>1003</ele>
        <time>2022-07-26T12:34:31Z</time>
      </trkpt>
      <trkpt lat="44.09625" lon="7.0557">
        <ele>1003</ele>
        <time>2022-07-26T12:34:32Z</time>
      </trkpt>
      <trkpt lat="44.09626" lon="7.05571">
        <ele>1003</ele>
        <time>2022-07-26T12:34:33Z</time>
      </trkpt>
      <trkpt lat="44.09627" lon="7.05572">
        <ele>1003</ele>
        <time>2022-07-26T12:34:34Z</time>
      </trkpt>
      <trkpt lat="44.09627" lon="7.05574">
        <ele>1003</ele>
        <time>2022-07-26T12:34:35Z</time>
      </trkpt>
      <trkpt lat="44.09628" lon="7.05575">
        <ele>1003</ele>
        <time>2022-07-26T12:34:36Z</time>
      </trkpt>
      <trkpt lat="44.09629" lon="7.05576">
        <ele>1003</ele>
        <time>2022-07-26T12:34:37Z</time>
      </trkpt>
      <trkpt lat="44.0963" lon="7.05578">
        <ele>1002</ele>
        <time>2022-07-26T12:34:38Z</time>
      </trkpt>
      <trkpt lat="44.0963" lon="7.05579">
        <ele>1002</ele>
        <time>2022-07-26T12:34:39Z</time>
      </trkpt>
      <trkpt lat="44.09631" lon="7.0558">
        <ele>1002</ele>
        <time>2022-07-26T12:34:40Z</time>
      </trkpt>
      <trkpt lat="44.09632" lon="7.05581">
        <ele>1002</ele>
        <time>2022-07-26T12:34:41Z</time>
      </trkpt>
      <trkpt lat="44.09633" lon="7.05582">
        <ele>1002</ele>
        <time>2022-07-26T12:34:42Z</time>
      </trkpt>
      <trkpt lat="44.09634" lon="7.05583">
        <ele>1002</ele>
        <time>2022-07-26T12:34:43Z</time>
      </trkpt>
      <trkpt lat="44.09635" lon="7.05584">
        <ele>1002</ele>
        <time>2022-07-26T12:34:44Z</time>
      </trkpt>
      <trkpt lat="44.09636" lon="7.05585">
        <ele>1002</ele>
        <time>2022-07-26T12:34:45Z</time>
      </trkpt>
      <trkpt lat="44.09637" lon="7.05586">
        <ele>1002</ele>
        <time>2022-07-26T12:34:46Z</time>
      </trkpt>
      <trkpt lat="44.09638" lon="7.05587">
        <ele>1002</ele>
        <time>2022-07-26T12:34:47Z</time>
      </trkpt>
      <trkpt lat="44.09639" lon="7.05587">
        <ele>1002</ele>
        <time>2022-07-26T12:34:48Z</time>
      </trkpt>
      <trkpt lat="44.09641" lon="7.05588">
        <ele>1002</ele>
        <time>2022-07-26T12:34:49Z</time>
      </trkpt>
      <trkpt lat="44.09642" lon="7.05588">
        <ele>1002</ele>
        <time>2022-07-26T12:34:50Z</time>
      </trkpt>
      <trkpt lat="44.09643" lon="7.05589">
        <ele>1002</ele>
        <time>2022-07-26T12:34:51Z</time>
      </trkpt>
      <trkpt lat="44.09644" lon="7.05589">
        <ele>1002</ele>
        <time>2022-07-26T12:34:52Z</time>
      </trkpt>
      <trkpt lat="44.09645" lon="7.05589">
        <ele>1002</ele>
        <time>2022-07-26T12:34:53Z</time>
      </trkpt>
      <trkpt lat="44.09646" lon="7.0559">
        <ele>1002</ele>
        <time>2022-07-26T12:34:54Z</time>
      </trkpt>
      <trkpt lat="44.09647" lon="7.0559">
        <ele>1002</ele>
        <time>2022-07-26T12:34:55Z</time>
      </trkpt>
      <trkpt lat="44.09648" lon="7.0559">
        <ele>1002</ele>
        <time>2022-07-26T12:34:56Z</time>
      </trkpt>
      <trkpt lat="44.09649" lon="7.0559">
        <ele>1002</ele>
        <time>2022-07-26T12:34:57Z</time>
      </trkpt>
      <trkpt lat="44.0965" lon="7.0559">
        <ele>1001</ele>
        <time>2022-07-26T12:34:58Z</time>
      </trkpt>
      <trkpt lat="44.09651" lon="7.0559">
        <ele>1001</ele>
        <time>2022-07-26T12:34:59Z</time>
      </trkpt>
      <trkpt lat="44.09652" lon="7.05591">
        <ele>1001</ele>
        <time>2022-07-26T12:35:00Z</time>
      </trkpt>
      <trkpt lat="44.09653" lon="7.05591">
        <ele>1001</ele>
        <time>2022-07-26T12:35:01Z</time>
      </trkpt>
      <trkpt lat="44.09654" lon="7.05591">
        <ele>1001</ele>
        <time>2022-07-26T12:35:02Z</time>
      </trkpt>
      <trkpt lat="44.09655" lon="7.05591">
        <ele>1001</ele>
        <time>2022-07-26T12:35:03Z</time>
      </trkpt>
      <trkpt lat="44.09656" lon="7.05592">
        <ele>1001</ele>
        <time>2022-07-26T12:35:04Z</time>
      </trkpt>
      <trkpt lat="44.09658" lon="7.05592">
        <ele>1001</ele>
        <time>2022-07-26T12:35:05Z</time>
      </trkpt>
      <trkpt lat="44.09659" lon="7.05593">
        <ele>1001</ele>
        <time>2022-07-26T12:35:06Z</time>
      </trkpt>
      <trkpt lat="44.0966" lon="7.05593">
        <ele>1001</ele>
        <time>2022-07-26T12:35:07Z</time>
      </trkpt>
      <trkpt lat="44.09661" lon="7.05594">
        <ele>1001</ele>
        <time>2022-07-26T12:35:08Z</time>
      </trkpt>
      <trkpt lat="44.09662" lon="7.05594">
        <ele>1001</ele>
        <time>2022-07-26T12:35:09Z</time>
      </trkpt>
      <trkpt lat="44.09663" lon="7.05594">
        <ele>1001</ele>
        <time>2022-07-26T12:35:10Z</time>
      </trkpt>
      <trkpt lat="44.09664" lon="7.05595">
        <ele>1001</ele>
        <time>2022-07-26T12:35:11Z</time>
      </trkpt>
      <trkpt lat="44.09664" lon="7.05595">
        <ele>1001</ele>
        <time>2022-07-26T12:35:12Z</time>
      </trkpt>
      <trkpt lat="44.09665" lon="7.05596">
        <ele>1000</ele>
        <time>2022-07-26T12:35:13Z</time>
      </trkpt>
      <trkpt lat="44.09665" lon="7.05596">
        <ele>1000</ele>
        <time>2022-07-26T12:35:14Z</time>
      </trkpt>
      <trkpt lat="44.09666" lon="7.05597">
        <ele>1000</ele>
        <time>2022-07-26T12:35:15Z</time>
      </trkpt>
      <trkpt lat="44.09667" lon="7.05598">
        <ele>1000</ele>
        <time>2022-07-26T12:35:16Z</time>
      </trkpt>
      <trkpt lat="44.09667" lon="7.05599">
        <ele>1000</ele>
        <time>2022-07-26T12:35:17Z</time>
      </trkpt>
      <trkpt lat="44.09668" lon="7.056">
        <ele>1000</ele>
        <time>2022-07-26T12:35:18Z</time>
      </trkpt>
      <trkpt lat="44.09669" lon="7.05601">
        <ele>1000</ele>
        <time>2022-07-26T12:35:19Z</time>
      </trkpt>
      <trkpt lat="44.09669" lon="7.05602">
        <ele>1000</ele>
        <time>2022-07-26T12:35:20Z</time>
      </trkpt>
      <trkpt lat="44.0967" lon="7.05603">
        <ele>1000</ele>
        <time>2022-07-26T12:35:21Z</time>
      </trkpt>
      <trkpt lat="44.0967" lon="7.05605">
        <ele>1000</ele>
        <time>2022-07-26T12:35:22Z</time>
      </trkpt>
      <trkpt lat="44.09671" lon="7.05606">
        <ele>999</ele>
        <time>2022-07-26T12:35:23Z</time>
      </trkpt>
      <trkpt lat="44.09671" lon="7.05608">
        <ele>999</ele>
        <time>2022-07-26T12:35:24Z</time>
      </trkpt>
      <trkpt lat="44.09672" lon="7.0561">
        <ele>999</ele>
        <time>2022-07-26T12:35:25Z</time>
      </trkpt>
      <trkpt lat="44.09672" lon="7.05611">
        <ele>999</ele>
        <time>2022-07-26T12:35:26Z</time>
      </trkpt>
      <trkpt lat="44.09672" lon="7.05613">
        <ele>999</ele>
        <time>2022-07-26T12:35:27Z</time>
      </trkpt>
      <trkpt lat="44.09671" lon="7.05614">
        <ele>999</ele>
        <time>2022-07-26T12:35:28Z</time>
      </trkpt>
      <trkpt lat="44.09671" lon="7.05616">
        <ele>999</ele>
        <time>2022-07-26T12:35:29Z</time>
      </trkpt>
      <trkpt lat="44.0967" lon="7.05617">
        <ele>999</ele>
        <time>2022-07-26T12:35:30Z</time>
      </trkpt>
      <trkpt lat="44.0967" lon="7.05619">
        <ele>999</ele>
        <time>2022-07-26T12:35:31Z</time>
      </trkpt>
      <trkpt lat="44.09669" lon="7.0562">
        <ele>999</ele>
        <time>2022-07-26T12:35:32Z</time>
      </trkpt>
      <trkpt lat="44.09668" lon="7.05621">
        <ele>999</ele>
        <time>2022-07-26T12:35:33Z</time>
      </trkpt>
      <trkpt lat="44.09668" lon="7.05622">
        <ele>999</ele>
        <time>2022-07-26T12:35:34Z</time>
      </trkpt>
      <trkpt lat="44.09667" lon="7.05623">
        <ele>999</ele>
        <time>2022-07-26T12:35:35Z</time>
      </trkpt>
      <trkpt lat="44.09666" lon="7.05624">
        <ele>999</ele>
        <time>2022-07-26T12:35:36Z</time>
      </trkpt>
      <trkpt lat="44.09665" lon="7.05625">
        <ele>999</ele>
        <time>2022-07-26T12:35:37Z</time>
      </trkpt>
      <trkpt lat="44.09664" lon="7.05626">
        <ele>999</ele>
        <time>2022-07-26T12:35:38Z</time>
      </trkpt>
      <trkpt lat="44.09662" lon="7.05627">
        <ele>999</ele>
        <time>2022-07-26T12:35:39Z</time>
      </trkpt>
      <trkpt lat="44.09661" lon="7.05628">
        <ele>999</ele>
        <time>2022-07-26T12:35:40Z</time>
      </trkpt>
      <trkpt lat="44.09659" lon="7.05629">
        <ele>999</ele>
        <time>2022-07-26T12:35:41Z</time>
      </trkpt>
      <trkpt lat="44.09658" lon="7.0563">
        <ele>999</ele>
        <time>2022-07-26T12:35:42Z</time>
      </trkpt>
      <trkpt lat="44.09657" lon="7.05631">
        <ele>998</ele>
        <time>2022-07-26T12:35:43Z</time>
      </trkpt>
      <trkpt lat="44.09655" lon="7.05631">
        <ele>998</ele>
        <time>2022-07-26T12:35:44Z</time>
      </trkpt>
      <trkpt lat="44.09654" lon="7.05631">
        <ele>998</ele>
        <time>2022-07-26T12:35:45Z</time>
      </trkpt>
      <trkpt lat="44.09652" lon="7.05631">
        <ele>998</ele>
        <time>2022-07-26T12:35:46Z</time>
      </trkpt>
      <trkpt lat="44.0965" lon="7.05631">
        <ele>998</ele>
        <time>2022-07-26T12:35:47Z</time>
      </trkpt>
      <trkpt lat="44.09648" lon="7.05631">
        <ele>998</ele>
        <time>2022-07-26T12:35:48Z</time>
      </trkpt>
      <trkpt lat="44.09647" lon="7.0563">
        <ele>998</ele>
        <time>2022-07-26T12:35:49Z</time>
      </trkpt>
      <trkpt lat="44.09645" lon="7.0563">
        <ele>998</ele>
        <time>2022-07-26T12:35:50Z</time>
      </trkpt>
      <trkpt lat="44.09643" lon="7.0563">
        <ele>998</ele>
        <time>2022-07-26T12:35:51Z</time>
      </trkpt>
      <trkpt lat="44.09641" lon="7.05629">
        <ele>998</ele>
        <time>2022-07-26T12:35:52Z</time>
      </trkpt>
      <trkpt lat="44.0964" lon="7.05629">
        <ele>998</ele>
        <time>2022-07-26T12:35:53Z</time>
      </trkpt>
      <trkpt lat="44.09638" lon="7.05629">
        <ele>998</ele>
        <time>2022-07-26T12:35:54Z</time>
      </trkpt>
      <trkpt lat="44.09637" lon="7.05629">
        <ele>998</ele>
        <time>2022-07-26T12:35:55Z</time>
      </trkpt>
      <trkpt lat="44.09635" lon="7.05629">
        <ele>998</ele>
        <time>2022-07-26T12:35:56Z</time>
      </trkpt>
      <trkpt lat="44.09634" lon="7.05629">
        <ele>998</ele>
        <time>2022-07-26T12:35:57Z</time>
      </trkpt>
      <trkpt lat="44.09633" lon="7.05629">
        <ele>997</ele>
        <time>2022-07-26T12:35:58Z</time>
      </trkpt>
      <trkpt lat="44.09631" lon="7.0563">
        <ele>997</ele>
        <time>2022-07-26T12:35:59Z</time>
      </trkpt>
      <trkpt lat="44.0963" lon="7.0563">
        <ele>997</ele>
        <time>2022-07-26T12:36:00Z</time>
      </trkpt>
      <trkpt lat="44.09629" lon="7.0563">
        <ele>997</ele>
        <time>2022-07-26T12:36:01Z</time>
      </trkpt>
      <trkpt lat="44.09627" lon="7.05631">
        <ele>997</ele>
        <time>2022-07-26T12:36:02Z</time>
      </trkpt>
      <trkpt lat="44.09626" lon="7.05631">
        <ele>997</ele>
        <time>2022-07-26T12:36:03Z</time>
      </trkpt>
      <trkpt lat="44.09625" lon="7.05631">
        <ele>997</ele>
        <time>2022-07-26T12:36:04Z</time>
      </trkpt>
      <trkpt lat="44.09623" lon="7.05631">
        <ele>997</ele>
        <time>2022-07-26T12:36:05Z</time>
      </trkpt>
      <trkpt lat="44.09622" lon="7.05631">
        <ele>997</ele>
        <time>2022-07-26T12:36:06Z</time>
      </trkpt>
      <trkpt lat="44.09621" lon="7.05631">
        <ele>997</ele>
        <time>2022-07-26T12:36:07Z</time>
      </trkpt>
      <trkpt lat="44.0962" lon="7.0563">
        <ele>996</ele>
        <time>2022-07-26T12:36:08Z</time>
      </trkpt>
      <trkpt lat="44.09619" lon="7.0563">
        <ele>996</ele>
        <time>2022-07-26T12:36:09Z</time>
      </trkpt>
      <trkpt lat="44.09618" lon="7.0563">
        <ele>996</ele>
        <time>2022-07-26T12:36:10Z</time>
      </trkpt>
      <trkpt lat="44.09617" lon="7.0563">
        <ele>996</ele>
        <time>2022-07-26T12:36:11Z</time>
      </trkpt>
      <trkpt lat="44.09615" lon="7.0563">
        <ele>996</ele>
        <time>2022-07-26T12:36:12Z</time>
      </trkpt>
      <trkpt lat="44.09614" lon="7.0563">
        <ele>996</ele>
        <time>2022-07-26T12:36:13Z</time>
      </trkpt>
      <trkpt lat="44.09613" lon="7.0563">
        <ele>996</ele>
        <time>2022-07-26T12:36:14Z</time>
      </trkpt>
      <trkpt lat="44.09611" lon="7.05629">
        <ele>996</ele>
        <time>2022-07-26T12:36:15Z</time>
      </trkpt>
      <trkpt lat="44.0961" lon="7.05629">
        <ele>996</ele>
        <time>2022-07-26T12:36:16Z</time>
      </trkpt>
      <trkpt lat="44.09609" lon="7.05628">
        <ele>996</ele>
        <time>2022-07-26T12:36:17Z</time>
      </trkpt>
      <trkpt lat="44.09608" lon="7.05628">
        <ele>995</ele>
        <time>2022-07-26T12:36:18Z</time>
      </trkpt>
      <trkpt lat="44.09607" lon="7.05627">
        <ele>995</ele>
        <time>2022-07-26T12:36:19Z</time>
      </trkpt>
      <trkpt lat="44.09606" lon="7.05627">
        <ele>995</ele>
        <time>2022-07-26T12:36:20Z</time>
      </trkpt>
      <trkpt lat="44.09604" lon="7.05627">
        <ele>995</ele>
        <time>2022-07-26T12:36:21Z</time>
      </trkpt>
      <trkpt lat="44.09603" lon="7.05626">
        <ele>995</ele>
        <time>2022-07-26T12:36:22Z</time>
      </trkpt>
      <trkpt lat="44.09602" lon="7.05626">
        <ele>995</ele>
        <time>2022-07-26T12:36:23Z</time>
      </trkpt>
      <trkpt lat="44.09601" lon="7.05626">
        <ele>995</ele>
        <time>2022-07-26T12:36:24Z</time>
      </trkpt>
      <trkpt lat="44.096" lon="7.05626">
        <ele>995</ele>
        <time>2022-07-26T12:36:25Z</time>
      </trkpt>
      <trkpt lat="44.09598" lon="7.05626">
        <ele>995</ele>
        <time>2022-07-26T12:36:26Z</time>
      </trkpt>
      <trkpt lat="44.09597" lon="7.05626">
        <ele>995</ele>
        <time>2022-07-26T12:36:27Z</time>
      </trkpt>
      <trkpt lat="44.09596" lon="7.05625">
        <ele>995</ele>
        <time>2022-07-26T12:36:28Z</time>
      </trkpt>
      <trkpt lat="44.09595" lon="7.05625">
        <ele>995</ele>
        <time>2022-07-26T12:36:29Z</time>
      </trkpt>
      <trkpt lat="44.09593" lon="7.05625">
        <ele>995</ele>
        <time>2022-07-26T12:36:30Z</time>
      </trkpt>
      <trkpt lat="44.09592" lon="7.05624">
        <ele>995</ele>
        <time>2022-07-26T12:36:31Z</time>
      </trkpt>
      <trkpt lat="44.09591" lon="7.05624">
        <ele>995</ele>
        <time>2022-07-26T12:36:32Z</time>
      </trkpt>
      <trkpt lat="44.0959" lon="7.05624">
        <ele>994</ele>
        <time>2022-07-26T12:36:33Z</time>
      </trkpt>
      <trkpt lat="44.09589" lon="7.05624">
        <ele>994</ele>
        <time>2022-07-26T12:36:34Z</time>
      </trkpt>
      <trkpt lat="44.09588" lon="7.05624">
        <ele>994</ele>
        <time>2022-07-26T12:36:35Z</time>
      </trkpt>
      <trkpt lat="44.09587" lon="7.05624">
        <ele>994</ele>
        <time>2022-07-26T12:36:36Z</time>
      </trkpt>
      <trkpt lat="44.09586" lon="7.05624">
        <ele>994</ele>
        <time>2022-07-26T12:36:37Z</time>
      </trkpt>
      <trkpt lat="44.09584" lon="7.05624">
        <ele>993</ele>
        <time>2022-07-26T12:36:38Z</time>
      </trkpt>
      <trkpt lat="44.09583" lon="7.05625">
        <ele>993</ele>
        <time>2022-07-26T12:36:39Z</time>
      </trkpt>
      <trkpt lat="44.09582" lon="7.05625">
        <ele>993</ele>
        <time>2022-07-26T12:36:40Z</time>
      </trkpt>
      <trkpt lat="44.09581" lon="7.05625">
        <ele>993</ele>
        <time>2022-07-26T12:36:41Z</time>
      </trkpt>
      <trkpt lat="44.0958" lon="7.05625">
        <ele>993</ele>
        <time>2022-07-26T12:36:42Z</time>
      </trkpt>
      <trkpt lat="44.09578" lon="7.05626">
        <ele>993</ele>
        <time>2022-07-26T12:36:43Z</time>
      </trkpt>
      <trkpt lat="44.09577" lon="7.05627">
        <ele>993</ele>
        <time>2022-07-26T12:36:44Z</time>
      </trkpt>
      <trkpt lat="44.09575" lon="7.05627">
        <ele>993</ele>
        <time>2022-07-26T12:36:45Z</time>
      </trkpt>
      <trkpt lat="44.09574" lon="7.05628">
        <ele>993</ele>
        <time>2022-07-26T12:36:46Z</time>
      </trkpt>
      <trkpt lat="44.09573" lon="7.05629">
        <ele>993</ele>
        <time>2022-07-26T12:36:47Z</time>
      </trkpt>
      <trkpt lat="44.09572" lon="7.0563">
        <ele>993</ele>
        <time>2022-07-26T12:36:48Z</time>
      </trkpt>
      <trkpt lat="44.09571" lon="7.0563">
        <ele>993</ele>
        <time>2022-07-26T12:36:49Z</time>
      </trkpt>
      <trkpt lat="44.09569" lon="7.05631">
        <ele>993</ele>
        <time>2022-07-26T12:36:50Z</time>
      </trkpt>
      <trkpt lat="44.09568" lon="7.05632">
        <ele>993</ele>
        <time>2022-07-26T12:36:51Z</time>
      </trkpt>
      <trkpt lat="44.09567" lon="7.05633">
        <ele>993</ele>
        <time>2022-07-26T12:36:52Z</time>
      </trkpt>
      <trkpt lat="44.09566" lon="7.05634">
        <ele>992</ele>
        <time>2022-07-26T12:36:53Z</time>
      </trkpt>
      <trkpt lat="44.09566" lon="7.05635">
        <ele>992</ele>
        <time>2022-07-26T12:36:54Z</time>
      </trkpt>
      <trkpt lat="44.09565" lon="7.05637">
        <ele>992</ele>
        <time>2022-07-26T12:36:55Z</time>
      </trkpt>
      <trkpt lat="44.09564" lon="7.05638">
        <ele>992</ele>
        <time>2022-07-26T12:36:56Z</time>
      </trkpt>
      <trkpt lat="44.09564" lon="7.05639">
        <ele>992</ele>
        <time>2022-07-26T12:36:57Z</time>
      </trkpt>
      <trkpt lat="44.09563" lon="7.05641">
        <ele>992</ele>
        <time>2022-07-26T12:36:58Z</time>
      </trkpt>
      <trkpt lat="44.09562" lon="7.05642">
        <ele>992</ele>
        <time>2022-07-26T12:36:59Z</time>
      </trkpt>
      <trkpt lat="44.09561" lon="7.05643">
        <ele>992</ele>
        <time>2022-07-26T12:37:00Z</time>
      </trkpt>
      <trkpt lat="44.0956" lon="7.05644">
        <ele>992</ele>
        <time>2022-07-26T12:37:01Z</time>
      </trkpt>
      <trkpt lat="44.09559" lon="7.05645">
        <ele>992</ele>
        <time>2022-07-26T12:37:02Z</time>
      </trkpt>
      <trkpt lat="44.09558" lon="7.05646">
        <ele>991</ele>
        <time>2022-07-26T12:37:03Z</time>
      </trkpt>
      <trkpt lat="44.09558" lon="7.05647">
        <ele>991</ele>
        <time>2022-07-26T12:37:04Z</time>
      </trkpt>
      <trkpt lat="44.09557" lon="7.05648">
        <ele>991</ele>
        <time>2022-07-26T12:37:05Z</time>
      </trkpt>
      <trkpt lat="44.09556" lon="7.05649">
        <ele>991</ele>
        <time>2022-07-26T12:37:06Z</time>
      </trkpt>
      <trkpt lat="44.09556" lon="7.05651">
        <ele>991</ele>
        <time>2022-07-26T12:37:07Z</time>
      </trkpt>
      <trkpt lat="44.09555" lon="7.05653">
        <ele>991</ele>
        <time>2022-07-26T12:37:08Z</time>
      </trkpt>
      <trkpt lat="44.09554" lon="7.05654">
        <ele>991</ele>
        <time>2022-07-26T12:37:09Z</time>
      </trkpt>
      <trkpt lat="44.09554" lon="7.05656">
        <ele>991</ele>
        <time>2022-07-26T12:37:10Z</time>
      </trkpt>
      <trkpt lat="44.09553" lon="7.05657">
        <ele>991</ele>
        <time>2022-07-26T12:37:11Z</time>
      </trkpt>
      <trkpt lat="44.09552" lon="7.05658">
        <ele>991</ele>
        <time>2022-07-26T12:37:12Z</time>
      </trkpt>
      <trkpt lat="44.09552" lon="7.05659">
        <ele>991</ele>
        <time>2022-07-26T12:37:13Z</time>
      </trkpt>
      <trkpt lat="44.09551" lon="7.0566">
        <ele>991</ele>
        <time>2022-07-26T12:37:14Z</time>
      </trkpt>
      <trkpt lat="44.0955" lon="7.0566">
        <ele>991</ele>
        <time>2022-07-26T12:37:15Z</time>
      </trkpt>
      <trkpt lat="44.09548" lon="7.05661">
        <ele>991</ele>
        <time>2022-07-26T12:37:16Z</time>
      </trkpt>
      <trkpt lat="44.09547" lon="7.05662">
        <ele>991</ele>
        <time>2022-07-26T12:37:17Z</time>
      </trkpt>
      <trkpt lat="44.09546" lon="7.05662">
        <ele>990</ele>
        <time>2022-07-26T12:37:18Z</time>
      </trkpt>
      <trkpt lat="44.09544" lon="7.05663">
        <ele>990</ele>
        <time>2022-07-26T12:37:19Z</time>
      </trkpt>
      <trkpt lat="44.09543" lon="7.05664">
        <ele>989</ele>
        <time>2022-07-26T12:37:20Z</time>
      </trkpt>
      <trkpt lat="44.09542" lon="7.05665">
        <ele>989</ele>
        <time>2022-07-26T12:37:21Z</time>
      </trkpt>
      <trkpt lat="44.0954" lon="7.05666">
        <ele>989</ele>
        <time>2022-07-26T12:37:22Z</time>
      </trkpt>
      <trkpt lat="44.09539" lon="7.05667">
        <ele>989</ele>
        <time>2022-07-26T12:37:23Z</time>
      </trkpt>
      <trkpt lat="44.09538" lon="7.05667">
        <ele>989</ele>
        <time>2022-07-26T12:37:24Z</time>
      </trkpt>
      <trkpt lat="44.09537" lon="7.05668">
        <ele>989</ele>
        <time>2022-07-26T12:37:25Z</time>
      </trkpt>
      <trkpt lat="44.09537" lon="7.05669">
        <ele>989</ele>
        <time>2022-07-26T12:37:26Z</time>
      </trkpt>
      <trkpt lat="44.09536" lon="7.0567">
        <ele>989</ele>
        <time>2022-07-26T12:37:27Z</time>
      </trkpt>
      <trkpt lat="44.09535" lon="7.0567">
        <ele>988</ele>
        <time>2022-07-26T12:37:28Z</time>
      </trkpt>
      <trkpt lat="44.09534" lon="7.05671">
        <ele>988</ele>
        <time>2022-07-26T12:37:29Z</time>
      </trkpt>
      <trkpt lat="44.09533" lon="7.05672">
        <ele>988</ele>
        <time>2022-07-26T12:37:30Z</time>
      </trkpt>
      <trkpt lat="44.09533" lon="7.05672">
        <ele>988</ele>
        <time>2022-07-26T12:37:31Z</time>
      </trkpt>
      <trkpt lat="44.09532" lon="7.05673">
        <ele>988</ele>
        <time>2022-07-26T12:37:32Z</time>
      </trkpt>
      <trkpt lat="44.09531" lon="7.05673">
        <ele>988</ele>
        <time>2022-07-26T12:37:33Z</time>
      </trkpt>
      <trkpt lat="44.0953" lon="7.05674">
        <ele>988</ele>
        <time>2022-07-26T12:37:34Z</time>
      </trkpt>
      <trkpt lat="44.09529" lon="7.05674">
        <ele>988</ele>
        <time>2022-07-26T12:37:35Z</time>
      </trkpt>
      <trkpt lat="44.09528" lon="7.05674">
        <ele>988</ele>
        <time>2022-07-26T12:37:36Z</time>
      </trkpt>
      <trkpt lat="44.09528" lon="7.05674">
        <ele>988</ele>
        <time>2022-07-26T12:37:37Z</time>
      </trkpt>
      <trkpt lat="44.09527" lon="7.05674">
        <ele>987</ele>
        <time>2022-07-26T12:37:38Z</time>
      </trkpt>
      <trkpt lat="44.09526" lon="7.05674">
        <ele>987</ele>
        <time>2022-07-26T12:37:39Z</time>
      </trkpt>
      <trkpt lat="44.09525" lon="7.05674">
        <ele>987</ele>
        <time>2022-07-26T12:37:40Z</time>
      </trkpt>
      <trkpt lat="44.09525" lon="7.05675">
        <ele>987</ele>
        <time>2022-07-26T12:37:41Z</time>
      </trkpt>
      <trkpt lat="44.09524" lon="7.05675">
        <ele>987</ele>
        <time>2022-07-26T12:37:42Z</time>
      </trkpt>
      <trkpt lat="44.09523" lon="7.05675">
        <ele>987</ele>
        <time>2022-07-26T12:37:43Z</time>
      </trkpt>
      <trkpt lat="44.09522" lon="7.05675">
        <ele>987</ele>
        <time>2022-07-26T12:37:44Z</time>
      </trkpt>
      <trkpt lat="44.09521" lon="7.05675">
        <ele>987</ele>
        <time>2022-07-26T12:37:45Z</time>
      </trkpt>
      <trkpt lat="44.0952" lon="7.05675">
        <ele>987</ele>
        <time>2022-07-26T12:37:46Z</time>
      </trkpt>
      <trkpt lat="44.09519" lon="7.05675">
        <ele>987</ele>
        <time>2022-07-26T12:37:47Z</time>
      </trkpt>
      <trkpt lat="44.09518" lon="7.05676">
        <ele>986</ele>
        <time>2022-07-26T12:37:48Z</time>
      </trkpt>
      <trkpt lat="44.09517" lon="7.05676">
        <ele>986</ele>
        <time>2022-07-26T12:37:49Z</time>
      </trkpt>
      <trkpt lat="44.09516" lon="7.05676">
        <ele>986</ele>
        <time>2022-07-26T12:37:50Z</time>
      </trkpt>
      <trkpt lat="44.09515" lon="7.05676">
        <ele>986</ele>
        <time>2022-07-26T12:37:51Z</time>
      </trkpt>
      <trkpt lat="44.09514" lon="7.05676">
        <ele>986</ele>
        <time>2022-07-26T12:37:52Z</time>
      </trkpt>
      <trkpt lat="44.09513" lon="7.05675">
        <ele>986</ele>
        <time>2022-07-26T12:37:53Z</time>
      </trkpt>
      <trkpt lat="44.09512" lon="7.05675">
        <ele>986</ele>
        <time>2022-07-26T12:37:54Z</time>
      </trkpt>
      <trkpt lat="44.09511" lon="7.05675">
        <ele>986</ele>
        <time>2022-07-26T12:37:55Z</time>
      </trkpt>
      <trkpt lat="44.0951" lon="7.05675">
        <ele>986</ele>
        <time>2022-07-26T12:37:56Z</time>
      </trkpt>
      <trkpt lat="44.09509" lon="7.05676">
        <ele>986</ele>
        <time>2022-07-26T12:37:57Z</time>
      </trkpt>
      <trkpt lat="44.09508" lon="7.05676">
        <ele>985</ele>
        <time>2022-07-26T12:37:58Z</time>
      </trkpt>
      <trkpt lat="44.09507" lon="7.05676">
        <ele>985</ele>
        <time>2022-07-26T12:37:59Z</time>
      </trkpt>
      <trkpt lat="44.09505" lon="7.05676">
        <ele>985</ele>
        <time>2022-07-26T12:38:00Z</time>
      </trkpt>
      <trkpt lat="44.09504" lon="7.05676">
        <ele>985</ele>
        <time>2022-07-26T12:38:01Z</time>
      </trkpt>
      <trkpt lat="44.09503" lon="7.05677">
        <ele>985</ele>
        <time>2022-07-26T12:38:02Z</time>
      </trkpt>
      <trkpt lat="44.09502" lon="7.05677">
        <ele>985</ele>
        <time>2022-07-26T12:38:03Z</time>
      </trkpt>
      <trkpt lat="44.09501" lon="7.05678">
        <ele>985</ele>
        <time>2022-07-26T12:38:04Z</time>
      </trkpt>
      <trkpt lat="44.09499" lon="7.05678">
        <ele>985</ele>
        <time>2022-07-26T12:38:05Z</time>
      </trkpt>
      <trkpt lat="44.09498" lon="7.05678">
        <ele>985</ele>
        <time>2022-07-26T12:38:06Z</time>
      </trkpt>
      <trkpt lat="44.09497" lon="7.05679">
        <ele>985</ele>
        <time>2022-07-26T12:38:07Z</time>
      </trkpt>
      <trkpt lat="44.09496" lon="7.05679">
        <ele>984</ele>
        <time>2022-07-26T12:38:08Z</time>
      </trkpt>
      <trkpt lat="44.09494" lon="7.0568">
        <ele>984</ele>
        <time>2022-07-26T12:38:09Z</time>
      </trkpt>
      <trkpt lat="44.09493" lon="7.0568">
        <ele>984</ele>
        <time>2022-07-26T12:38:10Z</time>
      </trkpt>
      <trkpt lat="44.09492" lon="7.05681">
        <ele>984</ele>
        <time>2022-07-26T12:38:11Z</time>
      </trkpt>
      <trkpt lat="44.09491" lon="7.05682">
        <ele>984</ele>
        <time>2022-07-26T12:38:12Z</time>
      </trkpt>
      <trkpt lat="44.0949" lon="7.05683">
        <ele>984</ele>
        <time>2022-07-26T12:38:13Z</time>
      </trkpt>
      <trkpt lat="44.09489" lon="7.05684">
        <ele>984</ele>
        <time>2022-07-26T12:38:14Z</time>
      </trkpt>
      <trkpt lat="44.09487" lon="7.05685">
        <ele>984</ele>
        <time>2022-07-26T12:38:15Z</time>
      </trkpt>
      <trkpt lat="44.09486" lon="7.05686">
        <ele>984</ele>
        <time>2022-07-26T12:38:16Z</time>
      </trkpt>
      <trkpt lat="44.09485" lon="7.05687">
        <ele>984</ele>
        <time>2022-07-26T12:38:17Z</time>
      </trkpt>
      <trkpt lat="44.09484" lon="7.05688">
        <ele>983</ele>
        <time>2022-07-26T12:38:18Z</time>
      </trkpt>
      <trkpt lat="44.09483" lon="7.05689">
        <ele>983</ele>
        <time>2022-07-26T12:38:19Z</time>
      </trkpt>
      <trkpt lat="44.09482" lon="7.0569">
        <ele>983</ele>
        <time>2022-07-26T12:38:20Z</time>
      </trkpt>
      <trkpt lat="44.09481" lon="7.0569">
        <ele>983</ele>
        <time>2022-07-26T12:38:21Z</time>
      </trkpt>
      <trkpt lat="44.0948" lon="7.05691">
        <ele>983</ele>
        <time>2022-07-26T12:38:22Z</time>
      </trkpt>
      <trkpt lat="44.09479" lon="7.05691">
        <ele>983</ele>
        <time>2022-07-26T12:38:23Z</time>
      </trkpt>
      <trkpt lat="44.09478" lon="7.05692">
        <ele>983</ele>
        <time>2022-07-26T12:38:24Z</time>
      </trkpt>
      <trkpt lat="44.09476" lon="7.05693">
        <ele>983</ele>
        <time>2022-07-26T12:38:25Z</time>
      </trkpt>
      <trkpt lat="44.09475" lon="7.05693">
        <ele>983</ele>
        <time>2022-07-26T12:38:26Z</time>
      </trkpt>
      <trkpt lat="44.09474" lon="7.05694">
        <ele>983</ele>
        <time>2022-07-26T12:38:27Z</time>
      </trkpt>
      <trkpt lat="44.09473" lon="7.05694">
        <ele>982</ele>
        <time>2022-07-26T12:38:28Z</time>
      </trkpt>
      <trkpt lat="44.09472" lon="7.05695">
        <ele>982</ele>
        <time>2022-07-26T12:38:29Z</time>
      </trkpt>
      <trkpt lat="44.09471" lon="7.05696">
        <ele>982</ele>
        <time>2022-07-26T12:38:30Z</time>
      </trkpt>
      <trkpt lat="44.0947" lon="7.05696">
        <ele>982</ele>
        <time>2022-07-26T12:38:31Z</time>
      </trkpt>
      <trkpt lat="44.09469" lon="7.05697">
        <ele>982</ele>
        <time>2022-07-26T12:38:32Z</time>
      </trkpt>
      <trkpt lat="44.09468" lon="7.05698">
        <ele>982</ele>
        <time>2022-07-26T12:38:33Z</time>
      </trkpt>
      <trkpt lat="44.09467" lon="7.05698">
        <ele>982</ele>
        <time>2022-07-26T12:38:34Z</time>
      </trkpt>
      <trkpt lat="44.09466" lon="7.05699">
        <ele>982</ele>
        <time>2022-07-26T12:38:35Z</time>
      </trkpt>
      <trkpt lat="44.09465" lon="7.057">
        <ele>982</ele>
        <time>2022-07-26T12:38:36Z</time>
      </trkpt>
      <trkpt lat="44.09464" lon="7.05701">
        <ele>982</ele>
        <time>2022-07-26T12:38:37Z</time>
      </trkpt>
      <trkpt lat="44.09463" lon="7.05701">
        <ele>981</ele>
        <time>2022-07-26T12:38:38Z</time>
      </trkpt>
      <trkpt lat="44.09461" lon="7.05702">
        <ele>981</ele>
        <time>2022-07-26T12:38:39Z</time>
      </trkpt>
      <trkpt lat="44.0946" lon="7.05703">
        <ele>981</ele>
        <time>2022-07-26T12:38:40Z</time>
      </trkpt>
      <trkpt lat="44.0946" lon="7.05704">
        <ele>981</ele>
        <time>2022-07-26T12:38:41Z</time>
      </trkpt>
      <trkpt lat="44.09459" lon="7.05705">
        <ele>981</ele>
        <time>2022-07-26T12:38:42Z</time>
      </trkpt>
      <trkpt lat="44.09458" lon="7.05706">
        <ele>981</ele>
        <time>2022-07-26T12:38:43Z</time>
      </trkpt>
      <trkpt lat="44.09457" lon="7.05707">
        <ele>981</ele>
        <time>2022-07-26T12:38:44Z</time>
      </trkpt>
      <trkpt lat="44.09456" lon="7.05707">
        <ele>981</ele>
        <time>2022-07-26T12:38:45Z</time>
      </trkpt>
      <trkpt lat="44.09455" lon="7.05708">
        <ele>981</ele>
        <time>2022-07-26T12:38:46Z</time>
      </trkpt>
      <trkpt lat="44.09454" lon="7.05709">
        <ele>981</ele>
        <time>2022-07-26T12:38:47Z</time>
      </trkpt>
      <trkpt lat="44.09454" lon="7.0571">
        <ele>980</ele>
        <time>2022-07-26T12:38:48Z</time>
      </trkpt>
      <trkpt lat="44.09453" lon="7.05712">
        <ele>980</ele>
        <time>2022-07-26T12:38:49Z</time>
      </trkpt>
      <trkpt lat="44.09453" lon="7.05713">
        <ele>980</ele>
        <time>2022-07-26T12:38:50Z</time>
      </trkpt>
      <trkpt lat="44.09452" lon="7.05714">
        <ele>980</ele>
        <time>2022-07-26T12:38:51Z</time>
      </trkpt>
      <trkpt lat="44.09452" lon="7.05715">
        <ele>980</ele>
        <time>2022-07-26T12:38:52Z</time>
      </trkpt>
      <trkpt lat="44.09452" lon="7.05717">
        <ele>980</ele>
        <time>2022-07-26T12:38:53Z</time>
      </trkpt>
      <trkpt lat="44.09451" lon="7.05719">
        <ele>980</ele>
        <time>2022-07-26T12:38:54Z</time>
      </trkpt>
      <trkpt lat="44.09451" lon="7.0572">
        <ele>980</ele>
        <time>2022-07-26T12:38:55Z</time>
      </trkpt>
      <trkpt lat="44.09451" lon="7.05722">
        <ele>980</ele>
        <time>2022-07-26T12:38:56Z</time>
      </trkpt>
      <trkpt lat="44.09451" lon="7.05724">
        <ele>980</ele>
        <time>2022-07-26T12:38:57Z</time>
      </trkpt>
      <trkpt lat="44.0945" lon="7.05725">
        <ele>979</ele>
        <time>2022-07-26T12:38:58Z</time>
      </trkpt>
      <trkpt lat="44.0945" lon="7.05727">
        <ele>979</ele>
        <time>2022-07-26T12:38:59Z</time>
      </trkpt>
      <trkpt lat="44.0945" lon="7.05729">
        <ele>979</ele>
        <time>2022-07-26T12:39:00Z</time>
      </trkpt>
      <trkpt lat="44.0945" lon="7.05731">
        <ele>979</ele>
        <time>2022-07-26T12:39:01Z</time>
      </trkpt>
      <trkpt lat="44.09449" lon="7.05733">
        <ele>979</ele>
        <time>2022-07-26T12:39:02Z</time>
      </trkpt>
      <trkpt lat="44.09449" lon="7.05734">
        <ele>979</ele>
        <time>2022-07-26T12:39:03Z</time>
      </trkpt>
      <trkpt lat="44.09449" lon="7.05736">
        <ele>979</ele>
        <time>2022-07-26T12:39:04Z</time>
      </trkpt>
      <trkpt lat="44.09449" lon="7.05737">
        <ele>979</ele>
        <time>2022-07-26T12:39:05Z</time>
      </trkpt>
      <trkpt lat="44.09449" lon="7.05739">
        <ele>979</ele>
        <time>2022-07-26T12:39:06Z</time>
      </trkpt>
      <trkpt lat="44.09449" lon="7.0574">
        <ele>979</ele>
        <time>2022-07-26T12:39:07Z</time>
      </trkpt>
      <trkpt lat="44.09449" lon="7.0574">
        <ele>978</ele>
        <time>2022-07-26T12:39:08Z</time>
      </trkpt>
      <trkpt lat="44.09449" lon="7.05741">
        <ele>978</ele>
        <time>2022-07-26T12:39:09Z</time>
      </trkpt>
      <trkpt lat="44.09449" lon="7.05742">
        <ele>978</ele>
        <time>2022-07-26T12:39:10Z</time>
      </trkpt>
      <trkpt lat="44.09449" lon="7.05744">
        <ele>978</ele>
        <time>2022-07-26T12:39:11Z</time>
      </trkpt>
      <trkpt lat="44.09449" lon="7.05744">
        <ele>978</ele>
        <time>2022-07-26T12:39:12Z</time>
      </trkpt>
      <trkpt lat="44.09449" lon="7.05745">
        <ele>978</ele>
        <time>2022-07-26T12:39:13Z</time>
      </trkpt>
      <trkpt lat="44.09449" lon="7.05746">
        <ele>978</ele>
        <time>2022-07-26T12:39:14Z</time>
      </trkpt>
      <trkpt lat="44.09449" lon="7.05747">
        <ele>978</ele>
        <time>2022-07-26T12:39:15Z</time>
      </trkpt>
      <trkpt lat="44.09449" lon="7.05748">
        <ele>978</ele>
        <time>2022-07-26T12:39:16Z</time>
      </trkpt>
      <trkpt lat="44.09449" lon="7.05749">
        <ele>978</ele>
        <time>2022-07-26T12:39:17Z</time>
      </trkpt>
      <trkpt lat="44.09448" lon="7.0575">
        <ele>977</ele>
        <time>2022-07-26T12:39:18Z</time>
      </trkpt>
      <trkpt lat="44.09448" lon="7.05751">
        <ele>977</ele>
        <time>2022-07-26T12:39:19Z</time>
      </trkpt>
      <trkpt lat="44.09447" lon="7.05753">
        <ele>977</ele>
        <time>2022-07-26T12:39:29Z</time>
      </trkpt>
      <trkpt lat="44.09447" lon="7.05754">
        <ele>977</ele>
        <time>2022-07-26T12:39:30Z</time>
      </trkpt>
      <trkpt lat="44.09447" lon="7.05754">
        <ele>977</ele>
        <time>2022-07-26T12:39:31Z</time>
      </trkpt>
      <trkpt lat="44.09447" lon="7.05754">
        <ele>977</ele>
        <time>2022-07-26T12:39:32Z</time>
      </trkpt>
      <trkpt lat="44.09447" lon="7.05754">
        <ele>977</ele>
        <time>2022-07-26T12:39:33Z</time>
      </trkpt>
      <trkpt lat="44.09448" lon="7.05754">
        <ele>977</ele>
        <time>2022-07-26T12:39:34Z</time>
      </trkpt>
      <trkpt lat="44.09448" lon="7.05753">
        <ele>977</ele>
        <time>2022-07-26T12:39:35Z</time>
      </trkpt>
      <trkpt lat="44.09448" lon="7.05752">
        <ele>977</ele>
        <time>2022-07-26T12:39:43Z</time>
      </trkpt>
      <trkpt lat="44.09448" lon="7.05752">
        <ele>977</ele>
        <time>2022-07-26T12:39:44Z</time>
      </trkpt>
      <trkpt lat="44.09449" lon="7.05752">
        <ele>977</ele>
        <time>2022-07-26T12:39:45Z</time>
      </trkpt>
      <trkpt lat="44.0945" lon="7.05754">
        <ele>978</ele>
        <time>2022-07-26T12:39:56Z</time>
      </trkpt>
      <trkpt lat="44.0945" lon="7.05755">
        <ele>978</ele>
        <time>2022-07-26T12:39:57Z</time>
      </trkpt>
      <trkpt lat="44.09451" lon="7.05756">
        <ele>978</ele>
        <time>2022-07-26T12:39:58Z</time>
      </trkpt>
      <trkpt lat="44.09451" lon="7.05756">
        <ele>978</ele>
        <time>2022-07-26T12:39:59Z</time>
      </trkpt>
      <trkpt lat="44.09452" lon="7.05757">
        <ele>978</ele>
        <time>2022-07-26T12:40:00Z</time>
      </trkpt>
      <trkpt lat="44.09454" lon="7.05761">
        <ele>981</ele>
        <time>2022-07-26T12:40:23Z</time>
      </trkpt>
      <trkpt lat="44.09455" lon="7.05763">
        <ele>981</ele>
        <time>2022-07-26T12:40:24Z</time>
      </trkpt>
      <trkpt lat="44.09457" lon="7.05765">
        <ele>981</ele>
        <time>2022-07-26T12:40:25Z</time>
      </trkpt>
      <trkpt lat="44.09458" lon="7.05766">
        <ele>981</ele>
        <time>2022-07-26T12:40:26Z</time>
      </trkpt>
      <trkpt lat="44.09458" lon="7.05766">
        <ele>981</ele>
        <time>2022-07-26T12:40:27Z</time>
      </trkpt>
      <trkpt lat="44.0946" lon="7.05765">
        <ele>983</ele>
        <time>2022-07-26T12:40:39Z</time>
      </trkpt>
      <trkpt lat="44.09461" lon="7.05763">
        <ele>983</ele>
        <time>2022-07-26T12:40:40Z</time>
      </trkpt>
      <trkpt lat="44.09462" lon="7.05762">
        <ele>983</ele>
        <time>2022-07-26T12:40:41Z</time>
      </trkpt>
      <trkpt lat="44.09463" lon="7.05761">
        <ele>984</ele>
        <time>2022-07-26T12:40:42Z</time>
      </trkpt>
      <trkpt lat="44.09463" lon="7.0576">
        <ele>984</ele>
        <time>2022-07-26T12:40:43Z</time>
      </trkpt>
      <trkpt lat="44.09464" lon="7.05759">
        <ele>984</ele>
        <time>2022-07-26T12:40:44Z</time>
      </trkpt>
      <trkpt lat="44.09464" lon="7.05757">
        <ele>984</ele>
        <time>2022-07-26T12:40:45Z</time>
      </trkpt>
      <trkpt lat="44.09465" lon="7.05756">
        <ele>984</ele>
        <time>2022-07-26T12:40:46Z</time>
      </trkpt>
      <trkpt lat="44.09465" lon="7.05755">
        <ele>985</ele>
        <time>2022-07-26T12:40:47Z</time>
      </trkpt>
      <trkpt lat="44.09465" lon="7.05753">
        <ele>985</ele>
        <time>2022-07-26T12:40:48Z</time>
      </trkpt>
      <trkpt lat="44.09465" lon="7.05752">
        <ele>985</ele>
        <time>2022-07-26T12:40:49Z</time>
      </trkpt>
      <trkpt lat="44.09465" lon="7.05751">
        <ele>985</ele>
        <time>2022-07-26T12:40:50Z</time>
      </trkpt>
      <trkpt lat="44.09466" lon="7.0575">
        <ele>985</ele>
        <time>2022-07-26T12:40:51Z</time>
      </trkpt>
      <trkpt lat="44.09465" lon="7.05749">
        <ele>986</ele>
        <time>2022-07-26T12:40:52Z</time>
      </trkpt>
      <trkpt lat="44.09465" lon="7.05747">
        <ele>986</ele>
        <time>2022-07-26T12:40:53Z</time>
      </trkpt>
      <trkpt lat="44.09464" lon="7.05746">
        <ele>986</ele>
        <time>2022-07-26T12:40:54Z</time>
      </trkpt>
      <trkpt lat="44.09463" lon="7.05745">
        <ele>986</ele>
        <time>2022-07-26T12:40:55Z</time>
      </trkpt>
      <trkpt lat="44.09463" lon="7.05743">
        <ele>986</ele>
        <time>2022-07-26T12:40:56Z</time>
      </trkpt>
      <trkpt lat="44.09463" lon="7.05742">
        <ele>987</ele>
        <time>2022-07-26T12:40:57Z</time>
      </trkpt>
      <trkpt lat="44.09463" lon="7.0574">
        <ele>987</ele>
        <time>2022-07-26T12:40:58Z</time>
      </trkpt>
      <trkpt lat="44.09463" lon="7.05738">
        <ele>987</ele>
        <time>2022-07-26T12:40:59Z</time>
      </trkpt>
      <trkpt lat="44.09464" lon="7.05736">
        <ele>987</ele>
        <time>2022-07-26T12:41:00Z</time>
      </trkpt>
      <trkpt lat="44.09465" lon="7.05735">
        <ele>987</ele>
        <time>2022-07-26T12:41:01Z</time>
      </trkpt>
      <trkpt lat="44.09466" lon="7.05734">
        <ele>988</ele>
        <time>2022-07-26T12:41:02Z</time>
      </trkpt>
      <trkpt lat="44.09467" lon="7.05732">
        <ele>988</ele>
        <time>2022-07-26T12:41:03Z</time>
      </trkpt>
      <trkpt lat="44.09472" lon="7.0573">
        <ele>991</ele>
        <time>2022-07-26T12:41:30Z</time>
      </trkpt>
      <trkpt lat="44.09474" lon="7.0573">
        <ele>991</ele>
        <time>2022-07-26T12:41:31Z</time>
      </trkpt>
      <trkpt lat="44.09475" lon="7.05729">
        <ele>991</ele>
        <time>2022-07-26T12:41:32Z</time>
      </trkpt>
      <trkpt lat="44.09476" lon="7.0573">
        <ele>991</ele>
        <time>2022-07-26T12:41:33Z</time>
      </trkpt>
      <trkpt lat="44.09476" lon="7.05731">
        <ele>991</ele>
        <time>2022-07-26T12:41:34Z</time>
      </trkpt>
      <trkpt lat="44.09477" lon="7.05732">
        <ele>991</ele>
        <time>2022-07-26T12:41:35Z</time>
      </trkpt>
      <trkpt lat="44.09477" lon="7.05733">
        <ele>991</ele>
        <time>2022-07-26T12:41:36Z</time>
      </trkpt>
      <trkpt lat="44.09478" lon="7.05734">
        <ele>992</ele>
        <time>2022-07-26T12:41:37Z</time>
      </trkpt>
      <trkpt lat="44.09478" lon="7.05735">
        <ele>992</ele>
        <time>2022-07-26T12:41:38Z</time>
      </trkpt>
      <trkpt lat="44.09479" lon="7.05738">
        <ele>993</ele>
        <time>2022-07-26T12:41:46Z</time>
      </trkpt>
      <trkpt lat="44.0948" lon="7.0574">
        <ele>993</ele>
        <time>2022-07-26T12:41:47Z</time>
      </trkpt>
      <trkpt lat="44.0948" lon="7.05741">
        <ele>993</ele>
        <time>2022-07-26T12:41:48Z</time>
      </trkpt>
      <trkpt lat="44.0948" lon="7.05742">
        <ele>993</ele>
        <time>2022-07-26T12:41:49Z</time>
      </trkpt>
      <trkpt lat="44.09481" lon="7.05743">
        <ele>993</ele>
        <time>2022-07-26T12:41:50Z</time>
      </trkpt>
      <trkpt lat="44.09481" lon="7.05744">
        <ele>993</ele>
        <time>2022-07-26T12:41:51Z</time>
      </trkpt>
      <trkpt lat="44.09481" lon="7.05744">
        <ele>994</ele>
        <time>2022-07-26T12:41:52Z</time>
      </trkpt>
      <trkpt lat="44.09482" lon="7.05745">
        <ele>994</ele>
        <time>2022-07-26T12:41:53Z</time>
      </trkpt>
      <trkpt lat="44.09482" lon="7.05745">
        <ele>994</ele>
        <time>2022-07-26T12:41:54Z</time>
      </trkpt>
      <trkpt lat="44.09483" lon="7.05746">
        <ele>994</ele>
        <time>2022-07-26T12:41:55Z</time>
      </trkpt>
      <trkpt lat="44.09483" lon="7.05746">
        <ele>994</ele>
        <time>2022-07-26T12:41:56Z</time>
      </trkpt>
      <trkpt lat="44.09484" lon="7.05746">
        <ele>995</ele>
        <time>2022-07-26T12:41:57Z</time>
      </trkpt>
      <trkpt lat="44.09484" lon="7.05746">
        <ele>995</ele>
        <time>2022-07-26T12:41:58Z</time>
      </trkpt>
      <trkpt lat="44.09485" lon="7.05746">
        <ele>995</ele>
        <time>2022-07-26T12:41:59Z</time>
      </trkpt>
      <trkpt lat="44.09485" lon="7.05746">
        <ele>995</ele>
        <time>2022-07-26T12:42:00Z</time>
      </trkpt>
      <trkpt lat="44.09486" lon="7.05746">
        <ele>995</ele>
        <time>2022-07-26T12:42:01Z</time>
      </trkpt>
      <trkpt lat="44.09486" lon="7.05746">
        <ele>995</ele>
        <time>2022-07-26T12:42:02Z</time>
      </trkpt>
      <trkpt lat="44.09487" lon="7.05745">
        <ele>995</ele>
        <time>2022-07-26T12:42:03Z</time>
      </trkpt>
      <trkpt lat="44.09489" lon="7.05744">
        <ele>997</ele>
        <time>2022-07-26T12:42:19Z</time>
      </trkpt>
      <trkpt lat="44.0949" lon="7.05743">
        <ele>997</ele>
        <time>2022-07-26T12:42:20Z</time>
      </trkpt>
      <trkpt lat="44.09492" lon="7.05742">
        <ele>997</ele>
        <time>2022-07-26T12:42:21Z</time>
      </trkpt>
      <trkpt lat="44.09492" lon="7.05743">
        <ele>998</ele>
        <time>2022-07-26T12:42:22Z</time>
      </trkpt>
      <trkpt lat="44.09493" lon="7.05743">
        <ele>998</ele>
        <time>2022-07-26T12:42:23Z</time>
      </trkpt>
      <trkpt lat="44.09496" lon="7.05742">
        <ele>1001</ele>
        <time>2022-07-26T12:42:44Z</time>
      </trkpt>
      <trkpt lat="44.09497" lon="7.05741">
        <ele>1001</ele>
        <time>2022-07-26T12:42:45Z</time>
      </trkpt>
      <trkpt lat="44.09499" lon="7.05741">
        <ele>1001</ele>
        <time>2022-07-26T12:42:46Z</time>
      </trkpt>
      <trkpt lat="44.095" lon="7.0574">
        <ele>1002</ele>
        <time>2022-07-26T12:42:47Z</time>
      </trkpt>
      <trkpt lat="44.09501" lon="7.0574">
        <ele>1002</ele>
        <time>2022-07-26T12:42:48Z</time>
      </trkpt>
      <trkpt lat="44.09502" lon="7.0574">
        <ele>1002</ele>
        <time>2022-07-26T12:42:49Z</time>
      </trkpt>
      <trkpt lat="44.09503" lon="7.05739">
        <ele>1002</ele>
        <time>2022-07-26T12:42:50Z</time>
      </trkpt>
      <trkpt lat="44.09503" lon="7.05739">
        <ele>1002</ele>
        <time>2022-07-26T12:42:51Z</time>
      </trkpt>
      <trkpt lat="44.09503" lon="7.05739">
        <ele>1003</ele>
        <time>2022-07-26T12:42:52Z</time>
      </trkpt>
      <trkpt lat="44.09503" lon="7.05739">
        <ele>1003</ele>
        <time>2022-07-26T12:42:53Z</time>
      </trkpt>
      <trkpt lat="44.09503" lon="7.05739">
        <ele>1003</ele>
        <time>2022-07-26T12:42:54Z</time>
      </trkpt>
      <trkpt lat="44.09504" lon="7.05739">
        <ele>1003</ele>
        <time>2022-07-26T12:42:55Z</time>
      </trkpt>
      <trkpt lat="44.09504" lon="7.05739">
        <ele>1003</ele>
        <time>2022-07-26T12:42:56Z</time>
      </trkpt>
      <trkpt lat="44.09505" lon="7.05739">
        <ele>1004</ele>
        <time>2022-07-26T12:42:57Z</time>
      </trkpt>
      <trkpt lat="44.09506" lon="7.05739">
        <ele>1004</ele>
        <time>2022-07-26T12:42:58Z</time>
      </trkpt>
      <trkpt lat="44.09506" lon="7.05739">
        <ele>1004</ele>
        <time>2022-07-26T12:42:59Z</time>
      </trkpt>
      <trkpt lat="44.09507" lon="7.05739">
        <ele>1004</ele>
        <time>2022-07-26T12:43:00Z</time>
      </trkpt>
      <trkpt lat="44.09508" lon="7.05739">
        <ele>1004</ele>
        <time>2022-07-26T12:43:01Z</time>
      </trkpt>
      <trkpt lat="44.09508" lon="7.05739">
        <ele>1005</ele>
        <time>2022-07-26T12:43:02Z</time>
      </trkpt>
      <trkpt lat="44.09509" lon="7.05738">
        <ele>1005</ele>
        <time>2022-07-26T12:43:03Z</time>
      </trkpt>
      <trkpt lat="44.09509" lon="7.05738">
        <ele>1005</ele>
        <time>2022-07-26T12:43:04Z</time>
      </trkpt>
      <trkpt lat="44.0951" lon="7.05737">
        <ele>1005</ele>
        <time>2022-07-26T12:43:05Z</time>
      </trkpt>
      <trkpt lat="44.09511" lon="7.05737">
        <ele>1005</ele>
        <time>2022-07-26T12:43:06Z</time>
      </trkpt>
      <trkpt lat="44.09512" lon="7.05734">
        <ele>1006</ele>
        <time>2022-07-26T12:43:13Z</time>
      </trkpt>
      <trkpt lat="44.09513" lon="7.05733">
        <ele>1006</ele>
        <time>2022-07-26T12:43:14Z</time>
      </trkpt>
      <trkpt lat="44.09513" lon="7.05732">
        <ele>1006</ele>
        <time>2022-07-26T12:43:15Z</time>
      </trkpt>
      <trkpt lat="44.09516" lon="7.05728">
        <ele>1010</ele>
        <time>2022-07-26T12:43:36Z</time>
      </trkpt>
      <trkpt lat="44.09518" lon="7.05727">
        <ele>1011</ele>
        <time>2022-07-26T12:43:37Z</time>
      </trkpt>
      <trkpt lat="44.09519" lon="7.05725">
        <ele>1011</ele>
        <time>2022-07-26T12:43:38Z</time>
      </trkpt>
      <trkpt lat="44.0952" lon="7.05724">
        <ele>1011</ele>
        <time>2022-07-26T12:43:39Z</time>
      </trkpt>
      <trkpt lat="44.09521" lon="7.05724">
        <ele>1011</ele>
        <time>2022-07-26T12:43:40Z</time>
      </trkpt>
      <trkpt lat="44.09522" lon="7.05723">
        <ele>1011</ele>
        <time>2022-07-26T12:43:41Z</time>
      </trkpt>
      <trkpt lat="44.09523" lon="7.05723">
        <ele>1012</ele>
        <time>2022-07-26T12:43:42Z</time>
      </trkpt>
      <trkpt lat="44.09524" lon="7.05722">
        <ele>1012</ele>
        <time>2022-07-26T12:43:43Z</time>
      </trkpt>
      <trkpt lat="44.09524" lon="7.05722">
        <ele>1012</ele>
        <time>2022-07-26T12:43:44Z</time>
      </trkpt>
      <trkpt lat="44.09525" lon="7.05721">
        <ele>1012</ele>
        <time>2022-07-26T12:43:45Z</time>
      </trkpt>
      <trkpt lat="44.09526" lon="7.05721">
        <ele>1012</ele>
        <time>2022-07-26T12:43:46Z</time>
      </trkpt>
      <trkpt lat="44.09528" lon="7.05722">
        <ele>1015</ele>
        <time>2022-07-26T12:44:00Z</time>
      </trkpt>
      <trkpt lat="44.09529" lon="7.05723">
        <ele>1015</ele>
        <time>2022-07-26T12:44:01Z</time>
      </trkpt>
      <trkpt lat="44.0953" lon="7.05723">
        <ele>1016</ele>
        <time>2022-07-26T12:44:02Z</time>
      </trkpt>
      <trkpt lat="44.09531" lon="7.05723">
        <ele>1016</ele>
        <time>2022-07-26T12:44:03Z</time>
      </trkpt>
      <trkpt lat="44.09532" lon="7.05723">
        <ele>1016</ele>
        <time>2022-07-26T12:44:04Z</time>
      </trkpt>
      <trkpt lat="44.09533" lon="7.05723">
        <ele>1016</ele>
        <time>2022-07-26T12:44:05Z</time>
      </trkpt>
      <trkpt lat="44.09534" lon="7.05723">
        <ele>1016</ele>
        <time>2022-07-26T12:44:06Z</time>
      </trkpt>
      <trkpt lat="44.09536" lon="7.05724">
        <ele>1019</ele>
        <time>2022-07-26T12:44:22Z</time>
      </trkpt>
      <trkpt lat="44.09537" lon="7.05724">
        <ele>1019</ele>
        <time>2022-07-26T12:44:23Z</time>
      </trkpt>
      <trkpt lat="44.09538" lon="7.05725">
        <ele>1019</ele>
        <time>2022-07-26T12:44:24Z</time>
      </trkpt>
      <trkpt lat="44.09539" lon="7.05725">
        <ele>1019</ele>
        <time>2022-07-26T12:44:25Z</time>
      </trkpt>
      <trkpt lat="44.09539" lon="7.05725">
        <ele>1019</ele>
        <time>2022-07-26T12:44:26Z</time>
      </trkpt>
      <trkpt lat="44.0954" lon="7.05726">
        <ele>1020</ele>
        <time>2022-07-26T12:44:27Z</time>
      </trkpt>
      <trkpt lat="44.09541" lon="7.05725">
        <ele>1020</ele>
        <time>2022-07-26T12:44:28Z</time>
      </trkpt>
      <trkpt lat="44.09541" lon="7.05725">
        <ele>1020</ele>
        <time>2022-07-26T12:44:29Z</time>
      </trkpt>
      <trkpt lat="44.09542" lon="7.05725">
        <ele>1020</ele>
        <time>2022-07-26T12:44:30Z</time>
      </trkpt>
      <trkpt lat="44.09542" lon="7.05725">
        <ele>1020</ele>
        <time>2022-07-26T12:44:31Z</time>
      </trkpt>
      <trkpt lat="44.09543" lon="7.05725">
        <ele>1021</ele>
        <time>2022-07-26T12:44:32Z</time>
      </trkpt>
      <trkpt lat="44.09543" lon="7.05725">
        <ele>1021</ele>
        <time>2022-07-26T12:44:33Z</time>
      </trkpt>
      <trkpt lat="44.09544" lon="7.05725">
        <ele>1021</ele>
        <time>2022-07-26T12:44:34Z</time>
      </trkpt>
      <trkpt lat="44.09544" lon="7.05726">
        <ele>1021</ele>
        <time>2022-07-26T12:44:35Z</time>
      </trkpt>
      <trkpt lat="44.09545" lon="7.05726">
        <ele>1021</ele>
        <time>2022-07-26T12:44:36Z</time>
      </trkpt>
      <trkpt lat="44.09545" lon="7.05726">
        <ele>1022</ele>
        <time>2022-07-26T12:44:37Z</time>
      </trkpt>
      <trkpt lat="44.09546" lon="7.05725">
        <ele>1022</ele>
        <time>2022-07-26T12:44:38Z</time>
      </trkpt>
      <trkpt lat="44.09546" lon="7.05725">
        <ele>1022</ele>
        <time>2022-07-26T12:44:39Z</time>
      </trkpt>
      <trkpt lat="44.09547" lon="7.05725">
        <ele>1022</ele>
        <time>2022-07-26T12:44:40Z</time>
      </trkpt>
      <trkpt lat="44.09548" lon="7.05724">
        <ele>1022</ele>
        <time>2022-07-26T12:44:41Z</time>
      </trkpt>
      <trkpt lat="44.09548" lon="7.05724">
        <ele>1022</ele>
        <time>2022-07-26T12:44:42Z</time>
      </trkpt>
      <trkpt lat="44.09549" lon="7.05723">
        <ele>1022</ele>
        <time>2022-07-26T12:44:43Z</time>
      </trkpt>
      <trkpt lat="44.09551" lon="7.05721">
        <ele>1023</ele>
        <time>2022-07-26T12:44:50Z</time>
      </trkpt>
      <trkpt lat="44.09552" lon="7.05721">
        <ele>1023</ele>
        <time>2022-07-26T12:44:51Z</time>
      </trkpt>
      <trkpt lat="44.09553" lon="7.05721">
        <ele>1024</ele>
        <time>2022-07-26T12:44:52Z</time>
      </trkpt>
      <trkpt lat="44.09553" lon="7.05721">
        <ele>1024</ele>
        <time>2022-07-26T12:44:53Z</time>
      </trkpt>
      <trkpt lat="44.09554" lon="7.05721">
        <ele>1024</ele>
        <time>2022-07-26T12:44:54Z</time>
      </trkpt>
      <trkpt lat="44.09554" lon="7.05721">
        <ele>1025</ele>
        <time>2022-07-26T12:44:55Z</time>
      </trkpt>
      <trkpt lat="44.09555" lon="7.05721">
        <ele>1025</ele>
        <time>2022-07-26T12:44:56Z</time>
      </trkpt>
      <trkpt lat="44.09555" lon="7.05721">
        <ele>1026</ele>
        <time>2022-07-26T12:44:57Z</time>
      </trkpt>
      <trkpt lat="44.09556" lon="7.05721">
        <ele>1026</ele>
        <time>2022-07-26T12:44:58Z</time>
      </trkpt>
      <trkpt lat="44.09557" lon="7.05721">
        <ele>1026</ele>
        <time>2022-07-26T12:44:59Z</time>
      </trkpt>
      <trkpt lat="44.09557" lon="7.05721">
        <ele>1026</ele>
        <time>2022-07-26T12:45:00Z</time>
      </trkpt>
      <trkpt lat="44.09558" lon="7.05721">
        <ele>1026</ele>
        <time>2022-07-26T12:45:01Z</time>
      </trkpt>
      <trkpt lat="44.09559" lon="7.05721">
        <ele>1027</ele>
        <time>2022-07-26T12:45:02Z</time>
      </trkpt>
      <trkpt lat="44.0956" lon="7.05721">
        <ele>1027</ele>
        <time>2022-07-26T12:45:03Z</time>
      </trkpt>
      <trkpt lat="44.09561" lon="7.0572">
        <ele>1027</ele>
        <time>2022-07-26T12:45:04Z</time>
      </trkpt>
      <trkpt lat="44.09561" lon="7.0572">
        <ele>1027</ele>
        <time>2022-07-26T12:45:05Z</time>
      </trkpt>
      <trkpt lat="44.09562" lon="7.0572">
        <ele>1027</ele>
        <time>2022-07-26T12:45:06Z</time>
      </trkpt>
      <trkpt lat="44.09563" lon="7.0572">
        <ele>1028</ele>
        <time>2022-07-26T12:45:07Z</time>
      </trkpt>
      <trkpt lat="44.09563" lon="7.0572">
        <ele>1028</ele>
        <time>2022-07-26T12:45:08Z</time>
      </trkpt>
      <trkpt lat="44.09564" lon="7.0572">
        <ele>1028</ele>
        <time>2022-07-26T12:45:09Z</time>
      </trkpt>
      <trkpt lat="44.09564" lon="7.0572">
        <ele>1028</ele>
        <time>2022-07-26T12:45:10Z</time>
      </trkpt>
      <trkpt lat="44.09565" lon="7.0572">
        <ele>1028</ele>
        <time>2022-07-26T12:45:11Z</time>
      </trkpt>
      <trkpt lat="44.09565" lon="7.0572">
        <ele>1029</ele>
        <time>2022-07-26T12:45:12Z</time>
      </trkpt>
      <trkpt lat="44.09566" lon="7.0572">
        <ele>1029</ele>
        <time>2022-07-26T12:45:13Z</time>
      </trkpt>
      <trkpt lat="44.09567" lon="7.0572">
        <ele>1029</ele>
        <time>2022-07-26T12:45:14Z</time>
      </trkpt>
      <trkpt lat="44.09567" lon="7.0572">
        <ele>1029</ele>
        <time>2022-07-26T12:45:15Z</time>
      </trkpt>
      <trkpt lat="44.09568" lon="7.0572">
        <ele>1029</ele>
        <time>2022-07-26T12:45:16Z</time>
      </trkpt>
      <trkpt lat="44.09569" lon="7.05719">
        <ele>1029</ele>
        <time>2022-07-26T12:45:17Z</time>
      </trkpt>
      <trkpt lat="44.09569" lon="7.05719">
        <ele>1029</ele>
        <time>2022-07-26T12:45:18Z</time>
      </trkpt>
      <trkpt lat="44.0957" lon="7.05719">
        <ele>1029</ele>
        <time>2022-07-26T12:45:19Z</time>
      </trkpt>
      <trkpt lat="44.09571" lon="7.05718">
        <ele>1029</ele>
        <time>2022-07-26T12:45:20Z</time>
      </trkpt>
      <trkpt lat="44.09572" lon="7.05718">
        <ele>1029</ele>
        <time>2022-07-26T12:45:21Z</time>
      </trkpt>
      <trkpt lat="44.09572" lon="7.05717">
        <ele>1030</ele>
        <time>2022-07-26T12:45:22Z</time>
      </trkpt>
      <trkpt lat="44.09573" lon="7.05716">
        <ele>1030</ele>
        <time>2022-07-26T12:45:23Z</time>
      </trkpt>
      <trkpt lat="44.09574" lon="7.05716">
        <ele>1030</ele>
        <time>2022-07-26T12:45:24Z</time>
      </trkpt>
      <trkpt lat="44.09575" lon="7.05715">
        <ele>1030</ele>
        <time>2022-07-26T12:45:25Z</time>
      </trkpt>
      <trkpt lat="44.09576" lon="7.05714">
        <ele>1032</ele>
        <time>2022-07-26T12:45:37Z</time>
      </trkpt>
      <trkpt lat="44.09577" lon="7.05714">
        <ele>1032</ele>
        <time>2022-07-26T12:45:38Z</time>
      </trkpt>
      <trkpt lat="44.09577" lon="7.05714">
        <ele>1032</ele>
        <time>2022-07-26T12:45:39Z</time>
      </trkpt>
      <trkpt lat="44.09578" lon="7.05713">
        <ele>1032</ele>
        <time>2022-07-26T12:45:40Z</time>
      </trkpt>
      <trkpt lat="44.09578" lon="7.05713">
        <ele>1032</ele>
        <time>2022-07-26T12:45:41Z</time>
      </trkpt>
      <trkpt lat="44.09579" lon="7.05713">
        <ele>1032</ele>
        <time>2022-07-26T12:45:42Z</time>
      </trkpt>
      <trkpt lat="44.09579" lon="7.05712">
        <ele>1035</ele>
        <time>2022-07-26T12:46:19Z</time>
      </trkpt>
      <trkpt lat="44.09579" lon="7.05712">
        <ele>1035</ele>
        <time>2022-07-26T12:46:20Z</time>
      </trkpt>
      <trkpt lat="44.09579" lon="7.05713">
        <ele>1035</ele>
        <time>2022-07-26T12:46:21Z</time>
      </trkpt>
      <trkpt lat="44.09579" lon="7.05713">
        <ele>1036</ele>
        <time>2022-07-26T12:46:22Z</time>
      </trkpt>
      <trkpt lat="44.09579" lon="7.05713">
        <ele>1036</ele>
        <time>2022-07-26T12:46:23Z</time>
      </trkpt>
      <trkpt lat="44.0958" lon="7.05714">
        <ele>1036</ele>
        <time>2022-07-26T12:46:24Z</time>
      </trkpt>
      <trkpt lat="44.0958" lon="7.05715">
        <ele>1036</ele>
        <time>2022-07-26T12:46:25Z</time>
      </trkpt>
      <trkpt lat="44.0958" lon="7.05716">
        <ele>1036</ele>
        <time>2022-07-26T12:46:26Z</time>
      </trkpt>
      <trkpt lat="44.0958" lon="7.05717">
        <ele>1036</ele>
        <time>2022-07-26T12:46:27Z</time>
      </trkpt>
      <trkpt lat="44.09581" lon="7.05718">
        <ele>1036</ele>
        <time>2022-07-26T12:46:28Z</time>
      </trkpt>
      <trkpt lat="44.09581" lon="7.05719">
        <ele>1036</ele>
        <time>2022-07-26T12:46:29Z</time>
      </trkpt>
      <trkpt lat="44.09581" lon="7.0572">
        <ele>1036</ele>
        <time>2022-07-26T12:46:30Z</time>
      </trkpt>
      <trkpt lat="44.09581" lon="7.05722">
        <ele>1036</ele>
        <time>2022-07-26T12:46:31Z</time>
      </trkpt>
      <trkpt lat="44.09581" lon="7.05723">
        <ele>1036</ele>
        <time>2022-07-26T12:46:32Z</time>
      </trkpt>
      <trkpt lat="44.09581" lon="7.05724">
        <ele>1036</ele>
        <time>2022-07-26T12:46:33Z</time>
      </trkpt>
      <trkpt lat="44.09581" lon="7.05725">
        <ele>1036</ele>
        <time>2022-07-26T12:46:34Z</time>
      </trkpt>
      <trkpt lat="44.09581" lon="7.05726">
        <ele>1036</ele>
        <time>2022-07-26T12:46:35Z</time>
      </trkpt>
      <trkpt lat="44.09581" lon="7.05727">
        <ele>1036</ele>
        <time>2022-07-26T12:46:36Z</time>
      </trkpt>
      <trkpt lat="44.09581" lon="7.05729">
        <ele>1037</ele>
        <time>2022-07-26T12:46:37Z</time>
      </trkpt>
      <trkpt lat="44.09581" lon="7.05729">
        <ele>1037</ele>
        <time>2022-07-26T12:46:38Z</time>
      </trkpt>
      <trkpt lat="44.09581" lon="7.0573">
        <ele>1037</ele>
        <time>2022-07-26T12:46:39Z</time>
      </trkpt>
      <trkpt lat="44.09581" lon="7.05731">
        <ele>1037</ele>
        <time>2022-07-26T12:46:40Z</time>
      </trkpt>
      <trkpt lat="44.09581" lon="7.05731">
        <ele>1037</ele>
        <time>2022-07-26T12:46:41Z</time>
      </trkpt>
      <trkpt lat="44.0958" lon="7.05732">
        <ele>1038</ele>
        <time>2022-07-26T12:46:42Z</time>
      </trkpt>
      <trkpt lat="44.0958" lon="7.05733">
        <ele>1038</ele>
        <time>2022-07-26T12:46:43Z</time>
      </trkpt>
      <trkpt lat="44.0958" lon="7.05734">
        <ele>1038</ele>
        <time>2022-07-26T12:46:44Z</time>
      </trkpt>
      <trkpt lat="44.09579" lon="7.05735">
        <ele>1038</ele>
        <time>2022-07-26T12:46:45Z</time>
      </trkpt>
      <trkpt lat="44.09579" lon="7.05736">
        <ele>1038</ele>
        <time>2022-07-26T12:46:46Z</time>
      </trkpt>
      <trkpt lat="44.09578" lon="7.05736">
        <ele>1038</ele>
        <time>2022-07-26T12:46:47Z</time>
      </trkpt>
      <trkpt lat="44.09577" lon="7.05737">
        <ele>1038</ele>
        <time>2022-07-26T12:46:48Z</time>
      </trkpt>
      <trkpt lat="44.09577" lon="7.05738">
        <ele>1038</ele>
        <time>2022-07-26T12:46:49Z</time>
      </trkpt>
      <trkpt lat="44.09576" lon="7.05739">
        <ele>1038</ele>
        <time>2022-07-26T12:46:50Z</time>
      </trkpt>
      <trkpt lat="44.09576" lon="7.0574">
        <ele>1038</ele>
        <time>2022-07-26T12:46:51Z</time>
      </trkpt>
      <trkpt lat="44.09575" lon="7.0574">
        <ele>1039</ele>
        <time>2022-07-26T12:46:52Z</time>
      </trkpt>
      <trkpt lat="44.09574" lon="7.05741">
        <ele>1039</ele>
        <time>2022-07-26T12:46:53Z</time>
      </trkpt>
      <trkpt lat="44.09574" lon="7.05743">
        <ele>1039</ele>
        <time>2022-07-26T12:46:54Z</time>
      </trkpt>
      <trkpt lat="44.09573" lon="7.05744">
        <ele>1039</ele>
        <time>2022-07-26T12:46:55Z</time>
      </trkpt>
      <trkpt lat="44.09572" lon="7.05745">
        <ele>1039</ele>
        <time>2022-07-26T12:46:56Z</time>
      </trkpt>
      <trkpt lat="44.09571" lon="7.05746">
        <ele>1039</ele>
        <time>2022-07-26T12:46:57Z</time>
      </trkpt>
      <trkpt lat="44.0957" lon="7.05748">
        <ele>1039</ele>
        <time>2022-07-26T12:46:58Z</time>
      </trkpt>
      <trkpt lat="44.0957" lon="7.05749">
        <ele>1039</ele>
        <time>2022-07-26T12:46:59Z</time>
      </trkpt>
      <trkpt lat="44.09569" lon="7.05751">
        <ele>1039</ele>
        <time>2022-07-26T12:47:00Z</time>
      </trkpt>
      <trkpt lat="44.09568" lon="7.05752">
        <ele>1039</ele>
        <time>2022-07-26T12:47:01Z</time>
      </trkpt>
      <trkpt lat="44.09567" lon="7.05753">
        <ele>1039</ele>
        <time>2022-07-26T12:47:02Z</time>
      </trkpt>
      <trkpt lat="44.09566" lon="7.05755">
        <ele>1039</ele>
        <time>2022-07-26T12:47:03Z</time>
      </trkpt>
      <trkpt lat="44.09566" lon="7.05756">
        <ele>1039</ele>
        <time>2022-07-26T12:47:04Z</time>
      </trkpt>
      <trkpt lat="44.09565" lon="7.05758">
        <ele>1039</ele>
        <time>2022-07-26T12:47:05Z</time>
      </trkpt>
      <trkpt lat="44.09565" lon="7.05759">
        <ele>1039</ele>
        <time>2022-07-26T12:47:06Z</time>
      </trkpt>
      <trkpt lat="44.09564" lon="7.0576">
        <ele>1039</ele>
        <time>2022-07-26T12:47:07Z</time>
      </trkpt>
      <trkpt lat="44.09563" lon="7.05761">
        <ele>1039</ele>
        <time>2022-07-26T12:47:08Z</time>
      </trkpt>
      <trkpt lat="44.09563" lon="7.05762">
        <ele>1039</ele>
        <time>2022-07-26T12:47:09Z</time>
      </trkpt>
      <trkpt lat="44.09562" lon="7.05763">
        <ele>1039</ele>
        <time>2022-07-26T12:47:10Z</time>
      </trkpt>
      <trkpt lat="44.09562" lon="7.05764">
        <ele>1039</ele>
        <time>2022-07-26T12:47:11Z</time>
      </trkpt>
      <trkpt lat="44.09561" lon="7.05766">
        <ele>1039</ele>
        <time>2022-07-26T12:47:12Z</time>
      </trkpt>
      <trkpt lat="44.09561" lon="7.05767">
        <ele>1039</ele>
        <time>2022-07-26T12:47:13Z</time>
      </trkpt>
      <trkpt lat="44.09561" lon="7.05768">
        <ele>1039</ele>
        <time>2022-07-26T12:47:14Z</time>
      </trkpt>
      <trkpt lat="44.0956" lon="7.05769">
        <ele>1039</ele>
        <time>2022-07-26T12:47:15Z</time>
      </trkpt>
      <trkpt lat="44.09559" lon="7.0577">
        <ele>1039</ele>
        <time>2022-07-26T12:47:16Z</time>
      </trkpt>
      <trkpt lat="44.09559" lon="7.05771">
        <ele>1039</ele>
        <time>2022-07-26T12:47:17Z</time>
      </trkpt>
      <trkpt lat="44.09558" lon="7.05772">
        <ele>1039</ele>
        <time>2022-07-26T12:47:18Z</time>
      </trkpt>
      <trkpt lat="44.09557" lon="7.05774">
        <ele>1039</ele>
        <time>2022-07-26T12:47:19Z</time>
      </trkpt>
      <trkpt lat="44.09556" lon="7.05774">
        <ele>1039</ele>
        <time>2022-07-26T12:47:20Z</time>
      </trkpt>
      <trkpt lat="44.09555" lon="7.05775">
        <ele>1039</ele>
        <time>2022-07-26T12:47:21Z</time>
      </trkpt>
      <trkpt lat="44.09554" lon="7.05776">
        <ele>1039</ele>
        <time>2022-07-26T12:47:22Z</time>
      </trkpt>
      <trkpt lat="44.09554" lon="7.05777">
        <ele>1039</ele>
        <time>2022-07-26T12:47:23Z</time>
      </trkpt>
      <trkpt lat="44.09553" lon="7.05778">
        <ele>1039</ele>
        <time>2022-07-26T12:47:24Z</time>
      </trkpt>
      <trkpt lat="44.09553" lon="7.05779">
        <ele>1039</ele>
        <time>2022-07-26T12:47:25Z</time>
      </trkpt>
      <trkpt lat="44.09552" lon="7.0578">
        <ele>1039</ele>
        <time>2022-07-26T12:47:26Z</time>
      </trkpt>
      <trkpt lat="44.09552" lon="7.05781">
        <ele>1039</ele>
        <time>2022-07-26T12:47:27Z</time>
      </trkpt>
      <trkpt lat="44.09552" lon="7.05782">
        <ele>1039</ele>
        <time>2022-07-26T12:47:28Z</time>
      </trkpt>
      <trkpt lat="44.09551" lon="7.05783">
        <ele>1039</ele>
        <time>2022-07-26T12:47:29Z</time>
      </trkpt>
      <trkpt lat="44.09551" lon="7.05784">
        <ele>1039</ele>
        <time>2022-07-26T12:47:30Z</time>
      </trkpt>
      <trkpt lat="44.0955" lon="7.05786">
        <ele>1039</ele>
        <time>2022-07-26T12:47:31Z</time>
      </trkpt>
      <trkpt lat="44.0955" lon="7.05787">
        <ele>1039</ele>
        <time>2022-07-26T12:47:32Z</time>
      </trkpt>
      <trkpt lat="44.0955" lon="7.05788">
        <ele>1039</ele>
        <time>2022-07-26T12:47:33Z</time>
      </trkpt>
      <trkpt lat="44.09549" lon="7.05789">
        <ele>1039</ele>
        <time>2022-07-26T12:47:34Z</time>
      </trkpt>
      <trkpt lat="44.09549" lon="7.0579">
        <ele>1039</ele>
        <time>2022-07-26T12:47:35Z</time>
      </trkpt>
      <trkpt lat="44.09548" lon="7.05791">
        <ele>1039</ele>
        <time>2022-07-26T12:47:36Z</time>
      </trkpt>
      <trkpt lat="44.09548" lon="7.05793">
        <ele>1039</ele>
        <time>2022-07-26T12:47:37Z</time>
      </trkpt>
      <trkpt lat="44.09547" lon="7.05794">
        <ele>1039</ele>
        <time>2022-07-26T12:47:38Z</time>
      </trkpt>
      <trkpt lat="44.09547" lon="7.05795">
        <ele>1039</ele>
        <time>2022-07-26T12:47:39Z</time>
      </trkpt>
      <trkpt lat="44.09546" lon="7.05795">
        <ele>1039</ele>
        <time>2022-07-26T12:47:40Z</time>
      </trkpt>
      <trkpt lat="44.09546" lon="7.05796">
        <ele>1039</ele>
        <time>2022-07-26T12:47:41Z</time>
      </trkpt>
      <trkpt lat="44.09546" lon="7.05797">
        <ele>1039</ele>
        <time>2022-07-26T12:47:42Z</time>
      </trkpt>
      <trkpt lat="44.09546" lon="7.05798">
        <ele>1039</ele>
        <time>2022-07-26T12:47:43Z</time>
      </trkpt>
      <trkpt lat="44.09545" lon="7.05799">
        <ele>1039</ele>
        <time>2022-07-26T12:47:44Z</time>
      </trkpt>
      <trkpt lat="44.09545" lon="7.058">
        <ele>1039</ele>
        <time>2022-07-26T12:47:45Z</time>
      </trkpt>
      <trkpt lat="44.09545" lon="7.05801">
        <ele>1039</ele>
        <time>2022-07-26T12:47:46Z</time>
      </trkpt>
      <trkpt lat="44.09545" lon="7.05802">
        <ele>1039</ele>
        <time>2022-07-26T12:47:47Z</time>
      </trkpt>
      <trkpt lat="44.09545" lon="7.05803">
        <ele>1039</ele>
        <time>2022-07-26T12:47:48Z</time>
      </trkpt>
      <trkpt lat="44.09545" lon="7.05804">
        <ele>1039</ele>
        <time>2022-07-26T12:47:49Z</time>
      </trkpt>
      <trkpt lat="44.09545" lon="7.05805">
        <ele>1039</ele>
        <time>2022-07-26T12:47:50Z</time>
      </trkpt>
      <trkpt lat="44.09545" lon="7.05805">
        <ele>1039</ele>
        <time>2022-07-26T12:47:51Z</time>
      </trkpt>
      <trkpt lat="44.09545" lon="7.05805">
        <ele>1039</ele>
        <time>2022-07-26T12:47:52Z</time>
      </trkpt>
      <trkpt lat="44.09545" lon="7.05806">
        <ele>1039</ele>
        <time>2022-07-26T12:47:53Z</time>
      </trkpt>
      <trkpt lat="44.09545" lon="7.05806">
        <ele>1039</ele>
        <time>2022-07-26T12:47:54Z</time>
      </trkpt>
      <trkpt lat="44.09545" lon="7.05807">
        <ele>1039</ele>
        <time>2022-07-26T12:47:55Z</time>
      </trkpt>
      <trkpt lat="44.09545" lon="7.05808">
        <ele>1039</ele>
        <time>2022-07-26T12:47:56Z</time>
      </trkpt>
      <trkpt lat="44.09545" lon="7.05809">
        <ele>1039</ele>
        <time>2022-07-26T12:47:57Z</time>
      </trkpt>
      <trkpt lat="44.09545" lon="7.05809">
        <ele>1039</ele>
        <time>2022-07-26T12:47:58Z</time>
      </trkpt>
      <trkpt lat="44.09544" lon="7.0581">
        <ele>1039</ele>
        <time>2022-07-26T12:47:59Z</time>
      </trkpt>
      <trkpt lat="44.09544" lon="7.05811">
        <ele>1039</ele>
        <time>2022-07-26T12:48:00Z</time>
      </trkpt>
      <trkpt lat="44.09543" lon="7.05811">
        <ele>1039</ele>
        <time>2022-07-26T12:48:01Z</time>
      </trkpt>
      <trkpt lat="44.09542" lon="7.05812">
        <ele>1039</ele>
        <time>2022-07-26T12:48:02Z</time>
      </trkpt>
      <trkpt lat="44.09541" lon="7.05813">
        <ele>1039</ele>
        <time>2022-07-26T12:48:03Z</time>
      </trkpt>
      <trkpt lat="44.0954" lon="7.05813">
        <ele>1039</ele>
        <time>2022-07-26T12:48:04Z</time>
      </trkpt>
      <trkpt lat="44.09539" lon="7.05814">
        <ele>1039</ele>
        <time>2022-07-26T12:48:05Z</time>
      </trkpt>
      <trkpt lat="44.09539" lon="7.05816">
        <ele>1039</ele>
        <time>2022-07-26T12:48:06Z</time>
      </trkpt>
      <trkpt lat="44.09538" lon="7.05817">
        <ele>1039</ele>
        <time>2022-07-26T12:48:07Z</time>
      </trkpt>
      <trkpt lat="44.09537" lon="7.05818">
        <ele>1039</ele>
        <time>2022-07-26T12:48:08Z</time>
      </trkpt>
      <trkpt lat="44.09536" lon="7.05819">
        <ele>1039</ele>
        <time>2022-07-26T12:48:09Z</time>
      </trkpt>
      <trkpt lat="44.09536" lon="7.0582">
        <ele>1039</ele>
        <time>2022-07-26T12:48:10Z</time>
      </trkpt>
      <trkpt lat="44.09535" lon="7.0582">
        <ele>1039</ele>
        <time>2022-07-26T12:48:11Z</time>
      </trkpt>
      <trkpt lat="44.09535" lon="7.05821">
        <ele>1039</ele>
        <time>2022-07-26T12:48:12Z</time>
      </trkpt>
      <trkpt lat="44.09534" lon="7.05821">
        <ele>1039</ele>
        <time>2022-07-26T12:48:13Z</time>
      </trkpt>
      <trkpt lat="44.09534" lon="7.05822">
        <ele>1039</ele>
        <time>2022-07-26T12:48:14Z</time>
      </trkpt>
      <trkpt lat="44.09533" lon="7.05823">
        <ele>1039</ele>
        <time>2022-07-26T12:48:15Z</time>
      </trkpt>
      <trkpt lat="44.09532" lon="7.05824">
        <ele>1039</ele>
        <time>2022-07-26T12:48:16Z</time>
      </trkpt>
      <trkpt lat="44.09531" lon="7.05825">
        <ele>1039</ele>
        <time>2022-07-26T12:48:17Z</time>
      </trkpt>
      <trkpt lat="44.09531" lon="7.05826">
        <ele>1039</ele>
        <time>2022-07-26T12:48:18Z</time>
      </trkpt>
      <trkpt lat="44.0953" lon="7.05827">
        <ele>1039</ele>
        <time>2022-07-26T12:48:19Z</time>
      </trkpt>
      <trkpt lat="44.0953" lon="7.05828">
        <ele>1039</ele>
        <time>2022-07-26T12:48:20Z</time>
      </trkpt>
      <trkpt lat="44.0953" lon="7.05829">
        <ele>1039</ele>
        <time>2022-07-26T12:48:21Z</time>
      </trkpt>
      <trkpt lat="44.0953" lon="7.0583">
        <ele>1039</ele>
        <time>2022-07-26T12:48:22Z</time>
      </trkpt>
      <trkpt lat="44.0953" lon="7.05831">
        <ele>1039</ele>
        <time>2022-07-26T12:48:23Z</time>
      </trkpt>
      <trkpt lat="44.0953" lon="7.05832">
        <ele>1039</ele>
        <time>2022-07-26T12:48:24Z</time>
      </trkpt>
      <trkpt lat="44.0953" lon="7.05833">
        <ele>1039</ele>
        <time>2022-07-26T12:48:25Z</time>
      </trkpt>
      <trkpt lat="44.0953" lon="7.05834">
        <ele>1039</ele>
        <time>2022-07-26T12:48:26Z</time>
      </trkpt>
      <trkpt lat="44.0953" lon="7.05834">
        <ele>1040</ele>
        <time>2022-07-26T12:48:27Z</time>
      </trkpt>
      <trkpt lat="44.0953" lon="7.05835">
        <ele>1040</ele>
        <time>2022-07-26T12:48:28Z</time>
      </trkpt>
      <trkpt lat="44.09529" lon="7.05836">
        <ele>1040</ele>
        <time>2022-07-26T12:48:29Z</time>
      </trkpt>
      <trkpt lat="44.0953" lon="7.05839">
        <ele>1040</ele>
        <time>2022-07-26T12:48:42Z</time>
      </trkpt>
      <trkpt lat="44.0953" lon="7.05841">
        <ele>1040</ele>
        <time>2022-07-26T12:48:43Z</time>
      </trkpt>
      <trkpt lat="44.0953" lon="7.05843">
        <ele>1040</ele>
        <time>2022-07-26T12:48:44Z</time>
      </trkpt>
      <trkpt lat="44.0953" lon="7.05844">
        <ele>1040</ele>
        <time>2022-07-26T12:48:45Z</time>
      </trkpt>
      <trkpt lat="44.09531" lon="7.05846">
        <ele>1040</ele>
        <time>2022-07-26T12:48:46Z</time>
      </trkpt>
      <trkpt lat="44.09531" lon="7.05847">
        <ele>1041</ele>
        <time>2022-07-26T12:48:47Z</time>
      </trkpt>
      <trkpt lat="44.09531" lon="7.05847">
        <ele>1041</ele>
        <time>2022-07-26T12:48:48Z</time>
      </trkpt>
      <trkpt lat="44.09531" lon="7.05848">
        <ele>1041</ele>
        <time>2022-07-26T12:48:49Z</time>
      </trkpt>
      <trkpt lat="44.09531" lon="7.05849">
        <ele>1041</ele>
        <time>2022-07-26T12:48:50Z</time>
      </trkpt>
      <trkpt lat="44.09531" lon="7.05851">
        <ele>1041</ele>
        <time>2022-07-26T12:48:51Z</time>
      </trkpt>
      <trkpt lat="44.09531" lon="7.05852">
        <ele>1041</ele>
        <time>2022-07-26T12:48:52Z</time>
      </trkpt>
      <trkpt lat="44.0953" lon="7.05854">
        <ele>1041</ele>
        <time>2022-07-26T12:48:53Z</time>
      </trkpt>
      <trkpt lat="44.0953" lon="7.05855">
        <ele>1041</ele>
        <time>2022-07-26T12:48:54Z</time>
      </trkpt>
      <trkpt lat="44.0953" lon="7.05857">
        <ele>1042</ele>
        <time>2022-07-26T12:48:55Z</time>
      </trkpt>
      <trkpt lat="44.09529" lon="7.05858">
        <ele>1042</ele>
        <time>2022-07-26T12:48:56Z</time>
      </trkpt>
      <trkpt lat="44.09529" lon="7.0586">
        <ele>1043</ele>
        <time>2022-07-26T12:48:57Z</time>
      </trkpt>
      <trkpt lat="44.09529" lon="7.05861">
        <ele>1043</ele>
        <time>2022-07-26T12:48:58Z</time>
      </trkpt>
      <trkpt lat="44.09528" lon="7.05863">
        <ele>1043</ele>
        <time>2022-07-26T12:48:59Z</time>
      </trkpt>
      <trkpt lat="44.09528" lon="7.05864">
        <ele>1043</ele>
        <time>2022-07-26T12:49:00Z</time>
      </trkpt>
      <trkpt lat="44.09528" lon="7.05866">
        <ele>1043</ele>
        <time>2022-07-26T12:49:01Z</time>
      </trkpt>
      <trkpt lat="44.09527" lon="7.05867">
        <ele>1043</ele>
        <time>2022-07-26T12:49:02Z</time>
      </trkpt>
      <trkpt lat="44.09527" lon="7.05869">
        <ele>1043</ele>
        <time>2022-07-26T12:49:03Z</time>
      </trkpt>
      <trkpt lat="44.09527" lon="7.0587">
        <ele>1043</ele>
        <time>2022-07-26T12:49:04Z</time>
      </trkpt>
      <trkpt lat="44.09527" lon="7.05871">
        <ele>1043</ele>
        <time>2022-07-26T12:49:05Z</time>
      </trkpt>
      <trkpt lat="44.09526" lon="7.05873">
        <ele>1043</ele>
        <time>2022-07-26T12:49:06Z</time>
      </trkpt>
      <trkpt lat="44.09526" lon="7.05874">
        <ele>1044</ele>
        <time>2022-07-26T12:49:07Z</time>
      </trkpt>
      <trkpt lat="44.09526" lon="7.05875">
        <ele>1044</ele>
        <time>2022-07-26T12:49:08Z</time>
      </trkpt>
      <trkpt lat="44.09525" lon="7.05876">
        <ele>1044</ele>
        <time>2022-07-26T12:49:09Z</time>
      </trkpt>
      <trkpt lat="44.09525" lon="7.05876">
        <ele>1044</ele>
        <time>2022-07-26T12:49:10Z</time>
      </trkpt>
      <trkpt lat="44.09524" lon="7.05877">
        <ele>1044</ele>
        <time>2022-07-26T12:49:11Z</time>
      </trkpt>
      <trkpt lat="44.09523" lon="7.05877">
        <ele>1044</ele>
        <time>2022-07-26T12:49:12Z</time>
      </trkpt>
      <trkpt lat="44.09523" lon="7.05877">
        <ele>1044</ele>
        <time>2022-07-26T12:49:13Z</time>
      </trkpt>
      <trkpt lat="44.09523" lon="7.05877">
        <ele>1044</ele>
        <time>2022-07-26T12:49:14Z</time>
      </trkpt>
      <trkpt lat="44.09522" lon="7.05878">
        <ele>1044</ele>
        <time>2022-07-26T12:49:15Z</time>
      </trkpt>
      <trkpt lat="44.09522" lon="7.05878">
        <ele>1044</ele>
        <time>2022-07-26T12:49:16Z</time>
      </trkpt>
      <trkpt lat="44.09522" lon="7.05878">
        <ele>1044</ele>
        <time>2022-07-26T12:49:17Z</time>
      </trkpt>
      <trkpt lat="44.09521" lon="7.05878">
        <ele>1044</ele>
        <time>2022-07-26T12:49:18Z</time>
      </trkpt>
      <trkpt lat="44.0952" lon="7.05879">
        <ele>1044</ele>
        <time>2022-07-26T12:49:19Z</time>
      </trkpt>
      <trkpt lat="44.0952" lon="7.0588">
        <ele>1044</ele>
        <time>2022-07-26T12:49:20Z</time>
      </trkpt>
      <trkpt lat="44.09519" lon="7.0588">
        <ele>1044</ele>
        <time>2022-07-26T12:49:21Z</time>
      </trkpt>
      <trkpt lat="44.09519" lon="7.05881">
        <ele>1044</ele>
        <time>2022-07-26T12:49:22Z</time>
      </trkpt>
      <trkpt lat="44.09518" lon="7.05882">
        <ele>1044</ele>
        <time>2022-07-26T12:49:23Z</time>
      </trkpt>
      <trkpt lat="44.09517" lon="7.05883">
        <ele>1044</ele>
        <time>2022-07-26T12:49:24Z</time>
      </trkpt>
      <trkpt lat="44.09517" lon="7.05884">
        <ele>1044</ele>
        <time>2022-07-26T12:49:25Z</time>
      </trkpt>
      <trkpt lat="44.09516" lon="7.05885">
        <ele>1044</ele>
        <time>2022-07-26T12:49:26Z</time>
      </trkpt>
      <trkpt lat="44.09516" lon="7.05886">
        <ele>1045</ele>
        <time>2022-07-26T12:49:27Z</time>
      </trkpt>
      <trkpt lat="44.09515" lon="7.05887">
        <ele>1045</ele>
        <time>2022-07-26T12:49:28Z</time>
      </trkpt>
      <trkpt lat="44.09514" lon="7.05888">
        <ele>1045</ele>
        <time>2022-07-26T12:49:29Z</time>
      </trkpt>
      <trkpt lat="44.09514" lon="7.05888">
        <ele>1045</ele>
        <time>2022-07-26T12:49:30Z</time>
      </trkpt>
      <trkpt lat="44.09513" lon="7.05889">
        <ele>1045</ele>
        <time>2022-07-26T12:49:31Z</time>
      </trkpt>
      <trkpt lat="44.09512" lon="7.05889">
        <ele>1045</ele>
        <time>2022-07-26T12:49:32Z</time>
      </trkpt>
      <trkpt lat="44.09512" lon="7.0589">
        <ele>1045</ele>
        <time>2022-07-26T12:49:33Z</time>
      </trkpt>
      <trkpt lat="44.09511" lon="7.0589">
        <ele>1045</ele>
        <time>2022-07-26T12:49:34Z</time>
      </trkpt>
      <trkpt lat="44.09511" lon="7.05891">
        <ele>1045</ele>
        <time>2022-07-26T12:49:35Z</time>
      </trkpt>
      <trkpt lat="44.0951" lon="7.05891">
        <ele>1045</ele>
        <time>2022-07-26T12:49:36Z</time>
      </trkpt>
      <trkpt lat="44.0951" lon="7.05892">
        <ele>1045</ele>
        <time>2022-07-26T12:49:37Z</time>
      </trkpt>
      <trkpt lat="44.09509" lon="7.05892">
        <ele>1045</ele>
        <time>2022-07-26T12:49:38Z</time>
      </trkpt>
      <trkpt lat="44.09509" lon="7.05893">
        <ele>1045</ele>
        <time>2022-07-26T12:49:39Z</time>
      </trkpt>
      <trkpt lat="44.09509" lon="7.05894">
        <ele>1045</ele>
        <time>2022-07-26T12:49:40Z</time>
      </trkpt>
      <trkpt lat="44.09509" lon="7.05894">
        <ele>1045</ele>
        <time>2022-07-26T12:49:41Z</time>
      </trkpt>
      <trkpt lat="44.09508" lon="7.05895">
        <ele>1046</ele>
        <time>2022-07-26T12:49:42Z</time>
      </trkpt>
      <trkpt lat="44.09508" lon="7.05895">
        <ele>1046</ele>
        <time>2022-07-26T12:49:43Z</time>
      </trkpt>
      <trkpt lat="44.09508" lon="7.05896">
        <ele>1046</ele>
        <time>2022-07-26T12:49:44Z</time>
      </trkpt>
      <trkpt lat="44.09507" lon="7.05896">
        <ele>1046</ele>
        <time>2022-07-26T12:49:45Z</time>
      </trkpt>
      <trkpt lat="44.09507" lon="7.05896">
        <ele>1046</ele>
        <time>2022-07-26T12:49:46Z</time>
      </trkpt>
      <trkpt lat="44.09507" lon="7.05896">
        <ele>1046</ele>
        <time>2022-07-26T12:49:47Z</time>
      </trkpt>
      <trkpt lat="44.09507" lon="7.05896">
        <ele>1046</ele>
        <time>2022-07-26T12:49:48Z</time>
      </trkpt>
      <trkpt lat="44.09506" lon="7.05896">
        <ele>1046</ele>
        <time>2022-07-26T12:49:49Z</time>
      </trkpt>
      <trkpt lat="44.09506" lon="7.05896">
        <ele>1046</ele>
        <time>2022-07-26T12:49:50Z</time>
      </trkpt>
      <trkpt lat="44.09505" lon="7.05896">
        <ele>1046</ele>
        <time>2022-07-26T12:49:51Z</time>
      </trkpt>
      <trkpt lat="44.09504" lon="7.05896">
        <ele>1047</ele>
        <time>2022-07-26T12:49:52Z</time>
      </trkpt>
      <trkpt lat="44.09504" lon="7.05896">
        <ele>1047</ele>
        <time>2022-07-26T12:49:53Z</time>
      </trkpt>
      <trkpt lat="44.09503" lon="7.05896">
        <ele>1047</ele>
        <time>2022-07-26T12:49:54Z</time>
      </trkpt>
      <trkpt lat="44.09503" lon="7.05896">
        <ele>1047</ele>
        <time>2022-07-26T12:49:55Z</time>
      </trkpt>
      <trkpt lat="44.09502" lon="7.05896">
        <ele>1047</ele>
        <time>2022-07-26T12:49:56Z</time>
      </trkpt>
      <trkpt lat="44.09502" lon="7.05896">
        <ele>1047</ele>
        <time>2022-07-26T12:49:57Z</time>
      </trkpt>
      <trkpt lat="44.09501" lon="7.05896">
        <ele>1047</ele>
        <time>2022-07-26T12:49:58Z</time>
      </trkpt>
      <trkpt lat="44.09501" lon="7.05896">
        <ele>1047</ele>
        <time>2022-07-26T12:49:59Z</time>
      </trkpt>
      <trkpt lat="44.095" lon="7.05896">
        <ele>1047</ele>
        <time>2022-07-26T12:50:00Z</time>
      </trkpt>
      <trkpt lat="44.095" lon="7.05896">
        <ele>1047</ele>
        <time>2022-07-26T12:50:01Z</time>
      </trkpt>
      <trkpt lat="44.09499" lon="7.05896">
        <ele>1048</ele>
        <time>2022-07-26T12:50:02Z</time>
      </trkpt>
      <trkpt lat="44.09499" lon="7.05897">
        <ele>1048</ele>
        <time>2022-07-26T12:50:03Z</time>
      </trkpt>
      <trkpt lat="44.09499" lon="7.05897">
        <ele>1048</ele>
        <time>2022-07-26T12:50:04Z</time>
      </trkpt>
      <trkpt lat="44.09499" lon="7.05897">
        <ele>1048</ele>
        <time>2022-07-26T12:50:05Z</time>
      </trkpt>
      <trkpt lat="44.09499" lon="7.05898">
        <ele>1048</ele>
        <time>2022-07-26T12:50:06Z</time>
      </trkpt>
      <trkpt lat="44.09499" lon="7.05898">
        <ele>1049</ele>
        <time>2022-07-26T12:50:07Z</time>
      </trkpt>
      <trkpt lat="44.09499" lon="7.05899">
        <ele>1049</ele>
        <time>2022-07-26T12:50:08Z</time>
      </trkpt>
      <trkpt lat="44.09499" lon="7.059">
        <ele>1049</ele>
        <time>2022-07-26T12:50:09Z</time>
      </trkpt>
      <trkpt lat="44.095" lon="7.05901">
        <ele>1049</ele>
        <time>2022-07-26T12:50:10Z</time>
      </trkpt>
      <trkpt lat="44.095" lon="7.05901">
        <ele>1049</ele>
        <time>2022-07-26T12:50:11Z</time>
      </trkpt>
      <trkpt lat="44.095" lon="7.05902">
        <ele>1049</ele>
        <time>2022-07-26T12:50:12Z</time>
      </trkpt>
      <trkpt lat="44.095" lon="7.05903">
        <ele>1049</ele>
        <time>2022-07-26T12:50:13Z</time>
      </trkpt>
      <trkpt lat="44.09501" lon="7.05904">
        <ele>1049</ele>
        <time>2022-07-26T12:50:14Z</time>
      </trkpt>
      <trkpt lat="44.09501" lon="7.05904">
        <ele>1049</ele>
        <time>2022-07-26T12:50:15Z</time>
      </trkpt>
      <trkpt lat="44.09501" lon="7.05905">
        <ele>1049</ele>
        <time>2022-07-26T12:50:16Z</time>
      </trkpt>
      <trkpt lat="44.09502" lon="7.05906">
        <ele>1050</ele>
        <time>2022-07-26T12:50:17Z</time>
      </trkpt>
      <trkpt lat="44.09502" lon="7.05907">
        <ele>1050</ele>
        <time>2022-07-26T12:50:18Z</time>
      </trkpt>
      <trkpt lat="44.09502" lon="7.05908">
        <ele>1050</ele>
        <time>2022-07-26T12:50:19Z</time>
      </trkpt>
      <trkpt lat="44.09502" lon="7.05909">
        <ele>1050</ele>
        <time>2022-07-26T12:50:20Z</time>
      </trkpt>
      <trkpt lat="44.09502" lon="7.0591">
        <ele>1050</ele>
        <time>2022-07-26T12:50:21Z</time>
      </trkpt>
      <trkpt lat="44.09503" lon="7.05911">
        <ele>1051</ele>
        <time>2022-07-26T12:50:22Z</time>
      </trkpt>
      <trkpt lat="44.09503" lon="7.05911">
        <ele>1051</ele>
        <time>2022-07-26T12:50:23Z</time>
      </trkpt>
      <trkpt lat="44.09503" lon="7.05912">
        <ele>1051</ele>
        <time>2022-07-26T12:50:24Z</time>
      </trkpt>
      <trkpt lat="44.09503" lon="7.05912">
        <ele>1051</ele>
        <time>2022-07-26T12:50:25Z</time>
      </trkpt>
      <trkpt lat="44.09503" lon="7.05913">
        <ele>1051</ele>
        <time>2022-07-26T12:50:26Z</time>
      </trkpt>
      <trkpt lat="44.09503" lon="7.05913">
        <ele>1052</ele>
        <time>2022-07-26T12:50:27Z</time>
      </trkpt>
      <trkpt lat="44.09503" lon="7.05914">
        <ele>1052</ele>
        <time>2022-07-26T12:50:28Z</time>
      </trkpt>
      <trkpt lat="44.09503" lon="7.05915">
        <ele>1052</ele>
        <time>2022-07-26T12:50:29Z</time>
      </trkpt>
      <trkpt lat="44.09503" lon="7.05916">
        <ele>1052</ele>
        <time>2022-07-26T12:50:30Z</time>
      </trkpt>
      <trkpt lat="44.09503" lon="7.05917">
        <ele>1052</ele>
        <time>2022-07-26T12:50:31Z</time>
      </trkpt>
      <trkpt lat="44.09502" lon="7.05918">
        <ele>1053</ele>
        <time>2022-07-26T12:50:32Z</time>
      </trkpt>
      <trkpt lat="44.09502" lon="7.05919">
        <ele>1053</ele>
        <time>2022-07-26T12:50:33Z</time>
      </trkpt>
      <trkpt lat="44.09502" lon="7.0592">
        <ele>1053</ele>
        <time>2022-07-26T12:50:34Z</time>
      </trkpt>
      <trkpt lat="44.09501" lon="7.05921">
        <ele>1053</ele>
        <time>2022-07-26T12:50:35Z</time>
      </trkpt>
      <trkpt lat="44.09501" lon="7.05922">
        <ele>1053</ele>
        <time>2022-07-26T12:50:36Z</time>
      </trkpt>
      <trkpt lat="44.09501" lon="7.05923">
        <ele>1054</ele>
        <time>2022-07-26T12:50:37Z</time>
      </trkpt>
      <trkpt lat="44.095" lon="7.05923">
        <ele>1054</ele>
        <time>2022-07-26T12:50:38Z</time>
      </trkpt>
      <trkpt lat="44.095" lon="7.05924">
        <ele>1054</ele>
        <time>2022-07-26T12:50:39Z</time>
      </trkpt>
      <trkpt lat="44.09499" lon="7.05925">
        <ele>1054</ele>
        <time>2022-07-26T12:50:40Z</time>
      </trkpt>
      <trkpt lat="44.09498" lon="7.05925">
        <ele>1054</ele>
        <time>2022-07-26T12:50:41Z</time>
      </trkpt>
      <trkpt lat="44.09498" lon="7.05926">
        <ele>1055</ele>
        <time>2022-07-26T12:50:42Z</time>
      </trkpt>
      <trkpt lat="44.09497" lon="7.05926">
        <ele>1055</ele>
        <time>2022-07-26T12:50:43Z</time>
      </trkpt>
      <trkpt lat="44.09496" lon="7.05927">
        <ele>1055</ele>
        <time>2022-07-26T12:50:44Z</time>
      </trkpt>
      <trkpt lat="44.09496" lon="7.05927">
        <ele>1055</ele>
        <time>2022-07-26T12:50:45Z</time>
      </trkpt>
      <trkpt lat="44.09495" lon="7.05927">
        <ele>1055</ele>
        <time>2022-07-26T12:50:46Z</time>
      </trkpt>
      <trkpt lat="44.09494" lon="7.05928">
        <ele>1056</ele>
        <time>2022-07-26T12:50:47Z</time>
      </trkpt>
      <trkpt lat="44.09494" lon="7.05928">
        <ele>1056</ele>
        <time>2022-07-26T12:50:48Z</time>
      </trkpt>
      <trkpt lat="44.09494" lon="7.05928">
        <ele>1056</ele>
        <time>2022-07-26T12:50:49Z</time>
      </trkpt>
      <trkpt lat="44.09493" lon="7.05929">
        <ele>1056</ele>
        <time>2022-07-26T12:50:50Z</time>
      </trkpt>
      <trkpt lat="44.09493" lon="7.05929">
        <ele>1056</ele>
        <time>2022-07-26T12:50:51Z</time>
      </trkpt>
      <trkpt lat="44.09492" lon="7.0593">
        <ele>1057</ele>
        <time>2022-07-26T12:50:52Z</time>
      </trkpt>
      <trkpt lat="44.09492" lon="7.0593">
        <ele>1057</ele>
        <time>2022-07-26T12:50:53Z</time>
      </trkpt>
      <trkpt lat="44.09492" lon="7.05931">
        <ele>1057</ele>
        <time>2022-07-26T12:50:54Z</time>
      </trkpt>
      <trkpt lat="44.09492" lon="7.05932">
        <ele>1057</ele>
        <time>2022-07-26T12:50:55Z</time>
      </trkpt>
      <trkpt lat="44.0949" lon="7.05934">
        <ele>1058</ele>
        <time>2022-07-26T12:51:02Z</time>
      </trkpt>
      <trkpt lat="44.0949" lon="7.05935">
        <ele>1058</ele>
        <time>2022-07-26T12:51:03Z</time>
      </trkpt>
      <trkpt lat="44.09489" lon="7.05936">
        <ele>1058</ele>
        <time>2022-07-26T12:51:04Z</time>
      </trkpt>
      <trkpt lat="44.09488" lon="7.0594">
        <ele>1060</ele>
        <time>2022-07-26T12:51:14Z</time>
      </trkpt>
      <trkpt lat="44.09487" lon="7.05941">
        <ele>1060</ele>
        <time>2022-07-26T12:51:15Z</time>
      </trkpt>
      <trkpt lat="44.09487" lon="7.05943">
        <ele>1060</ele>
        <time>2022-07-26T12:51:16Z</time>
      </trkpt>
      <trkpt lat="44.09487" lon="7.05944">
        <ele>1061</ele>
        <time>2022-07-26T12:51:17Z</time>
      </trkpt>
      <trkpt lat="44.09486" lon="7.05944">
        <ele>1061</ele>
        <time>2022-07-26T12:51:18Z</time>
      </trkpt>
      <trkpt lat="44.09486" lon="7.05945">
        <ele>1061</ele>
        <time>2022-07-26T12:51:19Z</time>
      </trkpt>
      <trkpt lat="44.09486" lon="7.05946">
        <ele>1061</ele>
        <time>2022-07-26T12:51:20Z</time>
      </trkpt>
      <trkpt lat="44.09485" lon="7.05946">
        <ele>1061</ele>
        <time>2022-07-26T12:51:21Z</time>
      </trkpt>
      <trkpt lat="44.09485" lon="7.05947">
        <ele>1062</ele>
        <time>2022-07-26T12:51:22Z</time>
      </trkpt>
      <trkpt lat="44.09485" lon="7.05947">
        <ele>1062</ele>
        <time>2022-07-26T12:51:23Z</time>
      </trkpt>
      <trkpt lat="44.09485" lon="7.05948">
        <ele>1062</ele>
        <time>2022-07-26T12:51:24Z</time>
      </trkpt>
      <trkpt lat="44.09484" lon="7.05949">
        <ele>1062</ele>
        <time>2022-07-26T12:51:25Z</time>
      </trkpt>
      <trkpt lat="44.09484" lon="7.0595">
        <ele>1062</ele>
        <time>2022-07-26T12:51:26Z</time>
      </trkpt>
      <trkpt lat="44.09484" lon="7.0595">
        <ele>1063</ele>
        <time>2022-07-26T12:51:27Z</time>
      </trkpt>
      <trkpt lat="44.09483" lon="7.05951">
        <ele>1063</ele>
        <time>2022-07-26T12:51:28Z</time>
      </trkpt>
      <trkpt lat="44.09483" lon="7.05951">
        <ele>1063</ele>
        <time>2022-07-26T12:51:29Z</time>
      </trkpt>
      <trkpt lat="44.09483" lon="7.05952">
        <ele>1063</ele>
        <time>2022-07-26T12:51:30Z</time>
      </trkpt>
      <trkpt lat="44.09482" lon="7.05953">
        <ele>1063</ele>
        <time>2022-07-26T12:51:31Z</time>
      </trkpt>
      <trkpt lat="44.09482" lon="7.05954">
        <ele>1063</ele>
        <time>2022-07-26T12:51:32Z</time>
      </trkpt>
      <trkpt lat="44.09481" lon="7.05955">
        <ele>1063</ele>
        <time>2022-07-26T12:51:33Z</time>
      </trkpt>
      <trkpt lat="44.09481" lon="7.05955">
        <ele>1063</ele>
        <time>2022-07-26T12:51:34Z</time>
      </trkpt>
      <trkpt lat="44.0948" lon="7.05956">
        <ele>1063</ele>
        <time>2022-07-26T12:51:35Z</time>
      </trkpt>
      <trkpt lat="44.0948" lon="7.05956">
        <ele>1063</ele>
        <time>2022-07-26T12:51:36Z</time>
      </trkpt>
      <trkpt lat="44.09479" lon="7.05957">
        <ele>1064</ele>
        <time>2022-07-26T12:51:37Z</time>
      </trkpt>
      <trkpt lat="44.09478" lon="7.05957">
        <ele>1064</ele>
        <time>2022-07-26T12:51:38Z</time>
      </trkpt>
      <trkpt lat="44.09478" lon="7.05958">
        <ele>1064</ele>
        <time>2022-07-26T12:51:39Z</time>
      </trkpt>
      <trkpt lat="44.09477" lon="7.05958">
        <ele>1064</ele>
        <time>2022-07-26T12:51:40Z</time>
      </trkpt>
      <trkpt lat="44.09477" lon="7.05958">
        <ele>1064</ele>
        <time>2022-07-26T12:51:41Z</time>
      </trkpt>
      <trkpt lat="44.09476" lon="7.05959">
        <ele>1065</ele>
        <time>2022-07-26T12:51:42Z</time>
      </trkpt>
      <trkpt lat="44.09475" lon="7.05959">
        <ele>1065</ele>
        <time>2022-07-26T12:51:43Z</time>
      </trkpt>
      <trkpt lat="44.09475" lon="7.0596">
        <ele>1065</ele>
        <time>2022-07-26T12:51:44Z</time>
      </trkpt>
      <trkpt lat="44.09474" lon="7.0596">
        <ele>1065</ele>
        <time>2022-07-26T12:51:45Z</time>
      </trkpt>
      <trkpt lat="44.09473" lon="7.05961">
        <ele>1065</ele>
        <time>2022-07-26T12:51:46Z</time>
      </trkpt>
      <trkpt lat="44.09472" lon="7.05961">
        <ele>1066</ele>
        <time>2022-07-26T12:51:47Z</time>
      </trkpt>
      <trkpt lat="44.09472" lon="7.05962">
        <ele>1066</ele>
        <time>2022-07-26T12:51:48Z</time>
      </trkpt>
      <trkpt lat="44.09471" lon="7.05963">
        <ele>1066</ele>
        <time>2022-07-26T12:51:49Z</time>
      </trkpt>
      <trkpt lat="44.0947" lon="7.05963">
        <ele>1066</ele>
        <time>2022-07-26T12:51:50Z</time>
      </trkpt>
      <trkpt lat="44.09469" lon="7.05964">
        <ele>1066</ele>
        <time>2022-07-26T12:51:51Z</time>
      </trkpt>
      <trkpt lat="44.09469" lon="7.05965">
        <ele>1066</ele>
        <time>2022-07-26T12:51:52Z</time>
      </trkpt>
      <trkpt lat="44.09468" lon="7.05966">
        <ele>1066</ele>
        <time>2022-07-26T12:51:53Z</time>
      </trkpt>
      <trkpt lat="44.09468" lon="7.05967">
        <ele>1066</ele>
        <time>2022-07-26T12:51:54Z</time>
      </trkpt>
      <trkpt lat="44.09467" lon="7.05968">
        <ele>1066</ele>
        <time>2022-07-26T12:51:55Z</time>
      </trkpt>
      <trkpt lat="44.09466" lon="7.05969">
        <ele>1067</ele>
        <time>2022-07-26T12:52:01Z</time>
      </trkpt>
      <trkpt lat="44.09465" lon="7.05969">
        <ele>1067</ele>
        <time>2022-07-26T12:52:02Z</time>
      </trkpt>
      <trkpt lat="44.09464" lon="7.0597">
        <ele>1067</ele>
        <time>2022-07-26T12:52:03Z</time>
      </trkpt>
      <trkpt lat="44.09464" lon="7.0597">
        <ele>1067</ele>
        <time>2022-07-26T12:52:04Z</time>
      </trkpt>
      <trkpt lat="44.09463" lon="7.05971">
        <ele>1067</ele>
        <time>2022-07-26T12:52:05Z</time>
      </trkpt>
      <trkpt lat="44.09463" lon="7.05972">
        <ele>1067</ele>
        <time>2022-07-26T12:52:06Z</time>
      </trkpt>
      <trkpt lat="44.09462" lon="7.05973">
        <ele>1067</ele>
        <time>2022-07-26T12:52:07Z</time>
      </trkpt>
      <trkpt lat="44.09462" lon="7.05973">
        <ele>1067</ele>
        <time>2022-07-26T12:52:08Z</time>
      </trkpt>
      <trkpt lat="44.09462" lon="7.05974">
        <ele>1067</ele>
        <time>2022-07-26T12:52:09Z</time>
      </trkpt>
      <trkpt lat="44.09462" lon="7.05974">
        <ele>1067</ele>
        <time>2022-07-26T12:52:10Z</time>
      </trkpt>
      <trkpt lat="44.09461" lon="7.05975">
        <ele>1067</ele>
        <time>2022-07-26T12:52:11Z</time>
      </trkpt>
      <trkpt lat="44.09461" lon="7.05976">
        <ele>1068</ele>
        <time>2022-07-26T12:52:12Z</time>
      </trkpt>
      <trkpt lat="44.09461" lon="7.05978">
        <ele>1068</ele>
        <time>2022-07-26T12:52:13Z</time>
      </trkpt>
      <trkpt lat="44.09461" lon="7.05979">
        <ele>1068</ele>
        <time>2022-07-26T12:52:14Z</time>
      </trkpt>
      <trkpt lat="44.09461" lon="7.0598">
        <ele>1068</ele>
        <time>2022-07-26T12:52:15Z</time>
      </trkpt>
      <trkpt lat="44.0946" lon="7.05981">
        <ele>1068</ele>
        <time>2022-07-26T12:52:16Z</time>
      </trkpt>
      <trkpt lat="44.0946" lon="7.05982">
        <ele>1068</ele>
        <time>2022-07-26T12:52:17Z</time>
      </trkpt>
      <trkpt lat="44.0946" lon="7.05983">
        <ele>1068</ele>
        <time>2022-07-26T12:52:18Z</time>
      </trkpt>
      <trkpt lat="44.09459" lon="7.05984">
        <ele>1068</ele>
        <time>2022-07-26T12:52:19Z</time>
      </trkpt>
      <trkpt lat="44.09459" lon="7.05984">
        <ele>1068</ele>
        <time>2022-07-26T12:52:20Z</time>
      </trkpt>
      <trkpt lat="44.09458" lon="7.05984">
        <ele>1068</ele>
        <time>2022-07-26T12:52:21Z</time>
      </trkpt>
      <trkpt lat="44.09458" lon="7.05985">
        <ele>1069</ele>
        <time>2022-07-26T12:52:22Z</time>
      </trkpt>
      <trkpt lat="44.09457" lon="7.05985">
        <ele>1069</ele>
        <time>2022-07-26T12:52:23Z</time>
      </trkpt>
      <trkpt lat="44.09456" lon="7.05984">
        <ele>1069</ele>
        <time>2022-07-26T12:52:24Z</time>
      </trkpt>
      <trkpt lat="44.09455" lon="7.05984">
        <ele>1069</ele>
        <time>2022-07-26T12:52:25Z</time>
      </trkpt>
      <trkpt lat="44.09454" lon="7.05984">
        <ele>1069</ele>
        <time>2022-07-26T12:52:26Z</time>
      </trkpt>
      <trkpt lat="44.09453" lon="7.05985">
        <ele>1069</ele>
        <time>2022-07-26T12:52:27Z</time>
      </trkpt>
      <trkpt lat="44.09452" lon="7.05985">
        <ele>1069</ele>
        <time>2022-07-26T12:52:28Z</time>
      </trkpt>
      <trkpt lat="44.09451" lon="7.05986">
        <ele>1069</ele>
        <time>2022-07-26T12:52:29Z</time>
      </trkpt>
      <trkpt lat="44.0945" lon="7.05987">
        <ele>1069</ele>
        <time>2022-07-26T12:52:30Z</time>
      </trkpt>
      <trkpt lat="44.09449" lon="7.05988">
        <ele>1069</ele>
        <time>2022-07-26T12:52:31Z</time>
      </trkpt>
      <trkpt lat="44.09448" lon="7.05988">
        <ele>1069</ele>
        <time>2022-07-26T12:52:32Z</time>
      </trkpt>
      <trkpt lat="44.09447" lon="7.05989">
        <ele>1069</ele>
        <time>2022-07-26T12:52:33Z</time>
      </trkpt>
      <trkpt lat="44.09446" lon="7.05989">
        <ele>1069</ele>
        <time>2022-07-26T12:52:34Z</time>
      </trkpt>
      <trkpt lat="44.09445" lon="7.0599">
        <ele>1069</ele>
        <time>2022-07-26T12:52:35Z</time>
      </trkpt>
      <trkpt lat="44.09444" lon="7.0599">
        <ele>1069</ele>
        <time>2022-07-26T12:52:36Z</time>
      </trkpt>
      <trkpt lat="44.09443" lon="7.05992">
        <ele>1070</ele>
        <time>2022-07-26T12:52:37Z</time>
      </trkpt>
      <trkpt lat="44.09443" lon="7.05993">
        <ele>1070</ele>
        <time>2022-07-26T12:52:38Z</time>
      </trkpt>
      <trkpt lat="44.09442" lon="7.05994">
        <ele>1070</ele>
        <time>2022-07-26T12:52:39Z</time>
      </trkpt>
      <trkpt lat="44.09442" lon="7.05996">
        <ele>1070</ele>
        <time>2022-07-26T12:52:40Z</time>
      </trkpt>
      <trkpt lat="44.09441" lon="7.05997">
        <ele>1070</ele>
        <time>2022-07-26T12:52:41Z</time>
      </trkpt>
      <trkpt lat="44.09441" lon="7.05998">
        <ele>1070</ele>
        <time>2022-07-26T12:52:42Z</time>
      </trkpt>
      <trkpt lat="44.09441" lon="7.05999">
        <ele>1070</ele>
        <time>2022-07-26T12:52:43Z</time>
      </trkpt>
      <trkpt lat="44.0944" lon="7.06">
        <ele>1070</ele>
        <time>2022-07-26T12:52:44Z</time>
      </trkpt>
      <trkpt lat="44.0944" lon="7.06001">
        <ele>1070</ele>
        <time>2022-07-26T12:52:45Z</time>
      </trkpt>
      <trkpt lat="44.09439" lon="7.06002">
        <ele>1070</ele>
        <time>2022-07-26T12:52:46Z</time>
      </trkpt>
      <trkpt lat="44.09439" lon="7.06003">
        <ele>1070</ele>
        <time>2022-07-26T12:52:47Z</time>
      </trkpt>
      <trkpt lat="44.09438" lon="7.06004">
        <ele>1070</ele>
        <time>2022-07-26T12:52:48Z</time>
      </trkpt>
      <trkpt lat="44.09438" lon="7.06004">
        <ele>1070</ele>
        <time>2022-07-26T12:52:49Z</time>
      </trkpt>
      <trkpt lat="44.09437" lon="7.06005">
        <ele>1070</ele>
        <time>2022-07-26T12:52:50Z</time>
      </trkpt>
      <trkpt lat="44.09437" lon="7.06005">
        <ele>1070</ele>
        <time>2022-07-26T12:52:51Z</time>
      </trkpt>
      <trkpt lat="44.09436" lon="7.06005">
        <ele>1070</ele>
        <time>2022-07-26T12:52:52Z</time>
      </trkpt>
      <trkpt lat="44.09436" lon="7.06005">
        <ele>1070</ele>
        <time>2022-07-26T12:52:53Z</time>
      </trkpt>
      <trkpt lat="44.09435" lon="7.06005">
        <ele>1070</ele>
        <time>2022-07-26T12:52:54Z</time>
      </trkpt>
      <trkpt lat="44.09435" lon="7.06005">
        <ele>1070</ele>
        <time>2022-07-26T12:52:55Z</time>
      </trkpt>
      <trkpt lat="44.09435" lon="7.06005">
        <ele>1070</ele>
        <time>2022-07-26T12:52:56Z</time>
      </trkpt>
      <trkpt lat="44.09434" lon="7.06006">
        <ele>1070</ele>
        <time>2022-07-26T12:52:57Z</time>
      </trkpt>
      <trkpt lat="44.09434" lon="7.06007">
        <ele>1070</ele>
        <time>2022-07-26T12:52:58Z</time>
      </trkpt>
      <trkpt lat="44.09434" lon="7.06008">
        <ele>1070</ele>
        <time>2022-07-26T12:52:59Z</time>
      </trkpt>
      <trkpt lat="44.09434" lon="7.06009">
        <ele>1070</ele>
        <time>2022-07-26T12:53:00Z</time>
      </trkpt>
      <trkpt lat="44.09433" lon="7.0601">
        <ele>1070</ele>
        <time>2022-07-26T12:53:01Z</time>
      </trkpt>
      <trkpt lat="44.09433" lon="7.06011">
        <ele>1070</ele>
        <time>2022-07-26T12:53:02Z</time>
      </trkpt>
      <trkpt lat="44.09433" lon="7.06011">
        <ele>1070</ele>
        <time>2022-07-26T12:53:03Z</time>
      </trkpt>
      <trkpt lat="44.09433" lon="7.06011">
        <ele>1070</ele>
        <time>2022-07-26T12:53:04Z</time>
      </trkpt>
      <trkpt lat="44.09433" lon="7.06011">
        <ele>1070</ele>
        <time>2022-07-26T12:53:05Z</time>
      </trkpt>
      <trkpt lat="44.09433" lon="7.06011">
        <ele>1070</ele>
        <time>2022-07-26T12:53:06Z</time>
      </trkpt>
      <trkpt lat="44.09432" lon="7.06012">
        <ele>1070</ele>
        <time>2022-07-26T12:53:07Z</time>
      </trkpt>
      <trkpt lat="44.09432" lon="7.06013">
        <ele>1070</ele>
        <time>2022-07-26T12:53:08Z</time>
      </trkpt>
      <trkpt lat="44.09432" lon="7.06014">
        <ele>1070</ele>
        <time>2022-07-26T12:53:09Z</time>
      </trkpt>
      <trkpt lat="44.09432" lon="7.06015">
        <ele>1070</ele>
        <time>2022-07-26T12:53:10Z</time>
      </trkpt>
      <trkpt lat="44.09431" lon="7.06016">
        <ele>1070</ele>
        <time>2022-07-26T12:53:11Z</time>
      </trkpt>
      <trkpt lat="44.09431" lon="7.06017">
        <ele>1071</ele>
        <time>2022-07-26T12:53:12Z</time>
      </trkpt>
      <trkpt lat="44.09431" lon="7.06018">
        <ele>1071</ele>
        <time>2022-07-26T12:53:13Z</time>
      </trkpt>
      <trkpt lat="44.09431" lon="7.06019">
        <ele>1071</ele>
        <time>2022-07-26T12:53:14Z</time>
      </trkpt>
      <trkpt lat="44.09431" lon="7.06021">
        <ele>1071</ele>
        <time>2022-07-26T12:53:15Z</time>
      </trkpt>
      <trkpt lat="44.09431" lon="7.06022">
        <ele>1071</ele>
        <time>2022-07-26T12:53:16Z</time>
      </trkpt>
      <trkpt lat="44.09431" lon="7.06024">
        <ele>1071</ele>
        <time>2022-07-26T12:53:25Z</time>
      </trkpt>
      <trkpt lat="44.09432" lon="7.06025">
        <ele>1071</ele>
        <time>2022-07-26T12:53:26Z</time>
      </trkpt>
      <trkpt lat="44.09432" lon="7.06026">
        <ele>1071</ele>
        <time>2022-07-26T12:53:27Z</time>
      </trkpt>
      <trkpt lat="44.09432" lon="7.06027">
        <ele>1071</ele>
        <time>2022-07-26T12:53:28Z</time>
      </trkpt>
      <trkpt lat="44.09432" lon="7.06028">
        <ele>1071</ele>
        <time>2022-07-26T12:53:29Z</time>
      </trkpt>
      <trkpt lat="44.09432" lon="7.06029">
        <ele>1071</ele>
        <time>2022-07-26T12:53:30Z</time>
      </trkpt>
      <trkpt lat="44.09433" lon="7.0603">
        <ele>1071</ele>
        <time>2022-07-26T12:53:31Z</time>
      </trkpt>
      <trkpt lat="44.09433" lon="7.06031">
        <ele>1072</ele>
        <time>2022-07-26T12:53:32Z</time>
      </trkpt>
      <trkpt lat="44.09432" lon="7.06032">
        <ele>1072</ele>
        <time>2022-07-26T12:53:33Z</time>
      </trkpt>
      <trkpt lat="44.09432" lon="7.06033">
        <ele>1072</ele>
        <time>2022-07-26T12:53:34Z</time>
      </trkpt>
      <trkpt lat="44.09432" lon="7.06034">
        <ele>1072</ele>
        <time>2022-07-26T12:53:35Z</time>
      </trkpt>
      <trkpt lat="44.09432" lon="7.06035">
        <ele>1072</ele>
        <time>2022-07-26T12:53:36Z</time>
      </trkpt>
      <trkpt lat="44.09431" lon="7.06036">
        <ele>1072</ele>
        <time>2022-07-26T12:53:37Z</time>
      </trkpt>
      <trkpt lat="44.0943" lon="7.06037">
        <ele>1072</ele>
        <time>2022-07-26T12:53:38Z</time>
      </trkpt>
      <trkpt lat="44.0943" lon="7.06039">
        <ele>1072</ele>
        <time>2022-07-26T12:53:39Z</time>
      </trkpt>
      <trkpt lat="44.09429" lon="7.0604">
        <ele>1072</ele>
        <time>2022-07-26T12:53:40Z</time>
      </trkpt>
      <trkpt lat="44.09428" lon="7.06041">
        <ele>1072</ele>
        <time>2022-07-26T12:53:41Z</time>
      </trkpt>
      <trkpt lat="44.09428" lon="7.06042">
        <ele>1073</ele>
        <time>2022-07-26T12:53:42Z</time>
      </trkpt>
      <trkpt lat="44.09427" lon="7.06042">
        <ele>1073</ele>
        <time>2022-07-26T12:53:43Z</time>
      </trkpt>
      <trkpt lat="44.09427" lon="7.06042">
        <ele>1073</ele>
        <time>2022-07-26T12:53:44Z</time>
      </trkpt>
      <trkpt lat="44.09427" lon="7.06043">
        <ele>1073</ele>
        <time>2022-07-26T12:53:45Z</time>
      </trkpt>
      <trkpt lat="44.09426" lon="7.06044">
        <ele>1073</ele>
        <time>2022-07-26T12:53:46Z</time>
      </trkpt>
      <trkpt lat="44.09425" lon="7.06048">
        <ele>1074</ele>
        <time>2022-07-26T12:53:59Z</time>
      </trkpt>
      <trkpt lat="44.09425" lon="7.06049">
        <ele>1074</ele>
        <time>2022-07-26T12:54:00Z</time>
      </trkpt>
      <trkpt lat="44.09424" lon="7.06051">
        <ele>1074</ele>
        <time>2022-07-26T12:54:01Z</time>
      </trkpt>
      <trkpt lat="44.09423" lon="7.06052">
        <ele>1075</ele>
        <time>2022-07-26T12:54:02Z</time>
      </trkpt>
      <trkpt lat="44.09423" lon="7.06053">
        <ele>1075</ele>
        <time>2022-07-26T12:54:03Z</time>
      </trkpt>
      <trkpt lat="44.09422" lon="7.06054">
        <ele>1078</ele>
        <time>2022-07-26T12:54:17Z</time>
      </trkpt>
      <trkpt lat="44.09421" lon="7.06055">
        <ele>1078</ele>
        <time>2022-07-26T12:54:18Z</time>
      </trkpt>
      <trkpt lat="44.0942" lon="7.06056">
        <ele>1078</ele>
        <time>2022-07-26T12:54:19Z</time>
      </trkpt>
      <trkpt lat="44.0942" lon="7.06057">
        <ele>1078</ele>
        <time>2022-07-26T12:54:20Z</time>
      </trkpt>
      <trkpt lat="44.09419" lon="7.06058">
        <ele>1078</ele>
        <time>2022-07-26T12:54:21Z</time>
      </trkpt>
      <trkpt lat="44.09419" lon="7.06058">
        <ele>1079</ele>
        <time>2022-07-26T12:54:22Z</time>
      </trkpt>
      <trkpt lat="44.09418" lon="7.06062">
        <ele>1082</ele>
        <time>2022-07-26T12:54:52Z</time>
      </trkpt>
      <trkpt lat="44.09418" lon="7.06064">
        <ele>1082</ele>
        <time>2022-07-26T12:54:53Z</time>
      </trkpt>
      <trkpt lat="44.09417" lon="7.06066">
        <ele>1082</ele>
        <time>2022-07-26T12:54:54Z</time>
      </trkpt>
      <trkpt lat="44.09417" lon="7.06068">
        <ele>1082</ele>
        <time>2022-07-26T12:54:55Z</time>
      </trkpt>
      <trkpt lat="44.09417" lon="7.0607">
        <ele>1082</ele>
        <time>2022-07-26T12:54:56Z</time>
      </trkpt>
      <trkpt lat="44.09415" lon="7.06076">
        <ele>1081</ele>
        <time>2022-07-26T12:55:33Z</time>
      </trkpt>
      <trkpt lat="44.09415" lon="7.0608">
        <ele>1081</ele>
        <time>2022-07-26T12:55:34Z</time>
      </trkpt>
      <trkpt lat="44.09414" lon="7.06083">
        <ele>1081</ele>
        <time>2022-07-26T12:55:35Z</time>
      </trkpt>
      <trkpt lat="44.09413" lon="7.06086">
        <ele>1081</ele>
        <time>2022-07-26T12:55:36Z</time>
      </trkpt>
      <trkpt lat="44.09413" lon="7.06088">
        <ele>1081</ele>
        <time>2022-07-26T12:55:37Z</time>
      </trkpt>
      <trkpt lat="44.09413" lon="7.0609">
        <ele>1081</ele>
        <time>2022-07-26T12:55:38Z</time>
      </trkpt>
      <trkpt lat="44.09413" lon="7.06091">
        <ele>1081</ele>
        <time>2022-07-26T12:55:39Z</time>
      </trkpt>
      <trkpt lat="44.09413" lon="7.06093">
        <ele>1081</ele>
        <time>2022-07-26T12:55:40Z</time>
      </trkpt>
      <trkpt lat="44.09414" lon="7.06094">
        <ele>1081</ele>
        <time>2022-07-26T12:55:41Z</time>
      </trkpt>
      <trkpt lat="44.09414" lon="7.06095">
        <ele>1081</ele>
        <time>2022-07-26T12:55:42Z</time>
      </trkpt>
      <trkpt lat="44.09414" lon="7.06095">
        <ele>1080</ele>
        <time>2022-07-26T12:55:43Z</time>
      </trkpt>
      <trkpt lat="44.09414" lon="7.06096">
        <ele>1080</ele>
        <time>2022-07-26T12:55:44Z</time>
      </trkpt>
      <trkpt lat="44.09414" lon="7.06097">
        <ele>1080</ele>
        <time>2022-07-26T12:55:45Z</time>
      </trkpt>
      <trkpt lat="44.09414" lon="7.06097">
        <ele>1080</ele>
        <time>2022-07-26T12:55:46Z</time>
      </trkpt>
      <trkpt lat="44.09414" lon="7.06098">
        <ele>1080</ele>
        <time>2022-07-26T12:55:47Z</time>
      </trkpt>
      <trkpt lat="44.09413" lon="7.06099">
        <ele>1079</ele>
        <time>2022-07-26T12:55:48Z</time>
      </trkpt>
      <trkpt lat="44.09413" lon="7.06099">
        <ele>1079</ele>
        <time>2022-07-26T12:55:49Z</time>
      </trkpt>
      <trkpt lat="44.09413" lon="7.061">
        <ele>1079</ele>
        <time>2022-07-26T12:55:50Z</time>
      </trkpt>
      <trkpt lat="44.09412" lon="7.06101">
        <ele>1079</ele>
        <time>2022-07-26T12:55:51Z</time>
      </trkpt>
      <trkpt lat="44.09412" lon="7.06101">
        <ele>1079</ele>
        <time>2022-07-26T12:55:52Z</time>
      </trkpt>
      <trkpt lat="44.09412" lon="7.06102">
        <ele>1078</ele>
        <time>2022-07-26T12:55:53Z</time>
      </trkpt>
      <trkpt lat="44.09411" lon="7.06103">
        <ele>1078</ele>
        <time>2022-07-26T12:55:54Z</time>
      </trkpt>
      <trkpt lat="44.09411" lon="7.06105">
        <ele>1078</ele>
        <time>2022-07-26T12:55:55Z</time>
      </trkpt>
      <trkpt lat="44.09411" lon="7.06106">
        <ele>1078</ele>
        <time>2022-07-26T12:55:56Z</time>
      </trkpt>
      <trkpt lat="44.09411" lon="7.06107">
        <ele>1078</ele>
        <time>2022-07-26T12:55:57Z</time>
      </trkpt>
      <trkpt lat="44.0941" lon="7.06109">
        <ele>1077</ele>
        <time>2022-07-26T12:55:58Z</time>
      </trkpt>
      <trkpt lat="44.0941" lon="7.0611">
        <ele>1077</ele>
        <time>2022-07-26T12:55:59Z</time>
      </trkpt>
      <trkpt lat="44.0941" lon="7.06111">
        <ele>1077</ele>
        <time>2022-07-26T12:56:00Z</time>
      </trkpt>
      <trkpt lat="44.09409" lon="7.06112">
        <ele>1077</ele>
        <time>2022-07-26T12:56:01Z</time>
      </trkpt>
      <trkpt lat="44.09408" lon="7.06112">
        <ele>1077</ele>
        <time>2022-07-26T12:56:02Z</time>
      </trkpt>
      <trkpt lat="44.09407" lon="7.06113">
        <ele>1076</ele>
        <time>2022-07-26T12:56:03Z</time>
      </trkpt>
      <trkpt lat="44.09407" lon="7.06114">
        <ele>1076</ele>
        <time>2022-07-26T12:56:04Z</time>
      </trkpt>
      <trkpt lat="44.09406" lon="7.06114">
        <ele>1075</ele>
        <time>2022-07-26T12:56:05Z</time>
      </trkpt>
      <trkpt lat="44.09405" lon="7.06115">
        <ele>1075</ele>
        <time>2022-07-26T12:56:06Z</time>
      </trkpt>
      <trkpt lat="44.09404" lon="7.06115">
        <ele>1075</ele>
        <time>2022-07-26T12:56:07Z</time>
      </trkpt>
      <trkpt lat="44.09403" lon="7.06115">
        <ele>1075</ele>
        <time>2022-07-26T12:56:08Z</time>
      </trkpt>
      <trkpt lat="44.09403" lon="7.06116">
        <ele>1075</ele>
        <time>2022-07-26T12:56:09Z</time>
      </trkpt>
      <trkpt lat="44.09402" lon="7.06116">
        <ele>1075</ele>
        <time>2022-07-26T12:56:10Z</time>
      </trkpt>
      <trkpt lat="44.09402" lon="7.06117">
        <ele>1075</ele>
        <time>2022-07-26T12:56:11Z</time>
      </trkpt>
      <trkpt lat="44.09401" lon="7.06117">
        <ele>1075</ele>
        <time>2022-07-26T12:56:12Z</time>
      </trkpt>
      <trkpt lat="44.09401" lon="7.06118">
        <ele>1074</ele>
        <time>2022-07-26T12:56:13Z</time>
      </trkpt>
      <trkpt lat="44.094" lon="7.06119">
        <ele>1072</ele>
        <time>2022-07-26T12:57:28Z</time>
      </trkpt>
      <trkpt lat="44.09401" lon="7.0612">
        <ele>1072</ele>
        <time>2022-07-26T12:57:29Z</time>
      </trkpt>
      <trkpt lat="44.09401" lon="7.06121">
        <ele>1072</ele>
        <time>2022-07-26T12:57:30Z</time>
      </trkpt>
      <trkpt lat="44.09401" lon="7.06121">
        <ele>1072</ele>
        <time>2022-07-26T12:57:31Z</time>
      </trkpt>
      <trkpt lat="44.09402" lon="7.06121">
        <ele>1073</ele>
        <time>2022-07-26T12:57:32Z</time>
      </trkpt>
      <trkpt lat="44.09403" lon="7.06122">
        <ele>1073</ele>
        <time>2022-07-26T12:58:11Z</time>
      </trkpt>
      <trkpt lat="44.09404" lon="7.06122">
        <ele>1073</ele>
        <time>2022-07-26T12:58:12Z</time>
      </trkpt>
      <trkpt lat="44.09404" lon="7.06122">
        <ele>1073</ele>
        <time>2022-07-26T12:58:13Z</time>
      </trkpt>
      <trkpt lat="44.09402" lon="7.06123">
        <ele>1073</ele>
        <time>2022-07-26T12:59:06Z</time>
      </trkpt>
      <trkpt lat="44.09401" lon="7.06123">
        <ele>1073</ele>
        <time>2022-07-26T12:59:07Z</time>
      </trkpt>
      <trkpt lat="44.094" lon="7.06123">
        <ele>1073</ele>
        <time>2022-07-26T12:59:08Z</time>
      </trkpt>
      <trkpt lat="44.09399" lon="7.06123">
        <ele>1073</ele>
        <time>2022-07-26T12:59:09Z</time>
      </trkpt>
      <trkpt lat="44.09398" lon="7.06123">
        <ele>1073</ele>
        <time>2022-07-26T12:59:10Z</time>
      </trkpt>
      <trkpt lat="44.09397" lon="7.06122">
        <ele>1074</ele>
        <time>2022-07-26T12:59:17Z</time>
      </trkpt>
      <trkpt lat="44.09396" lon="7.06123">
        <ele>1074</ele>
        <time>2022-07-26T12:59:18Z</time>
      </trkpt>
      <trkpt lat="44.09395" lon="7.06123">
        <ele>1074</ele>
        <time>2022-07-26T12:59:19Z</time>
      </trkpt>
      <trkpt lat="44.09394" lon="7.06123">
        <ele>1074</ele>
        <time>2022-07-26T12:59:20Z</time>
      </trkpt>
      <trkpt lat="44.09394" lon="7.06123">
        <ele>1074</ele>
        <time>2022-07-26T12:59:21Z</time>
      </trkpt>
      <trkpt lat="44.09393" lon="7.06124">
        <ele>1075</ele>
        <time>2022-07-26T12:59:22Z</time>
      </trkpt>
      <trkpt lat="44.09393" lon="7.06124">
        <ele>1075</ele>
        <time>2022-07-26T12:59:23Z</time>
      </trkpt>
      <trkpt lat="44.09392" lon="7.06125">
        <ele>1075</ele>
        <time>2022-07-26T12:59:24Z</time>
      </trkpt>
      <trkpt lat="44.09392" lon="7.06126">
        <ele>1076</ele>
        <time>2022-07-26T12:59:25Z</time>
      </trkpt>
      <trkpt lat="44.09392" lon="7.06126">
        <ele>1076</ele>
        <time>2022-07-26T12:59:26Z</time>
      </trkpt>
      <trkpt lat="44.09392" lon="7.06127">
        <ele>1077</ele>
        <time>2022-07-26T12:59:27Z</time>
      </trkpt>
      <trkpt lat="44.09391" lon="7.06127">
        <ele>1077</ele>
        <time>2022-07-26T12:59:28Z</time>
      </trkpt>
      <trkpt lat="44.09391" lon="7.06128">
        <ele>1077</ele>
        <time>2022-07-26T12:59:29Z</time>
      </trkpt>
      <trkpt lat="44.09391" lon="7.06129">
        <ele>1077</ele>
        <time>2022-07-26T12:59:30Z</time>
      </trkpt>
      <trkpt lat="44.09391" lon="7.0613">
        <ele>1077</ele>
        <time>2022-07-26T12:59:31Z</time>
      </trkpt>
      <trkpt lat="44.0939" lon="7.06131">
        <ele>1077</ele>
        <time>2022-07-26T12:59:32Z</time>
      </trkpt>
      <trkpt lat="44.0939" lon="7.06132">
        <ele>1077</ele>
        <time>2022-07-26T12:59:33Z</time>
      </trkpt>
      <trkpt lat="44.09389" lon="7.06133">
        <ele>1077</ele>
        <time>2022-07-26T12:59:34Z</time>
      </trkpt>
      <trkpt lat="44.09388" lon="7.06135">
        <ele>1077</ele>
        <time>2022-07-26T12:59:35Z</time>
      </trkpt>
      <trkpt lat="44.09388" lon="7.06136">
        <ele>1077</ele>
        <time>2022-07-26T12:59:36Z</time>
      </trkpt>
      <trkpt lat="44.09387" lon="7.06138">
        <ele>1078</ele>
        <time>2022-07-26T12:59:37Z</time>
      </trkpt>
      <trkpt lat="44.09386" lon="7.0614">
        <ele>1078</ele>
        <time>2022-07-26T12:59:38Z</time>
      </trkpt>
      <trkpt lat="44.09385" lon="7.06142">
        <ele>1078</ele>
        <time>2022-07-26T12:59:39Z</time>
      </trkpt>
      <trkpt lat="44.09384" lon="7.06145">
        <ele>1078</ele>
        <time>2022-07-26T12:59:40Z</time>
      </trkpt>
      <trkpt lat="44.09383" lon="7.06147">
        <ele>1078</ele>
        <time>2022-07-26T12:59:41Z</time>
      </trkpt>
      <trkpt lat="44.09382" lon="7.06149">
        <ele>1078</ele>
        <time>2022-07-26T12:59:42Z</time>
      </trkpt>
      <trkpt lat="44.09381" lon="7.06151">
        <ele>1078</ele>
        <time>2022-07-26T12:59:43Z</time>
      </trkpt>
      <trkpt lat="44.09381" lon="7.06153">
        <ele>1078</ele>
        <time>2022-07-26T12:59:44Z</time>
      </trkpt>
      <trkpt lat="44.09381" lon="7.06155">
        <ele>1078</ele>
        <time>2022-07-26T12:59:45Z</time>
      </trkpt>
      <trkpt lat="44.0938" lon="7.06156">
        <ele>1078</ele>
        <time>2022-07-26T12:59:46Z</time>
      </trkpt>
      <trkpt lat="44.09379" lon="7.06158">
        <ele>1078</ele>
        <time>2022-07-26T12:59:47Z</time>
      </trkpt>
      <trkpt lat="44.09379" lon="7.06159">
        <ele>1078</ele>
        <time>2022-07-26T12:59:48Z</time>
      </trkpt>
      <trkpt lat="44.09378" lon="7.06161">
        <ele>1078</ele>
        <time>2022-07-26T12:59:49Z</time>
      </trkpt>
      <trkpt lat="44.09377" lon="7.06162">
        <ele>1078</ele>
        <time>2022-07-26T12:59:50Z</time>
      </trkpt>
      <trkpt lat="44.09377" lon="7.06163">
        <ele>1078</ele>
        <time>2022-07-26T12:59:51Z</time>
      </trkpt>
      <trkpt lat="44.09376" lon="7.06165">
        <ele>1078</ele>
        <time>2022-07-26T12:59:52Z</time>
      </trkpt>
      <trkpt lat="44.09375" lon="7.06166">
        <ele>1078</ele>
        <time>2022-07-26T12:59:53Z</time>
      </trkpt>
      <trkpt lat="44.09374" lon="7.06167">
        <ele>1078</ele>
        <time>2022-07-26T12:59:54Z</time>
      </trkpt>
      <trkpt lat="44.09374" lon="7.06168">
        <ele>1078</ele>
        <time>2022-07-26T12:59:55Z</time>
      </trkpt>
      <trkpt lat="44.09373" lon="7.06168">
        <ele>1078</ele>
        <time>2022-07-26T12:59:56Z</time>
      </trkpt>
      <trkpt lat="44.09372" lon="7.06169">
        <ele>1078</ele>
        <time>2022-07-26T12:59:57Z</time>
      </trkpt>
      <trkpt lat="44.09371" lon="7.06169">
        <ele>1078</ele>
        <time>2022-07-26T12:59:58Z</time>
      </trkpt>
      <trkpt lat="44.0937" lon="7.0617">
        <ele>1078</ele>
        <time>2022-07-26T12:59:59Z</time>
      </trkpt>
      <trkpt lat="44.09368" lon="7.0617">
        <ele>1078</ele>
        <time>2022-07-26T13:00:00Z</time>
      </trkpt>
      <trkpt lat="44.09367" lon="7.06169">
        <ele>1078</ele>
        <time>2022-07-26T13:00:01Z</time>
      </trkpt>
      <trkpt lat="44.09366" lon="7.06169">
        <ele>1078</ele>
        <time>2022-07-26T13:00:02Z</time>
      </trkpt>
      <trkpt lat="44.09365" lon="7.0617">
        <ele>1077</ele>
        <time>2022-07-26T13:00:16Z</time>
      </trkpt>
      <trkpt lat="44.09365" lon="7.0617">
        <ele>1077</ele>
        <time>2022-07-26T13:00:17Z</time>
      </trkpt>
      <trkpt lat="44.09364" lon="7.0617">
        <ele>1077</ele>
        <time>2022-07-26T13:00:18Z</time>
      </trkpt>
      <trkpt lat="44.09364" lon="7.0617">
        <ele>1077</ele>
        <time>2022-07-26T13:00:19Z</time>
      </trkpt>
      <trkpt lat="44.09363" lon="7.06171">
        <ele>1077</ele>
        <time>2022-07-26T13:00:20Z</time>
      </trkpt>
      <trkpt lat="44.09362" lon="7.06171">
        <ele>1077</ele>
        <time>2022-07-26T13:00:21Z</time>
      </trkpt>
      <trkpt lat="44.09361" lon="7.06172">
        <ele>1077</ele>
        <time>2022-07-26T13:00:22Z</time>
      </trkpt>
      <trkpt lat="44.09361" lon="7.06173">
        <ele>1077</ele>
        <time>2022-07-26T13:00:23Z</time>
      </trkpt>
      <trkpt lat="44.0936" lon="7.06173">
        <ele>1077</ele>
        <time>2022-07-26T13:00:24Z</time>
      </trkpt>
      <trkpt lat="44.09359" lon="7.06174">
        <ele>1077</ele>
        <time>2022-07-26T13:00:25Z</time>
      </trkpt>
      <trkpt lat="44.09358" lon="7.06175">
        <ele>1077</ele>
        <time>2022-07-26T13:00:26Z</time>
      </trkpt>
      <trkpt lat="44.09358" lon="7.06176">
        <ele>1077</ele>
        <time>2022-07-26T13:00:27Z</time>
      </trkpt>
      <trkpt lat="44.09357" lon="7.06177">
        <ele>1077</ele>
        <time>2022-07-26T13:00:28Z</time>
      </trkpt>
      <trkpt lat="44.09356" lon="7.06178">
        <ele>1077</ele>
        <time>2022-07-26T13:00:29Z</time>
      </trkpt>
      <trkpt lat="44.09356" lon="7.06179">
        <ele>1077</ele>
        <time>2022-07-26T13:00:30Z</time>
      </trkpt>
      <trkpt lat="44.09355" lon="7.06181">
        <ele>1077</ele>
        <time>2022-07-26T13:00:31Z</time>
      </trkpt>
      <trkpt lat="44.09354" lon="7.06182">
        <ele>1078</ele>
        <time>2022-07-26T13:00:32Z</time>
      </trkpt>
      <trkpt lat="44.09353" lon="7.06182">
        <ele>1078</ele>
        <time>2022-07-26T13:00:33Z</time>
      </trkpt>
      <trkpt lat="44.09353" lon="7.06183">
        <ele>1078</ele>
        <time>2022-07-26T13:00:34Z</time>
      </trkpt>
      <trkpt lat="44.09352" lon="7.06183">
        <ele>1078</ele>
        <time>2022-07-26T13:00:35Z</time>
      </trkpt>
      <trkpt lat="44.09351" lon="7.06184">
        <ele>1078</ele>
        <time>2022-07-26T13:00:36Z</time>
      </trkpt>
      <trkpt lat="44.0935" lon="7.06184">
        <ele>1078</ele>
        <time>2022-07-26T13:00:37Z</time>
      </trkpt>
      <trkpt lat="44.09348" lon="7.06184">
        <ele>1078</ele>
        <time>2022-07-26T13:00:38Z</time>
      </trkpt>
      <trkpt lat="44.09348" lon="7.06185">
        <ele>1078</ele>
        <time>2022-07-26T13:00:39Z</time>
      </trkpt>
      <trkpt lat="44.09347" lon="7.06186">
        <ele>1078</ele>
        <time>2022-07-26T13:00:40Z</time>
      </trkpt>
      <trkpt lat="44.09346" lon="7.06187">
        <ele>1078</ele>
        <time>2022-07-26T13:00:41Z</time>
      </trkpt>
      <trkpt lat="44.09345" lon="7.06188">
        <ele>1078</ele>
        <time>2022-07-26T13:00:42Z</time>
      </trkpt>
      <trkpt lat="44.09345" lon="7.0619">
        <ele>1078</ele>
        <time>2022-07-26T13:00:43Z</time>
      </trkpt>
      <trkpt lat="44.09345" lon="7.06191">
        <ele>1078</ele>
        <time>2022-07-26T13:00:44Z</time>
      </trkpt>
      <trkpt lat="44.09344" lon="7.06192">
        <ele>1078</ele>
        <time>2022-07-26T13:00:45Z</time>
      </trkpt>
      <trkpt lat="44.09344" lon="7.06193">
        <ele>1078</ele>
        <time>2022-07-26T13:00:46Z</time>
      </trkpt>
      <trkpt lat="44.09343" lon="7.06194">
        <ele>1078</ele>
        <time>2022-07-26T13:00:47Z</time>
      </trkpt>
      <trkpt lat="44.09343" lon="7.06195">
        <ele>1078</ele>
        <time>2022-07-26T13:00:48Z</time>
      </trkpt>
      <trkpt lat="44.09342" lon="7.06196">
        <ele>1078</ele>
        <time>2022-07-26T13:00:49Z</time>
      </trkpt>
      <trkpt lat="44.09342" lon="7.06196">
        <ele>1078</ele>
        <time>2022-07-26T13:00:50Z</time>
      </trkpt>
      <trkpt lat="44.09342" lon="7.06197">
        <ele>1078</ele>
        <time>2022-07-26T13:00:51Z</time>
      </trkpt>
      <trkpt lat="44.09341" lon="7.06197">
        <ele>1078</ele>
        <time>2022-07-26T13:00:52Z</time>
      </trkpt>
      <trkpt lat="44.0934" lon="7.06198">
        <ele>1077</ele>
        <time>2022-07-26T13:00:53Z</time>
      </trkpt>
      <trkpt lat="44.09339" lon="7.06199">
        <ele>1077</ele>
        <time>2022-07-26T13:00:54Z</time>
      </trkpt>
      <trkpt lat="44.09339" lon="7.06199">
        <ele>1077</ele>
        <time>2022-07-26T13:00:55Z</time>
      </trkpt>
      <trkpt lat="44.09338" lon="7.062">
        <ele>1077</ele>
        <time>2022-07-26T13:00:56Z</time>
      </trkpt>
      <trkpt lat="44.09337" lon="7.06201">
        <ele>1077</ele>
        <time>2022-07-26T13:00:57Z</time>
      </trkpt>
      <trkpt lat="44.09337" lon="7.06202">
        <ele>1077</ele>
        <time>2022-07-26T13:00:58Z</time>
      </trkpt>
      <trkpt lat="44.09336" lon="7.06203">
        <ele>1077</ele>
        <time>2022-07-26T13:00:59Z</time>
      </trkpt>
      <trkpt lat="44.09336" lon="7.06203">
        <ele>1077</ele>
        <time>2022-07-26T13:01:00Z</time>
      </trkpt>
      <trkpt lat="44.09336" lon="7.06204">
        <ele>1077</ele>
        <time>2022-07-26T13:01:01Z</time>
      </trkpt>
      <trkpt lat="44.09336" lon="7.06204">
        <ele>1077</ele>
        <time>2022-07-26T13:01:02Z</time>
      </trkpt>
      <trkpt lat="44.09337" lon="7.06205">
        <ele>1077</ele>
        <time>2022-07-26T13:01:03Z</time>
      </trkpt>
      <trkpt lat="44.09337" lon="7.06206">
        <ele>1077</ele>
        <time>2022-07-26T13:01:04Z</time>
      </trkpt>
      <trkpt lat="44.09337" lon="7.06207">
        <ele>1077</ele>
        <time>2022-07-26T13:01:05Z</time>
      </trkpt>
      <trkpt lat="44.09338" lon="7.06208">
        <ele>1077</ele>
        <time>2022-07-26T13:01:06Z</time>
      </trkpt>
      <trkpt lat="44.09338" lon="7.06209">
        <ele>1077</ele>
        <time>2022-07-26T13:01:07Z</time>
      </trkpt>
      <trkpt lat="44.09338" lon="7.0621">
        <ele>1077</ele>
        <time>2022-07-26T13:01:08Z</time>
      </trkpt>
      <trkpt lat="44.09338" lon="7.06211">
        <ele>1077</ele>
        <time>2022-07-26T13:01:09Z</time>
      </trkpt>
      <trkpt lat="44.09338" lon="7.06212">
        <ele>1077</ele>
        <time>2022-07-26T13:01:10Z</time>
      </trkpt>
      <trkpt lat="44.09338" lon="7.06213">
        <ele>1077</ele>
        <time>2022-07-26T13:01:11Z</time>
      </trkpt>
      <trkpt lat="44.09338" lon="7.06214">
        <ele>1077</ele>
        <time>2022-07-26T13:01:12Z</time>
      </trkpt>
      <trkpt lat="44.09338" lon="7.06215">
        <ele>1076</ele>
        <time>2022-07-26T13:01:13Z</time>
      </trkpt>
      <trkpt lat="44.09338" lon="7.06216">
        <ele>1076</ele>
        <time>2022-07-26T13:01:14Z</time>
      </trkpt>
      <trkpt lat="44.09338" lon="7.06216">
        <ele>1075</ele>
        <time>2022-07-26T13:01:15Z</time>
      </trkpt>
      <trkpt lat="44.09338" lon="7.06217">
        <ele>1075</ele>
        <time>2022-07-26T13:01:16Z</time>
      </trkpt>
      <trkpt lat="44.09338" lon="7.06218">
        <ele>1075</ele>
        <time>2022-07-26T13:01:17Z</time>
      </trkpt>
      <trkpt lat="44.09338" lon="7.0622">
        <ele>1075</ele>
        <time>2022-07-26T13:01:18Z</time>
      </trkpt>
      <trkpt lat="44.09337" lon="7.06221">
        <ele>1075</ele>
        <time>2022-07-26T13:01:19Z</time>
      </trkpt>
      <trkpt lat="44.09337" lon="7.06222">
        <ele>1075</ele>
        <time>2022-07-26T13:01:20Z</time>
      </trkpt>
      <trkpt lat="44.09337" lon="7.06223">
        <ele>1075</ele>
        <time>2022-07-26T13:01:21Z</time>
      </trkpt>
      <trkpt lat="44.09338" lon="7.06225">
        <ele>1075</ele>
        <time>2022-07-26T13:01:22Z</time>
      </trkpt>
      <trkpt lat="44.09338" lon="7.06226">
        <ele>1075</ele>
        <time>2022-07-26T13:01:23Z</time>
      </trkpt>
      <trkpt lat="44.09338" lon="7.06227">
        <ele>1075</ele>
        <time>2022-07-26T13:01:24Z</time>
      </trkpt>
      <trkpt lat="44.09338" lon="7.06228">
        <ele>1075</ele>
        <time>2022-07-26T13:01:25Z</time>
      </trkpt>
      <trkpt lat="44.09338" lon="7.06229">
        <ele>1075</ele>
        <time>2022-07-26T13:01:26Z</time>
      </trkpt>
      <trkpt lat="44.09338" lon="7.0623">
        <ele>1075</ele>
        <time>2022-07-26T13:01:27Z</time>
      </trkpt>
      <trkpt lat="44.09338" lon="7.06231">
        <ele>1075</ele>
        <time>2022-07-26T13:01:28Z</time>
      </trkpt>
      <trkpt lat="44.09338" lon="7.06231">
        <ele>1075</ele>
        <time>2022-07-26T13:01:29Z</time>
      </trkpt>
      <trkpt lat="44.09338" lon="7.06232">
        <ele>1075</ele>
        <time>2022-07-26T13:01:30Z</time>
      </trkpt>
      <trkpt lat="44.09339" lon="7.06234">
        <ele>1074</ele>
        <time>2022-07-26T13:01:38Z</time>
      </trkpt>
      <trkpt lat="44.09339" lon="7.06235">
        <ele>1074</ele>
        <time>2022-07-26T13:01:39Z</time>
      </trkpt>
      <trkpt lat="44.09339" lon="7.06236">
        <ele>1074</ele>
        <time>2022-07-26T13:01:40Z</time>
      </trkpt>
      <trkpt lat="44.09339" lon="7.06237">
        <ele>1074</ele>
        <time>2022-07-26T13:01:41Z</time>
      </trkpt>
      <trkpt lat="44.09339" lon="7.06238">
        <ele>1075</ele>
        <time>2022-07-26T13:01:42Z</time>
      </trkpt>
      <trkpt lat="44.09339" lon="7.06239">
        <ele>1075</ele>
        <time>2022-07-26T13:01:43Z</time>
      </trkpt>
      <trkpt lat="44.09339" lon="7.06239">
        <ele>1075</ele>
        <time>2022-07-26T13:01:44Z</time>
      </trkpt>
      <trkpt lat="44.09338" lon="7.0624">
        <ele>1075</ele>
        <time>2022-07-26T13:01:45Z</time>
      </trkpt>
      <trkpt lat="44.09338" lon="7.06241">
        <ele>1075</ele>
        <time>2022-07-26T13:01:46Z</time>
      </trkpt>
      <trkpt lat="44.09338" lon="7.06242">
        <ele>1075</ele>
        <time>2022-07-26T13:01:47Z</time>
      </trkpt>
      <trkpt lat="44.09338" lon="7.06242">
        <ele>1075</ele>
        <time>2022-07-26T13:01:48Z</time>
      </trkpt>
      <trkpt lat="44.09337" lon="7.06243">
        <ele>1075</ele>
        <time>2022-07-26T13:01:49Z</time>
      </trkpt>
      <trkpt lat="44.09337" lon="7.06244">
        <ele>1075</ele>
        <time>2022-07-26T13:01:50Z</time>
      </trkpt>
      <trkpt lat="44.09337" lon="7.06245">
        <ele>1075</ele>
        <time>2022-07-26T13:01:51Z</time>
      </trkpt>
      <trkpt lat="44.09336" lon="7.06245">
        <ele>1075</ele>
        <time>2022-07-26T13:01:52Z</time>
      </trkpt>
      <trkpt lat="44.09336" lon="7.06246">
        <ele>1075</ele>
        <time>2022-07-26T13:01:53Z</time>
      </trkpt>
      <trkpt lat="44.09336" lon="7.06246">
        <ele>1075</ele>
        <time>2022-07-26T13:01:54Z</time>
      </trkpt>
      <trkpt lat="44.09335" lon="7.06247">
        <ele>1075</ele>
        <time>2022-07-26T13:01:55Z</time>
      </trkpt>
      <trkpt lat="44.09335" lon="7.06247">
        <ele>1075</ele>
        <time>2022-07-26T13:01:56Z</time>
      </trkpt>
      <trkpt lat="44.09335" lon="7.06248">
        <ele>1075</ele>
        <time>2022-07-26T13:01:57Z</time>
      </trkpt>
      <trkpt lat="44.09334" lon="7.06249">
        <ele>1075</ele>
        <time>2022-07-26T13:01:58Z</time>
      </trkpt>
      <trkpt lat="44.09334" lon="7.06249">
        <ele>1075</ele>
        <time>2022-07-26T13:01:59Z</time>
      </trkpt>
      <trkpt lat="44.09334" lon="7.0625">
        <ele>1075</ele>
        <time>2022-07-26T13:02:00Z</time>
      </trkpt>
      <trkpt lat="44.09334" lon="7.0625">
        <ele>1075</ele>
        <time>2022-07-26T13:02:01Z</time>
      </trkpt>
      <trkpt lat="44.09334" lon="7.06251">
        <ele>1075</ele>
        <time>2022-07-26T13:02:02Z</time>
      </trkpt>
      <trkpt lat="44.09333" lon="7.0625">
        <ele>1075</ele>
        <time>2022-07-26T13:02:03Z</time>
      </trkpt>
      <trkpt lat="44.09333" lon="7.0625">
        <ele>1075</ele>
        <time>2022-07-26T13:02:04Z</time>
      </trkpt>
      <trkpt lat="44.09333" lon="7.0625">
        <ele>1076</ele>
        <time>2022-07-26T13:02:05Z</time>
      </trkpt>
      <trkpt lat="44.09333" lon="7.0625">
        <ele>1076</ele>
        <time>2022-07-26T13:02:06Z</time>
      </trkpt>
      <trkpt lat="44.09332" lon="7.0625">
        <ele>1077</ele>
        <time>2022-07-26T13:02:07Z</time>
      </trkpt>
      <trkpt lat="44.09332" lon="7.0625">
        <ele>1077</ele>
        <time>2022-07-26T13:02:08Z</time>
      </trkpt>
      <trkpt lat="44.09331" lon="7.0625">
        <ele>1077</ele>
        <time>2022-07-26T13:02:09Z</time>
      </trkpt>
      <trkpt lat="44.09331" lon="7.0625">
        <ele>1077</ele>
        <time>2022-07-26T13:02:10Z</time>
      </trkpt>
      <trkpt lat="44.0933" lon="7.06251">
        <ele>1077</ele>
        <time>2022-07-26T13:02:11Z</time>
      </trkpt>
      <trkpt lat="44.0933" lon="7.06251">
        <ele>1077</ele>
        <time>2022-07-26T13:02:12Z</time>
      </trkpt>
      <trkpt lat="44.09329" lon="7.06251">
        <ele>1077</ele>
        <time>2022-07-26T13:02:13Z</time>
      </trkpt>
      <trkpt lat="44.09328" lon="7.06252">
        <ele>1077</ele>
        <time>2022-07-26T13:02:14Z</time>
      </trkpt>
      <trkpt lat="44.09328" lon="7.06252">
        <ele>1077</ele>
        <time>2022-07-26T13:02:15Z</time>
      </trkpt>
      <trkpt lat="44.09327" lon="7.06253">
        <ele>1077</ele>
        <time>2022-07-26T13:02:16Z</time>
      </trkpt>
      <trkpt lat="44.09327" lon="7.06253">
        <ele>1078</ele>
        <time>2022-07-26T13:02:17Z</time>
      </trkpt>
      <trkpt lat="44.09326" lon="7.06254">
        <ele>1078</ele>
        <time>2022-07-26T13:02:18Z</time>
      </trkpt>
      <trkpt lat="44.09326" lon="7.06254">
        <ele>1078</ele>
        <time>2022-07-26T13:02:19Z</time>
      </trkpt>
      <trkpt lat="44.09325" lon="7.06255">
        <ele>1078</ele>
        <time>2022-07-26T13:02:20Z</time>
      </trkpt>
      <trkpt lat="44.09325" lon="7.06256">
        <ele>1078</ele>
        <time>2022-07-26T13:02:21Z</time>
      </trkpt>
      <trkpt lat="44.09324" lon="7.06256">
        <ele>1079</ele>
        <time>2022-07-26T13:02:22Z</time>
      </trkpt>
      <trkpt lat="44.09324" lon="7.06257">
        <ele>1079</ele>
        <time>2022-07-26T13:02:23Z</time>
      </trkpt>
      <trkpt lat="44.09323" lon="7.06258">
        <ele>1079</ele>
        <time>2022-07-26T13:02:24Z</time>
      </trkpt>
      <trkpt lat="44.09323" lon="7.06259">
        <ele>1079</ele>
        <time>2022-07-26T13:02:25Z</time>
      </trkpt>
      <trkpt lat="44.09323" lon="7.06261">
        <ele>1079</ele>
        <time>2022-07-26T13:02:26Z</time>
      </trkpt>
      <trkpt lat="44.09322" lon="7.06262">
        <ele>1080</ele>
        <time>2022-07-26T13:02:27Z</time>
      </trkpt>
      <trkpt lat="44.09322" lon="7.06263">
        <ele>1080</ele>
        <time>2022-07-26T13:02:28Z</time>
      </trkpt>
      <trkpt lat="44.09322" lon="7.06265">
        <ele>1080</ele>
        <time>2022-07-26T13:02:29Z</time>
      </trkpt>
      <trkpt lat="44.09322" lon="7.06266">
        <ele>1080</ele>
        <time>2022-07-26T13:02:30Z</time>
      </trkpt>
      <trkpt lat="44.09321" lon="7.06267">
        <ele>1080</ele>
        <time>2022-07-26T13:02:31Z</time>
      </trkpt>
      <trkpt lat="44.09321" lon="7.06268">
        <ele>1080</ele>
        <time>2022-07-26T13:02:32Z</time>
      </trkpt>
      <trkpt lat="44.0932" lon="7.06269">
        <ele>1082</ele>
        <time>2022-07-26T13:03:16Z</time>
      </trkpt>
      <trkpt lat="44.0932" lon="7.0627">
        <ele>1082</ele>
        <time>2022-07-26T13:03:17Z</time>
      </trkpt>
      <trkpt lat="44.09319" lon="7.06271">
        <ele>1082</ele>
        <time>2022-07-26T13:03:18Z</time>
      </trkpt>
      <trkpt lat="44.09319" lon="7.06271">
        <ele>1082</ele>
        <time>2022-07-26T13:03:19Z</time>
      </trkpt>
      <trkpt lat="44.09318" lon="7.06272">
        <ele>1082</ele>
        <time>2022-07-26T13:03:20Z</time>
      </trkpt>
      <trkpt lat="44.09318" lon="7.06273">
        <ele>1082</ele>
        <time>2022-07-26T13:03:21Z</time>
      </trkpt>
      <trkpt lat="44.09317" lon="7.06274">
        <ele>1082</ele>
        <time>2022-07-26T13:03:22Z</time>
      </trkpt>
      <trkpt lat="44.09316" lon="7.06275">
        <ele>1082</ele>
        <time>2022-07-26T13:03:23Z</time>
      </trkpt>
      <trkpt lat="44.09316" lon="7.06276">
        <ele>1082</ele>
        <time>2022-07-26T13:03:24Z</time>
      </trkpt>
      <trkpt lat="44.09315" lon="7.06276">
        <ele>1082</ele>
        <time>2022-07-26T13:03:25Z</time>
      </trkpt>
      <trkpt lat="44.09314" lon="7.06277">
        <ele>1082</ele>
        <time>2022-07-26T13:03:26Z</time>
      </trkpt>
      <trkpt lat="44.09313" lon="7.06278">
        <ele>1082</ele>
        <time>2022-07-26T13:03:27Z</time>
      </trkpt>
      <trkpt lat="44.09312" lon="7.06278">
        <ele>1082</ele>
        <time>2022-07-26T13:03:28Z</time>
      </trkpt>
      <trkpt lat="44.09311" lon="7.06279">
        <ele>1082</ele>
        <time>2022-07-26T13:03:29Z</time>
      </trkpt>
      <trkpt lat="44.0931" lon="7.06279">
        <ele>1082</ele>
        <time>2022-07-26T13:03:30Z</time>
      </trkpt>
      <trkpt lat="44.0931" lon="7.0628">
        <ele>1082</ele>
        <time>2022-07-26T13:03:31Z</time>
      </trkpt>
      <trkpt lat="44.09309" lon="7.06281">
        <ele>1082</ele>
        <time>2022-07-26T13:03:32Z</time>
      </trkpt>
      <trkpt lat="44.09309" lon="7.06281">
        <ele>1082</ele>
        <time>2022-07-26T13:03:33Z</time>
      </trkpt>
      <trkpt lat="44.09308" lon="7.06282">
        <ele>1082</ele>
        <time>2022-07-26T13:03:34Z</time>
      </trkpt>
      <trkpt lat="44.09308" lon="7.06282">
        <ele>1082</ele>
        <time>2022-07-26T13:03:35Z</time>
      </trkpt>
      <trkpt lat="44.09308" lon="7.06283">
        <ele>1082</ele>
        <time>2022-07-26T13:03:36Z</time>
      </trkpt>
      <trkpt lat="44.09307" lon="7.06284">
        <ele>1082</ele>
        <time>2022-07-26T13:03:37Z</time>
      </trkpt>
      <trkpt lat="44.09307" lon="7.06284">
        <ele>1082</ele>
        <time>2022-07-26T13:03:38Z</time>
      </trkpt>
      <trkpt lat="44.09307" lon="7.06285">
        <ele>1082</ele>
        <time>2022-07-26T13:03:39Z</time>
      </trkpt>
      <trkpt lat="44.09306" lon="7.06286">
        <ele>1082</ele>
        <time>2022-07-26T13:03:40Z</time>
      </trkpt>
      <trkpt lat="44.09306" lon="7.06287">
        <ele>1082</ele>
        <time>2022-07-26T13:03:41Z</time>
      </trkpt>
      <trkpt lat="44.09306" lon="7.06288">
        <ele>1083</ele>
        <time>2022-07-26T13:03:42Z</time>
      </trkpt>
      <trkpt lat="44.09304" lon="7.0629">
        <ele>1084</ele>
        <time>2022-07-26T13:04:08Z</time>
      </trkpt>
      <trkpt lat="44.09302" lon="7.06292">
        <ele>1084</ele>
        <time>2022-07-26T13:04:09Z</time>
      </trkpt>
      <trkpt lat="44.093" lon="7.06293">
        <ele>1084</ele>
        <time>2022-07-26T13:04:10Z</time>
      </trkpt>
      <trkpt lat="44.09298" lon="7.06296">
        <ele>1085</ele>
        <time>2022-07-26T13:04:17Z</time>
      </trkpt>
      <trkpt lat="44.09297" lon="7.06297">
        <ele>1085</ele>
        <time>2022-07-26T13:04:18Z</time>
      </trkpt>
      <trkpt lat="44.09297" lon="7.06298">
        <ele>1085</ele>
        <time>2022-07-26T13:04:19Z</time>
      </trkpt>
      <trkpt lat="44.09296" lon="7.06299">
        <ele>1085</ele>
        <time>2022-07-26T13:04:20Z</time>
      </trkpt>
      <trkpt lat="44.09296" lon="7.063">
        <ele>1085</ele>
        <time>2022-07-26T13:04:21Z</time>
      </trkpt>
      <trkpt lat="44.09295" lon="7.063">
        <ele>1086</ele>
        <time>2022-07-26T13:04:22Z</time>
      </trkpt>
      <trkpt lat="44.09295" lon="7.06301">
        <ele>1086</ele>
        <time>2022-07-26T13:04:23Z</time>
      </trkpt>
      <trkpt lat="44.09294" lon="7.06302">
        <ele>1086</ele>
        <time>2022-07-26T13:04:24Z</time>
      </trkpt>
      <trkpt lat="44.09294" lon="7.06303">
        <ele>1086</ele>
        <time>2022-07-26T13:04:25Z</time>
      </trkpt>
      <trkpt lat="44.09293" lon="7.06304">
        <ele>1086</ele>
        <time>2022-07-26T13:04:26Z</time>
      </trkpt>
      <trkpt lat="44.09293" lon="7.06304">
        <ele>1086</ele>
        <time>2022-07-26T13:04:27Z</time>
      </trkpt>
      <trkpt lat="44.09293" lon="7.06305">
        <ele>1086</ele>
        <time>2022-07-26T13:04:28Z</time>
      </trkpt>
      <trkpt lat="44.09292" lon="7.06306">
        <ele>1086</ele>
        <time>2022-07-26T13:04:29Z</time>
      </trkpt>
      <trkpt lat="44.09292" lon="7.06306">
        <ele>1086</ele>
        <time>2022-07-26T13:04:30Z</time>
      </trkpt>
      <trkpt lat="44.09292" lon="7.06306">
        <ele>1086</ele>
        <time>2022-07-26T13:04:31Z</time>
      </trkpt>
      <trkpt lat="44.09292" lon="7.06307">
        <ele>1087</ele>
        <time>2022-07-26T13:04:32Z</time>
      </trkpt>
      <trkpt lat="44.09292" lon="7.06308">
        <ele>1087</ele>
        <time>2022-07-26T13:04:33Z</time>
      </trkpt>
      <trkpt lat="44.09291" lon="7.06308">
        <ele>1087</ele>
        <time>2022-07-26T13:04:34Z</time>
      </trkpt>
      <trkpt lat="44.09291" lon="7.06309">
        <ele>1087</ele>
        <time>2022-07-26T13:04:35Z</time>
      </trkpt>
      <trkpt lat="44.09291" lon="7.0631">
        <ele>1087</ele>
        <time>2022-07-26T13:04:36Z</time>
      </trkpt>
      <trkpt lat="44.09288" lon="7.06312">
        <ele>1091</ele>
        <time>2022-07-26T13:05:01Z</time>
      </trkpt>
      <trkpt lat="44.09287" lon="7.06314">
        <ele>1092</ele>
        <time>2022-07-26T13:05:02Z</time>
      </trkpt>
      <trkpt lat="44.09286" lon="7.06315">
        <ele>1092</ele>
        <time>2022-07-26T13:05:03Z</time>
      </trkpt>
      <trkpt lat="44.09283" lon="7.06317">
        <ele>1094</ele>
        <time>2022-07-26T13:05:11Z</time>
      </trkpt>
      <trkpt lat="44.09282" lon="7.06318">
        <ele>1095</ele>
        <time>2022-07-26T13:05:12Z</time>
      </trkpt>
      <trkpt lat="44.09281" lon="7.06319">
        <ele>1095</ele>
        <time>2022-07-26T13:05:13Z</time>
      </trkpt>
      <trkpt lat="44.09281" lon="7.0632">
        <ele>1095</ele>
        <time>2022-07-26T13:05:14Z</time>
      </trkpt>
      <trkpt lat="44.0928" lon="7.06321">
        <ele>1095</ele>
        <time>2022-07-26T13:05:15Z</time>
      </trkpt>
      <trkpt lat="44.0928" lon="7.06322">
        <ele>1095</ele>
        <time>2022-07-26T13:05:16Z</time>
      </trkpt>
      <trkpt lat="44.09279" lon="7.06323">
        <ele>1096</ele>
        <time>2022-07-26T13:05:17Z</time>
      </trkpt>
      <trkpt lat="44.09279" lon="7.06324">
        <ele>1096</ele>
        <time>2022-07-26T13:05:18Z</time>
      </trkpt>
      <trkpt lat="44.09279" lon="7.06325">
        <ele>1096</ele>
        <time>2022-07-26T13:05:19Z</time>
      </trkpt>
      <trkpt lat="44.09279" lon="7.06326">
        <ele>1096</ele>
        <time>2022-07-26T13:05:20Z</time>
      </trkpt>
      <trkpt lat="44.09279" lon="7.06326">
        <ele>1096</ele>
        <time>2022-07-26T13:05:21Z</time>
      </trkpt>
      <trkpt lat="44.09279" lon="7.06327">
        <ele>1097</ele>
        <time>2022-07-26T13:05:22Z</time>
      </trkpt>
      <trkpt lat="44.09279" lon="7.06328">
        <ele>1097</ele>
        <time>2022-07-26T13:05:23Z</time>
      </trkpt>
      <trkpt lat="44.09279" lon="7.06329">
        <ele>1097</ele>
        <time>2022-07-26T13:05:24Z</time>
      </trkpt>
      <trkpt lat="44.09279" lon="7.0633">
        <ele>1097</ele>
        <time>2022-07-26T13:05:25Z</time>
      </trkpt>
      <trkpt lat="44.09279" lon="7.06331">
        <ele>1097</ele>
        <time>2022-07-26T13:05:26Z</time>
      </trkpt>
      <trkpt lat="44.09279" lon="7.06331">
        <ele>1098</ele>
        <time>2022-07-26T13:05:27Z</time>
      </trkpt>
      <trkpt lat="44.09279" lon="7.06332">
        <ele>1098</ele>
        <time>2022-07-26T13:05:28Z</time>
      </trkpt>
      <trkpt lat="44.09278" lon="7.06333">
        <ele>1098</ele>
        <time>2022-07-26T13:05:29Z</time>
      </trkpt>
      <trkpt lat="44.09278" lon="7.06334">
        <ele>1098</ele>
        <time>2022-07-26T13:05:30Z</time>
      </trkpt>
      <trkpt lat="44.09277" lon="7.06334">
        <ele>1098</ele>
        <time>2022-07-26T13:05:31Z</time>
      </trkpt>
      <trkpt lat="44.09276" lon="7.06336">
        <ele>1099</ele>
        <time>2022-07-26T13:05:40Z</time>
      </trkpt>
      <trkpt lat="44.09276" lon="7.06337">
        <ele>1099</ele>
        <time>2022-07-26T13:05:41Z</time>
      </trkpt>
      <trkpt lat="44.09275" lon="7.06338">
        <ele>1100</ele>
        <time>2022-07-26T13:05:42Z</time>
      </trkpt>
      <trkpt lat="44.09275" lon="7.06339">
        <ele>1100</ele>
        <time>2022-07-26T13:05:43Z</time>
      </trkpt>
      <trkpt lat="44.09274" lon="7.0634">
        <ele>1100</ele>
        <time>2022-07-26T13:05:44Z</time>
      </trkpt>
      <trkpt lat="44.09274" lon="7.06341">
        <ele>1100</ele>
        <time>2022-07-26T13:05:45Z</time>
      </trkpt>
      <trkpt lat="44.09274" lon="7.06342">
        <ele>1100</ele>
        <time>2022-07-26T13:05:46Z</time>
      </trkpt>
      <trkpt lat="44.09274" lon="7.06343">
        <ele>1100</ele>
        <time>2022-07-26T13:05:47Z</time>
      </trkpt>
      <trkpt lat="44.09275" lon="7.06344">
        <ele>1100</ele>
        <time>2022-07-26T13:05:48Z</time>
      </trkpt>
      <trkpt lat="44.09275" lon="7.06345">
        <ele>1100</ele>
        <time>2022-07-26T13:05:49Z</time>
      </trkpt>
      <trkpt lat="44.09274" lon="7.06348">
        <ele>1102</ele>
        <time>2022-07-26T13:05:59Z</time>
      </trkpt>
      <trkpt lat="44.09274" lon="7.06349">
        <ele>1102</ele>
        <time>2022-07-26T13:06:00Z</time>
      </trkpt>
      <trkpt lat="44.09274" lon="7.06351">
        <ele>1102</ele>
        <time>2022-07-26T13:06:01Z</time>
      </trkpt>
      <trkpt lat="44.09274" lon="7.06352">
        <ele>1102</ele>
        <time>2022-07-26T13:06:02Z</time>
      </trkpt>
      <trkpt lat="44.09273" lon="7.06353">
        <ele>1102</ele>
        <time>2022-07-26T13:06:03Z</time>
      </trkpt>
      <trkpt lat="44.09273" lon="7.06354">
        <ele>1102</ele>
        <time>2022-07-26T13:06:04Z</time>
      </trkpt>
      <trkpt lat="44.09273" lon="7.06354">
        <ele>1102</ele>
        <time>2022-07-26T13:06:05Z</time>
      </trkpt>
      <trkpt lat="44.09273" lon="7.06355">
        <ele>1102</ele>
        <time>2022-07-26T13:06:06Z</time>
      </trkpt>
      <trkpt lat="44.09272" lon="7.06357">
        <ele>1103</ele>
        <time>2022-07-26T13:06:07Z</time>
      </trkpt>
      <trkpt lat="44.09272" lon="7.06357">
        <ele>1103</ele>
        <time>2022-07-26T13:06:08Z</time>
      </trkpt>
      <trkpt lat="44.09272" lon="7.06357">
        <ele>1103</ele>
        <time>2022-07-26T13:06:09Z</time>
      </trkpt>
      <trkpt lat="44.09272" lon="7.06358">
        <ele>1103</ele>
        <time>2022-07-26T13:06:10Z</time>
      </trkpt>
      <trkpt lat="44.09271" lon="7.06359">
        <ele>1103</ele>
        <time>2022-07-26T13:06:11Z</time>
      </trkpt>
      <trkpt lat="44.09271" lon="7.06359">
        <ele>1104</ele>
        <time>2022-07-26T13:06:12Z</time>
      </trkpt>
      <trkpt lat="44.0927" lon="7.0636">
        <ele>1104</ele>
        <time>2022-07-26T13:06:13Z</time>
      </trkpt>
      <trkpt lat="44.0927" lon="7.06361">
        <ele>1104</ele>
        <time>2022-07-26T13:06:14Z</time>
      </trkpt>
      <trkpt lat="44.0927" lon="7.06362">
        <ele>1104</ele>
        <time>2022-07-26T13:06:15Z</time>
      </trkpt>
      <trkpt lat="44.0927" lon="7.06362">
        <ele>1104</ele>
        <time>2022-07-26T13:06:16Z</time>
      </trkpt>
      <trkpt lat="44.0927" lon="7.06363">
        <ele>1104</ele>
        <time>2022-07-26T13:06:17Z</time>
      </trkpt>
      <trkpt lat="44.0927" lon="7.06364">
        <ele>1104</ele>
        <time>2022-07-26T13:06:18Z</time>
      </trkpt>
      <trkpt lat="44.0927" lon="7.06365">
        <ele>1104</ele>
        <time>2022-07-26T13:06:19Z</time>
      </trkpt>
      <trkpt lat="44.0927" lon="7.06366">
        <ele>1104</ele>
        <time>2022-07-26T13:06:20Z</time>
      </trkpt>
      <trkpt lat="44.0927" lon="7.06368">
        <ele>1104</ele>
        <time>2022-07-26T13:06:21Z</time>
      </trkpt>
      <trkpt lat="44.0927" lon="7.06369">
        <ele>1105</ele>
        <time>2022-07-26T13:06:22Z</time>
      </trkpt>
      <trkpt lat="44.0927" lon="7.0637">
        <ele>1105</ele>
        <time>2022-07-26T13:06:23Z</time>
      </trkpt>
      <trkpt lat="44.0927" lon="7.06372">
        <ele>1105</ele>
        <time>2022-07-26T13:06:24Z</time>
      </trkpt>
      <trkpt lat="44.09269" lon="7.06373">
        <ele>1105</ele>
        <time>2022-07-26T13:06:25Z</time>
      </trkpt>
      <trkpt lat="44.09269" lon="7.06375">
        <ele>1105</ele>
        <time>2022-07-26T13:06:26Z</time>
      </trkpt>
      <trkpt lat="44.09269" lon="7.06376">
        <ele>1105</ele>
        <time>2022-07-26T13:06:27Z</time>
      </trkpt>
      <trkpt lat="44.09269" lon="7.06377">
        <ele>1105</ele>
        <time>2022-07-26T13:06:28Z</time>
      </trkpt>
      <trkpt lat="44.09269" lon="7.06377">
        <ele>1105</ele>
        <time>2022-07-26T13:06:29Z</time>
      </trkpt>
      <trkpt lat="44.09269" lon="7.0638">
        <ele>1105</ele>
        <time>2022-07-26T13:06:35Z</time>
      </trkpt>
      <trkpt lat="44.09269" lon="7.06382">
        <ele>1105</ele>
        <time>2022-07-26T13:06:36Z</time>
      </trkpt>
      <trkpt lat="44.09269" lon="7.06383">
        <ele>1106</ele>
        <time>2022-07-26T13:06:37Z</time>
      </trkpt>
      <trkpt lat="44.09269" lon="7.06384">
        <ele>1106</ele>
        <time>2022-07-26T13:06:38Z</time>
      </trkpt>
      <trkpt lat="44.09269" lon="7.06385">
        <ele>1106</ele>
        <time>2022-07-26T13:06:39Z</time>
      </trkpt>
      <trkpt lat="44.09268" lon="7.06389">
        <ele>1107</ele>
        <time>2022-07-26T13:06:55Z</time>
      </trkpt>
      <trkpt lat="44.09267" lon="7.06391">
        <ele>1107</ele>
        <time>2022-07-26T13:06:56Z</time>
      </trkpt>
      <trkpt lat="44.09267" lon="7.06393">
        <ele>1107</ele>
        <time>2022-07-26T13:06:57Z</time>
      </trkpt>
      <trkpt lat="44.09266" lon="7.06397">
        <ele>1109</ele>
        <time>2022-07-26T13:07:08Z</time>
      </trkpt>
      <trkpt lat="44.09265" lon="7.06398">
        <ele>1109</ele>
        <time>2022-07-26T13:07:09Z</time>
      </trkpt>
      <trkpt lat="44.09265" lon="7.064">
        <ele>1109</ele>
        <time>2022-07-26T13:07:10Z</time>
      </trkpt>
      <trkpt lat="44.09265" lon="7.06402">
        <ele>1109</ele>
        <time>2022-07-26T13:07:11Z</time>
      </trkpt>
      <trkpt lat="44.09265" lon="7.06403">
        <ele>1109</ele>
        <time>2022-07-26T13:07:12Z</time>
      </trkpt>
      <trkpt lat="44.09266" lon="7.06407">
        <ele>1110</ele>
        <time>2022-07-26T13:07:22Z</time>
      </trkpt>
      <trkpt lat="44.09266" lon="7.06408">
        <ele>1110</ele>
        <time>2022-07-26T13:07:23Z</time>
      </trkpt>
      <trkpt lat="44.09266" lon="7.06409">
        <ele>1110</ele>
        <time>2022-07-26T13:07:24Z</time>
      </trkpt>
      <trkpt lat="44.09267" lon="7.0641">
        <ele>1111</ele>
        <time>2022-07-26T13:07:25Z</time>
      </trkpt>
      <trkpt lat="44.09267" lon="7.06411">
        <ele>1111</ele>
        <time>2022-07-26T13:07:26Z</time>
      </trkpt>
      <trkpt lat="44.09267" lon="7.06412">
        <ele>1112</ele>
        <time>2022-07-26T13:07:27Z</time>
      </trkpt>
      <trkpt lat="44.09267" lon="7.06412">
        <ele>1112</ele>
        <time>2022-07-26T13:07:28Z</time>
      </trkpt>
      <trkpt lat="44.09266" lon="7.06413">
        <ele>1112</ele>
        <time>2022-07-26T13:07:29Z</time>
      </trkpt>
      <trkpt lat="44.09266" lon="7.06413">
        <ele>1112</ele>
        <time>2022-07-26T13:07:30Z</time>
      </trkpt>
      <trkpt lat="44.09266" lon="7.06414">
        <ele>1112</ele>
        <time>2022-07-26T13:07:31Z</time>
      </trkpt>
      <trkpt lat="44.09266" lon="7.06415">
        <ele>1112</ele>
        <time>2022-07-26T13:07:32Z</time>
      </trkpt>
      <trkpt lat="44.09266" lon="7.06415">
        <ele>1112</ele>
        <time>2022-07-26T13:07:33Z</time>
      </trkpt>
      <trkpt lat="44.09266" lon="7.06416">
        <ele>1112</ele>
        <time>2022-07-26T13:07:34Z</time>
      </trkpt>
      <trkpt lat="44.09267" lon="7.06421">
        <ele>1117</ele>
        <time>2022-07-26T13:08:03Z</time>
      </trkpt>
      <trkpt lat="44.09268" lon="7.06425">
        <ele>1117</ele>
        <time>2022-07-26T13:08:04Z</time>
      </trkpt>
      <trkpt lat="44.09269" lon="7.06428">
        <ele>1117</ele>
        <time>2022-07-26T13:08:05Z</time>
      </trkpt>
      <trkpt lat="44.09269" lon="7.0643">
        <ele>1117</ele>
        <time>2022-07-26T13:08:06Z</time>
      </trkpt>
      <trkpt lat="44.0927" lon="7.06431">
        <ele>1117</ele>
        <time>2022-07-26T13:08:07Z</time>
      </trkpt>
      <trkpt lat="44.0927" lon="7.06433">
        <ele>1117</ele>
        <time>2022-07-26T13:08:08Z</time>
      </trkpt>
      <trkpt lat="44.09271" lon="7.06435">
        <ele>1117</ele>
        <time>2022-07-26T13:08:09Z</time>
      </trkpt>
      <trkpt lat="44.09271" lon="7.06436">
        <ele>1117</ele>
        <time>2022-07-26T13:08:10Z</time>
      </trkpt>
      <trkpt lat="44.09272" lon="7.06437">
        <ele>1117</ele>
        <time>2022-07-26T13:08:11Z</time>
      </trkpt>
      <trkpt lat="44.09272" lon="7.06439">
        <ele>1118</ele>
        <time>2022-07-26T13:08:12Z</time>
      </trkpt>
      <trkpt lat="44.09272" lon="7.0644">
        <ele>1118</ele>
        <time>2022-07-26T13:08:13Z</time>
      </trkpt>
      <trkpt lat="44.09272" lon="7.06441">
        <ele>1118</ele>
        <time>2022-07-26T13:08:14Z</time>
      </trkpt>
      <trkpt lat="44.09272" lon="7.06441">
        <ele>1118</ele>
        <time>2022-07-26T13:08:15Z</time>
      </trkpt>
      <trkpt lat="44.09272" lon="7.06442">
        <ele>1118</ele>
        <time>2022-07-26T13:08:16Z</time>
      </trkpt>
      <trkpt lat="44.09271" lon="7.06442">
        <ele>1119</ele>
        <time>2022-07-26T13:08:17Z</time>
      </trkpt>
      <trkpt lat="44.09271" lon="7.06442">
        <ele>1119</ele>
        <time>2022-07-26T13:08:18Z</time>
      </trkpt>
      <trkpt lat="44.0927" lon="7.06443">
        <ele>1119</ele>
        <time>2022-07-26T13:08:19Z</time>
      </trkpt>
      <trkpt lat="44.09268" lon="7.06443">
        <ele>1120</ele>
        <time>2022-07-26T13:08:29Z</time>
      </trkpt>
      <trkpt lat="44.09267" lon="7.06443">
        <ele>1120</ele>
        <time>2022-07-26T13:08:30Z</time>
      </trkpt>
      <trkpt lat="44.09266" lon="7.06443">
        <ele>1120</ele>
        <time>2022-07-26T13:08:31Z</time>
      </trkpt>
      <trkpt lat="44.09265" lon="7.06443">
        <ele>1121</ele>
        <time>2022-07-26T13:08:32Z</time>
      </trkpt>
      <trkpt lat="44.09265" lon="7.06443">
        <ele>1121</ele>
        <time>2022-07-26T13:08:33Z</time>
      </trkpt>
      <trkpt lat="44.09264" lon="7.06443">
        <ele>1121</ele>
        <time>2022-07-26T13:08:34Z</time>
      </trkpt>
      <trkpt lat="44.09263" lon="7.06443">
        <ele>1121</ele>
        <time>2022-07-26T13:08:35Z</time>
      </trkpt>
      <trkpt lat="44.09263" lon="7.06443">
        <ele>1122</ele>
        <time>2022-07-26T13:08:43Z</time>
      </trkpt>
      <trkpt lat="44.09262" lon="7.06444">
        <ele>1122</ele>
        <time>2022-07-26T13:08:44Z</time>
      </trkpt>
      <trkpt lat="44.09262" lon="7.06444">
        <ele>1122</ele>
        <time>2022-07-26T13:08:45Z</time>
      </trkpt>
      <trkpt lat="44.09261" lon="7.06445">
        <ele>1122</ele>
        <time>2022-07-26T13:08:46Z</time>
      </trkpt>
      <trkpt lat="44.09261" lon="7.06445">
        <ele>1123</ele>
        <time>2022-07-26T13:08:47Z</time>
      </trkpt>
      <trkpt lat="44.09261" lon="7.06446">
        <ele>1123</ele>
        <time>2022-07-26T13:08:48Z</time>
      </trkpt>
      <trkpt lat="44.0926" lon="7.06447">
        <ele>1123</ele>
        <time>2022-07-26T13:08:49Z</time>
      </trkpt>
      <trkpt lat="44.0926" lon="7.06448">
        <ele>1123</ele>
        <time>2022-07-26T13:08:50Z</time>
      </trkpt>
      <trkpt lat="44.09259" lon="7.06449">
        <ele>1123</ele>
        <time>2022-07-26T13:08:51Z</time>
      </trkpt>
      <trkpt lat="44.09259" lon="7.06449">
        <ele>1124</ele>
        <time>2022-07-26T13:08:52Z</time>
      </trkpt>
      <trkpt lat="44.09259" lon="7.0645">
        <ele>1124</ele>
        <time>2022-07-26T13:08:53Z</time>
      </trkpt>
      <trkpt lat="44.09259" lon="7.06451">
        <ele>1124</ele>
        <time>2022-07-26T13:08:54Z</time>
      </trkpt>
      <trkpt lat="44.09258" lon="7.06452">
        <ele>1124</ele>
        <time>2022-07-26T13:08:55Z</time>
      </trkpt>
      <trkpt lat="44.09258" lon="7.06452">
        <ele>1124</ele>
        <time>2022-07-26T13:08:56Z</time>
      </trkpt>
      <trkpt lat="44.09258" lon="7.06453">
        <ele>1125</ele>
        <time>2022-07-26T13:08:57Z</time>
      </trkpt>
      <trkpt lat="44.09258" lon="7.06454">
        <ele>1125</ele>
        <time>2022-07-26T13:08:58Z</time>
      </trkpt>
      <trkpt lat="44.09258" lon="7.06455">
        <ele>1125</ele>
        <time>2022-07-26T13:08:59Z</time>
      </trkpt>
      <trkpt lat="44.09258" lon="7.06456">
        <ele>1125</ele>
        <time>2022-07-26T13:09:00Z</time>
      </trkpt>
      <trkpt lat="44.09258" lon="7.06456">
        <ele>1125</ele>
        <time>2022-07-26T13:09:01Z</time>
      </trkpt>
      <trkpt lat="44.09258" lon="7.06457">
        <ele>1125</ele>
        <time>2022-07-26T13:09:02Z</time>
      </trkpt>
      <trkpt lat="44.09258" lon="7.06457">
        <ele>1125</ele>
        <time>2022-07-26T13:09:03Z</time>
      </trkpt>
      <trkpt lat="44.09258" lon="7.06458">
        <ele>1125</ele>
        <time>2022-07-26T13:09:04Z</time>
      </trkpt>
      <trkpt lat="44.09258" lon="7.0646">
        <ele>1125</ele>
        <time>2022-07-26T13:09:05Z</time>
      </trkpt>
      <trkpt lat="44.09258" lon="7.0646">
        <ele>1125</ele>
        <time>2022-07-26T13:09:06Z</time>
      </trkpt>
      <trkpt lat="44.09257" lon="7.06461">
        <ele>1126</ele>
        <time>2022-07-26T13:09:07Z</time>
      </trkpt>
      <trkpt lat="44.09257" lon="7.06462">
        <ele>1126</ele>
        <time>2022-07-26T13:09:08Z</time>
      </trkpt>
      <trkpt lat="44.09257" lon="7.06463">
        <ele>1126</ele>
        <time>2022-07-26T13:09:09Z</time>
      </trkpt>
      <trkpt lat="44.09257" lon="7.06464">
        <ele>1126</ele>
        <time>2022-07-26T13:09:10Z</time>
      </trkpt>
      <trkpt lat="44.09257" lon="7.06465">
        <ele>1126</ele>
        <time>2022-07-26T13:09:11Z</time>
      </trkpt>
      <trkpt lat="44.09257" lon="7.06465">
        <ele>1127</ele>
        <time>2022-07-26T13:09:12Z</time>
      </trkpt>
      <trkpt lat="44.09257" lon="7.06466">
        <ele>1127</ele>
        <time>2022-07-26T13:09:13Z</time>
      </trkpt>
      <trkpt lat="44.09257" lon="7.06467">
        <ele>1127</ele>
        <time>2022-07-26T13:09:14Z</time>
      </trkpt>
      <trkpt lat="44.09257" lon="7.06467">
        <ele>1128</ele>
        <time>2022-07-26T13:09:15Z</time>
      </trkpt>
      <trkpt lat="44.09257" lon="7.06468">
        <ele>1128</ele>
        <time>2022-07-26T13:09:16Z</time>
      </trkpt>
      <trkpt lat="44.09257" lon="7.06468">
        <ele>1129</ele>
        <time>2022-07-26T13:09:17Z</time>
      </trkpt>
      <trkpt lat="44.09257" lon="7.06469">
        <ele>1129</ele>
        <time>2022-07-26T13:09:18Z</time>
      </trkpt>
      <trkpt lat="44.09256" lon="7.0647">
        <ele>1129</ele>
        <time>2022-07-26T13:09:19Z</time>
      </trkpt>
      <trkpt lat="44.09256" lon="7.06471">
        <ele>1129</ele>
        <time>2022-07-26T13:09:20Z</time>
      </trkpt>
      <trkpt lat="44.09256" lon="7.06472">
        <ele>1129</ele>
        <time>2022-07-26T13:09:21Z</time>
      </trkpt>
      <trkpt lat="44.09255" lon="7.06473">
        <ele>1130</ele>
        <time>2022-07-26T13:09:22Z</time>
      </trkpt>
      <trkpt lat="44.09255" lon="7.06474">
        <ele>1130</ele>
        <time>2022-07-26T13:09:23Z</time>
      </trkpt>
      <trkpt lat="44.09255" lon="7.06475">
        <ele>1130</ele>
        <time>2022-07-26T13:09:24Z</time>
      </trkpt>
      <trkpt lat="44.09255" lon="7.06475">
        <ele>1130</ele>
        <time>2022-07-26T13:09:25Z</time>
      </trkpt>
      <trkpt lat="44.09255" lon="7.06476">
        <ele>1130</ele>
        <time>2022-07-26T13:09:26Z</time>
      </trkpt>
      <trkpt lat="44.09254" lon="7.06477">
        <ele>1131</ele>
        <time>2022-07-26T13:09:27Z</time>
      </trkpt>
      <trkpt lat="44.09254" lon="7.06477">
        <ele>1131</ele>
        <time>2022-07-26T13:09:28Z</time>
      </trkpt>
      <trkpt lat="44.09254" lon="7.06478">
        <ele>1131</ele>
        <time>2022-07-26T13:09:29Z</time>
      </trkpt>
      <trkpt lat="44.09254" lon="7.06479">
        <ele>1131</ele>
        <time>2022-07-26T13:09:30Z</time>
      </trkpt>
      <trkpt lat="44.09253" lon="7.06479">
        <ele>1131</ele>
        <time>2022-07-26T13:09:31Z</time>
      </trkpt>
      <trkpt lat="44.09253" lon="7.0648">
        <ele>1131</ele>
        <time>2022-07-26T13:09:32Z</time>
      </trkpt>
      <trkpt lat="44.09253" lon="7.06481">
        <ele>1131</ele>
        <time>2022-07-26T13:09:33Z</time>
      </trkpt>
      <trkpt lat="44.09252" lon="7.06481">
        <ele>1131</ele>
        <time>2022-07-26T13:09:34Z</time>
      </trkpt>
      <trkpt lat="44.09252" lon="7.06482">
        <ele>1131</ele>
        <time>2022-07-26T13:09:35Z</time>
      </trkpt>
      <trkpt lat="44.09252" lon="7.06482">
        <ele>1131</ele>
        <time>2022-07-26T13:09:36Z</time>
      </trkpt>
      <trkpt lat="44.09251" lon="7.06483">
        <ele>1132</ele>
        <time>2022-07-26T13:09:37Z</time>
      </trkpt>
      <trkpt lat="44.09251" lon="7.06484">
        <ele>1132</ele>
        <time>2022-07-26T13:09:38Z</time>
      </trkpt>
      <trkpt lat="44.09251" lon="7.06484">
        <ele>1132</ele>
        <time>2022-07-26T13:09:39Z</time>
      </trkpt>
      <trkpt lat="44.0925" lon="7.06485">
        <ele>1132</ele>
        <time>2022-07-26T13:09:40Z</time>
      </trkpt>
      <trkpt lat="44.0925" lon="7.06486">
        <ele>1132</ele>
        <time>2022-07-26T13:09:41Z</time>
      </trkpt>
      <trkpt lat="44.0925" lon="7.06487">
        <ele>1132</ele>
        <time>2022-07-26T13:09:42Z</time>
      </trkpt>
      <trkpt lat="44.0925" lon="7.06487">
        <ele>1132</ele>
        <time>2022-07-26T13:09:43Z</time>
      </trkpt>
      <trkpt lat="44.09249" lon="7.06488">
        <ele>1132</ele>
        <time>2022-07-26T13:09:44Z</time>
      </trkpt>
      <trkpt lat="44.09249" lon="7.06489">
        <ele>1132</ele>
        <time>2022-07-26T13:09:45Z</time>
      </trkpt>
      <trkpt lat="44.09249" lon="7.0649">
        <ele>1132</ele>
        <time>2022-07-26T13:09:46Z</time>
      </trkpt>
      <trkpt lat="44.09249" lon="7.06491">
        <ele>1133</ele>
        <time>2022-07-26T13:09:47Z</time>
      </trkpt>
      <trkpt lat="44.09249" lon="7.06492">
        <ele>1133</ele>
        <time>2022-07-26T13:09:48Z</time>
      </trkpt>
      <trkpt lat="44.09249" lon="7.06493">
        <ele>1133</ele>
        <time>2022-07-26T13:09:49Z</time>
      </trkpt>
      <trkpt lat="44.0925" lon="7.06494">
        <ele>1133</ele>
        <time>2022-07-26T13:09:50Z</time>
      </trkpt>
      <trkpt lat="44.0925" lon="7.06495">
        <ele>1133</ele>
        <time>2022-07-26T13:09:51Z</time>
      </trkpt>
      <trkpt lat="44.0925" lon="7.06496">
        <ele>1134</ele>
        <time>2022-07-26T13:09:52Z</time>
      </trkpt>
      <trkpt lat="44.09251" lon="7.06498">
        <ele>1134</ele>
        <time>2022-07-26T13:09:53Z</time>
      </trkpt>
      <trkpt lat="44.09251" lon="7.06499">
        <ele>1134</ele>
        <time>2022-07-26T13:09:54Z</time>
      </trkpt>
      <trkpt lat="44.09251" lon="7.065">
        <ele>1134</ele>
        <time>2022-07-26T13:09:55Z</time>
      </trkpt>
      <trkpt lat="44.09252" lon="7.06501">
        <ele>1134</ele>
        <time>2022-07-26T13:09:56Z</time>
      </trkpt>
      <trkpt lat="44.09252" lon="7.06502">
        <ele>1135</ele>
        <time>2022-07-26T13:09:57Z</time>
      </trkpt>
      <trkpt lat="44.09253" lon="7.06502">
        <ele>1135</ele>
        <time>2022-07-26T13:09:58Z</time>
      </trkpt>
      <trkpt lat="44.09253" lon="7.06503">
        <ele>1135</ele>
        <time>2022-07-26T13:09:59Z</time>
      </trkpt>
      <trkpt lat="44.09254" lon="7.06504">
        <ele>1135</ele>
        <time>2022-07-26T13:10:00Z</time>
      </trkpt>
      <trkpt lat="44.09254" lon="7.06505">
        <ele>1135</ele>
        <time>2022-07-26T13:10:01Z</time>
      </trkpt>
      <trkpt lat="44.09254" lon="7.06505">
        <ele>1135</ele>
        <time>2022-07-26T13:10:02Z</time>
      </trkpt>
      <trkpt lat="44.09255" lon="7.06506">
        <ele>1135</ele>
        <time>2022-07-26T13:10:03Z</time>
      </trkpt>
      <trkpt lat="44.09255" lon="7.06506">
        <ele>1135</ele>
        <time>2022-07-26T13:10:04Z</time>
      </trkpt>
      <trkpt lat="44.09255" lon="7.06507">
        <ele>1135</ele>
        <time>2022-07-26T13:10:05Z</time>
      </trkpt>
      <trkpt lat="44.09255" lon="7.06508">
        <ele>1135</ele>
        <time>2022-07-26T13:10:06Z</time>
      </trkpt>
      <trkpt lat="44.09256" lon="7.06508">
        <ele>1136</ele>
        <time>2022-07-26T13:10:07Z</time>
      </trkpt>
      <trkpt lat="44.09257" lon="7.06511">
        <ele>1137</ele>
        <time>2022-07-26T13:15:22Z</time>
      </trkpt>
      <trkpt lat="44.09257" lon="7.06513">
        <ele>1137</ele>
        <time>2022-07-26T13:15:23Z</time>
      </trkpt>
      <trkpt lat="44.09258" lon="7.06515">
        <ele>1137</ele>
        <time>2022-07-26T13:15:24Z</time>
      </trkpt>
      <trkpt lat="44.09258" lon="7.06516">
        <ele>1137</ele>
        <time>2022-07-26T13:15:25Z</time>
      </trkpt>
      <trkpt lat="44.09259" lon="7.06517">
        <ele>1137</ele>
        <time>2022-07-26T13:15:26Z</time>
      </trkpt>
      <trkpt lat="44.09259" lon="7.06518">
        <ele>1137</ele>
        <time>2022-07-26T13:15:27Z</time>
      </trkpt>
      <trkpt lat="44.0926" lon="7.06519">
        <ele>1137</ele>
        <time>2022-07-26T13:15:28Z</time>
      </trkpt>
      <trkpt lat="44.09259" lon="7.06519">
        <ele>1137</ele>
        <time>2022-07-26T13:18:10Z</time>
      </trkpt>
      <trkpt lat="44.09259" lon="7.06518">
        <ele>1137</ele>
        <time>2022-07-26T13:18:11Z</time>
      </trkpt>
      <trkpt lat="44.09259" lon="7.06518">
        <ele>1137</ele>
        <time>2022-07-26T13:18:12Z</time>
      </trkpt>
      <trkpt lat="44.09259" lon="7.06515">
        <ele>1137</ele>
        <time>2022-07-26T13:19:48Z</time>
      </trkpt>
      <trkpt lat="44.09259" lon="7.06514">
        <ele>1137</ele>
        <time>2022-07-26T13:19:49Z</time>
      </trkpt>
      <trkpt lat="44.09258" lon="7.06513">
        <ele>1137</ele>
        <time>2022-07-26T13:19:50Z</time>
      </trkpt>
      <trkpt lat="44.09259" lon="7.06514">
        <ele>1137</ele>
        <time>2022-07-26T13:19:51Z</time>
      </trkpt>
      <trkpt lat="44.09259" lon="7.06514">
        <ele>1137</ele>
        <time>2022-07-26T13:19:52Z</time>
      </trkpt>
      <trkpt lat="44.09259" lon="7.06515">
        <ele>1137</ele>
        <time>2022-07-26T13:19:53Z</time>
      </trkpt>
      <trkpt lat="44.0926" lon="7.06516">
        <ele>1137</ele>
        <time>2022-07-26T13:19:54Z</time>
      </trkpt>
      <trkpt lat="44.0926" lon="7.06517">
        <ele>1137</ele>
        <time>2022-07-26T13:19:55Z</time>
      </trkpt>
      <trkpt lat="44.09261" lon="7.06518">
        <ele>1137</ele>
        <time>2022-07-26T13:19:56Z</time>
      </trkpt>
      <trkpt lat="44.09261" lon="7.06519">
        <ele>1137</ele>
        <time>2022-07-26T13:19:57Z</time>
      </trkpt>
      <trkpt lat="44.09261" lon="7.0652">
        <ele>1137</ele>
        <time>2022-07-26T13:19:58Z</time>
      </trkpt>
      <trkpt lat="44.09262" lon="7.0652">
        <ele>1137</ele>
        <time>2022-07-26T13:19:59Z</time>
      </trkpt>
      <trkpt lat="44.09262" lon="7.06521">
        <ele>1137</ele>
        <time>2022-07-26T13:20:00Z</time>
      </trkpt>
      <trkpt lat="44.09262" lon="7.06522">
        <ele>1137</ele>
        <time>2022-07-26T13:20:01Z</time>
      </trkpt>
      <trkpt lat="44.09263" lon="7.06523">
        <ele>1138</ele>
        <time>2022-07-26T13:20:02Z</time>
      </trkpt>
      <trkpt lat="44.09263" lon="7.06524">
        <ele>1138</ele>
        <time>2022-07-26T13:20:03Z</time>
      </trkpt>
      <trkpt lat="44.09263" lon="7.06525">
        <ele>1138</ele>
        <time>2022-07-26T13:20:04Z</time>
      </trkpt>
      <trkpt lat="44.09264" lon="7.06526">
        <ele>1138</ele>
        <time>2022-07-26T13:20:05Z</time>
      </trkpt>
      <trkpt lat="44.09264" lon="7.06527">
        <ele>1138</ele>
        <time>2022-07-26T13:20:06Z</time>
      </trkpt>
      <trkpt lat="44.09264" lon="7.06529">
        <ele>1138</ele>
        <time>2022-07-26T13:20:07Z</time>
      </trkpt>
      <trkpt lat="44.09265" lon="7.06531">
        <ele>1138</ele>
        <time>2022-07-26T13:20:08Z</time>
      </trkpt>
      <trkpt lat="44.09265" lon="7.06532">
        <ele>1138</ele>
        <time>2022-07-26T13:20:09Z</time>
      </trkpt>
      <trkpt lat="44.09265" lon="7.06533">
        <ele>1138</ele>
        <time>2022-07-26T13:20:10Z</time>
      </trkpt>
      <trkpt lat="44.09266" lon="7.06535">
        <ele>1138</ele>
        <time>2022-07-26T13:20:11Z</time>
      </trkpt>
      <trkpt lat="44.09266" lon="7.06536">
        <ele>1139</ele>
        <time>2022-07-26T13:20:12Z</time>
      </trkpt>
      <trkpt lat="44.09266" lon="7.06538">
        <ele>1139</ele>
        <time>2022-07-26T13:20:13Z</time>
      </trkpt>
      <trkpt lat="44.09266" lon="7.0654">
        <ele>1139</ele>
        <time>2022-07-26T13:20:14Z</time>
      </trkpt>
      <trkpt lat="44.09266" lon="7.06541">
        <ele>1139</ele>
        <time>2022-07-26T13:20:15Z</time>
      </trkpt>
      <trkpt lat="44.09266" lon="7.06543">
        <ele>1139</ele>
        <time>2022-07-26T13:20:16Z</time>
      </trkpt>
      <trkpt lat="44.09266" lon="7.06544">
        <ele>1139</ele>
        <time>2022-07-26T13:20:17Z</time>
      </trkpt>
      <trkpt lat="44.09266" lon="7.06545">
        <ele>1139</ele>
        <time>2022-07-26T13:20:18Z</time>
      </trkpt>
      <trkpt lat="44.09266" lon="7.06546">
        <ele>1139</ele>
        <time>2022-07-26T13:20:19Z</time>
      </trkpt>
      <trkpt lat="44.09267" lon="7.06547">
        <ele>1139</ele>
        <time>2022-07-26T13:20:20Z</time>
      </trkpt>
      <trkpt lat="44.09267" lon="7.06548">
        <ele>1139</ele>
        <time>2022-07-26T13:20:21Z</time>
      </trkpt>
      <trkpt lat="44.09267" lon="7.06549">
        <ele>1140</ele>
        <time>2022-07-26T13:20:22Z</time>
      </trkpt>
      <trkpt lat="44.09267" lon="7.0655">
        <ele>1140</ele>
        <time>2022-07-26T13:20:23Z</time>
      </trkpt>
      <trkpt lat="44.09267" lon="7.0655">
        <ele>1140</ele>
        <time>2022-07-26T13:20:24Z</time>
      </trkpt>
      <trkpt lat="44.09267" lon="7.06551">
        <ele>1140</ele>
        <time>2022-07-26T13:20:25Z</time>
      </trkpt>
      <trkpt lat="44.09267" lon="7.06552">
        <ele>1140</ele>
        <time>2022-07-26T13:20:26Z</time>
      </trkpt>
      <trkpt lat="44.09268" lon="7.06552">
        <ele>1140</ele>
        <time>2022-07-26T13:20:27Z</time>
      </trkpt>
      <trkpt lat="44.09268" lon="7.06553">
        <ele>1140</ele>
        <time>2022-07-26T13:20:28Z</time>
      </trkpt>
      <trkpt lat="44.09268" lon="7.06554">
        <ele>1141</ele>
        <time>2022-07-26T13:20:34Z</time>
      </trkpt>
      <trkpt lat="44.09269" lon="7.06556">
        <ele>1141</ele>
        <time>2022-07-26T13:20:35Z</time>
      </trkpt>
      <trkpt lat="44.09269" lon="7.06557">
        <ele>1141</ele>
        <time>2022-07-26T13:20:36Z</time>
      </trkpt>
      <trkpt lat="44.09269" lon="7.06558">
        <ele>1142</ele>
        <time>2022-07-26T13:20:37Z</time>
      </trkpt>
      <trkpt lat="44.09269" lon="7.0656">
        <ele>1142</ele>
        <time>2022-07-26T13:20:38Z</time>
      </trkpt>
      <trkpt lat="44.09269" lon="7.06561">
        <ele>1142</ele>
        <time>2022-07-26T13:20:39Z</time>
      </trkpt>
      <trkpt lat="44.09269" lon="7.06563">
        <ele>1142</ele>
        <time>2022-07-26T13:20:40Z</time>
      </trkpt>
      <trkpt lat="44.09268" lon="7.06564">
        <ele>1142</ele>
        <time>2022-07-26T13:20:41Z</time>
      </trkpt>
      <trkpt lat="44.09268" lon="7.06566">
        <ele>1143</ele>
        <time>2022-07-26T13:20:42Z</time>
      </trkpt>
      <trkpt lat="44.09268" lon="7.06567">
        <ele>1143</ele>
        <time>2022-07-26T13:20:43Z</time>
      </trkpt>
      <trkpt lat="44.09267" lon="7.06568">
        <ele>1143</ele>
        <time>2022-07-26T13:20:44Z</time>
      </trkpt>
      <trkpt lat="44.09267" lon="7.06568">
        <ele>1143</ele>
        <time>2022-07-26T13:20:45Z</time>
      </trkpt>
      <trkpt lat="44.09267" lon="7.06569">
        <ele>1143</ele>
        <time>2022-07-26T13:20:46Z</time>
      </trkpt>
      <trkpt lat="44.09267" lon="7.0657">
        <ele>1143</ele>
        <time>2022-07-26T13:20:47Z</time>
      </trkpt>
      <trkpt lat="44.09267" lon="7.06571">
        <ele>1143</ele>
        <time>2022-07-26T13:20:48Z</time>
      </trkpt>
      <trkpt lat="44.09267" lon="7.06571">
        <ele>1143</ele>
        <time>2022-07-26T13:20:49Z</time>
      </trkpt>
      <trkpt lat="44.09267" lon="7.06572">
        <ele>1143</ele>
        <time>2022-07-26T13:20:50Z</time>
      </trkpt>
      <trkpt lat="44.09267" lon="7.06573">
        <ele>1143</ele>
        <time>2022-07-26T13:20:51Z</time>
      </trkpt>
      <trkpt lat="44.09267" lon="7.06574">
        <ele>1144</ele>
        <time>2022-07-26T13:20:52Z</time>
      </trkpt>
      <trkpt lat="44.09267" lon="7.06574">
        <ele>1144</ele>
        <time>2022-07-26T13:20:53Z</time>
      </trkpt>
      <trkpt lat="44.09267" lon="7.06575">
        <ele>1144</ele>
        <time>2022-07-26T13:20:54Z</time>
      </trkpt>
      <trkpt lat="44.09267" lon="7.06577">
        <ele>1145</ele>
        <time>2022-07-26T13:20:55Z</time>
      </trkpt>
      <trkpt lat="44.09267" lon="7.06578">
        <ele>1145</ele>
        <time>2022-07-26T13:20:56Z</time>
      </trkpt>
      <trkpt lat="44.09267" lon="7.06578">
        <ele>1146</ele>
        <time>2022-07-26T13:20:57Z</time>
      </trkpt>
      <trkpt lat="44.09267" lon="7.06579">
        <ele>1146</ele>
        <time>2022-07-26T13:20:58Z</time>
      </trkpt>
      <trkpt lat="44.09267" lon="7.0658">
        <ele>1146</ele>
        <time>2022-07-26T13:20:59Z</time>
      </trkpt>
      <trkpt lat="44.09267" lon="7.06582">
        <ele>1146</ele>
        <time>2022-07-26T13:21:00Z</time>
      </trkpt>
      <trkpt lat="44.09266" lon="7.06583">
        <ele>1146</ele>
        <time>2022-07-26T13:21:01Z</time>
      </trkpt>
      <trkpt lat="44.09266" lon="7.06584">
        <ele>1147</ele>
        <time>2022-07-26T13:21:02Z</time>
      </trkpt>
      <trkpt lat="44.09266" lon="7.06585">
        <ele>1147</ele>
        <time>2022-07-26T13:21:03Z</time>
      </trkpt>
      <trkpt lat="44.09266" lon="7.06586">
        <ele>1147</ele>
        <time>2022-07-26T13:21:04Z</time>
      </trkpt>
      <trkpt lat="44.09266" lon="7.06587">
        <ele>1147</ele>
        <time>2022-07-26T13:21:05Z</time>
      </trkpt>
      <trkpt lat="44.09266" lon="7.06588">
        <ele>1147</ele>
        <time>2022-07-26T13:21:06Z</time>
      </trkpt>
      <trkpt lat="44.09266" lon="7.06589">
        <ele>1147</ele>
        <time>2022-07-26T13:21:07Z</time>
      </trkpt>
      <trkpt lat="44.09266" lon="7.06591">
        <ele>1147</ele>
        <time>2022-07-26T13:21:08Z</time>
      </trkpt>
      <trkpt lat="44.09267" lon="7.06591">
        <ele>1147</ele>
        <time>2022-07-26T13:21:09Z</time>
      </trkpt>
      <trkpt lat="44.09267" lon="7.06592">
        <ele>1147</ele>
        <time>2022-07-26T13:21:10Z</time>
      </trkpt>
      <trkpt lat="44.09267" lon="7.06592">
        <ele>1147</ele>
        <time>2022-07-26T13:21:11Z</time>
      </trkpt>
      <trkpt lat="44.09267" lon="7.06593">
        <ele>1148</ele>
        <time>2022-07-26T13:21:12Z</time>
      </trkpt>
      <trkpt lat="44.09268" lon="7.06593">
        <ele>1148</ele>
        <time>2022-07-26T13:21:13Z</time>
      </trkpt>
      <trkpt lat="44.09268" lon="7.06594">
        <ele>1148</ele>
        <time>2022-07-26T13:21:14Z</time>
      </trkpt>
      <trkpt lat="44.09268" lon="7.06595">
        <ele>1148</ele>
        <time>2022-07-26T13:21:15Z</time>
      </trkpt>
      <trkpt lat="44.09268" lon="7.06597">
        <ele>1148</ele>
        <time>2022-07-26T13:21:16Z</time>
      </trkpt>
      <trkpt lat="44.09268" lon="7.06598">
        <ele>1149</ele>
        <time>2022-07-26T13:21:17Z</time>
      </trkpt>
      <trkpt lat="44.09268" lon="7.06599">
        <ele>1149</ele>
        <time>2022-07-26T13:21:18Z</time>
      </trkpt>
      <trkpt lat="44.09267" lon="7.06601">
        <ele>1149</ele>
        <time>2022-07-26T13:21:19Z</time>
      </trkpt>
      <trkpt lat="44.09267" lon="7.06602">
        <ele>1149</ele>
        <time>2022-07-26T13:21:20Z</time>
      </trkpt>
      <trkpt lat="44.09267" lon="7.06603">
        <ele>1149</ele>
        <time>2022-07-26T13:21:21Z</time>
      </trkpt>
      <trkpt lat="44.09267" lon="7.06605">
        <ele>1149</ele>
        <time>2022-07-26T13:21:22Z</time>
      </trkpt>
      <trkpt lat="44.09267" lon="7.06606">
        <ele>1149</ele>
        <time>2022-07-26T13:21:23Z</time>
      </trkpt>
      <trkpt lat="44.09268" lon="7.06608">
        <ele>1149</ele>
        <time>2022-07-26T13:21:24Z</time>
      </trkpt>
      <trkpt lat="44.09268" lon="7.06609">
        <ele>1149</ele>
        <time>2022-07-26T13:21:25Z</time>
      </trkpt>
      <trkpt lat="44.09268" lon="7.0661">
        <ele>1149</ele>
        <time>2022-07-26T13:21:26Z</time>
      </trkpt>
      <trkpt lat="44.09268" lon="7.06612">
        <ele>1150</ele>
        <time>2022-07-26T13:21:27Z</time>
      </trkpt>
      <trkpt lat="44.09268" lon="7.06613">
        <ele>1150</ele>
        <time>2022-07-26T13:21:28Z</time>
      </trkpt>
      <trkpt lat="44.09268" lon="7.06614">
        <ele>1150</ele>
        <time>2022-07-26T13:21:29Z</time>
      </trkpt>
      <trkpt lat="44.09268" lon="7.06615">
        <ele>1150</ele>
        <time>2022-07-26T13:21:30Z</time>
      </trkpt>
      <trkpt lat="44.09268" lon="7.06616">
        <ele>1150</ele>
        <time>2022-07-26T13:21:31Z</time>
      </trkpt>
      <trkpt lat="44.09268" lon="7.06617">
        <ele>1150</ele>
        <time>2022-07-26T13:21:32Z</time>
      </trkpt>
      <trkpt lat="44.09268" lon="7.06618">
        <ele>1150</ele>
        <time>2022-07-26T13:21:33Z</time>
      </trkpt>
      <trkpt lat="44.09268" lon="7.06619">
        <ele>1150</ele>
        <time>2022-07-26T13:21:34Z</time>
      </trkpt>
      <trkpt lat="44.09268" lon="7.0662">
        <ele>1150</ele>
        <time>2022-07-26T13:21:35Z</time>
      </trkpt>
      <trkpt lat="44.09267" lon="7.06621">
        <ele>1150</ele>
        <time>2022-07-26T13:21:36Z</time>
      </trkpt>
      <trkpt lat="44.09267" lon="7.06622">
        <ele>1150</ele>
        <time>2022-07-26T13:21:37Z</time>
      </trkpt>
      <trkpt lat="44.09267" lon="7.06623">
        <ele>1150</ele>
        <time>2022-07-26T13:21:38Z</time>
      </trkpt>
      <trkpt lat="44.09267" lon="7.06625">
        <ele>1150</ele>
        <time>2022-07-26T13:21:39Z</time>
      </trkpt>
      <trkpt lat="44.09267" lon="7.06626">
        <ele>1150</ele>
        <time>2022-07-26T13:21:40Z</time>
      </trkpt>
      <trkpt lat="44.09267" lon="7.06627">
        <ele>1150</ele>
        <time>2022-07-26T13:21:41Z</time>
      </trkpt>
      <trkpt lat="44.09267" lon="7.06629">
        <ele>1150</ele>
        <time>2022-07-26T13:21:42Z</time>
      </trkpt>
      <trkpt lat="44.09267" lon="7.0663">
        <ele>1150</ele>
        <time>2022-07-26T13:21:43Z</time>
      </trkpt>
      <trkpt lat="44.09268" lon="7.06632">
        <ele>1150</ele>
        <time>2022-07-26T13:21:44Z</time>
      </trkpt>
      <trkpt lat="44.09268" lon="7.06634">
        <ele>1150</ele>
        <time>2022-07-26T13:21:45Z</time>
      </trkpt>
      <trkpt lat="44.09268" lon="7.06635">
        <ele>1150</ele>
        <time>2022-07-26T13:21:46Z</time>
      </trkpt>
      <trkpt lat="44.09268" lon="7.06637">
        <ele>1150</ele>
        <time>2022-07-26T13:21:47Z</time>
      </trkpt>
      <trkpt lat="44.09269" lon="7.06638">
        <ele>1149</ele>
        <time>2022-07-26T13:21:48Z</time>
      </trkpt>
      <trkpt lat="44.09269" lon="7.0664">
        <ele>1149</ele>
        <time>2022-07-26T13:21:49Z</time>
      </trkpt>
      <trkpt lat="44.09269" lon="7.06641">
        <ele>1149</ele>
        <time>2022-07-26T13:21:50Z</time>
      </trkpt>
      <trkpt lat="44.09269" lon="7.06642">
        <ele>1149</ele>
        <time>2022-07-26T13:21:51Z</time>
      </trkpt>
      <trkpt lat="44.09269" lon="7.06644">
        <ele>1149</ele>
        <time>2022-07-26T13:21:52Z</time>
      </trkpt>
      <trkpt lat="44.09269" lon="7.06645">
        <ele>1148</ele>
        <time>2022-07-26T13:21:53Z</time>
      </trkpt>
      <trkpt lat="44.09268" lon="7.06646">
        <ele>1148</ele>
        <time>2022-07-26T13:21:54Z</time>
      </trkpt>
      <trkpt lat="44.09268" lon="7.06647">
        <ele>1148</ele>
        <time>2022-07-26T13:21:55Z</time>
      </trkpt>
      <trkpt lat="44.09268" lon="7.06648">
        <ele>1148</ele>
        <time>2022-07-26T13:21:56Z</time>
      </trkpt>
      <trkpt lat="44.09268" lon="7.06649">
        <ele>1148</ele>
        <time>2022-07-26T13:21:57Z</time>
      </trkpt>
      <trkpt lat="44.09268" lon="7.0665">
        <ele>1148</ele>
        <time>2022-07-26T13:21:58Z</time>
      </trkpt>
      <trkpt lat="44.09268" lon="7.0665">
        <ele>1148</ele>
        <time>2022-07-26T13:21:59Z</time>
      </trkpt>
      <trkpt lat="44.09269" lon="7.06651">
        <ele>1148</ele>
        <time>2022-07-26T13:22:00Z</time>
      </trkpt>
      <trkpt lat="44.09269" lon="7.06653">
        <ele>1148</ele>
        <time>2022-07-26T13:22:01Z</time>
      </trkpt>
      <trkpt lat="44.09269" lon="7.06653">
        <ele>1148</ele>
        <time>2022-07-26T13:22:02Z</time>
      </trkpt>
      <trkpt lat="44.0927" lon="7.06654">
        <ele>1147</ele>
        <time>2022-07-26T13:22:03Z</time>
      </trkpt>
      <trkpt lat="44.0927" lon="7.06655">
        <ele>1147</ele>
        <time>2022-07-26T13:22:04Z</time>
      </trkpt>
      <trkpt lat="44.09271" lon="7.06656">
        <ele>1147</ele>
        <time>2022-07-26T13:22:05Z</time>
      </trkpt>
      <trkpt lat="44.09272" lon="7.06657">
        <ele>1147</ele>
        <time>2022-07-26T13:22:06Z</time>
      </trkpt>
      <trkpt lat="44.09272" lon="7.06658">
        <ele>1147</ele>
        <time>2022-07-26T13:22:07Z</time>
      </trkpt>
      <trkpt lat="44.09273" lon="7.06659">
        <ele>1147</ele>
        <time>2022-07-26T13:22:08Z</time>
      </trkpt>
      <trkpt lat="44.09273" lon="7.0666">
        <ele>1147</ele>
        <time>2022-07-26T13:22:09Z</time>
      </trkpt>
      <trkpt lat="44.09274" lon="7.06661">
        <ele>1147</ele>
        <time>2022-07-26T13:22:10Z</time>
      </trkpt>
      <trkpt lat="44.09274" lon="7.06663">
        <ele>1147</ele>
        <time>2022-07-26T13:22:11Z</time>
      </trkpt>
      <trkpt lat="44.09274" lon="7.06664">
        <ele>1147</ele>
        <time>2022-07-26T13:22:12Z</time>
      </trkpt>
      <trkpt lat="44.09274" lon="7.06665">
        <ele>1147</ele>
        <time>2022-07-26T13:22:13Z</time>
      </trkpt>
      <trkpt lat="44.09274" lon="7.06666">
        <ele>1147</ele>
        <time>2022-07-26T13:22:14Z</time>
      </trkpt>
      <trkpt lat="44.09273" lon="7.06667">
        <ele>1147</ele>
        <time>2022-07-26T13:22:15Z</time>
      </trkpt>
      <trkpt lat="44.09273" lon="7.06668">
        <ele>1147</ele>
        <time>2022-07-26T13:22:16Z</time>
      </trkpt>
      <trkpt lat="44.09273" lon="7.06669">
        <ele>1147</ele>
        <time>2022-07-26T13:22:17Z</time>
      </trkpt>
      <trkpt lat="44.09273" lon="7.0667">
        <ele>1146</ele>
        <time>2022-07-26T13:22:18Z</time>
      </trkpt>
      <trkpt lat="44.09273" lon="7.06672">
        <ele>1146</ele>
        <time>2022-07-26T13:22:19Z</time>
      </trkpt>
      <trkpt lat="44.09273" lon="7.06673">
        <ele>1146</ele>
        <time>2022-07-26T13:22:20Z</time>
      </trkpt>
      <trkpt lat="44.09273" lon="7.06674">
        <ele>1146</ele>
        <time>2022-07-26T13:22:21Z</time>
      </trkpt>
      <trkpt lat="44.09273" lon="7.06676">
        <ele>1146</ele>
        <time>2022-07-26T13:22:22Z</time>
      </trkpt>
      <trkpt lat="44.09273" lon="7.06677">
        <ele>1145</ele>
        <time>2022-07-26T13:22:23Z</time>
      </trkpt>
      <trkpt lat="44.09273" lon="7.06678">
        <ele>1145</ele>
        <time>2022-07-26T13:22:24Z</time>
      </trkpt>
      <trkpt lat="44.09273" lon="7.06679">
        <ele>1144</ele>
        <time>2022-07-26T13:22:25Z</time>
      </trkpt>
      <trkpt lat="44.09273" lon="7.0668">
        <ele>1144</ele>
        <time>2022-07-26T13:22:26Z</time>
      </trkpt>
      <trkpt lat="44.09273" lon="7.06681">
        <ele>1144</ele>
        <time>2022-07-26T13:22:27Z</time>
      </trkpt>
      <trkpt lat="44.09273" lon="7.06682">
        <ele>1143</ele>
        <time>2022-07-26T13:22:28Z</time>
      </trkpt>
      <trkpt lat="44.09273" lon="7.06683">
        <ele>1143</ele>
        <time>2022-07-26T13:22:29Z</time>
      </trkpt>
      <trkpt lat="44.09274" lon="7.06684">
        <ele>1143</ele>
        <time>2022-07-26T13:22:30Z</time>
      </trkpt>
      <trkpt lat="44.09274" lon="7.06686">
        <ele>1143</ele>
        <time>2022-07-26T13:22:31Z</time>
      </trkpt>
      <trkpt lat="44.09274" lon="7.06687">
        <ele>1143</ele>
        <time>2022-07-26T13:22:32Z</time>
      </trkpt>
      <trkpt lat="44.09274" lon="7.06688">
        <ele>1142</ele>
        <time>2022-07-26T13:22:33Z</time>
      </trkpt>
      <trkpt lat="44.09275" lon="7.06689">
        <ele>1142</ele>
        <time>2022-07-26T13:22:34Z</time>
      </trkpt>
      <trkpt lat="44.09275" lon="7.0669">
        <ele>1142</ele>
        <time>2022-07-26T13:22:35Z</time>
      </trkpt>
      <trkpt lat="44.09276" lon="7.06691">
        <ele>1142</ele>
        <time>2022-07-26T13:22:36Z</time>
      </trkpt>
      <trkpt lat="44.09276" lon="7.06693">
        <ele>1142</ele>
        <time>2022-07-26T13:22:37Z</time>
      </trkpt>
      <trkpt lat="44.09277" lon="7.06694">
        <ele>1141</ele>
        <time>2022-07-26T13:22:38Z</time>
      </trkpt>
      <trkpt lat="44.09277" lon="7.06696">
        <ele>1141</ele>
        <time>2022-07-26T13:22:39Z</time>
      </trkpt>
      <trkpt lat="44.09277" lon="7.06697">
        <ele>1141</ele>
        <time>2022-07-26T13:22:40Z</time>
      </trkpt>
      <trkpt lat="44.09277" lon="7.06698">
        <ele>1141</ele>
        <time>2022-07-26T13:22:41Z</time>
      </trkpt>
      <trkpt lat="44.09278" lon="7.067">
        <ele>1141</ele>
        <time>2022-07-26T13:22:42Z</time>
      </trkpt>
      <trkpt lat="44.09278" lon="7.06701">
        <ele>1140</ele>
        <time>2022-07-26T13:22:43Z</time>
      </trkpt>
      <trkpt lat="44.09279" lon="7.06702">
        <ele>1140</ele>
        <time>2022-07-26T13:22:44Z</time>
      </trkpt>
      <trkpt lat="44.09279" lon="7.06703">
        <ele>1140</ele>
        <time>2022-07-26T13:22:45Z</time>
      </trkpt>
      <trkpt lat="44.09279" lon="7.06704">
        <ele>1140</ele>
        <time>2022-07-26T13:22:46Z</time>
      </trkpt>
      <trkpt lat="44.0928" lon="7.06706">
        <ele>1140</ele>
        <time>2022-07-26T13:22:47Z</time>
      </trkpt>
      <trkpt lat="44.0928" lon="7.06707">
        <ele>1140</ele>
        <time>2022-07-26T13:22:48Z</time>
      </trkpt>
      <trkpt lat="44.09281" lon="7.06708">
        <ele>1140</ele>
        <time>2022-07-26T13:22:49Z</time>
      </trkpt>
      <trkpt lat="44.09281" lon="7.06709">
        <ele>1140</ele>
        <time>2022-07-26T13:22:50Z</time>
      </trkpt>
      <trkpt lat="44.09282" lon="7.06711">
        <ele>1140</ele>
        <time>2022-07-26T13:22:51Z</time>
      </trkpt>
      <trkpt lat="44.09282" lon="7.06712">
        <ele>1140</ele>
        <time>2022-07-26T13:22:52Z</time>
      </trkpt>
      <trkpt lat="44.09283" lon="7.06713">
        <ele>1139</ele>
        <time>2022-07-26T13:22:53Z</time>
      </trkpt>
      <trkpt lat="44.09284" lon="7.06714">
        <ele>1139</ele>
        <time>2022-07-26T13:22:54Z</time>
      </trkpt>
      <trkpt lat="44.09285" lon="7.06715">
        <ele>1139</ele>
        <time>2022-07-26T13:22:55Z</time>
      </trkpt>
      <trkpt lat="44.09286" lon="7.06716">
        <ele>1139</ele>
        <time>2022-07-26T13:22:56Z</time>
      </trkpt>
      <trkpt lat="44.09286" lon="7.06716">
        <ele>1139</ele>
        <time>2022-07-26T13:22:57Z</time>
      </trkpt>
      <trkpt lat="44.09287" lon="7.06717">
        <ele>1139</ele>
        <time>2022-07-26T13:22:58Z</time>
      </trkpt>
      <trkpt lat="44.09288" lon="7.06717">
        <ele>1139</ele>
        <time>2022-07-26T13:22:59Z</time>
      </trkpt>
      <trkpt lat="44.09289" lon="7.06718">
        <ele>1139</ele>
        <time>2022-07-26T13:23:00Z</time>
      </trkpt>
      <trkpt lat="44.0929" lon="7.06718">
        <ele>1139</ele>
        <time>2022-07-26T13:23:01Z</time>
      </trkpt>
      <trkpt lat="44.09291" lon="7.06719">
        <ele>1139</ele>
        <time>2022-07-26T13:23:02Z</time>
      </trkpt>
      <trkpt lat="44.09292" lon="7.0672">
        <ele>1138</ele>
        <time>2022-07-26T13:23:03Z</time>
      </trkpt>
      <trkpt lat="44.09292" lon="7.0672">
        <ele>1138</ele>
        <time>2022-07-26T13:23:04Z</time>
      </trkpt>
      <trkpt lat="44.09293" lon="7.06721">
        <ele>1138</ele>
        <time>2022-07-26T13:23:05Z</time>
      </trkpt>
      <trkpt lat="44.09294" lon="7.06722">
        <ele>1138</ele>
        <time>2022-07-26T13:23:06Z</time>
      </trkpt>
      <trkpt lat="44.09294" lon="7.06724">
        <ele>1138</ele>
        <time>2022-07-26T13:23:07Z</time>
      </trkpt>
      <trkpt lat="44.09295" lon="7.06725">
        <ele>1138</ele>
        <time>2022-07-26T13:23:08Z</time>
      </trkpt>
      <trkpt lat="44.09295" lon="7.06726">
        <ele>1138</ele>
        <time>2022-07-26T13:23:09Z</time>
      </trkpt>
      <trkpt lat="44.09296" lon="7.06728">
        <ele>1138</ele>
        <time>2022-07-26T13:23:10Z</time>
      </trkpt>
      <trkpt lat="44.09296" lon="7.06729">
        <ele>1138</ele>
        <time>2022-07-26T13:23:11Z</time>
      </trkpt>
      <trkpt lat="44.09296" lon="7.0673">
        <ele>1138</ele>
        <time>2022-07-26T13:23:12Z</time>
      </trkpt>
      <trkpt lat="44.09296" lon="7.06731">
        <ele>1138</ele>
        <time>2022-07-26T13:23:13Z</time>
      </trkpt>
      <trkpt lat="44.09297" lon="7.06733">
        <ele>1138</ele>
        <time>2022-07-26T13:23:14Z</time>
      </trkpt>
      <trkpt lat="44.09297" lon="7.06734">
        <ele>1138</ele>
        <time>2022-07-26T13:23:15Z</time>
      </trkpt>
      <trkpt lat="44.09297" lon="7.06735">
        <ele>1138</ele>
        <time>2022-07-26T13:23:16Z</time>
      </trkpt>
      <trkpt lat="44.09298" lon="7.06737">
        <ele>1138</ele>
        <time>2022-07-26T13:23:17Z</time>
      </trkpt>
      <trkpt lat="44.09298" lon="7.06739">
        <ele>1137</ele>
        <time>2022-07-26T13:23:18Z</time>
      </trkpt>
      <trkpt lat="44.09299" lon="7.0674">
        <ele>1137</ele>
        <time>2022-07-26T13:23:19Z</time>
      </trkpt>
      <trkpt lat="44.093" lon="7.06742">
        <ele>1137</ele>
        <time>2022-07-26T13:23:20Z</time>
      </trkpt>
      <trkpt lat="44.093" lon="7.06743">
        <ele>1137</ele>
        <time>2022-07-26T13:23:21Z</time>
      </trkpt>
      <trkpt lat="44.09301" lon="7.06745">
        <ele>1137</ele>
        <time>2022-07-26T13:23:22Z</time>
      </trkpt>
      <trkpt lat="44.09301" lon="7.06746">
        <ele>1137</ele>
        <time>2022-07-26T13:23:23Z</time>
      </trkpt>
      <trkpt lat="44.09302" lon="7.06747">
        <ele>1137</ele>
        <time>2022-07-26T13:23:24Z</time>
      </trkpt>
      <trkpt lat="44.09303" lon="7.06748">
        <ele>1137</ele>
        <time>2022-07-26T13:23:25Z</time>
      </trkpt>
      <trkpt lat="44.09303" lon="7.06749">
        <ele>1137</ele>
        <time>2022-07-26T13:23:26Z</time>
      </trkpt>
      <trkpt lat="44.09304" lon="7.0675">
        <ele>1137</ele>
        <time>2022-07-26T13:23:27Z</time>
      </trkpt>
      <trkpt lat="44.09304" lon="7.06751">
        <ele>1137</ele>
        <time>2022-07-26T13:23:28Z</time>
      </trkpt>
      <trkpt lat="44.09305" lon="7.06752">
        <ele>1137</ele>
        <time>2022-07-26T13:23:29Z</time>
      </trkpt>
      <trkpt lat="44.09306" lon="7.06752">
        <ele>1137</ele>
        <time>2022-07-26T13:23:30Z</time>
      </trkpt>
      <trkpt lat="44.09306" lon="7.06753">
        <ele>1137</ele>
        <time>2022-07-26T13:23:31Z</time>
      </trkpt>
      <trkpt lat="44.09306" lon="7.06753">
        <ele>1137</ele>
        <time>2022-07-26T13:23:32Z</time>
      </trkpt>
      <trkpt lat="44.09307" lon="7.06754">
        <ele>1137</ele>
        <time>2022-07-26T13:23:33Z</time>
      </trkpt>
      <trkpt lat="44.09307" lon="7.06754">
        <ele>1137</ele>
        <time>2022-07-26T13:23:34Z</time>
      </trkpt>
      <trkpt lat="44.09307" lon="7.06755">
        <ele>1137</ele>
        <time>2022-07-26T13:23:35Z</time>
      </trkpt>
      <trkpt lat="44.09307" lon="7.06756">
        <ele>1137</ele>
        <time>2022-07-26T13:23:36Z</time>
      </trkpt>
      <trkpt lat="44.09307" lon="7.06756">
        <ele>1137</ele>
        <time>2022-07-26T13:23:37Z</time>
      </trkpt>
      <trkpt lat="44.09307" lon="7.06757">
        <ele>1137</ele>
        <time>2022-07-26T13:23:38Z</time>
      </trkpt>
      <trkpt lat="44.09307" lon="7.06758">
        <ele>1137</ele>
        <time>2022-07-26T13:23:39Z</time>
      </trkpt>
      <trkpt lat="44.09307" lon="7.06758">
        <ele>1137</ele>
        <time>2022-07-26T13:23:40Z</time>
      </trkpt>
      <trkpt lat="44.09306" lon="7.06759">
        <ele>1137</ele>
        <time>2022-07-26T13:23:41Z</time>
      </trkpt>
      <trkpt lat="44.09306" lon="7.06759">
        <ele>1138</ele>
        <time>2022-07-26T13:23:42Z</time>
      </trkpt>
      <trkpt lat="44.09306" lon="7.0676">
        <ele>1138</ele>
        <time>2022-07-26T13:23:43Z</time>
      </trkpt>
      <trkpt lat="44.09305" lon="7.06761">
        <ele>1138</ele>
        <time>2022-07-26T13:23:44Z</time>
      </trkpt>
      <trkpt lat="44.09305" lon="7.06761">
        <ele>1138</ele>
        <time>2022-07-26T13:23:45Z</time>
      </trkpt>
      <trkpt lat="44.09305" lon="7.06762">
        <ele>1138</ele>
        <time>2022-07-26T13:23:46Z</time>
      </trkpt>
      <trkpt lat="44.09305" lon="7.06762">
        <ele>1138</ele>
        <time>2022-07-26T13:23:47Z</time>
      </trkpt>
      <trkpt lat="44.09305" lon="7.06763">
        <ele>1138</ele>
        <time>2022-07-26T13:23:48Z</time>
      </trkpt>
      <trkpt lat="44.09305" lon="7.06764">
        <ele>1138</ele>
        <time>2022-07-26T13:23:49Z</time>
      </trkpt>
      <trkpt lat="44.09304" lon="7.06764">
        <ele>1138</ele>
        <time>2022-07-26T13:23:50Z</time>
      </trkpt>
      <trkpt lat="44.09304" lon="7.06765">
        <ele>1138</ele>
        <time>2022-07-26T13:23:51Z</time>
      </trkpt>
      <trkpt lat="44.09305" lon="7.06766">
        <ele>1138</ele>
        <time>2022-07-26T13:23:52Z</time>
      </trkpt>
      <trkpt lat="44.09305" lon="7.06767">
        <ele>1138</ele>
        <time>2022-07-26T13:23:53Z</time>
      </trkpt>
      <trkpt lat="44.09306" lon="7.06768">
        <ele>1139</ele>
        <time>2022-07-26T13:24:03Z</time>
      </trkpt>
      <trkpt lat="44.09307" lon="7.06768">
        <ele>1139</ele>
        <time>2022-07-26T13:24:04Z</time>
      </trkpt>
      <trkpt lat="44.09308" lon="7.06768">
        <ele>1139</ele>
        <time>2022-07-26T13:24:05Z</time>
      </trkpt>
      <trkpt lat="44.09309" lon="7.06769">
        <ele>1139</ele>
        <time>2022-07-26T13:24:06Z</time>
      </trkpt>
      <trkpt lat="44.0931" lon="7.06769">
        <ele>1139</ele>
        <time>2022-07-26T13:24:07Z</time>
      </trkpt>
      <trkpt lat="44.0931" lon="7.06769">
        <ele>1139</ele>
        <time>2022-07-26T13:24:08Z</time>
      </trkpt>
      <trkpt lat="44.09311" lon="7.0677">
        <ele>1139</ele>
        <time>2022-07-26T13:24:09Z</time>
      </trkpt>
      <trkpt lat="44.09312" lon="7.0677">
        <ele>1139</ele>
        <time>2022-07-26T13:24:10Z</time>
      </trkpt>
      <trkpt lat="44.09312" lon="7.0677">
        <ele>1139</ele>
        <time>2022-07-26T13:24:11Z</time>
      </trkpt>
      <trkpt lat="44.09312" lon="7.0677">
        <ele>1140</ele>
        <time>2022-07-26T13:24:12Z</time>
      </trkpt>
      <trkpt lat="44.09313" lon="7.0677">
        <ele>1140</ele>
        <time>2022-07-26T13:24:13Z</time>
      </trkpt>
      <trkpt lat="44.09313" lon="7.0677">
        <ele>1140</ele>
        <time>2022-07-26T13:24:14Z</time>
      </trkpt>
      <trkpt lat="44.09314" lon="7.06771">
        <ele>1140</ele>
        <time>2022-07-26T13:24:15Z</time>
      </trkpt>
      <trkpt lat="44.09314" lon="7.06771">
        <ele>1140</ele>
        <time>2022-07-26T13:24:16Z</time>
      </trkpt>
      <trkpt lat="44.09315" lon="7.06772">
        <ele>1141</ele>
        <time>2022-07-26T13:24:17Z</time>
      </trkpt>
      <trkpt lat="44.09315" lon="7.06772">
        <ele>1141</ele>
        <time>2022-07-26T13:24:18Z</time>
      </trkpt>
      <trkpt lat="44.09315" lon="7.06773">
        <ele>1141</ele>
        <time>2022-07-26T13:24:19Z</time>
      </trkpt>
      <trkpt lat="44.09315" lon="7.06773">
        <ele>1141</ele>
        <time>2022-07-26T13:24:20Z</time>
      </trkpt>
      <trkpt lat="44.09315" lon="7.06774">
        <ele>1141</ele>
        <time>2022-07-26T13:24:21Z</time>
      </trkpt>
      <trkpt lat="44.09314" lon="7.06775">
        <ele>1141</ele>
        <time>2022-07-26T13:24:22Z</time>
      </trkpt>
      <trkpt lat="44.09314" lon="7.06776">
        <ele>1141</ele>
        <time>2022-07-26T13:24:23Z</time>
      </trkpt>
      <trkpt lat="44.09314" lon="7.06777">
        <ele>1141</ele>
        <time>2022-07-26T13:24:24Z</time>
      </trkpt>
      <trkpt lat="44.09314" lon="7.06781">
        <ele>1144</ele>
        <time>2022-07-26T13:24:38Z</time>
      </trkpt>
      <trkpt lat="44.09314" lon="7.06783">
        <ele>1144</ele>
        <time>2022-07-26T13:24:39Z</time>
      </trkpt>
      <trkpt lat="44.09314" lon="7.06785">
        <ele>1145</ele>
        <time>2022-07-26T13:24:40Z</time>
      </trkpt>
      <trkpt lat="44.09314" lon="7.06786">
        <ele>1145</ele>
        <time>2022-07-26T13:24:41Z</time>
      </trkpt>
      <trkpt lat="44.09314" lon="7.06787">
        <ele>1146</ele>
        <time>2022-07-26T13:24:42Z</time>
      </trkpt>
      <trkpt lat="44.09313" lon="7.0679">
        <ele>1146</ele>
        <time>2022-07-26T13:24:51Z</time>
      </trkpt>
      <trkpt lat="44.09313" lon="7.06791">
        <ele>1147</ele>
        <time>2022-07-26T13:24:52Z</time>
      </trkpt>
      <trkpt lat="44.09313" lon="7.06793">
        <ele>1147</ele>
        <time>2022-07-26T13:24:53Z</time>
      </trkpt>
      <trkpt lat="44.09313" lon="7.06794">
        <ele>1147</ele>
        <time>2022-07-26T13:24:54Z</time>
      </trkpt>
      <trkpt lat="44.09313" lon="7.06795">
        <ele>1147</ele>
        <time>2022-07-26T13:24:55Z</time>
      </trkpt>
      <trkpt lat="44.09313" lon="7.06795">
        <ele>1147</ele>
        <time>2022-07-26T13:24:56Z</time>
      </trkpt>
      <trkpt lat="44.09313" lon="7.06796">
        <ele>1148</ele>
        <time>2022-07-26T13:24:57Z</time>
      </trkpt>
      <trkpt lat="44.09313" lon="7.06797">
        <ele>1148</ele>
        <time>2022-07-26T13:24:58Z</time>
      </trkpt>
      <trkpt lat="44.09313" lon="7.06797">
        <ele>1148</ele>
        <time>2022-07-26T13:24:59Z</time>
      </trkpt>
      <trkpt lat="44.09314" lon="7.06797">
        <ele>1148</ele>
        <time>2022-07-26T13:25:00Z</time>
      </trkpt>
      <trkpt lat="44.09314" lon="7.06798">
        <ele>1148</ele>
        <time>2022-07-26T13:25:01Z</time>
      </trkpt>
      <trkpt lat="44.09314" lon="7.06799">
        <ele>1149</ele>
        <time>2022-07-26T13:25:02Z</time>
      </trkpt>
      <trkpt lat="44.09315" lon="7.068">
        <ele>1149</ele>
        <time>2022-07-26T13:25:03Z</time>
      </trkpt>
      <trkpt lat="44.09315" lon="7.06801">
        <ele>1149</ele>
        <time>2022-07-26T13:25:04Z</time>
      </trkpt>
      <trkpt lat="44.09316" lon="7.06802">
        <ele>1151</ele>
        <time>2022-07-26T13:25:13Z</time>
      </trkpt>
      <trkpt lat="44.09316" lon="7.06804">
        <ele>1151</ele>
        <time>2022-07-26T13:25:14Z</time>
      </trkpt>
      <trkpt lat="44.09317" lon="7.06805">
        <ele>1151</ele>
        <time>2022-07-26T13:25:15Z</time>
      </trkpt>
      <trkpt lat="44.09317" lon="7.06806">
        <ele>1151</ele>
        <time>2022-07-26T13:25:16Z</time>
      </trkpt>
      <trkpt lat="44.09315" lon="7.06808">
        <ele>1154</ele>
        <time>2022-07-26T13:25:32Z</time>
      </trkpt>
      <trkpt lat="44.09314" lon="7.0681">
        <ele>1154</ele>
        <time>2022-07-26T13:25:33Z</time>
      </trkpt>
      <trkpt lat="44.09313" lon="7.06811">
        <ele>1154</ele>
        <time>2022-07-26T13:25:34Z</time>
      </trkpt>
      <trkpt lat="44.09312" lon="7.06811">
        <ele>1154</ele>
        <time>2022-07-26T13:25:35Z</time>
      </trkpt>
      <trkpt lat="44.09311" lon="7.06812">
        <ele>1154</ele>
        <time>2022-07-26T13:25:36Z</time>
      </trkpt>
      <trkpt lat="44.0931" lon="7.06812">
        <ele>1155</ele>
        <time>2022-07-26T13:25:37Z</time>
      </trkpt>
      <trkpt lat="44.09309" lon="7.06813">
        <ele>1155</ele>
        <time>2022-07-26T13:25:38Z</time>
      </trkpt>
      <trkpt lat="44.09308" lon="7.06814">
        <ele>1155</ele>
        <time>2022-07-26T13:25:39Z</time>
      </trkpt>
      <trkpt lat="44.09308" lon="7.06815">
        <ele>1155</ele>
        <time>2022-07-26T13:25:40Z</time>
      </trkpt>
      <trkpt lat="44.09307" lon="7.06816">
        <ele>1155</ele>
        <time>2022-07-26T13:25:41Z</time>
      </trkpt>
      <trkpt lat="44.09307" lon="7.06817">
        <ele>1156</ele>
        <time>2022-07-26T13:25:42Z</time>
      </trkpt>
      <trkpt lat="44.09307" lon="7.06818">
        <ele>1156</ele>
        <time>2022-07-26T13:25:43Z</time>
      </trkpt>
      <trkpt lat="44.09306" lon="7.0682">
        <ele>1156</ele>
        <time>2022-07-26T13:25:44Z</time>
      </trkpt>
      <trkpt lat="44.09306" lon="7.06821">
        <ele>1156</ele>
        <time>2022-07-26T13:25:45Z</time>
      </trkpt>
      <trkpt lat="44.09306" lon="7.06822">
        <ele>1156</ele>
        <time>2022-07-26T13:25:46Z</time>
      </trkpt>
      <trkpt lat="44.09306" lon="7.06824">
        <ele>1157</ele>
        <time>2022-07-26T13:25:47Z</time>
      </trkpt>
      <trkpt lat="44.09306" lon="7.06825">
        <ele>1157</ele>
        <time>2022-07-26T13:25:48Z</time>
      </trkpt>
      <trkpt lat="44.09306" lon="7.06826">
        <ele>1157</ele>
        <time>2022-07-26T13:25:49Z</time>
      </trkpt>
      <trkpt lat="44.09306" lon="7.06828">
        <ele>1157</ele>
        <time>2022-07-26T13:25:50Z</time>
      </trkpt>
      <trkpt lat="44.09306" lon="7.0683">
        <ele>1157</ele>
        <time>2022-07-26T13:25:51Z</time>
      </trkpt>
      <trkpt lat="44.09306" lon="7.06831">
        <ele>1157</ele>
        <time>2022-07-26T13:25:52Z</time>
      </trkpt>
      <trkpt lat="44.09306" lon="7.06833">
        <ele>1157</ele>
        <time>2022-07-26T13:25:53Z</time>
      </trkpt>
      <trkpt lat="44.09306" lon="7.06835">
        <ele>1157</ele>
        <time>2022-07-26T13:25:54Z</time>
      </trkpt>
      <trkpt lat="44.09306" lon="7.06837">
        <ele>1157</ele>
        <time>2022-07-26T13:25:55Z</time>
      </trkpt>
      <trkpt lat="44.09306" lon="7.06838">
        <ele>1157</ele>
        <time>2022-07-26T13:25:56Z</time>
      </trkpt>
      <trkpt lat="44.09306" lon="7.06839">
        <ele>1158</ele>
        <time>2022-07-26T13:25:57Z</time>
      </trkpt>
      <trkpt lat="44.09306" lon="7.0684">
        <ele>1158</ele>
        <time>2022-07-26T13:25:58Z</time>
      </trkpt>
      <trkpt lat="44.09305" lon="7.06841">
        <ele>1158</ele>
        <time>2022-07-26T13:25:59Z</time>
      </trkpt>
      <trkpt lat="44.09304" lon="7.06842">
        <ele>1158</ele>
        <time>2022-07-26T13:26:00Z</time>
      </trkpt>
      <trkpt lat="44.09304" lon="7.06842">
        <ele>1158</ele>
        <time>2022-07-26T13:26:01Z</time>
      </trkpt>
      <trkpt lat="44.09303" lon="7.06843">
        <ele>1158</ele>
        <time>2022-07-26T13:26:02Z</time>
      </trkpt>
      <trkpt lat="44.09303" lon="7.06844">
        <ele>1158</ele>
        <time>2022-07-26T13:26:03Z</time>
      </trkpt>
      <trkpt lat="44.09302" lon="7.06845">
        <ele>1158</ele>
        <time>2022-07-26T13:26:04Z</time>
      </trkpt>
      <trkpt lat="44.09301" lon="7.06847">
        <ele>1158</ele>
        <time>2022-07-26T13:26:05Z</time>
      </trkpt>
      <trkpt lat="44.09301" lon="7.06848">
        <ele>1158</ele>
        <time>2022-07-26T13:26:06Z</time>
      </trkpt>
      <trkpt lat="44.09301" lon="7.06849">
        <ele>1158</ele>
        <time>2022-07-26T13:26:07Z</time>
      </trkpt>
      <trkpt lat="44.093" lon="7.0685">
        <ele>1158</ele>
        <time>2022-07-26T13:26:08Z</time>
      </trkpt>
      <trkpt lat="44.093" lon="7.06851">
        <ele>1158</ele>
        <time>2022-07-26T13:26:09Z</time>
      </trkpt>
      <trkpt lat="44.093" lon="7.06852">
        <ele>1158</ele>
        <time>2022-07-26T13:26:10Z</time>
      </trkpt>
      <trkpt lat="44.093" lon="7.06853">
        <ele>1158</ele>
        <time>2022-07-26T13:26:11Z</time>
      </trkpt>
      <trkpt lat="44.09301" lon="7.06854">
        <ele>1159</ele>
        <time>2022-07-26T13:26:12Z</time>
      </trkpt>
      <trkpt lat="44.09301" lon="7.06855">
        <ele>1159</ele>
        <time>2022-07-26T13:26:13Z</time>
      </trkpt>
      <trkpt lat="44.09301" lon="7.06857">
        <ele>1159</ele>
        <time>2022-07-26T13:26:14Z</time>
      </trkpt>
      <trkpt lat="44.09301" lon="7.06858">
        <ele>1159</ele>
        <time>2022-07-26T13:26:15Z</time>
      </trkpt>
      <trkpt lat="44.09301" lon="7.06859">
        <ele>1159</ele>
        <time>2022-07-26T13:26:16Z</time>
      </trkpt>
      <trkpt lat="44.09301" lon="7.0686">
        <ele>1159</ele>
        <time>2022-07-26T13:26:17Z</time>
      </trkpt>
      <trkpt lat="44.09301" lon="7.06861">
        <ele>1159</ele>
        <time>2022-07-26T13:26:18Z</time>
      </trkpt>
      <trkpt lat="44.09301" lon="7.06862">
        <ele>1159</ele>
        <time>2022-07-26T13:26:19Z</time>
      </trkpt>
      <trkpt lat="44.09301" lon="7.06863">
        <ele>1159</ele>
        <time>2022-07-26T13:26:20Z</time>
      </trkpt>
      <trkpt lat="44.093" lon="7.06864">
        <ele>1159</ele>
        <time>2022-07-26T13:26:21Z</time>
      </trkpt>
      <trkpt lat="44.093" lon="7.06864">
        <ele>1159</ele>
        <time>2022-07-26T13:26:22Z</time>
      </trkpt>
      <trkpt lat="44.093" lon="7.06865">
        <ele>1159</ele>
        <time>2022-07-26T13:26:23Z</time>
      </trkpt>
      <trkpt lat="44.093" lon="7.06866">
        <ele>1159</ele>
        <time>2022-07-26T13:26:24Z</time>
      </trkpt>
      <trkpt lat="44.093" lon="7.06867">
        <ele>1159</ele>
        <time>2022-07-26T13:26:25Z</time>
      </trkpt>
      <trkpt lat="44.093" lon="7.06867">
        <ele>1159</ele>
        <time>2022-07-26T13:26:26Z</time>
      </trkpt>
      <trkpt lat="44.093" lon="7.06868">
        <ele>1160</ele>
        <time>2022-07-26T13:26:27Z</time>
      </trkpt>
      <trkpt lat="44.093" lon="7.06869">
        <ele>1160</ele>
        <time>2022-07-26T13:26:28Z</time>
      </trkpt>
      <trkpt lat="44.09301" lon="7.0687">
        <ele>1160</ele>
        <time>2022-07-26T13:26:29Z</time>
      </trkpt>
      <trkpt lat="44.09301" lon="7.0687">
        <ele>1160</ele>
        <time>2022-07-26T13:26:30Z</time>
      </trkpt>
      <trkpt lat="44.09301" lon="7.06871">
        <ele>1160</ele>
        <time>2022-07-26T13:26:31Z</time>
      </trkpt>
      <trkpt lat="44.09301" lon="7.06872">
        <ele>1161</ele>
        <time>2022-07-26T13:26:32Z</time>
      </trkpt>
      <trkpt lat="44.09302" lon="7.06873">
        <ele>1161</ele>
        <time>2022-07-26T13:26:33Z</time>
      </trkpt>
      <trkpt lat="44.09302" lon="7.06874">
        <ele>1161</ele>
        <time>2022-07-26T13:26:34Z</time>
      </trkpt>
      <trkpt lat="44.09303" lon="7.06874">
        <ele>1162</ele>
        <time>2022-07-26T13:26:35Z</time>
      </trkpt>
      <trkpt lat="44.09303" lon="7.06875">
        <ele>1162</ele>
        <time>2022-07-26T13:26:36Z</time>
      </trkpt>
      <trkpt lat="44.09304" lon="7.06875">
        <ele>1163</ele>
        <time>2022-07-26T13:26:37Z</time>
      </trkpt>
      <trkpt lat="44.09304" lon="7.06875">
        <ele>1163</ele>
        <time>2022-07-26T13:26:38Z</time>
      </trkpt>
      <trkpt lat="44.09305" lon="7.06875">
        <ele>1163</ele>
        <time>2022-07-26T13:26:39Z</time>
      </trkpt>
      <trkpt lat="44.09306" lon="7.06875">
        <ele>1163</ele>
        <time>2022-07-26T13:26:40Z</time>
      </trkpt>
      <trkpt lat="44.09306" lon="7.06876">
        <ele>1163</ele>
        <time>2022-07-26T13:26:41Z</time>
      </trkpt>
      <trkpt lat="44.09307" lon="7.06876">
        <ele>1163</ele>
        <time>2022-07-26T13:26:42Z</time>
      </trkpt>
      <trkpt lat="44.09308" lon="7.06876">
        <ele>1163</ele>
        <time>2022-07-26T13:26:43Z</time>
      </trkpt>
      <trkpt lat="44.09309" lon="7.06876">
        <ele>1163</ele>
        <time>2022-07-26T13:26:44Z</time>
      </trkpt>
      <trkpt lat="44.0931" lon="7.06877">
        <ele>1163</ele>
        <time>2022-07-26T13:26:45Z</time>
      </trkpt>
      <trkpt lat="44.09311" lon="7.06877">
        <ele>1163</ele>
        <time>2022-07-26T13:26:46Z</time>
      </trkpt>
      <trkpt lat="44.09311" lon="7.06878">
        <ele>1164</ele>
        <time>2022-07-26T13:26:47Z</time>
      </trkpt>
      <trkpt lat="44.09312" lon="7.06878">
        <ele>1164</ele>
        <time>2022-07-26T13:26:48Z</time>
      </trkpt>
      <trkpt lat="44.09312" lon="7.06879">
        <ele>1164</ele>
        <time>2022-07-26T13:26:49Z</time>
      </trkpt>
      <trkpt lat="44.09312" lon="7.06879">
        <ele>1164</ele>
        <time>2022-07-26T13:26:50Z</time>
      </trkpt>
      <trkpt lat="44.09312" lon="7.0688">
        <ele>1164</ele>
        <time>2022-07-26T13:26:51Z</time>
      </trkpt>
      <trkpt lat="44.09313" lon="7.06881">
        <ele>1165</ele>
        <time>2022-07-26T13:26:52Z</time>
      </trkpt>
      <trkpt lat="44.09313" lon="7.06882">
        <ele>1165</ele>
        <time>2022-07-26T13:26:53Z</time>
      </trkpt>
      <trkpt lat="44.09312" lon="7.06883">
        <ele>1165</ele>
        <time>2022-07-26T13:26:54Z</time>
      </trkpt>
      <trkpt lat="44.09312" lon="7.06884">
        <ele>1165</ele>
        <time>2022-07-26T13:26:55Z</time>
      </trkpt>
      <trkpt lat="44.09312" lon="7.06885">
        <ele>1165</ele>
        <time>2022-07-26T13:26:56Z</time>
      </trkpt>
      <trkpt lat="44.09313" lon="7.06889">
        <ele>1166</ele>
        <time>2022-07-26T13:27:08Z</time>
      </trkpt>
      <trkpt lat="44.09314" lon="7.0689">
        <ele>1166</ele>
        <time>2022-07-26T13:27:09Z</time>
      </trkpt>
      <trkpt lat="44.09315" lon="7.06892">
        <ele>1166</ele>
        <time>2022-07-26T13:27:10Z</time>
      </trkpt>
      <trkpt lat="44.09315" lon="7.06893">
        <ele>1166</ele>
        <time>2022-07-26T13:27:11Z</time>
      </trkpt>
      <trkpt lat="44.09316" lon="7.06894">
        <ele>1167</ele>
        <time>2022-07-26T13:27:12Z</time>
      </trkpt>
      <trkpt lat="44.09316" lon="7.06895">
        <ele>1167</ele>
        <time>2022-07-26T13:27:13Z</time>
      </trkpt>
      <trkpt lat="44.09316" lon="7.06896">
        <ele>1167</ele>
        <time>2022-07-26T13:27:14Z</time>
      </trkpt>
      <trkpt lat="44.09317" lon="7.06897">
        <ele>1167</ele>
        <time>2022-07-26T13:27:15Z</time>
      </trkpt>
      <trkpt lat="44.09317" lon="7.06897">
        <ele>1167</ele>
        <time>2022-07-26T13:27:16Z</time>
      </trkpt>
      <trkpt lat="44.09317" lon="7.06898">
        <ele>1168</ele>
        <time>2022-07-26T13:27:17Z</time>
      </trkpt>
      <trkpt lat="44.09318" lon="7.06899">
        <ele>1168</ele>
        <time>2022-07-26T13:27:18Z</time>
      </trkpt>
      <trkpt lat="44.09318" lon="7.06899">
        <ele>1168</ele>
        <time>2022-07-26T13:27:19Z</time>
      </trkpt>
      <trkpt lat="44.09318" lon="7.069">
        <ele>1168</ele>
        <time>2022-07-26T13:27:20Z</time>
      </trkpt>
      <trkpt lat="44.09318" lon="7.06901">
        <ele>1168</ele>
        <time>2022-07-26T13:27:21Z</time>
      </trkpt>
      <trkpt lat="44.09318" lon="7.06901">
        <ele>1168</ele>
        <time>2022-07-26T13:27:22Z</time>
      </trkpt>
      <trkpt lat="44.09318" lon="7.06902">
        <ele>1168</ele>
        <time>2022-07-26T13:27:23Z</time>
      </trkpt>
      <trkpt lat="44.09318" lon="7.06902">
        <ele>1168</ele>
        <time>2022-07-26T13:27:24Z</time>
      </trkpt>
      <trkpt lat="44.09317" lon="7.06902">
        <ele>1168</ele>
        <time>2022-07-26T13:27:25Z</time>
      </trkpt>
      <trkpt lat="44.09317" lon="7.06903">
        <ele>1168</ele>
        <time>2022-07-26T13:27:26Z</time>
      </trkpt>
      <trkpt lat="44.09317" lon="7.06904">
        <ele>1168</ele>
        <time>2022-07-26T13:27:27Z</time>
      </trkpt>
      <trkpt lat="44.09317" lon="7.06905">
        <ele>1168</ele>
        <time>2022-07-26T13:27:28Z</time>
      </trkpt>
      <trkpt lat="44.09317" lon="7.06905">
        <ele>1168</ele>
        <time>2022-07-26T13:27:29Z</time>
      </trkpt>
      <trkpt lat="44.09317" lon="7.06906">
        <ele>1168</ele>
        <time>2022-07-26T13:27:30Z</time>
      </trkpt>
      <trkpt lat="44.09318" lon="7.06907">
        <ele>1168</ele>
        <time>2022-07-26T13:27:31Z</time>
      </trkpt>
      <trkpt lat="44.09318" lon="7.06909">
        <ele>1169</ele>
        <time>2022-07-26T13:27:32Z</time>
      </trkpt>
      <trkpt lat="44.09318" lon="7.0691">
        <ele>1169</ele>
        <time>2022-07-26T13:27:33Z</time>
      </trkpt>
      <trkpt lat="44.09318" lon="7.06911">
        <ele>1169</ele>
        <time>2022-07-26T13:27:34Z</time>
      </trkpt>
      <trkpt lat="44.09318" lon="7.06913">
        <ele>1169</ele>
        <time>2022-07-26T13:27:35Z</time>
      </trkpt>
      <trkpt lat="44.09318" lon="7.06914">
        <ele>1169</ele>
        <time>2022-07-26T13:27:36Z</time>
      </trkpt>
      <trkpt lat="44.09318" lon="7.06915">
        <ele>1169</ele>
        <time>2022-07-26T13:27:37Z</time>
      </trkpt>
      <trkpt lat="44.09317" lon="7.06917">
        <ele>1169</ele>
        <time>2022-07-26T13:27:38Z</time>
      </trkpt>
      <trkpt lat="44.09317" lon="7.06918">
        <ele>1169</ele>
        <time>2022-07-26T13:27:39Z</time>
      </trkpt>
      <trkpt lat="44.09316" lon="7.06919">
        <ele>1169</ele>
        <time>2022-07-26T13:27:40Z</time>
      </trkpt>
      <trkpt lat="44.09316" lon="7.06921">
        <ele>1169</ele>
        <time>2022-07-26T13:27:41Z</time>
      </trkpt>
      <trkpt lat="44.09315" lon="7.06922">
        <ele>1169</ele>
        <time>2022-07-26T13:27:42Z</time>
      </trkpt>
      <trkpt lat="44.09315" lon="7.06924">
        <ele>1169</ele>
        <time>2022-07-26T13:27:43Z</time>
      </trkpt>
      <trkpt lat="44.09314" lon="7.06925">
        <ele>1169</ele>
        <time>2022-07-26T13:27:44Z</time>
      </trkpt>
      <trkpt lat="44.09314" lon="7.06926">
        <ele>1169</ele>
        <time>2022-07-26T13:27:45Z</time>
      </trkpt>
      <trkpt lat="44.09313" lon="7.06927">
        <ele>1169</ele>
        <time>2022-07-26T13:27:46Z</time>
      </trkpt>
      <trkpt lat="44.09313" lon="7.06929">
        <ele>1169</ele>
        <time>2022-07-26T13:27:47Z</time>
      </trkpt>
      <trkpt lat="44.09312" lon="7.0693">
        <ele>1169</ele>
        <time>2022-07-26T13:27:48Z</time>
      </trkpt>
      <trkpt lat="44.09312" lon="7.06931">
        <ele>1169</ele>
        <time>2022-07-26T13:27:49Z</time>
      </trkpt>
      <trkpt lat="44.09312" lon="7.06932">
        <ele>1169</ele>
        <time>2022-07-26T13:27:50Z</time>
      </trkpt>
      <trkpt lat="44.09312" lon="7.06933">
        <ele>1169</ele>
        <time>2022-07-26T13:27:51Z</time>
      </trkpt>
      <trkpt lat="44.09312" lon="7.06933">
        <ele>1169</ele>
        <time>2022-07-26T13:27:52Z</time>
      </trkpt>
      <trkpt lat="44.09312" lon="7.06934">
        <ele>1169</ele>
        <time>2022-07-26T13:27:53Z</time>
      </trkpt>
      <trkpt lat="44.09312" lon="7.06935">
        <ele>1169</ele>
        <time>2022-07-26T13:27:54Z</time>
      </trkpt>
      <trkpt lat="44.09312" lon="7.06935">
        <ele>1169</ele>
        <time>2022-07-26T13:27:55Z</time>
      </trkpt>
      <trkpt lat="44.09312" lon="7.06936">
        <ele>1169</ele>
        <time>2022-07-26T13:27:56Z</time>
      </trkpt>
      <trkpt lat="44.09312" lon="7.06938">
        <ele>1169</ele>
        <time>2022-07-26T13:27:57Z</time>
      </trkpt>
      <trkpt lat="44.09313" lon="7.06938">
        <ele>1169</ele>
        <time>2022-07-26T13:27:58Z</time>
      </trkpt>
      <trkpt lat="44.09313" lon="7.06939">
        <ele>1169</ele>
        <time>2022-07-26T13:27:59Z</time>
      </trkpt>
      <trkpt lat="44.09313" lon="7.0694">
        <ele>1169</ele>
        <time>2022-07-26T13:28:00Z</time>
      </trkpt>
      <trkpt lat="44.09313" lon="7.0694">
        <ele>1169</ele>
        <time>2022-07-26T13:28:01Z</time>
      </trkpt>
      <trkpt lat="44.09313" lon="7.06941">
        <ele>1169</ele>
        <time>2022-07-26T13:28:02Z</time>
      </trkpt>
      <trkpt lat="44.09313" lon="7.06942">
        <ele>1169</ele>
        <time>2022-07-26T13:28:03Z</time>
      </trkpt>
      <trkpt lat="44.09314" lon="7.06943">
        <ele>1169</ele>
        <time>2022-07-26T13:28:04Z</time>
      </trkpt>
      <trkpt lat="44.09314" lon="7.06944">
        <ele>1169</ele>
        <time>2022-07-26T13:28:05Z</time>
      </trkpt>
      <trkpt lat="44.09314" lon="7.06945">
        <ele>1169</ele>
        <time>2022-07-26T13:28:06Z</time>
      </trkpt>
      <trkpt lat="44.09315" lon="7.06947">
        <ele>1170</ele>
        <time>2022-07-26T13:28:12Z</time>
      </trkpt>
      <trkpt lat="44.09315" lon="7.06949">
        <ele>1170</ele>
        <time>2022-07-26T13:28:13Z</time>
      </trkpt>
      <trkpt lat="44.09315" lon="7.0695">
        <ele>1170</ele>
        <time>2022-07-26T13:28:14Z</time>
      </trkpt>
      <trkpt lat="44.09315" lon="7.0695">
        <ele>1170</ele>
        <time>2022-07-26T13:28:15Z</time>
      </trkpt>
      <trkpt lat="44.09316" lon="7.06951">
        <ele>1170</ele>
        <time>2022-07-26T13:28:16Z</time>
      </trkpt>
      <trkpt lat="44.09316" lon="7.06952">
        <ele>1171</ele>
        <time>2022-07-26T13:28:17Z</time>
      </trkpt>
      <trkpt lat="44.09316" lon="7.06952">
        <ele>1171</ele>
        <time>2022-07-26T13:28:18Z</time>
      </trkpt>
      <trkpt lat="44.09316" lon="7.06953">
        <ele>1171</ele>
        <time>2022-07-26T13:28:19Z</time>
      </trkpt>
      <trkpt lat="44.09316" lon="7.06954">
        <ele>1171</ele>
        <time>2022-07-26T13:28:20Z</time>
      </trkpt>
      <trkpt lat="44.09316" lon="7.06955">
        <ele>1171</ele>
        <time>2022-07-26T13:28:21Z</time>
      </trkpt>
      <trkpt lat="44.09316" lon="7.06955">
        <ele>1171</ele>
        <time>2022-07-26T13:28:22Z</time>
      </trkpt>
      <trkpt lat="44.09316" lon="7.06956">
        <ele>1171</ele>
        <time>2022-07-26T13:28:23Z</time>
      </trkpt>
      <trkpt lat="44.09316" lon="7.06959">
        <ele>1172</ele>
        <time>2022-07-26T13:28:29Z</time>
      </trkpt>
      <trkpt lat="44.09316" lon="7.0696">
        <ele>1172</ele>
        <time>2022-07-26T13:28:30Z</time>
      </trkpt>
      <trkpt lat="44.09316" lon="7.0696">
        <ele>1172</ele>
        <time>2022-07-26T13:28:31Z</time>
      </trkpt>
      <trkpt lat="44.09315" lon="7.06961">
        <ele>1173</ele>
        <time>2022-07-26T13:28:32Z</time>
      </trkpt>
      <trkpt lat="44.09315" lon="7.06962">
        <ele>1173</ele>
        <time>2022-07-26T13:28:33Z</time>
      </trkpt>
      <trkpt lat="44.09315" lon="7.06964">
        <ele>1173</ele>
        <time>2022-07-26T13:28:39Z</time>
      </trkpt>
      <trkpt lat="44.09314" lon="7.06965">
        <ele>1173</ele>
        <time>2022-07-26T13:28:40Z</time>
      </trkpt>
      <trkpt lat="44.09314" lon="7.06967">
        <ele>1173</ele>
        <time>2022-07-26T13:28:41Z</time>
      </trkpt>
      <trkpt lat="44.09314" lon="7.06968">
        <ele>1173</ele>
        <time>2022-07-26T13:28:42Z</time>
      </trkpt>
      <trkpt lat="44.09314" lon="7.06969">
        <ele>1173</ele>
        <time>2022-07-26T13:28:43Z</time>
      </trkpt>
      <trkpt lat="44.09314" lon="7.0697">
        <ele>1173</ele>
        <time>2022-07-26T13:28:44Z</time>
      </trkpt>
      <trkpt lat="44.09315" lon="7.06972">
        <ele>1175</ele>
        <time>2022-07-26T13:28:52Z</time>
      </trkpt>
      <trkpt lat="44.09315" lon="7.06973">
        <ele>1175</ele>
        <time>2022-07-26T13:28:53Z</time>
      </trkpt>
      <trkpt lat="44.09315" lon="7.06974">
        <ele>1175</ele>
        <time>2022-07-26T13:28:54Z</time>
      </trkpt>
      <trkpt lat="44.09316" lon="7.06975">
        <ele>1175</ele>
        <time>2022-07-26T13:28:55Z</time>
      </trkpt>
      <trkpt lat="44.09316" lon="7.06976">
        <ele>1175</ele>
        <time>2022-07-26T13:28:56Z</time>
      </trkpt>
      <trkpt lat="44.09316" lon="7.06977">
        <ele>1175</ele>
        <time>2022-07-26T13:28:57Z</time>
      </trkpt>
      <trkpt lat="44.09316" lon="7.06977">
        <ele>1175</ele>
        <time>2022-07-26T13:28:58Z</time>
      </trkpt>
      <trkpt lat="44.09316" lon="7.06978">
        <ele>1175</ele>
        <time>2022-07-26T13:28:59Z</time>
      </trkpt>
      <trkpt lat="44.09316" lon="7.06979">
        <ele>1175</ele>
        <time>2022-07-26T13:29:00Z</time>
      </trkpt>
      <trkpt lat="44.09316" lon="7.0698">
        <ele>1175</ele>
        <time>2022-07-26T13:29:01Z</time>
      </trkpt>
      <trkpt lat="44.09316" lon="7.06981">
        <ele>1175</ele>
        <time>2022-07-26T13:29:02Z</time>
      </trkpt>
      <trkpt lat="44.09316" lon="7.06981">
        <ele>1175</ele>
        <time>2022-07-26T13:29:03Z</time>
      </trkpt>
      <trkpt lat="44.09316" lon="7.06982">
        <ele>1175</ele>
        <time>2022-07-26T13:29:04Z</time>
      </trkpt>
      <trkpt lat="44.09315" lon="7.06983">
        <ele>1175</ele>
        <time>2022-07-26T13:29:05Z</time>
      </trkpt>
      <trkpt lat="44.09316" lon="7.06984">
        <ele>1175</ele>
        <time>2022-07-26T13:29:06Z</time>
      </trkpt>
      <trkpt lat="44.09316" lon="7.06986">
        <ele>1176</ele>
        <time>2022-07-26T13:29:07Z</time>
      </trkpt>
      <trkpt lat="44.09316" lon="7.06987">
        <ele>1176</ele>
        <time>2022-07-26T13:29:08Z</time>
      </trkpt>
      <trkpt lat="44.09316" lon="7.06988">
        <ele>1176</ele>
        <time>2022-07-26T13:29:09Z</time>
      </trkpt>
      <trkpt lat="44.09316" lon="7.06988">
        <ele>1176</ele>
        <time>2022-07-26T13:29:10Z</time>
      </trkpt>
      <trkpt lat="44.09316" lon="7.06989">
        <ele>1176</ele>
        <time>2022-07-26T13:29:11Z</time>
      </trkpt>
      <trkpt lat="44.09316" lon="7.06989">
        <ele>1176</ele>
        <time>2022-07-26T13:29:12Z</time>
      </trkpt>
      <trkpt lat="44.09316" lon="7.06989">
        <ele>1176</ele>
        <time>2022-07-26T13:29:13Z</time>
      </trkpt>
      <trkpt lat="44.09316" lon="7.0699">
        <ele>1176</ele>
        <time>2022-07-26T13:29:14Z</time>
      </trkpt>
      <trkpt lat="44.09316" lon="7.06991">
        <ele>1176</ele>
        <time>2022-07-26T13:29:15Z</time>
      </trkpt>
      <trkpt lat="44.09316" lon="7.06992">
        <ele>1176</ele>
        <time>2022-07-26T13:29:16Z</time>
      </trkpt>
      <trkpt lat="44.09317" lon="7.06992">
        <ele>1176</ele>
        <time>2022-07-26T13:29:17Z</time>
      </trkpt>
      <trkpt lat="44.09317" lon="7.06993">
        <ele>1176</ele>
        <time>2022-07-26T13:29:18Z</time>
      </trkpt>
      <trkpt lat="44.09317" lon="7.06993">
        <ele>1176</ele>
        <time>2022-07-26T13:29:19Z</time>
      </trkpt>
      <trkpt lat="44.09317" lon="7.06993">
        <ele>1176</ele>
        <time>2022-07-26T13:29:20Z</time>
      </trkpt>
      <trkpt lat="44.09318" lon="7.06993">
        <ele>1176</ele>
        <time>2022-07-26T13:29:21Z</time>
      </trkpt>
      <trkpt lat="44.09318" lon="7.06994">
        <ele>1177</ele>
        <time>2022-07-26T13:29:22Z</time>
      </trkpt>
      <trkpt lat="44.09319" lon="7.06995">
        <ele>1177</ele>
        <time>2022-07-26T13:29:23Z</time>
      </trkpt>
      <trkpt lat="44.09319" lon="7.06995">
        <ele>1177</ele>
        <time>2022-07-26T13:29:24Z</time>
      </trkpt>
      <trkpt lat="44.09319" lon="7.06996">
        <ele>1177</ele>
        <time>2022-07-26T13:29:25Z</time>
      </trkpt>
      <trkpt lat="44.0932" lon="7.06997">
        <ele>1177</ele>
        <time>2022-07-26T13:29:26Z</time>
      </trkpt>
      <trkpt lat="44.0932" lon="7.06998">
        <ele>1177</ele>
        <time>2022-07-26T13:29:27Z</time>
      </trkpt>
      <trkpt lat="44.0932" lon="7.06999">
        <ele>1177</ele>
        <time>2022-07-26T13:29:28Z</time>
      </trkpt>
      <trkpt lat="44.0932" lon="7.06999">
        <ele>1177</ele>
        <time>2022-07-26T13:29:29Z</time>
      </trkpt>
      <trkpt lat="44.0932" lon="7.07">
        <ele>1177</ele>
        <time>2022-07-26T13:29:30Z</time>
      </trkpt>
      <trkpt lat="44.0932" lon="7.07001">
        <ele>1177</ele>
        <time>2022-07-26T13:29:31Z</time>
      </trkpt>
      <trkpt lat="44.0932" lon="7.07002">
        <ele>1178</ele>
        <time>2022-07-26T13:29:32Z</time>
      </trkpt>
      <trkpt lat="44.0932" lon="7.07003">
        <ele>1178</ele>
        <time>2022-07-26T13:29:33Z</time>
      </trkpt>
      <trkpt lat="44.0932" lon="7.07004">
        <ele>1178</ele>
        <time>2022-07-26T13:29:34Z</time>
      </trkpt>
      <trkpt lat="44.0932" lon="7.07005">
        <ele>1178</ele>
        <time>2022-07-26T13:29:35Z</time>
      </trkpt>
      <trkpt lat="44.0932" lon="7.07006">
        <ele>1178</ele>
        <time>2022-07-26T13:29:36Z</time>
      </trkpt>
      <trkpt lat="44.0932" lon="7.07007">
        <ele>1178</ele>
        <time>2022-07-26T13:29:37Z</time>
      </trkpt>
      <trkpt lat="44.0932" lon="7.07008">
        <ele>1178</ele>
        <time>2022-07-26T13:29:38Z</time>
      </trkpt>
      <trkpt lat="44.09321" lon="7.07009">
        <ele>1178</ele>
        <time>2022-07-26T13:29:39Z</time>
      </trkpt>
      <trkpt lat="44.09321" lon="7.0701">
        <ele>1179</ele>
        <time>2022-07-26T13:29:40Z</time>
      </trkpt>
      <trkpt lat="44.09321" lon="7.07011">
        <ele>1179</ele>
        <time>2022-07-26T13:29:41Z</time>
      </trkpt>
      <trkpt lat="44.09321" lon="7.07012">
        <ele>1180</ele>
        <time>2022-07-26T13:29:42Z</time>
      </trkpt>
      <trkpt lat="44.09321" lon="7.07012">
        <ele>1180</ele>
        <time>2022-07-26T13:29:43Z</time>
      </trkpt>
      <trkpt lat="44.09321" lon="7.07013">
        <ele>1180</ele>
        <time>2022-07-26T13:29:44Z</time>
      </trkpt>
      <trkpt lat="44.09321" lon="7.07014">
        <ele>1180</ele>
        <time>2022-07-26T13:29:45Z</time>
      </trkpt>
      <trkpt lat="44.09321" lon="7.07015">
        <ele>1180</ele>
        <time>2022-07-26T13:29:46Z</time>
      </trkpt>
      <trkpt lat="44.09321" lon="7.07017">
        <ele>1181</ele>
        <time>2022-07-26T13:29:47Z</time>
      </trkpt>
      <trkpt lat="44.09322" lon="7.07021">
        <ele>1185</ele>
        <time>2022-07-26T13:30:56Z</time>
      </trkpt>
      <trkpt lat="44.09323" lon="7.07023">
        <ele>1185</ele>
        <time>2022-07-26T13:30:57Z</time>
      </trkpt>
      <trkpt lat="44.09323" lon="7.07025">
        <ele>1185</ele>
        <time>2022-07-26T13:30:58Z</time>
      </trkpt>
      <trkpt lat="44.09324" lon="7.07026">
        <ele>1185</ele>
        <time>2022-07-26T13:30:59Z</time>
      </trkpt>
      <trkpt lat="44.09325" lon="7.07026">
        <ele>1185</ele>
        <time>2022-07-26T13:31:00Z</time>
      </trkpt>
      <trkpt lat="44.09325" lon="7.07026">
        <ele>1185</ele>
        <time>2022-07-26T13:31:01Z</time>
      </trkpt>
      <trkpt lat="44.09325" lon="7.07026">
        <ele>1186</ele>
        <time>2022-07-26T13:31:02Z</time>
      </trkpt>
      <trkpt lat="44.09326" lon="7.07027">
        <ele>1186</ele>
        <time>2022-07-26T13:31:03Z</time>
      </trkpt>
      <trkpt lat="44.09326" lon="7.07027">
        <ele>1186</ele>
        <time>2022-07-26T13:31:04Z</time>
      </trkpt>
      <trkpt lat="44.09326" lon="7.07027">
        <ele>1186</ele>
        <time>2022-07-26T13:31:05Z</time>
      </trkpt>
      <trkpt lat="44.09326" lon="7.07027">
        <ele>1186</ele>
        <time>2022-07-26T13:31:06Z</time>
      </trkpt>
      <trkpt lat="44.09326" lon="7.07027">
        <ele>1187</ele>
        <time>2022-07-26T13:31:07Z</time>
      </trkpt>
      <trkpt lat="44.09326" lon="7.07028">
        <ele>1187</ele>
        <time>2022-07-26T13:31:08Z</time>
      </trkpt>
      <trkpt lat="44.09327" lon="7.07029">
        <ele>1187</ele>
        <time>2022-07-26T13:31:09Z</time>
      </trkpt>
      <trkpt lat="44.09327" lon="7.07029">
        <ele>1187</ele>
        <time>2022-07-26T13:31:10Z</time>
      </trkpt>
      <trkpt lat="44.09327" lon="7.0703">
        <ele>1187</ele>
        <time>2022-07-26T13:31:11Z</time>
      </trkpt>
      <trkpt lat="44.09327" lon="7.0703">
        <ele>1188</ele>
        <time>2022-07-26T13:31:12Z</time>
      </trkpt>
      <trkpt lat="44.09327" lon="7.0703">
        <ele>1188</ele>
        <time>2022-07-26T13:31:13Z</time>
      </trkpt>
      <trkpt lat="44.09328" lon="7.07031">
        <ele>1188</ele>
        <time>2022-07-26T13:31:14Z</time>
      </trkpt>
      <trkpt lat="44.09328" lon="7.07032">
        <ele>1188</ele>
        <time>2022-07-26T13:31:15Z</time>
      </trkpt>
      <trkpt lat="44.09329" lon="7.07033">
        <ele>1188</ele>
        <time>2022-07-26T13:31:16Z</time>
      </trkpt>
      <trkpt lat="44.0933" lon="7.07034">
        <ele>1189</ele>
        <time>2022-07-26T13:31:17Z</time>
      </trkpt>
      <trkpt lat="44.09331" lon="7.07034">
        <ele>1189</ele>
        <time>2022-07-26T13:31:18Z</time>
      </trkpt>
      <trkpt lat="44.09332" lon="7.07035">
        <ele>1189</ele>
        <time>2022-07-26T13:31:19Z</time>
      </trkpt>
      <trkpt lat="44.09333" lon="7.07035">
        <ele>1189</ele>
        <time>2022-07-26T13:31:20Z</time>
      </trkpt>
      <trkpt lat="44.09334" lon="7.07035">
        <ele>1189</ele>
        <time>2022-07-26T13:31:21Z</time>
      </trkpt>
      <trkpt lat="44.09335" lon="7.07035">
        <ele>1189</ele>
        <time>2022-07-26T13:31:22Z</time>
      </trkpt>
      <trkpt lat="44.09336" lon="7.07035">
        <ele>1189</ele>
        <time>2022-07-26T13:31:23Z</time>
      </trkpt>
      <trkpt lat="44.09337" lon="7.07035">
        <ele>1189</ele>
        <time>2022-07-26T13:31:24Z</time>
      </trkpt>
      <trkpt lat="44.09338" lon="7.07035">
        <ele>1189</ele>
        <time>2022-07-26T13:31:25Z</time>
      </trkpt>
      <trkpt lat="44.09339" lon="7.07035">
        <ele>1189</ele>
        <time>2022-07-26T13:31:26Z</time>
      </trkpt>
      <trkpt lat="44.0934" lon="7.07035">
        <ele>1190</ele>
        <time>2022-07-26T13:31:27Z</time>
      </trkpt>
      <trkpt lat="44.09341" lon="7.07035">
        <ele>1190</ele>
        <time>2022-07-26T13:31:28Z</time>
      </trkpt>
      <trkpt lat="44.09342" lon="7.07035">
        <ele>1190</ele>
        <time>2022-07-26T13:31:29Z</time>
      </trkpt>
      <trkpt lat="44.09343" lon="7.07034">
        <ele>1190</ele>
        <time>2022-07-26T13:31:30Z</time>
      </trkpt>
      <trkpt lat="44.09344" lon="7.07034">
        <ele>1190</ele>
        <time>2022-07-26T13:31:31Z</time>
      </trkpt>
      <trkpt lat="44.09345" lon="7.07033">
        <ele>1190</ele>
        <time>2022-07-26T13:31:32Z</time>
      </trkpt>
      <trkpt lat="44.09346" lon="7.07033">
        <ele>1190</ele>
        <time>2022-07-26T13:31:33Z</time>
      </trkpt>
      <trkpt lat="44.09347" lon="7.07033">
        <ele>1190</ele>
        <time>2022-07-26T13:31:34Z</time>
      </trkpt>
      <trkpt lat="44.09348" lon="7.07032">
        <ele>1190</ele>
        <time>2022-07-26T13:31:35Z</time>
      </trkpt>
      <trkpt lat="44.09349" lon="7.07032">
        <ele>1190</ele>
        <time>2022-07-26T13:31:36Z</time>
      </trkpt>
      <trkpt lat="44.0935" lon="7.07032">
        <ele>1191</ele>
        <time>2022-07-26T13:31:37Z</time>
      </trkpt>
      <trkpt lat="44.09351" lon="7.07031">
        <ele>1191</ele>
        <time>2022-07-26T13:31:38Z</time>
      </trkpt>
      <trkpt lat="44.09352" lon="7.07031">
        <ele>1191</ele>
        <time>2022-07-26T13:31:39Z</time>
      </trkpt>
      <trkpt lat="44.09353" lon="7.07031">
        <ele>1191</ele>
        <time>2022-07-26T13:31:40Z</time>
      </trkpt>
      <trkpt lat="44.09354" lon="7.07032">
        <ele>1191</ele>
        <time>2022-07-26T13:31:41Z</time>
      </trkpt>
      <trkpt lat="44.09354" lon="7.07032">
        <ele>1191</ele>
        <time>2022-07-26T13:31:42Z</time>
      </trkpt>
      <trkpt lat="44.09355" lon="7.07033">
        <ele>1191</ele>
        <time>2022-07-26T13:31:43Z</time>
      </trkpt>
      <trkpt lat="44.09356" lon="7.07033">
        <ele>1191</ele>
        <time>2022-07-26T13:31:44Z</time>
      </trkpt>
      <trkpt lat="44.09357" lon="7.07033">
        <ele>1191</ele>
        <time>2022-07-26T13:31:45Z</time>
      </trkpt>
      <trkpt lat="44.09357" lon="7.07033">
        <ele>1191</ele>
        <time>2022-07-26T13:31:46Z</time>
      </trkpt>
      <trkpt lat="44.09358" lon="7.07034">
        <ele>1191</ele>
        <time>2022-07-26T13:31:47Z</time>
      </trkpt>
      <trkpt lat="44.09359" lon="7.07034">
        <ele>1191</ele>
        <time>2022-07-26T13:31:48Z</time>
      </trkpt>
      <trkpt lat="44.0936" lon="7.07034">
        <ele>1191</ele>
        <time>2022-07-26T13:31:49Z</time>
      </trkpt>
      <trkpt lat="44.09361" lon="7.07034">
        <ele>1191</ele>
        <time>2022-07-26T13:31:50Z</time>
      </trkpt>
      <trkpt lat="44.09362" lon="7.07034">
        <ele>1191</ele>
        <time>2022-07-26T13:31:51Z</time>
      </trkpt>
      <trkpt lat="44.09364" lon="7.07035">
        <ele>1192</ele>
        <time>2022-07-26T13:31:52Z</time>
      </trkpt>
      <trkpt lat="44.09365" lon="7.07035">
        <ele>1192</ele>
        <time>2022-07-26T13:31:53Z</time>
      </trkpt>
      <trkpt lat="44.09366" lon="7.07035">
        <ele>1192</ele>
        <time>2022-07-26T13:31:54Z</time>
      </trkpt>
      <trkpt lat="44.09367" lon="7.07035">
        <ele>1192</ele>
        <time>2022-07-26T13:31:55Z</time>
      </trkpt>
      <trkpt lat="44.09368" lon="7.07034">
        <ele>1192</ele>
        <time>2022-07-26T13:31:56Z</time>
      </trkpt>
      <trkpt lat="44.09369" lon="7.07034">
        <ele>1192</ele>
        <time>2022-07-26T13:31:57Z</time>
      </trkpt>
      <trkpt lat="44.0937" lon="7.07034">
        <ele>1192</ele>
        <time>2022-07-26T13:31:58Z</time>
      </trkpt>
      <trkpt lat="44.09371" lon="7.07034">
        <ele>1192</ele>
        <time>2022-07-26T13:31:59Z</time>
      </trkpt>
      <trkpt lat="44.09372" lon="7.07034">
        <ele>1192</ele>
        <time>2022-07-26T13:32:00Z</time>
      </trkpt>
      <trkpt lat="44.09374" lon="7.07034">
        <ele>1192</ele>
        <time>2022-07-26T13:32:01Z</time>
      </trkpt>
      <trkpt lat="44.09375" lon="7.07033">
        <ele>1192</ele>
        <time>2022-07-26T13:32:02Z</time>
      </trkpt>
      <trkpt lat="44.09376" lon="7.07033">
        <ele>1192</ele>
        <time>2022-07-26T13:32:03Z</time>
      </trkpt>
      <trkpt lat="44.09377" lon="7.07033">
        <ele>1192</ele>
        <time>2022-07-26T13:32:04Z</time>
      </trkpt>
      <trkpt lat="44.09378" lon="7.07032">
        <ele>1192</ele>
        <time>2022-07-26T13:32:05Z</time>
      </trkpt>
      <trkpt lat="44.09379" lon="7.07031">
        <ele>1192</ele>
        <time>2022-07-26T13:32:06Z</time>
      </trkpt>
      <trkpt lat="44.0938" lon="7.07031">
        <ele>1192</ele>
        <time>2022-07-26T13:32:07Z</time>
      </trkpt>
      <trkpt lat="44.09381" lon="7.0703">
        <ele>1192</ele>
        <time>2022-07-26T13:32:08Z</time>
      </trkpt>
      <trkpt lat="44.09383" lon="7.07029">
        <ele>1192</ele>
        <time>2022-07-26T13:32:09Z</time>
      </trkpt>
      <trkpt lat="44.09384" lon="7.07029">
        <ele>1192</ele>
        <time>2022-07-26T13:32:10Z</time>
      </trkpt>
      <trkpt lat="44.09384" lon="7.07028">
        <ele>1192</ele>
        <time>2022-07-26T13:32:11Z</time>
      </trkpt>
      <trkpt lat="44.09386" lon="7.07027">
        <ele>1192</ele>
        <time>2022-07-26T13:32:12Z</time>
      </trkpt>
      <trkpt lat="44.09387" lon="7.07027">
        <ele>1192</ele>
        <time>2022-07-26T13:32:13Z</time>
      </trkpt>
      <trkpt lat="44.09388" lon="7.07027">
        <ele>1192</ele>
        <time>2022-07-26T13:32:14Z</time>
      </trkpt>
      <trkpt lat="44.09389" lon="7.07026">
        <ele>1192</ele>
        <time>2022-07-26T13:32:15Z</time>
      </trkpt>
      <trkpt lat="44.09391" lon="7.07026">
        <ele>1192</ele>
        <time>2022-07-26T13:32:16Z</time>
      </trkpt>
      <trkpt lat="44.09392" lon="7.07026">
        <ele>1192</ele>
        <time>2022-07-26T13:32:17Z</time>
      </trkpt>
      <trkpt lat="44.09393" lon="7.07026">
        <ele>1192</ele>
        <time>2022-07-26T13:32:18Z</time>
      </trkpt>
      <trkpt lat="44.09395" lon="7.07026">
        <ele>1192</ele>
        <time>2022-07-26T13:32:19Z</time>
      </trkpt>
      <trkpt lat="44.09396" lon="7.07027">
        <ele>1192</ele>
        <time>2022-07-26T13:32:20Z</time>
      </trkpt>
      <trkpt lat="44.09397" lon="7.07027">
        <ele>1192</ele>
        <time>2022-07-26T13:32:21Z</time>
      </trkpt>
      <trkpt lat="44.09399" lon="7.07027">
        <ele>1192</ele>
        <time>2022-07-26T13:32:22Z</time>
      </trkpt>
      <trkpt lat="44.094" lon="7.07027">
        <ele>1191</ele>
        <time>2022-07-26T13:32:23Z</time>
      </trkpt>
      <trkpt lat="44.09401" lon="7.07027">
        <ele>1191</ele>
        <time>2022-07-26T13:32:24Z</time>
      </trkpt>
      <trkpt lat="44.09402" lon="7.07027">
        <ele>1191</ele>
        <time>2022-07-26T13:32:25Z</time>
      </trkpt>
      <trkpt lat="44.09403" lon="7.07027">
        <ele>1191</ele>
        <time>2022-07-26T13:32:26Z</time>
      </trkpt>
      <trkpt lat="44.09405" lon="7.07028">
        <ele>1191</ele>
        <time>2022-07-26T13:32:27Z</time>
      </trkpt>
      <trkpt lat="44.09406" lon="7.07028">
        <ele>1191</ele>
        <time>2022-07-26T13:32:28Z</time>
      </trkpt>
      <trkpt lat="44.09406" lon="7.07028">
        <ele>1191</ele>
        <time>2022-07-26T13:32:29Z</time>
      </trkpt>
      <trkpt lat="44.09407" lon="7.07028">
        <ele>1191</ele>
        <time>2022-07-26T13:32:30Z</time>
      </trkpt>
      <trkpt lat="44.09408" lon="7.07028">
        <ele>1191</ele>
        <time>2022-07-26T13:32:31Z</time>
      </trkpt>
      <trkpt lat="44.09408" lon="7.07029">
        <ele>1191</ele>
        <time>2022-07-26T13:32:32Z</time>
      </trkpt>
      <trkpt lat="44.09409" lon="7.07029">
        <ele>1191</ele>
        <time>2022-07-26T13:32:33Z</time>
      </trkpt>
      <trkpt lat="44.09409" lon="7.0703">
        <ele>1191</ele>
        <time>2022-07-26T13:32:34Z</time>
      </trkpt>
      <trkpt lat="44.09409" lon="7.07031">
        <ele>1191</ele>
        <time>2022-07-26T13:32:35Z</time>
      </trkpt>
      <trkpt lat="44.09409" lon="7.07032">
        <ele>1192</ele>
        <time>2022-07-26T13:32:42Z</time>
      </trkpt>
      <trkpt lat="44.09409" lon="7.07033">
        <ele>1192</ele>
        <time>2022-07-26T13:32:43Z</time>
      </trkpt>
      <trkpt lat="44.09409" lon="7.07035">
        <ele>1192</ele>
        <time>2022-07-26T13:32:44Z</time>
      </trkpt>
      <trkpt lat="44.09409" lon="7.07036">
        <ele>1192</ele>
        <time>2022-07-26T13:32:45Z</time>
      </trkpt>
      <trkpt lat="44.09409" lon="7.07037">
        <ele>1192</ele>
        <time>2022-07-26T13:32:46Z</time>
      </trkpt>
      <trkpt lat="44.09408" lon="7.07038">
        <ele>1192</ele>
        <time>2022-07-26T13:32:47Z</time>
      </trkpt>
      <trkpt lat="44.09408" lon="7.07039">
        <ele>1192</ele>
        <time>2022-07-26T13:32:48Z</time>
      </trkpt>
      <trkpt lat="44.09409" lon="7.0704">
        <ele>1192</ele>
        <time>2022-07-26T13:32:49Z</time>
      </trkpt>
      <trkpt lat="44.09409" lon="7.07041">
        <ele>1192</ele>
        <time>2022-07-26T13:32:50Z</time>
      </trkpt>
      <trkpt lat="44.09409" lon="7.07042">
        <ele>1192</ele>
        <time>2022-07-26T13:32:51Z</time>
      </trkpt>
      <trkpt lat="44.0941" lon="7.07043">
        <ele>1193</ele>
        <time>2022-07-26T13:32:52Z</time>
      </trkpt>
      <trkpt lat="44.0941" lon="7.07044">
        <ele>1193</ele>
        <time>2022-07-26T13:32:53Z</time>
      </trkpt>
      <trkpt lat="44.09411" lon="7.07045">
        <ele>1193</ele>
        <time>2022-07-26T13:32:54Z</time>
      </trkpt>
      <trkpt lat="44.09411" lon="7.07046">
        <ele>1193</ele>
        <time>2022-07-26T13:32:55Z</time>
      </trkpt>
      <trkpt lat="44.09412" lon="7.07046">
        <ele>1193</ele>
        <time>2022-07-26T13:32:56Z</time>
      </trkpt>
      <trkpt lat="44.09413" lon="7.07048">
        <ele>1195</ele>
        <time>2022-07-26T13:33:08Z</time>
      </trkpt>
      <trkpt lat="44.09414" lon="7.07049">
        <ele>1195</ele>
        <time>2022-07-26T13:33:09Z</time>
      </trkpt>
      <trkpt lat="44.09415" lon="7.07049">
        <ele>1195</ele>
        <time>2022-07-26T13:33:10Z</time>
      </trkpt>
      <trkpt lat="44.09415" lon="7.0705">
        <ele>1195</ele>
        <time>2022-07-26T13:33:11Z</time>
      </trkpt>
      <trkpt lat="44.09416" lon="7.0705">
        <ele>1195</ele>
        <time>2022-07-26T13:33:12Z</time>
      </trkpt>
      <trkpt lat="44.09416" lon="7.07051">
        <ele>1195</ele>
        <time>2022-07-26T13:33:13Z</time>
      </trkpt>
      <trkpt lat="44.09417" lon="7.07051">
        <ele>1195</ele>
        <time>2022-07-26T13:33:14Z</time>
      </trkpt>
      <trkpt lat="44.09418" lon="7.07052">
        <ele>1195</ele>
        <time>2022-07-26T13:33:15Z</time>
      </trkpt>
      <trkpt lat="44.09418" lon="7.07052">
        <ele>1195</ele>
        <time>2022-07-26T13:33:16Z</time>
      </trkpt>
      <trkpt lat="44.09418" lon="7.07053">
        <ele>1196</ele>
        <time>2022-07-26T13:33:17Z</time>
      </trkpt>
      <trkpt lat="44.09419" lon="7.07053">
        <ele>1196</ele>
        <time>2022-07-26T13:33:18Z</time>
      </trkpt>
      <trkpt lat="44.09419" lon="7.07053">
        <ele>1196</ele>
        <time>2022-07-26T13:33:19Z</time>
      </trkpt>
      <trkpt lat="44.0942" lon="7.07054">
        <ele>1196</ele>
        <time>2022-07-26T13:33:20Z</time>
      </trkpt>
      <trkpt lat="44.0942" lon="7.07054">
        <ele>1196</ele>
        <time>2022-07-26T13:33:21Z</time>
      </trkpt>
      <trkpt lat="44.09421" lon="7.07055">
        <ele>1196</ele>
        <time>2022-07-26T13:33:22Z</time>
      </trkpt>
      <trkpt lat="44.09421" lon="7.07056">
        <ele>1196</ele>
        <time>2022-07-26T13:33:23Z</time>
      </trkpt>
      <trkpt lat="44.09422" lon="7.07057">
        <ele>1196</ele>
        <time>2022-07-26T13:33:24Z</time>
      </trkpt>
      <trkpt lat="44.09422" lon="7.07058">
        <ele>1197</ele>
        <time>2022-07-26T13:33:25Z</time>
      </trkpt>
      <trkpt lat="44.09422" lon="7.07058">
        <ele>1197</ele>
        <time>2022-07-26T13:33:26Z</time>
      </trkpt>
      <trkpt lat="44.09422" lon="7.07058">
        <ele>1198</ele>
        <time>2022-07-26T13:33:27Z</time>
      </trkpt>
      <trkpt lat="44.09423" lon="7.07059">
        <ele>1198</ele>
        <time>2022-07-26T13:33:28Z</time>
      </trkpt>
      <trkpt lat="44.09423" lon="7.07059">
        <ele>1198</ele>
        <time>2022-07-26T13:33:29Z</time>
      </trkpt>
      <trkpt lat="44.09424" lon="7.0706">
        <ele>1198</ele>
        <time>2022-07-26T13:33:30Z</time>
      </trkpt>
      <trkpt lat="44.09424" lon="7.0706">
        <ele>1198</ele>
        <time>2022-07-26T13:33:31Z</time>
      </trkpt>
      <trkpt lat="44.09425" lon="7.07061">
        <ele>1199</ele>
        <time>2022-07-26T13:33:32Z</time>
      </trkpt>
      <trkpt lat="44.09425" lon="7.07061">
        <ele>1199</ele>
        <time>2022-07-26T13:33:33Z</time>
      </trkpt>
      <trkpt lat="44.09426" lon="7.07062">
        <ele>1199</ele>
        <time>2022-07-26T13:33:34Z</time>
      </trkpt>
      <trkpt lat="44.09426" lon="7.07063">
        <ele>1199</ele>
        <time>2022-07-26T13:33:35Z</time>
      </trkpt>
      <trkpt lat="44.09427" lon="7.07064">
        <ele>1199</ele>
        <time>2022-07-26T13:33:36Z</time>
      </trkpt>
      <trkpt lat="44.09428" lon="7.07065">
        <ele>1199</ele>
        <time>2022-07-26T13:33:37Z</time>
      </trkpt>
      <trkpt lat="44.09428" lon="7.07065">
        <ele>1199</ele>
        <time>2022-07-26T13:33:38Z</time>
      </trkpt>
      <trkpt lat="44.09429" lon="7.07066">
        <ele>1199</ele>
        <time>2022-07-26T13:33:39Z</time>
      </trkpt>
      <trkpt lat="44.0943" lon="7.07067">
        <ele>1199</ele>
        <time>2022-07-26T13:33:40Z</time>
      </trkpt>
      <trkpt lat="44.0943" lon="7.07068">
        <ele>1199</ele>
        <time>2022-07-26T13:33:41Z</time>
      </trkpt>
      <trkpt lat="44.09431" lon="7.07069">
        <ele>1200</ele>
        <time>2022-07-26T13:33:42Z</time>
      </trkpt>
      <trkpt lat="44.09431" lon="7.07069">
        <ele>1200</ele>
        <time>2022-07-26T13:33:43Z</time>
      </trkpt>
      <trkpt lat="44.09432" lon="7.0707">
        <ele>1200</ele>
        <time>2022-07-26T13:33:44Z</time>
      </trkpt>
      <trkpt lat="44.09432" lon="7.07071">
        <ele>1200</ele>
        <time>2022-07-26T13:33:45Z</time>
      </trkpt>
      <trkpt lat="44.09433" lon="7.07071">
        <ele>1200</ele>
        <time>2022-07-26T13:33:46Z</time>
      </trkpt>
      <trkpt lat="44.09433" lon="7.07072">
        <ele>1201</ele>
        <time>2022-07-26T13:33:47Z</time>
      </trkpt>
      <trkpt lat="44.09433" lon="7.07073">
        <ele>1201</ele>
        <time>2022-07-26T13:33:48Z</time>
      </trkpt>
      <trkpt lat="44.09434" lon="7.07073">
        <ele>1201</ele>
        <time>2022-07-26T13:33:49Z</time>
      </trkpt>
      <trkpt lat="44.09434" lon="7.07074">
        <ele>1201</ele>
        <time>2022-07-26T13:33:50Z</time>
      </trkpt>
      <trkpt lat="44.09434" lon="7.07075">
        <ele>1201</ele>
        <time>2022-07-26T13:33:51Z</time>
      </trkpt>
      <trkpt lat="44.09435" lon="7.07076">
        <ele>1202</ele>
        <time>2022-07-26T13:33:52Z</time>
      </trkpt>
      <trkpt lat="44.09435" lon="7.07077">
        <ele>1202</ele>
        <time>2022-07-26T13:33:53Z</time>
      </trkpt>
      <trkpt lat="44.09435" lon="7.07078">
        <ele>1202</ele>
        <time>2022-07-26T13:33:54Z</time>
      </trkpt>
      <trkpt lat="44.09436" lon="7.07078">
        <ele>1202</ele>
        <time>2022-07-26T13:33:55Z</time>
      </trkpt>
      <trkpt lat="44.09436" lon="7.07079">
        <ele>1202</ele>
        <time>2022-07-26T13:33:56Z</time>
      </trkpt>
      <trkpt lat="44.09436" lon="7.07079">
        <ele>1203</ele>
        <time>2022-07-26T13:33:57Z</time>
      </trkpt>
      <trkpt lat="44.09437" lon="7.0708">
        <ele>1203</ele>
        <time>2022-07-26T13:33:58Z</time>
      </trkpt>
      <trkpt lat="44.09438" lon="7.07081">
        <ele>1203</ele>
        <time>2022-07-26T13:33:59Z</time>
      </trkpt>
      <trkpt lat="44.09438" lon="7.07081">
        <ele>1203</ele>
        <time>2022-07-26T13:34:00Z</time>
      </trkpt>
      <trkpt lat="44.09439" lon="7.07082">
        <ele>1203</ele>
        <time>2022-07-26T13:34:01Z</time>
      </trkpt>
      <trkpt lat="44.09439" lon="7.07082">
        <ele>1204</ele>
        <time>2022-07-26T13:34:02Z</time>
      </trkpt>
      <trkpt lat="44.0944" lon="7.07083">
        <ele>1204</ele>
        <time>2022-07-26T13:34:03Z</time>
      </trkpt>
      <trkpt lat="44.0944" lon="7.07083">
        <ele>1204</ele>
        <time>2022-07-26T13:34:04Z</time>
      </trkpt>
      <trkpt lat="44.09441" lon="7.07084">
        <ele>1204</ele>
        <time>2022-07-26T13:34:05Z</time>
      </trkpt>
      <trkpt lat="44.09442" lon="7.07084">
        <ele>1204</ele>
        <time>2022-07-26T13:34:06Z</time>
      </trkpt>
      <trkpt lat="44.09442" lon="7.07085">
        <ele>1205</ele>
        <time>2022-07-26T13:34:07Z</time>
      </trkpt>
      <trkpt lat="44.09442" lon="7.07085">
        <ele>1205</ele>
        <time>2022-07-26T13:34:08Z</time>
      </trkpt>
      <trkpt lat="44.09442" lon="7.07085">
        <ele>1205</ele>
        <time>2022-07-26T13:34:09Z</time>
      </trkpt>
      <trkpt lat="44.09443" lon="7.07086">
        <ele>1205</ele>
        <time>2022-07-26T13:34:10Z</time>
      </trkpt>
      <trkpt lat="44.09443" lon="7.07086">
        <ele>1205</ele>
        <time>2022-07-26T13:34:11Z</time>
      </trkpt>
      <trkpt lat="44.09444" lon="7.07087">
        <ele>1205</ele>
        <time>2022-07-26T13:34:12Z</time>
      </trkpt>
      <trkpt lat="44.09445" lon="7.07087">
        <ele>1205</ele>
        <time>2022-07-26T13:34:13Z</time>
      </trkpt>
      <trkpt lat="44.09445" lon="7.07088">
        <ele>1205</ele>
        <time>2022-07-26T13:34:14Z</time>
      </trkpt>
      <trkpt lat="44.09446" lon="7.07089">
        <ele>1205</ele>
        <time>2022-07-26T13:34:15Z</time>
      </trkpt>
      <trkpt lat="44.09447" lon="7.0709">
        <ele>1205</ele>
        <time>2022-07-26T13:34:16Z</time>
      </trkpt>
      <trkpt lat="44.09447" lon="7.07091">
        <ele>1206</ele>
        <time>2022-07-26T13:34:17Z</time>
      </trkpt>
      <trkpt lat="44.09448" lon="7.07091">
        <ele>1206</ele>
        <time>2022-07-26T13:34:18Z</time>
      </trkpt>
      <trkpt lat="44.09449" lon="7.07092">
        <ele>1206</ele>
        <time>2022-07-26T13:34:19Z</time>
      </trkpt>
      <trkpt lat="44.09451" lon="7.07093">
        <ele>1208</ele>
        <time>2022-07-26T13:34:30Z</time>
      </trkpt>
      <trkpt lat="44.09452" lon="7.07093">
        <ele>1208</ele>
        <time>2022-07-26T13:34:31Z</time>
      </trkpt>
      <trkpt lat="44.09453" lon="7.07093">
        <ele>1209</ele>
        <time>2022-07-26T13:34:32Z</time>
      </trkpt>
      <trkpt lat="44.09453" lon="7.07093">
        <ele>1209</ele>
        <time>2022-07-26T13:34:33Z</time>
      </trkpt>
      <trkpt lat="44.09454" lon="7.07092">
        <ele>1209</ele>
        <time>2022-07-26T13:34:34Z</time>
      </trkpt>
      <trkpt lat="44.09455" lon="7.07093">
        <ele>1209</ele>
        <time>2022-07-26T13:34:35Z</time>
      </trkpt>
      <trkpt lat="44.09456" lon="7.07093">
        <ele>1209</ele>
        <time>2022-07-26T13:34:36Z</time>
      </trkpt>
      <trkpt lat="44.09456" lon="7.07093">
        <ele>1210</ele>
        <time>2022-07-26T13:34:37Z</time>
      </trkpt>
      <trkpt lat="44.09457" lon="7.07093">
        <ele>1210</ele>
        <time>2022-07-26T13:34:38Z</time>
      </trkpt>
      <trkpt lat="44.09458" lon="7.07093">
        <ele>1210</ele>
        <time>2022-07-26T13:34:39Z</time>
      </trkpt>
      <trkpt lat="44.09458" lon="7.07094">
        <ele>1210</ele>
        <time>2022-07-26T13:34:40Z</time>
      </trkpt>
      <trkpt lat="44.09461" lon="7.07094">
        <ele>1212</ele>
        <time>2022-07-26T13:34:50Z</time>
      </trkpt>
      <trkpt lat="44.09462" lon="7.07094">
        <ele>1212</ele>
        <time>2022-07-26T13:34:51Z</time>
      </trkpt>
      <trkpt lat="44.09464" lon="7.07094">
        <ele>1212</ele>
        <time>2022-07-26T13:34:52Z</time>
      </trkpt>
      <trkpt lat="44.09465" lon="7.07095">
        <ele>1212</ele>
        <time>2022-07-26T13:34:53Z</time>
      </trkpt>
      <trkpt lat="44.09466" lon="7.07095">
        <ele>1212</ele>
        <time>2022-07-26T13:34:54Z</time>
      </trkpt>
      <trkpt lat="44.09466" lon="7.07096">
        <ele>1212</ele>
        <time>2022-07-26T13:34:55Z</time>
      </trkpt>
      <trkpt lat="44.09467" lon="7.07097">
        <ele>1212</ele>
        <time>2022-07-26T13:34:56Z</time>
      </trkpt>
      <trkpt lat="44.09467" lon="7.07098">
        <ele>1213</ele>
        <time>2022-07-26T13:34:57Z</time>
      </trkpt>
      <trkpt lat="44.09468" lon="7.07098">
        <ele>1213</ele>
        <time>2022-07-26T13:34:58Z</time>
      </trkpt>
      <trkpt lat="44.09468" lon="7.07099">
        <ele>1213</ele>
        <time>2022-07-26T13:34:59Z</time>
      </trkpt>
      <trkpt lat="44.09468" lon="7.071">
        <ele>1214</ele>
        <time>2022-07-26T13:35:00Z</time>
      </trkpt>
      <trkpt lat="44.09469" lon="7.07101">
        <ele>1214</ele>
        <time>2022-07-26T13:35:01Z</time>
      </trkpt>
      <trkpt lat="44.09469" lon="7.07101">
        <ele>1215</ele>
        <time>2022-07-26T13:35:02Z</time>
      </trkpt>
      <trkpt lat="44.0947" lon="7.07102">
        <ele>1215</ele>
        <time>2022-07-26T13:35:03Z</time>
      </trkpt>
      <trkpt lat="44.09471" lon="7.07102">
        <ele>1215</ele>
        <time>2022-07-26T13:35:04Z</time>
      </trkpt>
      <trkpt lat="44.09471" lon="7.07103">
        <ele>1215</ele>
        <time>2022-07-26T13:35:05Z</time>
      </trkpt>
      <trkpt lat="44.09472" lon="7.07103">
        <ele>1215</ele>
        <time>2022-07-26T13:35:06Z</time>
      </trkpt>
      <trkpt lat="44.09472" lon="7.07103">
        <ele>1216</ele>
        <time>2022-07-26T13:35:07Z</time>
      </trkpt>
      <trkpt lat="44.09473" lon="7.07103">
        <ele>1216</ele>
        <time>2022-07-26T13:35:08Z</time>
      </trkpt>
      <trkpt lat="44.09473" lon="7.07103">
        <ele>1216</ele>
        <time>2022-07-26T13:35:09Z</time>
      </trkpt>
      <trkpt lat="44.09473" lon="7.07103">
        <ele>1216</ele>
        <time>2022-07-26T13:35:10Z</time>
      </trkpt>
      <trkpt lat="44.09473" lon="7.07104">
        <ele>1216</ele>
        <time>2022-07-26T13:35:11Z</time>
      </trkpt>
      <trkpt lat="44.09474" lon="7.07104">
        <ele>1217</ele>
        <time>2022-07-26T13:35:12Z</time>
      </trkpt>
      <trkpt lat="44.09474" lon="7.07105">
        <ele>1217</ele>
        <time>2022-07-26T13:35:13Z</time>
      </trkpt>
      <trkpt lat="44.09474" lon="7.07105">
        <ele>1217</ele>
        <time>2022-07-26T13:35:14Z</time>
      </trkpt>
      <trkpt lat="44.09474" lon="7.07106">
        <ele>1217</ele>
        <time>2022-07-26T13:35:15Z</time>
      </trkpt>
      <trkpt lat="44.09475" lon="7.07107">
        <ele>1217</ele>
        <time>2022-07-26T13:35:16Z</time>
      </trkpt>
      <trkpt lat="44.09475" lon="7.07108">
        <ele>1218</ele>
        <time>2022-07-26T13:35:17Z</time>
      </trkpt>
      <trkpt lat="44.09475" lon="7.07108">
        <ele>1218</ele>
        <time>2022-07-26T13:35:18Z</time>
      </trkpt>
      <trkpt lat="44.09475" lon="7.07109">
        <ele>1218</ele>
        <time>2022-07-26T13:35:19Z</time>
      </trkpt>
      <trkpt lat="44.09476" lon="7.0711">
        <ele>1218</ele>
        <time>2022-07-26T13:35:20Z</time>
      </trkpt>
      <trkpt lat="44.09476" lon="7.07111">
        <ele>1218</ele>
        <time>2022-07-26T13:35:21Z</time>
      </trkpt>
      <trkpt lat="44.09476" lon="7.07112">
        <ele>1218</ele>
        <time>2022-07-26T13:35:22Z</time>
      </trkpt>
      <trkpt lat="44.09476" lon="7.07113">
        <ele>1218</ele>
        <time>2022-07-26T13:35:23Z</time>
      </trkpt>
      <trkpt lat="44.09476" lon="7.07114">
        <ele>1218</ele>
        <time>2022-07-26T13:35:24Z</time>
      </trkpt>
      <trkpt lat="44.09477" lon="7.07115">
        <ele>1218</ele>
        <time>2022-07-26T13:35:25Z</time>
      </trkpt>
      <trkpt lat="44.09476" lon="7.07116">
        <ele>1218</ele>
        <time>2022-07-26T13:35:26Z</time>
      </trkpt>
      <trkpt lat="44.09476" lon="7.07118">
        <ele>1219</ele>
        <time>2022-07-26T13:35:27Z</time>
      </trkpt>
      <trkpt lat="44.09476" lon="7.07119">
        <ele>1219</ele>
        <time>2022-07-26T13:35:28Z</time>
      </trkpt>
      <trkpt lat="44.09476" lon="7.07121">
        <ele>1219</ele>
        <time>2022-07-26T13:35:29Z</time>
      </trkpt>
      <trkpt lat="44.09476" lon="7.07122">
        <ele>1219</ele>
        <time>2022-07-26T13:35:30Z</time>
      </trkpt>
      <trkpt lat="44.09476" lon="7.07123">
        <ele>1219</ele>
        <time>2022-07-26T13:35:31Z</time>
      </trkpt>
      <trkpt lat="44.09477" lon="7.07124">
        <ele>1219</ele>
        <time>2022-07-26T13:35:32Z</time>
      </trkpt>
      <trkpt lat="44.09477" lon="7.07125">
        <ele>1219</ele>
        <time>2022-07-26T13:35:33Z</time>
      </trkpt>
      <trkpt lat="44.09477" lon="7.07126">
        <ele>1219</ele>
        <time>2022-07-26T13:35:34Z</time>
      </trkpt>
      <trkpt lat="44.09478" lon="7.07126">
        <ele>1219</ele>
        <time>2022-07-26T13:35:35Z</time>
      </trkpt>
      <trkpt lat="44.09478" lon="7.07127">
        <ele>1219</ele>
        <time>2022-07-26T13:35:36Z</time>
      </trkpt>
      <trkpt lat="44.09479" lon="7.07128">
        <ele>1219</ele>
        <time>2022-07-26T13:35:37Z</time>
      </trkpt>
      <trkpt lat="44.09479" lon="7.07128">
        <ele>1219</ele>
        <time>2022-07-26T13:35:38Z</time>
      </trkpt>
      <trkpt lat="44.09479" lon="7.07129">
        <ele>1219</ele>
        <time>2022-07-26T13:35:39Z</time>
      </trkpt>
      <trkpt lat="44.0948" lon="7.07131">
        <ele>1219</ele>
        <time>2022-07-26T13:35:40Z</time>
      </trkpt>
      <trkpt lat="44.0948" lon="7.07132">
        <ele>1219</ele>
        <time>2022-07-26T13:35:41Z</time>
      </trkpt>
      <trkpt lat="44.0948" lon="7.07134">
        <ele>1219</ele>
        <time>2022-07-26T13:35:42Z</time>
      </trkpt>
      <trkpt lat="44.0948" lon="7.07135">
        <ele>1219</ele>
        <time>2022-07-26T13:35:43Z</time>
      </trkpt>
      <trkpt lat="44.0948" lon="7.07136">
        <ele>1219</ele>
        <time>2022-07-26T13:35:44Z</time>
      </trkpt>
      <trkpt lat="44.0948" lon="7.07138">
        <ele>1219</ele>
        <time>2022-07-26T13:35:45Z</time>
      </trkpt>
      <trkpt lat="44.0948" lon="7.07139">
        <ele>1219</ele>
        <time>2022-07-26T13:35:46Z</time>
      </trkpt>
      <trkpt lat="44.09481" lon="7.07143">
        <ele>1220</ele>
        <time>2022-07-26T13:35:57Z</time>
      </trkpt>
      <trkpt lat="44.09482" lon="7.07144">
        <ele>1220</ele>
        <time>2022-07-26T13:35:58Z</time>
      </trkpt>
      <trkpt lat="44.09483" lon="7.07146">
        <ele>1220</ele>
        <time>2022-07-26T13:35:59Z</time>
      </trkpt>
      <trkpt lat="44.09483" lon="7.07146">
        <ele>1220</ele>
        <time>2022-07-26T13:36:00Z</time>
      </trkpt>
      <trkpt lat="44.09483" lon="7.07147">
        <ele>1220</ele>
        <time>2022-07-26T13:36:01Z</time>
      </trkpt>
      <trkpt lat="44.09484" lon="7.07148">
        <ele>1221</ele>
        <time>2022-07-26T13:36:02Z</time>
      </trkpt>
      <trkpt lat="44.09484" lon="7.07149">
        <ele>1221</ele>
        <time>2022-07-26T13:36:03Z</time>
      </trkpt>
      <trkpt lat="44.09485" lon="7.07149">
        <ele>1221</ele>
        <time>2022-07-26T13:36:04Z</time>
      </trkpt>
      <trkpt lat="44.09485" lon="7.0715">
        <ele>1221</ele>
        <time>2022-07-26T13:36:05Z</time>
      </trkpt>
      <trkpt lat="44.09485" lon="7.0715">
        <ele>1221</ele>
        <time>2022-07-26T13:36:06Z</time>
      </trkpt>
      <trkpt lat="44.09486" lon="7.0715">
        <ele>1221</ele>
        <time>2022-07-26T13:36:07Z</time>
      </trkpt>
      <trkpt lat="44.09486" lon="7.07151">
        <ele>1221</ele>
        <time>2022-07-26T13:36:08Z</time>
      </trkpt>
      <trkpt lat="44.09486" lon="7.07151">
        <ele>1221</ele>
        <time>2022-07-26T13:36:09Z</time>
      </trkpt>
      <trkpt lat="44.09486" lon="7.07152">
        <ele>1221</ele>
        <time>2022-07-26T13:36:10Z</time>
      </trkpt>
      <trkpt lat="44.09487" lon="7.07152">
        <ele>1221</ele>
        <time>2022-07-26T13:36:11Z</time>
      </trkpt>
      <trkpt lat="44.09487" lon="7.07153">
        <ele>1222</ele>
        <time>2022-07-26T13:36:12Z</time>
      </trkpt>
      <trkpt lat="44.09487" lon="7.07153">
        <ele>1222</ele>
        <time>2022-07-26T13:36:13Z</time>
      </trkpt>
      <trkpt lat="44.09487" lon="7.07153">
        <ele>1222</ele>
        <time>2022-07-26T13:36:14Z</time>
      </trkpt>
      <trkpt lat="44.09487" lon="7.07154">
        <ele>1222</ele>
        <time>2022-07-26T13:36:15Z</time>
      </trkpt>
      <trkpt lat="44.09487" lon="7.07154">
        <ele>1222</ele>
        <time>2022-07-26T13:36:16Z</time>
      </trkpt>
      <trkpt lat="44.09487" lon="7.07155">
        <ele>1223</ele>
        <time>2022-07-26T13:36:17Z</time>
      </trkpt>
      <trkpt lat="44.09487" lon="7.07156">
        <ele>1223</ele>
        <time>2022-07-26T13:36:18Z</time>
      </trkpt>
      <trkpt lat="44.09487" lon="7.07157">
        <ele>1223</ele>
        <time>2022-07-26T13:36:19Z</time>
      </trkpt>
      <trkpt lat="44.09487" lon="7.07158">
        <ele>1223</ele>
        <time>2022-07-26T13:36:20Z</time>
      </trkpt>
      <trkpt lat="44.09488" lon="7.07159">
        <ele>1223</ele>
        <time>2022-07-26T13:36:21Z</time>
      </trkpt>
      <trkpt lat="44.09488" lon="7.07161">
        <ele>1225</ele>
        <time>2022-07-26T13:36:31Z</time>
      </trkpt>
      <trkpt lat="44.09489" lon="7.07163">
        <ele>1226</ele>
        <time>2022-07-26T13:36:32Z</time>
      </trkpt>
      <trkpt lat="44.09489" lon="7.07164">
        <ele>1226</ele>
        <time>2022-07-26T13:36:33Z</time>
      </trkpt>
      <trkpt lat="44.09489" lon="7.07166">
        <ele>1226</ele>
        <time>2022-07-26T13:36:34Z</time>
      </trkpt>
      <trkpt lat="44.0949" lon="7.07167">
        <ele>1226</ele>
        <time>2022-07-26T13:36:35Z</time>
      </trkpt>
      <trkpt lat="44.0949" lon="7.07168">
        <ele>1226</ele>
        <time>2022-07-26T13:36:36Z</time>
      </trkpt>
      <trkpt lat="44.0949" lon="7.07169">
        <ele>1227</ele>
        <time>2022-07-26T13:36:37Z</time>
      </trkpt>
      <trkpt lat="44.09491" lon="7.0717">
        <ele>1227</ele>
        <time>2022-07-26T13:36:38Z</time>
      </trkpt>
      <trkpt lat="44.09491" lon="7.07171">
        <ele>1227</ele>
        <time>2022-07-26T13:36:39Z</time>
      </trkpt>
      <trkpt lat="44.09492" lon="7.07172">
        <ele>1227</ele>
        <time>2022-07-26T13:36:40Z</time>
      </trkpt>
      <trkpt lat="44.09492" lon="7.07172">
        <ele>1227</ele>
        <time>2022-07-26T13:36:41Z</time>
      </trkpt>
      <trkpt lat="44.09492" lon="7.07173">
        <ele>1227</ele>
        <time>2022-07-26T13:36:42Z</time>
      </trkpt>
      <trkpt lat="44.09493" lon="7.07174">
        <ele>1227</ele>
        <time>2022-07-26T13:36:43Z</time>
      </trkpt>
      <trkpt lat="44.09493" lon="7.07175">
        <ele>1227</ele>
        <time>2022-07-26T13:36:44Z</time>
      </trkpt>
      <trkpt lat="44.09493" lon="7.07175">
        <ele>1227</ele>
        <time>2022-07-26T13:36:45Z</time>
      </trkpt>
      <trkpt lat="44.09494" lon="7.07176">
        <ele>1227</ele>
        <time>2022-07-26T13:36:46Z</time>
      </trkpt>
      <trkpt lat="44.09494" lon="7.07177">
        <ele>1228</ele>
        <time>2022-07-26T13:36:47Z</time>
      </trkpt>
      <trkpt lat="44.09494" lon="7.07178">
        <ele>1228</ele>
        <time>2022-07-26T13:36:48Z</time>
      </trkpt>
      <trkpt lat="44.09494" lon="7.07179">
        <ele>1228</ele>
        <time>2022-07-26T13:36:49Z</time>
      </trkpt>
      <trkpt lat="44.09494" lon="7.0718">
        <ele>1228</ele>
        <time>2022-07-26T13:36:50Z</time>
      </trkpt>
      <trkpt lat="44.09494" lon="7.07181">
        <ele>1228</ele>
        <time>2022-07-26T13:36:51Z</time>
      </trkpt>
      <trkpt lat="44.09495" lon="7.07182">
        <ele>1229</ele>
        <time>2022-07-26T13:36:52Z</time>
      </trkpt>
      <trkpt lat="44.09495" lon="7.07183">
        <ele>1229</ele>
        <time>2022-07-26T13:36:53Z</time>
      </trkpt>
      <trkpt lat="44.09495" lon="7.07184">
        <ele>1229</ele>
        <time>2022-07-26T13:36:54Z</time>
      </trkpt>
      <trkpt lat="44.09495" lon="7.07184">
        <ele>1229</ele>
        <time>2022-07-26T13:36:55Z</time>
      </trkpt>
      <trkpt lat="44.09496" lon="7.07186">
        <ele>1229</ele>
        <time>2022-07-26T13:36:56Z</time>
      </trkpt>
      <trkpt lat="44.09496" lon="7.07187">
        <ele>1230</ele>
        <time>2022-07-26T13:36:57Z</time>
      </trkpt>
      <trkpt lat="44.09496" lon="7.07188">
        <ele>1230</ele>
        <time>2022-07-26T13:36:58Z</time>
      </trkpt>
      <trkpt lat="44.09497" lon="7.07189">
        <ele>1230</ele>
        <time>2022-07-26T13:36:59Z</time>
      </trkpt>
      <trkpt lat="44.09497" lon="7.0719">
        <ele>1231</ele>
        <time>2022-07-26T13:37:00Z</time>
      </trkpt>
      <trkpt lat="44.09497" lon="7.07191">
        <ele>1231</ele>
        <time>2022-07-26T13:37:01Z</time>
      </trkpt>
      <trkpt lat="44.09497" lon="7.07192">
        <ele>1232</ele>
        <time>2022-07-26T13:37:02Z</time>
      </trkpt>
      <trkpt lat="44.09497" lon="7.07193">
        <ele>1232</ele>
        <time>2022-07-26T13:37:03Z</time>
      </trkpt>
      <trkpt lat="44.09497" lon="7.07194">
        <ele>1232</ele>
        <time>2022-07-26T13:37:04Z</time>
      </trkpt>
      <trkpt lat="44.09498" lon="7.07195">
        <ele>1232</ele>
        <time>2022-07-26T13:37:05Z</time>
      </trkpt>
      <trkpt lat="44.09498" lon="7.07195">
        <ele>1232</ele>
        <time>2022-07-26T13:37:06Z</time>
      </trkpt>
      <trkpt lat="44.09498" lon="7.07196">
        <ele>1232</ele>
        <time>2022-07-26T13:37:07Z</time>
      </trkpt>
      <trkpt lat="44.09498" lon="7.07197">
        <ele>1232</ele>
        <time>2022-07-26T13:37:08Z</time>
      </trkpt>
      <trkpt lat="44.09498" lon="7.07198">
        <ele>1232</ele>
        <time>2022-07-26T13:37:09Z</time>
      </trkpt>
      <trkpt lat="44.09498" lon="7.07199">
        <ele>1232</ele>
        <time>2022-07-26T13:37:10Z</time>
      </trkpt>
      <trkpt lat="44.09498" lon="7.07199">
        <ele>1232</ele>
        <time>2022-07-26T13:37:11Z</time>
      </trkpt>
      <trkpt lat="44.095" lon="7.072">
        <ele>1234</ele>
        <time>2022-07-26T13:37:22Z</time>
      </trkpt>
      <trkpt lat="44.09501" lon="7.07201">
        <ele>1234</ele>
        <time>2022-07-26T13:37:23Z</time>
      </trkpt>
      <trkpt lat="44.09502" lon="7.07201">
        <ele>1234</ele>
        <time>2022-07-26T13:37:24Z</time>
      </trkpt>
      <trkpt lat="44.09503" lon="7.07201">
        <ele>1234</ele>
        <time>2022-07-26T13:37:25Z</time>
      </trkpt>
      <trkpt lat="44.09504" lon="7.07201">
        <ele>1234</ele>
        <time>2022-07-26T13:37:26Z</time>
      </trkpt>
      <trkpt lat="44.09505" lon="7.07201">
        <ele>1235</ele>
        <time>2022-07-26T13:37:27Z</time>
      </trkpt>
      <trkpt lat="44.09506" lon="7.07202">
        <ele>1235</ele>
        <time>2022-07-26T13:37:28Z</time>
      </trkpt>
      <trkpt lat="44.09507" lon="7.07202">
        <ele>1235</ele>
        <time>2022-07-26T13:37:29Z</time>
      </trkpt>
      <trkpt lat="44.09508" lon="7.07202">
        <ele>1235</ele>
        <time>2022-07-26T13:37:30Z</time>
      </trkpt>
      <trkpt lat="44.0951" lon="7.07202">
        <ele>1235</ele>
        <time>2022-07-26T13:37:31Z</time>
      </trkpt>
      <trkpt lat="44.09511" lon="7.07203">
        <ele>1235</ele>
        <time>2022-07-26T13:37:32Z</time>
      </trkpt>
      <trkpt lat="44.09512" lon="7.07203">
        <ele>1235</ele>
        <time>2022-07-26T13:37:33Z</time>
      </trkpt>
      <trkpt lat="44.09513" lon="7.07203">
        <ele>1235</ele>
        <time>2022-07-26T13:37:34Z</time>
      </trkpt>
      <trkpt lat="44.09514" lon="7.07203">
        <ele>1235</ele>
        <time>2022-07-26T13:37:35Z</time>
      </trkpt>
      <trkpt lat="44.09516" lon="7.07203">
        <ele>1235</ele>
        <time>2022-07-26T13:37:36Z</time>
      </trkpt>
      <trkpt lat="44.09517" lon="7.07203">
        <ele>1236</ele>
        <time>2022-07-26T13:37:37Z</time>
      </trkpt>
      <trkpt lat="44.09518" lon="7.07203">
        <ele>1236</ele>
        <time>2022-07-26T13:37:38Z</time>
      </trkpt>
      <trkpt lat="44.09519" lon="7.07203">
        <ele>1236</ele>
        <time>2022-07-26T13:37:39Z</time>
      </trkpt>
      <trkpt lat="44.0952" lon="7.07203">
        <ele>1236</ele>
        <time>2022-07-26T13:37:40Z</time>
      </trkpt>
      <trkpt lat="44.0952" lon="7.07203">
        <ele>1236</ele>
        <time>2022-07-26T13:37:41Z</time>
      </trkpt>
      <trkpt lat="44.09521" lon="7.07203">
        <ele>1236</ele>
        <time>2022-07-26T13:37:42Z</time>
      </trkpt>
      <trkpt lat="44.09522" lon="7.07202">
        <ele>1236</ele>
        <time>2022-07-26T13:37:43Z</time>
      </trkpt>
      <trkpt lat="44.09523" lon="7.07202">
        <ele>1236</ele>
        <time>2022-07-26T13:37:44Z</time>
      </trkpt>
      <trkpt lat="44.09524" lon="7.07201">
        <ele>1236</ele>
        <time>2022-07-26T13:37:45Z</time>
      </trkpt>
      <trkpt lat="44.09525" lon="7.07201">
        <ele>1236</ele>
        <time>2022-07-26T13:37:46Z</time>
      </trkpt>
      <trkpt lat="44.09526" lon="7.072">
        <ele>1236</ele>
        <time>2022-07-26T13:37:47Z</time>
      </trkpt>
      <trkpt lat="44.09526" lon="7.072">
        <ele>1236</ele>
        <time>2022-07-26T13:37:48Z</time>
      </trkpt>
      <trkpt lat="44.09527" lon="7.072">
        <ele>1237</ele>
        <time>2022-07-26T13:37:57Z</time>
      </trkpt>
      <trkpt lat="44.09528" lon="7.072">
        <ele>1237</ele>
        <time>2022-07-26T13:37:58Z</time>
      </trkpt>
      <trkpt lat="44.09529" lon="7.072">
        <ele>1237</ele>
        <time>2022-07-26T13:37:59Z</time>
      </trkpt>
      <trkpt lat="44.0953" lon="7.072">
        <ele>1237</ele>
        <time>2022-07-26T13:38:00Z</time>
      </trkpt>
      <trkpt lat="44.09531" lon="7.072">
        <ele>1237</ele>
        <time>2022-07-26T13:38:01Z</time>
      </trkpt>
      <trkpt lat="44.09531" lon="7.072">
        <ele>1237</ele>
        <time>2022-07-26T13:38:02Z</time>
      </trkpt>
      <trkpt lat="44.09531" lon="7.072">
        <ele>1237</ele>
        <time>2022-07-26T13:38:03Z</time>
      </trkpt>
      <trkpt lat="44.09532" lon="7.072">
        <ele>1237</ele>
        <time>2022-07-26T13:38:04Z</time>
      </trkpt>
      <trkpt lat="44.09533" lon="7.072">
        <ele>1237</ele>
        <time>2022-07-26T13:38:05Z</time>
      </trkpt>
      <trkpt lat="44.09536" lon="7.07196">
        <ele>1244</ele>
        <time>2022-07-26T13:39:04Z</time>
      </trkpt>
      <trkpt lat="44.09538" lon="7.07195">
        <ele>1244</ele>
        <time>2022-07-26T13:39:05Z</time>
      </trkpt>
      <trkpt lat="44.0954" lon="7.07193">
        <ele>1244</ele>
        <time>2022-07-26T13:39:06Z</time>
      </trkpt>
      <trkpt lat="44.09541" lon="7.07193">
        <ele>1244</ele>
        <time>2022-07-26T13:39:07Z</time>
      </trkpt>
      <trkpt lat="44.09542" lon="7.07192">
        <ele>1244</ele>
        <time>2022-07-26T13:39:08Z</time>
      </trkpt>
      <trkpt lat="44.09545" lon="7.07194">
        <ele>1245</ele>
        <time>2022-07-26T13:39:20Z</time>
      </trkpt>
      <trkpt lat="44.09545" lon="7.07194">
        <ele>1245</ele>
        <time>2022-07-26T13:39:21Z</time>
      </trkpt>
      <trkpt lat="44.09546" lon="7.07195">
        <ele>1245</ele>
        <time>2022-07-26T13:39:22Z</time>
      </trkpt>
      <trkpt lat="44.09547" lon="7.07196">
        <ele>1245</ele>
        <time>2022-07-26T13:39:23Z</time>
      </trkpt>
      <trkpt lat="44.09548" lon="7.07197">
        <ele>1245</ele>
        <time>2022-07-26T13:39:24Z</time>
      </trkpt>
      <trkpt lat="44.09548" lon="7.07198">
        <ele>1245</ele>
        <time>2022-07-26T13:39:25Z</time>
      </trkpt>
      <trkpt lat="44.09549" lon="7.07199">
        <ele>1245</ele>
        <time>2022-07-26T13:39:26Z</time>
      </trkpt>
      <trkpt lat="44.09549" lon="7.07201">
        <ele>1245</ele>
        <time>2022-07-26T13:39:27Z</time>
      </trkpt>
      <trkpt lat="44.09549" lon="7.07202">
        <ele>1245</ele>
        <time>2022-07-26T13:39:28Z</time>
      </trkpt>
      <trkpt lat="44.0955" lon="7.07204">
        <ele>1245</ele>
        <time>2022-07-26T13:39:29Z</time>
      </trkpt>
      <trkpt lat="44.0955" lon="7.07205">
        <ele>1245</ele>
        <time>2022-07-26T13:39:30Z</time>
      </trkpt>
      <trkpt lat="44.0955" lon="7.07206">
        <ele>1245</ele>
        <time>2022-07-26T13:39:31Z</time>
      </trkpt>
      <trkpt lat="44.0955" lon="7.07207">
        <ele>1245</ele>
        <time>2022-07-26T13:39:32Z</time>
      </trkpt>
      <trkpt lat="44.0955" lon="7.07208">
        <ele>1245</ele>
        <time>2022-07-26T13:39:33Z</time>
      </trkpt>
      <trkpt lat="44.0955" lon="7.07209">
        <ele>1245</ele>
        <time>2022-07-26T13:39:34Z</time>
      </trkpt>
      <trkpt lat="44.09549" lon="7.0721">
        <ele>1245</ele>
        <time>2022-07-26T13:39:35Z</time>
      </trkpt>
      <trkpt lat="44.09549" lon="7.07211">
        <ele>1245</ele>
        <time>2022-07-26T13:39:36Z</time>
      </trkpt>
      <trkpt lat="44.09549" lon="7.07212">
        <ele>1245</ele>
        <time>2022-07-26T13:39:37Z</time>
      </trkpt>
      <trkpt lat="44.09549" lon="7.07213">
        <ele>1245</ele>
        <time>2022-07-26T13:39:38Z</time>
      </trkpt>
      <trkpt lat="44.09548" lon="7.07214">
        <ele>1245</ele>
        <time>2022-07-26T13:39:39Z</time>
      </trkpt>
      <trkpt lat="44.09548" lon="7.07215">
        <ele>1245</ele>
        <time>2022-07-26T13:39:40Z</time>
      </trkpt>
      <trkpt lat="44.09548" lon="7.07216">
        <ele>1245</ele>
        <time>2022-07-26T13:39:41Z</time>
      </trkpt>
      <trkpt lat="44.09547" lon="7.07217">
        <ele>1246</ele>
        <time>2022-07-26T13:39:42Z</time>
      </trkpt>
      <trkpt lat="44.09547" lon="7.07218">
        <ele>1246</ele>
        <time>2022-07-26T13:39:43Z</time>
      </trkpt>
      <trkpt lat="44.09546" lon="7.07218">
        <ele>1246</ele>
        <time>2022-07-26T13:39:44Z</time>
      </trkpt>
      <trkpt lat="44.09546" lon="7.07219">
        <ele>1246</ele>
        <time>2022-07-26T13:39:45Z</time>
      </trkpt>
      <trkpt lat="44.09545" lon="7.07221">
        <ele>1246</ele>
        <time>2022-07-26T13:39:46Z</time>
      </trkpt>
      <trkpt lat="44.09545" lon="7.07222">
        <ele>1246</ele>
        <time>2022-07-26T13:39:47Z</time>
      </trkpt>
      <trkpt lat="44.09544" lon="7.07223">
        <ele>1246</ele>
        <time>2022-07-26T13:39:48Z</time>
      </trkpt>
      <trkpt lat="44.09544" lon="7.07224">
        <ele>1246</ele>
        <time>2022-07-26T13:39:49Z</time>
      </trkpt>
      <trkpt lat="44.09544" lon="7.07226">
        <ele>1246</ele>
        <time>2022-07-26T13:39:50Z</time>
      </trkpt>
      <trkpt lat="44.09543" lon="7.07227">
        <ele>1246</ele>
        <time>2022-07-26T13:39:51Z</time>
      </trkpt>
      <trkpt lat="44.09542" lon="7.07228">
        <ele>1246</ele>
        <time>2022-07-26T13:39:52Z</time>
      </trkpt>
      <trkpt lat="44.09542" lon="7.0723">
        <ele>1246</ele>
        <time>2022-07-26T13:39:53Z</time>
      </trkpt>
      <trkpt lat="44.09541" lon="7.07231">
        <ele>1246</ele>
        <time>2022-07-26T13:39:54Z</time>
      </trkpt>
      <trkpt lat="44.0954" lon="7.07232">
        <ele>1246</ele>
        <time>2022-07-26T13:39:55Z</time>
      </trkpt>
      <trkpt lat="44.0954" lon="7.07234">
        <ele>1246</ele>
        <time>2022-07-26T13:39:56Z</time>
      </trkpt>
      <trkpt lat="44.09539" lon="7.07235">
        <ele>1246</ele>
        <time>2022-07-26T13:39:57Z</time>
      </trkpt>
      <trkpt lat="44.09539" lon="7.07236">
        <ele>1246</ele>
        <time>2022-07-26T13:39:58Z</time>
      </trkpt>
      <trkpt lat="44.09539" lon="7.07238">
        <ele>1246</ele>
        <time>2022-07-26T13:39:59Z</time>
      </trkpt>
      <trkpt lat="44.09538" lon="7.07239">
        <ele>1246</ele>
        <time>2022-07-26T13:40:00Z</time>
      </trkpt>
      <trkpt lat="44.09538" lon="7.07241">
        <ele>1246</ele>
        <time>2022-07-26T13:40:01Z</time>
      </trkpt>
      <trkpt lat="44.09538" lon="7.07243">
        <ele>1246</ele>
        <time>2022-07-26T13:40:02Z</time>
      </trkpt>
      <trkpt lat="44.09538" lon="7.07244">
        <ele>1246</ele>
        <time>2022-07-26T13:40:03Z</time>
      </trkpt>
      <trkpt lat="44.09538" lon="7.07245">
        <ele>1246</ele>
        <time>2022-07-26T13:40:04Z</time>
      </trkpt>
      <trkpt lat="44.09538" lon="7.07247">
        <ele>1246</ele>
        <time>2022-07-26T13:40:05Z</time>
      </trkpt>
      <trkpt lat="44.09538" lon="7.07248">
        <ele>1246</ele>
        <time>2022-07-26T13:40:06Z</time>
      </trkpt>
      <trkpt lat="44.09538" lon="7.07249">
        <ele>1246</ele>
        <time>2022-07-26T13:40:07Z</time>
      </trkpt>
      <trkpt lat="44.09538" lon="7.07249">
        <ele>1245</ele>
        <time>2022-07-26T13:40:08Z</time>
      </trkpt>
      <trkpt lat="44.09537" lon="7.0725">
        <ele>1245</ele>
        <time>2022-07-26T13:40:09Z</time>
      </trkpt>
      <trkpt lat="44.09537" lon="7.0725">
        <ele>1245</ele>
        <time>2022-07-26T13:40:10Z</time>
      </trkpt>
      <trkpt lat="44.09536" lon="7.07251">
        <ele>1245</ele>
        <time>2022-07-26T13:40:11Z</time>
      </trkpt>
      <trkpt lat="44.09536" lon="7.07252">
        <ele>1245</ele>
        <time>2022-07-26T13:40:12Z</time>
      </trkpt>
      <trkpt lat="44.09535" lon="7.07253">
        <ele>1245</ele>
        <time>2022-07-26T13:40:13Z</time>
      </trkpt>
      <trkpt lat="44.09535" lon="7.07255">
        <ele>1245</ele>
        <time>2022-07-26T13:40:14Z</time>
      </trkpt>
      <trkpt lat="44.09535" lon="7.07257">
        <ele>1245</ele>
        <time>2022-07-26T13:40:15Z</time>
      </trkpt>
      <trkpt lat="44.09535" lon="7.07258">
        <ele>1245</ele>
        <time>2022-07-26T13:40:16Z</time>
      </trkpt>
      <trkpt lat="44.09535" lon="7.0726">
        <ele>1245</ele>
        <time>2022-07-26T13:40:17Z</time>
      </trkpt>
      <trkpt lat="44.09535" lon="7.07261">
        <ele>1245</ele>
        <time>2022-07-26T13:40:18Z</time>
      </trkpt>
      <trkpt lat="44.09535" lon="7.07263">
        <ele>1245</ele>
        <time>2022-07-26T13:40:19Z</time>
      </trkpt>
      <trkpt lat="44.09536" lon="7.07264">
        <ele>1245</ele>
        <time>2022-07-26T13:40:20Z</time>
      </trkpt>
      <trkpt lat="44.09536" lon="7.07265">
        <ele>1245</ele>
        <time>2022-07-26T13:40:21Z</time>
      </trkpt>
      <trkpt lat="44.09536" lon="7.07266">
        <ele>1245</ele>
        <time>2022-07-26T13:40:22Z</time>
      </trkpt>
      <trkpt lat="44.09536" lon="7.07266">
        <ele>1245</ele>
        <time>2022-07-26T13:40:23Z</time>
      </trkpt>
      <trkpt lat="44.09537" lon="7.07267">
        <ele>1245</ele>
        <time>2022-07-26T13:40:24Z</time>
      </trkpt>
      <trkpt lat="44.09537" lon="7.07268">
        <ele>1245</ele>
        <time>2022-07-26T13:40:25Z</time>
      </trkpt>
      <trkpt lat="44.09537" lon="7.0727">
        <ele>1245</ele>
        <time>2022-07-26T13:40:26Z</time>
      </trkpt>
      <trkpt lat="44.09537" lon="7.07271">
        <ele>1245</ele>
        <time>2022-07-26T13:40:27Z</time>
      </trkpt>
      <trkpt lat="44.09538" lon="7.07272">
        <ele>1245</ele>
        <time>2022-07-26T13:40:28Z</time>
      </trkpt>
      <trkpt lat="44.09537" lon="7.07274">
        <ele>1245</ele>
        <time>2022-07-26T13:40:29Z</time>
      </trkpt>
      <trkpt lat="44.09537" lon="7.07275">
        <ele>1245</ele>
        <time>2022-07-26T13:40:30Z</time>
      </trkpt>
      <trkpt lat="44.09537" lon="7.07276">
        <ele>1245</ele>
        <time>2022-07-26T13:40:31Z</time>
      </trkpt>
      <trkpt lat="44.09537" lon="7.07278">
        <ele>1245</ele>
        <time>2022-07-26T13:40:32Z</time>
      </trkpt>
      <trkpt lat="44.09537" lon="7.07279">
        <ele>1245</ele>
        <time>2022-07-26T13:40:33Z</time>
      </trkpt>
      <trkpt lat="44.09538" lon="7.0728">
        <ele>1245</ele>
        <time>2022-07-26T13:40:34Z</time>
      </trkpt>
      <trkpt lat="44.09538" lon="7.07282">
        <ele>1245</ele>
        <time>2022-07-26T13:40:35Z</time>
      </trkpt>
      <trkpt lat="44.09538" lon="7.07283">
        <ele>1245</ele>
        <time>2022-07-26T13:40:36Z</time>
      </trkpt>
      <trkpt lat="44.09539" lon="7.07284">
        <ele>1245</ele>
        <time>2022-07-26T13:40:37Z</time>
      </trkpt>
      <trkpt lat="44.09539" lon="7.07286">
        <ele>1245</ele>
        <time>2022-07-26T13:40:38Z</time>
      </trkpt>
      <trkpt lat="44.0954" lon="7.07287">
        <ele>1245</ele>
        <time>2022-07-26T13:40:39Z</time>
      </trkpt>
      <trkpt lat="44.0954" lon="7.07288">
        <ele>1245</ele>
        <time>2022-07-26T13:40:40Z</time>
      </trkpt>
      <trkpt lat="44.09541" lon="7.07289">
        <ele>1245</ele>
        <time>2022-07-26T13:40:41Z</time>
      </trkpt>
      <trkpt lat="44.09541" lon="7.0729">
        <ele>1245</ele>
        <time>2022-07-26T13:40:42Z</time>
      </trkpt>
      <trkpt lat="44.09542" lon="7.07291">
        <ele>1245</ele>
        <time>2022-07-26T13:40:43Z</time>
      </trkpt>
      <trkpt lat="44.09542" lon="7.07292">
        <ele>1245</ele>
        <time>2022-07-26T13:40:44Z</time>
      </trkpt>
      <trkpt lat="44.09543" lon="7.07294">
        <ele>1245</ele>
        <time>2022-07-26T13:40:45Z</time>
      </trkpt>
      <trkpt lat="44.09543" lon="7.07295">
        <ele>1245</ele>
        <time>2022-07-26T13:40:46Z</time>
      </trkpt>
      <trkpt lat="44.09544" lon="7.07296">
        <ele>1245</ele>
        <time>2022-07-26T13:40:47Z</time>
      </trkpt>
      <trkpt lat="44.09544" lon="7.07297">
        <ele>1245</ele>
        <time>2022-07-26T13:40:48Z</time>
      </trkpt>
      <trkpt lat="44.09544" lon="7.07299">
        <ele>1245</ele>
        <time>2022-07-26T13:40:49Z</time>
      </trkpt>
      <trkpt lat="44.09545" lon="7.073">
        <ele>1245</ele>
        <time>2022-07-26T13:40:50Z</time>
      </trkpt>
      <trkpt lat="44.09545" lon="7.07301">
        <ele>1245</ele>
        <time>2022-07-26T13:40:51Z</time>
      </trkpt>
      <trkpt lat="44.09545" lon="7.07303">
        <ele>1245</ele>
        <time>2022-07-26T13:40:52Z</time>
      </trkpt>
      <trkpt lat="44.09545" lon="7.07304">
        <ele>1245</ele>
        <time>2022-07-26T13:40:53Z</time>
      </trkpt>
      <trkpt lat="44.09545" lon="7.07305">
        <ele>1245</ele>
        <time>2022-07-26T13:40:54Z</time>
      </trkpt>
      <trkpt lat="44.09546" lon="7.07307">
        <ele>1245</ele>
        <time>2022-07-26T13:40:55Z</time>
      </trkpt>
      <trkpt lat="44.09546" lon="7.07308">
        <ele>1245</ele>
        <time>2022-07-26T13:40:56Z</time>
      </trkpt>
      <trkpt lat="44.09546" lon="7.0731">
        <ele>1246</ele>
        <time>2022-07-26T13:40:57Z</time>
      </trkpt>
      <trkpt lat="44.09547" lon="7.07311">
        <ele>1246</ele>
        <time>2022-07-26T13:40:58Z</time>
      </trkpt>
      <trkpt lat="44.09547" lon="7.07312">
        <ele>1246</ele>
        <time>2022-07-26T13:40:59Z</time>
      </trkpt>
      <trkpt lat="44.09547" lon="7.07314">
        <ele>1246</ele>
        <time>2022-07-26T13:41:00Z</time>
      </trkpt>
      <trkpt lat="44.09547" lon="7.07315">
        <ele>1246</ele>
        <time>2022-07-26T13:41:01Z</time>
      </trkpt>
      <trkpt lat="44.09547" lon="7.07316">
        <ele>1246</ele>
        <time>2022-07-26T13:41:02Z</time>
      </trkpt>
      <trkpt lat="44.09547" lon="7.07317">
        <ele>1246</ele>
        <time>2022-07-26T13:41:03Z</time>
      </trkpt>
      <trkpt lat="44.09547" lon="7.07318">
        <ele>1246</ele>
        <time>2022-07-26T13:41:04Z</time>
      </trkpt>
      <trkpt lat="44.09547" lon="7.07319">
        <ele>1246</ele>
        <time>2022-07-26T13:41:05Z</time>
      </trkpt>
      <trkpt lat="44.09547" lon="7.0732">
        <ele>1246</ele>
        <time>2022-07-26T13:41:12Z</time>
      </trkpt>
      <trkpt lat="44.09547" lon="7.07321">
        <ele>1246</ele>
        <time>2022-07-26T13:41:13Z</time>
      </trkpt>
      <trkpt lat="44.09547" lon="7.07322">
        <ele>1246</ele>
        <time>2022-07-26T13:41:14Z</time>
      </trkpt>
      <trkpt lat="44.09547" lon="7.07323">
        <ele>1246</ele>
        <time>2022-07-26T13:41:15Z</time>
      </trkpt>
      <trkpt lat="44.09547" lon="7.07324">
        <ele>1246</ele>
        <time>2022-07-26T13:41:16Z</time>
      </trkpt>
      <trkpt lat="44.09547" lon="7.07324">
        <ele>1246</ele>
        <time>2022-07-26T13:41:17Z</time>
      </trkpt>
      <trkpt lat="44.09546" lon="7.07325">
        <ele>1246</ele>
        <time>2022-07-26T13:41:18Z</time>
      </trkpt>
      <trkpt lat="44.09546" lon="7.07325">
        <ele>1246</ele>
        <time>2022-07-26T13:41:19Z</time>
      </trkpt>
      <trkpt lat="44.09546" lon="7.07326">
        <ele>1246</ele>
        <time>2022-07-26T13:41:20Z</time>
      </trkpt>
      <trkpt lat="44.09546" lon="7.07327">
        <ele>1246</ele>
        <time>2022-07-26T13:41:21Z</time>
      </trkpt>
      <trkpt lat="44.09545" lon="7.07328">
        <ele>1246</ele>
        <time>2022-07-26T13:41:22Z</time>
      </trkpt>
      <trkpt lat="44.09545" lon="7.07329">
        <ele>1246</ele>
        <time>2022-07-26T13:41:23Z</time>
      </trkpt>
      <trkpt lat="44.09545" lon="7.07331">
        <ele>1246</ele>
        <time>2022-07-26T13:41:24Z</time>
      </trkpt>
      <trkpt lat="44.09545" lon="7.07332">
        <ele>1246</ele>
        <time>2022-07-26T13:41:25Z</time>
      </trkpt>
      <trkpt lat="44.09545" lon="7.07333">
        <ele>1246</ele>
        <time>2022-07-26T13:41:26Z</time>
      </trkpt>
      <trkpt lat="44.09544" lon="7.07334">
        <ele>1246</ele>
        <time>2022-07-26T13:41:27Z</time>
      </trkpt>
      <trkpt lat="44.09544" lon="7.07335">
        <ele>1246</ele>
        <time>2022-07-26T13:41:28Z</time>
      </trkpt>
      <trkpt lat="44.09544" lon="7.07337">
        <ele>1246</ele>
        <time>2022-07-26T13:41:29Z</time>
      </trkpt>
      <trkpt lat="44.09543" lon="7.07337">
        <ele>1246</ele>
        <time>2022-07-26T13:41:30Z</time>
      </trkpt>
      <trkpt lat="44.09543" lon="7.07338">
        <ele>1246</ele>
        <time>2022-07-26T13:41:31Z</time>
      </trkpt>
      <trkpt lat="44.09543" lon="7.07338">
        <ele>1246</ele>
        <time>2022-07-26T13:41:32Z</time>
      </trkpt>
      <trkpt lat="44.09543" lon="7.07339">
        <ele>1246</ele>
        <time>2022-07-26T13:41:33Z</time>
      </trkpt>
      <trkpt lat="44.09542" lon="7.07339">
        <ele>1246</ele>
        <time>2022-07-26T13:41:34Z</time>
      </trkpt>
      <trkpt lat="44.09542" lon="7.0734">
        <ele>1246</ele>
        <time>2022-07-26T13:41:35Z</time>
      </trkpt>
      <trkpt lat="44.09542" lon="7.07341">
        <ele>1246</ele>
        <time>2022-07-26T13:41:36Z</time>
      </trkpt>
      <trkpt lat="44.09541" lon="7.07342">
        <ele>1246</ele>
        <time>2022-07-26T13:41:37Z</time>
      </trkpt>
      <trkpt lat="44.09541" lon="7.07344">
        <ele>1246</ele>
        <time>2022-07-26T13:41:38Z</time>
      </trkpt>
      <trkpt lat="44.09541" lon="7.07345">
        <ele>1246</ele>
        <time>2022-07-26T13:41:39Z</time>
      </trkpt>
      <trkpt lat="44.0954" lon="7.07346">
        <ele>1246</ele>
        <time>2022-07-26T13:41:40Z</time>
      </trkpt>
      <trkpt lat="44.0954" lon="7.07347">
        <ele>1246</ele>
        <time>2022-07-26T13:41:41Z</time>
      </trkpt>
      <trkpt lat="44.0954" lon="7.07348">
        <ele>1246</ele>
        <time>2022-07-26T13:41:42Z</time>
      </trkpt>
      <trkpt lat="44.09539" lon="7.07349">
        <ele>1246</ele>
        <time>2022-07-26T13:41:43Z</time>
      </trkpt>
      <trkpt lat="44.09539" lon="7.0735">
        <ele>1246</ele>
        <time>2022-07-26T13:41:44Z</time>
      </trkpt>
      <trkpt lat="44.09539" lon="7.0735">
        <ele>1246</ele>
        <time>2022-07-26T13:41:45Z</time>
      </trkpt>
      <trkpt lat="44.09539" lon="7.07351">
        <ele>1246</ele>
        <time>2022-07-26T13:41:46Z</time>
      </trkpt>
      <trkpt lat="44.09539" lon="7.07352">
        <ele>1246</ele>
        <time>2022-07-26T13:41:47Z</time>
      </trkpt>
      <trkpt lat="44.09539" lon="7.07353">
        <ele>1246</ele>
        <time>2022-07-26T13:41:48Z</time>
      </trkpt>
      <trkpt lat="44.09539" lon="7.07354">
        <ele>1246</ele>
        <time>2022-07-26T13:41:49Z</time>
      </trkpt>
      <trkpt lat="44.09539" lon="7.07355">
        <ele>1246</ele>
        <time>2022-07-26T13:41:50Z</time>
      </trkpt>
      <trkpt lat="44.09539" lon="7.07356">
        <ele>1246</ele>
        <time>2022-07-26T13:41:51Z</time>
      </trkpt>
      <trkpt lat="44.09538" lon="7.07357">
        <ele>1246</ele>
        <time>2022-07-26T13:41:52Z</time>
      </trkpt>
      <trkpt lat="44.09538" lon="7.07358">
        <ele>1246</ele>
        <time>2022-07-26T13:41:53Z</time>
      </trkpt>
      <trkpt lat="44.09538" lon="7.07359">
        <ele>1246</ele>
        <time>2022-07-26T13:41:54Z</time>
      </trkpt>
      <trkpt lat="44.09537" lon="7.07359">
        <ele>1246</ele>
        <time>2022-07-26T13:41:55Z</time>
      </trkpt>
      <trkpt lat="44.09537" lon="7.0736">
        <ele>1246</ele>
        <time>2022-07-26T13:41:56Z</time>
      </trkpt>
      <trkpt lat="44.09536" lon="7.0736">
        <ele>1246</ele>
        <time>2022-07-26T13:41:57Z</time>
      </trkpt>
      <trkpt lat="44.09536" lon="7.07361">
        <ele>1246</ele>
        <time>2022-07-26T13:41:58Z</time>
      </trkpt>
      <trkpt lat="44.09536" lon="7.07361">
        <ele>1246</ele>
        <time>2022-07-26T13:41:59Z</time>
      </trkpt>
      <trkpt lat="44.09536" lon="7.07362">
        <ele>1246</ele>
        <time>2022-07-26T13:42:00Z</time>
      </trkpt>
      <trkpt lat="44.09537" lon="7.07362">
        <ele>1246</ele>
        <time>2022-07-26T13:42:01Z</time>
      </trkpt>
      <trkpt lat="44.09537" lon="7.07362">
        <ele>1246</ele>
        <time>2022-07-26T13:42:02Z</time>
      </trkpt>
      <trkpt lat="44.09537" lon="7.07362">
        <ele>1246</ele>
        <time>2022-07-26T13:42:03Z</time>
      </trkpt>
      <trkpt lat="44.09538" lon="7.07362">
        <ele>1246</ele>
        <time>2022-07-26T13:42:04Z</time>
      </trkpt>
      <trkpt lat="44.09538" lon="7.07362">
        <ele>1246</ele>
        <time>2022-07-26T13:42:05Z</time>
      </trkpt>
      <trkpt lat="44.09538" lon="7.07362">
        <ele>1246</ele>
        <time>2022-07-26T13:42:06Z</time>
      </trkpt>
      <trkpt lat="44.09539" lon="7.07361">
        <ele>1246</ele>
        <time>2022-07-26T13:42:07Z</time>
      </trkpt>
      <trkpt lat="44.09539" lon="7.07361">
        <ele>1246</ele>
        <time>2022-07-26T13:42:08Z</time>
      </trkpt>
      <trkpt lat="44.0954" lon="7.0736">
        <ele>1246</ele>
        <time>2022-07-26T13:42:09Z</time>
      </trkpt>
      <trkpt lat="44.0954" lon="7.07359">
        <ele>1246</ele>
        <time>2022-07-26T13:42:10Z</time>
      </trkpt>
      <trkpt lat="44.09541" lon="7.07359">
        <ele>1246</ele>
        <time>2022-07-26T13:42:11Z</time>
      </trkpt>
      <trkpt lat="44.09542" lon="7.07358">
        <ele>1246</ele>
        <time>2022-07-26T13:42:12Z</time>
      </trkpt>
      <trkpt lat="44.09543" lon="7.07357">
        <ele>1246</ele>
        <time>2022-07-26T13:42:13Z</time>
      </trkpt>
      <trkpt lat="44.09543" lon="7.07356">
        <ele>1246</ele>
        <time>2022-07-26T13:42:14Z</time>
      </trkpt>
      <trkpt lat="44.09544" lon="7.07355">
        <ele>1246</ele>
        <time>2022-07-26T13:42:15Z</time>
      </trkpt>
      <trkpt lat="44.09544" lon="7.07354">
        <ele>1246</ele>
        <time>2022-07-26T13:42:16Z</time>
      </trkpt>
      <trkpt lat="44.09545" lon="7.07353">
        <ele>1247</ele>
        <time>2022-07-26T13:42:17Z</time>
      </trkpt>
      <trkpt lat="44.09545" lon="7.07352">
        <ele>1247</ele>
        <time>2022-07-26T13:42:18Z</time>
      </trkpt>
      <trkpt lat="44.09545" lon="7.07351">
        <ele>1247</ele>
        <time>2022-07-26T13:42:19Z</time>
      </trkpt>
      <trkpt lat="44.09546" lon="7.07351">
        <ele>1247</ele>
        <time>2022-07-26T13:42:20Z</time>
      </trkpt>
      <trkpt lat="44.09546" lon="7.0735">
        <ele>1247</ele>
        <time>2022-07-26T13:42:21Z</time>
      </trkpt>
      <trkpt lat="44.09549" lon="7.07351">
        <ele>1252</ele>
        <time>2022-07-26T13:43:02Z</time>
      </trkpt>
      <trkpt lat="44.0955" lon="7.07352">
        <ele>1252</ele>
        <time>2022-07-26T13:43:03Z</time>
      </trkpt>
      <trkpt lat="44.09551" lon="7.07352">
        <ele>1252</ele>
        <time>2022-07-26T13:43:04Z</time>
      </trkpt>
      <trkpt lat="44.09552" lon="7.07353">
        <ele>1252</ele>
        <time>2022-07-26T13:43:05Z</time>
      </trkpt>
      <trkpt lat="44.09553" lon="7.07353">
        <ele>1252</ele>
        <time>2022-07-26T13:43:06Z</time>
      </trkpt>
      <trkpt lat="44.09554" lon="7.07353">
        <ele>1253</ele>
        <time>2022-07-26T13:43:07Z</time>
      </trkpt>
      <trkpt lat="44.09555" lon="7.07354">
        <ele>1253</ele>
        <time>2022-07-26T13:43:08Z</time>
      </trkpt>
      <trkpt lat="44.09556" lon="7.07354">
        <ele>1253</ele>
        <time>2022-07-26T13:43:09Z</time>
      </trkpt>
      <trkpt lat="44.09557" lon="7.07354">
        <ele>1253</ele>
        <time>2022-07-26T13:43:10Z</time>
      </trkpt>
      <trkpt lat="44.09558" lon="7.07354">
        <ele>1253</ele>
        <time>2022-07-26T13:43:11Z</time>
      </trkpt>
      <trkpt lat="44.09558" lon="7.07354">
        <ele>1254</ele>
        <time>2022-07-26T13:43:12Z</time>
      </trkpt>
      <trkpt lat="44.09558" lon="7.07353">
        <ele>1254</ele>
        <time>2022-07-26T13:43:13Z</time>
      </trkpt>
      <trkpt lat="44.09559" lon="7.07352">
        <ele>1254</ele>
        <time>2022-07-26T13:43:14Z</time>
      </trkpt>
      <trkpt lat="44.0956" lon="7.07351">
        <ele>1255</ele>
        <time>2022-07-26T13:43:22Z</time>
      </trkpt>
      <trkpt lat="44.0956" lon="7.07352">
        <ele>1255</ele>
        <time>2022-07-26T13:43:23Z</time>
      </trkpt>
      <trkpt lat="44.0956" lon="7.07352">
        <ele>1255</ele>
        <time>2022-07-26T13:43:24Z</time>
      </trkpt>
      <trkpt lat="44.0956" lon="7.07353">
        <ele>1255</ele>
        <time>2022-07-26T13:43:25Z</time>
      </trkpt>
      <trkpt lat="44.0956" lon="7.07354">
        <ele>1255</ele>
        <time>2022-07-26T13:43:26Z</time>
      </trkpt>
      <trkpt lat="44.0956" lon="7.07355">
        <ele>1256</ele>
        <time>2022-07-26T13:43:27Z</time>
      </trkpt>
      <trkpt lat="44.09559" lon="7.07357">
        <ele>1256</ele>
        <time>2022-07-26T13:43:28Z</time>
      </trkpt>
      <trkpt lat="44.09558" lon="7.07358">
        <ele>1256</ele>
        <time>2022-07-26T13:43:29Z</time>
      </trkpt>
      <trkpt lat="44.09558" lon="7.07359">
        <ele>1256</ele>
        <time>2022-07-26T13:43:30Z</time>
      </trkpt>
      <trkpt lat="44.09557" lon="7.07361">
        <ele>1256</ele>
        <time>2022-07-26T13:43:31Z</time>
      </trkpt>
      <trkpt lat="44.09556" lon="7.07362">
        <ele>1256</ele>
        <time>2022-07-26T13:43:32Z</time>
      </trkpt>
      <trkpt lat="44.09555" lon="7.07363">
        <ele>1256</ele>
        <time>2022-07-26T13:43:33Z</time>
      </trkpt>
      <trkpt lat="44.09554" lon="7.07365">
        <ele>1256</ele>
        <time>2022-07-26T13:43:34Z</time>
      </trkpt>
      <trkpt lat="44.09553" lon="7.07366">
        <ele>1256</ele>
        <time>2022-07-26T13:43:35Z</time>
      </trkpt>
      <trkpt lat="44.09552" lon="7.07367">
        <ele>1256</ele>
        <time>2022-07-26T13:43:36Z</time>
      </trkpt>
      <trkpt lat="44.09551" lon="7.07368">
        <ele>1257</ele>
        <time>2022-07-26T13:43:37Z</time>
      </trkpt>
      <trkpt lat="44.09551" lon="7.0737">
        <ele>1257</ele>
        <time>2022-07-26T13:43:38Z</time>
      </trkpt>
      <trkpt lat="44.0955" lon="7.07371">
        <ele>1257</ele>
        <time>2022-07-26T13:43:39Z</time>
      </trkpt>
      <trkpt lat="44.09549" lon="7.07372">
        <ele>1257</ele>
        <time>2022-07-26T13:43:40Z</time>
      </trkpt>
      <trkpt lat="44.09548" lon="7.07373">
        <ele>1257</ele>
        <time>2022-07-26T13:43:41Z</time>
      </trkpt>
      <trkpt lat="44.09547" lon="7.07374">
        <ele>1257</ele>
        <time>2022-07-26T13:43:42Z</time>
      </trkpt>
      <trkpt lat="44.09546" lon="7.07375">
        <ele>1257</ele>
        <time>2022-07-26T13:43:43Z</time>
      </trkpt>
      <trkpt lat="44.09546" lon="7.07376">
        <ele>1257</ele>
        <time>2022-07-26T13:43:44Z</time>
      </trkpt>
      <trkpt lat="44.09545" lon="7.07376">
        <ele>1257</ele>
        <time>2022-07-26T13:43:45Z</time>
      </trkpt>
      <trkpt lat="44.09544" lon="7.07377">
        <ele>1257</ele>
        <time>2022-07-26T13:43:46Z</time>
      </trkpt>
      <trkpt lat="44.09543" lon="7.07378">
        <ele>1258</ele>
        <time>2022-07-26T13:43:47Z</time>
      </trkpt>
      <trkpt lat="44.09542" lon="7.07379">
        <ele>1258</ele>
        <time>2022-07-26T13:43:48Z</time>
      </trkpt>
      <trkpt lat="44.09541" lon="7.0738">
        <ele>1258</ele>
        <time>2022-07-26T13:43:49Z</time>
      </trkpt>
      <trkpt lat="44.0954" lon="7.07381">
        <ele>1258</ele>
        <time>2022-07-26T13:43:50Z</time>
      </trkpt>
      <trkpt lat="44.09539" lon="7.07382">
        <ele>1258</ele>
        <time>2022-07-26T13:43:51Z</time>
      </trkpt>
      <trkpt lat="44.09538" lon="7.07383">
        <ele>1258</ele>
        <time>2022-07-26T13:43:52Z</time>
      </trkpt>
      <trkpt lat="44.09536" lon="7.07383">
        <ele>1258</ele>
        <time>2022-07-26T13:43:53Z</time>
      </trkpt>
      <trkpt lat="44.09535" lon="7.07384">
        <ele>1258</ele>
        <time>2022-07-26T13:43:54Z</time>
      </trkpt>
      <trkpt lat="44.09534" lon="7.07384">
        <ele>1258</ele>
        <time>2022-07-26T13:43:55Z</time>
      </trkpt>
      <trkpt lat="44.09532" lon="7.07384">
        <ele>1258</ele>
        <time>2022-07-26T13:43:56Z</time>
      </trkpt>
      <trkpt lat="44.09531" lon="7.07384">
        <ele>1258</ele>
        <time>2022-07-26T13:43:57Z</time>
      </trkpt>
      <trkpt lat="44.0953" lon="7.07384">
        <ele>1258</ele>
        <time>2022-07-26T13:43:58Z</time>
      </trkpt>
      <trkpt lat="44.09528" lon="7.07383">
        <ele>1258</ele>
        <time>2022-07-26T13:43:59Z</time>
      </trkpt>
      <trkpt lat="44.09527" lon="7.07383">
        <ele>1258</ele>
        <time>2022-07-26T13:44:00Z</time>
      </trkpt>
      <trkpt lat="44.09526" lon="7.07383">
        <ele>1258</ele>
        <time>2022-07-26T13:44:01Z</time>
      </trkpt>
      <trkpt lat="44.09526" lon="7.07383">
        <ele>1258</ele>
        <time>2022-07-26T13:44:02Z</time>
      </trkpt>
      <trkpt lat="44.09525" lon="7.07383">
        <ele>1258</ele>
        <time>2022-07-26T13:44:03Z</time>
      </trkpt>
      <trkpt lat="44.09524" lon="7.07384">
        <ele>1258</ele>
        <time>2022-07-26T13:44:04Z</time>
      </trkpt>
      <trkpt lat="44.09523" lon="7.07384">
        <ele>1258</ele>
        <time>2022-07-26T13:44:05Z</time>
      </trkpt>
      <trkpt lat="44.09523" lon="7.07385">
        <ele>1258</ele>
        <time>2022-07-26T13:44:06Z</time>
      </trkpt>
      <trkpt lat="44.09522" lon="7.07385">
        <ele>1259</ele>
        <time>2022-07-26T13:44:07Z</time>
      </trkpt>
      <trkpt lat="44.09522" lon="7.07386">
        <ele>1259</ele>
        <time>2022-07-26T13:44:08Z</time>
      </trkpt>
      <trkpt lat="44.09521" lon="7.07387">
        <ele>1259</ele>
        <time>2022-07-26T13:44:09Z</time>
      </trkpt>
      <trkpt lat="44.09521" lon="7.07387">
        <ele>1259</ele>
        <time>2022-07-26T13:44:10Z</time>
      </trkpt>
      <trkpt lat="44.0952" lon="7.07388">
        <ele>1259</ele>
        <time>2022-07-26T13:44:11Z</time>
      </trkpt>
      <trkpt lat="44.0952" lon="7.07389">
        <ele>1259</ele>
        <time>2022-07-26T13:44:12Z</time>
      </trkpt>
      <trkpt lat="44.0952" lon="7.0739">
        <ele>1259</ele>
        <time>2022-07-26T13:44:13Z</time>
      </trkpt>
      <trkpt lat="44.09519" lon="7.07391">
        <ele>1259</ele>
        <time>2022-07-26T13:44:14Z</time>
      </trkpt>
      <trkpt lat="44.09519" lon="7.07391">
        <ele>1259</ele>
        <time>2022-07-26T13:44:15Z</time>
      </trkpt>
      <trkpt lat="44.09519" lon="7.07392">
        <ele>1259</ele>
        <time>2022-07-26T13:44:16Z</time>
      </trkpt>
      <trkpt lat="44.09519" lon="7.07393">
        <ele>1260</ele>
        <time>2022-07-26T13:44:17Z</time>
      </trkpt>
      <trkpt lat="44.09519" lon="7.07394">
        <ele>1260</ele>
        <time>2022-07-26T13:44:18Z</time>
      </trkpt>
      <trkpt lat="44.09519" lon="7.07395">
        <ele>1260</ele>
        <time>2022-07-26T13:44:19Z</time>
      </trkpt>
      <trkpt lat="44.09519" lon="7.07395">
        <ele>1260</ele>
        <time>2022-07-26T13:44:20Z</time>
      </trkpt>
      <trkpt lat="44.09519" lon="7.07396">
        <ele>1260</ele>
        <time>2022-07-26T13:44:21Z</time>
      </trkpt>
      <trkpt lat="44.09519" lon="7.07397">
        <ele>1260</ele>
        <time>2022-07-26T13:44:22Z</time>
      </trkpt>
      <trkpt lat="44.09518" lon="7.07399">
        <ele>1260</ele>
        <time>2022-07-26T13:44:23Z</time>
      </trkpt>
      <trkpt lat="44.09518" lon="7.074">
        <ele>1260</ele>
        <time>2022-07-26T13:44:24Z</time>
      </trkpt>
      <trkpt lat="44.09518" lon="7.07401">
        <ele>1260</ele>
        <time>2022-07-26T13:44:25Z</time>
      </trkpt>
      <trkpt lat="44.09517" lon="7.07402">
        <ele>1260</ele>
        <time>2022-07-26T13:44:26Z</time>
      </trkpt>
      <trkpt lat="44.09517" lon="7.07403">
        <ele>1260</ele>
        <time>2022-07-26T13:44:27Z</time>
      </trkpt>
      <trkpt lat="44.09517" lon="7.07405">
        <ele>1260</ele>
        <time>2022-07-26T13:44:28Z</time>
      </trkpt>
      <trkpt lat="44.09516" lon="7.07406">
        <ele>1260</ele>
        <time>2022-07-26T13:44:29Z</time>
      </trkpt>
      <trkpt lat="44.09516" lon="7.07407">
        <ele>1260</ele>
        <time>2022-07-26T13:44:30Z</time>
      </trkpt>
      <trkpt lat="44.09516" lon="7.07409">
        <ele>1260</ele>
        <time>2022-07-26T13:44:31Z</time>
      </trkpt>
      <trkpt lat="44.09515" lon="7.0741">
        <ele>1261</ele>
        <time>2022-07-26T13:44:32Z</time>
      </trkpt>
      <trkpt lat="44.09515" lon="7.07411">
        <ele>1261</ele>
        <time>2022-07-26T13:44:33Z</time>
      </trkpt>
      <trkpt lat="44.09515" lon="7.07413">
        <ele>1261</ele>
        <time>2022-07-26T13:44:34Z</time>
      </trkpt>
      <trkpt lat="44.09515" lon="7.07414">
        <ele>1261</ele>
        <time>2022-07-26T13:44:35Z</time>
      </trkpt>
      <trkpt lat="44.09515" lon="7.07415">
        <ele>1261</ele>
        <time>2022-07-26T13:44:36Z</time>
      </trkpt>
      <trkpt lat="44.09515" lon="7.07416">
        <ele>1261</ele>
        <time>2022-07-26T13:44:37Z</time>
      </trkpt>
      <trkpt lat="44.09515" lon="7.07417">
        <ele>1261</ele>
        <time>2022-07-26T13:44:38Z</time>
      </trkpt>
      <trkpt lat="44.09516" lon="7.07417">
        <ele>1261</ele>
        <time>2022-07-26T13:44:39Z</time>
      </trkpt>
      <trkpt lat="44.09516" lon="7.07418">
        <ele>1261</ele>
        <time>2022-07-26T13:44:40Z</time>
      </trkpt>
      <trkpt lat="44.09516" lon="7.07419">
        <ele>1261</ele>
        <time>2022-07-26T13:44:41Z</time>
      </trkpt>
      <trkpt lat="44.09516" lon="7.0742">
        <ele>1261</ele>
        <time>2022-07-26T13:44:42Z</time>
      </trkpt>
      <trkpt lat="44.09516" lon="7.07422">
        <ele>1260</ele>
        <time>2022-07-26T13:44:43Z</time>
      </trkpt>
      <trkpt lat="44.09516" lon="7.07423">
        <ele>1260</ele>
        <time>2022-07-26T13:44:44Z</time>
      </trkpt>
      <trkpt lat="44.09516" lon="7.07424">
        <ele>1260</ele>
        <time>2022-07-26T13:44:45Z</time>
      </trkpt>
      <trkpt lat="44.09516" lon="7.07425">
        <ele>1260</ele>
        <time>2022-07-26T13:44:46Z</time>
      </trkpt>
      <trkpt lat="44.09516" lon="7.07426">
        <ele>1260</ele>
        <time>2022-07-26T13:44:47Z</time>
      </trkpt>
      <trkpt lat="44.09515" lon="7.07427">
        <ele>1260</ele>
        <time>2022-07-26T13:44:48Z</time>
      </trkpt>
      <trkpt lat="44.09515" lon="7.07429">
        <ele>1260</ele>
        <time>2022-07-26T13:44:49Z</time>
      </trkpt>
      <trkpt lat="44.09515" lon="7.0743">
        <ele>1260</ele>
        <time>2022-07-26T13:44:50Z</time>
      </trkpt>
      <trkpt lat="44.09514" lon="7.07431">
        <ele>1260</ele>
        <time>2022-07-26T13:44:51Z</time>
      </trkpt>
      <trkpt lat="44.09514" lon="7.07432">
        <ele>1260</ele>
        <time>2022-07-26T13:44:52Z</time>
      </trkpt>
      <trkpt lat="44.09513" lon="7.07433">
        <ele>1260</ele>
        <time>2022-07-26T13:44:53Z</time>
      </trkpt>
      <trkpt lat="44.09513" lon="7.07435">
        <ele>1260</ele>
        <time>2022-07-26T13:44:54Z</time>
      </trkpt>
      <trkpt lat="44.09512" lon="7.07436">
        <ele>1260</ele>
        <time>2022-07-26T13:44:55Z</time>
      </trkpt>
      <trkpt lat="44.09512" lon="7.07437">
        <ele>1260</ele>
        <time>2022-07-26T13:44:56Z</time>
      </trkpt>
      <trkpt lat="44.09511" lon="7.07438">
        <ele>1260</ele>
        <time>2022-07-26T13:44:57Z</time>
      </trkpt>
      <trkpt lat="44.0951" lon="7.07439">
        <ele>1259</ele>
        <time>2022-07-26T13:44:58Z</time>
      </trkpt>
      <trkpt lat="44.0951" lon="7.0744">
        <ele>1259</ele>
        <time>2022-07-26T13:44:59Z</time>
      </trkpt>
      <trkpt lat="44.09509" lon="7.07442">
        <ele>1259</ele>
        <time>2022-07-26T13:45:00Z</time>
      </trkpt>
      <trkpt lat="44.09508" lon="7.07443">
        <ele>1259</ele>
        <time>2022-07-26T13:45:01Z</time>
      </trkpt>
      <trkpt lat="44.09508" lon="7.07444">
        <ele>1259</ele>
        <time>2022-07-26T13:45:02Z</time>
      </trkpt>
      <trkpt lat="44.09507" lon="7.07445">
        <ele>1258</ele>
        <time>2022-07-26T13:45:03Z</time>
      </trkpt>
      <trkpt lat="44.09507" lon="7.07447">
        <ele>1258</ele>
        <time>2022-07-26T13:45:04Z</time>
      </trkpt>
      <trkpt lat="44.09506" lon="7.07448">
        <ele>1258</ele>
        <time>2022-07-26T13:45:05Z</time>
      </trkpt>
      <trkpt lat="44.09506" lon="7.07449">
        <ele>1258</ele>
        <time>2022-07-26T13:45:06Z</time>
      </trkpt>
      <trkpt lat="44.09505" lon="7.0745">
        <ele>1258</ele>
        <time>2022-07-26T13:45:07Z</time>
      </trkpt>
      <trkpt lat="44.09505" lon="7.07452">
        <ele>1258</ele>
        <time>2022-07-26T13:45:08Z</time>
      </trkpt>
      <trkpt lat="44.09504" lon="7.07452">
        <ele>1258</ele>
        <time>2022-07-26T13:45:09Z</time>
      </trkpt>
      <trkpt lat="44.09504" lon="7.07453">
        <ele>1258</ele>
        <time>2022-07-26T13:45:10Z</time>
      </trkpt>
      <trkpt lat="44.09503" lon="7.07454">
        <ele>1258</ele>
        <time>2022-07-26T13:45:11Z</time>
      </trkpt>
      <trkpt lat="44.09502" lon="7.07455">
        <ele>1258</ele>
        <time>2022-07-26T13:45:12Z</time>
      </trkpt>
      <trkpt lat="44.09502" lon="7.07456">
        <ele>1257</ele>
        <time>2022-07-26T13:45:13Z</time>
      </trkpt>
      <trkpt lat="44.09501" lon="7.07456">
        <ele>1257</ele>
        <time>2022-07-26T13:45:14Z</time>
      </trkpt>
      <trkpt lat="44.09501" lon="7.07457">
        <ele>1257</ele>
        <time>2022-07-26T13:45:15Z</time>
      </trkpt>
      <trkpt lat="44.095" lon="7.07458">
        <ele>1257</ele>
        <time>2022-07-26T13:45:16Z</time>
      </trkpt>
      <trkpt lat="44.095" lon="7.07459">
        <ele>1257</ele>
        <time>2022-07-26T13:45:17Z</time>
      </trkpt>
      <trkpt lat="44.09499" lon="7.0746">
        <ele>1257</ele>
        <time>2022-07-26T13:45:18Z</time>
      </trkpt>
      <trkpt lat="44.09499" lon="7.07461">
        <ele>1257</ele>
        <time>2022-07-26T13:45:19Z</time>
      </trkpt>
      <trkpt lat="44.09499" lon="7.07463">
        <ele>1257</ele>
        <time>2022-07-26T13:45:20Z</time>
      </trkpt>
      <trkpt lat="44.09499" lon="7.07464">
        <ele>1257</ele>
        <time>2022-07-26T13:45:21Z</time>
      </trkpt>
      <trkpt lat="44.09498" lon="7.07465">
        <ele>1257</ele>
        <time>2022-07-26T13:45:22Z</time>
      </trkpt>
      <trkpt lat="44.09498" lon="7.07466">
        <ele>1256</ele>
        <time>2022-07-26T13:45:23Z</time>
      </trkpt>
      <trkpt lat="44.09498" lon="7.07468">
        <ele>1256</ele>
        <time>2022-07-26T13:45:24Z</time>
      </trkpt>
      <trkpt lat="44.09497" lon="7.07469">
        <ele>1256</ele>
        <time>2022-07-26T13:45:25Z</time>
      </trkpt>
      <trkpt lat="44.09497" lon="7.07471">
        <ele>1256</ele>
        <time>2022-07-26T13:45:26Z</time>
      </trkpt>
      <trkpt lat="44.09496" lon="7.07473">
        <ele>1256</ele>
        <time>2022-07-26T13:45:27Z</time>
      </trkpt>
      <trkpt lat="44.09496" lon="7.07474">
        <ele>1256</ele>
        <time>2022-07-26T13:45:28Z</time>
      </trkpt>
      <trkpt lat="44.09495" lon="7.07476">
        <ele>1256</ele>
        <time>2022-07-26T13:45:29Z</time>
      </trkpt>
      <trkpt lat="44.09495" lon="7.07477">
        <ele>1256</ele>
        <time>2022-07-26T13:45:30Z</time>
      </trkpt>
      <trkpt lat="44.09494" lon="7.07479">
        <ele>1256</ele>
        <time>2022-07-26T13:45:31Z</time>
      </trkpt>
      <trkpt lat="44.09494" lon="7.0748">
        <ele>1256</ele>
        <time>2022-07-26T13:45:32Z</time>
      </trkpt>
      <trkpt lat="44.09494" lon="7.07482">
        <ele>1256</ele>
        <time>2022-07-26T13:45:33Z</time>
      </trkpt>
      <trkpt lat="44.09493" lon="7.07483">
        <ele>1256</ele>
        <time>2022-07-26T13:45:34Z</time>
      </trkpt>
      <trkpt lat="44.09493" lon="7.07485">
        <ele>1256</ele>
        <time>2022-07-26T13:45:35Z</time>
      </trkpt>
      <trkpt lat="44.09493" lon="7.07486">
        <ele>1256</ele>
        <time>2022-07-26T13:45:36Z</time>
      </trkpt>
      <trkpt lat="44.09493" lon="7.07488">
        <ele>1256</ele>
        <time>2022-07-26T13:45:37Z</time>
      </trkpt>
      <trkpt lat="44.09493" lon="7.0749">
        <ele>1255</ele>
        <time>2022-07-26T13:45:38Z</time>
      </trkpt>
      <trkpt lat="44.09492" lon="7.07491">
        <ele>1255</ele>
        <time>2022-07-26T13:45:39Z</time>
      </trkpt>
      <trkpt lat="44.09492" lon="7.07493">
        <ele>1255</ele>
        <time>2022-07-26T13:45:40Z</time>
      </trkpt>
      <trkpt lat="44.09492" lon="7.07495">
        <ele>1255</ele>
        <time>2022-07-26T13:45:41Z</time>
      </trkpt>
      <trkpt lat="44.09491" lon="7.07496">
        <ele>1255</ele>
        <time>2022-07-26T13:45:42Z</time>
      </trkpt>
      <trkpt lat="44.0949" lon="7.07498">
        <ele>1255</ele>
        <time>2022-07-26T13:45:43Z</time>
      </trkpt>
      <trkpt lat="44.0949" lon="7.07499">
        <ele>1255</ele>
        <time>2022-07-26T13:45:44Z</time>
      </trkpt>
      <trkpt lat="44.09489" lon="7.07501">
        <ele>1255</ele>
        <time>2022-07-26T13:45:45Z</time>
      </trkpt>
      <trkpt lat="44.09489" lon="7.07502">
        <ele>1255</ele>
        <time>2022-07-26T13:45:46Z</time>
      </trkpt>
      <trkpt lat="44.09488" lon="7.07503">
        <ele>1255</ele>
        <time>2022-07-26T13:45:47Z</time>
      </trkpt>
      <trkpt lat="44.09488" lon="7.07504">
        <ele>1255</ele>
        <time>2022-07-26T13:45:48Z</time>
      </trkpt>
      <trkpt lat="44.09487" lon="7.07506">
        <ele>1255</ele>
        <time>2022-07-26T13:45:49Z</time>
      </trkpt>
      <trkpt lat="44.09487" lon="7.07507">
        <ele>1255</ele>
        <time>2022-07-26T13:45:50Z</time>
      </trkpt>
      <trkpt lat="44.09486" lon="7.07508">
        <ele>1255</ele>
        <time>2022-07-26T13:45:51Z</time>
      </trkpt>
      <trkpt lat="44.09486" lon="7.07509">
        <ele>1255</ele>
        <time>2022-07-26T13:45:52Z</time>
      </trkpt>
      <trkpt lat="44.09485" lon="7.0751">
        <ele>1254</ele>
        <time>2022-07-26T13:45:53Z</time>
      </trkpt>
      <trkpt lat="44.09484" lon="7.0751">
        <ele>1254</ele>
        <time>2022-07-26T13:45:54Z</time>
      </trkpt>
      <trkpt lat="44.09483" lon="7.07511">
        <ele>1254</ele>
        <time>2022-07-26T13:45:55Z</time>
      </trkpt>
      <trkpt lat="44.09482" lon="7.07512">
        <ele>1254</ele>
        <time>2022-07-26T13:45:56Z</time>
      </trkpt>
      <trkpt lat="44.09482" lon="7.07513">
        <ele>1254</ele>
        <time>2022-07-26T13:45:57Z</time>
      </trkpt>
      <trkpt lat="44.09481" lon="7.07513">
        <ele>1254</ele>
        <time>2022-07-26T13:45:58Z</time>
      </trkpt>
      <trkpt lat="44.0948" lon="7.07514">
        <ele>1254</ele>
        <time>2022-07-26T13:45:59Z</time>
      </trkpt>
      <trkpt lat="44.09479" lon="7.07514">
        <ele>1254</ele>
        <time>2022-07-26T13:46:00Z</time>
      </trkpt>
      <trkpt lat="44.09478" lon="7.07514">
        <ele>1254</ele>
        <time>2022-07-26T13:46:01Z</time>
      </trkpt>
      <trkpt lat="44.09477" lon="7.07515">
        <ele>1254</ele>
        <time>2022-07-26T13:46:02Z</time>
      </trkpt>
      <trkpt lat="44.09476" lon="7.07515">
        <ele>1253</ele>
        <time>2022-07-26T13:46:03Z</time>
      </trkpt>
      <trkpt lat="44.09475" lon="7.07515">
        <ele>1253</ele>
        <time>2022-07-26T13:46:04Z</time>
      </trkpt>
      <trkpt lat="44.09474" lon="7.07516">
        <ele>1253</ele>
        <time>2022-07-26T13:46:05Z</time>
      </trkpt>
      <trkpt lat="44.09473" lon="7.07516">
        <ele>1253</ele>
        <time>2022-07-26T13:46:06Z</time>
      </trkpt>
      <trkpt lat="44.09472" lon="7.07516">
        <ele>1253</ele>
        <time>2022-07-26T13:46:07Z</time>
      </trkpt>
      <trkpt lat="44.09472" lon="7.07516">
        <ele>1252</ele>
        <time>2022-07-26T13:46:08Z</time>
      </trkpt>
      <trkpt lat="44.09471" lon="7.07516">
        <ele>1252</ele>
        <time>2022-07-26T13:46:09Z</time>
      </trkpt>
      <trkpt lat="44.0947" lon="7.07517">
        <ele>1252</ele>
        <time>2022-07-26T13:46:10Z</time>
      </trkpt>
      <trkpt lat="44.09469" lon="7.07517">
        <ele>1252</ele>
        <time>2022-07-26T13:46:11Z</time>
      </trkpt>
      <trkpt lat="44.09468" lon="7.07517">
        <ele>1252</ele>
        <time>2022-07-26T13:46:12Z</time>
      </trkpt>
      <trkpt lat="44.09468" lon="7.07518">
        <ele>1252</ele>
        <time>2022-07-26T13:46:13Z</time>
      </trkpt>
      <trkpt lat="44.09467" lon="7.07518">
        <ele>1252</ele>
        <time>2022-07-26T13:46:14Z</time>
      </trkpt>
      <trkpt lat="44.09466" lon="7.07519">
        <ele>1252</ele>
        <time>2022-07-26T13:46:15Z</time>
      </trkpt>
      <trkpt lat="44.09465" lon="7.0752">
        <ele>1252</ele>
        <time>2022-07-26T13:46:16Z</time>
      </trkpt>
      <trkpt lat="44.09464" lon="7.0752">
        <ele>1252</ele>
        <time>2022-07-26T13:46:17Z</time>
      </trkpt>
      <trkpt lat="44.09464" lon="7.07521">
        <ele>1251</ele>
        <time>2022-07-26T13:46:18Z</time>
      </trkpt>
      <trkpt lat="44.09463" lon="7.07522">
        <ele>1251</ele>
        <time>2022-07-26T13:46:19Z</time>
      </trkpt>
      <trkpt lat="44.09462" lon="7.07522">
        <ele>1251</ele>
        <time>2022-07-26T13:46:20Z</time>
      </trkpt>
      <trkpt lat="44.09462" lon="7.07523">
        <ele>1251</ele>
        <time>2022-07-26T13:46:21Z</time>
      </trkpt>
      <trkpt lat="44.09461" lon="7.07524">
        <ele>1251</ele>
        <time>2022-07-26T13:46:22Z</time>
      </trkpt>
      <trkpt lat="44.09461" lon="7.07525">
        <ele>1250</ele>
        <time>2022-07-26T13:46:23Z</time>
      </trkpt>
      <trkpt lat="44.0946" lon="7.07525">
        <ele>1250</ele>
        <time>2022-07-26T13:46:24Z</time>
      </trkpt>
      <trkpt lat="44.09459" lon="7.07525">
        <ele>1250</ele>
        <time>2022-07-26T13:46:25Z</time>
      </trkpt>
      <trkpt lat="44.09459" lon="7.07526">
        <ele>1250</ele>
        <time>2022-07-26T13:46:26Z</time>
      </trkpt>
      <trkpt lat="44.09458" lon="7.07526">
        <ele>1250</ele>
        <time>2022-07-26T13:46:27Z</time>
      </trkpt>
      <trkpt lat="44.09456" lon="7.07527">
        <ele>1246</ele>
        <time>2022-07-26T13:46:45Z</time>
      </trkpt>
      <trkpt lat="44.09454" lon="7.07528">
        <ele>1246</ele>
        <time>2022-07-26T13:46:46Z</time>
      </trkpt>
      <trkpt lat="44.09453" lon="7.07529">
        <ele>1246</ele>
        <time>2022-07-26T13:46:47Z</time>
      </trkpt>
      <trkpt lat="44.09452" lon="7.07529">
        <ele>1245</ele>
        <time>2022-07-26T13:46:48Z</time>
      </trkpt>
      <trkpt lat="44.09451" lon="7.0753">
        <ele>1245</ele>
        <time>2022-07-26T13:46:49Z</time>
      </trkpt>
      <trkpt lat="44.09451" lon="7.0753">
        <ele>1245</ele>
        <time>2022-07-26T13:46:50Z</time>
      </trkpt>
      <trkpt lat="44.0945" lon="7.0753">
        <ele>1245</ele>
        <time>2022-07-26T13:46:51Z</time>
      </trkpt>
      <trkpt lat="44.0945" lon="7.07531">
        <ele>1245</ele>
        <time>2022-07-26T13:46:52Z</time>
      </trkpt>
      <trkpt lat="44.0945" lon="7.07531">
        <ele>1245</ele>
        <time>2022-07-26T13:46:53Z</time>
      </trkpt>
      <trkpt lat="44.09449" lon="7.07531">
        <ele>1245</ele>
        <time>2022-07-26T13:46:54Z</time>
      </trkpt>
      <trkpt lat="44.09449" lon="7.07531">
        <ele>1245</ele>
        <time>2022-07-26T13:46:55Z</time>
      </trkpt>
      <trkpt lat="44.09448" lon="7.07532">
        <ele>1245</ele>
        <time>2022-07-26T13:46:56Z</time>
      </trkpt>
      <trkpt lat="44.09447" lon="7.07532">
        <ele>1245</ele>
        <time>2022-07-26T13:46:57Z</time>
      </trkpt>
      <trkpt lat="44.09447" lon="7.07532">
        <ele>1244</ele>
        <time>2022-07-26T13:46:58Z</time>
      </trkpt>
      <trkpt lat="44.09446" lon="7.07533">
        <ele>1244</ele>
        <time>2022-07-26T13:46:59Z</time>
      </trkpt>
      <trkpt lat="44.09444" lon="7.07535">
        <ele>1241</ele>
        <time>2022-07-26T13:47:38Z</time>
      </trkpt>
      <trkpt lat="44.09443" lon="7.07536">
        <ele>1241</ele>
        <time>2022-07-26T13:47:39Z</time>
      </trkpt>
      <trkpt lat="44.09441" lon="7.07538">
        <ele>1241</ele>
        <time>2022-07-26T13:47:40Z</time>
      </trkpt>
      <trkpt lat="44.0944" lon="7.07538">
        <ele>1241</ele>
        <time>2022-07-26T13:47:41Z</time>
      </trkpt>
      <trkpt lat="44.09439" lon="7.07539">
        <ele>1241</ele>
        <time>2022-07-26T13:47:42Z</time>
      </trkpt>
      <trkpt lat="44.09439" lon="7.07539">
        <ele>1240</ele>
        <time>2022-07-26T13:47:43Z</time>
      </trkpt>
      <trkpt lat="44.09438" lon="7.07539">
        <ele>1240</ele>
        <time>2022-07-26T13:47:44Z</time>
      </trkpt>
      <trkpt lat="44.09438" lon="7.0754">
        <ele>1240</ele>
        <time>2022-07-26T13:47:45Z</time>
      </trkpt>
      <trkpt lat="44.09437" lon="7.0754">
        <ele>1240</ele>
        <time>2022-07-26T13:47:46Z</time>
      </trkpt>
      <trkpt lat="44.09436" lon="7.07541">
        <ele>1240</ele>
        <time>2022-07-26T13:47:47Z</time>
      </trkpt>
      <trkpt lat="44.09435" lon="7.07541">
        <ele>1240</ele>
        <time>2022-07-26T13:47:48Z</time>
      </trkpt>
      <trkpt lat="44.09435" lon="7.07542">
        <ele>1240</ele>
        <time>2022-07-26T13:47:49Z</time>
      </trkpt>
      <trkpt lat="44.09434" lon="7.07542">
        <ele>1240</ele>
        <time>2022-07-26T13:47:50Z</time>
      </trkpt>
      <trkpt lat="44.09433" lon="7.07543">
        <ele>1240</ele>
        <time>2022-07-26T13:47:51Z</time>
      </trkpt>
      <trkpt lat="44.09433" lon="7.07544">
        <ele>1240</ele>
        <time>2022-07-26T13:47:52Z</time>
      </trkpt>
      <trkpt lat="44.09432" lon="7.07544">
        <ele>1239</ele>
        <time>2022-07-26T13:47:53Z</time>
      </trkpt>
      <trkpt lat="44.09432" lon="7.07545">
        <ele>1239</ele>
        <time>2022-07-26T13:47:54Z</time>
      </trkpt>
      <trkpt lat="44.09431" lon="7.07546">
        <ele>1239</ele>
        <time>2022-07-26T13:47:55Z</time>
      </trkpt>
      <trkpt lat="44.0943" lon="7.07547">
        <ele>1239</ele>
        <time>2022-07-26T13:47:56Z</time>
      </trkpt>
      <trkpt lat="44.0943" lon="7.07548">
        <ele>1239</ele>
        <time>2022-07-26T13:47:57Z</time>
      </trkpt>
      <trkpt lat="44.09429" lon="7.07549">
        <ele>1238</ele>
        <time>2022-07-26T13:47:58Z</time>
      </trkpt>
      <trkpt lat="44.09429" lon="7.07549">
        <ele>1238</ele>
        <time>2022-07-26T13:47:59Z</time>
      </trkpt>
      <trkpt lat="44.09429" lon="7.0755">
        <ele>1238</ele>
        <time>2022-07-26T13:48:00Z</time>
      </trkpt>
      <trkpt lat="44.0943" lon="7.07551">
        <ele>1238</ele>
        <time>2022-07-26T13:48:01Z</time>
      </trkpt>
      <trkpt lat="44.0943" lon="7.07552">
        <ele>1238</ele>
        <time>2022-07-26T13:48:02Z</time>
      </trkpt>
      <trkpt lat="44.0943" lon="7.07553">
        <ele>1237</ele>
        <time>2022-07-26T13:48:03Z</time>
      </trkpt>
      <trkpt lat="44.09431" lon="7.07554">
        <ele>1237</ele>
        <time>2022-07-26T13:48:04Z</time>
      </trkpt>
      <trkpt lat="44.09432" lon="7.07555">
        <ele>1237</ele>
        <time>2022-07-26T13:48:05Z</time>
      </trkpt>
      <trkpt lat="44.09433" lon="7.07556">
        <ele>1237</ele>
        <time>2022-07-26T13:48:06Z</time>
      </trkpt>
      <trkpt lat="44.09433" lon="7.07557">
        <ele>1237</ele>
        <time>2022-07-26T13:48:07Z</time>
      </trkpt>
      <trkpt lat="44.09434" lon="7.07558">
        <ele>1236</ele>
        <time>2022-07-26T13:48:08Z</time>
      </trkpt>
      <trkpt lat="44.09435" lon="7.07559">
        <ele>1236</ele>
        <time>2022-07-26T13:48:09Z</time>
      </trkpt>
      <trkpt lat="44.09436" lon="7.0756">
        <ele>1236</ele>
        <time>2022-07-26T13:48:10Z</time>
      </trkpt>
      <trkpt lat="44.09436" lon="7.07561">
        <ele>1236</ele>
        <time>2022-07-26T13:48:11Z</time>
      </trkpt>
      <trkpt lat="44.09437" lon="7.07563">
        <ele>1236</ele>
        <time>2022-07-26T13:48:12Z</time>
      </trkpt>
      <trkpt lat="44.09437" lon="7.07564">
        <ele>1236</ele>
        <time>2022-07-26T13:48:13Z</time>
      </trkpt>
      <trkpt lat="44.09438" lon="7.07565">
        <ele>1236</ele>
        <time>2022-07-26T13:48:14Z</time>
      </trkpt>
      <trkpt lat="44.09438" lon="7.07565">
        <ele>1236</ele>
        <time>2022-07-26T13:48:15Z</time>
      </trkpt>
      <trkpt lat="44.09439" lon="7.07566">
        <ele>1236</ele>
        <time>2022-07-26T13:48:16Z</time>
      </trkpt>
      <trkpt lat="44.09439" lon="7.07567">
        <ele>1236</ele>
        <time>2022-07-26T13:48:17Z</time>
      </trkpt>
      <trkpt lat="44.0944" lon="7.07568">
        <ele>1235</ele>
        <time>2022-07-26T13:48:18Z</time>
      </trkpt>
      <trkpt lat="44.0944" lon="7.07569">
        <ele>1235</ele>
        <time>2022-07-26T13:48:19Z</time>
      </trkpt>
      <trkpt lat="44.0944" lon="7.0757">
        <ele>1235</ele>
        <time>2022-07-26T13:48:20Z</time>
      </trkpt>
      <trkpt lat="44.0944" lon="7.07571">
        <ele>1235</ele>
        <time>2022-07-26T13:48:21Z</time>
      </trkpt>
      <trkpt lat="44.0944" lon="7.07572">
        <ele>1235</ele>
        <time>2022-07-26T13:48:22Z</time>
      </trkpt>
      <trkpt lat="44.0944" lon="7.07573">
        <ele>1234</ele>
        <time>2022-07-26T13:48:23Z</time>
      </trkpt>
      <trkpt lat="44.0944" lon="7.07574">
        <ele>1234</ele>
        <time>2022-07-26T13:48:24Z</time>
      </trkpt>
      <trkpt lat="44.0944" lon="7.07576">
        <ele>1234</ele>
        <time>2022-07-26T13:48:25Z</time>
      </trkpt>
      <trkpt lat="44.0944" lon="7.07577">
        <ele>1234</ele>
        <time>2022-07-26T13:48:26Z</time>
      </trkpt>
      <trkpt lat="44.09439" lon="7.07578">
        <ele>1234</ele>
        <time>2022-07-26T13:48:27Z</time>
      </trkpt>
      <trkpt lat="44.09439" lon="7.0758">
        <ele>1233</ele>
        <time>2022-07-26T13:48:28Z</time>
      </trkpt>
      <trkpt lat="44.09439" lon="7.07581">
        <ele>1233</ele>
        <time>2022-07-26T13:48:29Z</time>
      </trkpt>
      <trkpt lat="44.09439" lon="7.07583">
        <ele>1233</ele>
        <time>2022-07-26T13:48:30Z</time>
      </trkpt>
      <trkpt lat="44.09439" lon="7.07584">
        <ele>1233</ele>
        <time>2022-07-26T13:48:31Z</time>
      </trkpt>
      <trkpt lat="44.09439" lon="7.07586">
        <ele>1233</ele>
        <time>2022-07-26T13:48:32Z</time>
      </trkpt>
      <trkpt lat="44.09439" lon="7.07587">
        <ele>1232</ele>
        <time>2022-07-26T13:48:33Z</time>
      </trkpt>
      <trkpt lat="44.09439" lon="7.07589">
        <ele>1232</ele>
        <time>2022-07-26T13:48:34Z</time>
      </trkpt>
      <trkpt lat="44.0944" lon="7.0759">
        <ele>1232</ele>
        <time>2022-07-26T13:48:35Z</time>
      </trkpt>
      <trkpt lat="44.0944" lon="7.07592">
        <ele>1232</ele>
        <time>2022-07-26T13:48:36Z</time>
      </trkpt>
      <trkpt lat="44.0944" lon="7.07593">
        <ele>1232</ele>
        <time>2022-07-26T13:48:37Z</time>
      </trkpt>
      <trkpt lat="44.0944" lon="7.07595">
        <ele>1231</ele>
        <time>2022-07-26T13:48:38Z</time>
      </trkpt>
      <trkpt lat="44.09441" lon="7.07596">
        <ele>1231</ele>
        <time>2022-07-26T13:48:39Z</time>
      </trkpt>
      <trkpt lat="44.09441" lon="7.07598">
        <ele>1230</ele>
        <time>2022-07-26T13:48:40Z</time>
      </trkpt>
      <trkpt lat="44.09441" lon="7.07599">
        <ele>1230</ele>
        <time>2022-07-26T13:48:41Z</time>
      </trkpt>
      <trkpt lat="44.09441" lon="7.07601">
        <ele>1230</ele>
        <time>2022-07-26T13:48:42Z</time>
      </trkpt>
      <trkpt lat="44.09442" lon="7.07602">
        <ele>1229</ele>
        <time>2022-07-26T13:48:43Z</time>
      </trkpt>
      <trkpt lat="44.09442" lon="7.07604">
        <ele>1229</ele>
        <time>2022-07-26T13:48:44Z</time>
      </trkpt>
      <trkpt lat="44.09443" lon="7.07605">
        <ele>1229</ele>
        <time>2022-07-26T13:48:45Z</time>
      </trkpt>
      <trkpt lat="44.09443" lon="7.07607">
        <ele>1229</ele>
        <time>2022-07-26T13:48:46Z</time>
      </trkpt>
      <trkpt lat="44.09443" lon="7.07608">
        <ele>1229</ele>
        <time>2022-07-26T13:48:47Z</time>
      </trkpt>
      <trkpt lat="44.09443" lon="7.0761">
        <ele>1228</ele>
        <time>2022-07-26T13:48:48Z</time>
      </trkpt>
      <trkpt lat="44.09443" lon="7.07612">
        <ele>1228</ele>
        <time>2022-07-26T13:48:49Z</time>
      </trkpt>
      <trkpt lat="44.09443" lon="7.07613">
        <ele>1228</ele>
        <time>2022-07-26T13:48:50Z</time>
      </trkpt>
      <trkpt lat="44.09443" lon="7.07615">
        <ele>1228</ele>
        <time>2022-07-26T13:48:51Z</time>
      </trkpt>
      <trkpt lat="44.09443" lon="7.07616">
        <ele>1228</ele>
        <time>2022-07-26T13:48:52Z</time>
      </trkpt>
      <trkpt lat="44.09443" lon="7.07618">
        <ele>1227</ele>
        <time>2022-07-26T13:48:53Z</time>
      </trkpt>
      <trkpt lat="44.09443" lon="7.07619">
        <ele>1227</ele>
        <time>2022-07-26T13:48:54Z</time>
      </trkpt>
      <trkpt lat="44.09443" lon="7.07621">
        <ele>1227</ele>
        <time>2022-07-26T13:48:55Z</time>
      </trkpt>
      <trkpt lat="44.09442" lon="7.07623">
        <ele>1227</ele>
        <time>2022-07-26T13:48:56Z</time>
      </trkpt>
      <trkpt lat="44.09442" lon="7.07624">
        <ele>1227</ele>
        <time>2022-07-26T13:48:57Z</time>
      </trkpt>
      <trkpt lat="44.09442" lon="7.07626">
        <ele>1226</ele>
        <time>2022-07-26T13:48:58Z</time>
      </trkpt>
      <trkpt lat="44.09441" lon="7.07627">
        <ele>1226</ele>
        <time>2022-07-26T13:48:59Z</time>
      </trkpt>
      <trkpt lat="44.09441" lon="7.07628">
        <ele>1226</ele>
        <time>2022-07-26T13:49:00Z</time>
      </trkpt>
      <trkpt lat="44.09441" lon="7.0763">
        <ele>1226</ele>
        <time>2022-07-26T13:49:01Z</time>
      </trkpt>
      <trkpt lat="44.09441" lon="7.07631">
        <ele>1226</ele>
        <time>2022-07-26T13:49:02Z</time>
      </trkpt>
      <trkpt lat="44.0944" lon="7.07633">
        <ele>1226</ele>
        <time>2022-07-26T13:49:03Z</time>
      </trkpt>
      <trkpt lat="44.0944" lon="7.07634">
        <ele>1226</ele>
        <time>2022-07-26T13:49:04Z</time>
      </trkpt>
      <trkpt lat="44.0944" lon="7.07636">
        <ele>1226</ele>
        <time>2022-07-26T13:49:05Z</time>
      </trkpt>
      <trkpt lat="44.09439" lon="7.07638">
        <ele>1226</ele>
        <time>2022-07-26T13:49:06Z</time>
      </trkpt>
      <trkpt lat="44.09439" lon="7.07639">
        <ele>1226</ele>
        <time>2022-07-26T13:49:07Z</time>
      </trkpt>
      <trkpt lat="44.09439" lon="7.07641">
        <ele>1225</ele>
        <time>2022-07-26T13:49:08Z</time>
      </trkpt>
      <trkpt lat="44.09439" lon="7.07643">
        <ele>1225</ele>
        <time>2022-07-26T13:49:09Z</time>
      </trkpt>
      <trkpt lat="44.09439" lon="7.07644">
        <ele>1225</ele>
        <time>2022-07-26T13:49:10Z</time>
      </trkpt>
      <trkpt lat="44.09439" lon="7.07646">
        <ele>1225</ele>
        <time>2022-07-26T13:49:11Z</time>
      </trkpt>
      <trkpt lat="44.09439" lon="7.07647">
        <ele>1225</ele>
        <time>2022-07-26T13:49:12Z</time>
      </trkpt>
      <trkpt lat="44.09439" lon="7.07649">
        <ele>1224</ele>
        <time>2022-07-26T13:49:13Z</time>
      </trkpt>
      <trkpt lat="44.0944" lon="7.0765">
        <ele>1224</ele>
        <time>2022-07-26T13:49:14Z</time>
      </trkpt>
      <trkpt lat="44.0944" lon="7.07651">
        <ele>1224</ele>
        <time>2022-07-26T13:49:15Z</time>
      </trkpt>
      <trkpt lat="44.0944" lon="7.07652">
        <ele>1224</ele>
        <time>2022-07-26T13:49:16Z</time>
      </trkpt>
      <trkpt lat="44.0944" lon="7.07653">
        <ele>1224</ele>
        <time>2022-07-26T13:49:17Z</time>
      </trkpt>
      <trkpt lat="44.09441" lon="7.07654">
        <ele>1223</ele>
        <time>2022-07-26T13:49:18Z</time>
      </trkpt>
      <trkpt lat="44.09441" lon="7.07655">
        <ele>1223</ele>
        <time>2022-07-26T13:49:19Z</time>
      </trkpt>
      <trkpt lat="44.09441" lon="7.07656">
        <ele>1223</ele>
        <time>2022-07-26T13:49:20Z</time>
      </trkpt>
      <trkpt lat="44.0944" lon="7.07657">
        <ele>1223</ele>
        <time>2022-07-26T13:49:21Z</time>
      </trkpt>
      <trkpt lat="44.09441" lon="7.07658">
        <ele>1223</ele>
        <time>2022-07-26T13:49:22Z</time>
      </trkpt>
      <trkpt lat="44.09441" lon="7.07659">
        <ele>1223</ele>
        <time>2022-07-26T13:49:23Z</time>
      </trkpt>
      <trkpt lat="44.09441" lon="7.0766">
        <ele>1223</ele>
        <time>2022-07-26T13:49:24Z</time>
      </trkpt>
      <trkpt lat="44.09441" lon="7.07661">
        <ele>1223</ele>
        <time>2022-07-26T13:49:25Z</time>
      </trkpt>
      <trkpt lat="44.09442" lon="7.07663">
        <ele>1223</ele>
        <time>2022-07-26T13:49:26Z</time>
      </trkpt>
      <trkpt lat="44.09442" lon="7.07664">
        <ele>1223</ele>
        <time>2022-07-26T13:49:27Z</time>
      </trkpt>
      <trkpt lat="44.09442" lon="7.07665">
        <ele>1222</ele>
        <time>2022-07-26T13:49:28Z</time>
      </trkpt>
      <trkpt lat="44.09442" lon="7.07666">
        <ele>1222</ele>
        <time>2022-07-26T13:49:29Z</time>
      </trkpt>
      <trkpt lat="44.09443" lon="7.07667">
        <ele>1222</ele>
        <time>2022-07-26T13:49:30Z</time>
      </trkpt>
      <trkpt lat="44.09443" lon="7.07668">
        <ele>1222</ele>
        <time>2022-07-26T13:49:31Z</time>
      </trkpt>
      <trkpt lat="44.09443" lon="7.0767">
        <ele>1222</ele>
        <time>2022-07-26T13:49:32Z</time>
      </trkpt>
      <trkpt lat="44.09444" lon="7.07671">
        <ele>1221</ele>
        <time>2022-07-26T13:49:33Z</time>
      </trkpt>
      <trkpt lat="44.09444" lon="7.07673">
        <ele>1221</ele>
        <time>2022-07-26T13:49:34Z</time>
      </trkpt>
      <trkpt lat="44.09444" lon="7.07674">
        <ele>1221</ele>
        <time>2022-07-26T13:49:35Z</time>
      </trkpt>
      <trkpt lat="44.09444" lon="7.07676">
        <ele>1221</ele>
        <time>2022-07-26T13:49:36Z</time>
      </trkpt>
      <trkpt lat="44.09444" lon="7.07677">
        <ele>1221</ele>
        <time>2022-07-26T13:49:37Z</time>
      </trkpt>
      <trkpt lat="44.09443" lon="7.07679">
        <ele>1221</ele>
        <time>2022-07-26T13:49:38Z</time>
      </trkpt>
      <trkpt lat="44.09443" lon="7.0768">
        <ele>1221</ele>
        <time>2022-07-26T13:49:39Z</time>
      </trkpt>
      <trkpt lat="44.09442" lon="7.07681">
        <ele>1221</ele>
        <time>2022-07-26T13:49:40Z</time>
      </trkpt>
      <trkpt lat="44.09441" lon="7.07682">
        <ele>1221</ele>
        <time>2022-07-26T13:49:41Z</time>
      </trkpt>
      <trkpt lat="44.09441" lon="7.07683">
        <ele>1221</ele>
        <time>2022-07-26T13:49:42Z</time>
      </trkpt>
      <trkpt lat="44.0944" lon="7.07684">
        <ele>1220</ele>
        <time>2022-07-26T13:49:43Z</time>
      </trkpt>
      <trkpt lat="44.09439" lon="7.07685">
        <ele>1220</ele>
        <time>2022-07-26T13:49:44Z</time>
      </trkpt>
      <trkpt lat="44.09438" lon="7.07685">
        <ele>1220</ele>
        <time>2022-07-26T13:49:45Z</time>
      </trkpt>
      <trkpt lat="44.09437" lon="7.07686">
        <ele>1220</ele>
        <time>2022-07-26T13:49:46Z</time>
      </trkpt>
      <trkpt lat="44.09436" lon="7.07686">
        <ele>1220</ele>
        <time>2022-07-26T13:49:47Z</time>
      </trkpt>
      <trkpt lat="44.09435" lon="7.07686">
        <ele>1220</ele>
        <time>2022-07-26T13:49:48Z</time>
      </trkpt>
      <trkpt lat="44.09434" lon="7.07687">
        <ele>1220</ele>
        <time>2022-07-26T13:49:49Z</time>
      </trkpt>
      <trkpt lat="44.09433" lon="7.07687">
        <ele>1220</ele>
        <time>2022-07-26T13:49:50Z</time>
      </trkpt>
      <trkpt lat="44.09432" lon="7.07687">
        <ele>1220</ele>
        <time>2022-07-26T13:49:51Z</time>
      </trkpt>
      <trkpt lat="44.09431" lon="7.07687">
        <ele>1220</ele>
        <time>2022-07-26T13:49:52Z</time>
      </trkpt>
      <trkpt lat="44.0943" lon="7.07687">
        <ele>1220</ele>
        <time>2022-07-26T13:49:53Z</time>
      </trkpt>
      <trkpt lat="44.0943" lon="7.07686">
        <ele>1220</ele>
        <time>2022-07-26T13:49:54Z</time>
      </trkpt>
      <trkpt lat="44.09426" lon="7.07683">
        <ele>1219</ele>
        <time>2022-07-26T13:51:10Z</time>
      </trkpt>
      <trkpt lat="44.09424" lon="7.07681">
        <ele>1219</ele>
        <time>2022-07-26T13:51:11Z</time>
      </trkpt>
      <trkpt lat="44.09422" lon="7.07679">
        <ele>1219</ele>
        <time>2022-07-26T13:51:12Z</time>
      </trkpt>
      <trkpt lat="44.09421" lon="7.07679">
        <ele>1219</ele>
        <time>2022-07-26T13:51:13Z</time>
      </trkpt>
      <trkpt lat="44.0942" lon="7.07678">
        <ele>1219</ele>
        <time>2022-07-26T13:51:14Z</time>
      </trkpt>
      <trkpt lat="44.09419" lon="7.07677">
        <ele>1219</ele>
        <time>2022-07-26T13:51:15Z</time>
      </trkpt>
      <trkpt lat="44.09418" lon="7.07677">
        <ele>1219</ele>
        <time>2022-07-26T13:51:16Z</time>
      </trkpt>
      <trkpt lat="44.09417" lon="7.07677">
        <ele>1219</ele>
        <time>2022-07-26T13:51:17Z</time>
      </trkpt>
      <trkpt lat="44.09417" lon="7.07677">
        <ele>1218</ele>
        <time>2022-07-26T13:51:18Z</time>
      </trkpt>
      <trkpt lat="44.09416" lon="7.07677">
        <ele>1218</ele>
        <time>2022-07-26T13:51:19Z</time>
      </trkpt>
      <trkpt lat="44.09415" lon="7.07676">
        <ele>1218</ele>
        <time>2022-07-26T13:51:20Z</time>
      </trkpt>
      <trkpt lat="44.09414" lon="7.07676">
        <ele>1218</ele>
        <time>2022-07-26T13:51:21Z</time>
      </trkpt>
      <trkpt lat="44.09413" lon="7.07676">
        <ele>1218</ele>
        <time>2022-07-26T13:51:22Z</time>
      </trkpt>
      <trkpt lat="44.09412" lon="7.07675">
        <ele>1218</ele>
        <time>2022-07-26T13:51:23Z</time>
      </trkpt>
      <trkpt lat="44.09411" lon="7.07675">
        <ele>1218</ele>
        <time>2022-07-26T13:51:24Z</time>
      </trkpt>
      <trkpt lat="44.09409" lon="7.07674">
        <ele>1218</ele>
        <time>2022-07-26T13:51:25Z</time>
      </trkpt>
      <trkpt lat="44.09408" lon="7.07674">
        <ele>1218</ele>
        <time>2022-07-26T13:51:26Z</time>
      </trkpt>
      <trkpt lat="44.09407" lon="7.07674">
        <ele>1218</ele>
        <time>2022-07-26T13:51:27Z</time>
      </trkpt>
      <trkpt lat="44.09406" lon="7.07673">
        <ele>1218</ele>
        <time>2022-07-26T13:51:28Z</time>
      </trkpt>
      <trkpt lat="44.09405" lon="7.07673">
        <ele>1218</ele>
        <time>2022-07-26T13:51:29Z</time>
      </trkpt>
      <trkpt lat="44.09404" lon="7.07673">
        <ele>1218</ele>
        <time>2022-07-26T13:51:30Z</time>
      </trkpt>
      <trkpt lat="44.09403" lon="7.07673">
        <ele>1218</ele>
        <time>2022-07-26T13:51:31Z</time>
      </trkpt>
      <trkpt lat="44.09402" lon="7.07674">
        <ele>1218</ele>
        <time>2022-07-26T13:51:32Z</time>
      </trkpt>
      <trkpt lat="44.09401" lon="7.07674">
        <ele>1218</ele>
        <time>2022-07-26T13:51:33Z</time>
      </trkpt>
      <trkpt lat="44.094" lon="7.07676">
        <ele>1218</ele>
        <time>2022-07-26T13:51:34Z</time>
      </trkpt>
      <trkpt lat="44.09399" lon="7.07677">
        <ele>1218</ele>
        <time>2022-07-26T13:51:35Z</time>
      </trkpt>
      <trkpt lat="44.09398" lon="7.07678">
        <ele>1218</ele>
        <time>2022-07-26T13:51:36Z</time>
      </trkpt>
      <trkpt lat="44.09397" lon="7.07679">
        <ele>1218</ele>
        <time>2022-07-26T13:51:37Z</time>
      </trkpt>
      <trkpt lat="44.09396" lon="7.07681">
        <ele>1217</ele>
        <time>2022-07-26T13:51:38Z</time>
      </trkpt>
      <trkpt lat="44.09396" lon="7.07682">
        <ele>1217</ele>
        <time>2022-07-26T13:51:39Z</time>
      </trkpt>
      <trkpt lat="44.09395" lon="7.07683">
        <ele>1217</ele>
        <time>2022-07-26T13:51:40Z</time>
      </trkpt>
      <trkpt lat="44.09394" lon="7.07684">
        <ele>1217</ele>
        <time>2022-07-26T13:51:41Z</time>
      </trkpt>
      <trkpt lat="44.09393" lon="7.07685">
        <ele>1217</ele>
        <time>2022-07-26T13:51:42Z</time>
      </trkpt>
      <trkpt lat="44.09392" lon="7.07686">
        <ele>1217</ele>
        <time>2022-07-26T13:51:43Z</time>
      </trkpt>
      <trkpt lat="44.09392" lon="7.07687">
        <ele>1217</ele>
        <time>2022-07-26T13:51:44Z</time>
      </trkpt>
      <trkpt lat="44.09391" lon="7.07688">
        <ele>1217</ele>
        <time>2022-07-26T13:51:45Z</time>
      </trkpt>
      <trkpt lat="44.0939" lon="7.07689">
        <ele>1217</ele>
        <time>2022-07-26T13:51:46Z</time>
      </trkpt>
      <trkpt lat="44.09389" lon="7.0769">
        <ele>1217</ele>
        <time>2022-07-26T13:51:47Z</time>
      </trkpt>
      <trkpt lat="44.09388" lon="7.07691">
        <ele>1216</ele>
        <time>2022-07-26T13:51:48Z</time>
      </trkpt>
      <trkpt lat="44.09387" lon="7.07692">
        <ele>1216</ele>
        <time>2022-07-26T13:51:49Z</time>
      </trkpt>
      <trkpt lat="44.09386" lon="7.07693">
        <ele>1213</ele>
        <time>2022-07-26T13:52:34Z</time>
      </trkpt>
      <trkpt lat="44.09385" lon="7.07693">
        <ele>1213</ele>
        <time>2022-07-26T13:52:35Z</time>
      </trkpt>
      <trkpt lat="44.09385" lon="7.07693">
        <ele>1213</ele>
        <time>2022-07-26T13:52:36Z</time>
      </trkpt>
      <trkpt lat="44.09384" lon="7.07694">
        <ele>1213</ele>
        <time>2022-07-26T13:52:37Z</time>
      </trkpt>
      <trkpt lat="44.09383" lon="7.07695">
        <ele>1213</ele>
        <time>2022-07-26T13:52:38Z</time>
      </trkpt>
      <trkpt lat="44.09382" lon="7.07696">
        <ele>1213</ele>
        <time>2022-07-26T13:52:39Z</time>
      </trkpt>
      <trkpt lat="44.09382" lon="7.07697">
        <ele>1213</ele>
        <time>2022-07-26T13:52:40Z</time>
      </trkpt>
      <trkpt lat="44.0938" lon="7.07698">
        <ele>1213</ele>
        <time>2022-07-26T13:52:41Z</time>
      </trkpt>
      <trkpt lat="44.09379" lon="7.07699">
        <ele>1213</ele>
        <time>2022-07-26T13:52:42Z</time>
      </trkpt>
      <trkpt lat="44.09378" lon="7.07699">
        <ele>1213</ele>
        <time>2022-07-26T13:52:43Z</time>
      </trkpt>
      <trkpt lat="44.09377" lon="7.077">
        <ele>1213</ele>
        <time>2022-07-26T13:52:44Z</time>
      </trkpt>
      <trkpt lat="44.09375" lon="7.07701">
        <ele>1213</ele>
        <time>2022-07-26T13:52:45Z</time>
      </trkpt>
      <trkpt lat="44.09374" lon="7.07702">
        <ele>1213</ele>
        <time>2022-07-26T13:52:46Z</time>
      </trkpt>
      <trkpt lat="44.09373" lon="7.07702">
        <ele>1213</ele>
        <time>2022-07-26T13:52:47Z</time>
      </trkpt>
      <trkpt lat="44.09371" lon="7.07703">
        <ele>1213</ele>
        <time>2022-07-26T13:52:48Z</time>
      </trkpt>
      <trkpt lat="44.0937" lon="7.07704">
        <ele>1213</ele>
        <time>2022-07-26T13:52:49Z</time>
      </trkpt>
      <trkpt lat="44.09369" lon="7.07705">
        <ele>1213</ele>
        <time>2022-07-26T13:52:50Z</time>
      </trkpt>
      <trkpt lat="44.09367" lon="7.07706">
        <ele>1213</ele>
        <time>2022-07-26T13:52:51Z</time>
      </trkpt>
      <trkpt lat="44.09366" lon="7.07707">
        <ele>1213</ele>
        <time>2022-07-26T13:52:52Z</time>
      </trkpt>
      <trkpt lat="44.09365" lon="7.07708">
        <ele>1213</ele>
        <time>2022-07-26T13:52:53Z</time>
      </trkpt>
      <trkpt lat="44.09363" lon="7.07709">
        <ele>1213</ele>
        <time>2022-07-26T13:52:54Z</time>
      </trkpt>
      <trkpt lat="44.09362" lon="7.0771">
        <ele>1213</ele>
        <time>2022-07-26T13:52:55Z</time>
      </trkpt>
      <trkpt lat="44.09361" lon="7.07711">
        <ele>1213</ele>
        <time>2022-07-26T13:52:56Z</time>
      </trkpt>
      <trkpt lat="44.0936" lon="7.07712">
        <ele>1213</ele>
        <time>2022-07-26T13:52:57Z</time>
      </trkpt>
      <trkpt lat="44.0936" lon="7.07713">
        <ele>1213</ele>
        <time>2022-07-26T13:52:58Z</time>
      </trkpt>
      <trkpt lat="44.09359" lon="7.07715">
        <ele>1213</ele>
        <time>2022-07-26T13:52:59Z</time>
      </trkpt>
      <trkpt lat="44.09359" lon="7.07716">
        <ele>1213</ele>
        <time>2022-07-26T13:53:00Z</time>
      </trkpt>
      <trkpt lat="44.09359" lon="7.07718">
        <ele>1213</ele>
        <time>2022-07-26T13:53:01Z</time>
      </trkpt>
      <trkpt lat="44.09358" lon="7.0772">
        <ele>1213</ele>
        <time>2022-07-26T13:53:02Z</time>
      </trkpt>
      <trkpt lat="44.09358" lon="7.07721">
        <ele>1213</ele>
        <time>2022-07-26T13:53:03Z</time>
      </trkpt>
      <trkpt lat="44.09358" lon="7.07723">
        <ele>1213</ele>
        <time>2022-07-26T13:53:04Z</time>
      </trkpt>
      <trkpt lat="44.09358" lon="7.07725">
        <ele>1213</ele>
        <time>2022-07-26T13:53:05Z</time>
      </trkpt>
      <trkpt lat="44.09358" lon="7.07727">
        <ele>1213</ele>
        <time>2022-07-26T13:53:06Z</time>
      </trkpt>
      <trkpt lat="44.09358" lon="7.07729">
        <ele>1213</ele>
        <time>2022-07-26T13:53:07Z</time>
      </trkpt>
      <trkpt lat="44.09358" lon="7.07731">
        <ele>1213</ele>
        <time>2022-07-26T13:53:08Z</time>
      </trkpt>
      <trkpt lat="44.09358" lon="7.07732">
        <ele>1213</ele>
        <time>2022-07-26T13:53:09Z</time>
      </trkpt>
      <trkpt lat="44.09358" lon="7.07734">
        <ele>1213</ele>
        <time>2022-07-26T13:53:10Z</time>
      </trkpt>
      <trkpt lat="44.09358" lon="7.07736">
        <ele>1213</ele>
        <time>2022-07-26T13:53:11Z</time>
      </trkpt>
      <trkpt lat="44.09358" lon="7.07738">
        <ele>1213</ele>
        <time>2022-07-26T13:53:12Z</time>
      </trkpt>
      <trkpt lat="44.09358" lon="7.07739">
        <ele>1213</ele>
        <time>2022-07-26T13:53:13Z</time>
      </trkpt>
      <trkpt lat="44.09358" lon="7.07741">
        <ele>1213</ele>
        <time>2022-07-26T13:53:14Z</time>
      </trkpt>
      <trkpt lat="44.09358" lon="7.07742">
        <ele>1213</ele>
        <time>2022-07-26T13:53:15Z</time>
      </trkpt>
      <trkpt lat="44.09358" lon="7.07744">
        <ele>1213</ele>
        <time>2022-07-26T13:53:16Z</time>
      </trkpt>
      <trkpt lat="44.09359" lon="7.07746">
        <ele>1213</ele>
        <time>2022-07-26T13:53:17Z</time>
      </trkpt>
      <trkpt lat="44.09359" lon="7.07747">
        <ele>1213</ele>
        <time>2022-07-26T13:53:18Z</time>
      </trkpt>
      <trkpt lat="44.09359" lon="7.07749">
        <ele>1213</ele>
        <time>2022-07-26T13:53:19Z</time>
      </trkpt>
      <trkpt lat="44.09359" lon="7.0775">
        <ele>1213</ele>
        <time>2022-07-26T13:53:20Z</time>
      </trkpt>
      <trkpt lat="44.09359" lon="7.07752">
        <ele>1213</ele>
        <time>2022-07-26T13:53:21Z</time>
      </trkpt>
      <trkpt lat="44.09359" lon="7.07754">
        <ele>1213</ele>
        <time>2022-07-26T13:53:22Z</time>
      </trkpt>
      <trkpt lat="44.0936" lon="7.07756">
        <ele>1212</ele>
        <time>2022-07-26T13:53:23Z</time>
      </trkpt>
      <trkpt lat="44.0936" lon="7.07757">
        <ele>1212</ele>
        <time>2022-07-26T13:53:24Z</time>
      </trkpt>
      <trkpt lat="44.0936" lon="7.07759">
        <ele>1212</ele>
        <time>2022-07-26T13:53:25Z</time>
      </trkpt>
      <trkpt lat="44.0936" lon="7.0776">
        <ele>1212</ele>
        <time>2022-07-26T13:53:26Z</time>
      </trkpt>
      <trkpt lat="44.09361" lon="7.07762">
        <ele>1212</ele>
        <time>2022-07-26T13:53:27Z</time>
      </trkpt>
      <trkpt lat="44.09361" lon="7.07764">
        <ele>1212</ele>
        <time>2022-07-26T13:53:28Z</time>
      </trkpt>
      <trkpt lat="44.09361" lon="7.07766">
        <ele>1212</ele>
        <time>2022-07-26T13:53:29Z</time>
      </trkpt>
      <trkpt lat="44.09362" lon="7.07767">
        <ele>1212</ele>
        <time>2022-07-26T13:53:30Z</time>
      </trkpt>
      <trkpt lat="44.09362" lon="7.07769">
        <ele>1212</ele>
        <time>2022-07-26T13:53:31Z</time>
      </trkpt>
      <trkpt lat="44.09363" lon="7.0777">
        <ele>1212</ele>
        <time>2022-07-26T13:53:32Z</time>
      </trkpt>
      <trkpt lat="44.09363" lon="7.07772">
        <ele>1212</ele>
        <time>2022-07-26T13:53:33Z</time>
      </trkpt>
      <trkpt lat="44.09363" lon="7.07774">
        <ele>1212</ele>
        <time>2022-07-26T13:53:34Z</time>
      </trkpt>
      <trkpt lat="44.09364" lon="7.07775">
        <ele>1212</ele>
        <time>2022-07-26T13:53:35Z</time>
      </trkpt>
      <trkpt lat="44.09364" lon="7.07777">
        <ele>1212</ele>
        <time>2022-07-26T13:53:36Z</time>
      </trkpt>
      <trkpt lat="44.09365" lon="7.07779">
        <ele>1212</ele>
        <time>2022-07-26T13:53:37Z</time>
      </trkpt>
      <trkpt lat="44.09365" lon="7.0778">
        <ele>1212</ele>
        <time>2022-07-26T13:53:38Z</time>
      </trkpt>
      <trkpt lat="44.09365" lon="7.07782">
        <ele>1212</ele>
        <time>2022-07-26T13:53:39Z</time>
      </trkpt>
      <trkpt lat="44.09365" lon="7.07784">
        <ele>1212</ele>
        <time>2022-07-26T13:53:40Z</time>
      </trkpt>
      <trkpt lat="44.09366" lon="7.07785">
        <ele>1212</ele>
        <time>2022-07-26T13:53:41Z</time>
      </trkpt>
      <trkpt lat="44.09366" lon="7.07787">
        <ele>1212</ele>
        <time>2022-07-26T13:53:42Z</time>
      </trkpt>
      <trkpt lat="44.09366" lon="7.07789">
        <ele>1211</ele>
        <time>2022-07-26T13:53:43Z</time>
      </trkpt>
      <trkpt lat="44.09366" lon="7.0779">
        <ele>1211</ele>
        <time>2022-07-26T13:53:44Z</time>
      </trkpt>
      <trkpt lat="44.09367" lon="7.07792">
        <ele>1211</ele>
        <time>2022-07-26T13:53:45Z</time>
      </trkpt>
      <trkpt lat="44.09367" lon="7.07794">
        <ele>1211</ele>
        <time>2022-07-26T13:53:46Z</time>
      </trkpt>
      <trkpt lat="44.09367" lon="7.07796">
        <ele>1211</ele>
        <time>2022-07-26T13:53:47Z</time>
      </trkpt>
      <trkpt lat="44.09367" lon="7.07797">
        <ele>1211</ele>
        <time>2022-07-26T13:53:48Z</time>
      </trkpt>
      <trkpt lat="44.09368" lon="7.07799">
        <ele>1211</ele>
        <time>2022-07-26T13:53:49Z</time>
      </trkpt>
      <trkpt lat="44.09368" lon="7.07801">
        <ele>1211</ele>
        <time>2022-07-26T13:53:50Z</time>
      </trkpt>
      <trkpt lat="44.09368" lon="7.07802">
        <ele>1211</ele>
        <time>2022-07-26T13:53:51Z</time>
      </trkpt>
      <trkpt lat="44.09369" lon="7.07804">
        <ele>1211</ele>
        <time>2022-07-26T13:53:52Z</time>
      </trkpt>
      <trkpt lat="44.09369" lon="7.07805">
        <ele>1211</ele>
        <time>2022-07-26T13:53:53Z</time>
      </trkpt>
      <trkpt lat="44.0937" lon="7.07807">
        <ele>1211</ele>
        <time>2022-07-26T13:53:54Z</time>
      </trkpt>
      <trkpt lat="44.0937" lon="7.07809">
        <ele>1211</ele>
        <time>2022-07-26T13:53:55Z</time>
      </trkpt>
      <trkpt lat="44.09371" lon="7.0781">
        <ele>1211</ele>
        <time>2022-07-26T13:53:56Z</time>
      </trkpt>
      <trkpt lat="44.09371" lon="7.07812">
        <ele>1211</ele>
        <time>2022-07-26T13:53:57Z</time>
      </trkpt>
      <trkpt lat="44.09372" lon="7.07814">
        <ele>1211</ele>
        <time>2022-07-26T13:53:58Z</time>
      </trkpt>
      <trkpt lat="44.09372" lon="7.07815">
        <ele>1211</ele>
        <time>2022-07-26T13:53:59Z</time>
      </trkpt>
      <trkpt lat="44.09373" lon="7.07817">
        <ele>1211</ele>
        <time>2022-07-26T13:54:00Z</time>
      </trkpt>
      <trkpt lat="44.09373" lon="7.07818">
        <ele>1211</ele>
        <time>2022-07-26T13:54:01Z</time>
      </trkpt>
      <trkpt lat="44.09374" lon="7.0782">
        <ele>1211</ele>
        <time>2022-07-26T13:54:02Z</time>
      </trkpt>
      <trkpt lat="44.09374" lon="7.07822">
        <ele>1211</ele>
        <time>2022-07-26T13:54:03Z</time>
      </trkpt>
      <trkpt lat="44.09375" lon="7.07823">
        <ele>1211</ele>
        <time>2022-07-26T13:54:04Z</time>
      </trkpt>
      <trkpt lat="44.09375" lon="7.07825">
        <ele>1211</ele>
        <time>2022-07-26T13:54:05Z</time>
      </trkpt>
      <trkpt lat="44.09376" lon="7.07827">
        <ele>1211</ele>
        <time>2022-07-26T13:54:06Z</time>
      </trkpt>
      <trkpt lat="44.09376" lon="7.07829">
        <ele>1211</ele>
        <time>2022-07-26T13:54:07Z</time>
      </trkpt>
      <trkpt lat="44.09376" lon="7.0783">
        <ele>1211</ele>
        <time>2022-07-26T13:54:08Z</time>
      </trkpt>
      <trkpt lat="44.09377" lon="7.07832">
        <ele>1211</ele>
        <time>2022-07-26T13:54:09Z</time>
      </trkpt>
      <trkpt lat="44.09377" lon="7.07834">
        <ele>1211</ele>
        <time>2022-07-26T13:54:10Z</time>
      </trkpt>
      <trkpt lat="44.09377" lon="7.07835">
        <ele>1211</ele>
        <time>2022-07-26T13:54:11Z</time>
      </trkpt>
      <trkpt lat="44.09377" lon="7.07837">
        <ele>1211</ele>
        <time>2022-07-26T13:54:12Z</time>
      </trkpt>
      <trkpt lat="44.09377" lon="7.07839">
        <ele>1211</ele>
        <time>2022-07-26T13:54:13Z</time>
      </trkpt>
      <trkpt lat="44.09377" lon="7.07841">
        <ele>1211</ele>
        <time>2022-07-26T13:54:14Z</time>
      </trkpt>
      <trkpt lat="44.09377" lon="7.07842">
        <ele>1211</ele>
        <time>2022-07-26T13:54:15Z</time>
      </trkpt>
      <trkpt lat="44.09376" lon="7.07844">
        <ele>1211</ele>
        <time>2022-07-26T13:54:16Z</time>
      </trkpt>
      <trkpt lat="44.09376" lon="7.07845">
        <ele>1211</ele>
        <time>2022-07-26T13:54:17Z</time>
      </trkpt>
      <trkpt lat="44.09376" lon="7.07847">
        <ele>1211</ele>
        <time>2022-07-26T13:54:18Z</time>
      </trkpt>
      <trkpt lat="44.09375" lon="7.07849">
        <ele>1211</ele>
        <time>2022-07-26T13:54:19Z</time>
      </trkpt>
      <trkpt lat="44.09375" lon="7.0785">
        <ele>1211</ele>
        <time>2022-07-26T13:54:20Z</time>
      </trkpt>
      <trkpt lat="44.09374" lon="7.07852">
        <ele>1211</ele>
        <time>2022-07-26T13:54:21Z</time>
      </trkpt>
      <trkpt lat="44.09374" lon="7.07853">
        <ele>1211</ele>
        <time>2022-07-26T13:54:22Z</time>
      </trkpt>
      <trkpt lat="44.09374" lon="7.07855">
        <ele>1211</ele>
        <time>2022-07-26T13:54:23Z</time>
      </trkpt>
      <trkpt lat="44.09374" lon="7.07856">
        <ele>1211</ele>
        <time>2022-07-26T13:54:24Z</time>
      </trkpt>
      <trkpt lat="44.09374" lon="7.07858">
        <ele>1211</ele>
        <time>2022-07-26T13:54:25Z</time>
      </trkpt>
      <trkpt lat="44.09374" lon="7.0786">
        <ele>1211</ele>
        <time>2022-07-26T13:54:26Z</time>
      </trkpt>
      <trkpt lat="44.09373" lon="7.07861">
        <ele>1211</ele>
        <time>2022-07-26T13:54:27Z</time>
      </trkpt>
      <trkpt lat="44.09374" lon="7.07863">
        <ele>1210</ele>
        <time>2022-07-26T13:54:28Z</time>
      </trkpt>
      <trkpt lat="44.09374" lon="7.07864">
        <ele>1210</ele>
        <time>2022-07-26T13:54:29Z</time>
      </trkpt>
      <trkpt lat="44.09374" lon="7.07865">
        <ele>1210</ele>
        <time>2022-07-26T13:54:30Z</time>
      </trkpt>
      <trkpt lat="44.09374" lon="7.07867">
        <ele>1210</ele>
        <time>2022-07-26T13:54:31Z</time>
      </trkpt>
      <trkpt lat="44.09374" lon="7.07868">
        <ele>1210</ele>
        <time>2022-07-26T13:54:32Z</time>
      </trkpt>
      <trkpt lat="44.09374" lon="7.07869">
        <ele>1210</ele>
        <time>2022-07-26T13:54:33Z</time>
      </trkpt>
      <trkpt lat="44.09374" lon="7.0787">
        <ele>1210</ele>
        <time>2022-07-26T13:54:34Z</time>
      </trkpt>
      <trkpt lat="44.09374" lon="7.07871">
        <ele>1210</ele>
        <time>2022-07-26T13:54:35Z</time>
      </trkpt>
      <trkpt lat="44.09374" lon="7.07872">
        <ele>1210</ele>
        <time>2022-07-26T13:54:36Z</time>
      </trkpt>
      <trkpt lat="44.09374" lon="7.07873">
        <ele>1210</ele>
        <time>2022-07-26T13:54:37Z</time>
      </trkpt>
      <trkpt lat="44.09374" lon="7.07875">
        <ele>1210</ele>
        <time>2022-07-26T13:54:38Z</time>
      </trkpt>
      <trkpt lat="44.09373" lon="7.07876">
        <ele>1210</ele>
        <time>2022-07-26T13:54:39Z</time>
      </trkpt>
      <trkpt lat="44.09373" lon="7.07877">
        <ele>1210</ele>
        <time>2022-07-26T13:54:40Z</time>
      </trkpt>
      <trkpt lat="44.09372" lon="7.07879">
        <ele>1210</ele>
        <time>2022-07-26T13:54:41Z</time>
      </trkpt>
      <trkpt lat="44.09372" lon="7.0788">
        <ele>1210</ele>
        <time>2022-07-26T13:54:42Z</time>
      </trkpt>
      <trkpt lat="44.09371" lon="7.07881">
        <ele>1210</ele>
        <time>2022-07-26T13:54:43Z</time>
      </trkpt>
      <trkpt lat="44.0937" lon="7.07882">
        <ele>1210</ele>
        <time>2022-07-26T13:54:44Z</time>
      </trkpt>
      <trkpt lat="44.09369" lon="7.07884">
        <ele>1210</ele>
        <time>2022-07-26T13:54:45Z</time>
      </trkpt>
      <trkpt lat="44.09368" lon="7.07885">
        <ele>1210</ele>
        <time>2022-07-26T13:54:46Z</time>
      </trkpt>
      <trkpt lat="44.09367" lon="7.07886">
        <ele>1210</ele>
        <time>2022-07-26T13:54:47Z</time>
      </trkpt>
      <trkpt lat="44.09367" lon="7.07887">
        <ele>1209</ele>
        <time>2022-07-26T13:54:48Z</time>
      </trkpt>
      <trkpt lat="44.09366" lon="7.07888">
        <ele>1209</ele>
        <time>2022-07-26T13:54:49Z</time>
      </trkpt>
      <trkpt lat="44.09365" lon="7.07889">
        <ele>1209</ele>
        <time>2022-07-26T13:54:50Z</time>
      </trkpt>
      <trkpt lat="44.09364" lon="7.0789">
        <ele>1209</ele>
        <time>2022-07-26T13:54:51Z</time>
      </trkpt>
      <trkpt lat="44.09364" lon="7.07891">
        <ele>1209</ele>
        <time>2022-07-26T13:54:52Z</time>
      </trkpt>
      <trkpt lat="44.09364" lon="7.07892">
        <ele>1209</ele>
        <time>2022-07-26T13:54:53Z</time>
      </trkpt>
      <trkpt lat="44.09363" lon="7.07894">
        <ele>1207</ele>
        <time>2022-07-26T13:55:24Z</time>
      </trkpt>
      <trkpt lat="44.09363" lon="7.07895">
        <ele>1207</ele>
        <time>2022-07-26T13:55:25Z</time>
      </trkpt>
      <trkpt lat="44.09362" lon="7.07896">
        <ele>1207</ele>
        <time>2022-07-26T13:55:26Z</time>
      </trkpt>
      <trkpt lat="44.09362" lon="7.07897">
        <ele>1207</ele>
        <time>2022-07-26T13:55:27Z</time>
      </trkpt>
      <trkpt lat="44.09362" lon="7.07898">
        <ele>1207</ele>
        <time>2022-07-26T13:55:28Z</time>
      </trkpt>
      <trkpt lat="44.09362" lon="7.07899">
        <ele>1207</ele>
        <time>2022-07-26T13:55:29Z</time>
      </trkpt>
      <trkpt lat="44.09363" lon="7.079">
        <ele>1207</ele>
        <time>2022-07-26T13:55:30Z</time>
      </trkpt>
      <trkpt lat="44.09363" lon="7.07901">
        <ele>1207</ele>
        <time>2022-07-26T13:55:31Z</time>
      </trkpt>
      <trkpt lat="44.09363" lon="7.07902">
        <ele>1207</ele>
        <time>2022-07-26T13:55:32Z</time>
      </trkpt>
      <trkpt lat="44.09363" lon="7.07904">
        <ele>1207</ele>
        <time>2022-07-26T13:55:33Z</time>
      </trkpt>
      <trkpt lat="44.09363" lon="7.07905">
        <ele>1207</ele>
        <time>2022-07-26T13:55:34Z</time>
      </trkpt>
      <trkpt lat="44.09363" lon="7.07906">
        <ele>1207</ele>
        <time>2022-07-26T13:55:35Z</time>
      </trkpt>
      <trkpt lat="44.09363" lon="7.07908">
        <ele>1207</ele>
        <time>2022-07-26T13:55:36Z</time>
      </trkpt>
      <trkpt lat="44.09363" lon="7.07909">
        <ele>1207</ele>
        <time>2022-07-26T13:55:37Z</time>
      </trkpt>
      <trkpt lat="44.09363" lon="7.07911">
        <ele>1207</ele>
        <time>2022-07-26T13:55:38Z</time>
      </trkpt>
      <trkpt lat="44.09363" lon="7.07912">
        <ele>1207</ele>
        <time>2022-07-26T13:55:39Z</time>
      </trkpt>
      <trkpt lat="44.09363" lon="7.07914">
        <ele>1207</ele>
        <time>2022-07-26T13:55:40Z</time>
      </trkpt>
      <trkpt lat="44.09363" lon="7.07915">
        <ele>1207</ele>
        <time>2022-07-26T13:55:41Z</time>
      </trkpt>
      <trkpt lat="44.09363" lon="7.07917">
        <ele>1207</ele>
        <time>2022-07-26T13:55:42Z</time>
      </trkpt>
      <trkpt lat="44.09363" lon="7.07918">
        <ele>1207</ele>
        <time>2022-07-26T13:55:43Z</time>
      </trkpt>
      <trkpt lat="44.09364" lon="7.0792">
        <ele>1207</ele>
        <time>2022-07-26T13:55:44Z</time>
      </trkpt>
      <trkpt lat="44.09364" lon="7.07921">
        <ele>1207</ele>
        <time>2022-07-26T13:55:45Z</time>
      </trkpt>
      <trkpt lat="44.09364" lon="7.07923">
        <ele>1207</ele>
        <time>2022-07-26T13:55:46Z</time>
      </trkpt>
      <trkpt lat="44.09364" lon="7.07924">
        <ele>1207</ele>
        <time>2022-07-26T13:55:47Z</time>
      </trkpt>
      <trkpt lat="44.09364" lon="7.07925">
        <ele>1207</ele>
        <time>2022-07-26T13:55:48Z</time>
      </trkpt>
      <trkpt lat="44.09365" lon="7.07927">
        <ele>1207</ele>
        <time>2022-07-26T13:55:49Z</time>
      </trkpt>
      <trkpt lat="44.09365" lon="7.07928">
        <ele>1207</ele>
        <time>2022-07-26T13:55:50Z</time>
      </trkpt>
      <trkpt lat="44.09365" lon="7.07929">
        <ele>1207</ele>
        <time>2022-07-26T13:55:51Z</time>
      </trkpt>
      <trkpt lat="44.09365" lon="7.07931">
        <ele>1207</ele>
        <time>2022-07-26T13:55:52Z</time>
      </trkpt>
      <trkpt lat="44.09365" lon="7.07932">
        <ele>1207</ele>
        <time>2022-07-26T13:55:53Z</time>
      </trkpt>
      <trkpt lat="44.09365" lon="7.07933">
        <ele>1207</ele>
        <time>2022-07-26T13:55:54Z</time>
      </trkpt>
      <trkpt lat="44.09365" lon="7.07935">
        <ele>1207</ele>
        <time>2022-07-26T13:55:55Z</time>
      </trkpt>
      <trkpt lat="44.09366" lon="7.07936">
        <ele>1207</ele>
        <time>2022-07-26T13:55:56Z</time>
      </trkpt>
      <trkpt lat="44.09366" lon="7.07937">
        <ele>1207</ele>
        <time>2022-07-26T13:55:57Z</time>
      </trkpt>
      <trkpt lat="44.09366" lon="7.07939">
        <ele>1206</ele>
        <time>2022-07-26T13:55:58Z</time>
      </trkpt>
      <trkpt lat="44.09367" lon="7.07941">
        <ele>1206</ele>
        <time>2022-07-26T13:55:59Z</time>
      </trkpt>
      <trkpt lat="44.09367" lon="7.07943">
        <ele>1206</ele>
        <time>2022-07-26T13:56:00Z</time>
      </trkpt>
      <trkpt lat="44.09367" lon="7.07944">
        <ele>1206</ele>
        <time>2022-07-26T13:56:01Z</time>
      </trkpt>
      <trkpt lat="44.09368" lon="7.07946">
        <ele>1206</ele>
        <time>2022-07-26T13:56:02Z</time>
      </trkpt>
      <trkpt lat="44.09368" lon="7.07948">
        <ele>1206</ele>
        <time>2022-07-26T13:56:03Z</time>
      </trkpt>
      <trkpt lat="44.09368" lon="7.07949">
        <ele>1206</ele>
        <time>2022-07-26T13:56:04Z</time>
      </trkpt>
      <trkpt lat="44.09368" lon="7.07951">
        <ele>1206</ele>
        <time>2022-07-26T13:56:05Z</time>
      </trkpt>
      <trkpt lat="44.09368" lon="7.07952">
        <ele>1206</ele>
        <time>2022-07-26T13:56:06Z</time>
      </trkpt>
      <trkpt lat="44.09368" lon="7.07954">
        <ele>1206</ele>
        <time>2022-07-26T13:56:07Z</time>
      </trkpt>
      <trkpt lat="44.09368" lon="7.07955">
        <ele>1206</ele>
        <time>2022-07-26T13:56:08Z</time>
      </trkpt>
      <trkpt lat="44.09368" lon="7.07957">
        <ele>1206</ele>
        <time>2022-07-26T13:56:09Z</time>
      </trkpt>
      <trkpt lat="44.09368" lon="7.07958">
        <ele>1206</ele>
        <time>2022-07-26T13:56:10Z</time>
      </trkpt>
      <trkpt lat="44.09368" lon="7.0796">
        <ele>1206</ele>
        <time>2022-07-26T13:56:11Z</time>
      </trkpt>
      <trkpt lat="44.09368" lon="7.07961">
        <ele>1206</ele>
        <time>2022-07-26T13:56:12Z</time>
      </trkpt>
      <trkpt lat="44.09367" lon="7.07962">
        <ele>1206</ele>
        <time>2022-07-26T13:56:13Z</time>
      </trkpt>
      <trkpt lat="44.09367" lon="7.07963">
        <ele>1206</ele>
        <time>2022-07-26T13:56:14Z</time>
      </trkpt>
      <trkpt lat="44.09367" lon="7.07964">
        <ele>1206</ele>
        <time>2022-07-26T13:56:15Z</time>
      </trkpt>
      <trkpt lat="44.09366" lon="7.07966">
        <ele>1206</ele>
        <time>2022-07-26T13:56:16Z</time>
      </trkpt>
      <trkpt lat="44.09366" lon="7.07967">
        <ele>1206</ele>
        <time>2022-07-26T13:56:17Z</time>
      </trkpt>
      <trkpt lat="44.09365" lon="7.07968">
        <ele>1206</ele>
        <time>2022-07-26T13:56:18Z</time>
      </trkpt>
      <trkpt lat="44.09364" lon="7.07969">
        <ele>1206</ele>
        <time>2022-07-26T13:56:19Z</time>
      </trkpt>
      <trkpt lat="44.09364" lon="7.0797">
        <ele>1206</ele>
        <time>2022-07-26T13:56:20Z</time>
      </trkpt>
      <trkpt lat="44.09363" lon="7.07971">
        <ele>1206</ele>
        <time>2022-07-26T13:56:21Z</time>
      </trkpt>
      <trkpt lat="44.09362" lon="7.07972">
        <ele>1206</ele>
        <time>2022-07-26T13:56:22Z</time>
      </trkpt>
      <trkpt lat="44.09361" lon="7.07973">
        <ele>1206</ele>
        <time>2022-07-26T13:56:23Z</time>
      </trkpt>
      <trkpt lat="44.09361" lon="7.07973">
        <ele>1206</ele>
        <time>2022-07-26T13:56:24Z</time>
      </trkpt>
      <trkpt lat="44.0936" lon="7.07974">
        <ele>1206</ele>
        <time>2022-07-26T13:56:25Z</time>
      </trkpt>
      <trkpt lat="44.09359" lon="7.07975">
        <ele>1206</ele>
        <time>2022-07-26T13:56:26Z</time>
      </trkpt>
      <trkpt lat="44.09359" lon="7.07977">
        <ele>1206</ele>
        <time>2022-07-26T13:56:27Z</time>
      </trkpt>
      <trkpt lat="44.09358" lon="7.07978">
        <ele>1206</ele>
        <time>2022-07-26T13:56:28Z</time>
      </trkpt>
      <trkpt lat="44.09358" lon="7.07979">
        <ele>1206</ele>
        <time>2022-07-26T13:56:29Z</time>
      </trkpt>
      <trkpt lat="44.09357" lon="7.07981">
        <ele>1206</ele>
        <time>2022-07-26T13:56:30Z</time>
      </trkpt>
      <trkpt lat="44.09357" lon="7.07982">
        <ele>1206</ele>
        <time>2022-07-26T13:56:31Z</time>
      </trkpt>
      <trkpt lat="44.09357" lon="7.07984">
        <ele>1206</ele>
        <time>2022-07-26T13:56:32Z</time>
      </trkpt>
      <trkpt lat="44.09357" lon="7.07986">
        <ele>1206</ele>
        <time>2022-07-26T13:56:33Z</time>
      </trkpt>
      <trkpt lat="44.09357" lon="7.07987">
        <ele>1206</ele>
        <time>2022-07-26T13:56:34Z</time>
      </trkpt>
      <trkpt lat="44.09357" lon="7.07989">
        <ele>1206</ele>
        <time>2022-07-26T13:56:35Z</time>
      </trkpt>
      <trkpt lat="44.09357" lon="7.0799">
        <ele>1206</ele>
        <time>2022-07-26T13:56:36Z</time>
      </trkpt>
      <trkpt lat="44.09358" lon="7.07991">
        <ele>1207</ele>
        <time>2022-07-26T13:56:37Z</time>
      </trkpt>
      <trkpt lat="44.09358" lon="7.07993">
        <ele>1207</ele>
        <time>2022-07-26T13:56:38Z</time>
      </trkpt>
      <trkpt lat="44.09358" lon="7.07994">
        <ele>1207</ele>
        <time>2022-07-26T13:56:39Z</time>
      </trkpt>
      <trkpt lat="44.09358" lon="7.07995">
        <ele>1207</ele>
        <time>2022-07-26T13:56:40Z</time>
      </trkpt>
      <trkpt lat="44.09358" lon="7.07996">
        <ele>1207</ele>
        <time>2022-07-26T13:56:41Z</time>
      </trkpt>
      <trkpt lat="44.09358" lon="7.07997">
        <ele>1207</ele>
        <time>2022-07-26T13:56:42Z</time>
      </trkpt>
      <trkpt lat="44.09358" lon="7.07998">
        <ele>1207</ele>
        <time>2022-07-26T13:56:43Z</time>
      </trkpt>
      <trkpt lat="44.09358" lon="7.07999">
        <ele>1207</ele>
        <time>2022-07-26T13:56:44Z</time>
      </trkpt>
      <trkpt lat="44.09358" lon="7.08001">
        <ele>1207</ele>
        <time>2022-07-26T13:56:45Z</time>
      </trkpt>
      <trkpt lat="44.09358" lon="7.08002">
        <ele>1207</ele>
        <time>2022-07-26T13:56:46Z</time>
      </trkpt>
      <trkpt lat="44.09358" lon="7.08003">
        <ele>1207</ele>
        <time>2022-07-26T13:56:47Z</time>
      </trkpt>
      <trkpt lat="44.09358" lon="7.08004">
        <ele>1207</ele>
        <time>2022-07-26T13:56:48Z</time>
      </trkpt>
      <trkpt lat="44.09357" lon="7.08006">
        <ele>1207</ele>
        <time>2022-07-26T13:56:49Z</time>
      </trkpt>
      <trkpt lat="44.09357" lon="7.08007">
        <ele>1207</ele>
        <time>2022-07-26T13:56:50Z</time>
      </trkpt>
      <trkpt lat="44.09357" lon="7.08008">
        <ele>1207</ele>
        <time>2022-07-26T13:56:51Z</time>
      </trkpt>
      <trkpt lat="44.09357" lon="7.0801">
        <ele>1207</ele>
        <time>2022-07-26T13:56:52Z</time>
      </trkpt>
      <trkpt lat="44.09356" lon="7.08011">
        <ele>1207</ele>
        <time>2022-07-26T13:56:53Z</time>
      </trkpt>
      <trkpt lat="44.09355" lon="7.08012">
        <ele>1207</ele>
        <time>2022-07-26T13:56:54Z</time>
      </trkpt>
      <trkpt lat="44.09355" lon="7.08013">
        <ele>1207</ele>
        <time>2022-07-26T13:56:55Z</time>
      </trkpt>
      <trkpt lat="44.09354" lon="7.08014">
        <ele>1207</ele>
        <time>2022-07-26T13:56:56Z</time>
      </trkpt>
      <trkpt lat="44.09353" lon="7.08015">
        <ele>1208</ele>
        <time>2022-07-26T13:56:57Z</time>
      </trkpt>
      <trkpt lat="44.09353" lon="7.08016">
        <ele>1208</ele>
        <time>2022-07-26T13:56:58Z</time>
      </trkpt>
      <trkpt lat="44.09352" lon="7.08017">
        <ele>1208</ele>
        <time>2022-07-26T13:56:59Z</time>
      </trkpt>
      <trkpt lat="44.09351" lon="7.08018">
        <ele>1208</ele>
        <time>2022-07-26T13:57:00Z</time>
      </trkpt>
      <trkpt lat="44.0935" lon="7.08019">
        <ele>1208</ele>
        <time>2022-07-26T13:57:01Z</time>
      </trkpt>
      <trkpt lat="44.0935" lon="7.0802">
        <ele>1208</ele>
        <time>2022-07-26T13:57:02Z</time>
      </trkpt>
      <trkpt lat="44.09349" lon="7.08021">
        <ele>1208</ele>
        <time>2022-07-26T13:57:03Z</time>
      </trkpt>
      <trkpt lat="44.09349" lon="7.08022">
        <ele>1208</ele>
        <time>2022-07-26T13:57:04Z</time>
      </trkpt>
      <trkpt lat="44.09348" lon="7.08024">
        <ele>1208</ele>
        <time>2022-07-26T13:57:05Z</time>
      </trkpt>
      <trkpt lat="44.09347" lon="7.08025">
        <ele>1208</ele>
        <time>2022-07-26T13:57:06Z</time>
      </trkpt>
      <trkpt lat="44.09347" lon="7.08026">
        <ele>1208</ele>
        <time>2022-07-26T13:57:07Z</time>
      </trkpt>
      <trkpt lat="44.09346" lon="7.08027">
        <ele>1208</ele>
        <time>2022-07-26T13:57:08Z</time>
      </trkpt>
      <trkpt lat="44.09346" lon="7.08028">
        <ele>1208</ele>
        <time>2022-07-26T13:57:09Z</time>
      </trkpt>
      <trkpt lat="44.09345" lon="7.08029">
        <ele>1208</ele>
        <time>2022-07-26T13:57:10Z</time>
      </trkpt>
      <trkpt lat="44.09344" lon="7.0803">
        <ele>1208</ele>
        <time>2022-07-26T13:57:11Z</time>
      </trkpt>
      <trkpt lat="44.09343" lon="7.08031">
        <ele>1208</ele>
        <time>2022-07-26T13:57:12Z</time>
      </trkpt>
      <trkpt lat="44.09343" lon="7.08032">
        <ele>1208</ele>
        <time>2022-07-26T13:57:13Z</time>
      </trkpt>
      <trkpt lat="44.09342" lon="7.08034">
        <ele>1208</ele>
        <time>2022-07-26T13:57:14Z</time>
      </trkpt>
      <trkpt lat="44.09341" lon="7.08035">
        <ele>1208</ele>
        <time>2022-07-26T13:57:15Z</time>
      </trkpt>
      <trkpt lat="44.0934" lon="7.08036">
        <ele>1208</ele>
        <time>2022-07-26T13:57:16Z</time>
      </trkpt>
      <trkpt lat="44.0934" lon="7.08037">
        <ele>1208</ele>
        <time>2022-07-26T13:57:17Z</time>
      </trkpt>
      <trkpt lat="44.09339" lon="7.08038">
        <ele>1207</ele>
        <time>2022-07-26T13:57:18Z</time>
      </trkpt>
      <trkpt lat="44.09338" lon="7.08039">
        <ele>1207</ele>
        <time>2022-07-26T13:57:19Z</time>
      </trkpt>
      <trkpt lat="44.09337" lon="7.08039">
        <ele>1207</ele>
        <time>2022-07-26T13:57:20Z</time>
      </trkpt>
      <trkpt lat="44.09336" lon="7.0804">
        <ele>1207</ele>
        <time>2022-07-26T13:57:21Z</time>
      </trkpt>
      <trkpt lat="44.09336" lon="7.08041">
        <ele>1207</ele>
        <time>2022-07-26T13:57:22Z</time>
      </trkpt>
      <trkpt lat="44.09335" lon="7.08042">
        <ele>1207</ele>
        <time>2022-07-26T13:57:23Z</time>
      </trkpt>
      <trkpt lat="44.09334" lon="7.08043">
        <ele>1207</ele>
        <time>2022-07-26T13:57:24Z</time>
      </trkpt>
      <trkpt lat="44.09333" lon="7.08044">
        <ele>1207</ele>
        <time>2022-07-26T13:57:25Z</time>
      </trkpt>
      <trkpt lat="44.09333" lon="7.08045">
        <ele>1207</ele>
        <time>2022-07-26T13:57:26Z</time>
      </trkpt>
      <trkpt lat="44.09332" lon="7.08046">
        <ele>1207</ele>
        <time>2022-07-26T13:57:27Z</time>
      </trkpt>
      <trkpt lat="44.09331" lon="7.08048">
        <ele>1207</ele>
        <time>2022-07-26T13:57:28Z</time>
      </trkpt>
      <trkpt lat="44.09331" lon="7.08049">
        <ele>1207</ele>
        <time>2022-07-26T13:57:29Z</time>
      </trkpt>
      <trkpt lat="44.0933" lon="7.08051">
        <ele>1207</ele>
        <time>2022-07-26T13:57:30Z</time>
      </trkpt>
      <trkpt lat="44.09329" lon="7.08052">
        <ele>1207</ele>
        <time>2022-07-26T13:57:31Z</time>
      </trkpt>
      <trkpt lat="44.09329" lon="7.08054">
        <ele>1207</ele>
        <time>2022-07-26T13:57:32Z</time>
      </trkpt>
      <trkpt lat="44.09328" lon="7.08055">
        <ele>1206</ele>
        <time>2022-07-26T13:57:33Z</time>
      </trkpt>
      <trkpt lat="44.09328" lon="7.08057">
        <ele>1206</ele>
        <time>2022-07-26T13:57:34Z</time>
      </trkpt>
      <trkpt lat="44.09328" lon="7.08058">
        <ele>1206</ele>
        <time>2022-07-26T13:57:35Z</time>
      </trkpt>
      <trkpt lat="44.09327" lon="7.08059">
        <ele>1206</ele>
        <time>2022-07-26T13:57:36Z</time>
      </trkpt>
      <trkpt lat="44.09326" lon="7.08061">
        <ele>1206</ele>
        <time>2022-07-26T13:57:37Z</time>
      </trkpt>
      <trkpt lat="44.09326" lon="7.08062">
        <ele>1206</ele>
        <time>2022-07-26T13:57:38Z</time>
      </trkpt>
      <trkpt lat="44.09325" lon="7.08063">
        <ele>1206</ele>
        <time>2022-07-26T13:57:39Z</time>
      </trkpt>
      <trkpt lat="44.09325" lon="7.08065">
        <ele>1206</ele>
        <time>2022-07-26T13:57:40Z</time>
      </trkpt>
      <trkpt lat="44.09324" lon="7.08066">
        <ele>1206</ele>
        <time>2022-07-26T13:57:41Z</time>
      </trkpt>
      <trkpt lat="44.09323" lon="7.08067">
        <ele>1206</ele>
        <time>2022-07-26T13:57:42Z</time>
      </trkpt>
      <trkpt lat="44.09323" lon="7.08069">
        <ele>1205</ele>
        <time>2022-07-26T13:57:43Z</time>
      </trkpt>
      <trkpt lat="44.09323" lon="7.0807">
        <ele>1205</ele>
        <time>2022-07-26T13:57:44Z</time>
      </trkpt>
      <trkpt lat="44.09322" lon="7.08071">
        <ele>1205</ele>
        <time>2022-07-26T13:57:45Z</time>
      </trkpt>
      <trkpt lat="44.09322" lon="7.08073">
        <ele>1205</ele>
        <time>2022-07-26T13:57:46Z</time>
      </trkpt>
      <trkpt lat="44.09321" lon="7.08074">
        <ele>1205</ele>
        <time>2022-07-26T13:57:47Z</time>
      </trkpt>
      <trkpt lat="44.0932" lon="7.08076">
        <ele>1204</ele>
        <time>2022-07-26T13:57:48Z</time>
      </trkpt>
      <trkpt lat="44.0932" lon="7.08077">
        <ele>1204</ele>
        <time>2022-07-26T13:57:49Z</time>
      </trkpt>
      <trkpt lat="44.09319" lon="7.08079">
        <ele>1204</ele>
        <time>2022-07-26T13:57:50Z</time>
      </trkpt>
      <trkpt lat="44.09319" lon="7.0808">
        <ele>1204</ele>
        <time>2022-07-26T13:57:51Z</time>
      </trkpt>
      <trkpt lat="44.09318" lon="7.08082">
        <ele>1204</ele>
        <time>2022-07-26T13:57:52Z</time>
      </trkpt>
      <trkpt lat="44.09318" lon="7.08083">
        <ele>1204</ele>
        <time>2022-07-26T13:57:53Z</time>
      </trkpt>
      <trkpt lat="44.09317" lon="7.08084">
        <ele>1204</ele>
        <time>2022-07-26T13:57:54Z</time>
      </trkpt>
      <trkpt lat="44.09316" lon="7.08086">
        <ele>1204</ele>
        <time>2022-07-26T13:57:55Z</time>
      </trkpt>
      <trkpt lat="44.09315" lon="7.08087">
        <ele>1204</ele>
        <time>2022-07-26T13:57:56Z</time>
      </trkpt>
      <trkpt lat="44.09315" lon="7.08088">
        <ele>1204</ele>
        <time>2022-07-26T13:57:57Z</time>
      </trkpt>
      <trkpt lat="44.09314" lon="7.08089">
        <ele>1203</ele>
        <time>2022-07-26T13:57:58Z</time>
      </trkpt>
      <trkpt lat="44.09313" lon="7.0809">
        <ele>1203</ele>
        <time>2022-07-26T13:57:59Z</time>
      </trkpt>
      <trkpt lat="44.09312" lon="7.08091">
        <ele>1203</ele>
        <time>2022-07-26T13:58:00Z</time>
      </trkpt>
      <trkpt lat="44.09311" lon="7.08092">
        <ele>1203</ele>
        <time>2022-07-26T13:58:01Z</time>
      </trkpt>
      <trkpt lat="44.0931" lon="7.08093">
        <ele>1203</ele>
        <time>2022-07-26T13:58:02Z</time>
      </trkpt>
      <trkpt lat="44.09309" lon="7.08095">
        <ele>1203</ele>
        <time>2022-07-26T13:58:03Z</time>
      </trkpt>
      <trkpt lat="44.09309" lon="7.08096">
        <ele>1203</ele>
        <time>2022-07-26T13:58:04Z</time>
      </trkpt>
      <trkpt lat="44.09308" lon="7.08097">
        <ele>1203</ele>
        <time>2022-07-26T13:58:05Z</time>
      </trkpt>
      <trkpt lat="44.09307" lon="7.08099">
        <ele>1203</ele>
        <time>2022-07-26T13:58:06Z</time>
      </trkpt>
      <trkpt lat="44.09307" lon="7.081">
        <ele>1203</ele>
        <time>2022-07-26T13:58:07Z</time>
      </trkpt>
      <trkpt lat="44.09307" lon="7.08102">
        <ele>1202</ele>
        <time>2022-07-26T13:58:08Z</time>
      </trkpt>
      <trkpt lat="44.09306" lon="7.08103">
        <ele>1202</ele>
        <time>2022-07-26T13:58:09Z</time>
      </trkpt>
      <trkpt lat="44.09306" lon="7.08105">
        <ele>1202</ele>
        <time>2022-07-26T13:58:10Z</time>
      </trkpt>
      <trkpt lat="44.09305" lon="7.08106">
        <ele>1202</ele>
        <time>2022-07-26T13:58:11Z</time>
      </trkpt>
      <trkpt lat="44.09305" lon="7.08108">
        <ele>1202</ele>
        <time>2022-07-26T13:58:12Z</time>
      </trkpt>
      <trkpt lat="44.09304" lon="7.0811">
        <ele>1202</ele>
        <time>2022-07-26T13:58:13Z</time>
      </trkpt>
      <trkpt lat="44.09304" lon="7.08111">
        <ele>1202</ele>
        <time>2022-07-26T13:58:14Z</time>
      </trkpt>
      <trkpt lat="44.09303" lon="7.08113">
        <ele>1202</ele>
        <time>2022-07-26T13:58:15Z</time>
      </trkpt>
      <trkpt lat="44.09303" lon="7.08114">
        <ele>1202</ele>
        <time>2022-07-26T13:58:16Z</time>
      </trkpt>
      <trkpt lat="44.09302" lon="7.08116">
        <ele>1202</ele>
        <time>2022-07-26T13:58:17Z</time>
      </trkpt>
      <trkpt lat="44.09302" lon="7.08117">
        <ele>1201</ele>
        <time>2022-07-26T13:58:18Z</time>
      </trkpt>
      <trkpt lat="44.09301" lon="7.08119">
        <ele>1201</ele>
        <time>2022-07-26T13:58:19Z</time>
      </trkpt>
      <trkpt lat="44.09301" lon="7.0812">
        <ele>1201</ele>
        <time>2022-07-26T13:58:20Z</time>
      </trkpt>
      <trkpt lat="44.093" lon="7.08122">
        <ele>1201</ele>
        <time>2022-07-26T13:58:21Z</time>
      </trkpt>
      <trkpt lat="44.093" lon="7.08123">
        <ele>1201</ele>
        <time>2022-07-26T13:58:22Z</time>
      </trkpt>
      <trkpt lat="44.093" lon="7.08124">
        <ele>1201</ele>
        <time>2022-07-26T13:58:23Z</time>
      </trkpt>
      <trkpt lat="44.09299" lon="7.08126">
        <ele>1201</ele>
        <time>2022-07-26T13:58:24Z</time>
      </trkpt>
      <trkpt lat="44.09299" lon="7.08127">
        <ele>1201</ele>
        <time>2022-07-26T13:58:25Z</time>
      </trkpt>
      <trkpt lat="44.09298" lon="7.08128">
        <ele>1201</ele>
        <time>2022-07-26T13:58:26Z</time>
      </trkpt>
      <trkpt lat="44.09298" lon="7.08129">
        <ele>1201</ele>
        <time>2022-07-26T13:58:27Z</time>
      </trkpt>
      <trkpt lat="44.09297" lon="7.0813">
        <ele>1200</ele>
        <time>2022-07-26T13:58:28Z</time>
      </trkpt>
      <trkpt lat="44.09297" lon="7.08131">
        <ele>1200</ele>
        <time>2022-07-26T13:58:29Z</time>
      </trkpt>
      <trkpt lat="44.09297" lon="7.08132">
        <ele>1200</ele>
        <time>2022-07-26T13:58:30Z</time>
      </trkpt>
      <trkpt lat="44.09296" lon="7.08133">
        <ele>1200</ele>
        <time>2022-07-26T13:58:31Z</time>
      </trkpt>
      <trkpt lat="44.09296" lon="7.08134">
        <ele>1200</ele>
        <time>2022-07-26T13:58:32Z</time>
      </trkpt>
      <trkpt lat="44.09296" lon="7.08135">
        <ele>1200</ele>
        <time>2022-07-26T13:58:33Z</time>
      </trkpt>
      <trkpt lat="44.09295" lon="7.08136">
        <ele>1200</ele>
        <time>2022-07-26T13:58:34Z</time>
      </trkpt>
      <trkpt lat="44.09295" lon="7.08137">
        <ele>1200</ele>
        <time>2022-07-26T13:58:35Z</time>
      </trkpt>
      <trkpt lat="44.09294" lon="7.08138">
        <ele>1200</ele>
        <time>2022-07-26T13:58:36Z</time>
      </trkpt>
      <trkpt lat="44.09294" lon="7.08139">
        <ele>1200</ele>
        <time>2022-07-26T13:58:37Z</time>
      </trkpt>
      <trkpt lat="44.09294" lon="7.0814">
        <ele>1199</ele>
        <time>2022-07-26T13:58:38Z</time>
      </trkpt>
      <trkpt lat="44.09293" lon="7.08141">
        <ele>1199</ele>
        <time>2022-07-26T13:58:39Z</time>
      </trkpt>
      <trkpt lat="44.09293" lon="7.08142">
        <ele>1199</ele>
        <time>2022-07-26T13:58:40Z</time>
      </trkpt>
      <trkpt lat="44.09292" lon="7.08143">
        <ele>1199</ele>
        <time>2022-07-26T13:58:41Z</time>
      </trkpt>
      <trkpt lat="44.09292" lon="7.08144">
        <ele>1199</ele>
        <time>2022-07-26T13:58:42Z</time>
      </trkpt>
      <trkpt lat="44.09291" lon="7.08145">
        <ele>1198</ele>
        <time>2022-07-26T13:58:43Z</time>
      </trkpt>
      <trkpt lat="44.09291" lon="7.08146">
        <ele>1198</ele>
        <time>2022-07-26T13:58:44Z</time>
      </trkpt>
      <trkpt lat="44.0929" lon="7.08147">
        <ele>1196</ele>
        <time>2022-07-26T13:58:54Z</time>
      </trkpt>
      <trkpt lat="44.0929" lon="7.08147">
        <ele>1196</ele>
        <time>2022-07-26T13:58:55Z</time>
      </trkpt>
      <trkpt lat="44.09289" lon="7.08148">
        <ele>1196</ele>
        <time>2022-07-26T13:58:56Z</time>
      </trkpt>
      <trkpt lat="44.09289" lon="7.08148">
        <ele>1196</ele>
        <time>2022-07-26T13:58:57Z</time>
      </trkpt>
      <trkpt lat="44.09288" lon="7.08149">
        <ele>1195</ele>
        <time>2022-07-26T13:58:58Z</time>
      </trkpt>
      <trkpt lat="44.09287" lon="7.0815">
        <ele>1195</ele>
        <time>2022-07-26T13:58:59Z</time>
      </trkpt>
      <trkpt lat="44.09287" lon="7.08151">
        <ele>1195</ele>
        <time>2022-07-26T13:59:00Z</time>
      </trkpt>
      <trkpt lat="44.09286" lon="7.08152">
        <ele>1195</ele>
        <time>2022-07-26T13:59:01Z</time>
      </trkpt>
      <trkpt lat="44.09285" lon="7.08154">
        <ele>1195</ele>
        <time>2022-07-26T13:59:02Z</time>
      </trkpt>
      <trkpt lat="44.09285" lon="7.08155">
        <ele>1195</ele>
        <time>2022-07-26T13:59:03Z</time>
      </trkpt>
      <trkpt lat="44.09284" lon="7.08157">
        <ele>1195</ele>
        <time>2022-07-26T13:59:04Z</time>
      </trkpt>
      <trkpt lat="44.09284" lon="7.08159">
        <ele>1195</ele>
        <time>2022-07-26T13:59:05Z</time>
      </trkpt>
      <trkpt lat="44.09284" lon="7.08161">
        <ele>1195</ele>
        <time>2022-07-26T13:59:06Z</time>
      </trkpt>
      <trkpt lat="44.09283" lon="7.08162">
        <ele>1195</ele>
        <time>2022-07-26T13:59:07Z</time>
      </trkpt>
      <trkpt lat="44.09283" lon="7.08164">
        <ele>1194</ele>
        <time>2022-07-26T13:59:08Z</time>
      </trkpt>
      <trkpt lat="44.09283" lon="7.08166">
        <ele>1194</ele>
        <time>2022-07-26T13:59:09Z</time>
      </trkpt>
      <trkpt lat="44.09283" lon="7.08167">
        <ele>1194</ele>
        <time>2022-07-26T13:59:10Z</time>
      </trkpt>
      <trkpt lat="44.09282" lon="7.08169">
        <ele>1194</ele>
        <time>2022-07-26T13:59:11Z</time>
      </trkpt>
      <trkpt lat="44.09282" lon="7.08171">
        <ele>1194</ele>
        <time>2022-07-26T13:59:12Z</time>
      </trkpt>
      <trkpt lat="44.09282" lon="7.08172">
        <ele>1193</ele>
        <time>2022-07-26T13:59:13Z</time>
      </trkpt>
      <trkpt lat="44.09281" lon="7.08174">
        <ele>1193</ele>
        <time>2022-07-26T13:59:14Z</time>
      </trkpt>
      <trkpt lat="44.09281" lon="7.08176">
        <ele>1193</ele>
        <time>2022-07-26T13:59:15Z</time>
      </trkpt>
      <trkpt lat="44.0928" lon="7.08177">
        <ele>1193</ele>
        <time>2022-07-26T13:59:16Z</time>
      </trkpt>
      <trkpt lat="44.0928" lon="7.08179">
        <ele>1193</ele>
        <time>2022-07-26T13:59:17Z</time>
      </trkpt>
      <trkpt lat="44.09279" lon="7.0818">
        <ele>1193</ele>
        <time>2022-07-26T13:59:18Z</time>
      </trkpt>
      <trkpt lat="44.09278" lon="7.08182">
        <ele>1193</ele>
        <time>2022-07-26T13:59:19Z</time>
      </trkpt>
      <trkpt lat="44.09277" lon="7.08183">
        <ele>1193</ele>
        <time>2022-07-26T13:59:20Z</time>
      </trkpt>
      <trkpt lat="44.09276" lon="7.08184">
        <ele>1193</ele>
        <time>2022-07-26T13:59:21Z</time>
      </trkpt>
      <trkpt lat="44.09275" lon="7.08185">
        <ele>1193</ele>
        <time>2022-07-26T13:59:22Z</time>
      </trkpt>
      <trkpt lat="44.09274" lon="7.08186">
        <ele>1192</ele>
        <time>2022-07-26T13:59:23Z</time>
      </trkpt>
      <trkpt lat="44.09273" lon="7.08188">
        <ele>1192</ele>
        <time>2022-07-26T13:59:24Z</time>
      </trkpt>
      <trkpt lat="44.09272" lon="7.08189">
        <ele>1192</ele>
        <time>2022-07-26T13:59:25Z</time>
      </trkpt>
      <trkpt lat="44.09271" lon="7.0819">
        <ele>1192</ele>
        <time>2022-07-26T13:59:26Z</time>
      </trkpt>
      <trkpt lat="44.0927" lon="7.08191">
        <ele>1192</ele>
        <time>2022-07-26T13:59:27Z</time>
      </trkpt>
      <trkpt lat="44.09269" lon="7.08193">
        <ele>1191</ele>
        <time>2022-07-26T13:59:28Z</time>
      </trkpt>
      <trkpt lat="44.09268" lon="7.08194">
        <ele>1191</ele>
        <time>2022-07-26T13:59:29Z</time>
      </trkpt>
      <trkpt lat="44.09267" lon="7.08196">
        <ele>1191</ele>
        <time>2022-07-26T13:59:30Z</time>
      </trkpt>
      <trkpt lat="44.09267" lon="7.08198">
        <ele>1191</ele>
        <time>2022-07-26T13:59:31Z</time>
      </trkpt>
      <trkpt lat="44.09266" lon="7.082">
        <ele>1191</ele>
        <time>2022-07-26T13:59:32Z</time>
      </trkpt>
      <trkpt lat="44.09266" lon="7.08202">
        <ele>1190</ele>
        <time>2022-07-26T13:59:33Z</time>
      </trkpt>
      <trkpt lat="44.09266" lon="7.08204">
        <ele>1190</ele>
        <time>2022-07-26T13:59:34Z</time>
      </trkpt>
      <trkpt lat="44.09266" lon="7.08207">
        <ele>1190</ele>
        <time>2022-07-26T13:59:35Z</time>
      </trkpt>
      <trkpt lat="44.09265" lon="7.08209">
        <ele>1190</ele>
        <time>2022-07-26T13:59:36Z</time>
      </trkpt>
      <trkpt lat="44.09265" lon="7.08211">
        <ele>1190</ele>
        <time>2022-07-26T13:59:37Z</time>
      </trkpt>
      <trkpt lat="44.09265" lon="7.08213">
        <ele>1189</ele>
        <time>2022-07-26T13:59:38Z</time>
      </trkpt>
      <trkpt lat="44.09265" lon="7.08215">
        <ele>1189</ele>
        <time>2022-07-26T13:59:39Z</time>
      </trkpt>
      <trkpt lat="44.09265" lon="7.08217">
        <ele>1189</ele>
        <time>2022-07-26T13:59:40Z</time>
      </trkpt>
      <trkpt lat="44.09265" lon="7.08219">
        <ele>1189</ele>
        <time>2022-07-26T13:59:41Z</time>
      </trkpt>
      <trkpt lat="44.09265" lon="7.0822">
        <ele>1189</ele>
        <time>2022-07-26T13:59:42Z</time>
      </trkpt>
      <trkpt lat="44.09265" lon="7.08222">
        <ele>1189</ele>
        <time>2022-07-26T13:59:43Z</time>
      </trkpt>
      <trkpt lat="44.09265" lon="7.08224">
        <ele>1189</ele>
        <time>2022-07-26T13:59:44Z</time>
      </trkpt>
      <trkpt lat="44.09266" lon="7.08226">
        <ele>1189</ele>
        <time>2022-07-26T13:59:45Z</time>
      </trkpt>
      <trkpt lat="44.09266" lon="7.08228">
        <ele>1189</ele>
        <time>2022-07-26T13:59:46Z</time>
      </trkpt>
      <trkpt lat="44.09266" lon="7.0823">
        <ele>1189</ele>
        <time>2022-07-26T13:59:47Z</time>
      </trkpt>
      <trkpt lat="44.09266" lon="7.08232">
        <ele>1188</ele>
        <time>2022-07-26T13:59:48Z</time>
      </trkpt>
      <trkpt lat="44.09267" lon="7.08233">
        <ele>1188</ele>
        <time>2022-07-26T13:59:49Z</time>
      </trkpt>
      <trkpt lat="44.09267" lon="7.08235">
        <ele>1188</ele>
        <time>2022-07-26T13:59:50Z</time>
      </trkpt>
      <trkpt lat="44.09268" lon="7.08237">
        <ele>1188</ele>
        <time>2022-07-26T13:59:51Z</time>
      </trkpt>
      <trkpt lat="44.09268" lon="7.08239">
        <ele>1188</ele>
        <time>2022-07-26T13:59:52Z</time>
      </trkpt>
      <trkpt lat="44.09269" lon="7.0824">
        <ele>1188</ele>
        <time>2022-07-26T13:59:53Z</time>
      </trkpt>
      <trkpt lat="44.09269" lon="7.08242">
        <ele>1188</ele>
        <time>2022-07-26T13:59:54Z</time>
      </trkpt>
      <trkpt lat="44.0927" lon="7.08244">
        <ele>1188</ele>
        <time>2022-07-26T13:59:55Z</time>
      </trkpt>
      <trkpt lat="44.0927" lon="7.08245">
        <ele>1188</ele>
        <time>2022-07-26T13:59:56Z</time>
      </trkpt>
      <trkpt lat="44.0927" lon="7.08247">
        <ele>1188</ele>
        <time>2022-07-26T13:59:57Z</time>
      </trkpt>
      <trkpt lat="44.09271" lon="7.08248">
        <ele>1187</ele>
        <time>2022-07-26T13:59:58Z</time>
      </trkpt>
      <trkpt lat="44.09271" lon="7.0825">
        <ele>1187</ele>
        <time>2022-07-26T13:59:59Z</time>
      </trkpt>
      <trkpt lat="44.09271" lon="7.08252">
        <ele>1187</ele>
        <time>2022-07-26T14:00:00Z</time>
      </trkpt>
      <trkpt lat="44.09271" lon="7.08253">
        <ele>1187</ele>
        <time>2022-07-26T14:00:01Z</time>
      </trkpt>
      <trkpt lat="44.09271" lon="7.08255">
        <ele>1187</ele>
        <time>2022-07-26T14:00:02Z</time>
      </trkpt>
      <trkpt lat="44.09271" lon="7.08256">
        <ele>1186</ele>
        <time>2022-07-26T14:00:03Z</time>
      </trkpt>
      <trkpt lat="44.09271" lon="7.08258">
        <ele>1186</ele>
        <time>2022-07-26T14:00:04Z</time>
      </trkpt>
      <trkpt lat="44.0927" lon="7.0826">
        <ele>1186</ele>
        <time>2022-07-26T14:00:05Z</time>
      </trkpt>
      <trkpt lat="44.0927" lon="7.08261">
        <ele>1186</ele>
        <time>2022-07-26T14:00:06Z</time>
      </trkpt>
      <trkpt lat="44.0927" lon="7.08263">
        <ele>1186</ele>
        <time>2022-07-26T14:00:07Z</time>
      </trkpt>
      <trkpt lat="44.0927" lon="7.08264">
        <ele>1186</ele>
        <time>2022-07-26T14:00:08Z</time>
      </trkpt>
      <trkpt lat="44.0927" lon="7.08266">
        <ele>1186</ele>
        <time>2022-07-26T14:00:09Z</time>
      </trkpt>
      <trkpt lat="44.0927" lon="7.08267">
        <ele>1186</ele>
        <time>2022-07-26T14:00:10Z</time>
      </trkpt>
      <trkpt lat="44.0927" lon="7.08269">
        <ele>1186</ele>
        <time>2022-07-26T14:00:11Z</time>
      </trkpt>
      <trkpt lat="44.09269" lon="7.0827">
        <ele>1186</ele>
        <time>2022-07-26T14:00:12Z</time>
      </trkpt>
      <trkpt lat="44.09269" lon="7.08272">
        <ele>1186</ele>
        <time>2022-07-26T14:00:13Z</time>
      </trkpt>
      <trkpt lat="44.09269" lon="7.08273">
        <ele>1186</ele>
        <time>2022-07-26T14:00:14Z</time>
      </trkpt>
      <trkpt lat="44.09269" lon="7.08275">
        <ele>1186</ele>
        <time>2022-07-26T14:00:15Z</time>
      </trkpt>
      <trkpt lat="44.09269" lon="7.08276">
        <ele>1186</ele>
        <time>2022-07-26T14:00:16Z</time>
      </trkpt>
      <trkpt lat="44.09269" lon="7.08278">
        <ele>1186</ele>
        <time>2022-07-26T14:00:17Z</time>
      </trkpt>
      <trkpt lat="44.09268" lon="7.08279">
        <ele>1185</ele>
        <time>2022-07-26T14:00:18Z</time>
      </trkpt>
      <trkpt lat="44.09268" lon="7.08281">
        <ele>1185</ele>
        <time>2022-07-26T14:00:19Z</time>
      </trkpt>
      <trkpt lat="44.09268" lon="7.08282">
        <ele>1185</ele>
        <time>2022-07-26T14:00:20Z</time>
      </trkpt>
      <trkpt lat="44.09267" lon="7.08284">
        <ele>1185</ele>
        <time>2022-07-26T14:00:21Z</time>
      </trkpt>
      <trkpt lat="44.09267" lon="7.08286">
        <ele>1185</ele>
        <time>2022-07-26T14:00:22Z</time>
      </trkpt>
      <trkpt lat="44.09267" lon="7.08287">
        <ele>1185</ele>
        <time>2022-07-26T14:00:23Z</time>
      </trkpt>
      <trkpt lat="44.09267" lon="7.08289">
        <ele>1185</ele>
        <time>2022-07-26T14:00:24Z</time>
      </trkpt>
      <trkpt lat="44.09266" lon="7.0829">
        <ele>1185</ele>
        <time>2022-07-26T14:00:25Z</time>
      </trkpt>
      <trkpt lat="44.09266" lon="7.08292">
        <ele>1185</ele>
        <time>2022-07-26T14:00:26Z</time>
      </trkpt>
      <trkpt lat="44.09266" lon="7.08293">
        <ele>1185</ele>
        <time>2022-07-26T14:00:27Z</time>
      </trkpt>
      <trkpt lat="44.09265" lon="7.08294">
        <ele>1185</ele>
        <time>2022-07-26T14:00:28Z</time>
      </trkpt>
      <trkpt lat="44.09265" lon="7.08295">
        <ele>1185</ele>
        <time>2022-07-26T14:00:29Z</time>
      </trkpt>
      <trkpt lat="44.09265" lon="7.08296">
        <ele>1185</ele>
        <time>2022-07-26T14:00:30Z</time>
      </trkpt>
      <trkpt lat="44.09265" lon="7.08297">
        <ele>1185</ele>
        <time>2022-07-26T14:00:31Z</time>
      </trkpt>
      <trkpt lat="44.09265" lon="7.08298">
        <ele>1185</ele>
        <time>2022-07-26T14:00:32Z</time>
      </trkpt>
      <trkpt lat="44.09265" lon="7.083">
        <ele>1184</ele>
        <time>2022-07-26T14:00:33Z</time>
      </trkpt>
      <trkpt lat="44.09265" lon="7.08301">
        <ele>1184</ele>
        <time>2022-07-26T14:00:34Z</time>
      </trkpt>
      <trkpt lat="44.09265" lon="7.08303">
        <ele>1184</ele>
        <time>2022-07-26T14:00:35Z</time>
      </trkpt>
      <trkpt lat="44.09265" lon="7.08304">
        <ele>1184</ele>
        <time>2022-07-26T14:00:36Z</time>
      </trkpt>
      <trkpt lat="44.09265" lon="7.08306">
        <ele>1184</ele>
        <time>2022-07-26T14:00:37Z</time>
      </trkpt>
      <trkpt lat="44.09265" lon="7.08308">
        <ele>1183</ele>
        <time>2022-07-26T14:00:38Z</time>
      </trkpt>
      <trkpt lat="44.09265" lon="7.0831">
        <ele>1183</ele>
        <time>2022-07-26T14:00:39Z</time>
      </trkpt>
      <trkpt lat="44.09265" lon="7.08311">
        <ele>1183</ele>
        <time>2022-07-26T14:00:40Z</time>
      </trkpt>
      <trkpt lat="44.09265" lon="7.08313">
        <ele>1183</ele>
        <time>2022-07-26T14:00:41Z</time>
      </trkpt>
      <trkpt lat="44.09265" lon="7.08315">
        <ele>1183</ele>
        <time>2022-07-26T14:00:42Z</time>
      </trkpt>
      <trkpt lat="44.09266" lon="7.08316">
        <ele>1183</ele>
        <time>2022-07-26T14:00:43Z</time>
      </trkpt>
      <trkpt lat="44.09266" lon="7.08318">
        <ele>1183</ele>
        <time>2022-07-26T14:00:44Z</time>
      </trkpt>
      <trkpt lat="44.09266" lon="7.08319">
        <ele>1183</ele>
        <time>2022-07-26T14:00:45Z</time>
      </trkpt>
      <trkpt lat="44.09266" lon="7.08321">
        <ele>1183</ele>
        <time>2022-07-26T14:00:46Z</time>
      </trkpt>
      <trkpt lat="44.09266" lon="7.08323">
        <ele>1183</ele>
        <time>2022-07-26T14:00:47Z</time>
      </trkpt>
      <trkpt lat="44.09266" lon="7.08324">
        <ele>1182</ele>
        <time>2022-07-26T14:00:48Z</time>
      </trkpt>
      <trkpt lat="44.09266" lon="7.08325">
        <ele>1182</ele>
        <time>2022-07-26T14:00:49Z</time>
      </trkpt>
      <trkpt lat="44.09267" lon="7.08327">
        <ele>1182</ele>
        <time>2022-07-26T14:00:50Z</time>
      </trkpt>
      <trkpt lat="44.09267" lon="7.08328">
        <ele>1182</ele>
        <time>2022-07-26T14:00:51Z</time>
      </trkpt>
      <trkpt lat="44.09267" lon="7.08329">
        <ele>1182</ele>
        <time>2022-07-26T14:00:52Z</time>
      </trkpt>
      <trkpt lat="44.09267" lon="7.08331">
        <ele>1181</ele>
        <time>2022-07-26T14:00:53Z</time>
      </trkpt>
      <trkpt lat="44.09267" lon="7.08333">
        <ele>1181</ele>
        <time>2022-07-26T14:00:54Z</time>
      </trkpt>
      <trkpt lat="44.09267" lon="7.08334">
        <ele>1181</ele>
        <time>2022-07-26T14:00:55Z</time>
      </trkpt>
      <trkpt lat="44.09267" lon="7.08336">
        <ele>1181</ele>
        <time>2022-07-26T14:00:56Z</time>
      </trkpt>
      <trkpt lat="44.09268" lon="7.08338">
        <ele>1181</ele>
        <time>2022-07-26T14:00:57Z</time>
      </trkpt>
      <trkpt lat="44.09268" lon="7.0834">
        <ele>1181</ele>
        <time>2022-07-26T14:00:58Z</time>
      </trkpt>
      <trkpt lat="44.09268" lon="7.08341">
        <ele>1181</ele>
        <time>2022-07-26T14:00:59Z</time>
      </trkpt>
      <trkpt lat="44.09268" lon="7.08343">
        <ele>1181</ele>
        <time>2022-07-26T14:01:00Z</time>
      </trkpt>
      <trkpt lat="44.09269" lon="7.08345">
        <ele>1181</ele>
        <time>2022-07-26T14:01:01Z</time>
      </trkpt>
      <trkpt lat="44.09269" lon="7.08346">
        <ele>1181</ele>
        <time>2022-07-26T14:01:02Z</time>
      </trkpt>
      <trkpt lat="44.09269" lon="7.08347">
        <ele>1180</ele>
        <time>2022-07-26T14:01:03Z</time>
      </trkpt>
      <trkpt lat="44.09269" lon="7.08349">
        <ele>1180</ele>
        <time>2022-07-26T14:01:04Z</time>
      </trkpt>
      <trkpt lat="44.0927" lon="7.0835">
        <ele>1180</ele>
        <time>2022-07-26T14:01:05Z</time>
      </trkpt>
      <trkpt lat="44.0927" lon="7.08352">
        <ele>1180</ele>
        <time>2022-07-26T14:01:06Z</time>
      </trkpt>
      <trkpt lat="44.0927" lon="7.08353">
        <ele>1180</ele>
        <time>2022-07-26T14:01:07Z</time>
      </trkpt>
      <trkpt lat="44.0927" lon="7.08355">
        <ele>1180</ele>
        <time>2022-07-26T14:01:08Z</time>
      </trkpt>
      <trkpt lat="44.0927" lon="7.08356">
        <ele>1180</ele>
        <time>2022-07-26T14:01:09Z</time>
      </trkpt>
      <trkpt lat="44.0927" lon="7.08357">
        <ele>1180</ele>
        <time>2022-07-26T14:01:10Z</time>
      </trkpt>
      <trkpt lat="44.0927" lon="7.08358">
        <ele>1180</ele>
        <time>2022-07-26T14:01:11Z</time>
      </trkpt>
      <trkpt lat="44.0927" lon="7.08359">
        <ele>1180</ele>
        <time>2022-07-26T14:01:12Z</time>
      </trkpt>
      <trkpt lat="44.0927" lon="7.0836">
        <ele>1179</ele>
        <time>2022-07-26T14:01:13Z</time>
      </trkpt>
      <trkpt lat="44.0927" lon="7.08362">
        <ele>1179</ele>
        <time>2022-07-26T14:01:14Z</time>
      </trkpt>
      <trkpt lat="44.0927" lon="7.08363">
        <ele>1178</ele>
        <time>2022-07-26T14:01:15Z</time>
      </trkpt>
      <trkpt lat="44.09269" lon="7.08363">
        <ele>1178</ele>
        <time>2022-07-26T14:01:16Z</time>
      </trkpt>
      <trkpt lat="44.09269" lon="7.08365">
        <ele>1178</ele>
        <time>2022-07-26T14:01:17Z</time>
      </trkpt>
      <trkpt lat="44.09268" lon="7.08366">
        <ele>1178</ele>
        <time>2022-07-26T14:01:18Z</time>
      </trkpt>
      <trkpt lat="44.09268" lon="7.08367">
        <ele>1178</ele>
        <time>2022-07-26T14:01:19Z</time>
      </trkpt>
      <trkpt lat="44.09267" lon="7.08368">
        <ele>1178</ele>
        <time>2022-07-26T14:01:20Z</time>
      </trkpt>
      <trkpt lat="44.09267" lon="7.0837">
        <ele>1178</ele>
        <time>2022-07-26T14:01:21Z</time>
      </trkpt>
      <trkpt lat="44.09266" lon="7.08371">
        <ele>1178</ele>
        <time>2022-07-26T14:01:22Z</time>
      </trkpt>
      <trkpt lat="44.09266" lon="7.08372">
        <ele>1177</ele>
        <time>2022-07-26T14:01:23Z</time>
      </trkpt>
      <trkpt lat="44.09265" lon="7.08373">
        <ele>1177</ele>
        <time>2022-07-26T14:01:24Z</time>
      </trkpt>
      <trkpt lat="44.09264" lon="7.08374">
        <ele>1177</ele>
        <time>2022-07-26T14:01:25Z</time>
      </trkpt>
      <trkpt lat="44.09264" lon="7.08376">
        <ele>1177</ele>
        <time>2022-07-26T14:01:26Z</time>
      </trkpt>
      <trkpt lat="44.09263" lon="7.08377">
        <ele>1177</ele>
        <time>2022-07-26T14:01:27Z</time>
      </trkpt>
      <trkpt lat="44.09263" lon="7.08378">
        <ele>1177</ele>
        <time>2022-07-26T14:01:28Z</time>
      </trkpt>
      <trkpt lat="44.09262" lon="7.08379">
        <ele>1177</ele>
        <time>2022-07-26T14:01:29Z</time>
      </trkpt>
      <trkpt lat="44.09262" lon="7.0838">
        <ele>1177</ele>
        <time>2022-07-26T14:01:30Z</time>
      </trkpt>
      <trkpt lat="44.09261" lon="7.08382">
        <ele>1177</ele>
        <time>2022-07-26T14:01:31Z</time>
      </trkpt>
      <trkpt lat="44.0926" lon="7.08383">
        <ele>1177</ele>
        <time>2022-07-26T14:01:32Z</time>
      </trkpt>
      <trkpt lat="44.0926" lon="7.08384">
        <ele>1176</ele>
        <time>2022-07-26T14:01:33Z</time>
      </trkpt>
      <trkpt lat="44.09259" lon="7.08385">
        <ele>1176</ele>
        <time>2022-07-26T14:01:34Z</time>
      </trkpt>
      <trkpt lat="44.09259" lon="7.08387">
        <ele>1176</ele>
        <time>2022-07-26T14:01:35Z</time>
      </trkpt>
      <trkpt lat="44.09258" lon="7.08388">
        <ele>1176</ele>
        <time>2022-07-26T14:01:36Z</time>
      </trkpt>
      <trkpt lat="44.09257" lon="7.0839">
        <ele>1176</ele>
        <time>2022-07-26T14:01:37Z</time>
      </trkpt>
      <trkpt lat="44.09257" lon="7.08392">
        <ele>1175</ele>
        <time>2022-07-26T14:01:38Z</time>
      </trkpt>
      <trkpt lat="44.09256" lon="7.08393">
        <ele>1175</ele>
        <time>2022-07-26T14:01:39Z</time>
      </trkpt>
      <trkpt lat="44.09256" lon="7.08395">
        <ele>1175</ele>
        <time>2022-07-26T14:01:40Z</time>
      </trkpt>
      <trkpt lat="44.09256" lon="7.08396">
        <ele>1175</ele>
        <time>2022-07-26T14:01:41Z</time>
      </trkpt>
      <trkpt lat="44.09255" lon="7.08398">
        <ele>1175</ele>
        <time>2022-07-26T14:01:42Z</time>
      </trkpt>
      <trkpt lat="44.09255" lon="7.084">
        <ele>1175</ele>
        <time>2022-07-26T14:01:43Z</time>
      </trkpt>
      <trkpt lat="44.09255" lon="7.08401">
        <ele>1175</ele>
        <time>2022-07-26T14:01:44Z</time>
      </trkpt>
      <trkpt lat="44.09254" lon="7.08403">
        <ele>1175</ele>
        <time>2022-07-26T14:01:45Z</time>
      </trkpt>
      <trkpt lat="44.09254" lon="7.08404">
        <ele>1175</ele>
        <time>2022-07-26T14:01:46Z</time>
      </trkpt>
      <trkpt lat="44.09254" lon="7.08406">
        <ele>1175</ele>
        <time>2022-07-26T14:01:47Z</time>
      </trkpt>
      <trkpt lat="44.09253" lon="7.08408">
        <ele>1174</ele>
        <time>2022-07-26T14:01:48Z</time>
      </trkpt>
      <trkpt lat="44.09253" lon="7.0841">
        <ele>1174</ele>
        <time>2022-07-26T14:01:49Z</time>
      </trkpt>
      <trkpt lat="44.09253" lon="7.08411">
        <ele>1174</ele>
        <time>2022-07-26T14:01:50Z</time>
      </trkpt>
      <trkpt lat="44.09252" lon="7.08413">
        <ele>1174</ele>
        <time>2022-07-26T14:01:51Z</time>
      </trkpt>
      <trkpt lat="44.09252" lon="7.08414">
        <ele>1174</ele>
        <time>2022-07-26T14:01:52Z</time>
      </trkpt>
      <trkpt lat="44.09252" lon="7.08415">
        <ele>1173</ele>
        <time>2022-07-26T14:01:53Z</time>
      </trkpt>
      <trkpt lat="44.09252" lon="7.08416">
        <ele>1173</ele>
        <time>2022-07-26T14:01:54Z</time>
      </trkpt>
      <trkpt lat="44.09251" lon="7.08417">
        <ele>1173</ele>
        <time>2022-07-26T14:01:55Z</time>
      </trkpt>
      <trkpt lat="44.09251" lon="7.08418">
        <ele>1173</ele>
        <time>2022-07-26T14:01:56Z</time>
      </trkpt>
      <trkpt lat="44.0925" lon="7.08419">
        <ele>1173</ele>
        <time>2022-07-26T14:01:57Z</time>
      </trkpt>
      <trkpt lat="44.09249" lon="7.0842">
        <ele>1173</ele>
        <time>2022-07-26T14:01:58Z</time>
      </trkpt>
      <trkpt lat="44.09249" lon="7.08421">
        <ele>1173</ele>
        <time>2022-07-26T14:01:59Z</time>
      </trkpt>
      <trkpt lat="44.09248" lon="7.08422">
        <ele>1173</ele>
        <time>2022-07-26T14:02:00Z</time>
      </trkpt>
      <trkpt lat="44.09247" lon="7.08424">
        <ele>1173</ele>
        <time>2022-07-26T14:02:01Z</time>
      </trkpt>
      <trkpt lat="44.09247" lon="7.08425">
        <ele>1173</ele>
        <time>2022-07-26T14:02:02Z</time>
      </trkpt>
      <trkpt lat="44.09246" lon="7.08427">
        <ele>1172</ele>
        <time>2022-07-26T14:02:03Z</time>
      </trkpt>
      <trkpt lat="44.09245" lon="7.08428">
        <ele>1172</ele>
        <time>2022-07-26T14:02:04Z</time>
      </trkpt>
      <trkpt lat="44.09245" lon="7.0843">
        <ele>1172</ele>
        <time>2022-07-26T14:02:05Z</time>
      </trkpt>
      <trkpt lat="44.09244" lon="7.08431">
        <ele>1172</ele>
        <time>2022-07-26T14:02:06Z</time>
      </trkpt>
      <trkpt lat="44.09244" lon="7.08433">
        <ele>1172</ele>
        <time>2022-07-26T14:02:07Z</time>
      </trkpt>
      <trkpt lat="44.09243" lon="7.08434">
        <ele>1172</ele>
        <time>2022-07-26T14:02:08Z</time>
      </trkpt>
      <trkpt lat="44.09243" lon="7.08436">
        <ele>1172</ele>
        <time>2022-07-26T14:02:09Z</time>
      </trkpt>
      <trkpt lat="44.09243" lon="7.08438">
        <ele>1172</ele>
        <time>2022-07-26T14:02:10Z</time>
      </trkpt>
      <trkpt lat="44.09242" lon="7.08439">
        <ele>1172</ele>
        <time>2022-07-26T14:02:11Z</time>
      </trkpt>
      <trkpt lat="44.09242" lon="7.08441">
        <ele>1172</ele>
        <time>2022-07-26T14:02:12Z</time>
      </trkpt>
      <trkpt lat="44.09242" lon="7.08443">
        <ele>1171</ele>
        <time>2022-07-26T14:02:13Z</time>
      </trkpt>
      <trkpt lat="44.09242" lon="7.08445">
        <ele>1171</ele>
        <time>2022-07-26T14:02:14Z</time>
      </trkpt>
      <trkpt lat="44.09242" lon="7.08447">
        <ele>1171</ele>
        <time>2022-07-26T14:02:15Z</time>
      </trkpt>
      <trkpt lat="44.09242" lon="7.08449">
        <ele>1171</ele>
        <time>2022-07-26T14:02:16Z</time>
      </trkpt>
      <trkpt lat="44.09242" lon="7.0845">
        <ele>1171</ele>
        <time>2022-07-26T14:02:17Z</time>
      </trkpt>
      <trkpt lat="44.09242" lon="7.08452">
        <ele>1171</ele>
        <time>2022-07-26T14:02:18Z</time>
      </trkpt>
      <trkpt lat="44.09241" lon="7.08453">
        <ele>1171</ele>
        <time>2022-07-26T14:02:19Z</time>
      </trkpt>
      <trkpt lat="44.09241" lon="7.08455">
        <ele>1171</ele>
        <time>2022-07-26T14:02:20Z</time>
      </trkpt>
      <trkpt lat="44.0924" lon="7.08456">
        <ele>1171</ele>
        <time>2022-07-26T14:02:21Z</time>
      </trkpt>
      <trkpt lat="44.0924" lon="7.08458">
        <ele>1171</ele>
        <time>2022-07-26T14:02:22Z</time>
      </trkpt>
      <trkpt lat="44.09239" lon="7.08459">
        <ele>1170</ele>
        <time>2022-07-26T14:02:23Z</time>
      </trkpt>
      <trkpt lat="44.09239" lon="7.08461">
        <ele>1170</ele>
        <time>2022-07-26T14:02:24Z</time>
      </trkpt>
      <trkpt lat="44.09238" lon="7.08462">
        <ele>1170</ele>
        <time>2022-07-26T14:02:25Z</time>
      </trkpt>
      <trkpt lat="44.09237" lon="7.08464">
        <ele>1170</ele>
        <time>2022-07-26T14:02:26Z</time>
      </trkpt>
      <trkpt lat="44.09237" lon="7.08465">
        <ele>1170</ele>
        <time>2022-07-26T14:02:27Z</time>
      </trkpt>
      <trkpt lat="44.09236" lon="7.08466">
        <ele>1170</ele>
        <time>2022-07-26T14:02:28Z</time>
      </trkpt>
      <trkpt lat="44.09236" lon="7.08468">
        <ele>1170</ele>
        <time>2022-07-26T14:02:29Z</time>
      </trkpt>
      <trkpt lat="44.09235" lon="7.0847">
        <ele>1170</ele>
        <time>2022-07-26T14:02:30Z</time>
      </trkpt>
      <trkpt lat="44.09235" lon="7.08471">
        <ele>1170</ele>
        <time>2022-07-26T14:02:31Z</time>
      </trkpt>
      <trkpt lat="44.09234" lon="7.08473">
        <ele>1170</ele>
        <time>2022-07-26T14:02:32Z</time>
      </trkpt>
      <trkpt lat="44.09233" lon="7.08474">
        <ele>1169</ele>
        <time>2022-07-26T14:02:33Z</time>
      </trkpt>
      <trkpt lat="44.09232" lon="7.08476">
        <ele>1169</ele>
        <time>2022-07-26T14:02:34Z</time>
      </trkpt>
      <trkpt lat="44.09231" lon="7.08477">
        <ele>1169</ele>
        <time>2022-07-26T14:02:35Z</time>
      </trkpt>
      <trkpt lat="44.0923" lon="7.08478">
        <ele>1169</ele>
        <time>2022-07-26T14:02:36Z</time>
      </trkpt>
      <trkpt lat="44.09229" lon="7.0848">
        <ele>1169</ele>
        <time>2022-07-26T14:02:37Z</time>
      </trkpt>
      <trkpt lat="44.09228" lon="7.08481">
        <ele>1169</ele>
        <time>2022-07-26T14:02:38Z</time>
      </trkpt>
      <trkpt lat="44.09227" lon="7.08482">
        <ele>1169</ele>
        <time>2022-07-26T14:02:39Z</time>
      </trkpt>
      <trkpt lat="44.09226" lon="7.08483">
        <ele>1169</ele>
        <time>2022-07-26T14:02:40Z</time>
      </trkpt>
      <trkpt lat="44.09225" lon="7.08484">
        <ele>1169</ele>
        <time>2022-07-26T14:02:41Z</time>
      </trkpt>
      <trkpt lat="44.09224" lon="7.08486">
        <ele>1169</ele>
        <time>2022-07-26T14:02:42Z</time>
      </trkpt>
      <trkpt lat="44.09223" lon="7.08486">
        <ele>1169</ele>
        <time>2022-07-26T14:02:43Z</time>
      </trkpt>
      <trkpt lat="44.09222" lon="7.08487">
        <ele>1169</ele>
        <time>2022-07-26T14:02:44Z</time>
      </trkpt>
      <trkpt lat="44.09221" lon="7.08488">
        <ele>1169</ele>
        <time>2022-07-26T14:02:45Z</time>
      </trkpt>
      <trkpt lat="44.09219" lon="7.08488">
        <ele>1169</ele>
        <time>2022-07-26T14:02:46Z</time>
      </trkpt>
      <trkpt lat="44.09218" lon="7.08489">
        <ele>1169</ele>
        <time>2022-07-26T14:02:47Z</time>
      </trkpt>
      <trkpt lat="44.09217" lon="7.08489">
        <ele>1168</ele>
        <time>2022-07-26T14:02:48Z</time>
      </trkpt>
      <trkpt lat="44.09216" lon="7.08489">
        <ele>1168</ele>
        <time>2022-07-26T14:02:49Z</time>
      </trkpt>
      <trkpt lat="44.09215" lon="7.0849">
        <ele>1168</ele>
        <time>2022-07-26T14:02:50Z</time>
      </trkpt>
      <trkpt lat="44.09214" lon="7.0849">
        <ele>1168</ele>
        <time>2022-07-26T14:02:51Z</time>
      </trkpt>
      <trkpt lat="44.09213" lon="7.08491">
        <ele>1168</ele>
        <time>2022-07-26T14:02:52Z</time>
      </trkpt>
      <trkpt lat="44.09213" lon="7.08491">
        <ele>1168</ele>
        <time>2022-07-26T14:02:53Z</time>
      </trkpt>
      <trkpt lat="44.09212" lon="7.08492">
        <ele>1168</ele>
        <time>2022-07-26T14:02:54Z</time>
      </trkpt>
      <trkpt lat="44.09211" lon="7.08492">
        <ele>1168</ele>
        <time>2022-07-26T14:02:55Z</time>
      </trkpt>
      <trkpt lat="44.09209" lon="7.08492">
        <ele>1168</ele>
        <time>2022-07-26T14:02:56Z</time>
      </trkpt>
      <trkpt lat="44.09208" lon="7.08492">
        <ele>1168</ele>
        <time>2022-07-26T14:02:57Z</time>
      </trkpt>
      <trkpt lat="44.09207" lon="7.08493">
        <ele>1168</ele>
        <time>2022-07-26T14:02:58Z</time>
      </trkpt>
      <trkpt lat="44.09205" lon="7.08493">
        <ele>1168</ele>
        <time>2022-07-26T14:02:59Z</time>
      </trkpt>
      <trkpt lat="44.09204" lon="7.08493">
        <ele>1168</ele>
        <time>2022-07-26T14:03:00Z</time>
      </trkpt>
      <trkpt lat="44.09203" lon="7.08493">
        <ele>1168</ele>
        <time>2022-07-26T14:03:01Z</time>
      </trkpt>
      <trkpt lat="44.09201" lon="7.08493">
        <ele>1168</ele>
        <time>2022-07-26T14:03:02Z</time>
      </trkpt>
      <trkpt lat="44.092" lon="7.08494">
        <ele>1167</ele>
        <time>2022-07-26T14:03:03Z</time>
      </trkpt>
      <trkpt lat="44.09199" lon="7.08494">
        <ele>1167</ele>
        <time>2022-07-26T14:03:04Z</time>
      </trkpt>
      <trkpt lat="44.09198" lon="7.08495">
        <ele>1167</ele>
        <time>2022-07-26T14:03:05Z</time>
      </trkpt>
      <trkpt lat="44.09196" lon="7.08495">
        <ele>1167</ele>
        <time>2022-07-26T14:03:06Z</time>
      </trkpt>
      <trkpt lat="44.09195" lon="7.08496">
        <ele>1167</ele>
        <time>2022-07-26T14:03:07Z</time>
      </trkpt>
      <trkpt lat="44.09194" lon="7.08496">
        <ele>1167</ele>
        <time>2022-07-26T14:03:08Z</time>
      </trkpt>
      <trkpt lat="44.09193" lon="7.08497">
        <ele>1167</ele>
        <time>2022-07-26T14:03:09Z</time>
      </trkpt>
      <trkpt lat="44.09192" lon="7.08498">
        <ele>1167</ele>
        <time>2022-07-26T14:03:10Z</time>
      </trkpt>
      <trkpt lat="44.09191" lon="7.08499">
        <ele>1167</ele>
        <time>2022-07-26T14:03:11Z</time>
      </trkpt>
      <trkpt lat="44.0919" lon="7.085">
        <ele>1167</ele>
        <time>2022-07-26T14:03:12Z</time>
      </trkpt>
      <trkpt lat="44.09189" lon="7.08501">
        <ele>1167</ele>
        <time>2022-07-26T14:03:13Z</time>
      </trkpt>
      <trkpt lat="44.09188" lon="7.08502">
        <ele>1167</ele>
        <time>2022-07-26T14:03:14Z</time>
      </trkpt>
      <trkpt lat="44.09187" lon="7.08503">
        <ele>1167</ele>
        <time>2022-07-26T14:03:15Z</time>
      </trkpt>
      <trkpt lat="44.09187" lon="7.08505">
        <ele>1167</ele>
        <time>2022-07-26T14:03:16Z</time>
      </trkpt>
      <trkpt lat="44.09186" lon="7.08506">
        <ele>1167</ele>
        <time>2022-07-26T14:03:17Z</time>
      </trkpt>
      <trkpt lat="44.09185" lon="7.08507">
        <ele>1167</ele>
        <time>2022-07-26T14:03:18Z</time>
      </trkpt>
      <trkpt lat="44.09185" lon="7.08508">
        <ele>1167</ele>
        <time>2022-07-26T14:03:19Z</time>
      </trkpt>
      <trkpt lat="44.09184" lon="7.0851">
        <ele>1167</ele>
        <time>2022-07-26T14:03:20Z</time>
      </trkpt>
      <trkpt lat="44.09184" lon="7.08511">
        <ele>1167</ele>
        <time>2022-07-26T14:03:21Z</time>
      </trkpt>
      <trkpt lat="44.09183" lon="7.08512">
        <ele>1167</ele>
        <time>2022-07-26T14:03:22Z</time>
      </trkpt>
      <trkpt lat="44.09183" lon="7.08513">
        <ele>1166</ele>
        <time>2022-07-26T14:03:23Z</time>
      </trkpt>
      <trkpt lat="44.09182" lon="7.08514">
        <ele>1166</ele>
        <time>2022-07-26T14:03:24Z</time>
      </trkpt>
      <trkpt lat="44.09182" lon="7.08515">
        <ele>1166</ele>
        <time>2022-07-26T14:03:25Z</time>
      </trkpt>
      <trkpt lat="44.09181" lon="7.08516">
        <ele>1166</ele>
        <time>2022-07-26T14:03:26Z</time>
      </trkpt>
      <trkpt lat="44.09181" lon="7.08517">
        <ele>1166</ele>
        <time>2022-07-26T14:03:27Z</time>
      </trkpt>
      <trkpt lat="44.0918" lon="7.08518">
        <ele>1166</ele>
        <time>2022-07-26T14:03:28Z</time>
      </trkpt>
      <trkpt lat="44.0918" lon="7.08519">
        <ele>1166</ele>
        <time>2022-07-26T14:03:29Z</time>
      </trkpt>
      <trkpt lat="44.09179" lon="7.08521">
        <ele>1166</ele>
        <time>2022-07-26T14:03:30Z</time>
      </trkpt>
      <trkpt lat="44.09178" lon="7.08522">
        <ele>1166</ele>
        <time>2022-07-26T14:03:31Z</time>
      </trkpt>
      <trkpt lat="44.09177" lon="7.08523">
        <ele>1166</ele>
        <time>2022-07-26T14:03:32Z</time>
      </trkpt>
      <trkpt lat="44.09176" lon="7.08524">
        <ele>1166</ele>
        <time>2022-07-26T14:03:33Z</time>
      </trkpt>
      <trkpt lat="44.09175" lon="7.08525">
        <ele>1166</ele>
        <time>2022-07-26T14:03:34Z</time>
      </trkpt>
      <trkpt lat="44.09174" lon="7.08526">
        <ele>1166</ele>
        <time>2022-07-26T14:03:35Z</time>
      </trkpt>
      <trkpt lat="44.09173" lon="7.08527">
        <ele>1166</ele>
        <time>2022-07-26T14:03:36Z</time>
      </trkpt>
      <trkpt lat="44.09172" lon="7.08528">
        <ele>1166</ele>
        <time>2022-07-26T14:03:37Z</time>
      </trkpt>
      <trkpt lat="44.0917" lon="7.08529">
        <ele>1166</ele>
        <time>2022-07-26T14:03:38Z</time>
      </trkpt>
      <trkpt lat="44.09169" lon="7.08529">
        <ele>1166</ele>
        <time>2022-07-26T14:03:39Z</time>
      </trkpt>
      <trkpt lat="44.09168" lon="7.0853">
        <ele>1166</ele>
        <time>2022-07-26T14:03:40Z</time>
      </trkpt>
      <trkpt lat="44.09167" lon="7.08531">
        <ele>1166</ele>
        <time>2022-07-26T14:03:41Z</time>
      </trkpt>
      <trkpt lat="44.09166" lon="7.08532">
        <ele>1166</ele>
        <time>2022-07-26T14:03:42Z</time>
      </trkpt>
      <trkpt lat="44.09164" lon="7.08533">
        <ele>1166</ele>
        <time>2022-07-26T14:03:43Z</time>
      </trkpt>
      <trkpt lat="44.09163" lon="7.08534">
        <ele>1166</ele>
        <time>2022-07-26T14:03:44Z</time>
      </trkpt>
      <trkpt lat="44.09162" lon="7.08535">
        <ele>1166</ele>
        <time>2022-07-26T14:03:45Z</time>
      </trkpt>
      <trkpt lat="44.09161" lon="7.08536">
        <ele>1166</ele>
        <time>2022-07-26T14:03:46Z</time>
      </trkpt>
      <trkpt lat="44.0916" lon="7.08537">
        <ele>1166</ele>
        <time>2022-07-26T14:03:47Z</time>
      </trkpt>
      <trkpt lat="44.09159" lon="7.08538">
        <ele>1166</ele>
        <time>2022-07-26T14:03:48Z</time>
      </trkpt>
      <trkpt lat="44.09158" lon="7.08539">
        <ele>1166</ele>
        <time>2022-07-26T14:03:49Z</time>
      </trkpt>
      <trkpt lat="44.09157" lon="7.0854">
        <ele>1166</ele>
        <time>2022-07-26T14:03:50Z</time>
      </trkpt>
      <trkpt lat="44.09157" lon="7.08541">
        <ele>1166</ele>
        <time>2022-07-26T14:03:51Z</time>
      </trkpt>
      <trkpt lat="44.09156" lon="7.08542">
        <ele>1166</ele>
        <time>2022-07-26T14:03:52Z</time>
      </trkpt>
      <trkpt lat="44.09155" lon="7.08543">
        <ele>1166</ele>
        <time>2022-07-26T14:03:53Z</time>
      </trkpt>
      <trkpt lat="44.09154" lon="7.08544">
        <ele>1166</ele>
        <time>2022-07-26T14:03:54Z</time>
      </trkpt>
      <trkpt lat="44.09154" lon="7.08544">
        <ele>1166</ele>
        <time>2022-07-26T14:03:55Z</time>
      </trkpt>
      <trkpt lat="44.09153" lon="7.08545">
        <ele>1166</ele>
        <time>2022-07-26T14:03:56Z</time>
      </trkpt>
      <trkpt lat="44.09152" lon="7.08547">
        <ele>1167</ele>
        <time>2022-07-26T14:04:31Z</time>
      </trkpt>
      <trkpt lat="44.09151" lon="7.08547">
        <ele>1167</ele>
        <time>2022-07-26T14:04:32Z</time>
      </trkpt>
      <trkpt lat="44.0915" lon="7.08548">
        <ele>1167</ele>
        <time>2022-07-26T14:04:33Z</time>
      </trkpt>
      <trkpt lat="44.09149" lon="7.08549">
        <ele>1167</ele>
        <time>2022-07-26T14:04:34Z</time>
      </trkpt>
      <trkpt lat="44.09149" lon="7.08549">
        <ele>1167</ele>
        <time>2022-07-26T14:04:35Z</time>
      </trkpt>
      <trkpt lat="44.09148" lon="7.08549">
        <ele>1167</ele>
        <time>2022-07-26T14:04:36Z</time>
      </trkpt>
      <trkpt lat="44.09148" lon="7.0855">
        <ele>1167</ele>
        <time>2022-07-26T14:04:37Z</time>
      </trkpt>
      <trkpt lat="44.09147" lon="7.0855">
        <ele>1167</ele>
        <time>2022-07-26T14:04:38Z</time>
      </trkpt>
      <trkpt lat="44.09146" lon="7.0855">
        <ele>1167</ele>
        <time>2022-07-26T14:04:39Z</time>
      </trkpt>
      <trkpt lat="44.09146" lon="7.08551">
        <ele>1167</ele>
        <time>2022-07-26T14:04:40Z</time>
      </trkpt>
      <trkpt lat="44.09145" lon="7.08551">
        <ele>1167</ele>
        <time>2022-07-26T14:04:41Z</time>
      </trkpt>
      <trkpt lat="44.09144" lon="7.08552">
        <ele>1167</ele>
        <time>2022-07-26T14:04:42Z</time>
      </trkpt>
      <trkpt lat="44.09143" lon="7.08552">
        <ele>1167</ele>
        <time>2022-07-26T14:04:43Z</time>
      </trkpt>
      <trkpt lat="44.09142" lon="7.08553">
        <ele>1167</ele>
        <time>2022-07-26T14:04:44Z</time>
      </trkpt>
      <trkpt lat="44.09141" lon="7.08553">
        <ele>1167</ele>
        <time>2022-07-26T14:04:45Z</time>
      </trkpt>
      <trkpt lat="44.0914" lon="7.08554">
        <ele>1167</ele>
        <time>2022-07-26T14:04:46Z</time>
      </trkpt>
      <trkpt lat="44.09139" lon="7.08555">
        <ele>1167</ele>
        <time>2022-07-26T14:04:47Z</time>
      </trkpt>
      <trkpt lat="44.09138" lon="7.08555">
        <ele>1166</ele>
        <time>2022-07-26T14:04:48Z</time>
      </trkpt>
      <trkpt lat="44.09137" lon="7.08556">
        <ele>1166</ele>
        <time>2022-07-26T14:04:49Z</time>
      </trkpt>
      <trkpt lat="44.09136" lon="7.08557">
        <ele>1166</ele>
        <time>2022-07-26T14:04:50Z</time>
      </trkpt>
      <trkpt lat="44.09135" lon="7.08557">
        <ele>1166</ele>
        <time>2022-07-26T14:04:51Z</time>
      </trkpt>
      <trkpt lat="44.09135" lon="7.08558">
        <ele>1166</ele>
        <time>2022-07-26T14:04:52Z</time>
      </trkpt>
      <trkpt lat="44.09134" lon="7.08558">
        <ele>1166</ele>
        <time>2022-07-26T14:04:53Z</time>
      </trkpt>
      <trkpt lat="44.09133" lon="7.08559">
        <ele>1166</ele>
        <time>2022-07-26T14:04:54Z</time>
      </trkpt>
      <trkpt lat="44.09132" lon="7.08559">
        <ele>1166</ele>
        <time>2022-07-26T14:04:55Z</time>
      </trkpt>
      <trkpt lat="44.09131" lon="7.0856">
        <ele>1166</ele>
        <time>2022-07-26T14:04:56Z</time>
      </trkpt>
      <trkpt lat="44.0913" lon="7.0856">
        <ele>1166</ele>
        <time>2022-07-26T14:04:57Z</time>
      </trkpt>
      <trkpt lat="44.09129" lon="7.0856">
        <ele>1165</ele>
        <time>2022-07-26T14:04:58Z</time>
      </trkpt>
      <trkpt lat="44.09128" lon="7.08561">
        <ele>1165</ele>
        <time>2022-07-26T14:04:59Z</time>
      </trkpt>
      <trkpt lat="44.09127" lon="7.08561">
        <ele>1165</ele>
        <time>2022-07-26T14:05:00Z</time>
      </trkpt>
      <trkpt lat="44.09126" lon="7.08562">
        <ele>1165</ele>
        <time>2022-07-26T14:05:01Z</time>
      </trkpt>
      <trkpt lat="44.09125" lon="7.08562">
        <ele>1165</ele>
        <time>2022-07-26T14:05:02Z</time>
      </trkpt>
      <trkpt lat="44.09123" lon="7.08563">
        <ele>1165</ele>
        <time>2022-07-26T14:05:03Z</time>
      </trkpt>
      <trkpt lat="44.09122" lon="7.08563">
        <ele>1165</ele>
        <time>2022-07-26T14:05:04Z</time>
      </trkpt>
      <trkpt lat="44.09121" lon="7.08564">
        <ele>1165</ele>
        <time>2022-07-26T14:05:05Z</time>
      </trkpt>
      <trkpt lat="44.0912" lon="7.08564">
        <ele>1165</ele>
        <time>2022-07-26T14:05:06Z</time>
      </trkpt>
      <trkpt lat="44.09119" lon="7.08564">
        <ele>1165</ele>
        <time>2022-07-26T14:05:07Z</time>
      </trkpt>
      <trkpt lat="44.09117" lon="7.08565">
        <ele>1164</ele>
        <time>2022-07-26T14:05:08Z</time>
      </trkpt>
      <trkpt lat="44.09116" lon="7.08565">
        <ele>1164</ele>
        <time>2022-07-26T14:05:09Z</time>
      </trkpt>
      <trkpt lat="44.09115" lon="7.08566">
        <ele>1164</ele>
        <time>2022-07-26T14:05:10Z</time>
      </trkpt>
      <trkpt lat="44.09114" lon="7.08566">
        <ele>1164</ele>
        <time>2022-07-26T14:05:11Z</time>
      </trkpt>
      <trkpt lat="44.09113" lon="7.08567">
        <ele>1164</ele>
        <time>2022-07-26T14:05:12Z</time>
      </trkpt>
      <trkpt lat="44.09112" lon="7.08568">
        <ele>1163</ele>
        <time>2022-07-26T14:05:13Z</time>
      </trkpt>
      <trkpt lat="44.09111" lon="7.08568">
        <ele>1163</ele>
        <time>2022-07-26T14:05:14Z</time>
      </trkpt>
      <trkpt lat="44.0911" lon="7.08569">
        <ele>1163</ele>
        <time>2022-07-26T14:05:15Z</time>
      </trkpt>
      <trkpt lat="44.09109" lon="7.0857">
        <ele>1163</ele>
        <time>2022-07-26T14:05:16Z</time>
      </trkpt>
      <trkpt lat="44.09108" lon="7.0857">
        <ele>1163</ele>
        <time>2022-07-26T14:05:17Z</time>
      </trkpt>
      <trkpt lat="44.09107" lon="7.0857">
        <ele>1163</ele>
        <time>2022-07-26T14:05:18Z</time>
      </trkpt>
      <trkpt lat="44.09106" lon="7.08571">
        <ele>1163</ele>
        <time>2022-07-26T14:05:19Z</time>
      </trkpt>
      <trkpt lat="44.09105" lon="7.0857">
        <ele>1163</ele>
        <time>2022-07-26T14:05:20Z</time>
      </trkpt>
      <trkpt lat="44.09103" lon="7.0857">
        <ele>1163</ele>
        <time>2022-07-26T14:05:21Z</time>
      </trkpt>
      <trkpt lat="44.09102" lon="7.0857">
        <ele>1163</ele>
        <time>2022-07-26T14:05:22Z</time>
      </trkpt>
      <trkpt lat="44.09101" lon="7.08569">
        <ele>1162</ele>
        <time>2022-07-26T14:05:23Z</time>
      </trkpt>
      <trkpt lat="44.09099" lon="7.08568">
        <ele>1162</ele>
        <time>2022-07-26T14:05:24Z</time>
      </trkpt>
      <trkpt lat="44.09098" lon="7.08568">
        <ele>1161</ele>
        <time>2022-07-26T14:05:25Z</time>
      </trkpt>
      <trkpt lat="44.09097" lon="7.08567">
        <ele>1161</ele>
        <time>2022-07-26T14:05:26Z</time>
      </trkpt>
      <trkpt lat="44.09096" lon="7.08567">
        <ele>1161</ele>
        <time>2022-07-26T14:05:27Z</time>
      </trkpt>
      <trkpt lat="44.09095" lon="7.08566">
        <ele>1161</ele>
        <time>2022-07-26T14:05:28Z</time>
      </trkpt>
      <trkpt lat="44.09094" lon="7.08566">
        <ele>1161</ele>
        <time>2022-07-26T14:05:29Z</time>
      </trkpt>
      <trkpt lat="44.09093" lon="7.08565">
        <ele>1161</ele>
        <time>2022-07-26T14:05:30Z</time>
      </trkpt>
      <trkpt lat="44.09092" lon="7.08565">
        <ele>1161</ele>
        <time>2022-07-26T14:05:31Z</time>
      </trkpt>
      <trkpt lat="44.09091" lon="7.08564">
        <ele>1161</ele>
        <time>2022-07-26T14:05:32Z</time>
      </trkpt>
      <trkpt lat="44.0909" lon="7.08563">
        <ele>1160</ele>
        <time>2022-07-26T14:05:33Z</time>
      </trkpt>
      <trkpt lat="44.09089" lon="7.08563">
        <ele>1160</ele>
        <time>2022-07-26T14:05:34Z</time>
      </trkpt>
      <trkpt lat="44.09088" lon="7.08562">
        <ele>1160</ele>
        <time>2022-07-26T14:05:35Z</time>
      </trkpt>
      <trkpt lat="44.09087" lon="7.08561">
        <ele>1160</ele>
        <time>2022-07-26T14:05:36Z</time>
      </trkpt>
      <trkpt lat="44.09086" lon="7.0856">
        <ele>1160</ele>
        <time>2022-07-26T14:05:37Z</time>
      </trkpt>
      <trkpt lat="44.09084" lon="7.0856">
        <ele>1159</ele>
        <time>2022-07-26T14:05:38Z</time>
      </trkpt>
      <trkpt lat="44.09083" lon="7.08559">
        <ele>1159</ele>
        <time>2022-07-26T14:05:39Z</time>
      </trkpt>
      <trkpt lat="44.09082" lon="7.08559">
        <ele>1159</ele>
        <time>2022-07-26T14:05:40Z</time>
      </trkpt>
      <trkpt lat="44.0908" lon="7.08559">
        <ele>1159</ele>
        <time>2022-07-26T14:05:41Z</time>
      </trkpt>
      <trkpt lat="44.09079" lon="7.08559">
        <ele>1159</ele>
        <time>2022-07-26T14:05:42Z</time>
      </trkpt>
      <trkpt lat="44.09078" lon="7.08559">
        <ele>1159</ele>
        <time>2022-07-26T14:05:43Z</time>
      </trkpt>
      <trkpt lat="44.09077" lon="7.08559">
        <ele>1159</ele>
        <time>2022-07-26T14:05:44Z</time>
      </trkpt>
      <trkpt lat="44.09076" lon="7.08559">
        <ele>1159</ele>
        <time>2022-07-26T14:05:45Z</time>
      </trkpt>
      <trkpt lat="44.09075" lon="7.08559">
        <ele>1159</ele>
        <time>2022-07-26T14:05:46Z</time>
      </trkpt>
      <trkpt lat="44.09073" lon="7.08559">
        <ele>1159</ele>
        <time>2022-07-26T14:05:47Z</time>
      </trkpt>
      <trkpt lat="44.09072" lon="7.08559">
        <ele>1158</ele>
        <time>2022-07-26T14:05:48Z</time>
      </trkpt>
      <trkpt lat="44.09071" lon="7.08559">
        <ele>1158</ele>
        <time>2022-07-26T14:05:49Z</time>
      </trkpt>
      <trkpt lat="44.0907" lon="7.08559">
        <ele>1158</ele>
        <time>2022-07-26T14:05:50Z</time>
      </trkpt>
      <trkpt lat="44.09068" lon="7.08559">
        <ele>1158</ele>
        <time>2022-07-26T14:05:51Z</time>
      </trkpt>
      <trkpt lat="44.09067" lon="7.0856">
        <ele>1158</ele>
        <time>2022-07-26T14:05:52Z</time>
      </trkpt>
      <trkpt lat="44.09066" lon="7.0856">
        <ele>1157</ele>
        <time>2022-07-26T14:05:53Z</time>
      </trkpt>
      <trkpt lat="44.09065" lon="7.0856">
        <ele>1157</ele>
        <time>2022-07-26T14:05:54Z</time>
      </trkpt>
      <trkpt lat="44.09063" lon="7.0856">
        <ele>1157</ele>
        <time>2022-07-26T14:05:55Z</time>
      </trkpt>
      <trkpt lat="44.09062" lon="7.0856">
        <ele>1157</ele>
        <time>2022-07-26T14:05:56Z</time>
      </trkpt>
      <trkpt lat="44.09061" lon="7.0856">
        <ele>1157</ele>
        <time>2022-07-26T14:05:57Z</time>
      </trkpt>
      <trkpt lat="44.0906" lon="7.08561">
        <ele>1157</ele>
        <time>2022-07-26T14:05:58Z</time>
      </trkpt>
      <trkpt lat="44.09058" lon="7.08561">
        <ele>1157</ele>
        <time>2022-07-26T14:05:59Z</time>
      </trkpt>
      <trkpt lat="44.09057" lon="7.08561">
        <ele>1157</ele>
        <time>2022-07-26T14:06:00Z</time>
      </trkpt>
      <trkpt lat="44.09056" lon="7.08561">
        <ele>1157</ele>
        <time>2022-07-26T14:06:01Z</time>
      </trkpt>
      <trkpt lat="44.09055" lon="7.08561">
        <ele>1157</ele>
        <time>2022-07-26T14:06:02Z</time>
      </trkpt>
      <trkpt lat="44.09053" lon="7.0856">
        <ele>1156</ele>
        <time>2022-07-26T14:06:03Z</time>
      </trkpt>
      <trkpt lat="44.09052" lon="7.0856">
        <ele>1156</ele>
        <time>2022-07-26T14:06:04Z</time>
      </trkpt>
      <trkpt lat="44.09051" lon="7.08559">
        <ele>1156</ele>
        <time>2022-07-26T14:06:05Z</time>
      </trkpt>
      <trkpt lat="44.0905" lon="7.08559">
        <ele>1156</ele>
        <time>2022-07-26T14:06:06Z</time>
      </trkpt>
      <trkpt lat="44.09048" lon="7.08559">
        <ele>1156</ele>
        <time>2022-07-26T14:06:07Z</time>
      </trkpt>
      <trkpt lat="44.09047" lon="7.08559">
        <ele>1155</ele>
        <time>2022-07-26T14:06:08Z</time>
      </trkpt>
      <trkpt lat="44.09046" lon="7.08558">
        <ele>1155</ele>
        <time>2022-07-26T14:06:09Z</time>
      </trkpt>
      <trkpt lat="44.09045" lon="7.08558">
        <ele>1155</ele>
        <time>2022-07-26T14:06:10Z</time>
      </trkpt>
      <trkpt lat="44.09044" lon="7.08558">
        <ele>1155</ele>
        <time>2022-07-26T14:06:11Z</time>
      </trkpt>
      <trkpt lat="44.09042" lon="7.08558">
        <ele>1155</ele>
        <time>2022-07-26T14:06:12Z</time>
      </trkpt>
      <trkpt lat="44.09041" lon="7.08558">
        <ele>1155</ele>
        <time>2022-07-26T14:06:13Z</time>
      </trkpt>
      <trkpt lat="44.0904" lon="7.08558">
        <ele>1155</ele>
        <time>2022-07-26T14:06:14Z</time>
      </trkpt>
      <trkpt lat="44.09039" lon="7.08558">
        <ele>1155</ele>
        <time>2022-07-26T14:06:15Z</time>
      </trkpt>
      <trkpt lat="44.09038" lon="7.08558">
        <ele>1155</ele>
        <time>2022-07-26T14:06:16Z</time>
      </trkpt>
      <trkpt lat="44.09037" lon="7.08559">
        <ele>1155</ele>
        <time>2022-07-26T14:06:17Z</time>
      </trkpt>
      <trkpt lat="44.09036" lon="7.08559">
        <ele>1155</ele>
        <time>2022-07-26T14:06:18Z</time>
      </trkpt>
      <trkpt lat="44.09035" lon="7.0856">
        <ele>1155</ele>
        <time>2022-07-26T14:06:19Z</time>
      </trkpt>
      <trkpt lat="44.09034" lon="7.0856">
        <ele>1155</ele>
        <time>2022-07-26T14:06:20Z</time>
      </trkpt>
      <trkpt lat="44.09033" lon="7.0856">
        <ele>1155</ele>
        <time>2022-07-26T14:06:21Z</time>
      </trkpt>
      <trkpt lat="44.09032" lon="7.08561">
        <ele>1155</ele>
        <time>2022-07-26T14:06:22Z</time>
      </trkpt>
      <trkpt lat="44.0903" lon="7.08561">
        <ele>1154</ele>
        <time>2022-07-26T14:06:23Z</time>
      </trkpt>
      <trkpt lat="44.09029" lon="7.08562">
        <ele>1154</ele>
        <time>2022-07-26T14:06:24Z</time>
      </trkpt>
      <trkpt lat="44.09028" lon="7.08562">
        <ele>1154</ele>
        <time>2022-07-26T14:06:25Z</time>
      </trkpt>
      <trkpt lat="44.09027" lon="7.08563">
        <ele>1154</ele>
        <time>2022-07-26T14:06:26Z</time>
      </trkpt>
      <trkpt lat="44.09026" lon="7.08563">
        <ele>1154</ele>
        <time>2022-07-26T14:06:27Z</time>
      </trkpt>
      <trkpt lat="44.09025" lon="7.08564">
        <ele>1153</ele>
        <time>2022-07-26T14:06:28Z</time>
      </trkpt>
      <trkpt lat="44.09024" lon="7.08565">
        <ele>1153</ele>
        <time>2022-07-26T14:06:29Z</time>
      </trkpt>
      <trkpt lat="44.09023" lon="7.08565">
        <ele>1153</ele>
        <time>2022-07-26T14:06:30Z</time>
      </trkpt>
      <trkpt lat="44.09022" lon="7.08566">
        <ele>1153</ele>
        <time>2022-07-26T14:06:31Z</time>
      </trkpt>
      <trkpt lat="44.09021" lon="7.08566">
        <ele>1153</ele>
        <time>2022-07-26T14:06:32Z</time>
      </trkpt>
      <trkpt lat="44.0902" lon="7.08567">
        <ele>1153</ele>
        <time>2022-07-26T14:06:33Z</time>
      </trkpt>
      <trkpt lat="44.09019" lon="7.08567">
        <ele>1153</ele>
        <time>2022-07-26T14:06:34Z</time>
      </trkpt>
      <trkpt lat="44.09018" lon="7.08568">
        <ele>1153</ele>
        <time>2022-07-26T14:06:35Z</time>
      </trkpt>
      <trkpt lat="44.09018" lon="7.08568">
        <ele>1153</ele>
        <time>2022-07-26T14:06:36Z</time>
      </trkpt>
      <trkpt lat="44.09017" lon="7.08568">
        <ele>1153</ele>
        <time>2022-07-26T14:06:37Z</time>
      </trkpt>
      <trkpt lat="44.09017" lon="7.08568">
        <ele>1152</ele>
        <time>2022-07-26T14:06:38Z</time>
      </trkpt>
      <trkpt lat="44.09017" lon="7.08568">
        <ele>1152</ele>
        <time>2022-07-26T14:06:39Z</time>
      </trkpt>
      <trkpt lat="44.09017" lon="7.08569">
        <ele>1152</ele>
        <time>2022-07-26T14:06:40Z</time>
      </trkpt>
      <trkpt lat="44.09016" lon="7.08569">
        <ele>1152</ele>
        <time>2022-07-26T14:06:41Z</time>
      </trkpt>
      <trkpt lat="44.09015" lon="7.08569">
        <ele>1152</ele>
        <time>2022-07-26T14:06:42Z</time>
      </trkpt>
      <trkpt lat="44.09015" lon="7.0857">
        <ele>1152</ele>
        <time>2022-07-26T14:06:43Z</time>
      </trkpt>
      <trkpt lat="44.09014" lon="7.08571">
        <ele>1152</ele>
        <time>2022-07-26T14:06:44Z</time>
      </trkpt>
      <trkpt lat="44.09014" lon="7.08571">
        <ele>1152</ele>
        <time>2022-07-26T14:06:45Z</time>
      </trkpt>
      <trkpt lat="44.09014" lon="7.08572">
        <ele>1152</ele>
        <time>2022-07-26T14:06:46Z</time>
      </trkpt>
      <trkpt lat="44.09013" lon="7.08573">
        <ele>1152</ele>
        <time>2022-07-26T14:06:47Z</time>
      </trkpt>
      <trkpt lat="44.09012" lon="7.08574">
        <ele>1151</ele>
        <time>2022-07-26T14:06:48Z</time>
      </trkpt>
      <trkpt lat="44.09011" lon="7.08574">
        <ele>1151</ele>
        <time>2022-07-26T14:06:49Z</time>
      </trkpt>
      <trkpt lat="44.0901" lon="7.08575">
        <ele>1151</ele>
        <time>2022-07-26T14:06:50Z</time>
      </trkpt>
      <trkpt lat="44.09009" lon="7.08575">
        <ele>1151</ele>
        <time>2022-07-26T14:06:51Z</time>
      </trkpt>
      <trkpt lat="44.09008" lon="7.08575">
        <ele>1151</ele>
        <time>2022-07-26T14:06:52Z</time>
      </trkpt>
      <trkpt lat="44.09008" lon="7.08575">
        <ele>1151</ele>
        <time>2022-07-26T14:06:53Z</time>
      </trkpt>
      <trkpt lat="44.09007" lon="7.08576">
        <ele>1151</ele>
        <time>2022-07-26T14:06:54Z</time>
      </trkpt>
      <trkpt lat="44.09006" lon="7.08576">
        <ele>1151</ele>
        <time>2022-07-26T14:06:55Z</time>
      </trkpt>
      <trkpt lat="44.09005" lon="7.08576">
        <ele>1151</ele>
        <time>2022-07-26T14:06:56Z</time>
      </trkpt>
      <trkpt lat="44.09004" lon="7.08576">
        <ele>1151</ele>
        <time>2022-07-26T14:06:57Z</time>
      </trkpt>
      <trkpt lat="44.09003" lon="7.08577">
        <ele>1150</ele>
        <time>2022-07-26T14:06:58Z</time>
      </trkpt>
      <trkpt lat="44.09002" lon="7.08577">
        <ele>1150</ele>
        <time>2022-07-26T14:06:59Z</time>
      </trkpt>
      <trkpt lat="44.09001" lon="7.08577">
        <ele>1150</ele>
        <time>2022-07-26T14:07:00Z</time>
      </trkpt>
      <trkpt lat="44.09" lon="7.08578">
        <ele>1150</ele>
        <time>2022-07-26T14:07:01Z</time>
      </trkpt>
      <trkpt lat="44.08999" lon="7.08578">
        <ele>1150</ele>
        <time>2022-07-26T14:07:02Z</time>
      </trkpt>
      <trkpt lat="44.08997" lon="7.08579">
        <ele>1149</ele>
        <time>2022-07-26T14:07:03Z</time>
      </trkpt>
      <trkpt lat="44.08996" lon="7.08579">
        <ele>1149</ele>
        <time>2022-07-26T14:07:04Z</time>
      </trkpt>
      <trkpt lat="44.08995" lon="7.0858">
        <ele>1149</ele>
        <time>2022-07-26T14:07:05Z</time>
      </trkpt>
      <trkpt lat="44.08994" lon="7.0858">
        <ele>1149</ele>
        <time>2022-07-26T14:07:06Z</time>
      </trkpt>
      <trkpt lat="44.08993" lon="7.08581">
        <ele>1149</ele>
        <time>2022-07-26T14:07:07Z</time>
      </trkpt>
      <trkpt lat="44.08992" lon="7.08581">
        <ele>1148</ele>
        <time>2022-07-26T14:07:08Z</time>
      </trkpt>
      <trkpt lat="44.08991" lon="7.08582">
        <ele>1148</ele>
        <time>2022-07-26T14:07:09Z</time>
      </trkpt>
      <trkpt lat="44.08989" lon="7.08582">
        <ele>1148</ele>
        <time>2022-07-26T14:07:10Z</time>
      </trkpt>
      <trkpt lat="44.08988" lon="7.08583">
        <ele>1148</ele>
        <time>2022-07-26T14:07:11Z</time>
      </trkpt>
      <trkpt lat="44.08987" lon="7.08584">
        <ele>1148</ele>
        <time>2022-07-26T14:07:12Z</time>
      </trkpt>
      <trkpt lat="44.08986" lon="7.08584">
        <ele>1147</ele>
        <time>2022-07-26T14:07:13Z</time>
      </trkpt>
      <trkpt lat="44.08985" lon="7.08584">
        <ele>1147</ele>
        <time>2022-07-26T14:07:14Z</time>
      </trkpt>
      <trkpt lat="44.08984" lon="7.08583">
        <ele>1147</ele>
        <time>2022-07-26T14:07:15Z</time>
      </trkpt>
      <trkpt lat="44.08983" lon="7.08583">
        <ele>1147</ele>
        <time>2022-07-26T14:07:16Z</time>
      </trkpt>
      <trkpt lat="44.08982" lon="7.08582">
        <ele>1147</ele>
        <time>2022-07-26T14:07:17Z</time>
      </trkpt>
      <trkpt lat="44.08981" lon="7.08581">
        <ele>1146</ele>
        <time>2022-07-26T14:07:18Z</time>
      </trkpt>
      <trkpt lat="44.08981" lon="7.0858">
        <ele>1146</ele>
        <time>2022-07-26T14:07:19Z</time>
      </trkpt>
      <trkpt lat="44.0898" lon="7.08579">
        <ele>1146</ele>
        <time>2022-07-26T14:07:20Z</time>
      </trkpt>
      <trkpt lat="44.08979" lon="7.08579">
        <ele>1146</ele>
        <time>2022-07-26T14:07:21Z</time>
      </trkpt>
      <trkpt lat="44.08979" lon="7.08579">
        <ele>1146</ele>
        <time>2022-07-26T14:07:22Z</time>
      </trkpt>
      <trkpt lat="44.08979" lon="7.08579">
        <ele>1145</ele>
        <time>2022-07-26T14:07:23Z</time>
      </trkpt>
      <trkpt lat="44.08978" lon="7.08579">
        <ele>1145</ele>
        <time>2022-07-26T14:07:24Z</time>
      </trkpt>
      <trkpt lat="44.08978" lon="7.08579">
        <ele>1144</ele>
        <time>2022-07-26T14:07:25Z</time>
      </trkpt>
      <trkpt lat="44.08978" lon="7.0858">
        <ele>1144</ele>
        <time>2022-07-26T14:07:26Z</time>
      </trkpt>
      <trkpt lat="44.08977" lon="7.08581">
        <ele>1144</ele>
        <time>2022-07-26T14:07:27Z</time>
      </trkpt>
      <trkpt lat="44.08977" lon="7.08582">
        <ele>1144</ele>
        <time>2022-07-26T14:07:28Z</time>
      </trkpt>
      <trkpt lat="44.08976" lon="7.08583">
        <ele>1144</ele>
        <time>2022-07-26T14:07:29Z</time>
      </trkpt>
      <trkpt lat="44.08976" lon="7.08584">
        <ele>1144</ele>
        <time>2022-07-26T14:07:30Z</time>
      </trkpt>
      <trkpt lat="44.08975" lon="7.08585">
        <ele>1144</ele>
        <time>2022-07-26T14:07:31Z</time>
      </trkpt>
      <trkpt lat="44.08975" lon="7.08587">
        <ele>1144</ele>
        <time>2022-07-26T14:07:32Z</time>
      </trkpt>
      <trkpt lat="44.08974" lon="7.08588">
        <ele>1143</ele>
        <time>2022-07-26T14:07:33Z</time>
      </trkpt>
      <trkpt lat="44.08974" lon="7.08589">
        <ele>1143</ele>
        <time>2022-07-26T14:07:34Z</time>
      </trkpt>
      <trkpt lat="44.08973" lon="7.0859">
        <ele>1143</ele>
        <time>2022-07-26T14:07:35Z</time>
      </trkpt>
      <trkpt lat="44.08973" lon="7.08591">
        <ele>1143</ele>
        <time>2022-07-26T14:07:36Z</time>
      </trkpt>
      <trkpt lat="44.08972" lon="7.08593">
        <ele>1143</ele>
        <time>2022-07-26T14:07:37Z</time>
      </trkpt>
      <trkpt lat="44.08972" lon="7.08594">
        <ele>1142</ele>
        <time>2022-07-26T14:07:38Z</time>
      </trkpt>
      <trkpt lat="44.08971" lon="7.08595">
        <ele>1142</ele>
        <time>2022-07-26T14:07:39Z</time>
      </trkpt>
      <trkpt lat="44.0897" lon="7.08596">
        <ele>1142</ele>
        <time>2022-07-26T14:07:40Z</time>
      </trkpt>
      <trkpt lat="44.08969" lon="7.08597">
        <ele>1142</ele>
        <time>2022-07-26T14:07:41Z</time>
      </trkpt>
      <trkpt lat="44.08968" lon="7.08598">
        <ele>1142</ele>
        <time>2022-07-26T14:07:42Z</time>
      </trkpt>
      <trkpt lat="44.08967" lon="7.08599">
        <ele>1142</ele>
        <time>2022-07-26T14:07:43Z</time>
      </trkpt>
      <trkpt lat="44.08966" lon="7.086">
        <ele>1142</ele>
        <time>2022-07-26T14:07:44Z</time>
      </trkpt>
      <trkpt lat="44.08965" lon="7.08601">
        <ele>1142</ele>
        <time>2022-07-26T14:07:45Z</time>
      </trkpt>
      <trkpt lat="44.08964" lon="7.08602">
        <ele>1142</ele>
        <time>2022-07-26T14:07:46Z</time>
      </trkpt>
      <trkpt lat="44.08963" lon="7.08603">
        <ele>1142</ele>
        <time>2022-07-26T14:07:47Z</time>
      </trkpt>
      <trkpt lat="44.08962" lon="7.08604">
        <ele>1141</ele>
        <time>2022-07-26T14:07:48Z</time>
      </trkpt>
      <trkpt lat="44.08961" lon="7.08606">
        <ele>1141</ele>
        <time>2022-07-26T14:07:49Z</time>
      </trkpt>
      <trkpt lat="44.08961" lon="7.08608">
        <ele>1140</ele>
        <time>2022-07-26T14:07:50Z</time>
      </trkpt>
      <trkpt lat="44.0896" lon="7.08609">
        <ele>1140</ele>
        <time>2022-07-26T14:07:51Z</time>
      </trkpt>
      <trkpt lat="44.0896" lon="7.08611">
        <ele>1140</ele>
        <time>2022-07-26T14:07:52Z</time>
      </trkpt>
      <trkpt lat="44.08959" lon="7.08613">
        <ele>1139</ele>
        <time>2022-07-26T14:07:53Z</time>
      </trkpt>
      <trkpt lat="44.08959" lon="7.08615">
        <ele>1139</ele>
        <time>2022-07-26T14:07:54Z</time>
      </trkpt>
      <trkpt lat="44.08958" lon="7.08617">
        <ele>1139</ele>
        <time>2022-07-26T14:07:55Z</time>
      </trkpt>
      <trkpt lat="44.08958" lon="7.08618">
        <ele>1139</ele>
        <time>2022-07-26T14:07:56Z</time>
      </trkpt>
      <trkpt lat="44.08957" lon="7.0862">
        <ele>1139</ele>
        <time>2022-07-26T14:07:57Z</time>
      </trkpt>
      <trkpt lat="44.08956" lon="7.08621">
        <ele>1139</ele>
        <time>2022-07-26T14:07:58Z</time>
      </trkpt>
      <trkpt lat="44.08956" lon="7.08623">
        <ele>1139</ele>
        <time>2022-07-26T14:07:59Z</time>
      </trkpt>
      <trkpt lat="44.08955" lon="7.08624">
        <ele>1139</ele>
        <time>2022-07-26T14:08:00Z</time>
      </trkpt>
      <trkpt lat="44.08954" lon="7.08626">
        <ele>1139</ele>
        <time>2022-07-26T14:08:01Z</time>
      </trkpt>
      <trkpt lat="44.08954" lon="7.08628">
        <ele>1139</ele>
        <time>2022-07-26T14:08:02Z</time>
      </trkpt>
      <trkpt lat="44.08954" lon="7.08629">
        <ele>1138</ele>
        <time>2022-07-26T14:08:03Z</time>
      </trkpt>
      <trkpt lat="44.08953" lon="7.08631">
        <ele>1138</ele>
        <time>2022-07-26T14:08:04Z</time>
      </trkpt>
      <trkpt lat="44.08953" lon="7.08633">
        <ele>1138</ele>
        <time>2022-07-26T14:08:05Z</time>
      </trkpt>
      <trkpt lat="44.08953" lon="7.08635">
        <ele>1138</ele>
        <time>2022-07-26T14:08:06Z</time>
      </trkpt>
      <trkpt lat="44.08953" lon="7.08637">
        <ele>1138</ele>
        <time>2022-07-26T14:08:07Z</time>
      </trkpt>
      <trkpt lat="44.08953" lon="7.08639">
        <ele>1137</ele>
        <time>2022-07-26T14:08:08Z</time>
      </trkpt>
      <trkpt lat="44.08954" lon="7.08641">
        <ele>1137</ele>
        <time>2022-07-26T14:08:09Z</time>
      </trkpt>
      <trkpt lat="44.08954" lon="7.08643">
        <ele>1137</ele>
        <time>2022-07-26T14:08:10Z</time>
      </trkpt>
      <trkpt lat="44.08954" lon="7.08645">
        <ele>1137</ele>
        <time>2022-07-26T14:08:11Z</time>
      </trkpt>
      <trkpt lat="44.08955" lon="7.08646">
        <ele>1137</ele>
        <time>2022-07-26T14:08:12Z</time>
      </trkpt>
      <trkpt lat="44.08956" lon="7.08648">
        <ele>1136</ele>
        <time>2022-07-26T14:08:13Z</time>
      </trkpt>
      <trkpt lat="44.08956" lon="7.0865">
        <ele>1136</ele>
        <time>2022-07-26T14:08:14Z</time>
      </trkpt>
      <trkpt lat="44.08957" lon="7.08651">
        <ele>1136</ele>
        <time>2022-07-26T14:08:15Z</time>
      </trkpt>
      <trkpt lat="44.08958" lon="7.08653">
        <ele>1136</ele>
        <time>2022-07-26T14:08:16Z</time>
      </trkpt>
      <trkpt lat="44.08958" lon="7.08654">
        <ele>1136</ele>
        <time>2022-07-26T14:08:17Z</time>
      </trkpt>
      <trkpt lat="44.08959" lon="7.08655">
        <ele>1135</ele>
        <time>2022-07-26T14:08:18Z</time>
      </trkpt>
      <trkpt lat="44.0896" lon="7.08656">
        <ele>1135</ele>
        <time>2022-07-26T14:08:19Z</time>
      </trkpt>
      <trkpt lat="44.08961" lon="7.08657">
        <ele>1135</ele>
        <time>2022-07-26T14:08:20Z</time>
      </trkpt>
      <trkpt lat="44.08961" lon="7.08657">
        <ele>1135</ele>
        <time>2022-07-26T14:08:21Z</time>
      </trkpt>
      <trkpt lat="44.08961" lon="7.08658">
        <ele>1135</ele>
        <time>2022-07-26T14:08:22Z</time>
      </trkpt>
      <trkpt lat="44.08961" lon="7.08658">
        <ele>1134</ele>
        <time>2022-07-26T14:08:23Z</time>
      </trkpt>
      <trkpt lat="44.08962" lon="7.08659">
        <ele>1134</ele>
        <time>2022-07-26T14:08:24Z</time>
      </trkpt>
      <trkpt lat="44.08962" lon="7.08659">
        <ele>1134</ele>
        <time>2022-07-26T14:08:25Z</time>
      </trkpt>
      <trkpt lat="44.08962" lon="7.0866">
        <ele>1134</ele>
        <time>2022-07-26T14:08:26Z</time>
      </trkpt>
      <trkpt lat="44.08961" lon="7.0866">
        <ele>1134</ele>
        <time>2022-07-26T14:08:27Z</time>
      </trkpt>
      <trkpt lat="44.08961" lon="7.08661">
        <ele>1133</ele>
        <time>2022-07-26T14:08:28Z</time>
      </trkpt>
      <trkpt lat="44.0896" lon="7.08661">
        <ele>1133</ele>
        <time>2022-07-26T14:08:29Z</time>
      </trkpt>
      <trkpt lat="44.0896" lon="7.08662">
        <ele>1133</ele>
        <time>2022-07-26T14:08:30Z</time>
      </trkpt>
      <trkpt lat="44.0896" lon="7.08663">
        <ele>1133</ele>
        <time>2022-07-26T14:08:31Z</time>
      </trkpt>
      <trkpt lat="44.08959" lon="7.08664">
        <ele>1133</ele>
        <time>2022-07-26T14:08:32Z</time>
      </trkpt>
      <trkpt lat="44.08959" lon="7.08666">
        <ele>1132</ele>
        <time>2022-07-26T14:08:33Z</time>
      </trkpt>
      <trkpt lat="44.08959" lon="7.08667">
        <ele>1132</ele>
        <time>2022-07-26T14:08:34Z</time>
      </trkpt>
      <trkpt lat="44.08959" lon="7.08668">
        <ele>1132</ele>
        <time>2022-07-26T14:08:35Z</time>
      </trkpt>
      <trkpt lat="44.08958" lon="7.08669">
        <ele>1132</ele>
        <time>2022-07-26T14:08:36Z</time>
      </trkpt>
      <trkpt lat="44.08958" lon="7.0867">
        <ele>1132</ele>
        <time>2022-07-26T14:08:37Z</time>
      </trkpt>
      <trkpt lat="44.08958" lon="7.08672">
        <ele>1131</ele>
        <time>2022-07-26T14:08:38Z</time>
      </trkpt>
      <trkpt lat="44.08958" lon="7.08673">
        <ele>1131</ele>
        <time>2022-07-26T14:08:39Z</time>
      </trkpt>
      <trkpt lat="44.08957" lon="7.08674">
        <ele>1131</ele>
        <time>2022-07-26T14:08:40Z</time>
      </trkpt>
      <trkpt lat="44.08957" lon="7.08675">
        <ele>1131</ele>
        <time>2022-07-26T14:08:41Z</time>
      </trkpt>
      <trkpt lat="44.08957" lon="7.08677">
        <ele>1131</ele>
        <time>2022-07-26T14:08:42Z</time>
      </trkpt>
      <trkpt lat="44.08957" lon="7.08678">
        <ele>1130</ele>
        <time>2022-07-26T14:08:43Z</time>
      </trkpt>
      <trkpt lat="44.08957" lon="7.08678">
        <ele>1130</ele>
        <time>2022-07-26T14:08:44Z</time>
      </trkpt>
      <trkpt lat="44.08956" lon="7.08679">
        <ele>1129</ele>
        <time>2022-07-26T14:08:50Z</time>
      </trkpt>
      <trkpt lat="44.08956" lon="7.0868">
        <ele>1129</ele>
        <time>2022-07-26T14:08:51Z</time>
      </trkpt>
      <trkpt lat="44.08955" lon="7.0868">
        <ele>1129</ele>
        <time>2022-07-26T14:08:52Z</time>
      </trkpt>
      <trkpt lat="44.08955" lon="7.08681">
        <ele>1128</ele>
        <time>2022-07-26T14:08:53Z</time>
      </trkpt>
      <trkpt lat="44.08954" lon="7.08681">
        <ele>1128</ele>
        <time>2022-07-26T14:08:54Z</time>
      </trkpt>
      <trkpt lat="44.08953" lon="7.08682">
        <ele>1127</ele>
        <time>2022-07-26T14:08:55Z</time>
      </trkpt>
      <trkpt lat="44.08952" lon="7.08682">
        <ele>1127</ele>
        <time>2022-07-26T14:08:56Z</time>
      </trkpt>
      <trkpt lat="44.08951" lon="7.08683">
        <ele>1127</ele>
        <time>2022-07-26T14:08:57Z</time>
      </trkpt>
      <trkpt lat="44.0895" lon="7.08683">
        <ele>1126</ele>
        <time>2022-07-26T14:08:58Z</time>
      </trkpt>
      <trkpt lat="44.0895" lon="7.08684">
        <ele>1126</ele>
        <time>2022-07-26T14:08:59Z</time>
      </trkpt>
      <trkpt lat="44.08949" lon="7.08685">
        <ele>1126</ele>
        <time>2022-07-26T14:09:00Z</time>
      </trkpt>
      <trkpt lat="44.08949" lon="7.08686">
        <ele>1126</ele>
        <time>2022-07-26T14:09:01Z</time>
      </trkpt>
      <trkpt lat="44.08949" lon="7.08688">
        <ele>1126</ele>
        <time>2022-07-26T14:09:02Z</time>
      </trkpt>
      <trkpt lat="44.0895" lon="7.08689">
        <ele>1125</ele>
        <time>2022-07-26T14:09:03Z</time>
      </trkpt>
      <trkpt lat="44.0895" lon="7.0869">
        <ele>1125</ele>
        <time>2022-07-26T14:09:04Z</time>
      </trkpt>
      <trkpt lat="44.08951" lon="7.08691">
        <ele>1125</ele>
        <time>2022-07-26T14:09:05Z</time>
      </trkpt>
      <trkpt lat="44.08952" lon="7.08692">
        <ele>1125</ele>
        <time>2022-07-26T14:09:06Z</time>
      </trkpt>
      <trkpt lat="44.08953" lon="7.08693">
        <ele>1125</ele>
        <time>2022-07-26T14:09:07Z</time>
      </trkpt>
      <trkpt lat="44.08953" lon="7.08695">
        <ele>1124</ele>
        <time>2022-07-26T14:09:08Z</time>
      </trkpt>
      <trkpt lat="44.08954" lon="7.08696">
        <ele>1124</ele>
        <time>2022-07-26T14:09:09Z</time>
      </trkpt>
      <trkpt lat="44.08955" lon="7.08697">
        <ele>1123</ele>
        <time>2022-07-26T14:09:10Z</time>
      </trkpt>
      <trkpt lat="44.08956" lon="7.08698">
        <ele>1123</ele>
        <time>2022-07-26T14:09:11Z</time>
      </trkpt>
      <trkpt lat="44.08957" lon="7.08699">
        <ele>1123</ele>
        <time>2022-07-26T14:09:12Z</time>
      </trkpt>
      <trkpt lat="44.08958" lon="7.087">
        <ele>1122</ele>
        <time>2022-07-26T14:09:13Z</time>
      </trkpt>
      <trkpt lat="44.08959" lon="7.08701">
        <ele>1122</ele>
        <time>2022-07-26T14:09:14Z</time>
      </trkpt>
      <trkpt lat="44.08959" lon="7.08702">
        <ele>1122</ele>
        <time>2022-07-26T14:09:15Z</time>
      </trkpt>
      <trkpt lat="44.0896" lon="7.08703">
        <ele>1122</ele>
        <time>2022-07-26T14:09:16Z</time>
      </trkpt>
      <trkpt lat="44.0896" lon="7.08704">
        <ele>1122</ele>
        <time>2022-07-26T14:09:17Z</time>
      </trkpt>
      <trkpt lat="44.08961" lon="7.08706">
        <ele>1121</ele>
        <time>2022-07-26T14:09:18Z</time>
      </trkpt>
      <trkpt lat="44.08961" lon="7.08707">
        <ele>1121</ele>
        <time>2022-07-26T14:09:19Z</time>
      </trkpt>
      <trkpt lat="44.08962" lon="7.08709">
        <ele>1121</ele>
        <time>2022-07-26T14:09:20Z</time>
      </trkpt>
      <trkpt lat="44.08962" lon="7.0871">
        <ele>1121</ele>
        <time>2022-07-26T14:09:21Z</time>
      </trkpt>
      <trkpt lat="44.08962" lon="7.08712">
        <ele>1121</ele>
        <time>2022-07-26T14:09:22Z</time>
      </trkpt>
      <trkpt lat="44.08962" lon="7.08713">
        <ele>1120</ele>
        <time>2022-07-26T14:09:23Z</time>
      </trkpt>
      <trkpt lat="44.08962" lon="7.08714">
        <ele>1120</ele>
        <time>2022-07-26T14:09:24Z</time>
      </trkpt>
      <trkpt lat="44.08963" lon="7.08715">
        <ele>1120</ele>
        <time>2022-07-26T14:09:25Z</time>
      </trkpt>
      <trkpt lat="44.08963" lon="7.08716">
        <ele>1120</ele>
        <time>2022-07-26T14:09:26Z</time>
      </trkpt>
      <trkpt lat="44.08963" lon="7.08717">
        <ele>1120</ele>
        <time>2022-07-26T14:09:27Z</time>
      </trkpt>
      <trkpt lat="44.08964" lon="7.08717">
        <ele>1119</ele>
        <time>2022-07-26T14:09:28Z</time>
      </trkpt>
      <trkpt lat="44.08964" lon="7.08718">
        <ele>1119</ele>
        <time>2022-07-26T14:09:29Z</time>
      </trkpt>
      <trkpt lat="44.08964" lon="7.08719">
        <ele>1119</ele>
        <time>2022-07-26T14:09:30Z</time>
      </trkpt>
      <trkpt lat="44.08965" lon="7.08721">
        <ele>1116</ele>
        <time>2022-07-26T14:10:20Z</time>
      </trkpt>
      <trkpt lat="44.08965" lon="7.08722">
        <ele>1116</ele>
        <time>2022-07-26T14:10:21Z</time>
      </trkpt>
      <trkpt lat="44.08965" lon="7.08722">
        <ele>1116</ele>
        <time>2022-07-26T14:10:22Z</time>
      </trkpt>
      <trkpt lat="44.08966" lon="7.08723">
        <ele>1116</ele>
        <time>2022-07-26T14:10:23Z</time>
      </trkpt>
      <trkpt lat="44.08966" lon="7.08723">
        <ele>1116</ele>
        <time>2022-07-26T14:10:24Z</time>
      </trkpt>
      <trkpt lat="44.08967" lon="7.08724">
        <ele>1116</ele>
        <time>2022-07-26T14:10:25Z</time>
      </trkpt>
      <trkpt lat="44.08967" lon="7.08724">
        <ele>1116</ele>
        <time>2022-07-26T14:10:26Z</time>
      </trkpt>
      <trkpt lat="44.08967" lon="7.08725">
        <ele>1116</ele>
        <time>2022-07-26T14:10:27Z</time>
      </trkpt>
      <trkpt lat="44.08967" lon="7.08725">
        <ele>1115</ele>
        <time>2022-07-26T14:10:28Z</time>
      </trkpt>
      <trkpt lat="44.08967" lon="7.08726">
        <ele>1115</ele>
        <time>2022-07-26T14:10:29Z</time>
      </trkpt>
      <trkpt lat="44.08966" lon="7.08726">
        <ele>1115</ele>
        <time>2022-07-26T14:10:30Z</time>
      </trkpt>
      <trkpt lat="44.08965" lon="7.08726">
        <ele>1115</ele>
        <time>2022-07-26T14:10:31Z</time>
      </trkpt>
      <trkpt lat="44.08964" lon="7.08726">
        <ele>1115</ele>
        <time>2022-07-26T14:10:32Z</time>
      </trkpt>
      <trkpt lat="44.08963" lon="7.08726">
        <ele>1114</ele>
        <time>2022-07-26T14:10:33Z</time>
      </trkpt>
      <trkpt lat="44.08961" lon="7.08726">
        <ele>1114</ele>
        <time>2022-07-26T14:10:34Z</time>
      </trkpt>
      <trkpt lat="44.0896" lon="7.08726">
        <ele>1114</ele>
        <time>2022-07-26T14:10:35Z</time>
      </trkpt>
      <trkpt lat="44.08959" lon="7.08725">
        <ele>1114</ele>
        <time>2022-07-26T14:10:36Z</time>
      </trkpt>
      <trkpt lat="44.08958" lon="7.08725">
        <ele>1114</ele>
        <time>2022-07-26T14:10:37Z</time>
      </trkpt>
      <trkpt lat="44.08957" lon="7.08724">
        <ele>1114</ele>
        <time>2022-07-26T14:10:38Z</time>
      </trkpt>
      <trkpt lat="44.08956" lon="7.08724">
        <ele>1114</ele>
        <time>2022-07-26T14:10:39Z</time>
      </trkpt>
      <trkpt lat="44.08955" lon="7.08723">
        <ele>1114</ele>
        <time>2022-07-26T14:10:40Z</time>
      </trkpt>
      <trkpt lat="44.08955" lon="7.08722">
        <ele>1114</ele>
        <time>2022-07-26T14:10:41Z</time>
      </trkpt>
      <trkpt lat="44.08954" lon="7.08722">
        <ele>1114</ele>
        <time>2022-07-26T14:10:42Z</time>
      </trkpt>
      <trkpt lat="44.08953" lon="7.08722">
        <ele>1113</ele>
        <time>2022-07-26T14:10:43Z</time>
      </trkpt>
      <trkpt lat="44.08952" lon="7.08722">
        <ele>1113</ele>
        <time>2022-07-26T14:10:44Z</time>
      </trkpt>
      <trkpt lat="44.08952" lon="7.08722">
        <ele>1113</ele>
        <time>2022-07-26T14:10:45Z</time>
      </trkpt>
      <trkpt lat="44.08952" lon="7.08723">
        <ele>1113</ele>
        <time>2022-07-26T14:10:46Z</time>
      </trkpt>
      <trkpt lat="44.08953" lon="7.08725">
        <ele>1113</ele>
        <time>2022-07-26T14:10:47Z</time>
      </trkpt>
      <trkpt lat="44.08953" lon="7.08727">
        <ele>1112</ele>
        <time>2022-07-26T14:10:48Z</time>
      </trkpt>
      <trkpt lat="44.08953" lon="7.08728">
        <ele>1112</ele>
        <time>2022-07-26T14:10:49Z</time>
      </trkpt>
      <trkpt lat="44.08954" lon="7.0873">
        <ele>1112</ele>
        <time>2022-07-26T14:10:50Z</time>
      </trkpt>
      <trkpt lat="44.08954" lon="7.08731">
        <ele>1112</ele>
        <time>2022-07-26T14:10:51Z</time>
      </trkpt>
      <trkpt lat="44.08954" lon="7.08731">
        <ele>1112</ele>
        <time>2022-07-26T14:10:52Z</time>
      </trkpt>
      <trkpt lat="44.08954" lon="7.08732">
        <ele>1111</ele>
        <time>2022-07-26T14:10:53Z</time>
      </trkpt>
      <trkpt lat="44.08955" lon="7.08733">
        <ele>1111</ele>
        <time>2022-07-26T14:10:54Z</time>
      </trkpt>
      <trkpt lat="44.08955" lon="7.08734">
        <ele>1110</ele>
        <time>2022-07-26T14:10:55Z</time>
      </trkpt>
      <trkpt lat="44.08955" lon="7.08735">
        <ele>1110</ele>
        <time>2022-07-26T14:10:56Z</time>
      </trkpt>
      <trkpt lat="44.08955" lon="7.08735">
        <ele>1110</ele>
        <time>2022-07-26T14:10:57Z</time>
      </trkpt>
      <trkpt lat="44.08956" lon="7.08736">
        <ele>1110</ele>
        <time>2022-07-26T14:10:58Z</time>
      </trkpt>
      <trkpt lat="44.08956" lon="7.08737">
        <ele>1110</ele>
        <time>2022-07-26T14:10:59Z</time>
      </trkpt>
      <trkpt lat="44.08956" lon="7.08738">
        <ele>1110</ele>
        <time>2022-07-26T14:11:00Z</time>
      </trkpt>
      <trkpt lat="44.08957" lon="7.08739">
        <ele>1110</ele>
        <time>2022-07-26T14:11:01Z</time>
      </trkpt>
      <trkpt lat="44.08957" lon="7.0874">
        <ele>1110</ele>
        <time>2022-07-26T14:11:02Z</time>
      </trkpt>
      <trkpt lat="44.08957" lon="7.0874">
        <ele>1109</ele>
        <time>2022-07-26T14:11:03Z</time>
      </trkpt>
      <trkpt lat="44.08957" lon="7.0874">
        <ele>1109</ele>
        <time>2022-07-26T14:11:04Z</time>
      </trkpt>
      <trkpt lat="44.08957" lon="7.0874">
        <ele>1109</ele>
        <time>2022-07-26T14:11:05Z</time>
      </trkpt>
      <trkpt lat="44.08957" lon="7.08741">
        <ele>1109</ele>
        <time>2022-07-26T14:11:06Z</time>
      </trkpt>
      <trkpt lat="44.08957" lon="7.08741">
        <ele>1109</ele>
        <time>2022-07-26T14:11:07Z</time>
      </trkpt>
      <trkpt lat="44.08958" lon="7.08742">
        <ele>1108</ele>
        <time>2022-07-26T14:11:08Z</time>
      </trkpt>
      <trkpt lat="44.08958" lon="7.08743">
        <ele>1108</ele>
        <time>2022-07-26T14:11:09Z</time>
      </trkpt>
      <trkpt lat="44.08958" lon="7.08743">
        <ele>1108</ele>
        <time>2022-07-26T14:11:10Z</time>
      </trkpt>
      <trkpt lat="44.08958" lon="7.08744">
        <ele>1108</ele>
        <time>2022-07-26T14:11:11Z</time>
      </trkpt>
      <trkpt lat="44.08958" lon="7.08745">
        <ele>1108</ele>
        <time>2022-07-26T14:11:12Z</time>
      </trkpt>
      <trkpt lat="44.08959" lon="7.08746">
        <ele>1108</ele>
        <time>2022-07-26T14:11:13Z</time>
      </trkpt>
      <trkpt lat="44.08959" lon="7.08748">
        <ele>1106</ele>
        <time>2022-07-26T14:11:35Z</time>
      </trkpt>
      <trkpt lat="44.0896" lon="7.08749">
        <ele>1106</ele>
        <time>2022-07-26T14:11:36Z</time>
      </trkpt>
      <trkpt lat="44.0896" lon="7.08749">
        <ele>1106</ele>
        <time>2022-07-26T14:11:37Z</time>
      </trkpt>
      <trkpt lat="44.0896" lon="7.08749">
        <ele>1105</ele>
        <time>2022-07-26T14:14:33Z</time>
      </trkpt>
      <trkpt lat="44.08959" lon="7.08749">
        <ele>1105</ele>
        <time>2022-07-26T14:14:34Z</time>
      </trkpt>
      <trkpt lat="44.08959" lon="7.08748">
        <ele>1105</ele>
        <time>2022-07-26T14:14:35Z</time>
      </trkpt>
      <trkpt lat="44.08958" lon="7.08748">
        <ele>1105</ele>
        <time>2022-07-26T14:14:36Z</time>
      </trkpt>
      <trkpt lat="44.08958" lon="7.08748">
        <ele>1105</ele>
        <time>2022-07-26T14:14:37Z</time>
      </trkpt>
      <trkpt lat="44.08957" lon="7.08748">
        <ele>1105</ele>
        <time>2022-07-26T14:14:38Z</time>
      </trkpt>
      <trkpt lat="44.08957" lon="7.08748">
        <ele>1105</ele>
        <time>2022-07-26T14:14:39Z</time>
      </trkpt>
      <trkpt lat="44.08956" lon="7.08749">
        <ele>1105</ele>
        <time>2022-07-26T14:14:58Z</time>
      </trkpt>
      <trkpt lat="44.08956" lon="7.08749">
        <ele>1105</ele>
        <time>2022-07-26T14:14:59Z</time>
      </trkpt>
      <trkpt lat="44.08956" lon="7.08749">
        <ele>1105</ele>
        <time>2022-07-26T14:15:00Z</time>
      </trkpt>
      <trkpt lat="44.08955" lon="7.0875">
        <ele>1105</ele>
        <time>2022-07-26T14:15:08Z</time>
      </trkpt>
      <trkpt lat="44.08955" lon="7.08751">
        <ele>1105</ele>
        <time>2022-07-26T14:15:09Z</time>
      </trkpt>
      <trkpt lat="44.08955" lon="7.08751">
        <ele>1105</ele>
        <time>2022-07-26T14:15:10Z</time>
      </trkpt>
      <trkpt lat="44.08955" lon="7.08751">
        <ele>1105</ele>
        <time>2022-07-26T14:15:11Z</time>
      </trkpt>
      <trkpt lat="44.08956" lon="7.08751">
        <ele>1105</ele>
        <time>2022-07-26T14:15:12Z</time>
      </trkpt>
      <trkpt lat="44.08957" lon="7.0875">
        <ele>1105</ele>
        <time>2022-07-26T14:15:13Z</time>
      </trkpt>
      <trkpt lat="44.08957" lon="7.0875">
        <ele>1105</ele>
        <time>2022-07-26T14:15:14Z</time>
      </trkpt>
      <trkpt lat="44.08958" lon="7.08747">
        <ele>1105</ele>
        <time>2022-07-26T14:20:52Z</time>
      </trkpt>
      <trkpt lat="44.08959" lon="7.08746">
        <ele>1105</ele>
        <time>2022-07-26T14:20:53Z</time>
      </trkpt>
      <trkpt lat="44.08959" lon="7.08744">
        <ele>1105</ele>
        <time>2022-07-26T14:20:54Z</time>
      </trkpt>
      <trkpt lat="44.08959" lon="7.08744">
        <ele>1105</ele>
        <time>2022-07-26T14:20:55Z</time>
      </trkpt>
      <trkpt lat="44.08959" lon="7.08744">
        <ele>1105</ele>
        <time>2022-07-26T14:20:56Z</time>
      </trkpt>
      <trkpt lat="44.08958" lon="7.08744">
        <ele>1105</ele>
        <time>2022-07-26T14:21:28Z</time>
      </trkpt>
      <trkpt lat="44.08958" lon="7.08744">
        <ele>1105</ele>
        <time>2022-07-26T14:21:29Z</time>
      </trkpt>
      <trkpt lat="44.08958" lon="7.08744">
        <ele>1105</ele>
        <time>2022-07-26T14:21:30Z</time>
      </trkpt>
      <trkpt lat="44.08958" lon="7.08745">
        <ele>1105</ele>
        <time>2022-07-26T14:21:31Z</time>
      </trkpt>
      <trkpt lat="44.08958" lon="7.08746">
        <ele>1105</ele>
        <time>2022-07-26T14:21:32Z</time>
      </trkpt>
      <trkpt lat="44.08957" lon="7.08747">
        <ele>1105</ele>
        <time>2022-07-26T14:21:33Z</time>
      </trkpt>
      <trkpt lat="44.08957" lon="7.08747">
        <ele>1105</ele>
        <time>2022-07-26T14:21:34Z</time>
      </trkpt>
      <trkpt lat="44.08957" lon="7.08748">
        <ele>1105</ele>
        <time>2022-07-26T14:21:35Z</time>
      </trkpt>
      <trkpt lat="44.08957" lon="7.08749">
        <ele>1105</ele>
        <time>2022-07-26T14:21:36Z</time>
      </trkpt>
      <trkpt lat="44.08957" lon="7.0875">
        <ele>1105</ele>
        <time>2022-07-26T14:21:37Z</time>
      </trkpt>
      <trkpt lat="44.08957" lon="7.08751">
        <ele>1105</ele>
        <time>2022-07-26T14:21:38Z</time>
      </trkpt>
      <trkpt lat="44.08957" lon="7.08751">
        <ele>1105</ele>
        <time>2022-07-26T14:21:39Z</time>
      </trkpt>
      <trkpt lat="44.08957" lon="7.08752">
        <ele>1105</ele>
        <time>2022-07-26T14:21:40Z</time>
      </trkpt>
      <trkpt lat="44.08957" lon="7.08753">
        <ele>1105</ele>
        <time>2022-07-26T14:21:41Z</time>
      </trkpt>
      <trkpt lat="44.08957" lon="7.08754">
        <ele>1105</ele>
        <time>2022-07-26T14:21:42Z</time>
      </trkpt>
      <trkpt lat="44.08957" lon="7.08755">
        <ele>1105</ele>
        <time>2022-07-26T14:21:43Z</time>
      </trkpt>
      <trkpt lat="44.08957" lon="7.08756">
        <ele>1105</ele>
        <time>2022-07-26T14:21:44Z</time>
      </trkpt>
      <trkpt lat="44.08957" lon="7.08757">
        <ele>1105</ele>
        <time>2022-07-26T14:21:45Z</time>
      </trkpt>
      <trkpt lat="44.08957" lon="7.08758">
        <ele>1105</ele>
        <time>2022-07-26T14:21:46Z</time>
      </trkpt>
      <trkpt lat="44.08957" lon="7.0876">
        <ele>1105</ele>
        <time>2022-07-26T14:21:47Z</time>
      </trkpt>
      <trkpt lat="44.08957" lon="7.08761">
        <ele>1104</ele>
        <time>2022-07-26T14:21:48Z</time>
      </trkpt>
      <trkpt lat="44.08956" lon="7.08762">
        <ele>1104</ele>
        <time>2022-07-26T14:21:49Z</time>
      </trkpt>
      <trkpt lat="44.08956" lon="7.08763">
        <ele>1104</ele>
        <time>2022-07-26T14:21:50Z</time>
      </trkpt>
      <trkpt lat="44.08956" lon="7.08765">
        <ele>1104</ele>
        <time>2022-07-26T14:21:51Z</time>
      </trkpt>
      <trkpt lat="44.08956" lon="7.08766">
        <ele>1104</ele>
        <time>2022-07-26T14:21:52Z</time>
      </trkpt>
      <trkpt lat="44.08955" lon="7.08768">
        <ele>1104</ele>
        <time>2022-07-26T14:21:53Z</time>
      </trkpt>
      <trkpt lat="44.08955" lon="7.08771">
        <ele>1103</ele>
        <time>2022-07-26T14:22:05Z</time>
      </trkpt>
      <trkpt lat="44.08954" lon="7.08772">
        <ele>1103</ele>
        <time>2022-07-26T14:22:06Z</time>
      </trkpt>
      <trkpt lat="44.08954" lon="7.08774">
        <ele>1103</ele>
        <time>2022-07-26T14:22:07Z</time>
      </trkpt>
      <trkpt lat="44.08954" lon="7.08775">
        <ele>1102</ele>
        <time>2022-07-26T14:22:08Z</time>
      </trkpt>
      <trkpt lat="44.08955" lon="7.08776">
        <ele>1102</ele>
        <time>2022-07-26T14:22:09Z</time>
      </trkpt>
      <trkpt lat="44.08956" lon="7.08777">
        <ele>1102</ele>
        <time>2022-07-26T14:22:15Z</time>
      </trkpt>
      <trkpt lat="44.08956" lon="7.08778">
        <ele>1102</ele>
        <time>2022-07-26T14:22:16Z</time>
      </trkpt>
      <trkpt lat="44.08956" lon="7.08778">
        <ele>1102</ele>
        <time>2022-07-26T14:22:17Z</time>
      </trkpt>
      <trkpt lat="44.08956" lon="7.08779">
        <ele>1102</ele>
        <time>2022-07-26T14:22:18Z</time>
      </trkpt>
      <trkpt lat="44.08956" lon="7.0878">
        <ele>1102</ele>
        <time>2022-07-26T14:22:19Z</time>
      </trkpt>
      <trkpt lat="44.08955" lon="7.08781">
        <ele>1102</ele>
        <time>2022-07-26T14:22:20Z</time>
      </trkpt>
      <trkpt lat="44.08955" lon="7.08782">
        <ele>1102</ele>
        <time>2022-07-26T14:22:21Z</time>
      </trkpt>
      <trkpt lat="44.08954" lon="7.08784">
        <ele>1102</ele>
        <time>2022-07-26T14:22:22Z</time>
      </trkpt>
      <trkpt lat="44.08954" lon="7.08785">
        <ele>1101</ele>
        <time>2022-07-26T14:22:23Z</time>
      </trkpt>
      <trkpt lat="44.08953" lon="7.08787">
        <ele>1101</ele>
        <time>2022-07-26T14:22:24Z</time>
      </trkpt>
      <trkpt lat="44.08953" lon="7.08789">
        <ele>1101</ele>
        <time>2022-07-26T14:22:25Z</time>
      </trkpt>
      <trkpt lat="44.08952" lon="7.0879">
        <ele>1101</ele>
        <time>2022-07-26T14:22:26Z</time>
      </trkpt>
      <trkpt lat="44.08952" lon="7.08792">
        <ele>1101</ele>
        <time>2022-07-26T14:22:27Z</time>
      </trkpt>
      <trkpt lat="44.08951" lon="7.08793">
        <ele>1101</ele>
        <time>2022-07-26T14:22:28Z</time>
      </trkpt>
      <trkpt lat="44.0895" lon="7.08794">
        <ele>1101</ele>
        <time>2022-07-26T14:22:29Z</time>
      </trkpt>
      <trkpt lat="44.0895" lon="7.08795">
        <ele>1101</ele>
        <time>2022-07-26T14:22:30Z</time>
      </trkpt>
      <trkpt lat="44.08949" lon="7.08796">
        <ele>1101</ele>
        <time>2022-07-26T14:22:31Z</time>
      </trkpt>
      <trkpt lat="44.08948" lon="7.08797">
        <ele>1101</ele>
        <time>2022-07-26T14:22:32Z</time>
      </trkpt>
      <trkpt lat="44.08948" lon="7.08798">
        <ele>1101</ele>
        <time>2022-07-26T14:22:33Z</time>
      </trkpt>
      <trkpt lat="44.08947" lon="7.08799">
        <ele>1101</ele>
        <time>2022-07-26T14:22:34Z</time>
      </trkpt>
      <trkpt lat="44.08946" lon="7.088">
        <ele>1101</ele>
        <time>2022-07-26T14:22:35Z</time>
      </trkpt>
      <trkpt lat="44.08946" lon="7.08802">
        <ele>1101</ele>
        <time>2022-07-26T14:22:36Z</time>
      </trkpt>
      <trkpt lat="44.08946" lon="7.08803">
        <ele>1101</ele>
        <time>2022-07-26T14:22:37Z</time>
      </trkpt>
      <trkpt lat="44.08946" lon="7.08805">
        <ele>1100</ele>
        <time>2022-07-26T14:22:38Z</time>
      </trkpt>
      <trkpt lat="44.08946" lon="7.08806">
        <ele>1100</ele>
        <time>2022-07-26T14:22:39Z</time>
      </trkpt>
      <trkpt lat="44.08946" lon="7.08807">
        <ele>1100</ele>
        <time>2022-07-26T14:22:40Z</time>
      </trkpt>
      <trkpt lat="44.08946" lon="7.08807">
        <ele>1100</ele>
        <time>2022-07-26T14:22:41Z</time>
      </trkpt>
      <trkpt lat="44.08946" lon="7.08807">
        <ele>1100</ele>
        <time>2022-07-26T14:22:42Z</time>
      </trkpt>
      <trkpt lat="44.08947" lon="7.08807">
        <ele>1100</ele>
        <time>2022-07-26T14:22:43Z</time>
      </trkpt>
      <trkpt lat="44.08947" lon="7.08806">
        <ele>1100</ele>
        <time>2022-07-26T14:22:44Z</time>
      </trkpt>
      <trkpt lat="44.08948" lon="7.08806">
        <ele>1100</ele>
        <time>2022-07-26T14:22:45Z</time>
      </trkpt>
      <trkpt lat="44.08948" lon="7.08805">
        <ele>1100</ele>
        <time>2022-07-26T14:22:46Z</time>
      </trkpt>
      <trkpt lat="44.08949" lon="7.08804">
        <ele>1100</ele>
        <time>2022-07-26T14:22:47Z</time>
      </trkpt>
      <trkpt lat="44.08949" lon="7.08802">
        <ele>1100</ele>
        <time>2022-07-26T14:22:48Z</time>
      </trkpt>
      <trkpt lat="44.08949" lon="7.08801">
        <ele>1100</ele>
        <time>2022-07-26T14:22:49Z</time>
      </trkpt>
      <trkpt lat="44.08949" lon="7.088">
        <ele>1100</ele>
        <time>2022-07-26T14:22:50Z</time>
      </trkpt>
      <trkpt lat="44.0895" lon="7.08799">
        <ele>1100</ele>
        <time>2022-07-26T14:22:51Z</time>
      </trkpt>
      <trkpt lat="44.0895" lon="7.08798">
        <ele>1100</ele>
        <time>2022-07-26T14:22:52Z</time>
      </trkpt>
      <trkpt lat="44.0895" lon="7.08796">
        <ele>1099</ele>
        <time>2022-07-26T14:22:53Z</time>
      </trkpt>
      <trkpt lat="44.08951" lon="7.08795">
        <ele>1099</ele>
        <time>2022-07-26T14:22:54Z</time>
      </trkpt>
      <trkpt lat="44.08951" lon="7.08794">
        <ele>1099</ele>
        <time>2022-07-26T14:22:55Z</time>
      </trkpt>
      <trkpt lat="44.08951" lon="7.08793">
        <ele>1099</ele>
        <time>2022-07-26T14:22:56Z</time>
      </trkpt>
      <trkpt lat="44.08951" lon="7.08792">
        <ele>1099</ele>
        <time>2022-07-26T14:22:57Z</time>
      </trkpt>
      <trkpt lat="44.08952" lon="7.08791">
        <ele>1099</ele>
        <time>2022-07-26T14:22:58Z</time>
      </trkpt>
      <trkpt lat="44.08952" lon="7.0879">
        <ele>1099</ele>
        <time>2022-07-26T14:22:59Z</time>
      </trkpt>
      <trkpt lat="44.08952" lon="7.0879">
        <ele>1099</ele>
        <time>2022-07-26T14:23:00Z</time>
      </trkpt>
      <trkpt lat="44.08952" lon="7.0879">
        <ele>1099</ele>
        <time>2022-07-26T14:23:01Z</time>
      </trkpt>
      <trkpt lat="44.08953" lon="7.0879">
        <ele>1099</ele>
        <time>2022-07-26T14:23:02Z</time>
      </trkpt>
      <trkpt lat="44.08953" lon="7.08789">
        <ele>1098</ele>
        <time>2022-07-26T14:23:03Z</time>
      </trkpt>
      <trkpt lat="44.08953" lon="7.08789">
        <ele>1098</ele>
        <time>2022-07-26T14:23:04Z</time>
      </trkpt>
      <trkpt lat="44.08954" lon="7.08789">
        <ele>1098</ele>
        <time>2022-07-26T14:23:05Z</time>
      </trkpt>
      <trkpt lat="44.08954" lon="7.08788">
        <ele>1098</ele>
        <time>2022-07-26T14:23:06Z</time>
      </trkpt>
      <trkpt lat="44.08955" lon="7.08788">
        <ele>1098</ele>
        <time>2022-07-26T14:23:07Z</time>
      </trkpt>
      <trkpt lat="44.08955" lon="7.08788">
        <ele>1098</ele>
        <time>2022-07-26T14:23:08Z</time>
      </trkpt>
      <trkpt lat="44.08956" lon="7.08788">
        <ele>1098</ele>
        <time>2022-07-26T14:23:09Z</time>
      </trkpt>
      <trkpt lat="44.08957" lon="7.08788">
        <ele>1098</ele>
        <time>2022-07-26T14:23:10Z</time>
      </trkpt>
      <trkpt lat="44.08958" lon="7.08788">
        <ele>1098</ele>
        <time>2022-07-26T14:23:11Z</time>
      </trkpt>
      <trkpt lat="44.08959" lon="7.08788">
        <ele>1096</ele>
        <time>2022-07-26T14:27:56Z</time>
      </trkpt>
      <trkpt lat="44.0896" lon="7.08788">
        <ele>1096</ele>
        <time>2022-07-26T14:27:57Z</time>
      </trkpt>
      <trkpt lat="44.0896" lon="7.08788">
        <ele>1096</ele>
        <time>2022-07-26T14:27:58Z</time>
      </trkpt>
      <trkpt lat="44.0896" lon="7.08788">
        <ele>1096</ele>
        <time>2022-07-26T14:27:59Z</time>
      </trkpt>
      <trkpt lat="44.0896" lon="7.08789">
        <ele>1096</ele>
        <time>2022-07-26T14:28:00Z</time>
      </trkpt>
      <trkpt lat="44.0896" lon="7.0879">
        <ele>1096</ele>
        <time>2022-07-26T14:28:01Z</time>
      </trkpt>
      <trkpt lat="44.08961" lon="7.08791">
        <ele>1096</ele>
        <time>2022-07-26T14:28:02Z</time>
      </trkpt>
      <trkpt lat="44.08961" lon="7.08792">
        <ele>1096</ele>
        <time>2022-07-26T14:28:03Z</time>
      </trkpt>
      <trkpt lat="44.08962" lon="7.08793">
        <ele>1096</ele>
        <time>2022-07-26T14:28:04Z</time>
      </trkpt>
      <trkpt lat="44.08963" lon="7.08794">
        <ele>1096</ele>
        <time>2022-07-26T14:28:05Z</time>
      </trkpt>
      <trkpt lat="44.08963" lon="7.08795">
        <ele>1096</ele>
        <time>2022-07-26T14:28:06Z</time>
      </trkpt>
      <trkpt lat="44.08964" lon="7.08796">
        <ele>1096</ele>
        <time>2022-07-26T14:28:07Z</time>
      </trkpt>
      <trkpt lat="44.08965" lon="7.08796">
        <ele>1095</ele>
        <time>2022-07-26T14:28:08Z</time>
      </trkpt>
      <trkpt lat="44.08966" lon="7.08797">
        <ele>1095</ele>
        <time>2022-07-26T14:28:09Z</time>
      </trkpt>
      <trkpt lat="44.08967" lon="7.08798">
        <ele>1095</ele>
        <time>2022-07-26T14:28:10Z</time>
      </trkpt>
      <trkpt lat="44.08967" lon="7.08798">
        <ele>1095</ele>
        <time>2022-07-26T14:28:11Z</time>
      </trkpt>
      <trkpt lat="44.08968" lon="7.08798">
        <ele>1095</ele>
        <time>2022-07-26T14:28:12Z</time>
      </trkpt>
      <trkpt lat="44.08969" lon="7.08798">
        <ele>1095</ele>
        <time>2022-07-26T14:28:13Z</time>
      </trkpt>
      <trkpt lat="44.08969" lon="7.08799">
        <ele>1095</ele>
        <time>2022-07-26T14:28:14Z</time>
      </trkpt>
      <trkpt lat="44.0897" lon="7.08799">
        <ele>1095</ele>
        <time>2022-07-26T14:28:15Z</time>
      </trkpt>
      <trkpt lat="44.0897" lon="7.08799">
        <ele>1095</ele>
        <time>2022-07-26T14:28:16Z</time>
      </trkpt>
      <trkpt lat="44.08969" lon="7.08799">
        <ele>1094</ele>
        <time>2022-07-26T14:28:24Z</time>
      </trkpt>
      <trkpt lat="44.08969" lon="7.08799">
        <ele>1094</ele>
        <time>2022-07-26T14:28:25Z</time>
      </trkpt>
      <trkpt lat="44.08969" lon="7.08799">
        <ele>1094</ele>
        <time>2022-07-26T14:28:26Z</time>
      </trkpt>
      <trkpt lat="44.08969" lon="7.08799">
        <ele>1094</ele>
        <time>2022-07-26T14:28:27Z</time>
      </trkpt>
      <trkpt lat="44.0897" lon="7.08798">
        <ele>1094</ele>
        <time>2022-07-26T14:28:28Z</time>
      </trkpt>
      <trkpt lat="44.0897" lon="7.08798">
        <ele>1094</ele>
        <time>2022-07-26T14:28:29Z</time>
      </trkpt>
      <trkpt lat="44.08971" lon="7.08797">
        <ele>1094</ele>
        <time>2022-07-26T14:28:30Z</time>
      </trkpt>
      <trkpt lat="44.08971" lon="7.08797">
        <ele>1094</ele>
        <time>2022-07-26T14:28:31Z</time>
      </trkpt>
      <trkpt lat="44.08972" lon="7.08796">
        <ele>1094</ele>
        <time>2022-07-26T14:28:32Z</time>
      </trkpt>
      <trkpt lat="44.08973" lon="7.08795">
        <ele>1094</ele>
        <time>2022-07-26T14:28:33Z</time>
      </trkpt>
      <trkpt lat="44.08974" lon="7.08794">
        <ele>1094</ele>
        <time>2022-07-26T14:28:34Z</time>
      </trkpt>
      <trkpt lat="44.08975" lon="7.08793">
        <ele>1094</ele>
        <time>2022-07-26T14:28:35Z</time>
      </trkpt>
      <trkpt lat="44.08976" lon="7.08792">
        <ele>1094</ele>
        <time>2022-07-26T14:28:36Z</time>
      </trkpt>
      <trkpt lat="44.08977" lon="7.08791">
        <ele>1094</ele>
        <time>2022-07-26T14:28:37Z</time>
      </trkpt>
      <trkpt lat="44.08978" lon="7.0879">
        <ele>1093</ele>
        <time>2022-07-26T14:28:38Z</time>
      </trkpt>
      <trkpt lat="44.0898" lon="7.08789">
        <ele>1093</ele>
        <time>2022-07-26T14:28:39Z</time>
      </trkpt>
      <trkpt lat="44.08981" lon="7.08788">
        <ele>1092</ele>
        <time>2022-07-26T14:28:40Z</time>
      </trkpt>
      <trkpt lat="44.08982" lon="7.08787">
        <ele>1092</ele>
        <time>2022-07-26T14:28:41Z</time>
      </trkpt>
      <trkpt lat="44.08983" lon="7.08786">
        <ele>1092</ele>
        <time>2022-07-26T14:28:42Z</time>
      </trkpt>
      <trkpt lat="44.08984" lon="7.08786">
        <ele>1092</ele>
        <time>2022-07-26T14:28:43Z</time>
      </trkpt>
      <trkpt lat="44.08985" lon="7.08785">
        <ele>1092</ele>
        <time>2022-07-26T14:28:44Z</time>
      </trkpt>
      <trkpt lat="44.08986" lon="7.08784">
        <ele>1092</ele>
        <time>2022-07-26T14:28:45Z</time>
      </trkpt>
      <trkpt lat="44.08987" lon="7.08784">
        <ele>1092</ele>
        <time>2022-07-26T14:28:46Z</time>
      </trkpt>
      <trkpt lat="44.08988" lon="7.08783">
        <ele>1092</ele>
        <time>2022-07-26T14:28:47Z</time>
      </trkpt>
      <trkpt lat="44.08989" lon="7.08783">
        <ele>1092</ele>
        <time>2022-07-26T14:28:48Z</time>
      </trkpt>
      <trkpt lat="44.08989" lon="7.08782">
        <ele>1092</ele>
        <time>2022-07-26T14:28:49Z</time>
      </trkpt>
      <trkpt lat="44.0899" lon="7.08781">
        <ele>1092</ele>
        <time>2022-07-26T14:28:50Z</time>
      </trkpt>
      <trkpt lat="44.0899" lon="7.0878">
        <ele>1092</ele>
        <time>2022-07-26T14:28:51Z</time>
      </trkpt>
      <trkpt lat="44.08991" lon="7.08779">
        <ele>1092</ele>
        <time>2022-07-26T14:28:52Z</time>
      </trkpt>
      <trkpt lat="44.08992" lon="7.08778">
        <ele>1092</ele>
        <time>2022-07-26T14:28:53Z</time>
      </trkpt>
      <trkpt lat="44.08992" lon="7.08778">
        <ele>1092</ele>
        <time>2022-07-26T14:28:54Z</time>
      </trkpt>
      <trkpt lat="44.08993" lon="7.08777">
        <ele>1092</ele>
        <time>2022-07-26T14:28:55Z</time>
      </trkpt>
      <trkpt lat="44.08994" lon="7.08777">
        <ele>1092</ele>
        <time>2022-07-26T14:28:56Z</time>
      </trkpt>
      <trkpt lat="44.08996" lon="7.08777">
        <ele>1092</ele>
        <time>2022-07-26T14:28:57Z</time>
      </trkpt>
      <trkpt lat="44.08997" lon="7.08776">
        <ele>1092</ele>
        <time>2022-07-26T14:28:58Z</time>
      </trkpt>
      <trkpt lat="44.08998" lon="7.08776">
        <ele>1092</ele>
        <time>2022-07-26T14:28:59Z</time>
      </trkpt>
      <trkpt lat="44.08999" lon="7.08776">
        <ele>1092</ele>
        <time>2022-07-26T14:29:00Z</time>
      </trkpt>
      <trkpt lat="44.09" lon="7.08776">
        <ele>1092</ele>
        <time>2022-07-26T14:29:01Z</time>
      </trkpt>
      <trkpt lat="44.09001" lon="7.08776">
        <ele>1092</ele>
        <time>2022-07-26T14:29:02Z</time>
      </trkpt>
      <trkpt lat="44.09002" lon="7.08776">
        <ele>1091</ele>
        <time>2022-07-26T14:29:03Z</time>
      </trkpt>
      <trkpt lat="44.09003" lon="7.08776">
        <ele>1091</ele>
        <time>2022-07-26T14:29:04Z</time>
      </trkpt>
      <trkpt lat="44.09004" lon="7.08777">
        <ele>1091</ele>
        <time>2022-07-26T14:29:05Z</time>
      </trkpt>
      <trkpt lat="44.09005" lon="7.08777">
        <ele>1091</ele>
        <time>2022-07-26T14:29:06Z</time>
      </trkpt>
      <trkpt lat="44.09006" lon="7.08778">
        <ele>1091</ele>
        <time>2022-07-26T14:29:07Z</time>
      </trkpt>
      <trkpt lat="44.09007" lon="7.08778">
        <ele>1091</ele>
        <time>2022-07-26T14:29:08Z</time>
      </trkpt>
      <trkpt lat="44.09007" lon="7.08779">
        <ele>1091</ele>
        <time>2022-07-26T14:29:09Z</time>
      </trkpt>
      <trkpt lat="44.09008" lon="7.0878">
        <ele>1091</ele>
        <time>2022-07-26T14:29:10Z</time>
      </trkpt>
      <trkpt lat="44.09009" lon="7.08781">
        <ele>1091</ele>
        <time>2022-07-26T14:29:11Z</time>
      </trkpt>
      <trkpt lat="44.0901" lon="7.08782">
        <ele>1091</ele>
        <time>2022-07-26T14:29:12Z</time>
      </trkpt>
      <trkpt lat="44.09011" lon="7.08783">
        <ele>1091</ele>
        <time>2022-07-26T14:29:13Z</time>
      </trkpt>
      <trkpt lat="44.09012" lon="7.08785">
        <ele>1091</ele>
        <time>2022-07-26T14:29:14Z</time>
      </trkpt>
      <trkpt lat="44.09012" lon="7.08786">
        <ele>1091</ele>
        <time>2022-07-26T14:29:15Z</time>
      </trkpt>
      <trkpt lat="44.09013" lon="7.08787">
        <ele>1091</ele>
        <time>2022-07-26T14:29:16Z</time>
      </trkpt>
      <trkpt lat="44.09013" lon="7.08789">
        <ele>1091</ele>
        <time>2022-07-26T14:29:17Z</time>
      </trkpt>
      <trkpt lat="44.09014" lon="7.0879">
        <ele>1090</ele>
        <time>2022-07-26T14:29:18Z</time>
      </trkpt>
      <trkpt lat="44.09015" lon="7.08792">
        <ele>1090</ele>
        <time>2022-07-26T14:29:19Z</time>
      </trkpt>
      <trkpt lat="44.09016" lon="7.08794">
        <ele>1090</ele>
        <time>2022-07-26T14:29:20Z</time>
      </trkpt>
      <trkpt lat="44.09017" lon="7.08796">
        <ele>1090</ele>
        <time>2022-07-26T14:29:21Z</time>
      </trkpt>
      <trkpt lat="44.09018" lon="7.08798">
        <ele>1090</ele>
        <time>2022-07-26T14:29:22Z</time>
      </trkpt>
      <trkpt lat="44.09019" lon="7.08799">
        <ele>1090</ele>
        <time>2022-07-26T14:29:23Z</time>
      </trkpt>
      <trkpt lat="44.09019" lon="7.08801">
        <ele>1090</ele>
        <time>2022-07-26T14:29:24Z</time>
      </trkpt>
      <trkpt lat="44.0902" lon="7.08802">
        <ele>1090</ele>
        <time>2022-07-26T14:29:25Z</time>
      </trkpt>
      <trkpt lat="44.0902" lon="7.08802">
        <ele>1090</ele>
        <time>2022-07-26T14:29:26Z</time>
      </trkpt>
      <trkpt lat="44.0902" lon="7.08804">
        <ele>1090</ele>
        <time>2022-07-26T14:29:27Z</time>
      </trkpt>
      <trkpt lat="44.09021" lon="7.08805">
        <ele>1090</ele>
        <time>2022-07-26T14:29:28Z</time>
      </trkpt>
      <trkpt lat="44.09021" lon="7.08806">
        <ele>1090</ele>
        <time>2022-07-26T14:29:29Z</time>
      </trkpt>
      <trkpt lat="44.09021" lon="7.08808">
        <ele>1090</ele>
        <time>2022-07-26T14:29:30Z</time>
      </trkpt>
      <trkpt lat="44.09021" lon="7.08809">
        <ele>1090</ele>
        <time>2022-07-26T14:29:31Z</time>
      </trkpt>
      <trkpt lat="44.09021" lon="7.08811">
        <ele>1090</ele>
        <time>2022-07-26T14:29:32Z</time>
      </trkpt>
      <trkpt lat="44.09022" lon="7.08811">
        <ele>1089</ele>
        <time>2022-07-26T14:29:33Z</time>
      </trkpt>
      <trkpt lat="44.09023" lon="7.08812">
        <ele>1089</ele>
        <time>2022-07-26T14:29:34Z</time>
      </trkpt>
      <trkpt lat="44.09023" lon="7.08813">
        <ele>1089</ele>
        <time>2022-07-26T14:29:35Z</time>
      </trkpt>
      <trkpt lat="44.09024" lon="7.08813">
        <ele>1089</ele>
        <time>2022-07-26T14:29:36Z</time>
      </trkpt>
      <trkpt lat="44.09024" lon="7.08814">
        <ele>1089</ele>
        <time>2022-07-26T14:29:37Z</time>
      </trkpt>
      <trkpt lat="44.09025" lon="7.08815">
        <ele>1089</ele>
        <time>2022-07-26T14:29:38Z</time>
      </trkpt>
      <trkpt lat="44.09025" lon="7.08816">
        <ele>1089</ele>
        <time>2022-07-26T14:29:39Z</time>
      </trkpt>
      <trkpt lat="44.09025" lon="7.08817">
        <ele>1089</ele>
        <time>2022-07-26T14:29:40Z</time>
      </trkpt>
      <trkpt lat="44.09026" lon="7.08818">
        <ele>1089</ele>
        <time>2022-07-26T14:29:41Z</time>
      </trkpt>
      <trkpt lat="44.09026" lon="7.08819">
        <ele>1089</ele>
        <time>2022-07-26T14:29:42Z</time>
      </trkpt>
      <trkpt lat="44.09027" lon="7.08819">
        <ele>1088</ele>
        <time>2022-07-26T14:29:43Z</time>
      </trkpt>
      <trkpt lat="44.09027" lon="7.0882">
        <ele>1088</ele>
        <time>2022-07-26T14:29:44Z</time>
      </trkpt>
      <trkpt lat="44.09028" lon="7.08821">
        <ele>1088</ele>
        <time>2022-07-26T14:29:45Z</time>
      </trkpt>
      <trkpt lat="44.09029" lon="7.08822">
        <ele>1088</ele>
        <time>2022-07-26T14:29:46Z</time>
      </trkpt>
      <trkpt lat="44.09029" lon="7.08823">
        <ele>1088</ele>
        <time>2022-07-26T14:29:47Z</time>
      </trkpt>
      <trkpt lat="44.0903" lon="7.08825">
        <ele>1088</ele>
        <time>2022-07-26T14:29:48Z</time>
      </trkpt>
      <trkpt lat="44.0903" lon="7.08826">
        <ele>1088</ele>
        <time>2022-07-26T14:29:49Z</time>
      </trkpt>
      <trkpt lat="44.0903" lon="7.08828">
        <ele>1088</ele>
        <time>2022-07-26T14:29:50Z</time>
      </trkpt>
      <trkpt lat="44.09031" lon="7.0883">
        <ele>1088</ele>
        <time>2022-07-26T14:29:51Z</time>
      </trkpt>
      <trkpt lat="44.09031" lon="7.08832">
        <ele>1088</ele>
        <time>2022-07-26T14:29:52Z</time>
      </trkpt>
      <trkpt lat="44.09031" lon="7.08833">
        <ele>1088</ele>
        <time>2022-07-26T14:29:53Z</time>
      </trkpt>
      <trkpt lat="44.09031" lon="7.08834">
        <ele>1088</ele>
        <time>2022-07-26T14:29:54Z</time>
      </trkpt>
      <trkpt lat="44.09032" lon="7.08835">
        <ele>1088</ele>
        <time>2022-07-26T14:29:55Z</time>
      </trkpt>
      <trkpt lat="44.09032" lon="7.08835">
        <ele>1088</ele>
        <time>2022-07-26T14:29:56Z</time>
      </trkpt>
      <trkpt lat="44.09032" lon="7.08837">
        <ele>1088</ele>
        <time>2022-07-26T14:29:57Z</time>
      </trkpt>
      <trkpt lat="44.09032" lon="7.08838">
        <ele>1087</ele>
        <time>2022-07-26T14:29:58Z</time>
      </trkpt>
      <trkpt lat="44.09032" lon="7.08839">
        <ele>1087</ele>
        <time>2022-07-26T14:29:59Z</time>
      </trkpt>
      <trkpt lat="44.09032" lon="7.0884">
        <ele>1087</ele>
        <time>2022-07-26T14:30:00Z</time>
      </trkpt>
      <trkpt lat="44.09033" lon="7.08842">
        <ele>1087</ele>
        <time>2022-07-26T14:30:01Z</time>
      </trkpt>
      <trkpt lat="44.09033" lon="7.08844">
        <ele>1087</ele>
        <time>2022-07-26T14:30:02Z</time>
      </trkpt>
      <trkpt lat="44.09033" lon="7.08845">
        <ele>1086</ele>
        <time>2022-07-26T14:30:03Z</time>
      </trkpt>
      <trkpt lat="44.09032" lon="7.08847">
        <ele>1086</ele>
        <time>2022-07-26T14:30:04Z</time>
      </trkpt>
      <trkpt lat="44.09032" lon="7.08848">
        <ele>1086</ele>
        <time>2022-07-26T14:30:05Z</time>
      </trkpt>
      <trkpt lat="44.09032" lon="7.0885">
        <ele>1086</ele>
        <time>2022-07-26T14:30:06Z</time>
      </trkpt>
      <trkpt lat="44.09032" lon="7.08852">
        <ele>1086</ele>
        <time>2022-07-26T14:30:07Z</time>
      </trkpt>
      <trkpt lat="44.09032" lon="7.08853">
        <ele>1085</ele>
        <time>2022-07-26T14:30:08Z</time>
      </trkpt>
      <trkpt lat="44.09032" lon="7.08855">
        <ele>1085</ele>
        <time>2022-07-26T14:30:09Z</time>
      </trkpt>
      <trkpt lat="44.09032" lon="7.08856">
        <ele>1085</ele>
        <time>2022-07-26T14:30:10Z</time>
      </trkpt>
      <trkpt lat="44.09032" lon="7.08858">
        <ele>1085</ele>
        <time>2022-07-26T14:30:11Z</time>
      </trkpt>
      <trkpt lat="44.09032" lon="7.08859">
        <ele>1085</ele>
        <time>2022-07-26T14:30:12Z</time>
      </trkpt>
      <trkpt lat="44.09032" lon="7.0886">
        <ele>1085</ele>
        <time>2022-07-26T14:30:13Z</time>
      </trkpt>
      <trkpt lat="44.09032" lon="7.08861">
        <ele>1085</ele>
        <time>2022-07-26T14:30:14Z</time>
      </trkpt>
      <trkpt lat="44.09032" lon="7.08862">
        <ele>1085</ele>
        <time>2022-07-26T14:30:15Z</time>
      </trkpt>
      <trkpt lat="44.09032" lon="7.08862">
        <ele>1085</ele>
        <time>2022-07-26T14:30:16Z</time>
      </trkpt>
      <trkpt lat="44.09032" lon="7.08863">
        <ele>1085</ele>
        <time>2022-07-26T14:30:17Z</time>
      </trkpt>
      <trkpt lat="44.09032" lon="7.08864">
        <ele>1084</ele>
        <time>2022-07-26T14:30:18Z</time>
      </trkpt>
      <trkpt lat="44.09032" lon="7.08865">
        <ele>1084</ele>
        <time>2022-07-26T14:30:19Z</time>
      </trkpt>
      <trkpt lat="44.09032" lon="7.08866">
        <ele>1084</ele>
        <time>2022-07-26T14:30:20Z</time>
      </trkpt>
      <trkpt lat="44.09032" lon="7.08868">
        <ele>1084</ele>
        <time>2022-07-26T14:30:21Z</time>
      </trkpt>
      <trkpt lat="44.09032" lon="7.0887">
        <ele>1084</ele>
        <time>2022-07-26T14:30:22Z</time>
      </trkpt>
      <trkpt lat="44.09032" lon="7.08872">
        <ele>1083</ele>
        <time>2022-07-26T14:30:23Z</time>
      </trkpt>
      <trkpt lat="44.09032" lon="7.08874">
        <ele>1083</ele>
        <time>2022-07-26T14:30:24Z</time>
      </trkpt>
      <trkpt lat="44.09031" lon="7.08876">
        <ele>1083</ele>
        <time>2022-07-26T14:30:25Z</time>
      </trkpt>
      <trkpt lat="44.09031" lon="7.08877">
        <ele>1083</ele>
        <time>2022-07-26T14:30:26Z</time>
      </trkpt>
      <trkpt lat="44.0903" lon="7.08878">
        <ele>1083</ele>
        <time>2022-07-26T14:30:27Z</time>
      </trkpt>
      <trkpt lat="44.09029" lon="7.08879">
        <ele>1083</ele>
        <time>2022-07-26T14:30:28Z</time>
      </trkpt>
      <trkpt lat="44.09027" lon="7.0888">
        <ele>1083</ele>
        <time>2022-07-26T14:30:29Z</time>
      </trkpt>
      <trkpt lat="44.09026" lon="7.08881">
        <ele>1083</ele>
        <time>2022-07-26T14:30:30Z</time>
      </trkpt>
      <trkpt lat="44.09025" lon="7.08882">
        <ele>1083</ele>
        <time>2022-07-26T14:30:31Z</time>
      </trkpt>
      <trkpt lat="44.09025" lon="7.08883">
        <ele>1083</ele>
        <time>2022-07-26T14:30:32Z</time>
      </trkpt>
      <trkpt lat="44.09024" lon="7.08885">
        <ele>1082</ele>
        <time>2022-07-26T14:30:33Z</time>
      </trkpt>
      <trkpt lat="44.09024" lon="7.08886">
        <ele>1082</ele>
        <time>2022-07-26T14:30:34Z</time>
      </trkpt>
      <trkpt lat="44.09024" lon="7.08887">
        <ele>1082</ele>
        <time>2022-07-26T14:30:35Z</time>
      </trkpt>
      <trkpt lat="44.09024" lon="7.08889">
        <ele>1082</ele>
        <time>2022-07-26T14:30:36Z</time>
      </trkpt>
      <trkpt lat="44.09024" lon="7.0889">
        <ele>1082</ele>
        <time>2022-07-26T14:30:37Z</time>
      </trkpt>
      <trkpt lat="44.09024" lon="7.08891">
        <ele>1081</ele>
        <time>2022-07-26T14:30:38Z</time>
      </trkpt>
      <trkpt lat="44.09024" lon="7.08892">
        <ele>1081</ele>
        <time>2022-07-26T14:30:39Z</time>
      </trkpt>
      <trkpt lat="44.09024" lon="7.08893">
        <ele>1081</ele>
        <time>2022-07-26T14:30:40Z</time>
      </trkpt>
      <trkpt lat="44.09025" lon="7.08893">
        <ele>1081</ele>
        <time>2022-07-26T14:30:41Z</time>
      </trkpt>
      <trkpt lat="44.09025" lon="7.08894">
        <ele>1081</ele>
        <time>2022-07-26T14:30:42Z</time>
      </trkpt>
      <trkpt lat="44.09025" lon="7.08895">
        <ele>1080</ele>
        <time>2022-07-26T14:30:43Z</time>
      </trkpt>
      <trkpt lat="44.09026" lon="7.08897">
        <ele>1080</ele>
        <time>2022-07-26T14:30:44Z</time>
      </trkpt>
      <trkpt lat="44.09026" lon="7.08898">
        <ele>1080</ele>
        <time>2022-07-26T14:30:45Z</time>
      </trkpt>
      <trkpt lat="44.09026" lon="7.08899">
        <ele>1080</ele>
        <time>2022-07-26T14:30:46Z</time>
      </trkpt>
      <trkpt lat="44.09027" lon="7.08901">
        <ele>1080</ele>
        <time>2022-07-26T14:30:47Z</time>
      </trkpt>
      <trkpt lat="44.09027" lon="7.08902">
        <ele>1079</ele>
        <time>2022-07-26T14:30:48Z</time>
      </trkpt>
      <trkpt lat="44.09027" lon="7.08904">
        <ele>1079</ele>
        <time>2022-07-26T14:30:49Z</time>
      </trkpt>
      <trkpt lat="44.09027" lon="7.08905">
        <ele>1079</ele>
        <time>2022-07-26T14:30:50Z</time>
      </trkpt>
      <trkpt lat="44.09027" lon="7.08906">
        <ele>1079</ele>
        <time>2022-07-26T14:30:51Z</time>
      </trkpt>
      <trkpt lat="44.09027" lon="7.08908">
        <ele>1079</ele>
        <time>2022-07-26T14:30:52Z</time>
      </trkpt>
      <trkpt lat="44.09027" lon="7.08909">
        <ele>1078</ele>
        <time>2022-07-26T14:30:53Z</time>
      </trkpt>
      <trkpt lat="44.09027" lon="7.0891">
        <ele>1078</ele>
        <time>2022-07-26T14:30:54Z</time>
      </trkpt>
      <trkpt lat="44.09027" lon="7.08911">
        <ele>1078</ele>
        <time>2022-07-26T14:30:55Z</time>
      </trkpt>
      <trkpt lat="44.09026" lon="7.08912">
        <ele>1078</ele>
        <time>2022-07-26T14:30:56Z</time>
      </trkpt>
      <trkpt lat="44.09026" lon="7.08913">
        <ele>1078</ele>
        <time>2022-07-26T14:30:57Z</time>
      </trkpt>
      <trkpt lat="44.09026" lon="7.08913">
        <ele>1077</ele>
        <time>2022-07-26T14:30:58Z</time>
      </trkpt>
      <trkpt lat="44.09027" lon="7.08914">
        <ele>1077</ele>
        <time>2022-07-26T14:30:59Z</time>
      </trkpt>
      <trkpt lat="44.09027" lon="7.08915">
        <ele>1077</ele>
        <time>2022-07-26T14:31:00Z</time>
      </trkpt>
      <trkpt lat="44.09027" lon="7.08917">
        <ele>1077</ele>
        <time>2022-07-26T14:31:01Z</time>
      </trkpt>
      <trkpt lat="44.09027" lon="7.08918">
        <ele>1077</ele>
        <time>2022-07-26T14:31:02Z</time>
      </trkpt>
      <trkpt lat="44.09027" lon="7.08919">
        <ele>1076</ele>
        <time>2022-07-26T14:31:03Z</time>
      </trkpt>
      <trkpt lat="44.09027" lon="7.08921">
        <ele>1076</ele>
        <time>2022-07-26T14:31:04Z</time>
      </trkpt>
      <trkpt lat="44.09027" lon="7.08922">
        <ele>1075</ele>
        <time>2022-07-26T14:31:05Z</time>
      </trkpt>
      <trkpt lat="44.09026" lon="7.08924">
        <ele>1075</ele>
        <time>2022-07-26T14:31:06Z</time>
      </trkpt>
      <trkpt lat="44.09026" lon="7.08925">
        <ele>1075</ele>
        <time>2022-07-26T14:31:07Z</time>
      </trkpt>
      <trkpt lat="44.09026" lon="7.08927">
        <ele>1074</ele>
        <time>2022-07-26T14:31:08Z</time>
      </trkpt>
      <trkpt lat="44.09026" lon="7.08928">
        <ele>1074</ele>
        <time>2022-07-26T14:31:09Z</time>
      </trkpt>
      <trkpt lat="44.09026" lon="7.08929">
        <ele>1074</ele>
        <time>2022-07-26T14:31:10Z</time>
      </trkpt>
      <trkpt lat="44.09027" lon="7.0893">
        <ele>1074</ele>
        <time>2022-07-26T14:31:11Z</time>
      </trkpt>
      <trkpt lat="44.09027" lon="7.08931">
        <ele>1074</ele>
        <time>2022-07-26T14:31:12Z</time>
      </trkpt>
      <trkpt lat="44.09027" lon="7.08932">
        <ele>1073</ele>
        <time>2022-07-26T14:31:13Z</time>
      </trkpt>
      <trkpt lat="44.09027" lon="7.08932">
        <ele>1073</ele>
        <time>2022-07-26T14:31:14Z</time>
      </trkpt>
      <trkpt lat="44.09026" lon="7.08933">
        <ele>1073</ele>
        <time>2022-07-26T14:31:15Z</time>
      </trkpt>
      <trkpt lat="44.09026" lon="7.08934">
        <ele>1073</ele>
        <time>2022-07-26T14:31:16Z</time>
      </trkpt>
      <trkpt lat="44.09026" lon="7.08934">
        <ele>1073</ele>
        <time>2022-07-26T14:31:17Z</time>
      </trkpt>
      <trkpt lat="44.09025" lon="7.08935">
        <ele>1072</ele>
        <time>2022-07-26T14:31:18Z</time>
      </trkpt>
      <trkpt lat="44.09024" lon="7.08935">
        <ele>1072</ele>
        <time>2022-07-26T14:31:19Z</time>
      </trkpt>
      <trkpt lat="44.09023" lon="7.08936">
        <ele>1072</ele>
        <time>2022-07-26T14:31:20Z</time>
      </trkpt>
      <trkpt lat="44.09023" lon="7.08938">
        <ele>1072</ele>
        <time>2022-07-26T14:31:21Z</time>
      </trkpt>
      <trkpt lat="44.09023" lon="7.08939">
        <ele>1072</ele>
        <time>2022-07-26T14:31:22Z</time>
      </trkpt>
      <trkpt lat="44.09023" lon="7.08941">
        <ele>1071</ele>
        <time>2022-07-26T14:31:23Z</time>
      </trkpt>
      <trkpt lat="44.09023" lon="7.08943">
        <ele>1071</ele>
        <time>2022-07-26T14:31:24Z</time>
      </trkpt>
      <trkpt lat="44.09023" lon="7.08945">
        <ele>1071</ele>
        <time>2022-07-26T14:31:25Z</time>
      </trkpt>
      <trkpt lat="44.09023" lon="7.08947">
        <ele>1071</ele>
        <time>2022-07-26T14:31:26Z</time>
      </trkpt>
      <trkpt lat="44.09023" lon="7.08948">
        <ele>1071</ele>
        <time>2022-07-26T14:31:27Z</time>
      </trkpt>
      <trkpt lat="44.09023" lon="7.0895">
        <ele>1070</ele>
        <time>2022-07-26T14:31:28Z</time>
      </trkpt>
      <trkpt lat="44.09023" lon="7.08952">
        <ele>1070</ele>
        <time>2022-07-26T14:31:29Z</time>
      </trkpt>
      <trkpt lat="44.09023" lon="7.08954">
        <ele>1070</ele>
        <time>2022-07-26T14:31:30Z</time>
      </trkpt>
      <trkpt lat="44.09023" lon="7.08956">
        <ele>1070</ele>
        <time>2022-07-26T14:31:31Z</time>
      </trkpt>
      <trkpt lat="44.09022" lon="7.08958">
        <ele>1070</ele>
        <time>2022-07-26T14:31:32Z</time>
      </trkpt>
      <trkpt lat="44.09022" lon="7.08959">
        <ele>1069</ele>
        <time>2022-07-26T14:31:33Z</time>
      </trkpt>
      <trkpt lat="44.09021" lon="7.08961">
        <ele>1069</ele>
        <time>2022-07-26T14:31:34Z</time>
      </trkpt>
      <trkpt lat="44.09021" lon="7.08962">
        <ele>1069</ele>
        <time>2022-07-26T14:31:35Z</time>
      </trkpt>
      <trkpt lat="44.0902" lon="7.08964">
        <ele>1069</ele>
        <time>2022-07-26T14:31:36Z</time>
      </trkpt>
      <trkpt lat="44.0902" lon="7.08965">
        <ele>1069</ele>
        <time>2022-07-26T14:31:37Z</time>
      </trkpt>
      <trkpt lat="44.09019" lon="7.08967">
        <ele>1068</ele>
        <time>2022-07-26T14:31:38Z</time>
      </trkpt>
      <trkpt lat="44.09019" lon="7.08969">
        <ele>1068</ele>
        <time>2022-07-26T14:31:39Z</time>
      </trkpt>
      <trkpt lat="44.09018" lon="7.0897">
        <ele>1067</ele>
        <time>2022-07-26T14:31:40Z</time>
      </trkpt>
      <trkpt lat="44.09018" lon="7.08972">
        <ele>1067</ele>
        <time>2022-07-26T14:31:41Z</time>
      </trkpt>
      <trkpt lat="44.09017" lon="7.08974">
        <ele>1067</ele>
        <time>2022-07-26T14:31:42Z</time>
      </trkpt>
      <trkpt lat="44.09016" lon="7.08975">
        <ele>1066</ele>
        <time>2022-07-26T14:31:50Z</time>
      </trkpt>
      <trkpt lat="44.09016" lon="7.08975">
        <ele>1066</ele>
        <time>2022-07-26T14:31:51Z</time>
      </trkpt>
      <trkpt lat="44.09016" lon="7.08975">
        <ele>1066</ele>
        <time>2022-07-26T14:31:52Z</time>
      </trkpt>
      <trkpt lat="44.09015" lon="7.08974">
        <ele>1065</ele>
        <time>2022-07-26T14:31:53Z</time>
      </trkpt>
      <trkpt lat="44.09015" lon="7.08973">
        <ele>1065</ele>
        <time>2022-07-26T14:31:54Z</time>
      </trkpt>
      <trkpt lat="44.09015" lon="7.08972">
        <ele>1065</ele>
        <time>2022-07-26T14:31:55Z</time>
      </trkpt>
      <trkpt lat="44.09014" lon="7.08972">
        <ele>1065</ele>
        <time>2022-07-26T14:31:56Z</time>
      </trkpt>
      <trkpt lat="44.09014" lon="7.08971">
        <ele>1065</ele>
        <time>2022-07-26T14:31:57Z</time>
      </trkpt>
      <trkpt lat="44.09013" lon="7.0897">
        <ele>1064</ele>
        <time>2022-07-26T14:31:58Z</time>
      </trkpt>
      <trkpt lat="44.09012" lon="7.08969">
        <ele>1064</ele>
        <time>2022-07-26T14:31:59Z</time>
      </trkpt>
      <trkpt lat="44.09012" lon="7.08968">
        <ele>1064</ele>
        <time>2022-07-26T14:32:00Z</time>
      </trkpt>
      <trkpt lat="44.09012" lon="7.08968">
        <ele>1064</ele>
        <time>2022-07-26T14:32:01Z</time>
      </trkpt>
      <trkpt lat="44.09011" lon="7.08968">
        <ele>1064</ele>
        <time>2022-07-26T14:32:02Z</time>
      </trkpt>
      <trkpt lat="44.0901" lon="7.08968">
        <ele>1063</ele>
        <time>2022-07-26T14:32:03Z</time>
      </trkpt>
      <trkpt lat="44.0901" lon="7.08968">
        <ele>1063</ele>
        <time>2022-07-26T14:32:04Z</time>
      </trkpt>
      <trkpt lat="44.09009" lon="7.08969">
        <ele>1063</ele>
        <time>2022-07-26T14:32:05Z</time>
      </trkpt>
      <trkpt lat="44.09008" lon="7.0897">
        <ele>1063</ele>
        <time>2022-07-26T14:32:06Z</time>
      </trkpt>
      <trkpt lat="44.09008" lon="7.08971">
        <ele>1063</ele>
        <time>2022-07-26T14:32:07Z</time>
      </trkpt>
      <trkpt lat="44.09007" lon="7.08973">
        <ele>1062</ele>
        <time>2022-07-26T14:32:08Z</time>
      </trkpt>
      <trkpt lat="44.09007" lon="7.08974">
        <ele>1062</ele>
        <time>2022-07-26T14:32:09Z</time>
      </trkpt>
      <trkpt lat="44.09006" lon="7.08975">
        <ele>1062</ele>
        <time>2022-07-26T14:32:10Z</time>
      </trkpt>
      <trkpt lat="44.09005" lon="7.08976">
        <ele>1062</ele>
        <time>2022-07-26T14:32:11Z</time>
      </trkpt>
      <trkpt lat="44.09004" lon="7.08977">
        <ele>1062</ele>
        <time>2022-07-26T14:32:12Z</time>
      </trkpt>
      <trkpt lat="44.09004" lon="7.08979">
        <ele>1062</ele>
        <time>2022-07-26T14:32:13Z</time>
      </trkpt>
      <trkpt lat="44.09004" lon="7.0898">
        <ele>1062</ele>
        <time>2022-07-26T14:32:14Z</time>
      </trkpt>
      <trkpt lat="44.09003" lon="7.08981">
        <ele>1062</ele>
        <time>2022-07-26T14:32:15Z</time>
      </trkpt>
      <trkpt lat="44.09004" lon="7.08983">
        <ele>1062</ele>
        <time>2022-07-26T14:32:16Z</time>
      </trkpt>
      <trkpt lat="44.09004" lon="7.08984">
        <ele>1062</ele>
        <time>2022-07-26T14:32:17Z</time>
      </trkpt>
      <trkpt lat="44.09005" lon="7.08985">
        <ele>1061</ele>
        <time>2022-07-26T14:32:18Z</time>
      </trkpt>
      <trkpt lat="44.09005" lon="7.08987">
        <ele>1061</ele>
        <time>2022-07-26T14:32:19Z</time>
      </trkpt>
      <trkpt lat="44.09006" lon="7.08988">
        <ele>1061</ele>
        <time>2022-07-26T14:32:20Z</time>
      </trkpt>
      <trkpt lat="44.09007" lon="7.08989">
        <ele>1061</ele>
        <time>2022-07-26T14:32:21Z</time>
      </trkpt>
      <trkpt lat="44.09007" lon="7.08991">
        <ele>1061</ele>
        <time>2022-07-26T14:32:22Z</time>
      </trkpt>
      <trkpt lat="44.09008" lon="7.08992">
        <ele>1060</ele>
        <time>2022-07-26T14:32:23Z</time>
      </trkpt>
      <trkpt lat="44.09008" lon="7.08994">
        <ele>1060</ele>
        <time>2022-07-26T14:32:24Z</time>
      </trkpt>
      <trkpt lat="44.09009" lon="7.08995">
        <ele>1060</ele>
        <time>2022-07-26T14:32:25Z</time>
      </trkpt>
      <trkpt lat="44.0901" lon="7.08997">
        <ele>1060</ele>
        <time>2022-07-26T14:32:26Z</time>
      </trkpt>
      <trkpt lat="44.0901" lon="7.08998">
        <ele>1060</ele>
        <time>2022-07-26T14:32:27Z</time>
      </trkpt>
      <trkpt lat="44.09011" lon="7.08999">
        <ele>1059</ele>
        <time>2022-07-26T14:32:28Z</time>
      </trkpt>
      <trkpt lat="44.09011" lon="7.09001">
        <ele>1059</ele>
        <time>2022-07-26T14:32:29Z</time>
      </trkpt>
      <trkpt lat="44.09011" lon="7.09002">
        <ele>1058</ele>
        <time>2022-07-26T14:32:30Z</time>
      </trkpt>
      <trkpt lat="44.09011" lon="7.09004">
        <ele>1058</ele>
        <time>2022-07-26T14:32:31Z</time>
      </trkpt>
      <trkpt lat="44.09011" lon="7.09005">
        <ele>1058</ele>
        <time>2022-07-26T14:32:32Z</time>
      </trkpt>
      <trkpt lat="44.0901" lon="7.09007">
        <ele>1057</ele>
        <time>2022-07-26T14:32:33Z</time>
      </trkpt>
      <trkpt lat="44.0901" lon="7.09009">
        <ele>1057</ele>
        <time>2022-07-26T14:32:34Z</time>
      </trkpt>
      <trkpt lat="44.09009" lon="7.0901">
        <ele>1057</ele>
        <time>2022-07-26T14:32:35Z</time>
      </trkpt>
      <trkpt lat="44.09009" lon="7.09012">
        <ele>1057</ele>
        <time>2022-07-26T14:32:36Z</time>
      </trkpt>
      <trkpt lat="44.09009" lon="7.09013">
        <ele>1057</ele>
        <time>2022-07-26T14:32:37Z</time>
      </trkpt>
      <trkpt lat="44.09008" lon="7.09015">
        <ele>1056</ele>
        <time>2022-07-26T14:32:38Z</time>
      </trkpt>
      <trkpt lat="44.09008" lon="7.09016">
        <ele>1056</ele>
        <time>2022-07-26T14:32:39Z</time>
      </trkpt>
      <trkpt lat="44.09007" lon="7.09018">
        <ele>1056</ele>
        <time>2022-07-26T14:32:40Z</time>
      </trkpt>
      <trkpt lat="44.09006" lon="7.0902">
        <ele>1056</ele>
        <time>2022-07-26T14:32:41Z</time>
      </trkpt>
      <trkpt lat="44.09005" lon="7.09021">
        <ele>1056</ele>
        <time>2022-07-26T14:32:42Z</time>
      </trkpt>
      <trkpt lat="44.09005" lon="7.09023">
        <ele>1056</ele>
        <time>2022-07-26T14:32:43Z</time>
      </trkpt>
      <trkpt lat="44.09004" lon="7.09024">
        <ele>1056</ele>
        <time>2022-07-26T14:32:44Z</time>
      </trkpt>
      <trkpt lat="44.09004" lon="7.09026">
        <ele>1056</ele>
        <time>2022-07-26T14:32:45Z</time>
      </trkpt>
      <trkpt lat="44.09004" lon="7.09028">
        <ele>1056</ele>
        <time>2022-07-26T14:32:46Z</time>
      </trkpt>
      <trkpt lat="44.09004" lon="7.09029">
        <ele>1056</ele>
        <time>2022-07-26T14:32:47Z</time>
      </trkpt>
      <trkpt lat="44.09004" lon="7.09031">
        <ele>1055</ele>
        <time>2022-07-26T14:32:48Z</time>
      </trkpt>
      <trkpt lat="44.09003" lon="7.09033">
        <ele>1055</ele>
        <time>2022-07-26T14:32:49Z</time>
      </trkpt>
      <trkpt lat="44.09003" lon="7.09034">
        <ele>1055</ele>
        <time>2022-07-26T14:32:50Z</time>
      </trkpt>
      <trkpt lat="44.09002" lon="7.09036">
        <ele>1055</ele>
        <time>2022-07-26T14:32:51Z</time>
      </trkpt>
      <trkpt lat="44.09002" lon="7.09038">
        <ele>1055</ele>
        <time>2022-07-26T14:32:52Z</time>
      </trkpt>
      <trkpt lat="44.09001" lon="7.09039">
        <ele>1054</ele>
        <time>2022-07-26T14:32:53Z</time>
      </trkpt>
      <trkpt lat="44.09001" lon="7.09041">
        <ele>1054</ele>
        <time>2022-07-26T14:32:54Z</time>
      </trkpt>
      <trkpt lat="44.09001" lon="7.09042">
        <ele>1054</ele>
        <time>2022-07-26T14:32:55Z</time>
      </trkpt>
      <trkpt lat="44.09" lon="7.09044">
        <ele>1054</ele>
        <time>2022-07-26T14:32:56Z</time>
      </trkpt>
      <trkpt lat="44.09001" lon="7.09045">
        <ele>1054</ele>
        <time>2022-07-26T14:32:57Z</time>
      </trkpt>
      <trkpt lat="44.09001" lon="7.09046">
        <ele>1054</ele>
        <time>2022-07-26T14:32:58Z</time>
      </trkpt>
      <trkpt lat="44.09002" lon="7.09047">
        <ele>1054</ele>
        <time>2022-07-26T14:32:59Z</time>
      </trkpt>
      <trkpt lat="44.09002" lon="7.09049">
        <ele>1054</ele>
        <time>2022-07-26T14:33:00Z</time>
      </trkpt>
      <trkpt lat="44.09003" lon="7.0905">
        <ele>1054</ele>
        <time>2022-07-26T14:33:01Z</time>
      </trkpt>
      <trkpt lat="44.09004" lon="7.09051">
        <ele>1054</ele>
        <time>2022-07-26T14:33:02Z</time>
      </trkpt>
      <trkpt lat="44.09005" lon="7.09051">
        <ele>1053</ele>
        <time>2022-07-26T14:33:03Z</time>
      </trkpt>
      <trkpt lat="44.09006" lon="7.09052">
        <ele>1053</ele>
        <time>2022-07-26T14:33:04Z</time>
      </trkpt>
      <trkpt lat="44.09007" lon="7.09053">
        <ele>1053</ele>
        <time>2022-07-26T14:33:05Z</time>
      </trkpt>
      <trkpt lat="44.09008" lon="7.09053">
        <ele>1053</ele>
        <time>2022-07-26T14:33:06Z</time>
      </trkpt>
      <trkpt lat="44.09009" lon="7.09054">
        <ele>1053</ele>
        <time>2022-07-26T14:33:07Z</time>
      </trkpt>
      <trkpt lat="44.0901" lon="7.09054">
        <ele>1052</ele>
        <time>2022-07-26T14:33:08Z</time>
      </trkpt>
      <trkpt lat="44.09011" lon="7.09054">
        <ele>1052</ele>
        <time>2022-07-26T14:33:09Z</time>
      </trkpt>
      <trkpt lat="44.09012" lon="7.09054">
        <ele>1052</ele>
        <time>2022-07-26T14:33:10Z</time>
      </trkpt>
      <trkpt lat="44.09013" lon="7.09054">
        <ele>1052</ele>
        <time>2022-07-26T14:33:11Z</time>
      </trkpt>
      <trkpt lat="44.09014" lon="7.09055">
        <ele>1052</ele>
        <time>2022-07-26T14:33:12Z</time>
      </trkpt>
      <trkpt lat="44.09015" lon="7.09055">
        <ele>1052</ele>
        <time>2022-07-26T14:33:13Z</time>
      </trkpt>
      <trkpt lat="44.09016" lon="7.09056">
        <ele>1052</ele>
        <time>2022-07-26T14:33:14Z</time>
      </trkpt>
      <trkpt lat="44.09017" lon="7.09057">
        <ele>1052</ele>
        <time>2022-07-26T14:33:15Z</time>
      </trkpt>
      <trkpt lat="44.09018" lon="7.09058">
        <ele>1052</ele>
        <time>2022-07-26T14:33:16Z</time>
      </trkpt>
      <trkpt lat="44.09019" lon="7.09059">
        <ele>1052</ele>
        <time>2022-07-26T14:33:17Z</time>
      </trkpt>
      <trkpt lat="44.0902" lon="7.09061">
        <ele>1051</ele>
        <time>2022-07-26T14:33:18Z</time>
      </trkpt>
      <trkpt lat="44.09021" lon="7.09062">
        <ele>1051</ele>
        <time>2022-07-26T14:33:19Z</time>
      </trkpt>
      <trkpt lat="44.09022" lon="7.09063">
        <ele>1051</ele>
        <time>2022-07-26T14:33:20Z</time>
      </trkpt>
      <trkpt lat="44.09023" lon="7.09064">
        <ele>1051</ele>
        <time>2022-07-26T14:33:21Z</time>
      </trkpt>
      <trkpt lat="44.09024" lon="7.09066">
        <ele>1051</ele>
        <time>2022-07-26T14:33:22Z</time>
      </trkpt>
      <trkpt lat="44.09024" lon="7.09067">
        <ele>1050</ele>
        <time>2022-07-26T14:33:23Z</time>
      </trkpt>
      <trkpt lat="44.09025" lon="7.09069">
        <ele>1050</ele>
        <time>2022-07-26T14:33:24Z</time>
      </trkpt>
      <trkpt lat="44.09026" lon="7.0907">
        <ele>1050</ele>
        <time>2022-07-26T14:33:25Z</time>
      </trkpt>
      <trkpt lat="44.09027" lon="7.09072">
        <ele>1050</ele>
        <time>2022-07-26T14:33:26Z</time>
      </trkpt>
      <trkpt lat="44.09027" lon="7.09073">
        <ele>1050</ele>
        <time>2022-07-26T14:33:27Z</time>
      </trkpt>
      <trkpt lat="44.09028" lon="7.09075">
        <ele>1049</ele>
        <time>2022-07-26T14:33:28Z</time>
      </trkpt>
      <trkpt lat="44.09029" lon="7.09076">
        <ele>1049</ele>
        <time>2022-07-26T14:33:29Z</time>
      </trkpt>
      <trkpt lat="44.09029" lon="7.09078">
        <ele>1049</ele>
        <time>2022-07-26T14:33:30Z</time>
      </trkpt>
      <trkpt lat="44.0903" lon="7.09079">
        <ele>1049</ele>
        <time>2022-07-26T14:33:31Z</time>
      </trkpt>
      <trkpt lat="44.0903" lon="7.09081">
        <ele>1049</ele>
        <time>2022-07-26T14:33:32Z</time>
      </trkpt>
      <trkpt lat="44.09031" lon="7.09082">
        <ele>1048</ele>
        <time>2022-07-26T14:33:33Z</time>
      </trkpt>
      <trkpt lat="44.09031" lon="7.09084">
        <ele>1048</ele>
        <time>2022-07-26T14:33:34Z</time>
      </trkpt>
      <trkpt lat="44.09032" lon="7.09086">
        <ele>1048</ele>
        <time>2022-07-26T14:33:35Z</time>
      </trkpt>
      <trkpt lat="44.09032" lon="7.09087">
        <ele>1048</ele>
        <time>2022-07-26T14:33:36Z</time>
      </trkpt>
      <trkpt lat="44.09032" lon="7.09089">
        <ele>1048</ele>
        <time>2022-07-26T14:33:37Z</time>
      </trkpt>
      <trkpt lat="44.09033" lon="7.09091">
        <ele>1047</ele>
        <time>2022-07-26T14:33:38Z</time>
      </trkpt>
      <trkpt lat="44.09033" lon="7.09093">
        <ele>1047</ele>
        <time>2022-07-26T14:33:39Z</time>
      </trkpt>
      <trkpt lat="44.09033" lon="7.09095">
        <ele>1047</ele>
        <time>2022-07-26T14:33:40Z</time>
      </trkpt>
      <trkpt lat="44.09033" lon="7.09097">
        <ele>1047</ele>
        <time>2022-07-26T14:33:41Z</time>
      </trkpt>
      <trkpt lat="44.09033" lon="7.09099">
        <ele>1047</ele>
        <time>2022-07-26T14:33:42Z</time>
      </trkpt>
      <trkpt lat="44.09034" lon="7.091">
        <ele>1047</ele>
        <time>2022-07-26T14:33:43Z</time>
      </trkpt>
      <trkpt lat="44.09034" lon="7.09102">
        <ele>1047</ele>
        <time>2022-07-26T14:33:44Z</time>
      </trkpt>
      <trkpt lat="44.09034" lon="7.09104">
        <ele>1047</ele>
        <time>2022-07-26T14:33:45Z</time>
      </trkpt>
      <trkpt lat="44.09035" lon="7.09106">
        <ele>1047</ele>
        <time>2022-07-26T14:33:46Z</time>
      </trkpt>
      <trkpt lat="44.09035" lon="7.09107">
        <ele>1047</ele>
        <time>2022-07-26T14:33:47Z</time>
      </trkpt>
      <trkpt lat="44.09035" lon="7.09109">
        <ele>1046</ele>
        <time>2022-07-26T14:33:48Z</time>
      </trkpt>
      <trkpt lat="44.09035" lon="7.09111">
        <ele>1046</ele>
        <time>2022-07-26T14:33:49Z</time>
      </trkpt>
      <trkpt lat="44.09035" lon="7.09113">
        <ele>1046</ele>
        <time>2022-07-26T14:33:50Z</time>
      </trkpt>
      <trkpt lat="44.09036" lon="7.09114">
        <ele>1046</ele>
        <time>2022-07-26T14:33:51Z</time>
      </trkpt>
      <trkpt lat="44.09036" lon="7.09115">
        <ele>1046</ele>
        <time>2022-07-26T14:33:52Z</time>
      </trkpt>
      <trkpt lat="44.09036" lon="7.09117">
        <ele>1046</ele>
        <time>2022-07-26T14:33:53Z</time>
      </trkpt>
      <trkpt lat="44.09036" lon="7.09118">
        <ele>1046</ele>
        <time>2022-07-26T14:33:54Z</time>
      </trkpt>
      <trkpt lat="44.09037" lon="7.09119">
        <ele>1046</ele>
        <time>2022-07-26T14:33:55Z</time>
      </trkpt>
      <trkpt lat="44.09037" lon="7.0912">
        <ele>1046</ele>
        <time>2022-07-26T14:33:56Z</time>
      </trkpt>
      <trkpt lat="44.09037" lon="7.09122">
        <ele>1046</ele>
        <time>2022-07-26T14:33:57Z</time>
      </trkpt>
      <trkpt lat="44.09037" lon="7.09123">
        <ele>1045</ele>
        <time>2022-07-26T14:33:58Z</time>
      </trkpt>
      <trkpt lat="44.09037" lon="7.09124">
        <ele>1045</ele>
        <time>2022-07-26T14:33:59Z</time>
      </trkpt>
      <trkpt lat="44.09038" lon="7.09126">
        <ele>1045</ele>
        <time>2022-07-26T14:34:00Z</time>
      </trkpt>
      <trkpt lat="44.09038" lon="7.09128">
        <ele>1045</ele>
        <time>2022-07-26T14:34:01Z</time>
      </trkpt>
      <trkpt lat="44.09038" lon="7.09129">
        <ele>1045</ele>
        <time>2022-07-26T14:34:02Z</time>
      </trkpt>
      <trkpt lat="44.09039" lon="7.09131">
        <ele>1044</ele>
        <time>2022-07-26T14:34:03Z</time>
      </trkpt>
      <trkpt lat="44.09039" lon="7.09133">
        <ele>1044</ele>
        <time>2022-07-26T14:34:04Z</time>
      </trkpt>
      <trkpt lat="44.09039" lon="7.09134">
        <ele>1044</ele>
        <time>2022-07-26T14:34:05Z</time>
      </trkpt>
      <trkpt lat="44.09039" lon="7.09136">
        <ele>1044</ele>
        <time>2022-07-26T14:34:06Z</time>
      </trkpt>
      <trkpt lat="44.09039" lon="7.09138">
        <ele>1044</ele>
        <time>2022-07-26T14:34:07Z</time>
      </trkpt>
      <trkpt lat="44.09039" lon="7.09139">
        <ele>1044</ele>
        <time>2022-07-26T14:34:08Z</time>
      </trkpt>
      <trkpt lat="44.09039" lon="7.09141">
        <ele>1044</ele>
        <time>2022-07-26T14:34:09Z</time>
      </trkpt>
      <trkpt lat="44.09039" lon="7.09142">
        <ele>1044</ele>
        <time>2022-07-26T14:34:10Z</time>
      </trkpt>
      <trkpt lat="44.09039" lon="7.09144">
        <ele>1044</ele>
        <time>2022-07-26T14:34:11Z</time>
      </trkpt>
      <trkpt lat="44.09038" lon="7.09145">
        <ele>1044</ele>
        <time>2022-07-26T14:34:12Z</time>
      </trkpt>
      <trkpt lat="44.09038" lon="7.09147">
        <ele>1043</ele>
        <time>2022-07-26T14:34:13Z</time>
      </trkpt>
      <trkpt lat="44.09038" lon="7.09148">
        <ele>1043</ele>
        <time>2022-07-26T14:34:14Z</time>
      </trkpt>
      <trkpt lat="44.09038" lon="7.0915">
        <ele>1043</ele>
        <time>2022-07-26T14:34:15Z</time>
      </trkpt>
      <trkpt lat="44.09037" lon="7.09151">
        <ele>1043</ele>
        <time>2022-07-26T14:34:16Z</time>
      </trkpt>
      <trkpt lat="44.09037" lon="7.09153">
        <ele>1043</ele>
        <time>2022-07-26T14:34:17Z</time>
      </trkpt>
      <trkpt lat="44.09037" lon="7.09154">
        <ele>1043</ele>
        <time>2022-07-26T14:34:18Z</time>
      </trkpt>
      <trkpt lat="44.09037" lon="7.09155">
        <ele>1043</ele>
        <time>2022-07-26T14:34:19Z</time>
      </trkpt>
      <trkpt lat="44.09037" lon="7.09156">
        <ele>1043</ele>
        <time>2022-07-26T14:34:20Z</time>
      </trkpt>
      <trkpt lat="44.09037" lon="7.09157">
        <ele>1043</ele>
        <time>2022-07-26T14:34:21Z</time>
      </trkpt>
      <trkpt lat="44.09037" lon="7.09158">
        <ele>1043</ele>
        <time>2022-07-26T14:34:22Z</time>
      </trkpt>
      <trkpt lat="44.09037" lon="7.09159">
        <ele>1042</ele>
        <time>2022-07-26T14:34:23Z</time>
      </trkpt>
      <trkpt lat="44.09037" lon="7.0916">
        <ele>1042</ele>
        <time>2022-07-26T14:34:24Z</time>
      </trkpt>
      <trkpt lat="44.09037" lon="7.09161">
        <ele>1041</ele>
        <time>2022-07-26T14:34:25Z</time>
      </trkpt>
      <trkpt lat="44.09037" lon="7.09162">
        <ele>1041</ele>
        <time>2022-07-26T14:34:26Z</time>
      </trkpt>
      <trkpt lat="44.09037" lon="7.09164">
        <ele>1041</ele>
        <time>2022-07-26T14:34:27Z</time>
      </trkpt>
      <trkpt lat="44.09036" lon="7.09165">
        <ele>1041</ele>
        <time>2022-07-26T14:34:28Z</time>
      </trkpt>
      <trkpt lat="44.09037" lon="7.09167">
        <ele>1041</ele>
        <time>2022-07-26T14:34:29Z</time>
      </trkpt>
      <trkpt lat="44.09037" lon="7.09169">
        <ele>1041</ele>
        <time>2022-07-26T14:34:30Z</time>
      </trkpt>
      <trkpt lat="44.09037" lon="7.0917">
        <ele>1041</ele>
        <time>2022-07-26T14:34:31Z</time>
      </trkpt>
      <trkpt lat="44.09037" lon="7.09172">
        <ele>1041</ele>
        <time>2022-07-26T14:34:32Z</time>
      </trkpt>
      <trkpt lat="44.09037" lon="7.09173">
        <ele>1040</ele>
        <time>2022-07-26T14:34:33Z</time>
      </trkpt>
      <trkpt lat="44.09037" lon="7.09174">
        <ele>1040</ele>
        <time>2022-07-26T14:34:34Z</time>
      </trkpt>
      <trkpt lat="44.09038" lon="7.09176">
        <ele>1040</ele>
        <time>2022-07-26T14:34:35Z</time>
      </trkpt>
      <trkpt lat="44.09038" lon="7.09177">
        <ele>1040</ele>
        <time>2022-07-26T14:34:36Z</time>
      </trkpt>
      <trkpt lat="44.09039" lon="7.09178">
        <ele>1040</ele>
        <time>2022-07-26T14:34:37Z</time>
      </trkpt>
      <trkpt lat="44.09039" lon="7.0918">
        <ele>1040</ele>
        <time>2022-07-26T14:34:38Z</time>
      </trkpt>
      <trkpt lat="44.0904" lon="7.09181">
        <ele>1040</ele>
        <time>2022-07-26T14:34:39Z</time>
      </trkpt>
      <trkpt lat="44.09041" lon="7.09182">
        <ele>1040</ele>
        <time>2022-07-26T14:34:40Z</time>
      </trkpt>
      <trkpt lat="44.09041" lon="7.09184">
        <ele>1040</ele>
        <time>2022-07-26T14:34:41Z</time>
      </trkpt>
      <trkpt lat="44.09042" lon="7.09185">
        <ele>1040</ele>
        <time>2022-07-26T14:34:42Z</time>
      </trkpt>
      <trkpt lat="44.09043" lon="7.09186">
        <ele>1039</ele>
        <time>2022-07-26T14:34:43Z</time>
      </trkpt>
      <trkpt lat="44.09044" lon="7.09188">
        <ele>1039</ele>
        <time>2022-07-26T14:34:44Z</time>
      </trkpt>
      <trkpt lat="44.09044" lon="7.09189">
        <ele>1039</ele>
        <time>2022-07-26T14:34:45Z</time>
      </trkpt>
      <trkpt lat="44.09045" lon="7.09191">
        <ele>1039</ele>
        <time>2022-07-26T14:34:46Z</time>
      </trkpt>
      <trkpt lat="44.09046" lon="7.09192">
        <ele>1039</ele>
        <time>2022-07-26T14:34:47Z</time>
      </trkpt>
      <trkpt lat="44.09047" lon="7.09194">
        <ele>1038</ele>
        <time>2022-07-26T14:34:48Z</time>
      </trkpt>
      <trkpt lat="44.09047" lon="7.09195">
        <ele>1038</ele>
        <time>2022-07-26T14:34:49Z</time>
      </trkpt>
      <trkpt lat="44.09048" lon="7.09196">
        <ele>1038</ele>
        <time>2022-07-26T14:34:50Z</time>
      </trkpt>
      <trkpt lat="44.09049" lon="7.09197">
        <ele>1038</ele>
        <time>2022-07-26T14:34:51Z</time>
      </trkpt>
      <trkpt lat="44.0905" lon="7.09198">
        <ele>1038</ele>
        <time>2022-07-26T14:34:52Z</time>
      </trkpt>
      <trkpt lat="44.09051" lon="7.092">
        <ele>1037</ele>
        <time>2022-07-26T14:34:53Z</time>
      </trkpt>
      <trkpt lat="44.09052" lon="7.09201">
        <ele>1037</ele>
        <time>2022-07-26T14:34:54Z</time>
      </trkpt>
      <trkpt lat="44.09053" lon="7.09202">
        <ele>1037</ele>
        <time>2022-07-26T14:34:55Z</time>
      </trkpt>
      <trkpt lat="44.09054" lon="7.09204">
        <ele>1037</ele>
        <time>2022-07-26T14:34:56Z</time>
      </trkpt>
      <trkpt lat="44.09055" lon="7.09205">
        <ele>1037</ele>
        <time>2022-07-26T14:34:57Z</time>
      </trkpt>
      <trkpt lat="44.09056" lon="7.09206">
        <ele>1037</ele>
        <time>2022-07-26T14:34:58Z</time>
      </trkpt>
      <trkpt lat="44.09057" lon="7.09207">
        <ele>1037</ele>
        <time>2022-07-26T14:34:59Z</time>
      </trkpt>
      <trkpt lat="44.09057" lon="7.09208">
        <ele>1037</ele>
        <time>2022-07-26T14:35:00Z</time>
      </trkpt>
      <trkpt lat="44.09058" lon="7.0921">
        <ele>1037</ele>
        <time>2022-07-26T14:35:01Z</time>
      </trkpt>
      <trkpt lat="44.09059" lon="7.09211">
        <ele>1037</ele>
        <time>2022-07-26T14:35:02Z</time>
      </trkpt>
      <trkpt lat="44.09059" lon="7.09212">
        <ele>1036</ele>
        <time>2022-07-26T14:35:03Z</time>
      </trkpt>
      <trkpt lat="44.0906" lon="7.09214">
        <ele>1036</ele>
        <time>2022-07-26T14:35:04Z</time>
      </trkpt>
      <trkpt lat="44.09061" lon="7.09215">
        <ele>1036</ele>
        <time>2022-07-26T14:35:05Z</time>
      </trkpt>
      <trkpt lat="44.09061" lon="7.09217">
        <ele>1036</ele>
        <time>2022-07-26T14:35:06Z</time>
      </trkpt>
      <trkpt lat="44.09062" lon="7.09218">
        <ele>1036</ele>
        <time>2022-07-26T14:35:07Z</time>
      </trkpt>
      <trkpt lat="44.09062" lon="7.09219">
        <ele>1035</ele>
        <time>2022-07-26T14:35:08Z</time>
      </trkpt>
      <trkpt lat="44.09063" lon="7.09221">
        <ele>1035</ele>
        <time>2022-07-26T14:35:09Z</time>
      </trkpt>
      <trkpt lat="44.09063" lon="7.09222">
        <ele>1035</ele>
        <time>2022-07-26T14:35:10Z</time>
      </trkpt>
      <trkpt lat="44.09064" lon="7.09224">
        <ele>1035</ele>
        <time>2022-07-26T14:35:11Z</time>
      </trkpt>
      <trkpt lat="44.09064" lon="7.09225">
        <ele>1035</ele>
        <time>2022-07-26T14:35:12Z</time>
      </trkpt>
      <trkpt lat="44.09064" lon="7.09226">
        <ele>1035</ele>
        <time>2022-07-26T14:35:13Z</time>
      </trkpt>
      <trkpt lat="44.09064" lon="7.09228">
        <ele>1035</ele>
        <time>2022-07-26T14:35:14Z</time>
      </trkpt>
      <trkpt lat="44.09064" lon="7.09229">
        <ele>1035</ele>
        <time>2022-07-26T14:35:15Z</time>
      </trkpt>
      <trkpt lat="44.09065" lon="7.0923">
        <ele>1035</ele>
        <time>2022-07-26T14:35:16Z</time>
      </trkpt>
      <trkpt lat="44.09065" lon="7.09231">
        <ele>1035</ele>
        <time>2022-07-26T14:35:17Z</time>
      </trkpt>
      <trkpt lat="44.09065" lon="7.09233">
        <ele>1034</ele>
        <time>2022-07-26T14:35:18Z</time>
      </trkpt>
      <trkpt lat="44.09065" lon="7.09234">
        <ele>1034</ele>
        <time>2022-07-26T14:35:19Z</time>
      </trkpt>
      <trkpt lat="44.09065" lon="7.09235">
        <ele>1034</ele>
        <time>2022-07-26T14:35:20Z</time>
      </trkpt>
      <trkpt lat="44.09065" lon="7.09237">
        <ele>1034</ele>
        <time>2022-07-26T14:35:21Z</time>
      </trkpt>
      <trkpt lat="44.09065" lon="7.09238">
        <ele>1034</ele>
        <time>2022-07-26T14:35:22Z</time>
      </trkpt>
      <trkpt lat="44.09065" lon="7.0924">
        <ele>1033</ele>
        <time>2022-07-26T14:35:23Z</time>
      </trkpt>
      <trkpt lat="44.09065" lon="7.09242">
        <ele>1033</ele>
        <time>2022-07-26T14:35:24Z</time>
      </trkpt>
      <trkpt lat="44.09065" lon="7.09244">
        <ele>1033</ele>
        <time>2022-07-26T14:35:25Z</time>
      </trkpt>
      <trkpt lat="44.09066" lon="7.09246">
        <ele>1033</ele>
        <time>2022-07-26T14:35:26Z</time>
      </trkpt>
      <trkpt lat="44.09066" lon="7.09247">
        <ele>1033</ele>
        <time>2022-07-26T14:35:27Z</time>
      </trkpt>
      <trkpt lat="44.09066" lon="7.09249">
        <ele>1032</ele>
        <time>2022-07-26T14:35:28Z</time>
      </trkpt>
      <trkpt lat="44.09066" lon="7.09251">
        <ele>1032</ele>
        <time>2022-07-26T14:35:29Z</time>
      </trkpt>
      <trkpt lat="44.09066" lon="7.09252">
        <ele>1032</ele>
        <time>2022-07-26T14:35:30Z</time>
      </trkpt>
      <trkpt lat="44.09067" lon="7.09254">
        <ele>1032</ele>
        <time>2022-07-26T14:35:31Z</time>
      </trkpt>
      <trkpt lat="44.09067" lon="7.09255">
        <ele>1032</ele>
        <time>2022-07-26T14:35:32Z</time>
      </trkpt>
      <trkpt lat="44.09067" lon="7.09257">
        <ele>1032</ele>
        <time>2022-07-26T14:35:33Z</time>
      </trkpt>
      <trkpt lat="44.09068" lon="7.09258">
        <ele>1032</ele>
        <time>2022-07-26T14:35:34Z</time>
      </trkpt>
      <trkpt lat="44.09068" lon="7.0926">
        <ele>1032</ele>
        <time>2022-07-26T14:35:35Z</time>
      </trkpt>
      <trkpt lat="44.09068" lon="7.09261">
        <ele>1032</ele>
        <time>2022-07-26T14:35:36Z</time>
      </trkpt>
      <trkpt lat="44.09068" lon="7.09263">
        <ele>1032</ele>
        <time>2022-07-26T14:35:37Z</time>
      </trkpt>
      <trkpt lat="44.09068" lon="7.09265">
        <ele>1031</ele>
        <time>2022-07-26T14:35:38Z</time>
      </trkpt>
      <trkpt lat="44.09068" lon="7.09266">
        <ele>1031</ele>
        <time>2022-07-26T14:35:39Z</time>
      </trkpt>
      <trkpt lat="44.09068" lon="7.09268">
        <ele>1031</ele>
        <time>2022-07-26T14:35:40Z</time>
      </trkpt>
      <trkpt lat="44.09068" lon="7.0927">
        <ele>1031</ele>
        <time>2022-07-26T14:35:41Z</time>
      </trkpt>
      <trkpt lat="44.09068" lon="7.09271">
        <ele>1031</ele>
        <time>2022-07-26T14:35:42Z</time>
      </trkpt>
      <trkpt lat="44.09068" lon="7.09273">
        <ele>1030</ele>
        <time>2022-07-26T14:35:43Z</time>
      </trkpt>
      <trkpt lat="44.09067" lon="7.09275">
        <ele>1030</ele>
        <time>2022-07-26T14:35:44Z</time>
      </trkpt>
      <trkpt lat="44.09067" lon="7.09276">
        <ele>1030</ele>
        <time>2022-07-26T14:35:45Z</time>
      </trkpt>
      <trkpt lat="44.09067" lon="7.09278">
        <ele>1030</ele>
        <time>2022-07-26T14:35:46Z</time>
      </trkpt>
      <trkpt lat="44.09067" lon="7.0928">
        <ele>1030</ele>
        <time>2022-07-26T14:35:47Z</time>
      </trkpt>
      <trkpt lat="44.09067" lon="7.09282">
        <ele>1029</ele>
        <time>2022-07-26T14:35:48Z</time>
      </trkpt>
      <trkpt lat="44.09066" lon="7.09283">
        <ele>1029</ele>
        <time>2022-07-26T14:35:49Z</time>
      </trkpt>
      <trkpt lat="44.09066" lon="7.09285">
        <ele>1029</ele>
        <time>2022-07-26T14:35:50Z</time>
      </trkpt>
      <trkpt lat="44.09066" lon="7.09287">
        <ele>1029</ele>
        <time>2022-07-26T14:35:51Z</time>
      </trkpt>
      <trkpt lat="44.09066" lon="7.09288">
        <ele>1029</ele>
        <time>2022-07-26T14:35:52Z</time>
      </trkpt>
      <trkpt lat="44.09066" lon="7.0929">
        <ele>1028</ele>
        <time>2022-07-26T14:35:53Z</time>
      </trkpt>
      <trkpt lat="44.09066" lon="7.09292">
        <ele>1028</ele>
        <time>2022-07-26T14:35:54Z</time>
      </trkpt>
      <trkpt lat="44.09066" lon="7.09294">
        <ele>1028</ele>
        <time>2022-07-26T14:35:55Z</time>
      </trkpt>
      <trkpt lat="44.09066" lon="7.09296">
        <ele>1028</ele>
        <time>2022-07-26T14:35:56Z</time>
      </trkpt>
      <trkpt lat="44.09066" lon="7.09297">
        <ele>1028</ele>
        <time>2022-07-26T14:35:57Z</time>
      </trkpt>
      <trkpt lat="44.09066" lon="7.09299">
        <ele>1028</ele>
        <time>2022-07-26T14:35:58Z</time>
      </trkpt>
      <trkpt lat="44.09066" lon="7.09301">
        <ele>1028</ele>
        <time>2022-07-26T14:35:59Z</time>
      </trkpt>
      <trkpt lat="44.09066" lon="7.09303">
        <ele>1028</ele>
        <time>2022-07-26T14:36:00Z</time>
      </trkpt>
      <trkpt lat="44.09066" lon="7.09304">
        <ele>1028</ele>
        <time>2022-07-26T14:36:01Z</time>
      </trkpt>
      <trkpt lat="44.09066" lon="7.09306">
        <ele>1028</ele>
        <time>2022-07-26T14:36:02Z</time>
      </trkpt>
      <trkpt lat="44.09066" lon="7.09307">
        <ele>1027</ele>
        <time>2022-07-26T14:36:03Z</time>
      </trkpt>
      <trkpt lat="44.09066" lon="7.09309">
        <ele>1027</ele>
        <time>2022-07-26T14:36:04Z</time>
      </trkpt>
      <trkpt lat="44.09066" lon="7.09311">
        <ele>1027</ele>
        <time>2022-07-26T14:36:05Z</time>
      </trkpt>
      <trkpt lat="44.09065" lon="7.09312">
        <ele>1027</ele>
        <time>2022-07-26T14:36:06Z</time>
      </trkpt>
      <trkpt lat="44.09065" lon="7.09314">
        <ele>1027</ele>
        <time>2022-07-26T14:36:07Z</time>
      </trkpt>
      <trkpt lat="44.09065" lon="7.09315">
        <ele>1026</ele>
        <time>2022-07-26T14:36:08Z</time>
      </trkpt>
      <trkpt lat="44.09065" lon="7.09317">
        <ele>1026</ele>
        <time>2022-07-26T14:36:09Z</time>
      </trkpt>
      <trkpt lat="44.09065" lon="7.09318">
        <ele>1026</ele>
        <time>2022-07-26T14:36:10Z</time>
      </trkpt>
      <trkpt lat="44.09065" lon="7.0932">
        <ele>1026</ele>
        <time>2022-07-26T14:36:11Z</time>
      </trkpt>
      <trkpt lat="44.09064" lon="7.09321">
        <ele>1026</ele>
        <time>2022-07-26T14:36:12Z</time>
      </trkpt>
      <trkpt lat="44.09064" lon="7.09323">
        <ele>1025</ele>
        <time>2022-07-26T14:36:13Z</time>
      </trkpt>
      <trkpt lat="44.09063" lon="7.09324">
        <ele>1025</ele>
        <time>2022-07-26T14:36:14Z</time>
      </trkpt>
      <trkpt lat="44.09063" lon="7.09326">
        <ele>1024</ele>
        <time>2022-07-26T14:36:15Z</time>
      </trkpt>
      <trkpt lat="44.09062" lon="7.09327">
        <ele>1024</ele>
        <time>2022-07-26T14:36:16Z</time>
      </trkpt>
      <trkpt lat="44.09062" lon="7.09328">
        <ele>1024</ele>
        <time>2022-07-26T14:36:17Z</time>
      </trkpt>
      <trkpt lat="44.09062" lon="7.0933">
        <ele>1023</ele>
        <time>2022-07-26T14:36:18Z</time>
      </trkpt>
      <trkpt lat="44.09061" lon="7.09331">
        <ele>1023</ele>
        <time>2022-07-26T14:36:19Z</time>
      </trkpt>
      <trkpt lat="44.09061" lon="7.09333">
        <ele>1023</ele>
        <time>2022-07-26T14:36:20Z</time>
      </trkpt>
      <trkpt lat="44.0906" lon="7.09334">
        <ele>1023</ele>
        <time>2022-07-26T14:36:21Z</time>
      </trkpt>
      <trkpt lat="44.0906" lon="7.09336">
        <ele>1023</ele>
        <time>2022-07-26T14:36:22Z</time>
      </trkpt>
      <trkpt lat="44.09059" lon="7.09337">
        <ele>1023</ele>
        <time>2022-07-26T14:36:23Z</time>
      </trkpt>
      <trkpt lat="44.09059" lon="7.09339">
        <ele>1023</ele>
        <time>2022-07-26T14:36:24Z</time>
      </trkpt>
      <trkpt lat="44.09058" lon="7.0934">
        <ele>1023</ele>
        <time>2022-07-26T14:36:25Z</time>
      </trkpt>
      <trkpt lat="44.09058" lon="7.09342">
        <ele>1023</ele>
        <time>2022-07-26T14:36:26Z</time>
      </trkpt>
      <trkpt lat="44.09057" lon="7.09343">
        <ele>1023</ele>
        <time>2022-07-26T14:36:27Z</time>
      </trkpt>
      <trkpt lat="44.09057" lon="7.09345">
        <ele>1022</ele>
        <time>2022-07-26T14:36:28Z</time>
      </trkpt>
      <trkpt lat="44.09056" lon="7.09347">
        <ele>1022</ele>
        <time>2022-07-26T14:36:29Z</time>
      </trkpt>
      <trkpt lat="44.09056" lon="7.09348">
        <ele>1022</ele>
        <time>2022-07-26T14:36:30Z</time>
      </trkpt>
      <trkpt lat="44.09055" lon="7.0935">
        <ele>1022</ele>
        <time>2022-07-26T14:36:31Z</time>
      </trkpt>
      <trkpt lat="44.09055" lon="7.09351">
        <ele>1022</ele>
        <time>2022-07-26T14:36:32Z</time>
      </trkpt>
      <trkpt lat="44.09054" lon="7.09353">
        <ele>1021</ele>
        <time>2022-07-26T14:36:33Z</time>
      </trkpt>
      <trkpt lat="44.09054" lon="7.09354">
        <ele>1021</ele>
        <time>2022-07-26T14:36:34Z</time>
      </trkpt>
      <trkpt lat="44.09054" lon="7.09355">
        <ele>1021</ele>
        <time>2022-07-26T14:36:35Z</time>
      </trkpt>
      <trkpt lat="44.09053" lon="7.09357">
        <ele>1021</ele>
        <time>2022-07-26T14:36:36Z</time>
      </trkpt>
      <trkpt lat="44.09053" lon="7.09358">
        <ele>1021</ele>
        <time>2022-07-26T14:36:37Z</time>
      </trkpt>
      <trkpt lat="44.09053" lon="7.0936">
        <ele>1021</ele>
        <time>2022-07-26T14:36:38Z</time>
      </trkpt>
      <trkpt lat="44.09052" lon="7.09361">
        <ele>1021</ele>
        <time>2022-07-26T14:36:39Z</time>
      </trkpt>
      <trkpt lat="44.09052" lon="7.09363">
        <ele>1021</ele>
        <time>2022-07-26T14:36:40Z</time>
      </trkpt>
      <trkpt lat="44.09051" lon="7.09365">
        <ele>1021</ele>
        <time>2022-07-26T14:36:41Z</time>
      </trkpt>
      <trkpt lat="44.09051" lon="7.09366">
        <ele>1021</ele>
        <time>2022-07-26T14:36:42Z</time>
      </trkpt>
      <trkpt lat="44.0905" lon="7.09368">
        <ele>1020</ele>
        <time>2022-07-26T14:36:43Z</time>
      </trkpt>
      <trkpt lat="44.0905" lon="7.09369">
        <ele>1020</ele>
        <time>2022-07-26T14:36:44Z</time>
      </trkpt>
      <trkpt lat="44.09049" lon="7.09371">
        <ele>1020</ele>
        <time>2022-07-26T14:36:45Z</time>
      </trkpt>
      <trkpt lat="44.09049" lon="7.09372">
        <ele>1020</ele>
        <time>2022-07-26T14:36:46Z</time>
      </trkpt>
      <trkpt lat="44.09048" lon="7.09374">
        <ele>1020</ele>
        <time>2022-07-26T14:36:47Z</time>
      </trkpt>
      <trkpt lat="44.09048" lon="7.09375">
        <ele>1019</ele>
        <time>2022-07-26T14:36:48Z</time>
      </trkpt>
      <trkpt lat="44.09047" lon="7.09377">
        <ele>1019</ele>
        <time>2022-07-26T14:36:49Z</time>
      </trkpt>
      <trkpt lat="44.09047" lon="7.09378">
        <ele>1019</ele>
        <time>2022-07-26T14:36:50Z</time>
      </trkpt>
      <trkpt lat="44.09046" lon="7.09379">
        <ele>1019</ele>
        <time>2022-07-26T14:36:51Z</time>
      </trkpt>
      <trkpt lat="44.09046" lon="7.09381">
        <ele>1019</ele>
        <time>2022-07-26T14:36:52Z</time>
      </trkpt>
      <trkpt lat="44.09046" lon="7.09382">
        <ele>1018</ele>
        <time>2022-07-26T14:36:53Z</time>
      </trkpt>
      <trkpt lat="44.09045" lon="7.09384">
        <ele>1018</ele>
        <time>2022-07-26T14:36:54Z</time>
      </trkpt>
      <trkpt lat="44.09045" lon="7.09385">
        <ele>1018</ele>
        <time>2022-07-26T14:36:55Z</time>
      </trkpt>
      <trkpt lat="44.09045" lon="7.09386">
        <ele>1018</ele>
        <time>2022-07-26T14:36:56Z</time>
      </trkpt>
      <trkpt lat="44.09045" lon="7.09387">
        <ele>1018</ele>
        <time>2022-07-26T14:36:57Z</time>
      </trkpt>
      <trkpt lat="44.09045" lon="7.09387">
        <ele>1018</ele>
        <time>2022-07-26T14:36:58Z</time>
      </trkpt>
      <trkpt lat="44.09045" lon="7.09388">
        <ele>1018</ele>
        <time>2022-07-26T14:36:59Z</time>
      </trkpt>
      <trkpt lat="44.09045" lon="7.09389">
        <ele>1018</ele>
        <time>2022-07-26T14:37:00Z</time>
      </trkpt>
      <trkpt lat="44.09045" lon="7.0939">
        <ele>1018</ele>
        <time>2022-07-26T14:37:01Z</time>
      </trkpt>
      <trkpt lat="44.09045" lon="7.09391">
        <ele>1018</ele>
        <time>2022-07-26T14:37:02Z</time>
      </trkpt>
      <trkpt lat="44.09044" lon="7.09392">
        <ele>1017</ele>
        <time>2022-07-26T14:37:03Z</time>
      </trkpt>
      <trkpt lat="44.09044" lon="7.09393">
        <ele>1017</ele>
        <time>2022-07-26T14:37:04Z</time>
      </trkpt>
      <trkpt lat="44.09044" lon="7.09394">
        <ele>1017</ele>
        <time>2022-07-26T14:37:05Z</time>
      </trkpt>
      <trkpt lat="44.09044" lon="7.09396">
        <ele>1017</ele>
        <time>2022-07-26T14:37:06Z</time>
      </trkpt>
      <trkpt lat="44.09043" lon="7.09397">
        <ele>1017</ele>
        <time>2022-07-26T14:37:07Z</time>
      </trkpt>
      <trkpt lat="44.09043" lon="7.09399">
        <ele>1016</ele>
        <time>2022-07-26T14:37:08Z</time>
      </trkpt>
      <trkpt lat="44.09043" lon="7.094">
        <ele>1016</ele>
        <time>2022-07-26T14:37:09Z</time>
      </trkpt>
      <trkpt lat="44.09043" lon="7.09402">
        <ele>1016</ele>
        <time>2022-07-26T14:37:10Z</time>
      </trkpt>
      <trkpt lat="44.09043" lon="7.09404">
        <ele>1016</ele>
        <time>2022-07-26T14:37:11Z</time>
      </trkpt>
      <trkpt lat="44.09043" lon="7.09405">
        <ele>1016</ele>
        <time>2022-07-26T14:37:12Z</time>
      </trkpt>
      <trkpt lat="44.09043" lon="7.09407">
        <ele>1015</ele>
        <time>2022-07-26T14:37:13Z</time>
      </trkpt>
      <trkpt lat="44.09043" lon="7.09409">
        <ele>1015</ele>
        <time>2022-07-26T14:37:14Z</time>
      </trkpt>
      <trkpt lat="44.09043" lon="7.09411">
        <ele>1015</ele>
        <time>2022-07-26T14:37:15Z</time>
      </trkpt>
      <trkpt lat="44.09043" lon="7.09412">
        <ele>1015</ele>
        <time>2022-07-26T14:37:16Z</time>
      </trkpt>
      <trkpt lat="44.09043" lon="7.09414">
        <ele>1015</ele>
        <time>2022-07-26T14:37:17Z</time>
      </trkpt>
      <trkpt lat="44.09043" lon="7.09416">
        <ele>1015</ele>
        <time>2022-07-26T14:37:18Z</time>
      </trkpt>
      <trkpt lat="44.09044" lon="7.09418">
        <ele>1015</ele>
        <time>2022-07-26T14:37:19Z</time>
      </trkpt>
      <trkpt lat="44.09044" lon="7.09419">
        <ele>1015</ele>
        <time>2022-07-26T14:37:20Z</time>
      </trkpt>
      <trkpt lat="44.09044" lon="7.09421">
        <ele>1015</ele>
        <time>2022-07-26T14:37:21Z</time>
      </trkpt>
      <trkpt lat="44.09044" lon="7.09422">
        <ele>1015</ele>
        <time>2022-07-26T14:37:22Z</time>
      </trkpt>
      <trkpt lat="44.09044" lon="7.09424">
        <ele>1014</ele>
        <time>2022-07-26T14:37:23Z</time>
      </trkpt>
      <trkpt lat="44.09044" lon="7.09425">
        <ele>1014</ele>
        <time>2022-07-26T14:37:24Z</time>
      </trkpt>
      <trkpt lat="44.09045" lon="7.09427">
        <ele>1014</ele>
        <time>2022-07-26T14:37:25Z</time>
      </trkpt>
      <trkpt lat="44.09045" lon="7.09428">
        <ele>1014</ele>
        <time>2022-07-26T14:37:26Z</time>
      </trkpt>
      <trkpt lat="44.09045" lon="7.0943">
        <ele>1014</ele>
        <time>2022-07-26T14:37:27Z</time>
      </trkpt>
      <trkpt lat="44.09045" lon="7.09431">
        <ele>1013</ele>
        <time>2022-07-26T14:37:28Z</time>
      </trkpt>
      <trkpt lat="44.09046" lon="7.09433">
        <ele>1013</ele>
        <time>2022-07-26T14:37:29Z</time>
      </trkpt>
      <trkpt lat="44.09046" lon="7.09435">
        <ele>1013</ele>
        <time>2022-07-26T14:37:30Z</time>
      </trkpt>
      <trkpt lat="44.09047" lon="7.09436">
        <ele>1013</ele>
        <time>2022-07-26T14:37:31Z</time>
      </trkpt>
      <trkpt lat="44.09047" lon="7.09438">
        <ele>1013</ele>
        <time>2022-07-26T14:37:32Z</time>
      </trkpt>
      <trkpt lat="44.09048" lon="7.09439">
        <ele>1013</ele>
        <time>2022-07-26T14:37:33Z</time>
      </trkpt>
      <trkpt lat="44.09048" lon="7.09441">
        <ele>1013</ele>
        <time>2022-07-26T14:37:34Z</time>
      </trkpt>
      <trkpt lat="44.09049" lon="7.09443">
        <ele>1013</ele>
        <time>2022-07-26T14:37:35Z</time>
      </trkpt>
      <trkpt lat="44.09049" lon="7.09444">
        <ele>1013</ele>
        <time>2022-07-26T14:37:36Z</time>
      </trkpt>
      <trkpt lat="44.0905" lon="7.09446">
        <ele>1013</ele>
        <time>2022-07-26T14:37:37Z</time>
      </trkpt>
      <trkpt lat="44.0905" lon="7.09447">
        <ele>1012</ele>
        <time>2022-07-26T14:37:38Z</time>
      </trkpt>
      <trkpt lat="44.09051" lon="7.09449">
        <ele>1012</ele>
        <time>2022-07-26T14:37:39Z</time>
      </trkpt>
      <trkpt lat="44.09051" lon="7.0945">
        <ele>1012</ele>
        <time>2022-07-26T14:37:40Z</time>
      </trkpt>
      <trkpt lat="44.09052" lon="7.09452">
        <ele>1012</ele>
        <time>2022-07-26T14:37:41Z</time>
      </trkpt>
      <trkpt lat="44.09052" lon="7.09453">
        <ele>1012</ele>
        <time>2022-07-26T14:37:42Z</time>
      </trkpt>
      <trkpt lat="44.09053" lon="7.09455">
        <ele>1011</ele>
        <time>2022-07-26T14:37:43Z</time>
      </trkpt>
      <trkpt lat="44.09054" lon="7.09456">
        <ele>1011</ele>
        <time>2022-07-26T14:37:44Z</time>
      </trkpt>
      <trkpt lat="44.09054" lon="7.09457">
        <ele>1011</ele>
        <time>2022-07-26T14:37:45Z</time>
      </trkpt>
      <trkpt lat="44.09055" lon="7.09459">
        <ele>1011</ele>
        <time>2022-07-26T14:37:46Z</time>
      </trkpt>
      <trkpt lat="44.09055" lon="7.0946">
        <ele>1011</ele>
        <time>2022-07-26T14:37:47Z</time>
      </trkpt>
      <trkpt lat="44.09055" lon="7.09461">
        <ele>1010</ele>
        <time>2022-07-26T14:37:48Z</time>
      </trkpt>
      <trkpt lat="44.09056" lon="7.09463">
        <ele>1010</ele>
        <time>2022-07-26T14:37:49Z</time>
      </trkpt>
      <trkpt lat="44.09056" lon="7.09465">
        <ele>1010</ele>
        <time>2022-07-26T14:37:50Z</time>
      </trkpt>
      <trkpt lat="44.09056" lon="7.09466">
        <ele>1010</ele>
        <time>2022-07-26T14:37:51Z</time>
      </trkpt>
      <trkpt lat="44.09057" lon="7.09468">
        <ele>1010</ele>
        <time>2022-07-26T14:37:52Z</time>
      </trkpt>
      <trkpt lat="44.09057" lon="7.0947">
        <ele>1009</ele>
        <time>2022-07-26T14:37:53Z</time>
      </trkpt>
      <trkpt lat="44.09057" lon="7.09472">
        <ele>1009</ele>
        <time>2022-07-26T14:37:54Z</time>
      </trkpt>
      <trkpt lat="44.09057" lon="7.09473">
        <ele>1009</ele>
        <time>2022-07-26T14:37:55Z</time>
      </trkpt>
      <trkpt lat="44.09057" lon="7.09475">
        <ele>1009</ele>
        <time>2022-07-26T14:37:56Z</time>
      </trkpt>
      <trkpt lat="44.09057" lon="7.09477">
        <ele>1009</ele>
        <time>2022-07-26T14:37:57Z</time>
      </trkpt>
      <trkpt lat="44.09058" lon="7.09478">
        <ele>1008</ele>
        <time>2022-07-26T14:37:58Z</time>
      </trkpt>
      <trkpt lat="44.09058" lon="7.0948">
        <ele>1008</ele>
        <time>2022-07-26T14:37:59Z</time>
      </trkpt>
      <trkpt lat="44.09058" lon="7.09481">
        <ele>1007</ele>
        <time>2022-07-26T14:38:00Z</time>
      </trkpt>
      <trkpt lat="44.09059" lon="7.09483">
        <ele>1007</ele>
        <time>2022-07-26T14:38:01Z</time>
      </trkpt>
      <trkpt lat="44.09059" lon="7.09485">
        <ele>1007</ele>
        <time>2022-07-26T14:38:02Z</time>
      </trkpt>
      <trkpt lat="44.09059" lon="7.09486">
        <ele>1006</ele>
        <time>2022-07-26T14:38:03Z</time>
      </trkpt>
      <trkpt lat="44.09059" lon="7.09488">
        <ele>1006</ele>
        <time>2022-07-26T14:38:04Z</time>
      </trkpt>
      <trkpt lat="44.0906" lon="7.09489">
        <ele>1006</ele>
        <time>2022-07-26T14:38:05Z</time>
      </trkpt>
      <trkpt lat="44.0906" lon="7.09491">
        <ele>1006</ele>
        <time>2022-07-26T14:38:06Z</time>
      </trkpt>
      <trkpt lat="44.0906" lon="7.09492">
        <ele>1006</ele>
        <time>2022-07-26T14:38:07Z</time>
      </trkpt>
      <trkpt lat="44.0906" lon="7.09494">
        <ele>1005</ele>
        <time>2022-07-26T14:38:08Z</time>
      </trkpt>
      <trkpt lat="44.0906" lon="7.09496">
        <ele>1005</ele>
        <time>2022-07-26T14:38:09Z</time>
      </trkpt>
      <trkpt lat="44.0906" lon="7.09497">
        <ele>1005</ele>
        <time>2022-07-26T14:38:10Z</time>
      </trkpt>
      <trkpt lat="44.09061" lon="7.09499">
        <ele>1005</ele>
        <time>2022-07-26T14:38:11Z</time>
      </trkpt>
      <trkpt lat="44.09061" lon="7.095">
        <ele>1005</ele>
        <time>2022-07-26T14:38:12Z</time>
      </trkpt>
      <trkpt lat="44.09061" lon="7.09502">
        <ele>1005</ele>
        <time>2022-07-26T14:38:13Z</time>
      </trkpt>
      <trkpt lat="44.09061" lon="7.09503">
        <ele>1005</ele>
        <time>2022-07-26T14:38:14Z</time>
      </trkpt>
      <trkpt lat="44.09062" lon="7.09505">
        <ele>1005</ele>
        <time>2022-07-26T14:38:15Z</time>
      </trkpt>
      <trkpt lat="44.09062" lon="7.09506">
        <ele>1005</ele>
        <time>2022-07-26T14:38:16Z</time>
      </trkpt>
      <trkpt lat="44.09062" lon="7.09508">
        <ele>1005</ele>
        <time>2022-07-26T14:38:17Z</time>
      </trkpt>
      <trkpt lat="44.09063" lon="7.09509">
        <ele>1004</ele>
        <time>2022-07-26T14:38:18Z</time>
      </trkpt>
      <trkpt lat="44.09063" lon="7.09511">
        <ele>1004</ele>
        <time>2022-07-26T14:38:19Z</time>
      </trkpt>
      <trkpt lat="44.09063" lon="7.09513">
        <ele>1004</ele>
        <time>2022-07-26T14:38:20Z</time>
      </trkpt>
      <trkpt lat="44.09064" lon="7.09514">
        <ele>1004</ele>
        <time>2022-07-26T14:38:21Z</time>
      </trkpt>
      <trkpt lat="44.09064" lon="7.09516">
        <ele>1004</ele>
        <time>2022-07-26T14:38:22Z</time>
      </trkpt>
      <trkpt lat="44.09065" lon="7.09517">
        <ele>1003</ele>
        <time>2022-07-26T14:38:23Z</time>
      </trkpt>
      <trkpt lat="44.09065" lon="7.09519">
        <ele>1003</ele>
        <time>2022-07-26T14:38:24Z</time>
      </trkpt>
      <trkpt lat="44.09066" lon="7.0952">
        <ele>1003</ele>
        <time>2022-07-26T14:38:25Z</time>
      </trkpt>
      <trkpt lat="44.09067" lon="7.09522">
        <ele>1003</ele>
        <time>2022-07-26T14:38:26Z</time>
      </trkpt>
      <trkpt lat="44.09067" lon="7.09523">
        <ele>1003</ele>
        <time>2022-07-26T14:38:27Z</time>
      </trkpt>
      <trkpt lat="44.09068" lon="7.09524">
        <ele>1003</ele>
        <time>2022-07-26T14:38:28Z</time>
      </trkpt>
      <trkpt lat="44.09068" lon="7.09526">
        <ele>1003</ele>
        <time>2022-07-26T14:38:29Z</time>
      </trkpt>
      <trkpt lat="44.09069" lon="7.09527">
        <ele>1003</ele>
        <time>2022-07-26T14:38:30Z</time>
      </trkpt>
      <trkpt lat="44.09069" lon="7.09528">
        <ele>1003</ele>
        <time>2022-07-26T14:38:31Z</time>
      </trkpt>
      <trkpt lat="44.0907" lon="7.09529">
        <ele>1003</ele>
        <time>2022-07-26T14:38:32Z</time>
      </trkpt>
      <trkpt lat="44.0907" lon="7.0953">
        <ele>1002</ele>
        <time>2022-07-26T14:38:33Z</time>
      </trkpt>
      <trkpt lat="44.09071" lon="7.09531">
        <ele>1002</ele>
        <time>2022-07-26T14:38:34Z</time>
      </trkpt>
      <trkpt lat="44.09072" lon="7.09532">
        <ele>1002</ele>
        <time>2022-07-26T14:38:35Z</time>
      </trkpt>
      <trkpt lat="44.09073" lon="7.09533">
        <ele>1002</ele>
        <time>2022-07-26T14:38:36Z</time>
      </trkpt>
      <trkpt lat="44.09073" lon="7.09534">
        <ele>1002</ele>
        <time>2022-07-26T14:38:37Z</time>
      </trkpt>
      <trkpt lat="44.09074" lon="7.09535">
        <ele>1001</ele>
        <time>2022-07-26T14:38:38Z</time>
      </trkpt>
      <trkpt lat="44.09075" lon="7.09536">
        <ele>1001</ele>
        <time>2022-07-26T14:38:39Z</time>
      </trkpt>
      <trkpt lat="44.09076" lon="7.09538">
        <ele>1001</ele>
        <time>2022-07-26T14:38:40Z</time>
      </trkpt>
      <trkpt lat="44.09077" lon="7.09539">
        <ele>1001</ele>
        <time>2022-07-26T14:38:41Z</time>
      </trkpt>
      <trkpt lat="44.09078" lon="7.0954">
        <ele>1001</ele>
        <time>2022-07-26T14:38:42Z</time>
      </trkpt>
      <trkpt lat="44.09079" lon="7.09542">
        <ele>1000</ele>
        <time>2022-07-26T14:38:43Z</time>
      </trkpt>
      <trkpt lat="44.09079" lon="7.09543">
        <ele>1000</ele>
        <time>2022-07-26T14:38:44Z</time>
      </trkpt>
      <trkpt lat="44.0908" lon="7.09544">
        <ele>1000</ele>
        <time>2022-07-26T14:38:45Z</time>
      </trkpt>
      <trkpt lat="44.09081" lon="7.09546">
        <ele>1000</ele>
        <time>2022-07-26T14:38:46Z</time>
      </trkpt>
      <trkpt lat="44.09082" lon="7.09547">
        <ele>1000</ele>
        <time>2022-07-26T14:38:47Z</time>
      </trkpt>
      <trkpt lat="44.09083" lon="7.09548">
        <ele>999</ele>
        <time>2022-07-26T14:38:48Z</time>
      </trkpt>
      <trkpt lat="44.09084" lon="7.09549">
        <ele>999</ele>
        <time>2022-07-26T14:38:49Z</time>
      </trkpt>
      <trkpt lat="44.09085" lon="7.0955">
        <ele>999</ele>
        <time>2022-07-26T14:38:50Z</time>
      </trkpt>
      <trkpt lat="44.09087" lon="7.09551">
        <ele>999</ele>
        <time>2022-07-26T14:38:51Z</time>
      </trkpt>
      <trkpt lat="44.09088" lon="7.09552">
        <ele>999</ele>
        <time>2022-07-26T14:38:52Z</time>
      </trkpt>
      <trkpt lat="44.09089" lon="7.09552">
        <ele>998</ele>
        <time>2022-07-26T14:38:53Z</time>
      </trkpt>
      <trkpt lat="44.0909" lon="7.09553">
        <ele>998</ele>
        <time>2022-07-26T14:38:54Z</time>
      </trkpt>
      <trkpt lat="44.09091" lon="7.09554">
        <ele>998</ele>
        <time>2022-07-26T14:38:55Z</time>
      </trkpt>
      <trkpt lat="44.09092" lon="7.09555">
        <ele>998</ele>
        <time>2022-07-26T14:38:56Z</time>
      </trkpt>
      <trkpt lat="44.09092" lon="7.09556">
        <ele>998</ele>
        <time>2022-07-26T14:38:57Z</time>
      </trkpt>
      <trkpt lat="44.09093" lon="7.09557">
        <ele>997</ele>
        <time>2022-07-26T14:38:58Z</time>
      </trkpt>
      <trkpt lat="44.09094" lon="7.09558">
        <ele>997</ele>
        <time>2022-07-26T14:38:59Z</time>
      </trkpt>
      <trkpt lat="44.09095" lon="7.09559">
        <ele>997</ele>
        <time>2022-07-26T14:39:00Z</time>
      </trkpt>
      <trkpt lat="44.09096" lon="7.09559">
        <ele>997</ele>
        <time>2022-07-26T14:39:01Z</time>
      </trkpt>
      <trkpt lat="44.09097" lon="7.0956">
        <ele>997</ele>
        <time>2022-07-26T14:39:02Z</time>
      </trkpt>
      <trkpt lat="44.09098" lon="7.0956">
        <ele>996</ele>
        <time>2022-07-26T14:39:03Z</time>
      </trkpt>
      <trkpt lat="44.09099" lon="7.0956">
        <ele>996</ele>
        <time>2022-07-26T14:39:04Z</time>
      </trkpt>
      <trkpt lat="44.091" lon="7.09561">
        <ele>996</ele>
        <time>2022-07-26T14:39:05Z</time>
      </trkpt>
      <trkpt lat="44.09101" lon="7.09561">
        <ele>996</ele>
        <time>2022-07-26T14:39:06Z</time>
      </trkpt>
      <trkpt lat="44.09101" lon="7.09562">
        <ele>996</ele>
        <time>2022-07-26T14:39:07Z</time>
      </trkpt>
      <trkpt lat="44.09102" lon="7.09563">
        <ele>995</ele>
        <time>2022-07-26T14:39:08Z</time>
      </trkpt>
      <trkpt lat="44.09101" lon="7.09563">
        <ele>995</ele>
        <time>2022-07-26T14:39:09Z</time>
      </trkpt>
      <trkpt lat="44.09101" lon="7.09564">
        <ele>995</ele>
        <time>2022-07-26T14:39:10Z</time>
      </trkpt>
      <trkpt lat="44.091" lon="7.09565">
        <ele>995</ele>
        <time>2022-07-26T14:39:11Z</time>
      </trkpt>
      <trkpt lat="44.09099" lon="7.09565">
        <ele>995</ele>
        <time>2022-07-26T14:39:12Z</time>
      </trkpt>
      <trkpt lat="44.09098" lon="7.09565">
        <ele>994</ele>
        <time>2022-07-26T14:39:13Z</time>
      </trkpt>
      <trkpt lat="44.09097" lon="7.09566">
        <ele>994</ele>
        <time>2022-07-26T14:39:14Z</time>
      </trkpt>
      <trkpt lat="44.09096" lon="7.09566">
        <ele>994</ele>
        <time>2022-07-26T14:39:15Z</time>
      </trkpt>
      <trkpt lat="44.09095" lon="7.09567">
        <ele>994</ele>
        <time>2022-07-26T14:39:16Z</time>
      </trkpt>
      <trkpt lat="44.09093" lon="7.09567">
        <ele>994</ele>
        <time>2022-07-26T14:39:17Z</time>
      </trkpt>
      <trkpt lat="44.09092" lon="7.09568">
        <ele>993</ele>
        <time>2022-07-26T14:39:18Z</time>
      </trkpt>
      <trkpt lat="44.09091" lon="7.09568">
        <ele>993</ele>
        <time>2022-07-26T14:39:19Z</time>
      </trkpt>
      <trkpt lat="44.0909" lon="7.09569">
        <ele>993</ele>
        <time>2022-07-26T14:39:20Z</time>
      </trkpt>
      <trkpt lat="44.09089" lon="7.09569">
        <ele>993</ele>
        <time>2022-07-26T14:39:21Z</time>
      </trkpt>
      <trkpt lat="44.09088" lon="7.09569">
        <ele>993</ele>
        <time>2022-07-26T14:39:22Z</time>
      </trkpt>
      <trkpt lat="44.09087" lon="7.09569">
        <ele>993</ele>
        <time>2022-07-26T14:39:23Z</time>
      </trkpt>
      <trkpt lat="44.09087" lon="7.09569">
        <ele>993</ele>
        <time>2022-07-26T14:39:24Z</time>
      </trkpt>
      <trkpt lat="44.09085" lon="7.09569">
        <ele>991</ele>
        <time>2022-07-26T14:40:07Z</time>
      </trkpt>
      <trkpt lat="44.09084" lon="7.09569">
        <ele>991</ele>
        <time>2022-07-26T14:40:08Z</time>
      </trkpt>
      <trkpt lat="44.09083" lon="7.09569">
        <ele>991</ele>
        <time>2022-07-26T14:40:09Z</time>
      </trkpt>
      <trkpt lat="44.09083" lon="7.09569">
        <ele>991</ele>
        <time>2022-07-26T14:40:10Z</time>
      </trkpt>
      <trkpt lat="44.09082" lon="7.09569">
        <ele>991</ele>
        <time>2022-07-26T14:40:11Z</time>
      </trkpt>
      <trkpt lat="44.09081" lon="7.09569">
        <ele>991</ele>
        <time>2022-07-26T14:40:12Z</time>
      </trkpt>
      <trkpt lat="44.09081" lon="7.09569">
        <ele>990</ele>
        <time>2022-07-26T14:40:13Z</time>
      </trkpt>
      <trkpt lat="44.09078" lon="7.09569">
        <ele>989</ele>
        <time>2022-07-26T14:40:23Z</time>
      </trkpt>
      <trkpt lat="44.09077" lon="7.09568">
        <ele>989</ele>
        <time>2022-07-26T14:40:24Z</time>
      </trkpt>
      <trkpt lat="44.09077" lon="7.09568">
        <ele>989</ele>
        <time>2022-07-26T14:40:25Z</time>
      </trkpt>
      <trkpt lat="44.09076" lon="7.09568">
        <ele>989</ele>
        <time>2022-07-26T14:40:26Z</time>
      </trkpt>
      <trkpt lat="44.09075" lon="7.09568">
        <ele>989</ele>
        <time>2022-07-26T14:40:27Z</time>
      </trkpt>
      <trkpt lat="44.09074" lon="7.09567">
        <ele>989</ele>
        <time>2022-07-26T14:40:28Z</time>
      </trkpt>
      <trkpt lat="44.09073" lon="7.09567">
        <ele>989</ele>
        <time>2022-07-26T14:40:29Z</time>
      </trkpt>
      <trkpt lat="44.09072" lon="7.09566">
        <ele>989</ele>
        <time>2022-07-26T14:40:30Z</time>
      </trkpt>
      <trkpt lat="44.09071" lon="7.09566">
        <ele>989</ele>
        <time>2022-07-26T14:40:31Z</time>
      </trkpt>
      <trkpt lat="44.0907" lon="7.09566">
        <ele>989</ele>
        <time>2022-07-26T14:40:32Z</time>
      </trkpt>
      <trkpt lat="44.09069" lon="7.09566">
        <ele>989</ele>
        <time>2022-07-26T14:40:33Z</time>
      </trkpt>
      <trkpt lat="44.09068" lon="7.09566">
        <ele>989</ele>
        <time>2022-07-26T14:40:34Z</time>
      </trkpt>
      <trkpt lat="44.09067" lon="7.09566">
        <ele>989</ele>
        <time>2022-07-26T14:40:35Z</time>
      </trkpt>
      <trkpt lat="44.09066" lon="7.09565">
        <ele>989</ele>
        <time>2022-07-26T14:40:36Z</time>
      </trkpt>
      <trkpt lat="44.09064" lon="7.09565">
        <ele>989</ele>
        <time>2022-07-26T14:40:37Z</time>
      </trkpt>
      <trkpt lat="44.09063" lon="7.09565">
        <ele>989</ele>
        <time>2022-07-26T14:40:38Z</time>
      </trkpt>
      <trkpt lat="44.09062" lon="7.09564">
        <ele>989</ele>
        <time>2022-07-26T14:40:39Z</time>
      </trkpt>
      <trkpt lat="44.09061" lon="7.09564">
        <ele>989</ele>
        <time>2022-07-26T14:40:40Z</time>
      </trkpt>
      <trkpt lat="44.0906" lon="7.09564">
        <ele>989</ele>
        <time>2022-07-26T14:40:41Z</time>
      </trkpt>
      <trkpt lat="44.09059" lon="7.09563">
        <ele>989</ele>
        <time>2022-07-26T14:40:42Z</time>
      </trkpt>
      <trkpt lat="44.09058" lon="7.09563">
        <ele>989</ele>
        <time>2022-07-26T14:40:43Z</time>
      </trkpt>
      <trkpt lat="44.09057" lon="7.09563">
        <ele>989</ele>
        <time>2022-07-26T14:40:44Z</time>
      </trkpt>
      <trkpt lat="44.09056" lon="7.09562">
        <ele>989</ele>
        <time>2022-07-26T14:40:45Z</time>
      </trkpt>
      <trkpt lat="44.09055" lon="7.09562">
        <ele>989</ele>
        <time>2022-07-26T14:40:46Z</time>
      </trkpt>
      <trkpt lat="44.09054" lon="7.09561">
        <ele>989</ele>
        <time>2022-07-26T14:40:47Z</time>
      </trkpt>
      <trkpt lat="44.09053" lon="7.09561">
        <ele>988</ele>
        <time>2022-07-26T14:40:48Z</time>
      </trkpt>
      <trkpt lat="44.09052" lon="7.0956">
        <ele>988</ele>
        <time>2022-07-26T14:40:49Z</time>
      </trkpt>
      <trkpt lat="44.09051" lon="7.09559">
        <ele>988</ele>
        <time>2022-07-26T14:40:50Z</time>
      </trkpt>
      <trkpt lat="44.0905" lon="7.09559">
        <ele>988</ele>
        <time>2022-07-26T14:40:51Z</time>
      </trkpt>
      <trkpt lat="44.09049" lon="7.09558">
        <ele>988</ele>
        <time>2022-07-26T14:40:52Z</time>
      </trkpt>
      <trkpt lat="44.09048" lon="7.09557">
        <ele>988</ele>
        <time>2022-07-26T14:40:53Z</time>
      </trkpt>
      <trkpt lat="44.09047" lon="7.09557">
        <ele>988</ele>
        <time>2022-07-26T14:40:54Z</time>
      </trkpt>
      <trkpt lat="44.09045" lon="7.09556">
        <ele>988</ele>
        <time>2022-07-26T14:40:55Z</time>
      </trkpt>
      <trkpt lat="44.09045" lon="7.09556">
        <ele>988</ele>
        <time>2022-07-26T14:40:56Z</time>
      </trkpt>
      <trkpt lat="44.09044" lon="7.09556">
        <ele>988</ele>
        <time>2022-07-26T14:40:57Z</time>
      </trkpt>
      <trkpt lat="44.09043" lon="7.09556">
        <ele>988</ele>
        <time>2022-07-26T14:40:58Z</time>
      </trkpt>
      <trkpt lat="44.09043" lon="7.09555">
        <ele>988</ele>
        <time>2022-07-26T14:40:59Z</time>
      </trkpt>
      <trkpt lat="44.09042" lon="7.09555">
        <ele>988</ele>
        <time>2022-07-26T14:41:00Z</time>
      </trkpt>
      <trkpt lat="44.09042" lon="7.09555">
        <ele>988</ele>
        <time>2022-07-26T14:41:01Z</time>
      </trkpt>
      <trkpt lat="44.09042" lon="7.09555">
        <ele>988</ele>
        <time>2022-07-26T14:41:02Z</time>
      </trkpt>
      <trkpt lat="44.09042" lon="7.09555">
        <ele>988</ele>
        <time>2022-07-26T14:41:03Z</time>
      </trkpt>
      <trkpt lat="44.09042" lon="7.09555">
        <ele>988</ele>
        <time>2022-07-26T14:41:04Z</time>
      </trkpt>
      <trkpt lat="44.09041" lon="7.09554">
        <ele>988</ele>
        <time>2022-07-26T14:41:05Z</time>
      </trkpt>
      <trkpt lat="44.09041" lon="7.09554">
        <ele>988</ele>
        <time>2022-07-26T14:41:06Z</time>
      </trkpt>
      <trkpt lat="44.0904" lon="7.09554">
        <ele>988</ele>
        <time>2022-07-26T14:41:07Z</time>
      </trkpt>
      <trkpt lat="44.0904" lon="7.09553">
        <ele>988</ele>
        <time>2022-07-26T14:41:08Z</time>
      </trkpt>
      <trkpt lat="44.09039" lon="7.09552">
        <ele>988</ele>
        <time>2022-07-26T14:41:09Z</time>
      </trkpt>
      <trkpt lat="44.09039" lon="7.09552">
        <ele>988</ele>
        <time>2022-07-26T14:41:10Z</time>
      </trkpt>
      <trkpt lat="44.09038" lon="7.09551">
        <ele>988</ele>
        <time>2022-07-26T14:41:11Z</time>
      </trkpt>
      <trkpt lat="44.09037" lon="7.0955">
        <ele>988</ele>
        <time>2022-07-26T14:41:12Z</time>
      </trkpt>
      <trkpt lat="44.09037" lon="7.09548">
        <ele>987</ele>
        <time>2022-07-26T14:41:13Z</time>
      </trkpt>
      <trkpt lat="44.09036" lon="7.09547">
        <ele>987</ele>
        <time>2022-07-26T14:41:14Z</time>
      </trkpt>
      <trkpt lat="44.09035" lon="7.09546">
        <ele>987</ele>
        <time>2022-07-26T14:41:15Z</time>
      </trkpt>
      <trkpt lat="44.09034" lon="7.09545">
        <ele>987</ele>
        <time>2022-07-26T14:41:16Z</time>
      </trkpt>
      <trkpt lat="44.09033" lon="7.09544">
        <ele>987</ele>
        <time>2022-07-26T14:41:17Z</time>
      </trkpt>
      <trkpt lat="44.09033" lon="7.09543">
        <ele>987</ele>
        <time>2022-07-26T14:41:18Z</time>
      </trkpt>
      <trkpt lat="44.09032" lon="7.09542">
        <ele>987</ele>
        <time>2022-07-26T14:41:19Z</time>
      </trkpt>
      <trkpt lat="44.09031" lon="7.0954">
        <ele>987</ele>
        <time>2022-07-26T14:41:20Z</time>
      </trkpt>
      <trkpt lat="44.09031" lon="7.09539">
        <ele>987</ele>
        <time>2022-07-26T14:41:21Z</time>
      </trkpt>
      <trkpt lat="44.0903" lon="7.09538">
        <ele>987</ele>
        <time>2022-07-26T14:41:22Z</time>
      </trkpt>
      <trkpt lat="44.09029" lon="7.09536">
        <ele>987</ele>
        <time>2022-07-26T14:41:23Z</time>
      </trkpt>
      <trkpt lat="44.09029" lon="7.09535">
        <ele>987</ele>
        <time>2022-07-26T14:41:24Z</time>
      </trkpt>
      <trkpt lat="44.09028" lon="7.09534">
        <ele>987</ele>
        <time>2022-07-26T14:41:25Z</time>
      </trkpt>
      <trkpt lat="44.09028" lon="7.09533">
        <ele>987</ele>
        <time>2022-07-26T14:41:26Z</time>
      </trkpt>
      <trkpt lat="44.09027" lon="7.09531">
        <ele>987</ele>
        <time>2022-07-26T14:41:27Z</time>
      </trkpt>
      <trkpt lat="44.09027" lon="7.0953">
        <ele>986</ele>
        <time>2022-07-26T14:41:28Z</time>
      </trkpt>
      <trkpt lat="44.09026" lon="7.09529">
        <ele>986</ele>
        <time>2022-07-26T14:41:29Z</time>
      </trkpt>
      <trkpt lat="44.09026" lon="7.09528">
        <ele>986</ele>
        <time>2022-07-26T14:41:30Z</time>
      </trkpt>
      <trkpt lat="44.09025" lon="7.09527">
        <ele>986</ele>
        <time>2022-07-26T14:41:31Z</time>
      </trkpt>
      <trkpt lat="44.09024" lon="7.09526">
        <ele>986</ele>
        <time>2022-07-26T14:41:32Z</time>
      </trkpt>
      <trkpt lat="44.09024" lon="7.09524">
        <ele>986</ele>
        <time>2022-07-26T14:41:33Z</time>
      </trkpt>
      <trkpt lat="44.09023" lon="7.09523">
        <ele>986</ele>
        <time>2022-07-26T14:41:34Z</time>
      </trkpt>
      <trkpt lat="44.09022" lon="7.09522">
        <ele>986</ele>
        <time>2022-07-26T14:41:35Z</time>
      </trkpt>
      <trkpt lat="44.09022" lon="7.09521">
        <ele>986</ele>
        <time>2022-07-26T14:41:36Z</time>
      </trkpt>
      <trkpt lat="44.09021" lon="7.0952">
        <ele>986</ele>
        <time>2022-07-26T14:41:37Z</time>
      </trkpt>
      <trkpt lat="44.0902" lon="7.09519">
        <ele>985</ele>
        <time>2022-07-26T14:41:38Z</time>
      </trkpt>
      <trkpt lat="44.0902" lon="7.09517">
        <ele>985</ele>
        <time>2022-07-26T14:41:39Z</time>
      </trkpt>
      <trkpt lat="44.09019" lon="7.09516">
        <ele>985</ele>
        <time>2022-07-26T14:41:40Z</time>
      </trkpt>
      <trkpt lat="44.09018" lon="7.09515">
        <ele>985</ele>
        <time>2022-07-26T14:41:41Z</time>
      </trkpt>
      <trkpt lat="44.09018" lon="7.09514">
        <ele>985</ele>
        <time>2022-07-26T14:41:42Z</time>
      </trkpt>
      <trkpt lat="44.09017" lon="7.09513">
        <ele>985</ele>
        <time>2022-07-26T14:41:43Z</time>
      </trkpt>
      <trkpt lat="44.09017" lon="7.09511">
        <ele>985</ele>
        <time>2022-07-26T14:41:44Z</time>
      </trkpt>
      <trkpt lat="44.09016" lon="7.0951">
        <ele>985</ele>
        <time>2022-07-26T14:41:45Z</time>
      </trkpt>
      <trkpt lat="44.09016" lon="7.09509">
        <ele>985</ele>
        <time>2022-07-26T14:41:46Z</time>
      </trkpt>
      <trkpt lat="44.09015" lon="7.09508">
        <ele>985</ele>
        <time>2022-07-26T14:41:47Z</time>
      </trkpt>
      <trkpt lat="44.09014" lon="7.09506">
        <ele>985</ele>
        <time>2022-07-26T14:41:48Z</time>
      </trkpt>
      <trkpt lat="44.09014" lon="7.09505">
        <ele>985</ele>
        <time>2022-07-26T14:41:49Z</time>
      </trkpt>
      <trkpt lat="44.09013" lon="7.09504">
        <ele>985</ele>
        <time>2022-07-26T14:41:50Z</time>
      </trkpt>
      <trkpt lat="44.09012" lon="7.09503">
        <ele>985</ele>
        <time>2022-07-26T14:41:51Z</time>
      </trkpt>
      <trkpt lat="44.09012" lon="7.09501">
        <ele>985</ele>
        <time>2022-07-26T14:41:52Z</time>
      </trkpt>
      <trkpt lat="44.09011" lon="7.095">
        <ele>984</ele>
        <time>2022-07-26T14:41:53Z</time>
      </trkpt>
      <trkpt lat="44.0901" lon="7.09499">
        <ele>984</ele>
        <time>2022-07-26T14:41:54Z</time>
      </trkpt>
      <trkpt lat="44.09009" lon="7.09498">
        <ele>984</ele>
        <time>2022-07-26T14:41:55Z</time>
      </trkpt>
      <trkpt lat="44.09009" lon="7.09496">
        <ele>984</ele>
        <time>2022-07-26T14:41:56Z</time>
      </trkpt>
      <trkpt lat="44.09008" lon="7.09495">
        <ele>984</ele>
        <time>2022-07-26T14:41:57Z</time>
      </trkpt>
      <trkpt lat="44.09008" lon="7.09494">
        <ele>984</ele>
        <time>2022-07-26T14:41:58Z</time>
      </trkpt>
      <trkpt lat="44.09007" lon="7.09493">
        <ele>984</ele>
        <time>2022-07-26T14:41:59Z</time>
      </trkpt>
      <trkpt lat="44.09007" lon="7.09492">
        <ele>984</ele>
        <time>2022-07-26T14:42:00Z</time>
      </trkpt>
      <trkpt lat="44.09006" lon="7.0949">
        <ele>984</ele>
        <time>2022-07-26T14:42:01Z</time>
      </trkpt>
      <trkpt lat="44.09006" lon="7.09489">
        <ele>984</ele>
        <time>2022-07-26T14:42:02Z</time>
      </trkpt>
      <trkpt lat="44.09005" lon="7.09487">
        <ele>984</ele>
        <time>2022-07-26T14:42:03Z</time>
      </trkpt>
      <trkpt lat="44.09004" lon="7.09486">
        <ele>984</ele>
        <time>2022-07-26T14:42:04Z</time>
      </trkpt>
      <trkpt lat="44.09004" lon="7.09485">
        <ele>984</ele>
        <time>2022-07-26T14:42:05Z</time>
      </trkpt>
      <trkpt lat="44.09003" lon="7.09483">
        <ele>984</ele>
        <time>2022-07-26T14:42:06Z</time>
      </trkpt>
      <trkpt lat="44.09002" lon="7.09482">
        <ele>984</ele>
        <time>2022-07-26T14:42:07Z</time>
      </trkpt>
      <trkpt lat="44.09002" lon="7.0948">
        <ele>983</ele>
        <time>2022-07-26T14:42:08Z</time>
      </trkpt>
      <trkpt lat="44.09001" lon="7.09479">
        <ele>983</ele>
        <time>2022-07-26T14:42:09Z</time>
      </trkpt>
      <trkpt lat="44.09" lon="7.09478">
        <ele>983</ele>
        <time>2022-07-26T14:42:10Z</time>
      </trkpt>
      <trkpt lat="44.09" lon="7.09476">
        <ele>983</ele>
        <time>2022-07-26T14:42:11Z</time>
      </trkpt>
      <trkpt lat="44.08999" lon="7.09475">
        <ele>983</ele>
        <time>2022-07-26T14:42:12Z</time>
      </trkpt>
      <trkpt lat="44.08998" lon="7.09473">
        <ele>983</ele>
        <time>2022-07-26T14:42:13Z</time>
      </trkpt>
      <trkpt lat="44.08998" lon="7.09472">
        <ele>983</ele>
        <time>2022-07-26T14:42:14Z</time>
      </trkpt>
      <trkpt lat="44.08997" lon="7.0947">
        <ele>983</ele>
        <time>2022-07-26T14:42:15Z</time>
      </trkpt>
      <trkpt lat="44.08997" lon="7.09468">
        <ele>983</ele>
        <time>2022-07-26T14:42:16Z</time>
      </trkpt>
      <trkpt lat="44.08996" lon="7.09467">
        <ele>983</ele>
        <time>2022-07-26T14:42:17Z</time>
      </trkpt>
      <trkpt lat="44.08996" lon="7.09465">
        <ele>982</ele>
        <time>2022-07-26T14:42:18Z</time>
      </trkpt>
      <trkpt lat="44.08996" lon="7.09464">
        <ele>982</ele>
        <time>2022-07-26T14:42:19Z</time>
      </trkpt>
      <trkpt lat="44.08995" lon="7.09462">
        <ele>982</ele>
        <time>2022-07-26T14:42:20Z</time>
      </trkpt>
      <trkpt lat="44.08995" lon="7.09461">
        <ele>982</ele>
        <time>2022-07-26T14:42:21Z</time>
      </trkpt>
      <trkpt lat="44.08994" lon="7.0946">
        <ele>982</ele>
        <time>2022-07-26T14:42:22Z</time>
      </trkpt>
      <trkpt lat="44.08994" lon="7.09458">
        <ele>982</ele>
        <time>2022-07-26T14:42:23Z</time>
      </trkpt>
      <trkpt lat="44.08993" lon="7.09457">
        <ele>982</ele>
        <time>2022-07-26T14:42:24Z</time>
      </trkpt>
      <trkpt lat="44.08992" lon="7.09456">
        <ele>982</ele>
        <time>2022-07-26T14:42:25Z</time>
      </trkpt>
      <trkpt lat="44.08992" lon="7.09454">
        <ele>982</ele>
        <time>2022-07-26T14:42:26Z</time>
      </trkpt>
      <trkpt lat="44.08991" lon="7.09453">
        <ele>982</ele>
        <time>2022-07-26T14:42:27Z</time>
      </trkpt>
      <trkpt lat="44.0899" lon="7.09452">
        <ele>982</ele>
        <time>2022-07-26T14:42:28Z</time>
      </trkpt>
      <trkpt lat="44.0899" lon="7.09451">
        <ele>982</ele>
        <time>2022-07-26T14:42:29Z</time>
      </trkpt>
      <trkpt lat="44.08989" lon="7.09449">
        <ele>982</ele>
        <time>2022-07-26T14:42:30Z</time>
      </trkpt>
      <trkpt lat="44.08988" lon="7.09448">
        <ele>982</ele>
        <time>2022-07-26T14:42:31Z</time>
      </trkpt>
      <trkpt lat="44.08988" lon="7.09448">
        <ele>982</ele>
        <time>2022-07-26T14:42:32Z</time>
      </trkpt>
      <trkpt lat="44.08987" lon="7.09447">
        <ele>981</ele>
        <time>2022-07-26T14:42:33Z</time>
      </trkpt>
      <trkpt lat="44.08987" lon="7.09446">
        <ele>981</ele>
        <time>2022-07-26T14:42:34Z</time>
      </trkpt>
      <trkpt lat="44.08986" lon="7.09445">
        <ele>981</ele>
        <time>2022-07-26T14:42:35Z</time>
      </trkpt>
      <trkpt lat="44.08986" lon="7.09444">
        <ele>981</ele>
        <time>2022-07-26T14:42:36Z</time>
      </trkpt>
      <trkpt lat="44.08985" lon="7.09443">
        <ele>981</ele>
        <time>2022-07-26T14:42:37Z</time>
      </trkpt>
      <trkpt lat="44.08985" lon="7.09442">
        <ele>981</ele>
        <time>2022-07-26T14:42:38Z</time>
      </trkpt>
      <trkpt lat="44.08984" lon="7.09441">
        <ele>981</ele>
        <time>2022-07-26T14:42:39Z</time>
      </trkpt>
      <trkpt lat="44.08983" lon="7.09441">
        <ele>981</ele>
        <time>2022-07-26T14:42:40Z</time>
      </trkpt>
      <trkpt lat="44.08983" lon="7.09441">
        <ele>981</ele>
        <time>2022-07-26T14:42:41Z</time>
      </trkpt>
      <trkpt lat="44.08982" lon="7.09441">
        <ele>981</ele>
        <time>2022-07-26T14:42:42Z</time>
      </trkpt>
      <trkpt lat="44.08982" lon="7.09442">
        <ele>980</ele>
        <time>2022-07-26T14:42:43Z</time>
      </trkpt>
      <trkpt lat="44.08981" lon="7.09444">
        <ele>980</ele>
        <time>2022-07-26T14:42:44Z</time>
      </trkpt>
      <trkpt lat="44.08981" lon="7.09445">
        <ele>980</ele>
        <time>2022-07-26T14:42:45Z</time>
      </trkpt>
      <trkpt lat="44.08981" lon="7.09447">
        <ele>980</ele>
        <time>2022-07-26T14:42:46Z</time>
      </trkpt>
      <trkpt lat="44.08981" lon="7.09448">
        <ele>980</ele>
        <time>2022-07-26T14:42:47Z</time>
      </trkpt>
      <trkpt lat="44.08981" lon="7.0945">
        <ele>979</ele>
        <time>2022-07-26T14:42:48Z</time>
      </trkpt>
      <trkpt lat="44.08981" lon="7.09452">
        <ele>979</ele>
        <time>2022-07-26T14:42:49Z</time>
      </trkpt>
      <trkpt lat="44.08981" lon="7.09453">
        <ele>979</ele>
        <time>2022-07-26T14:42:50Z</time>
      </trkpt>
      <trkpt lat="44.08981" lon="7.09454">
        <ele>979</ele>
        <time>2022-07-26T14:42:51Z</time>
      </trkpt>
      <trkpt lat="44.08981" lon="7.09455">
        <ele>979</ele>
        <time>2022-07-26T14:42:52Z</time>
      </trkpt>
      <trkpt lat="44.08981" lon="7.09455">
        <ele>978</ele>
        <time>2022-07-26T14:42:53Z</time>
      </trkpt>
      <trkpt lat="44.0898" lon="7.09455">
        <ele>978</ele>
        <time>2022-07-26T14:42:54Z</time>
      </trkpt>
      <trkpt lat="44.0898" lon="7.09454">
        <ele>978</ele>
        <time>2022-07-26T14:42:55Z</time>
      </trkpt>
      <trkpt lat="44.0898" lon="7.09453">
        <ele>978</ele>
        <time>2022-07-26T14:42:56Z</time>
      </trkpt>
      <trkpt lat="44.0898" lon="7.09452">
        <ele>978</ele>
        <time>2022-07-26T14:42:57Z</time>
      </trkpt>
      <trkpt lat="44.08979" lon="7.09451">
        <ele>977</ele>
        <time>2022-07-26T14:42:58Z</time>
      </trkpt>
      <trkpt lat="44.08978" lon="7.09449">
        <ele>977</ele>
        <time>2022-07-26T14:42:59Z</time>
      </trkpt>
      <trkpt lat="44.08978" lon="7.09449">
        <ele>977</ele>
        <time>2022-07-26T14:43:00Z</time>
      </trkpt>
      <trkpt lat="44.08977" lon="7.09449">
        <ele>977</ele>
        <time>2022-07-26T14:43:01Z</time>
      </trkpt>
      <trkpt lat="44.08977" lon="7.0945">
        <ele>977</ele>
        <time>2022-07-26T14:43:02Z</time>
      </trkpt>
      <trkpt lat="44.08977" lon="7.09451">
        <ele>976</ele>
        <time>2022-07-26T14:43:03Z</time>
      </trkpt>
      <trkpt lat="44.08977" lon="7.09452">
        <ele>976</ele>
        <time>2022-07-26T14:43:04Z</time>
      </trkpt>
      <trkpt lat="44.08977" lon="7.09453">
        <ele>976</ele>
        <time>2022-07-26T14:43:05Z</time>
      </trkpt>
      <trkpt lat="44.08978" lon="7.09455">
        <ele>976</ele>
        <time>2022-07-26T14:43:06Z</time>
      </trkpt>
      <trkpt lat="44.08978" lon="7.09457">
        <ele>976</ele>
        <time>2022-07-26T14:43:07Z</time>
      </trkpt>
      <trkpt lat="44.08978" lon="7.09459">
        <ele>975</ele>
        <time>2022-07-26T14:43:08Z</time>
      </trkpt>
      <trkpt lat="44.08979" lon="7.0946">
        <ele>975</ele>
        <time>2022-07-26T14:43:09Z</time>
      </trkpt>
      <trkpt lat="44.08979" lon="7.09462">
        <ele>975</ele>
        <time>2022-07-26T14:43:10Z</time>
      </trkpt>
      <trkpt lat="44.0898" lon="7.09464">
        <ele>975</ele>
        <time>2022-07-26T14:43:11Z</time>
      </trkpt>
      <trkpt lat="44.0898" lon="7.09465">
        <ele>975</ele>
        <time>2022-07-26T14:43:12Z</time>
      </trkpt>
      <trkpt lat="44.0898" lon="7.09467">
        <ele>974</ele>
        <time>2022-07-26T14:43:13Z</time>
      </trkpt>
      <trkpt lat="44.0898" lon="7.09468">
        <ele>974</ele>
        <time>2022-07-26T14:43:14Z</time>
      </trkpt>
      <trkpt lat="44.0898" lon="7.0947">
        <ele>974</ele>
        <time>2022-07-26T14:43:15Z</time>
      </trkpt>
      <trkpt lat="44.0898" lon="7.09471">
        <ele>974</ele>
        <time>2022-07-26T14:43:16Z</time>
      </trkpt>
      <trkpt lat="44.08979" lon="7.09473">
        <ele>974</ele>
        <time>2022-07-26T14:43:17Z</time>
      </trkpt>
      <trkpt lat="44.08979" lon="7.09474">
        <ele>973</ele>
        <time>2022-07-26T14:43:18Z</time>
      </trkpt>
      <trkpt lat="44.08979" lon="7.09476">
        <ele>973</ele>
        <time>2022-07-26T14:43:19Z</time>
      </trkpt>
      <trkpt lat="44.08978" lon="7.09477">
        <ele>972</ele>
        <time>2022-07-26T14:43:20Z</time>
      </trkpt>
      <trkpt lat="44.08978" lon="7.09479">
        <ele>972</ele>
        <time>2022-07-26T14:43:21Z</time>
      </trkpt>
      <trkpt lat="44.08977" lon="7.0948">
        <ele>972</ele>
        <time>2022-07-26T14:43:22Z</time>
      </trkpt>
      <trkpt lat="44.08977" lon="7.09482">
        <ele>971</ele>
        <time>2022-07-26T14:43:23Z</time>
      </trkpt>
      <trkpt lat="44.08976" lon="7.09484">
        <ele>971</ele>
        <time>2022-07-26T14:43:24Z</time>
      </trkpt>
      <trkpt lat="44.08976" lon="7.09485">
        <ele>971</ele>
        <time>2022-07-26T14:43:25Z</time>
      </trkpt>
      <trkpt lat="44.08976" lon="7.09487">
        <ele>971</ele>
        <time>2022-07-26T14:43:26Z</time>
      </trkpt>
      <trkpt lat="44.08975" lon="7.09489">
        <ele>971</ele>
        <time>2022-07-26T14:43:27Z</time>
      </trkpt>
      <trkpt lat="44.08975" lon="7.09491">
        <ele>970</ele>
        <time>2022-07-26T14:43:28Z</time>
      </trkpt>
      <trkpt lat="44.08975" lon="7.09492">
        <ele>970</ele>
        <time>2022-07-26T14:43:29Z</time>
      </trkpt>
      <trkpt lat="44.08975" lon="7.09494">
        <ele>970</ele>
        <time>2022-07-26T14:43:30Z</time>
      </trkpt>
      <trkpt lat="44.08975" lon="7.09495">
        <ele>970</ele>
        <time>2022-07-26T14:43:31Z</time>
      </trkpt>
      <trkpt lat="44.08975" lon="7.09497">
        <ele>970</ele>
        <time>2022-07-26T14:43:32Z</time>
      </trkpt>
      <trkpt lat="44.08976" lon="7.09499">
        <ele>969</ele>
        <time>2022-07-26T14:43:33Z</time>
      </trkpt>
      <trkpt lat="44.08975" lon="7.095">
        <ele>969</ele>
        <time>2022-07-26T14:43:34Z</time>
      </trkpt>
      <trkpt lat="44.08975" lon="7.09502">
        <ele>969</ele>
        <time>2022-07-26T14:43:35Z</time>
      </trkpt>
      <trkpt lat="44.08975" lon="7.09503">
        <ele>969</ele>
        <time>2022-07-26T14:43:36Z</time>
      </trkpt>
      <trkpt lat="44.08975" lon="7.09505">
        <ele>969</ele>
        <time>2022-07-26T14:43:37Z</time>
      </trkpt>
      <trkpt lat="44.08975" lon="7.09506">
        <ele>968</ele>
        <time>2022-07-26T14:43:38Z</time>
      </trkpt>
      <trkpt lat="44.08974" lon="7.09507">
        <ele>968</ele>
        <time>2022-07-26T14:43:39Z</time>
      </trkpt>
      <trkpt lat="44.08974" lon="7.09508">
        <ele>968</ele>
        <time>2022-07-26T14:43:40Z</time>
      </trkpt>
      <trkpt lat="44.08975" lon="7.0951">
        <ele>968</ele>
        <time>2022-07-26T14:43:41Z</time>
      </trkpt>
      <trkpt lat="44.08975" lon="7.09511">
        <ele>968</ele>
        <time>2022-07-26T14:43:42Z</time>
      </trkpt>
      <trkpt lat="44.08975" lon="7.09512">
        <ele>967</ele>
        <time>2022-07-26T14:43:43Z</time>
      </trkpt>
      <trkpt lat="44.08975" lon="7.09513">
        <ele>967</ele>
        <time>2022-07-26T14:43:44Z</time>
      </trkpt>
      <trkpt lat="44.08975" lon="7.09515">
        <ele>967</ele>
        <time>2022-07-26T14:43:45Z</time>
      </trkpt>
      <trkpt lat="44.08975" lon="7.09516">
        <ele>967</ele>
        <time>2022-07-26T14:43:46Z</time>
      </trkpt>
      <trkpt lat="44.08975" lon="7.09518">
        <ele>967</ele>
        <time>2022-07-26T14:43:47Z</time>
      </trkpt>
      <trkpt lat="44.08976" lon="7.09519">
        <ele>966</ele>
        <time>2022-07-26T14:43:48Z</time>
      </trkpt>
      <trkpt lat="44.08976" lon="7.09521">
        <ele>966</ele>
        <time>2022-07-26T14:43:49Z</time>
      </trkpt>
      <trkpt lat="44.08977" lon="7.09522">
        <ele>966</ele>
        <time>2022-07-26T14:43:50Z</time>
      </trkpt>
      <trkpt lat="44.08977" lon="7.09524">
        <ele>966</ele>
        <time>2022-07-26T14:43:51Z</time>
      </trkpt>
      <trkpt lat="44.08978" lon="7.09525">
        <ele>966</ele>
        <time>2022-07-26T14:43:52Z</time>
      </trkpt>
      <trkpt lat="44.08978" lon="7.09527">
        <ele>966</ele>
        <time>2022-07-26T14:43:53Z</time>
      </trkpt>
      <trkpt lat="44.08979" lon="7.09528">
        <ele>966</ele>
        <time>2022-07-26T14:43:54Z</time>
      </trkpt>
      <trkpt lat="44.08979" lon="7.09529">
        <ele>966</ele>
        <time>2022-07-26T14:43:55Z</time>
      </trkpt>
      <trkpt lat="44.0898" lon="7.09531">
        <ele>966</ele>
        <time>2022-07-26T14:43:56Z</time>
      </trkpt>
      <trkpt lat="44.0898" lon="7.09532">
        <ele>966</ele>
        <time>2022-07-26T14:43:57Z</time>
      </trkpt>
      <trkpt lat="44.08981" lon="7.09533">
        <ele>965</ele>
        <time>2022-07-26T14:43:58Z</time>
      </trkpt>
      <trkpt lat="44.08981" lon="7.09535">
        <ele>965</ele>
        <time>2022-07-26T14:43:59Z</time>
      </trkpt>
      <trkpt lat="44.08981" lon="7.09536">
        <ele>965</ele>
        <time>2022-07-26T14:44:00Z</time>
      </trkpt>
      <trkpt lat="44.08982" lon="7.09537">
        <ele>965</ele>
        <time>2022-07-26T14:44:01Z</time>
      </trkpt>
      <trkpt lat="44.08982" lon="7.09539">
        <ele>965</ele>
        <time>2022-07-26T14:44:02Z</time>
      </trkpt>
      <trkpt lat="44.08982" lon="7.09541">
        <ele>964</ele>
        <time>2022-07-26T14:44:03Z</time>
      </trkpt>
      <trkpt lat="44.08983" lon="7.09542">
        <ele>964</ele>
        <time>2022-07-26T14:44:04Z</time>
      </trkpt>
      <trkpt lat="44.08983" lon="7.09544">
        <ele>964</ele>
        <time>2022-07-26T14:44:05Z</time>
      </trkpt>
      <trkpt lat="44.08984" lon="7.09545">
        <ele>964</ele>
        <time>2022-07-26T14:44:06Z</time>
      </trkpt>
      <trkpt lat="44.08984" lon="7.09547">
        <ele>964</ele>
        <time>2022-07-26T14:44:07Z</time>
      </trkpt>
      <trkpt lat="44.08985" lon="7.09548">
        <ele>963</ele>
        <time>2022-07-26T14:44:08Z</time>
      </trkpt>
      <trkpt lat="44.08985" lon="7.0955">
        <ele>963</ele>
        <time>2022-07-26T14:44:09Z</time>
      </trkpt>
      <trkpt lat="44.08985" lon="7.09552">
        <ele>963</ele>
        <time>2022-07-26T14:44:10Z</time>
      </trkpt>
      <trkpt lat="44.08985" lon="7.09553">
        <ele>963</ele>
        <time>2022-07-26T14:44:11Z</time>
      </trkpt>
      <trkpt lat="44.08986" lon="7.09555">
        <ele>963</ele>
        <time>2022-07-26T14:44:12Z</time>
      </trkpt>
      <trkpt lat="44.08986" lon="7.09557">
        <ele>963</ele>
        <time>2022-07-26T14:44:13Z</time>
      </trkpt>
      <trkpt lat="44.08986" lon="7.09558">
        <ele>963</ele>
        <time>2022-07-26T14:44:14Z</time>
      </trkpt>
      <trkpt lat="44.08987" lon="7.0956">
        <ele>963</ele>
        <time>2022-07-26T14:44:15Z</time>
      </trkpt>
      <trkpt lat="44.08987" lon="7.09561">
        <ele>963</ele>
        <time>2022-07-26T14:44:16Z</time>
      </trkpt>
      <trkpt lat="44.08988" lon="7.09563">
        <ele>963</ele>
        <time>2022-07-26T14:44:17Z</time>
      </trkpt>
      <trkpt lat="44.08988" lon="7.09564">
        <ele>962</ele>
        <time>2022-07-26T14:44:18Z</time>
      </trkpt>
      <trkpt lat="44.08989" lon="7.09565">
        <ele>962</ele>
        <time>2022-07-26T14:44:19Z</time>
      </trkpt>
      <trkpt lat="44.0899" lon="7.09566">
        <ele>962</ele>
        <time>2022-07-26T14:44:20Z</time>
      </trkpt>
      <trkpt lat="44.0899" lon="7.09567">
        <ele>962</ele>
        <time>2022-07-26T14:44:21Z</time>
      </trkpt>
      <trkpt lat="44.08991" lon="7.09568">
        <ele>962</ele>
        <time>2022-07-26T14:44:22Z</time>
      </trkpt>
      <trkpt lat="44.08991" lon="7.0957">
        <ele>961</ele>
        <time>2022-07-26T14:44:23Z</time>
      </trkpt>
      <trkpt lat="44.08992" lon="7.09571">
        <ele>961</ele>
        <time>2022-07-26T14:44:24Z</time>
      </trkpt>
      <trkpt lat="44.08993" lon="7.09572">
        <ele>961</ele>
        <time>2022-07-26T14:44:25Z</time>
      </trkpt>
      <trkpt lat="44.08993" lon="7.09574">
        <ele>961</ele>
        <time>2022-07-26T14:44:26Z</time>
      </trkpt>
      <trkpt lat="44.08994" lon="7.09575">
        <ele>961</ele>
        <time>2022-07-26T14:44:27Z</time>
      </trkpt>
      <trkpt lat="44.08994" lon="7.09576">
        <ele>960</ele>
        <time>2022-07-26T14:44:28Z</time>
      </trkpt>
      <trkpt lat="44.08995" lon="7.09578">
        <ele>960</ele>
        <time>2022-07-26T14:44:29Z</time>
      </trkpt>
      <trkpt lat="44.08996" lon="7.09579">
        <ele>960</ele>
        <time>2022-07-26T14:44:30Z</time>
      </trkpt>
      <trkpt lat="44.08996" lon="7.0958">
        <ele>960</ele>
        <time>2022-07-26T14:44:31Z</time>
      </trkpt>
      <trkpt lat="44.08997" lon="7.09582">
        <ele>960</ele>
        <time>2022-07-26T14:44:32Z</time>
      </trkpt>
      <trkpt lat="44.08998" lon="7.09583">
        <ele>960</ele>
        <time>2022-07-26T14:44:33Z</time>
      </trkpt>
      <trkpt lat="44.08998" lon="7.09584">
        <ele>960</ele>
        <time>2022-07-26T14:44:34Z</time>
      </trkpt>
      <trkpt lat="44.08999" lon="7.09585">
        <ele>960</ele>
        <time>2022-07-26T14:44:35Z</time>
      </trkpt>
      <trkpt lat="44.09" lon="7.09586">
        <ele>960</ele>
        <time>2022-07-26T14:44:36Z</time>
      </trkpt>
      <trkpt lat="44.09001" lon="7.09588">
        <ele>960</ele>
        <time>2022-07-26T14:44:37Z</time>
      </trkpt>
      <trkpt lat="44.09002" lon="7.09589">
        <ele>959</ele>
        <time>2022-07-26T14:44:38Z</time>
      </trkpt>
      <trkpt lat="44.09003" lon="7.0959">
        <ele>959</ele>
        <time>2022-07-26T14:44:39Z</time>
      </trkpt>
      <trkpt lat="44.09003" lon="7.09591">
        <ele>959</ele>
        <time>2022-07-26T14:44:40Z</time>
      </trkpt>
      <trkpt lat="44.09004" lon="7.09592">
        <ele>959</ele>
        <time>2022-07-26T14:44:41Z</time>
      </trkpt>
      <trkpt lat="44.09005" lon="7.09593">
        <ele>959</ele>
        <time>2022-07-26T14:44:42Z</time>
      </trkpt>
      <trkpt lat="44.09007" lon="7.09594">
        <ele>958</ele>
        <time>2022-07-26T14:44:43Z</time>
      </trkpt>
      <trkpt lat="44.09008" lon="7.09595">
        <ele>958</ele>
        <time>2022-07-26T14:44:44Z</time>
      </trkpt>
      <trkpt lat="44.09009" lon="7.09597">
        <ele>958</ele>
        <time>2022-07-26T14:44:45Z</time>
      </trkpt>
      <trkpt lat="44.0901" lon="7.09597">
        <ele>958</ele>
        <time>2022-07-26T14:44:46Z</time>
      </trkpt>
      <trkpt lat="44.09011" lon="7.09598">
        <ele>958</ele>
        <time>2022-07-26T14:44:47Z</time>
      </trkpt>
      <trkpt lat="44.09013" lon="7.09599">
        <ele>957</ele>
        <time>2022-07-26T14:44:48Z</time>
      </trkpt>
      <trkpt lat="44.09014" lon="7.096">
        <ele>957</ele>
        <time>2022-07-26T14:44:49Z</time>
      </trkpt>
      <trkpt lat="44.09015" lon="7.09601">
        <ele>957</ele>
        <time>2022-07-26T14:44:50Z</time>
      </trkpt>
      <trkpt lat="44.09016" lon="7.09601">
        <ele>957</ele>
        <time>2022-07-26T14:44:51Z</time>
      </trkpt>
      <trkpt lat="44.09017" lon="7.09601">
        <ele>957</ele>
        <time>2022-07-26T14:44:52Z</time>
      </trkpt>
      <trkpt lat="44.09018" lon="7.09602">
        <ele>956</ele>
        <time>2022-07-26T14:44:53Z</time>
      </trkpt>
      <trkpt lat="44.09019" lon="7.09602">
        <ele>956</ele>
        <time>2022-07-26T14:44:54Z</time>
      </trkpt>
      <trkpt lat="44.0902" lon="7.09603">
        <ele>955</ele>
        <time>2022-07-26T14:44:55Z</time>
      </trkpt>
      <trkpt lat="44.09021" lon="7.09603">
        <ele>955</ele>
        <time>2022-07-26T14:44:56Z</time>
      </trkpt>
      <trkpt lat="44.09021" lon="7.09604">
        <ele>955</ele>
        <time>2022-07-26T14:44:57Z</time>
      </trkpt>
      <trkpt lat="44.09022" lon="7.09605">
        <ele>955</ele>
        <time>2022-07-26T14:44:58Z</time>
      </trkpt>
      <trkpt lat="44.09023" lon="7.09606">
        <ele>955</ele>
        <time>2022-07-26T14:44:59Z</time>
      </trkpt>
      <trkpt lat="44.09023" lon="7.09607">
        <ele>955</ele>
        <time>2022-07-26T14:45:00Z</time>
      </trkpt>
      <trkpt lat="44.09024" lon="7.09609">
        <ele>955</ele>
        <time>2022-07-26T14:45:01Z</time>
      </trkpt>
      <trkpt lat="44.09025" lon="7.0961">
        <ele>955</ele>
        <time>2022-07-26T14:45:02Z</time>
      </trkpt>
      <trkpt lat="44.09025" lon="7.09611">
        <ele>954</ele>
        <time>2022-07-26T14:45:03Z</time>
      </trkpt>
      <trkpt lat="44.09026" lon="7.09611">
        <ele>954</ele>
        <time>2022-07-26T14:45:04Z</time>
      </trkpt>
      <trkpt lat="44.09027" lon="7.09612">
        <ele>954</ele>
        <time>2022-07-26T14:45:05Z</time>
      </trkpt>
      <trkpt lat="44.09028" lon="7.09613">
        <ele>954</ele>
        <time>2022-07-26T14:45:06Z</time>
      </trkpt>
      <trkpt lat="44.09029" lon="7.09613">
        <ele>954</ele>
        <time>2022-07-26T14:45:07Z</time>
      </trkpt>
      <trkpt lat="44.0903" lon="7.09614">
        <ele>953</ele>
        <time>2022-07-26T14:45:08Z</time>
      </trkpt>
      <trkpt lat="44.09031" lon="7.09615">
        <ele>953</ele>
        <time>2022-07-26T14:45:09Z</time>
      </trkpt>
      <trkpt lat="44.09032" lon="7.09616">
        <ele>953</ele>
        <time>2022-07-26T14:45:10Z</time>
      </trkpt>
      <trkpt lat="44.09033" lon="7.09617">
        <ele>953</ele>
        <time>2022-07-26T14:45:11Z</time>
      </trkpt>
      <trkpt lat="44.09033" lon="7.09618">
        <ele>953</ele>
        <time>2022-07-26T14:45:12Z</time>
      </trkpt>
      <trkpt lat="44.09034" lon="7.09619">
        <ele>952</ele>
        <time>2022-07-26T14:45:13Z</time>
      </trkpt>
      <trkpt lat="44.09035" lon="7.0962">
        <ele>952</ele>
        <time>2022-07-26T14:45:14Z</time>
      </trkpt>
      <trkpt lat="44.09036" lon="7.09621">
        <ele>952</ele>
        <time>2022-07-26T14:45:15Z</time>
      </trkpt>
      <trkpt lat="44.09037" lon="7.09622">
        <ele>952</ele>
        <time>2022-07-26T14:45:16Z</time>
      </trkpt>
      <trkpt lat="44.09038" lon="7.09623">
        <ele>952</ele>
        <time>2022-07-26T14:45:17Z</time>
      </trkpt>
      <trkpt lat="44.09039" lon="7.09623">
        <ele>952</ele>
        <time>2022-07-26T14:45:18Z</time>
      </trkpt>
      <trkpt lat="44.0904" lon="7.09624">
        <ele>952</ele>
        <time>2022-07-26T14:45:19Z</time>
      </trkpt>
      <trkpt lat="44.09041" lon="7.09625">
        <ele>952</ele>
        <time>2022-07-26T14:45:20Z</time>
      </trkpt>
      <trkpt lat="44.09042" lon="7.09626">
        <ele>952</ele>
        <time>2022-07-26T14:45:21Z</time>
      </trkpt>
      <trkpt lat="44.09043" lon="7.09627">
        <ele>952</ele>
        <time>2022-07-26T14:45:22Z</time>
      </trkpt>
      <trkpt lat="44.09043" lon="7.09628">
        <ele>951</ele>
        <time>2022-07-26T14:45:23Z</time>
      </trkpt>
      <trkpt lat="44.09044" lon="7.09629">
        <ele>951</ele>
        <time>2022-07-26T14:45:24Z</time>
      </trkpt>
      <trkpt lat="44.09045" lon="7.0963">
        <ele>951</ele>
        <time>2022-07-26T14:45:25Z</time>
      </trkpt>
      <trkpt lat="44.09046" lon="7.09631">
        <ele>951</ele>
        <time>2022-07-26T14:45:26Z</time>
      </trkpt>
      <trkpt lat="44.09047" lon="7.09632">
        <ele>951</ele>
        <time>2022-07-26T14:45:27Z</time>
      </trkpt>
      <trkpt lat="44.09048" lon="7.09633">
        <ele>950</ele>
        <time>2022-07-26T14:45:28Z</time>
      </trkpt>
      <trkpt lat="44.09048" lon="7.09634">
        <ele>950</ele>
        <time>2022-07-26T14:45:29Z</time>
      </trkpt>
      <trkpt lat="44.09048" lon="7.09635">
        <ele>950</ele>
        <time>2022-07-26T14:45:30Z</time>
      </trkpt>
      <trkpt lat="44.09049" lon="7.09637">
        <ele>950</ele>
        <time>2022-07-26T14:45:31Z</time>
      </trkpt>
      <trkpt lat="44.09048" lon="7.09637">
        <ele>950</ele>
        <time>2022-07-26T14:45:32Z</time>
      </trkpt>
      <trkpt lat="44.09048" lon="7.09637">
        <ele>949</ele>
        <time>2022-07-26T14:45:33Z</time>
      </trkpt>
      <trkpt lat="44.09047" lon="7.09637">
        <ele>949</ele>
        <time>2022-07-26T14:45:34Z</time>
      </trkpt>
      <trkpt lat="44.09046" lon="7.09637">
        <ele>949</ele>
        <time>2022-07-26T14:45:35Z</time>
      </trkpt>
      <trkpt lat="44.09045" lon="7.09636">
        <ele>949</ele>
        <time>2022-07-26T14:45:36Z</time>
      </trkpt>
      <trkpt lat="44.09044" lon="7.09636">
        <ele>949</ele>
        <time>2022-07-26T14:45:37Z</time>
      </trkpt>
      <trkpt lat="44.09043" lon="7.09635">
        <ele>948</ele>
        <time>2022-07-26T14:45:38Z</time>
      </trkpt>
      <trkpt lat="44.09042" lon="7.09634">
        <ele>948</ele>
        <time>2022-07-26T14:45:39Z</time>
      </trkpt>
      <trkpt lat="44.09041" lon="7.09633">
        <ele>948</ele>
        <time>2022-07-26T14:45:40Z</time>
      </trkpt>
      <trkpt lat="44.0904" lon="7.09632">
        <ele>948</ele>
        <time>2022-07-26T14:45:41Z</time>
      </trkpt>
      <trkpt lat="44.09039" lon="7.09632">
        <ele>948</ele>
        <time>2022-07-26T14:45:42Z</time>
      </trkpt>
      <trkpt lat="44.09038" lon="7.09631">
        <ele>947</ele>
        <time>2022-07-26T14:45:43Z</time>
      </trkpt>
      <trkpt lat="44.09037" lon="7.09631">
        <ele>947</ele>
        <time>2022-07-26T14:45:44Z</time>
      </trkpt>
      <trkpt lat="44.09036" lon="7.09631">
        <ele>947</ele>
        <time>2022-07-26T14:45:45Z</time>
      </trkpt>
      <trkpt lat="44.09034" lon="7.0963">
        <ele>947</ele>
        <time>2022-07-26T14:45:46Z</time>
      </trkpt>
      <trkpt lat="44.09033" lon="7.0963">
        <ele>947</ele>
        <time>2022-07-26T14:45:47Z</time>
      </trkpt>
      <trkpt lat="44.09032" lon="7.0963">
        <ele>946</ele>
        <time>2022-07-26T14:45:48Z</time>
      </trkpt>
      <trkpt lat="44.09031" lon="7.09629">
        <ele>946</ele>
        <time>2022-07-26T14:45:49Z</time>
      </trkpt>
      <trkpt lat="44.0903" lon="7.09629">
        <ele>946</ele>
        <time>2022-07-26T14:45:50Z</time>
      </trkpt>
      <trkpt lat="44.09028" lon="7.09628">
        <ele>946</ele>
        <time>2022-07-26T14:45:51Z</time>
      </trkpt>
      <trkpt lat="44.09027" lon="7.09628">
        <ele>946</ele>
        <time>2022-07-26T14:45:52Z</time>
      </trkpt>
      <trkpt lat="44.09026" lon="7.09627">
        <ele>945</ele>
        <time>2022-07-26T14:45:53Z</time>
      </trkpt>
      <trkpt lat="44.09025" lon="7.09626">
        <ele>945</ele>
        <time>2022-07-26T14:45:54Z</time>
      </trkpt>
      <trkpt lat="44.09024" lon="7.09626">
        <ele>945</ele>
        <time>2022-07-26T14:45:55Z</time>
      </trkpt>
      <trkpt lat="44.09023" lon="7.09626">
        <ele>945</ele>
        <time>2022-07-26T14:45:56Z</time>
      </trkpt>
      <trkpt lat="44.09022" lon="7.09625">
        <ele>945</ele>
        <time>2022-07-26T14:45:57Z</time>
      </trkpt>
      <trkpt lat="44.09021" lon="7.09625">
        <ele>944</ele>
        <time>2022-07-26T14:45:58Z</time>
      </trkpt>
      <trkpt lat="44.0902" lon="7.09625">
        <ele>944</ele>
        <time>2022-07-26T14:45:59Z</time>
      </trkpt>
      <trkpt lat="44.09019" lon="7.09625">
        <ele>944</ele>
        <time>2022-07-26T14:46:00Z</time>
      </trkpt>
      <trkpt lat="44.09018" lon="7.09625">
        <ele>944</ele>
        <time>2022-07-26T14:46:01Z</time>
      </trkpt>
      <trkpt lat="44.09017" lon="7.09625">
        <ele>944</ele>
        <time>2022-07-26T14:46:02Z</time>
      </trkpt>
      <trkpt lat="44.09015" lon="7.09624">
        <ele>943</ele>
        <time>2022-07-26T14:46:03Z</time>
      </trkpt>
      <trkpt lat="44.09014" lon="7.09624">
        <ele>943</ele>
        <time>2022-07-26T14:46:04Z</time>
      </trkpt>
      <trkpt lat="44.09013" lon="7.09624">
        <ele>943</ele>
        <time>2022-07-26T14:46:05Z</time>
      </trkpt>
      <trkpt lat="44.09012" lon="7.09624">
        <ele>943</ele>
        <time>2022-07-26T14:46:06Z</time>
      </trkpt>
      <trkpt lat="44.09011" lon="7.09624">
        <ele>943</ele>
        <time>2022-07-26T14:46:07Z</time>
      </trkpt>
      <trkpt lat="44.0901" lon="7.09624">
        <ele>942</ele>
        <time>2022-07-26T14:46:08Z</time>
      </trkpt>
      <trkpt lat="44.09009" lon="7.09623">
        <ele>942</ele>
        <time>2022-07-26T14:46:09Z</time>
      </trkpt>
      <trkpt lat="44.09007" lon="7.09623">
        <ele>942</ele>
        <time>2022-07-26T14:46:10Z</time>
      </trkpt>
      <trkpt lat="44.09006" lon="7.09623">
        <ele>942</ele>
        <time>2022-07-26T14:46:11Z</time>
      </trkpt>
      <trkpt lat="44.09005" lon="7.09623">
        <ele>942</ele>
        <time>2022-07-26T14:46:12Z</time>
      </trkpt>
      <trkpt lat="44.09004" lon="7.09623">
        <ele>942</ele>
        <time>2022-07-26T14:46:13Z</time>
      </trkpt>
      <trkpt lat="44.09003" lon="7.09622">
        <ele>942</ele>
        <time>2022-07-26T14:46:14Z</time>
      </trkpt>
      <trkpt lat="44.09002" lon="7.09622">
        <ele>942</ele>
        <time>2022-07-26T14:46:15Z</time>
      </trkpt>
      <trkpt lat="44.09001" lon="7.09622">
        <ele>942</ele>
        <time>2022-07-26T14:46:16Z</time>
      </trkpt>
      <trkpt lat="44.09" lon="7.09622">
        <ele>942</ele>
        <time>2022-07-26T14:46:17Z</time>
      </trkpt>
      <trkpt lat="44.08999" lon="7.09622">
        <ele>941</ele>
        <time>2022-07-26T14:46:18Z</time>
      </trkpt>
      <trkpt lat="44.08998" lon="7.09622">
        <ele>941</ele>
        <time>2022-07-26T14:46:19Z</time>
      </trkpt>
      <trkpt lat="44.08997" lon="7.09622">
        <ele>941</ele>
        <time>2022-07-26T14:46:20Z</time>
      </trkpt>
      <trkpt lat="44.08996" lon="7.09622">
        <ele>941</ele>
        <time>2022-07-26T14:46:21Z</time>
      </trkpt>
      <trkpt lat="44.08995" lon="7.09622">
        <ele>941</ele>
        <time>2022-07-26T14:46:22Z</time>
      </trkpt>
      <trkpt lat="44.08994" lon="7.09622">
        <ele>940</ele>
        <time>2022-07-26T14:46:23Z</time>
      </trkpt>
      <trkpt lat="44.08993" lon="7.09622">
        <ele>940</ele>
        <time>2022-07-26T14:46:24Z</time>
      </trkpt>
      <trkpt lat="44.08992" lon="7.09622">
        <ele>940</ele>
        <time>2022-07-26T14:46:25Z</time>
      </trkpt>
      <trkpt lat="44.08991" lon="7.09622">
        <ele>940</ele>
        <time>2022-07-26T14:46:26Z</time>
      </trkpt>
      <trkpt lat="44.0899" lon="7.09621">
        <ele>940</ele>
        <time>2022-07-26T14:46:27Z</time>
      </trkpt>
      <trkpt lat="44.08989" lon="7.09621">
        <ele>939</ele>
        <time>2022-07-26T14:46:28Z</time>
      </trkpt>
      <trkpt lat="44.08987" lon="7.09621">
        <ele>939</ele>
        <time>2022-07-26T14:46:29Z</time>
      </trkpt>
      <trkpt lat="44.08986" lon="7.09621">
        <ele>938</ele>
        <time>2022-07-26T14:46:30Z</time>
      </trkpt>
      <trkpt lat="44.08985" lon="7.09621">
        <ele>938</ele>
        <time>2022-07-26T14:46:31Z</time>
      </trkpt>
      <trkpt lat="44.08984" lon="7.09621">
        <ele>938</ele>
        <time>2022-07-26T14:46:32Z</time>
      </trkpt>
      <trkpt lat="44.08983" lon="7.0962">
        <ele>938</ele>
        <time>2022-07-26T14:46:33Z</time>
      </trkpt>
      <trkpt lat="44.08982" lon="7.0962">
        <ele>938</ele>
        <time>2022-07-26T14:46:34Z</time>
      </trkpt>
      <trkpt lat="44.08981" lon="7.0962">
        <ele>938</ele>
        <time>2022-07-26T14:46:35Z</time>
      </trkpt>
      <trkpt lat="44.0898" lon="7.0962">
        <ele>938</ele>
        <time>2022-07-26T14:46:36Z</time>
      </trkpt>
      <trkpt lat="44.08979" lon="7.0962">
        <ele>938</ele>
        <time>2022-07-26T14:46:37Z</time>
      </trkpt>
      <trkpt lat="44.08978" lon="7.0962">
        <ele>937</ele>
        <time>2022-07-26T14:46:38Z</time>
      </trkpt>
      <trkpt lat="44.08976" lon="7.09619">
        <ele>937</ele>
        <time>2022-07-26T14:46:39Z</time>
      </trkpt>
      <trkpt lat="44.08975" lon="7.0962">
        <ele>937</ele>
        <time>2022-07-26T14:46:40Z</time>
      </trkpt>
      <trkpt lat="44.08974" lon="7.0962">
        <ele>937</ele>
        <time>2022-07-26T14:46:41Z</time>
      </trkpt>
      <trkpt lat="44.08973" lon="7.0962">
        <ele>937</ele>
        <time>2022-07-26T14:46:42Z</time>
      </trkpt>
      <trkpt lat="44.08971" lon="7.0962">
        <ele>937</ele>
        <time>2022-07-26T14:46:43Z</time>
      </trkpt>
      <trkpt lat="44.0897" lon="7.0962">
        <ele>937</ele>
        <time>2022-07-26T14:46:44Z</time>
      </trkpt>
      <trkpt lat="44.08969" lon="7.0962">
        <ele>937</ele>
        <time>2022-07-26T14:46:45Z</time>
      </trkpt>
      <trkpt lat="44.08968" lon="7.0962">
        <ele>937</ele>
        <time>2022-07-26T14:46:46Z</time>
      </trkpt>
      <trkpt lat="44.08967" lon="7.09621">
        <ele>937</ele>
        <time>2022-07-26T14:46:47Z</time>
      </trkpt>
      <trkpt lat="44.08966" lon="7.09621">
        <ele>936</ele>
        <time>2022-07-26T14:46:48Z</time>
      </trkpt>
      <trkpt lat="44.08964" lon="7.09621">
        <ele>936</ele>
        <time>2022-07-26T14:46:49Z</time>
      </trkpt>
      <trkpt lat="44.08963" lon="7.09621">
        <ele>936</ele>
        <time>2022-07-26T14:46:50Z</time>
      </trkpt>
      <trkpt lat="44.08962" lon="7.09621">
        <ele>936</ele>
        <time>2022-07-26T14:46:51Z</time>
      </trkpt>
      <trkpt lat="44.08961" lon="7.09622">
        <ele>936</ele>
        <time>2022-07-26T14:46:52Z</time>
      </trkpt>
      <trkpt lat="44.0896" lon="7.09622">
        <ele>935</ele>
        <time>2022-07-26T14:46:53Z</time>
      </trkpt>
      <trkpt lat="44.08959" lon="7.09622">
        <ele>935</ele>
        <time>2022-07-26T14:46:54Z</time>
      </trkpt>
      <trkpt lat="44.08957" lon="7.09622">
        <ele>935</ele>
        <time>2022-07-26T14:46:55Z</time>
      </trkpt>
      <trkpt lat="44.08956" lon="7.09622">
        <ele>935</ele>
        <time>2022-07-26T14:46:56Z</time>
      </trkpt>
      <trkpt lat="44.08955" lon="7.09621">
        <ele>935</ele>
        <time>2022-07-26T14:46:57Z</time>
      </trkpt>
      <trkpt lat="44.08954" lon="7.09621">
        <ele>935</ele>
        <time>2022-07-26T14:46:58Z</time>
      </trkpt>
      <trkpt lat="44.08953" lon="7.0962">
        <ele>935</ele>
        <time>2022-07-26T14:46:59Z</time>
      </trkpt>
      <trkpt lat="44.08953" lon="7.0962">
        <ele>935</ele>
        <time>2022-07-26T14:47:00Z</time>
      </trkpt>
      <trkpt lat="44.08952" lon="7.09619">
        <ele>935</ele>
        <time>2022-07-26T14:47:01Z</time>
      </trkpt>
      <trkpt lat="44.08951" lon="7.09619">
        <ele>935</ele>
        <time>2022-07-26T14:47:02Z</time>
      </trkpt>
      <trkpt lat="44.0895" lon="7.09618">
        <ele>934</ele>
        <time>2022-07-26T14:47:03Z</time>
      </trkpt>
      <trkpt lat="44.0895" lon="7.09617">
        <ele>934</ele>
        <time>2022-07-26T14:47:04Z</time>
      </trkpt>
      <trkpt lat="44.08949" lon="7.09617">
        <ele>934</ele>
        <time>2022-07-26T14:47:05Z</time>
      </trkpt>
      <trkpt lat="44.08948" lon="7.09616">
        <ele>934</ele>
        <time>2022-07-26T14:47:06Z</time>
      </trkpt>
      <trkpt lat="44.08948" lon="7.09615">
        <ele>934</ele>
        <time>2022-07-26T14:47:07Z</time>
      </trkpt>
      <trkpt lat="44.08947" lon="7.09614">
        <ele>933</ele>
        <time>2022-07-26T14:47:08Z</time>
      </trkpt>
      <trkpt lat="44.08946" lon="7.09613">
        <ele>933</ele>
        <time>2022-07-26T14:47:09Z</time>
      </trkpt>
      <trkpt lat="44.08945" lon="7.09612">
        <ele>933</ele>
        <time>2022-07-26T14:47:10Z</time>
      </trkpt>
      <trkpt lat="44.08944" lon="7.09612">
        <ele>933</ele>
        <time>2022-07-26T14:47:11Z</time>
      </trkpt>
      <trkpt lat="44.08943" lon="7.09611">
        <ele>933</ele>
        <time>2022-07-26T14:47:12Z</time>
      </trkpt>
      <trkpt lat="44.08942" lon="7.09611">
        <ele>932</ele>
        <time>2022-07-26T14:47:13Z</time>
      </trkpt>
      <trkpt lat="44.08941" lon="7.0961">
        <ele>932</ele>
        <time>2022-07-26T14:47:14Z</time>
      </trkpt>
      <trkpt lat="44.0894" lon="7.0961">
        <ele>932</ele>
        <time>2022-07-26T14:47:15Z</time>
      </trkpt>
      <trkpt lat="44.08939" lon="7.0961">
        <ele>932</ele>
        <time>2022-07-26T14:47:16Z</time>
      </trkpt>
      <trkpt lat="44.08938" lon="7.0961">
        <ele>932</ele>
        <time>2022-07-26T14:47:17Z</time>
      </trkpt>
      <trkpt lat="44.08937" lon="7.09609">
        <ele>932</ele>
        <time>2022-07-26T14:47:18Z</time>
      </trkpt>
      <trkpt lat="44.08936" lon="7.09609">
        <ele>932</ele>
        <time>2022-07-26T14:47:19Z</time>
      </trkpt>
      <trkpt lat="44.08935" lon="7.09608">
        <ele>932</ele>
        <time>2022-07-26T14:47:20Z</time>
      </trkpt>
      <trkpt lat="44.08934" lon="7.09608">
        <ele>932</ele>
        <time>2022-07-26T14:47:21Z</time>
      </trkpt>
      <trkpt lat="44.08933" lon="7.09607">
        <ele>932</ele>
        <time>2022-07-26T14:47:22Z</time>
      </trkpt>
      <trkpt lat="44.08933" lon="7.09606">
        <ele>931</ele>
        <time>2022-07-26T14:47:23Z</time>
      </trkpt>
      <trkpt lat="44.08932" lon="7.09605">
        <ele>931</ele>
        <time>2022-07-26T14:47:24Z</time>
      </trkpt>
      <trkpt lat="44.08931" lon="7.09604">
        <ele>931</ele>
        <time>2022-07-26T14:47:25Z</time>
      </trkpt>
      <trkpt lat="44.0893" lon="7.09603">
        <ele>931</ele>
        <time>2022-07-26T14:47:26Z</time>
      </trkpt>
      <trkpt lat="44.08929" lon="7.09602">
        <ele>931</ele>
        <time>2022-07-26T14:47:27Z</time>
      </trkpt>
      <trkpt lat="44.08929" lon="7.096">
        <ele>930</ele>
        <time>2022-07-26T14:47:28Z</time>
      </trkpt>
      <trkpt lat="44.08928" lon="7.09599">
        <ele>930</ele>
        <time>2022-07-26T14:47:29Z</time>
      </trkpt>
      <trkpt lat="44.08927" lon="7.09598">
        <ele>930</ele>
        <time>2022-07-26T14:47:30Z</time>
      </trkpt>
      <trkpt lat="44.08927" lon="7.09597">
        <ele>930</ele>
        <time>2022-07-26T14:47:31Z</time>
      </trkpt>
      <trkpt lat="44.08926" lon="7.09596">
        <ele>930</ele>
        <time>2022-07-26T14:47:32Z</time>
      </trkpt>
      <trkpt lat="44.08926" lon="7.09594">
        <ele>929</ele>
        <time>2022-07-26T14:47:33Z</time>
      </trkpt>
      <trkpt lat="44.08925" lon="7.09593">
        <ele>929</ele>
        <time>2022-07-26T14:47:34Z</time>
      </trkpt>
      <trkpt lat="44.08925" lon="7.09592">
        <ele>929</ele>
        <time>2022-07-26T14:47:35Z</time>
      </trkpt>
      <trkpt lat="44.08924" lon="7.0959">
        <ele>929</ele>
        <time>2022-07-26T14:47:36Z</time>
      </trkpt>
      <trkpt lat="44.08924" lon="7.09589">
        <ele>929</ele>
        <time>2022-07-26T14:47:37Z</time>
      </trkpt>
      <trkpt lat="44.08923" lon="7.09588">
        <ele>929</ele>
        <time>2022-07-26T14:47:38Z</time>
      </trkpt>
      <trkpt lat="44.08923" lon="7.09586">
        <ele>929</ele>
        <time>2022-07-26T14:47:39Z</time>
      </trkpt>
      <trkpt lat="44.08923" lon="7.09585">
        <ele>929</ele>
        <time>2022-07-26T14:47:40Z</time>
      </trkpt>
      <trkpt lat="44.08922" lon="7.09584">
        <ele>929</ele>
        <time>2022-07-26T14:47:41Z</time>
      </trkpt>
      <trkpt lat="44.08922" lon="7.09582">
        <ele>929</ele>
        <time>2022-07-26T14:47:42Z</time>
      </trkpt>
      <trkpt lat="44.08922" lon="7.09581">
        <ele>928</ele>
        <time>2022-07-26T14:47:43Z</time>
      </trkpt>
      <trkpt lat="44.08922" lon="7.0958">
        <ele>928</ele>
        <time>2022-07-26T14:47:44Z</time>
      </trkpt>
      <trkpt lat="44.08922" lon="7.09579">
        <ele>928</ele>
        <time>2022-07-26T14:47:45Z</time>
      </trkpt>
      <trkpt lat="44.08922" lon="7.09578">
        <ele>928</ele>
        <time>2022-07-26T14:47:46Z</time>
      </trkpt>
      <trkpt lat="44.08922" lon="7.09577">
        <ele>928</ele>
        <time>2022-07-26T14:47:47Z</time>
      </trkpt>
      <trkpt lat="44.08922" lon="7.09576">
        <ele>927</ele>
        <time>2022-07-26T14:47:48Z</time>
      </trkpt>
      <trkpt lat="44.08922" lon="7.09575">
        <ele>927</ele>
        <time>2022-07-26T14:47:49Z</time>
      </trkpt>
      <trkpt lat="44.08922" lon="7.09573">
        <ele>927</ele>
        <time>2022-07-26T14:47:50Z</time>
      </trkpt>
      <trkpt lat="44.08922" lon="7.09572">
        <ele>927</ele>
        <time>2022-07-26T14:47:51Z</time>
      </trkpt>
      <trkpt lat="44.08921" lon="7.0957">
        <ele>927</ele>
        <time>2022-07-26T14:47:52Z</time>
      </trkpt>
      <trkpt lat="44.08921" lon="7.09569">
        <ele>926</ele>
        <time>2022-07-26T14:47:53Z</time>
      </trkpt>
      <trkpt lat="44.08921" lon="7.09568">
        <ele>926</ele>
        <time>2022-07-26T14:47:54Z</time>
      </trkpt>
      <trkpt lat="44.0892" lon="7.09566">
        <ele>926</ele>
        <time>2022-07-26T14:47:55Z</time>
      </trkpt>
      <trkpt lat="44.0892" lon="7.09564">
        <ele>926</ele>
        <time>2022-07-26T14:47:56Z</time>
      </trkpt>
      <trkpt lat="44.0892" lon="7.09563">
        <ele>926</ele>
        <time>2022-07-26T14:47:57Z</time>
      </trkpt>
      <trkpt lat="44.0892" lon="7.09561">
        <ele>925</ele>
        <time>2022-07-26T14:47:58Z</time>
      </trkpt>
      <trkpt lat="44.0892" lon="7.0956">
        <ele>925</ele>
        <time>2022-07-26T14:47:59Z</time>
      </trkpt>
      <trkpt lat="44.0892" lon="7.09558">
        <ele>925</ele>
        <time>2022-07-26T14:48:00Z</time>
      </trkpt>
      <trkpt lat="44.0892" lon="7.09557">
        <ele>925</ele>
        <time>2022-07-26T14:48:01Z</time>
      </trkpt>
      <trkpt lat="44.0892" lon="7.09555">
        <ele>925</ele>
        <time>2022-07-26T14:48:02Z</time>
      </trkpt>
      <trkpt lat="44.0892" lon="7.09553">
        <ele>925</ele>
        <time>2022-07-26T14:48:03Z</time>
      </trkpt>
      <trkpt lat="44.0892" lon="7.09552">
        <ele>925</ele>
        <time>2022-07-26T14:48:04Z</time>
      </trkpt>
      <trkpt lat="44.0892" lon="7.0955">
        <ele>925</ele>
        <time>2022-07-26T14:48:05Z</time>
      </trkpt>
      <trkpt lat="44.08919" lon="7.09549">
        <ele>925</ele>
        <time>2022-07-26T14:48:06Z</time>
      </trkpt>
      <trkpt lat="44.08919" lon="7.09548">
        <ele>925</ele>
        <time>2022-07-26T14:48:07Z</time>
      </trkpt>
      <trkpt lat="44.08918" lon="7.09547">
        <ele>924</ele>
        <time>2022-07-26T14:48:08Z</time>
      </trkpt>
      <trkpt lat="44.08918" lon="7.09546">
        <ele>924</ele>
        <time>2022-07-26T14:48:09Z</time>
      </trkpt>
      <trkpt lat="44.08917" lon="7.09545">
        <ele>924</ele>
        <time>2022-07-26T14:48:10Z</time>
      </trkpt>
      <trkpt lat="44.08917" lon="7.09544">
        <ele>924</ele>
        <time>2022-07-26T14:48:11Z</time>
      </trkpt>
      <trkpt lat="44.08916" lon="7.09543">
        <ele>924</ele>
        <time>2022-07-26T14:48:12Z</time>
      </trkpt>
      <trkpt lat="44.08916" lon="7.09542">
        <ele>923</ele>
        <time>2022-07-26T14:48:13Z</time>
      </trkpt>
      <trkpt lat="44.08916" lon="7.09542">
        <ele>923</ele>
        <time>2022-07-26T14:48:14Z</time>
      </trkpt>
      <trkpt lat="44.08915" lon="7.09541">
        <ele>923</ele>
        <time>2022-07-26T14:48:15Z</time>
      </trkpt>
      <trkpt lat="44.08915" lon="7.0954">
        <ele>923</ele>
        <time>2022-07-26T14:48:16Z</time>
      </trkpt>
      <trkpt lat="44.08914" lon="7.09538">
        <ele>923</ele>
        <time>2022-07-26T14:48:17Z</time>
      </trkpt>
      <trkpt lat="44.08914" lon="7.09537">
        <ele>923</ele>
        <time>2022-07-26T14:48:18Z</time>
      </trkpt>
      <trkpt lat="44.08913" lon="7.09536">
        <ele>923</ele>
        <time>2022-07-26T14:48:19Z</time>
      </trkpt>
      <trkpt lat="44.08913" lon="7.09535">
        <ele>923</ele>
        <time>2022-07-26T14:48:20Z</time>
      </trkpt>
      <trkpt lat="44.08912" lon="7.09534">
        <ele>923</ele>
        <time>2022-07-26T14:48:21Z</time>
      </trkpt>
      <trkpt lat="44.08912" lon="7.09532">
        <ele>923</ele>
        <time>2022-07-26T14:48:22Z</time>
      </trkpt>
      <trkpt lat="44.08911" lon="7.09531">
        <ele>922</ele>
        <time>2022-07-26T14:48:23Z</time>
      </trkpt>
      <trkpt lat="44.08911" lon="7.09529">
        <ele>922</ele>
        <time>2022-07-26T14:48:24Z</time>
      </trkpt>
      <trkpt lat="44.0891" lon="7.09528">
        <ele>921</ele>
        <time>2022-07-26T14:48:25Z</time>
      </trkpt>
      <trkpt lat="44.0891" lon="7.09526">
        <ele>921</ele>
        <time>2022-07-26T14:48:26Z</time>
      </trkpt>
      <trkpt lat="44.0891" lon="7.09524">
        <ele>921</ele>
        <time>2022-07-26T14:48:27Z</time>
      </trkpt>
      <trkpt lat="44.08909" lon="7.09523">
        <ele>920</ele>
        <time>2022-07-26T14:48:28Z</time>
      </trkpt>
      <trkpt lat="44.08909" lon="7.09521">
        <ele>920</ele>
        <time>2022-07-26T14:48:29Z</time>
      </trkpt>
      <trkpt lat="44.08908" lon="7.09519">
        <ele>920</ele>
        <time>2022-07-26T14:48:30Z</time>
      </trkpt>
      <trkpt lat="44.08908" lon="7.09518">
        <ele>920</ele>
        <time>2022-07-26T14:48:31Z</time>
      </trkpt>
      <trkpt lat="44.08907" lon="7.09516">
        <ele>920</ele>
        <time>2022-07-26T14:48:32Z</time>
      </trkpt>
      <trkpt lat="44.08907" lon="7.09515">
        <ele>919</ele>
        <time>2022-07-26T14:48:33Z</time>
      </trkpt>
      <trkpt lat="44.08907" lon="7.09513">
        <ele>919</ele>
        <time>2022-07-26T14:48:34Z</time>
      </trkpt>
      <trkpt lat="44.08906" lon="7.09512">
        <ele>919</ele>
        <time>2022-07-26T14:48:35Z</time>
      </trkpt>
      <trkpt lat="44.08906" lon="7.0951">
        <ele>919</ele>
        <time>2022-07-26T14:48:36Z</time>
      </trkpt>
      <trkpt lat="44.08906" lon="7.09509">
        <ele>919</ele>
        <time>2022-07-26T14:48:37Z</time>
      </trkpt>
      <trkpt lat="44.08905" lon="7.09507">
        <ele>919</ele>
        <time>2022-07-26T14:48:38Z</time>
      </trkpt>
      <trkpt lat="44.08905" lon="7.09506">
        <ele>919</ele>
        <time>2022-07-26T14:48:39Z</time>
      </trkpt>
      <trkpt lat="44.08905" lon="7.09504">
        <ele>919</ele>
        <time>2022-07-26T14:48:40Z</time>
      </trkpt>
      <trkpt lat="44.08905" lon="7.09503">
        <ele>919</ele>
        <time>2022-07-26T14:48:41Z</time>
      </trkpt>
      <trkpt lat="44.08905" lon="7.09502">
        <ele>919</ele>
        <time>2022-07-26T14:48:42Z</time>
      </trkpt>
      <trkpt lat="44.08904" lon="7.09501">
        <ele>918</ele>
        <time>2022-07-26T14:48:43Z</time>
      </trkpt>
      <trkpt lat="44.08904" lon="7.095">
        <ele>918</ele>
        <time>2022-07-26T14:48:44Z</time>
      </trkpt>
      <trkpt lat="44.08904" lon="7.09498">
        <ele>918</ele>
        <time>2022-07-26T14:48:45Z</time>
      </trkpt>
      <trkpt lat="44.08904" lon="7.09497">
        <ele>918</ele>
        <time>2022-07-26T14:48:46Z</time>
      </trkpt>
      <trkpt lat="44.08904" lon="7.09495">
        <ele>918</ele>
        <time>2022-07-26T14:48:47Z</time>
      </trkpt>
      <trkpt lat="44.08904" lon="7.09494">
        <ele>917</ele>
        <time>2022-07-26T14:48:48Z</time>
      </trkpt>
      <trkpt lat="44.08903" lon="7.09492">
        <ele>917</ele>
        <time>2022-07-26T14:48:49Z</time>
      </trkpt>
      <trkpt lat="44.08903" lon="7.09491">
        <ele>917</ele>
        <time>2022-07-26T14:48:50Z</time>
      </trkpt>
      <trkpt lat="44.08903" lon="7.09489">
        <ele>917</ele>
        <time>2022-07-26T14:48:51Z</time>
      </trkpt>
      <trkpt lat="44.08903" lon="7.09488">
        <ele>917</ele>
        <time>2022-07-26T14:48:52Z</time>
      </trkpt>
      <trkpt lat="44.08903" lon="7.09486">
        <ele>917</ele>
        <time>2022-07-26T14:48:53Z</time>
      </trkpt>
      <trkpt lat="44.08903" lon="7.09485">
        <ele>917</ele>
        <time>2022-07-26T14:48:54Z</time>
      </trkpt>
      <trkpt lat="44.08903" lon="7.09484">
        <ele>917</ele>
        <time>2022-07-26T14:48:55Z</time>
      </trkpt>
      <trkpt lat="44.08903" lon="7.09482">
        <ele>917</ele>
        <time>2022-07-26T14:48:56Z</time>
      </trkpt>
      <trkpt lat="44.08903" lon="7.0948">
        <ele>917</ele>
        <time>2022-07-26T14:48:57Z</time>
      </trkpt>
      <trkpt lat="44.08903" lon="7.09479">
        <ele>916</ele>
        <time>2022-07-26T14:48:58Z</time>
      </trkpt>
      <trkpt lat="44.08903" lon="7.09477">
        <ele>916</ele>
        <time>2022-07-26T14:48:59Z</time>
      </trkpt>
      <trkpt lat="44.08903" lon="7.09475">
        <ele>916</ele>
        <time>2022-07-26T14:49:00Z</time>
      </trkpt>
      <trkpt lat="44.08904" lon="7.09473">
        <ele>916</ele>
        <time>2022-07-26T14:49:01Z</time>
      </trkpt>
      <trkpt lat="44.08904" lon="7.09472">
        <ele>916</ele>
        <time>2022-07-26T14:49:02Z</time>
      </trkpt>
      <trkpt lat="44.08904" lon="7.0947">
        <ele>915</ele>
        <time>2022-07-26T14:49:03Z</time>
      </trkpt>
      <trkpt lat="44.08904" lon="7.09469">
        <ele>915</ele>
        <time>2022-07-26T14:49:04Z</time>
      </trkpt>
      <trkpt lat="44.08904" lon="7.09467">
        <ele>915</ele>
        <time>2022-07-26T14:49:05Z</time>
      </trkpt>
      <trkpt lat="44.08904" lon="7.09466">
        <ele>915</ele>
        <time>2022-07-26T14:49:06Z</time>
      </trkpt>
      <trkpt lat="44.08905" lon="7.09464">
        <ele>915</ele>
        <time>2022-07-26T14:49:07Z</time>
      </trkpt>
      <trkpt lat="44.08905" lon="7.09463">
        <ele>915</ele>
        <time>2022-07-26T14:49:08Z</time>
      </trkpt>
      <trkpt lat="44.08906" lon="7.09461">
        <ele>915</ele>
        <time>2022-07-26T14:49:09Z</time>
      </trkpt>
      <trkpt lat="44.08907" lon="7.0946">
        <ele>915</ele>
        <time>2022-07-26T14:49:10Z</time>
      </trkpt>
      <trkpt lat="44.08908" lon="7.09459">
        <ele>915</ele>
        <time>2022-07-26T14:49:11Z</time>
      </trkpt>
      <trkpt lat="44.08908" lon="7.09457">
        <ele>915</ele>
        <time>2022-07-26T14:49:12Z</time>
      </trkpt>
      <trkpt lat="44.08909" lon="7.09456">
        <ele>914</ele>
        <time>2022-07-26T14:49:13Z</time>
      </trkpt>
      <trkpt lat="44.08909" lon="7.09455">
        <ele>914</ele>
        <time>2022-07-26T14:49:14Z</time>
      </trkpt>
      <trkpt lat="44.0891" lon="7.09453">
        <ele>914</ele>
        <time>2022-07-26T14:49:15Z</time>
      </trkpt>
      <trkpt lat="44.0891" lon="7.09452">
        <ele>914</ele>
        <time>2022-07-26T14:49:16Z</time>
      </trkpt>
      <trkpt lat="44.08911" lon="7.09451">
        <ele>914</ele>
        <time>2022-07-26T14:49:17Z</time>
      </trkpt>
      <trkpt lat="44.08911" lon="7.09449">
        <ele>913</ele>
        <time>2022-07-26T14:49:18Z</time>
      </trkpt>
      <trkpt lat="44.08911" lon="7.09448">
        <ele>913</ele>
        <time>2022-07-26T14:49:19Z</time>
      </trkpt>
      <trkpt lat="44.08912" lon="7.09447">
        <ele>913</ele>
        <time>2022-07-26T14:49:20Z</time>
      </trkpt>
      <trkpt lat="44.08912" lon="7.09445">
        <ele>913</ele>
        <time>2022-07-26T14:49:21Z</time>
      </trkpt>
      <trkpt lat="44.08913" lon="7.09444">
        <ele>913</ele>
        <time>2022-07-26T14:49:22Z</time>
      </trkpt>
      <trkpt lat="44.08913" lon="7.09442">
        <ele>912</ele>
        <time>2022-07-26T14:49:23Z</time>
      </trkpt>
      <trkpt lat="44.08914" lon="7.09441">
        <ele>912</ele>
        <time>2022-07-26T14:49:24Z</time>
      </trkpt>
      <trkpt lat="44.08914" lon="7.09439">
        <ele>912</ele>
        <time>2022-07-26T14:49:25Z</time>
      </trkpt>
      <trkpt lat="44.08915" lon="7.09438">
        <ele>912</ele>
        <time>2022-07-26T14:49:26Z</time>
      </trkpt>
      <trkpt lat="44.08916" lon="7.09436">
        <ele>912</ele>
        <time>2022-07-26T14:49:27Z</time>
      </trkpt>
      <trkpt lat="44.08916" lon="7.09435">
        <ele>912</ele>
        <time>2022-07-26T14:49:28Z</time>
      </trkpt>
      <trkpt lat="44.08917" lon="7.09434">
        <ele>912</ele>
        <time>2022-07-26T14:49:29Z</time>
      </trkpt>
      <trkpt lat="44.08917" lon="7.09432">
        <ele>912</ele>
        <time>2022-07-26T14:49:30Z</time>
      </trkpt>
      <trkpt lat="44.08918" lon="7.09431">
        <ele>912</ele>
        <time>2022-07-26T14:49:31Z</time>
      </trkpt>
      <trkpt lat="44.08918" lon="7.09429">
        <ele>912</ele>
        <time>2022-07-26T14:49:32Z</time>
      </trkpt>
      <trkpt lat="44.08918" lon="7.09428">
        <ele>911</ele>
        <time>2022-07-26T14:49:33Z</time>
      </trkpt>
      <trkpt lat="44.08918" lon="7.09426">
        <ele>911</ele>
        <time>2022-07-26T14:49:34Z</time>
      </trkpt>
      <trkpt lat="44.08918" lon="7.09425">
        <ele>911</ele>
        <time>2022-07-26T14:49:35Z</time>
      </trkpt>
      <trkpt lat="44.08918" lon="7.09424">
        <ele>911</ele>
        <time>2022-07-26T14:49:36Z</time>
      </trkpt>
      <trkpt lat="44.08917" lon="7.09422">
        <ele>911</ele>
        <time>2022-07-26T14:49:37Z</time>
      </trkpt>
      <trkpt lat="44.08917" lon="7.0942">
        <ele>910</ele>
        <time>2022-07-26T14:49:38Z</time>
      </trkpt>
      <trkpt lat="44.08917" lon="7.09419">
        <ele>910</ele>
        <time>2022-07-26T14:49:39Z</time>
      </trkpt>
      <trkpt lat="44.08916" lon="7.09417">
        <ele>910</ele>
        <time>2022-07-26T14:49:40Z</time>
      </trkpt>
      <trkpt lat="44.08916" lon="7.09415">
        <ele>910</ele>
        <time>2022-07-26T14:49:41Z</time>
      </trkpt>
      <trkpt lat="44.08915" lon="7.09413">
        <ele>910</ele>
        <time>2022-07-26T14:49:42Z</time>
      </trkpt>
      <trkpt lat="44.08914" lon="7.09412">
        <ele>910</ele>
        <time>2022-07-26T14:49:43Z</time>
      </trkpt>
      <trkpt lat="44.08914" lon="7.0941">
        <ele>910</ele>
        <time>2022-07-26T14:49:44Z</time>
      </trkpt>
      <trkpt lat="44.08914" lon="7.09408">
        <ele>910</ele>
        <time>2022-07-26T14:49:45Z</time>
      </trkpt>
      <trkpt lat="44.08913" lon="7.09407">
        <ele>910</ele>
        <time>2022-07-26T14:49:46Z</time>
      </trkpt>
      <trkpt lat="44.08913" lon="7.09405">
        <ele>910</ele>
        <time>2022-07-26T14:49:47Z</time>
      </trkpt>
      <trkpt lat="44.08913" lon="7.09403">
        <ele>909</ele>
        <time>2022-07-26T14:49:48Z</time>
      </trkpt>
      <trkpt lat="44.08913" lon="7.09402">
        <ele>909</ele>
        <time>2022-07-26T14:49:49Z</time>
      </trkpt>
      <trkpt lat="44.08912" lon="7.09401">
        <ele>909</ele>
        <time>2022-07-26T14:49:50Z</time>
      </trkpt>
      <trkpt lat="44.08912" lon="7.094">
        <ele>909</ele>
        <time>2022-07-26T14:49:51Z</time>
      </trkpt>
      <trkpt lat="44.08911" lon="7.094">
        <ele>909</ele>
        <time>2022-07-26T14:49:52Z</time>
      </trkpt>
      <trkpt lat="44.0891" lon="7.094">
        <ele>908</ele>
        <time>2022-07-26T14:49:53Z</time>
      </trkpt>
      <trkpt lat="44.0891" lon="7.09401">
        <ele>908</ele>
        <time>2022-07-26T14:49:54Z</time>
      </trkpt>
      <trkpt lat="44.08909" lon="7.09402">
        <ele>908</ele>
        <time>2022-07-26T14:49:55Z</time>
      </trkpt>
      <trkpt lat="44.08909" lon="7.09403">
        <ele>908</ele>
        <time>2022-07-26T14:49:56Z</time>
      </trkpt>
      <trkpt lat="44.08909" lon="7.09404">
        <ele>908</ele>
        <time>2022-07-26T14:49:57Z</time>
      </trkpt>
      <trkpt lat="44.08909" lon="7.09405">
        <ele>908</ele>
        <time>2022-07-26T14:49:58Z</time>
      </trkpt>
      <trkpt lat="44.08909" lon="7.09407">
        <ele>908</ele>
        <time>2022-07-26T14:49:59Z</time>
      </trkpt>
      <trkpt lat="44.08909" lon="7.09408">
        <ele>908</ele>
        <time>2022-07-26T14:50:00Z</time>
      </trkpt>
      <trkpt lat="44.0891" lon="7.09409">
        <ele>908</ele>
        <time>2022-07-26T14:50:01Z</time>
      </trkpt>
      <trkpt lat="44.0891" lon="7.0941">
        <ele>908</ele>
        <time>2022-07-26T14:50:02Z</time>
      </trkpt>
      <trkpt lat="44.0891" lon="7.09411">
        <ele>907</ele>
        <time>2022-07-26T14:50:03Z</time>
      </trkpt>
      <trkpt lat="44.0891" lon="7.09412">
        <ele>907</ele>
        <time>2022-07-26T14:50:04Z</time>
      </trkpt>
      <trkpt lat="44.0891" lon="7.09412">
        <ele>904</ele>
        <time>2022-07-26T14:50:53Z</time>
      </trkpt>
      <trkpt lat="44.0891" lon="7.09412">
        <ele>904</ele>
        <time>2022-07-26T14:50:54Z</time>
      </trkpt>
      <trkpt lat="44.08911" lon="7.09413">
        <ele>904</ele>
        <time>2022-07-26T14:50:55Z</time>
      </trkpt>
      <trkpt lat="44.08911" lon="7.09413">
        <ele>904</ele>
        <time>2022-07-26T14:50:56Z</time>
      </trkpt>
      <trkpt lat="44.08911" lon="7.09414">
        <ele>904</ele>
        <time>2022-07-26T14:50:57Z</time>
      </trkpt>
      <trkpt lat="44.08911" lon="7.09415">
        <ele>904</ele>
        <time>2022-07-26T14:50:58Z</time>
      </trkpt>
      <trkpt lat="44.08911" lon="7.09416">
        <ele>904</ele>
        <time>2022-07-26T14:50:59Z</time>
      </trkpt>
      <trkpt lat="44.08911" lon="7.09417">
        <ele>904</ele>
        <time>2022-07-26T14:51:00Z</time>
      </trkpt>
      <trkpt lat="44.0891" lon="7.09418">
        <ele>904</ele>
        <time>2022-07-26T14:51:01Z</time>
      </trkpt>
      <trkpt lat="44.0891" lon="7.09419">
        <ele>904</ele>
        <time>2022-07-26T14:51:02Z</time>
      </trkpt>
      <trkpt lat="44.0891" lon="7.0942">
        <ele>903</ele>
        <time>2022-07-26T14:51:03Z</time>
      </trkpt>
      <trkpt lat="44.08909" lon="7.09421">
        <ele>903</ele>
        <time>2022-07-26T14:51:04Z</time>
      </trkpt>
      <trkpt lat="44.08909" lon="7.09423">
        <ele>903</ele>
        <time>2022-07-26T14:51:05Z</time>
      </trkpt>
      <trkpt lat="44.08908" lon="7.09424">
        <ele>903</ele>
        <time>2022-07-26T14:51:06Z</time>
      </trkpt>
      <trkpt lat="44.08908" lon="7.09425">
        <ele>903</ele>
        <time>2022-07-26T14:51:07Z</time>
      </trkpt>
      <trkpt lat="44.08907" lon="7.09426">
        <ele>903</ele>
        <time>2022-07-26T14:51:08Z</time>
      </trkpt>
      <trkpt lat="44.08907" lon="7.09427">
        <ele>903</ele>
        <time>2022-07-26T14:51:09Z</time>
      </trkpt>
      <trkpt lat="44.08906" lon="7.09429">
        <ele>903</ele>
        <time>2022-07-26T14:51:10Z</time>
      </trkpt>
      <trkpt lat="44.08906" lon="7.0943">
        <ele>903</ele>
        <time>2022-07-26T14:51:11Z</time>
      </trkpt>
      <trkpt lat="44.08905" lon="7.09431">
        <ele>903</ele>
        <time>2022-07-26T14:51:12Z</time>
      </trkpt>
      <trkpt lat="44.08905" lon="7.09433">
        <ele>903</ele>
        <time>2022-07-26T14:51:13Z</time>
      </trkpt>
      <trkpt lat="44.08904" lon="7.09434">
        <ele>903</ele>
        <time>2022-07-26T14:51:14Z</time>
      </trkpt>
      <trkpt lat="44.08904" lon="7.09436">
        <ele>903</ele>
        <time>2022-07-26T14:51:15Z</time>
      </trkpt>
      <trkpt lat="44.08903" lon="7.09438">
        <ele>903</ele>
        <time>2022-07-26T14:51:16Z</time>
      </trkpt>
      <trkpt lat="44.08903" lon="7.09439">
        <ele>903</ele>
        <time>2022-07-26T14:51:17Z</time>
      </trkpt>
      <trkpt lat="44.08902" lon="7.0944">
        <ele>902</ele>
        <time>2022-07-26T14:51:18Z</time>
      </trkpt>
      <trkpt lat="44.08902" lon="7.09442">
        <ele>902</ele>
        <time>2022-07-26T14:51:19Z</time>
      </trkpt>
      <trkpt lat="44.08901" lon="7.09443">
        <ele>902</ele>
        <time>2022-07-26T14:51:20Z</time>
      </trkpt>
      <trkpt lat="44.089" lon="7.09444">
        <ele>902</ele>
        <time>2022-07-26T14:51:21Z</time>
      </trkpt>
      <trkpt lat="44.089" lon="7.09445">
        <ele>902</ele>
        <time>2022-07-26T14:51:22Z</time>
      </trkpt>
      <trkpt lat="44.08899" lon="7.09446">
        <ele>902</ele>
        <time>2022-07-26T14:51:23Z</time>
      </trkpt>
      <trkpt lat="44.08898" lon="7.09447">
        <ele>902</ele>
        <time>2022-07-26T14:51:24Z</time>
      </trkpt>
      <trkpt lat="44.08898" lon="7.09448">
        <ele>902</ele>
        <time>2022-07-26T14:51:25Z</time>
      </trkpt>
      <trkpt lat="44.08897" lon="7.09449">
        <ele>902</ele>
        <time>2022-07-26T14:51:26Z</time>
      </trkpt>
      <trkpt lat="44.08896" lon="7.0945">
        <ele>902</ele>
        <time>2022-07-26T14:51:27Z</time>
      </trkpt>
      <trkpt lat="44.08896" lon="7.09451">
        <ele>901</ele>
        <time>2022-07-26T14:51:28Z</time>
      </trkpt>
      <trkpt lat="44.08895" lon="7.09452">
        <ele>901</ele>
        <time>2022-07-26T14:51:29Z</time>
      </trkpt>
      <trkpt lat="44.08894" lon="7.09454">
        <ele>901</ele>
        <time>2022-07-26T14:51:30Z</time>
      </trkpt>
      <trkpt lat="44.08893" lon="7.09455">
        <ele>901</ele>
        <time>2022-07-26T14:51:31Z</time>
      </trkpt>
      <trkpt lat="44.08892" lon="7.09456">
        <ele>901</ele>
        <time>2022-07-26T14:51:32Z</time>
      </trkpt>
      <trkpt lat="44.08891" lon="7.09457">
        <ele>901</ele>
        <time>2022-07-26T14:51:33Z</time>
      </trkpt>
      <trkpt lat="44.08891" lon="7.09458">
        <ele>901</ele>
        <time>2022-07-26T14:51:34Z</time>
      </trkpt>
      <trkpt lat="44.0889" lon="7.09459">
        <ele>901</ele>
        <time>2022-07-26T14:51:35Z</time>
      </trkpt>
      <trkpt lat="44.08889" lon="7.09459">
        <ele>901</ele>
        <time>2022-07-26T14:51:36Z</time>
      </trkpt>
      <trkpt lat="44.08889" lon="7.0946">
        <ele>901</ele>
        <time>2022-07-26T14:51:37Z</time>
      </trkpt>
      <trkpt lat="44.08888" lon="7.09461">
        <ele>900</ele>
        <time>2022-07-26T14:51:38Z</time>
      </trkpt>
      <trkpt lat="44.08888" lon="7.09462">
        <ele>900</ele>
        <time>2022-07-26T14:51:39Z</time>
      </trkpt>
      <trkpt lat="44.08887" lon="7.09463">
        <ele>900</ele>
        <time>2022-07-26T14:51:40Z</time>
      </trkpt>
      <trkpt lat="44.08887" lon="7.09464">
        <ele>900</ele>
        <time>2022-07-26T14:51:41Z</time>
      </trkpt>
      <trkpt lat="44.08886" lon="7.09464">
        <ele>900</ele>
        <time>2022-07-26T14:51:42Z</time>
      </trkpt>
      <trkpt lat="44.08885" lon="7.09465">
        <ele>899</ele>
        <time>2022-07-26T14:51:43Z</time>
      </trkpt>
      <trkpt lat="44.08884" lon="7.09467">
        <ele>899</ele>
        <time>2022-07-26T14:51:44Z</time>
      </trkpt>
      <trkpt lat="44.08884" lon="7.09468">
        <ele>899</ele>
        <time>2022-07-26T14:51:45Z</time>
      </trkpt>
      <trkpt lat="44.08883" lon="7.09469">
        <ele>899</ele>
        <time>2022-07-26T14:51:46Z</time>
      </trkpt>
      <trkpt lat="44.08882" lon="7.0947">
        <ele>899</ele>
        <time>2022-07-26T14:51:47Z</time>
      </trkpt>
      <trkpt lat="44.08882" lon="7.09471">
        <ele>898</ele>
        <time>2022-07-26T14:51:48Z</time>
      </trkpt>
      <trkpt lat="44.08882" lon="7.09473">
        <ele>898</ele>
        <time>2022-07-26T14:51:49Z</time>
      </trkpt>
      <trkpt lat="44.08881" lon="7.09474">
        <ele>898</ele>
        <time>2022-07-26T14:51:50Z</time>
      </trkpt>
      <trkpt lat="44.08881" lon="7.09475">
        <ele>898</ele>
        <time>2022-07-26T14:51:51Z</time>
      </trkpt>
      <trkpt lat="44.0888" lon="7.09477">
        <ele>898</ele>
        <time>2022-07-26T14:51:52Z</time>
      </trkpt>
      <trkpt lat="44.0888" lon="7.09478">
        <ele>898</ele>
        <time>2022-07-26T14:51:53Z</time>
      </trkpt>
      <trkpt lat="44.0888" lon="7.09479">
        <ele>898</ele>
        <time>2022-07-26T14:51:54Z</time>
      </trkpt>
      <trkpt lat="44.08879" lon="7.09481">
        <ele>898</ele>
        <time>2022-07-26T14:51:55Z</time>
      </trkpt>
      <trkpt lat="44.08878" lon="7.09482">
        <ele>898</ele>
        <time>2022-07-26T14:51:56Z</time>
      </trkpt>
      <trkpt lat="44.08878" lon="7.09483">
        <ele>898</ele>
        <time>2022-07-26T14:51:57Z</time>
      </trkpt>
      <trkpt lat="44.08877" lon="7.09484">
        <ele>897</ele>
        <time>2022-07-26T14:51:58Z</time>
      </trkpt>
      <trkpt lat="44.08876" lon="7.09485">
        <ele>897</ele>
        <time>2022-07-26T14:51:59Z</time>
      </trkpt>
      <trkpt lat="44.08875" lon="7.09486">
        <ele>897</ele>
        <time>2022-07-26T14:52:00Z</time>
      </trkpt>
      <trkpt lat="44.08874" lon="7.09487">
        <ele>897</ele>
        <time>2022-07-26T14:52:01Z</time>
      </trkpt>
      <trkpt lat="44.08873" lon="7.09488">
        <ele>897</ele>
        <time>2022-07-26T14:52:02Z</time>
      </trkpt>
      <trkpt lat="44.08872" lon="7.09489">
        <ele>897</ele>
        <time>2022-07-26T14:52:03Z</time>
      </trkpt>
      <trkpt lat="44.08871" lon="7.0949">
        <ele>897</ele>
        <time>2022-07-26T14:52:04Z</time>
      </trkpt>
      <trkpt lat="44.08871" lon="7.09491">
        <ele>897</ele>
        <time>2022-07-26T14:52:05Z</time>
      </trkpt>
      <trkpt lat="44.0887" lon="7.09492">
        <ele>897</ele>
        <time>2022-07-26T14:52:06Z</time>
      </trkpt>
      <trkpt lat="44.08869" lon="7.09493">
        <ele>897</ele>
        <time>2022-07-26T14:52:07Z</time>
      </trkpt>
      <trkpt lat="44.08868" lon="7.09493">
        <ele>896</ele>
        <time>2022-07-26T14:52:08Z</time>
      </trkpt>
      <trkpt lat="44.08867" lon="7.09494">
        <ele>896</ele>
        <time>2022-07-26T14:52:09Z</time>
      </trkpt>
      <trkpt lat="44.08866" lon="7.09494">
        <ele>896</ele>
        <time>2022-07-26T14:52:10Z</time>
      </trkpt>
      <trkpt lat="44.08865" lon="7.09494">
        <ele>896</ele>
        <time>2022-07-26T14:52:11Z</time>
      </trkpt>
      <trkpt lat="44.08864" lon="7.09495">
        <ele>896</ele>
        <time>2022-07-26T14:52:12Z</time>
      </trkpt>
      <trkpt lat="44.08863" lon="7.09496">
        <ele>895</ele>
        <time>2022-07-26T14:52:13Z</time>
      </trkpt>
      <trkpt lat="44.08863" lon="7.09497">
        <ele>895</ele>
        <time>2022-07-26T14:52:14Z</time>
      </trkpt>
      <trkpt lat="44.08862" lon="7.09497">
        <ele>895</ele>
        <time>2022-07-26T14:52:15Z</time>
      </trkpt>
      <trkpt lat="44.08861" lon="7.09499">
        <ele>895</ele>
        <time>2022-07-26T14:52:16Z</time>
      </trkpt>
      <trkpt lat="44.0886" lon="7.095">
        <ele>895</ele>
        <time>2022-07-26T14:52:17Z</time>
      </trkpt>
      <trkpt lat="44.0886" lon="7.09501">
        <ele>895</ele>
        <time>2022-07-26T14:52:18Z</time>
      </trkpt>
      <trkpt lat="44.08859" lon="7.09502">
        <ele>895</ele>
        <time>2022-07-26T14:52:19Z</time>
      </trkpt>
      <trkpt lat="44.08859" lon="7.09504">
        <ele>895</ele>
        <time>2022-07-26T14:52:20Z</time>
      </trkpt>
      <trkpt lat="44.08859" lon="7.09505">
        <ele>895</ele>
        <time>2022-07-26T14:52:21Z</time>
      </trkpt>
      <trkpt lat="44.08858" lon="7.09507">
        <ele>895</ele>
        <time>2022-07-26T14:52:22Z</time>
      </trkpt>
      <trkpt lat="44.08858" lon="7.09508">
        <ele>894</ele>
        <time>2022-07-26T14:52:23Z</time>
      </trkpt>
      <trkpt lat="44.08858" lon="7.0951">
        <ele>894</ele>
        <time>2022-07-26T14:52:24Z</time>
      </trkpt>
      <trkpt lat="44.08857" lon="7.09511">
        <ele>894</ele>
        <time>2022-07-26T14:52:25Z</time>
      </trkpt>
      <trkpt lat="44.08857" lon="7.09513">
        <ele>894</ele>
        <time>2022-07-26T14:52:26Z</time>
      </trkpt>
      <trkpt lat="44.08857" lon="7.09515">
        <ele>894</ele>
        <time>2022-07-26T14:52:27Z</time>
      </trkpt>
      <trkpt lat="44.08857" lon="7.09516">
        <ele>894</ele>
        <time>2022-07-26T14:52:28Z</time>
      </trkpt>
      <trkpt lat="44.08857" lon="7.09518">
        <ele>894</ele>
        <time>2022-07-26T14:52:29Z</time>
      </trkpt>
      <trkpt lat="44.08857" lon="7.09519">
        <ele>894</ele>
        <time>2022-07-26T14:52:30Z</time>
      </trkpt>
      <trkpt lat="44.08856" lon="7.09521">
        <ele>894</ele>
        <time>2022-07-26T14:52:31Z</time>
      </trkpt>
      <trkpt lat="44.08856" lon="7.09522">
        <ele>894</ele>
        <time>2022-07-26T14:52:32Z</time>
      </trkpt>
      <trkpt lat="44.08856" lon="7.09524">
        <ele>893</ele>
        <time>2022-07-26T14:52:33Z</time>
      </trkpt>
      <trkpt lat="44.08855" lon="7.09525">
        <ele>893</ele>
        <time>2022-07-26T14:52:34Z</time>
      </trkpt>
      <trkpt lat="44.08855" lon="7.09527">
        <ele>893</ele>
        <time>2022-07-26T14:52:35Z</time>
      </trkpt>
      <trkpt lat="44.08854" lon="7.09528">
        <ele>893</ele>
        <time>2022-07-26T14:52:36Z</time>
      </trkpt>
      <trkpt lat="44.08854" lon="7.09529">
        <ele>893</ele>
        <time>2022-07-26T14:52:37Z</time>
      </trkpt>
      <trkpt lat="44.08853" lon="7.09531">
        <ele>892</ele>
        <time>2022-07-26T14:52:38Z</time>
      </trkpt>
      <trkpt lat="44.08853" lon="7.09532">
        <ele>892</ele>
        <time>2022-07-26T14:52:39Z</time>
      </trkpt>
      <trkpt lat="44.08852" lon="7.09533">
        <ele>892</ele>
        <time>2022-07-26T14:52:40Z</time>
      </trkpt>
      <trkpt lat="44.08851" lon="7.09535">
        <ele>892</ele>
        <time>2022-07-26T14:52:41Z</time>
      </trkpt>
      <trkpt lat="44.08851" lon="7.09536">
        <ele>892</ele>
        <time>2022-07-26T14:52:42Z</time>
      </trkpt>
      <trkpt lat="44.0885" lon="7.09537">
        <ele>892</ele>
        <time>2022-07-26T14:52:43Z</time>
      </trkpt>
      <trkpt lat="44.08849" lon="7.09539">
        <ele>892</ele>
        <time>2022-07-26T14:52:44Z</time>
      </trkpt>
      <trkpt lat="44.08849" lon="7.0954">
        <ele>892</ele>
        <time>2022-07-26T14:52:45Z</time>
      </trkpt>
      <trkpt lat="44.08848" lon="7.09541">
        <ele>892</ele>
        <time>2022-07-26T14:52:46Z</time>
      </trkpt>
      <trkpt lat="44.08847" lon="7.09543">
        <ele>892</ele>
        <time>2022-07-26T14:52:47Z</time>
      </trkpt>
      <trkpt lat="44.08846" lon="7.09544">
        <ele>891</ele>
        <time>2022-07-26T14:52:48Z</time>
      </trkpt>
      <trkpt lat="44.08845" lon="7.09545">
        <ele>891</ele>
        <time>2022-07-26T14:52:49Z</time>
      </trkpt>
      <trkpt lat="44.08844" lon="7.09547">
        <ele>891</ele>
        <time>2022-07-26T14:52:50Z</time>
      </trkpt>
      <trkpt lat="44.08843" lon="7.09548">
        <ele>891</ele>
        <time>2022-07-26T14:52:51Z</time>
      </trkpt>
      <trkpt lat="44.08842" lon="7.09549">
        <ele>891</ele>
        <time>2022-07-26T14:52:52Z</time>
      </trkpt>
      <trkpt lat="44.08841" lon="7.0955">
        <ele>890</ele>
        <time>2022-07-26T14:52:53Z</time>
      </trkpt>
      <trkpt lat="44.0884" lon="7.09551">
        <ele>890</ele>
        <time>2022-07-26T14:52:54Z</time>
      </trkpt>
      <trkpt lat="44.08839" lon="7.09553">
        <ele>890</ele>
        <time>2022-07-26T14:52:55Z</time>
      </trkpt>
      <trkpt lat="44.08838" lon="7.09554">
        <ele>890</ele>
        <time>2022-07-26T14:52:56Z</time>
      </trkpt>
      <trkpt lat="44.08837" lon="7.09555">
        <ele>890</ele>
        <time>2022-07-26T14:52:57Z</time>
      </trkpt>
      <trkpt lat="44.08837" lon="7.09556">
        <ele>889</ele>
        <time>2022-07-26T14:52:58Z</time>
      </trkpt>
      <trkpt lat="44.08836" lon="7.09557">
        <ele>889</ele>
        <time>2022-07-26T14:52:59Z</time>
      </trkpt>
      <trkpt lat="44.08835" lon="7.09558">
        <ele>889</ele>
        <time>2022-07-26T14:53:00Z</time>
      </trkpt>
      <trkpt lat="44.08834" lon="7.09559">
        <ele>889</ele>
        <time>2022-07-26T14:53:01Z</time>
      </trkpt>
      <trkpt lat="44.08834" lon="7.0956">
        <ele>889</ele>
        <time>2022-07-26T14:53:02Z</time>
      </trkpt>
      <trkpt lat="44.08833" lon="7.09562">
        <ele>888</ele>
        <time>2022-07-26T14:53:03Z</time>
      </trkpt>
      <trkpt lat="44.08833" lon="7.09563">
        <ele>887</ele>
        <time>2022-07-26T14:53:04Z</time>
      </trkpt>
      <trkpt lat="44.08832" lon="7.09564">
        <ele>887</ele>
        <time>2022-07-26T14:53:05Z</time>
      </trkpt>
      <trkpt lat="44.08832" lon="7.09566">
        <ele>886</ele>
        <time>2022-07-26T14:53:06Z</time>
      </trkpt>
      <trkpt lat="44.08831" lon="7.09567">
        <ele>886</ele>
        <time>2022-07-26T14:53:07Z</time>
      </trkpt>
      <trkpt lat="44.08831" lon="7.09569">
        <ele>885</ele>
        <time>2022-07-26T14:53:08Z</time>
      </trkpt>
      <trkpt lat="44.08831" lon="7.09571">
        <ele>885</ele>
        <time>2022-07-26T14:53:09Z</time>
      </trkpt>
      <trkpt lat="44.08831" lon="7.09572">
        <ele>885</ele>
        <time>2022-07-26T14:53:10Z</time>
      </trkpt>
      <trkpt lat="44.08831" lon="7.09574">
        <ele>885</ele>
        <time>2022-07-26T14:53:11Z</time>
      </trkpt>
      <trkpt lat="44.08831" lon="7.09576">
        <ele>885</ele>
        <time>2022-07-26T14:53:12Z</time>
      </trkpt>
      <trkpt lat="44.08831" lon="7.09578">
        <ele>884</ele>
        <time>2022-07-26T14:53:13Z</time>
      </trkpt>
      <trkpt lat="44.08831" lon="7.0958">
        <ele>884</ele>
        <time>2022-07-26T14:53:14Z</time>
      </trkpt>
      <trkpt lat="44.08831" lon="7.09582">
        <ele>884</ele>
        <time>2022-07-26T14:53:15Z</time>
      </trkpt>
      <trkpt lat="44.08831" lon="7.09583">
        <ele>884</ele>
        <time>2022-07-26T14:53:16Z</time>
      </trkpt>
      <trkpt lat="44.08832" lon="7.09585">
        <ele>884</ele>
        <time>2022-07-26T14:53:17Z</time>
      </trkpt>
      <trkpt lat="44.08832" lon="7.09586">
        <ele>883</ele>
        <time>2022-07-26T14:53:18Z</time>
      </trkpt>
      <trkpt lat="44.08832" lon="7.09588">
        <ele>883</ele>
        <time>2022-07-26T14:53:19Z</time>
      </trkpt>
      <trkpt lat="44.08833" lon="7.0959">
        <ele>883</ele>
        <time>2022-07-26T14:53:20Z</time>
      </trkpt>
      <trkpt lat="44.08833" lon="7.09591">
        <ele>883</ele>
        <time>2022-07-26T14:53:21Z</time>
      </trkpt>
      <trkpt lat="44.08833" lon="7.09593">
        <ele>883</ele>
        <time>2022-07-26T14:53:22Z</time>
      </trkpt>
      <trkpt lat="44.08834" lon="7.09594">
        <ele>882</ele>
        <time>2022-07-26T14:53:23Z</time>
      </trkpt>
      <trkpt lat="44.08834" lon="7.09596">
        <ele>882</ele>
        <time>2022-07-26T14:53:24Z</time>
      </trkpt>
      <trkpt lat="44.08834" lon="7.09597">
        <ele>882</ele>
        <time>2022-07-26T14:53:25Z</time>
      </trkpt>
      <trkpt lat="44.08835" lon="7.09599">
        <ele>882</ele>
        <time>2022-07-26T14:53:26Z</time>
      </trkpt>
      <trkpt lat="44.08836" lon="7.096">
        <ele>882</ele>
        <time>2022-07-26T14:53:27Z</time>
      </trkpt>
      <trkpt lat="44.08836" lon="7.09601">
        <ele>882</ele>
        <time>2022-07-26T14:53:28Z</time>
      </trkpt>
      <trkpt lat="44.08837" lon="7.09603">
        <ele>882</ele>
        <time>2022-07-26T14:53:29Z</time>
      </trkpt>
      <trkpt lat="44.08838" lon="7.09604">
        <ele>882</ele>
        <time>2022-07-26T14:53:30Z</time>
      </trkpt>
      <trkpt lat="44.08838" lon="7.09605">
        <ele>882</ele>
        <time>2022-07-26T14:53:31Z</time>
      </trkpt>
      <trkpt lat="44.08839" lon="7.09606">
        <ele>882</ele>
        <time>2022-07-26T14:53:32Z</time>
      </trkpt>
      <trkpt lat="44.0884" lon="7.09607">
        <ele>881</ele>
        <time>2022-07-26T14:53:33Z</time>
      </trkpt>
      <trkpt lat="44.0884" lon="7.09608">
        <ele>881</ele>
        <time>2022-07-26T14:53:34Z</time>
      </trkpt>
      <trkpt lat="44.08841" lon="7.09609">
        <ele>881</ele>
        <time>2022-07-26T14:53:35Z</time>
      </trkpt>
      <trkpt lat="44.08842" lon="7.09609">
        <ele>881</ele>
        <time>2022-07-26T14:53:36Z</time>
      </trkpt>
      <trkpt lat="44.08843" lon="7.0961">
        <ele>881</ele>
        <time>2022-07-26T14:53:37Z</time>
      </trkpt>
      <trkpt lat="44.08844" lon="7.09611">
        <ele>881</ele>
        <time>2022-07-26T14:53:38Z</time>
      </trkpt>
      <trkpt lat="44.08845" lon="7.09613">
        <ele>881</ele>
        <time>2022-07-26T14:53:39Z</time>
      </trkpt>
      <trkpt lat="44.08845" lon="7.09614">
        <ele>881</ele>
        <time>2022-07-26T14:53:40Z</time>
      </trkpt>
      <trkpt lat="44.08846" lon="7.09615">
        <ele>881</ele>
        <time>2022-07-26T14:53:41Z</time>
      </trkpt>
      <trkpt lat="44.08847" lon="7.09616">
        <ele>881</ele>
        <time>2022-07-26T14:53:42Z</time>
      </trkpt>
      <trkpt lat="44.08848" lon="7.09617">
        <ele>880</ele>
        <time>2022-07-26T14:53:43Z</time>
      </trkpt>
      <trkpt lat="44.08849" lon="7.09618">
        <ele>880</ele>
        <time>2022-07-26T14:53:44Z</time>
      </trkpt>
      <trkpt lat="44.08849" lon="7.09619">
        <ele>880</ele>
        <time>2022-07-26T14:53:45Z</time>
      </trkpt>
      <trkpt lat="44.0885" lon="7.0962">
        <ele>880</ele>
        <time>2022-07-26T14:53:46Z</time>
      </trkpt>
      <trkpt lat="44.08851" lon="7.09621">
        <ele>880</ele>
        <time>2022-07-26T14:53:47Z</time>
      </trkpt>
      <trkpt lat="44.08852" lon="7.09622">
        <ele>879</ele>
        <time>2022-07-26T14:53:48Z</time>
      </trkpt>
      <trkpt lat="44.08852" lon="7.09623">
        <ele>879</ele>
        <time>2022-07-26T14:53:49Z</time>
      </trkpt>
      <trkpt lat="44.08853" lon="7.09624">
        <ele>879</ele>
        <time>2022-07-26T14:53:50Z</time>
      </trkpt>
      <trkpt lat="44.08854" lon="7.09625">
        <ele>879</ele>
        <time>2022-07-26T14:53:51Z</time>
      </trkpt>
      <trkpt lat="44.08854" lon="7.09626">
        <ele>879</ele>
        <time>2022-07-26T14:53:52Z</time>
      </trkpt>
      <trkpt lat="44.08855" lon="7.09627">
        <ele>878</ele>
        <time>2022-07-26T14:53:53Z</time>
      </trkpt>
      <trkpt lat="44.08855" lon="7.09628">
        <ele>878</ele>
        <time>2022-07-26T14:53:54Z</time>
      </trkpt>
      <trkpt lat="44.08856" lon="7.0963">
        <ele>878</ele>
        <time>2022-07-26T14:53:55Z</time>
      </trkpt>
      <trkpt lat="44.08856" lon="7.09631">
        <ele>878</ele>
        <time>2022-07-26T14:53:56Z</time>
      </trkpt>
      <trkpt lat="44.08857" lon="7.09632">
        <ele>878</ele>
        <time>2022-07-26T14:53:57Z</time>
      </trkpt>
      <trkpt lat="44.08857" lon="7.09634">
        <ele>878</ele>
        <time>2022-07-26T14:53:58Z</time>
      </trkpt>
      <trkpt lat="44.08858" lon="7.09635">
        <ele>878</ele>
        <time>2022-07-26T14:53:59Z</time>
      </trkpt>
      <trkpt lat="44.08858" lon="7.09636">
        <ele>878</ele>
        <time>2022-07-26T14:54:00Z</time>
      </trkpt>
      <trkpt lat="44.08859" lon="7.09638">
        <ele>878</ele>
        <time>2022-07-26T14:54:01Z</time>
      </trkpt>
      <trkpt lat="44.08859" lon="7.09639">
        <ele>878</ele>
        <time>2022-07-26T14:54:02Z</time>
      </trkpt>
      <trkpt lat="44.0886" lon="7.0964">
        <ele>877</ele>
        <time>2022-07-26T14:54:03Z</time>
      </trkpt>
      <trkpt lat="44.0886" lon="7.09642">
        <ele>877</ele>
        <time>2022-07-26T14:54:04Z</time>
      </trkpt>
      <trkpt lat="44.08861" lon="7.09643">
        <ele>877</ele>
        <time>2022-07-26T14:54:05Z</time>
      </trkpt>
      <trkpt lat="44.08862" lon="7.09644">
        <ele>877</ele>
        <time>2022-07-26T14:54:06Z</time>
      </trkpt>
      <trkpt lat="44.08862" lon="7.09646">
        <ele>877</ele>
        <time>2022-07-26T14:54:07Z</time>
      </trkpt>
      <trkpt lat="44.08863" lon="7.09646">
        <ele>877</ele>
        <time>2022-07-26T14:54:08Z</time>
      </trkpt>
      <trkpt lat="44.08864" lon="7.09647">
        <ele>877</ele>
        <time>2022-07-26T14:54:09Z</time>
      </trkpt>
      <trkpt lat="44.08865" lon="7.09648">
        <ele>877</ele>
        <time>2022-07-26T14:54:10Z</time>
      </trkpt>
      <trkpt lat="44.08866" lon="7.0965">
        <ele>877</ele>
        <time>2022-07-26T14:54:11Z</time>
      </trkpt>
      <trkpt lat="44.08866" lon="7.09651">
        <ele>877</ele>
        <time>2022-07-26T14:54:12Z</time>
      </trkpt>
      <trkpt lat="44.08867" lon="7.09652">
        <ele>876</ele>
        <time>2022-07-26T14:54:13Z</time>
      </trkpt>
      <trkpt lat="44.08868" lon="7.09654">
        <ele>876</ele>
        <time>2022-07-26T14:54:14Z</time>
      </trkpt>
      <trkpt lat="44.08868" lon="7.09655">
        <ele>876</ele>
        <time>2022-07-26T14:54:15Z</time>
      </trkpt>
      <trkpt lat="44.08869" lon="7.09656">
        <ele>876</ele>
        <time>2022-07-26T14:54:16Z</time>
      </trkpt>
      <trkpt lat="44.0887" lon="7.09658">
        <ele>876</ele>
        <time>2022-07-26T14:54:17Z</time>
      </trkpt>
      <trkpt lat="44.0887" lon="7.09659">
        <ele>875</ele>
        <time>2022-07-26T14:54:18Z</time>
      </trkpt>
      <trkpt lat="44.08871" lon="7.0966">
        <ele>875</ele>
        <time>2022-07-26T14:54:19Z</time>
      </trkpt>
      <trkpt lat="44.08871" lon="7.09661">
        <ele>875</ele>
        <time>2022-07-26T14:54:20Z</time>
      </trkpt>
      <trkpt lat="44.08872" lon="7.09663">
        <ele>875</ele>
        <time>2022-07-26T14:54:21Z</time>
      </trkpt>
      <trkpt lat="44.08872" lon="7.09664">
        <ele>875</ele>
        <time>2022-07-26T14:54:22Z</time>
      </trkpt>
      <trkpt lat="44.08873" lon="7.09666">
        <ele>874</ele>
        <time>2022-07-26T14:54:23Z</time>
      </trkpt>
      <trkpt lat="44.08873" lon="7.09667">
        <ele>874</ele>
        <time>2022-07-26T14:54:24Z</time>
      </trkpt>
      <trkpt lat="44.08873" lon="7.09669">
        <ele>874</ele>
        <time>2022-07-26T14:54:25Z</time>
      </trkpt>
      <trkpt lat="44.08874" lon="7.0967">
        <ele>874</ele>
        <time>2022-07-26T14:54:26Z</time>
      </trkpt>
      <trkpt lat="44.08874" lon="7.09672">
        <ele>874</ele>
        <time>2022-07-26T14:54:27Z</time>
      </trkpt>
      <trkpt lat="44.08874" lon="7.09673">
        <ele>873</ele>
        <time>2022-07-26T14:54:28Z</time>
      </trkpt>
      <trkpt lat="44.08874" lon="7.09674">
        <ele>873</ele>
        <time>2022-07-26T14:54:29Z</time>
      </trkpt>
      <trkpt lat="44.08874" lon="7.09676">
        <ele>873</ele>
        <time>2022-07-26T14:54:30Z</time>
      </trkpt>
      <trkpt lat="44.08874" lon="7.09676">
        <ele>873</ele>
        <time>2022-07-26T14:54:31Z</time>
      </trkpt>
      <trkpt lat="44.08873" lon="7.09676">
        <ele>873</ele>
        <time>2022-07-26T14:54:32Z</time>
      </trkpt>
      <trkpt lat="44.08873" lon="7.09677">
        <ele>873</ele>
        <time>2022-07-26T14:54:33Z</time>
      </trkpt>
      <trkpt lat="44.08873" lon="7.09676">
        <ele>873</ele>
        <time>2022-07-26T14:54:34Z</time>
      </trkpt>
      <trkpt lat="44.08872" lon="7.09675">
        <ele>873</ele>
        <time>2022-07-26T14:54:35Z</time>
      </trkpt>
      <trkpt lat="44.08872" lon="7.09674">
        <ele>873</ele>
        <time>2022-07-26T14:54:36Z</time>
      </trkpt>
      <trkpt lat="44.08871" lon="7.09673">
        <ele>873</ele>
        <time>2022-07-26T14:54:37Z</time>
      </trkpt>
      <trkpt lat="44.08871" lon="7.09671">
        <ele>872</ele>
        <time>2022-07-26T14:54:38Z</time>
      </trkpt>
      <trkpt lat="44.08871" lon="7.0967">
        <ele>872</ele>
        <time>2022-07-26T14:54:39Z</time>
      </trkpt>
      <trkpt lat="44.0887" lon="7.09668">
        <ele>872</ele>
        <time>2022-07-26T14:54:40Z</time>
      </trkpt>
      <trkpt lat="44.0887" lon="7.09667">
        <ele>872</ele>
        <time>2022-07-26T14:54:41Z</time>
      </trkpt>
      <trkpt lat="44.08869" lon="7.09666">
        <ele>872</ele>
        <time>2022-07-26T14:54:42Z</time>
      </trkpt>
      <trkpt lat="44.08869" lon="7.09664">
        <ele>871</ele>
        <time>2022-07-26T14:54:43Z</time>
      </trkpt>
      <trkpt lat="44.08868" lon="7.09663">
        <ele>871</ele>
        <time>2022-07-26T14:54:44Z</time>
      </trkpt>
      <trkpt lat="44.08867" lon="7.09662">
        <ele>871</ele>
        <time>2022-07-26T14:54:45Z</time>
      </trkpt>
      <trkpt lat="44.08866" lon="7.09661">
        <ele>871</ele>
        <time>2022-07-26T14:54:46Z</time>
      </trkpt>
      <trkpt lat="44.08865" lon="7.0966">
        <ele>871</ele>
        <time>2022-07-26T14:54:47Z</time>
      </trkpt>
      <trkpt lat="44.08864" lon="7.09659">
        <ele>870</ele>
        <time>2022-07-26T14:54:48Z</time>
      </trkpt>
      <trkpt lat="44.08863" lon="7.09658">
        <ele>870</ele>
        <time>2022-07-26T14:54:49Z</time>
      </trkpt>
      <trkpt lat="44.08862" lon="7.09657">
        <ele>869</ele>
        <time>2022-07-26T14:54:50Z</time>
      </trkpt>
      <trkpt lat="44.08861" lon="7.09656">
        <ele>869</ele>
        <time>2022-07-26T14:54:51Z</time>
      </trkpt>
      <trkpt lat="44.0886" lon="7.09656">
        <ele>869</ele>
        <time>2022-07-26T14:54:52Z</time>
      </trkpt>
      <trkpt lat="44.08859" lon="7.09655">
        <ele>869</ele>
        <time>2022-07-26T14:54:53Z</time>
      </trkpt>
      <trkpt lat="44.08858" lon="7.09655">
        <ele>869</ele>
        <time>2022-07-26T14:54:54Z</time>
      </trkpt>
      <trkpt lat="44.08857" lon="7.09654">
        <ele>869</ele>
        <time>2022-07-26T14:54:55Z</time>
      </trkpt>
      <trkpt lat="44.08856" lon="7.09654">
        <ele>869</ele>
        <time>2022-07-26T14:54:56Z</time>
      </trkpt>
      <trkpt lat="44.08855" lon="7.09653">
        <ele>869</ele>
        <time>2022-07-26T14:54:57Z</time>
      </trkpt>
      <trkpt lat="44.08854" lon="7.09653">
        <ele>868</ele>
        <time>2022-07-26T14:54:58Z</time>
      </trkpt>
      <trkpt lat="44.08853" lon="7.09653">
        <ele>868</ele>
        <time>2022-07-26T14:54:59Z</time>
      </trkpt>
      <trkpt lat="44.08852" lon="7.09652">
        <ele>868</ele>
        <time>2022-07-26T14:55:00Z</time>
      </trkpt>
      <trkpt lat="44.08851" lon="7.09651">
        <ele>868</ele>
        <time>2022-07-26T14:55:01Z</time>
      </trkpt>
      <trkpt lat="44.0885" lon="7.09651">
        <ele>868</ele>
        <time>2022-07-26T14:55:02Z</time>
      </trkpt>
      <trkpt lat="44.08848" lon="7.0965">
        <ele>867</ele>
        <time>2022-07-26T14:55:03Z</time>
      </trkpt>
      <trkpt lat="44.08847" lon="7.0965">
        <ele>867</ele>
        <time>2022-07-26T14:55:04Z</time>
      </trkpt>
      <trkpt lat="44.08846" lon="7.0965">
        <ele>867</ele>
        <time>2022-07-26T14:55:05Z</time>
      </trkpt>
      <trkpt lat="44.08845" lon="7.09649">
        <ele>867</ele>
        <time>2022-07-26T14:55:06Z</time>
      </trkpt>
      <trkpt lat="44.08844" lon="7.09649">
        <ele>867</ele>
        <time>2022-07-26T14:55:07Z</time>
      </trkpt>
      <trkpt lat="44.08843" lon="7.09649">
        <ele>866</ele>
        <time>2022-07-26T14:55:08Z</time>
      </trkpt>
      <trkpt lat="44.08842" lon="7.09649">
        <ele>866</ele>
        <time>2022-07-26T14:55:09Z</time>
      </trkpt>
      <trkpt lat="44.0884" lon="7.09649">
        <ele>866</ele>
        <time>2022-07-26T14:55:10Z</time>
      </trkpt>
      <trkpt lat="44.08839" lon="7.09648">
        <ele>866</ele>
        <time>2022-07-26T14:55:11Z</time>
      </trkpt>
      <trkpt lat="44.08838" lon="7.09648">
        <ele>866</ele>
        <time>2022-07-26T14:55:12Z</time>
      </trkpt>
      <trkpt lat="44.08837" lon="7.09648">
        <ele>866</ele>
        <time>2022-07-26T14:55:13Z</time>
      </trkpt>
      <trkpt lat="44.08836" lon="7.09648">
        <ele>866</ele>
        <time>2022-07-26T14:55:14Z</time>
      </trkpt>
      <trkpt lat="44.08835" lon="7.09647">
        <ele>866</ele>
        <time>2022-07-26T14:55:15Z</time>
      </trkpt>
      <trkpt lat="44.08834" lon="7.09647">
        <ele>866</ele>
        <time>2022-07-26T14:55:16Z</time>
      </trkpt>
      <trkpt lat="44.08833" lon="7.09647">
        <ele>866</ele>
        <time>2022-07-26T14:55:17Z</time>
      </trkpt>
      <trkpt lat="44.08832" lon="7.09646">
        <ele>865</ele>
        <time>2022-07-26T14:55:18Z</time>
      </trkpt>
      <trkpt lat="44.08831" lon="7.09646">
        <ele>865</ele>
        <time>2022-07-26T14:55:19Z</time>
      </trkpt>
      <trkpt lat="44.08829" lon="7.09646">
        <ele>865</ele>
        <time>2022-07-26T14:55:20Z</time>
      </trkpt>
      <trkpt lat="44.08828" lon="7.09645">
        <ele>865</ele>
        <time>2022-07-26T14:55:21Z</time>
      </trkpt>
      <trkpt lat="44.08827" lon="7.09645">
        <ele>865</ele>
        <time>2022-07-26T14:55:22Z</time>
      </trkpt>
      <trkpt lat="44.08826" lon="7.09645">
        <ele>864</ele>
        <time>2022-07-26T14:55:23Z</time>
      </trkpt>
      <trkpt lat="44.08825" lon="7.09645">
        <ele>864</ele>
        <time>2022-07-26T14:55:24Z</time>
      </trkpt>
      <trkpt lat="44.08824" lon="7.09644">
        <ele>864</ele>
        <time>2022-07-26T14:55:25Z</time>
      </trkpt>
      <trkpt lat="44.08823" lon="7.09644">
        <ele>864</ele>
        <time>2022-07-26T14:55:26Z</time>
      </trkpt>
      <trkpt lat="44.08821" lon="7.09644">
        <ele>864</ele>
        <time>2022-07-26T14:55:27Z</time>
      </trkpt>
      <trkpt lat="44.0882" lon="7.09644">
        <ele>863</ele>
        <time>2022-07-26T14:55:28Z</time>
      </trkpt>
      <trkpt lat="44.08819" lon="7.09644">
        <ele>863</ele>
        <time>2022-07-26T14:55:29Z</time>
      </trkpt>
      <trkpt lat="44.08818" lon="7.09644">
        <ele>863</ele>
        <time>2022-07-26T14:55:30Z</time>
      </trkpt>
      <trkpt lat="44.08817" lon="7.09643">
        <ele>863</ele>
        <time>2022-07-26T14:55:31Z</time>
      </trkpt>
      <trkpt lat="44.08816" lon="7.09643">
        <ele>863</ele>
        <time>2022-07-26T14:55:32Z</time>
      </trkpt>
      <trkpt lat="44.08816" lon="7.09642">
        <ele>862</ele>
        <time>2022-07-26T14:55:33Z</time>
      </trkpt>
      <trkpt lat="44.08815" lon="7.09642">
        <ele>862</ele>
        <time>2022-07-26T14:55:34Z</time>
      </trkpt>
      <trkpt lat="44.08814" lon="7.09641">
        <ele>862</ele>
        <time>2022-07-26T14:55:35Z</time>
      </trkpt>
      <trkpt lat="44.08813" lon="7.09641">
        <ele>862</ele>
        <time>2022-07-26T14:55:36Z</time>
      </trkpt>
      <trkpt lat="44.08811" lon="7.0964">
        <ele>862</ele>
        <time>2022-07-26T14:55:37Z</time>
      </trkpt>
      <trkpt lat="44.08811" lon="7.0964">
        <ele>862</ele>
        <time>2022-07-26T14:55:38Z</time>
      </trkpt>
      <trkpt lat="44.0881" lon="7.0964">
        <ele>862</ele>
        <time>2022-07-26T14:55:39Z</time>
      </trkpt>
      <trkpt lat="44.08809" lon="7.0964">
        <ele>862</ele>
        <time>2022-07-26T14:55:40Z</time>
      </trkpt>
      <trkpt lat="44.08808" lon="7.0964">
        <ele>862</ele>
        <time>2022-07-26T14:55:41Z</time>
      </trkpt>
      <trkpt lat="44.08807" lon="7.09639">
        <ele>862</ele>
        <time>2022-07-26T14:55:42Z</time>
      </trkpt>
      <trkpt lat="44.08806" lon="7.09639">
        <ele>861</ele>
        <time>2022-07-26T14:55:43Z</time>
      </trkpt>
      <trkpt lat="44.08806" lon="7.09638">
        <ele>861</ele>
        <time>2022-07-26T14:55:44Z</time>
      </trkpt>
      <trkpt lat="44.08805" lon="7.09637">
        <ele>861</ele>
        <time>2022-07-26T14:55:45Z</time>
      </trkpt>
      <trkpt lat="44.08804" lon="7.09637">
        <ele>861</ele>
        <time>2022-07-26T14:55:46Z</time>
      </trkpt>
      <trkpt lat="44.08803" lon="7.09636">
        <ele>861</ele>
        <time>2022-07-26T14:55:47Z</time>
      </trkpt>
      <trkpt lat="44.08802" lon="7.09636">
        <ele>860</ele>
        <time>2022-07-26T14:55:48Z</time>
      </trkpt>
      <trkpt lat="44.08801" lon="7.09635">
        <ele>860</ele>
        <time>2022-07-26T14:55:49Z</time>
      </trkpt>
      <trkpt lat="44.088" lon="7.09634">
        <ele>860</ele>
        <time>2022-07-26T14:55:50Z</time>
      </trkpt>
      <trkpt lat="44.08799" lon="7.09633">
        <ele>860</ele>
        <time>2022-07-26T14:55:51Z</time>
      </trkpt>
      <trkpt lat="44.08798" lon="7.09631">
        <ele>860</ele>
        <time>2022-07-26T14:55:52Z</time>
      </trkpt>
      <trkpt lat="44.08798" lon="7.0963">
        <ele>859</ele>
        <time>2022-07-26T14:55:53Z</time>
      </trkpt>
      <trkpt lat="44.08797" lon="7.09629">
        <ele>859</ele>
        <time>2022-07-26T14:55:54Z</time>
      </trkpt>
      <trkpt lat="44.08797" lon="7.09627">
        <ele>859</ele>
        <time>2022-07-26T14:55:55Z</time>
      </trkpt>
      <trkpt lat="44.08796" lon="7.09626">
        <ele>859</ele>
        <time>2022-07-26T14:55:56Z</time>
      </trkpt>
      <trkpt lat="44.08795" lon="7.09625">
        <ele>859</ele>
        <time>2022-07-26T14:55:57Z</time>
      </trkpt>
      <trkpt lat="44.08794" lon="7.09624">
        <ele>858</ele>
        <time>2022-07-26T14:55:58Z</time>
      </trkpt>
      <trkpt lat="44.08793" lon="7.09623">
        <ele>858</ele>
        <time>2022-07-26T14:55:59Z</time>
      </trkpt>
      <trkpt lat="44.08793" lon="7.09623">
        <ele>858</ele>
        <time>2022-07-26T14:56:00Z</time>
      </trkpt>
      <trkpt lat="44.08792" lon="7.09622">
        <ele>858</ele>
        <time>2022-07-26T14:56:01Z</time>
      </trkpt>
      <trkpt lat="44.08791" lon="7.09622">
        <ele>858</ele>
        <time>2022-07-26T14:56:02Z</time>
      </trkpt>
      <trkpt lat="44.0879" lon="7.09621">
        <ele>857</ele>
        <time>2022-07-26T14:56:03Z</time>
      </trkpt>
      <trkpt lat="44.0879" lon="7.0962">
        <ele>857</ele>
        <time>2022-07-26T14:56:04Z</time>
      </trkpt>
      <trkpt lat="44.08789" lon="7.09619">
        <ele>857</ele>
        <time>2022-07-26T14:56:05Z</time>
      </trkpt>
      <trkpt lat="44.08788" lon="7.09618">
        <ele>857</ele>
        <time>2022-07-26T14:56:06Z</time>
      </trkpt>
      <trkpt lat="44.08788" lon="7.09617">
        <ele>857</ele>
        <time>2022-07-26T14:56:07Z</time>
      </trkpt>
      <trkpt lat="44.08787" lon="7.09616">
        <ele>857</ele>
        <time>2022-07-26T14:56:08Z</time>
      </trkpt>
      <trkpt lat="44.08786" lon="7.09615">
        <ele>857</ele>
        <time>2022-07-26T14:56:09Z</time>
      </trkpt>
      <trkpt lat="44.08786" lon="7.09614">
        <ele>857</ele>
        <time>2022-07-26T14:56:10Z</time>
      </trkpt>
      <trkpt lat="44.08786" lon="7.09613">
        <ele>857</ele>
        <time>2022-07-26T14:56:11Z</time>
      </trkpt>
      <trkpt lat="44.08785" lon="7.09612">
        <ele>857</ele>
        <time>2022-07-26T14:56:12Z</time>
      </trkpt>
      <trkpt lat="44.08785" lon="7.0961">
        <ele>856</ele>
        <time>2022-07-26T14:56:13Z</time>
      </trkpt>
      <trkpt lat="44.08784" lon="7.09609">
        <ele>856</ele>
        <time>2022-07-26T14:56:14Z</time>
      </trkpt>
      <trkpt lat="44.08784" lon="7.09608">
        <ele>856</ele>
        <time>2022-07-26T14:56:15Z</time>
      </trkpt>
      <trkpt lat="44.08784" lon="7.09607">
        <ele>856</ele>
        <time>2022-07-26T14:56:16Z</time>
      </trkpt>
      <trkpt lat="44.08784" lon="7.09607">
        <ele>856</ele>
        <time>2022-07-26T14:56:17Z</time>
      </trkpt>
      <trkpt lat="44.08784" lon="7.09606">
        <ele>855</ele>
        <time>2022-07-26T14:56:18Z</time>
      </trkpt>
      <trkpt lat="44.08783" lon="7.09605">
        <ele>855</ele>
        <time>2022-07-26T14:56:19Z</time>
      </trkpt>
      <trkpt lat="44.08783" lon="7.09604">
        <ele>855</ele>
        <time>2022-07-26T14:56:20Z</time>
      </trkpt>
      <trkpt lat="44.08783" lon="7.09603">
        <ele>855</ele>
        <time>2022-07-26T14:56:21Z</time>
      </trkpt>
      <trkpt lat="44.08782" lon="7.09602">
        <ele>855</ele>
        <time>2022-07-26T14:56:22Z</time>
      </trkpt>
      <trkpt lat="44.08782" lon="7.09602">
        <ele>854</ele>
        <time>2022-07-26T14:56:23Z</time>
      </trkpt>
      <trkpt lat="44.08781" lon="7.09601">
        <ele>854</ele>
        <time>2022-07-26T14:56:24Z</time>
      </trkpt>
      <trkpt lat="44.08781" lon="7.096">
        <ele>854</ele>
        <time>2022-07-26T14:56:25Z</time>
      </trkpt>
      <trkpt lat="44.08781" lon="7.09599">
        <ele>854</ele>
        <time>2022-07-26T14:56:26Z</time>
      </trkpt>
      <trkpt lat="44.08781" lon="7.09598">
        <ele>854</ele>
        <time>2022-07-26T14:56:27Z</time>
      </trkpt>
      <trkpt lat="44.08781" lon="7.09596">
        <ele>854</ele>
        <time>2022-07-26T14:56:28Z</time>
      </trkpt>
      <trkpt lat="44.0878" lon="7.09595">
        <ele>854</ele>
        <time>2022-07-26T14:56:29Z</time>
      </trkpt>
      <trkpt lat="44.0878" lon="7.09594">
        <ele>854</ele>
        <time>2022-07-26T14:56:30Z</time>
      </trkpt>
      <trkpt lat="44.0878" lon="7.09593">
        <ele>854</ele>
        <time>2022-07-26T14:56:31Z</time>
      </trkpt>
      <trkpt lat="44.08781" lon="7.09591">
        <ele>854</ele>
        <time>2022-07-26T14:56:32Z</time>
      </trkpt>
      <trkpt lat="44.08781" lon="7.0959">
        <ele>853</ele>
        <time>2022-07-26T14:56:33Z</time>
      </trkpt>
      <trkpt lat="44.08782" lon="7.09589">
        <ele>853</ele>
        <time>2022-07-26T14:56:34Z</time>
      </trkpt>
      <trkpt lat="44.08782" lon="7.09587">
        <ele>852</ele>
        <time>2022-07-26T14:56:35Z</time>
      </trkpt>
      <trkpt lat="44.08783" lon="7.09586">
        <ele>852</ele>
        <time>2022-07-26T14:56:36Z</time>
      </trkpt>
      <trkpt lat="44.08783" lon="7.09584">
        <ele>852</ele>
        <time>2022-07-26T14:56:37Z</time>
      </trkpt>
      <trkpt lat="44.08784" lon="7.09583">
        <ele>852</ele>
        <time>2022-07-26T14:56:38Z</time>
      </trkpt>
      <trkpt lat="44.08784" lon="7.09582">
        <ele>852</ele>
        <time>2022-07-26T14:56:39Z</time>
      </trkpt>
      <trkpt lat="44.08785" lon="7.0958">
        <ele>852</ele>
        <time>2022-07-26T14:56:40Z</time>
      </trkpt>
      <trkpt lat="44.08785" lon="7.09579">
        <ele>852</ele>
        <time>2022-07-26T14:56:41Z</time>
      </trkpt>
      <trkpt lat="44.08786" lon="7.09578">
        <ele>852</ele>
        <time>2022-07-26T14:56:42Z</time>
      </trkpt>
      <trkpt lat="44.08786" lon="7.09576">
        <ele>851</ele>
        <time>2022-07-26T14:56:43Z</time>
      </trkpt>
      <trkpt lat="44.08786" lon="7.09575">
        <ele>851</ele>
        <time>2022-07-26T14:56:44Z</time>
      </trkpt>
      <trkpt lat="44.08786" lon="7.09573">
        <ele>851</ele>
        <time>2022-07-26T14:56:45Z</time>
      </trkpt>
      <trkpt lat="44.08787" lon="7.09572">
        <ele>851</ele>
        <time>2022-07-26T14:56:46Z</time>
      </trkpt>
      <trkpt lat="44.08787" lon="7.0957">
        <ele>851</ele>
        <time>2022-07-26T14:56:47Z</time>
      </trkpt>
      <trkpt lat="44.08787" lon="7.09569">
        <ele>850</ele>
        <time>2022-07-26T14:56:48Z</time>
      </trkpt>
      <trkpt lat="44.08788" lon="7.09567">
        <ele>850</ele>
        <time>2022-07-26T14:56:49Z</time>
      </trkpt>
      <trkpt lat="44.08788" lon="7.09566">
        <ele>850</ele>
        <time>2022-07-26T14:56:50Z</time>
      </trkpt>
      <trkpt lat="44.08788" lon="7.09565">
        <ele>850</ele>
        <time>2022-07-26T14:56:51Z</time>
      </trkpt>
      <trkpt lat="44.08789" lon="7.09564">
        <ele>850</ele>
        <time>2022-07-26T14:56:52Z</time>
      </trkpt>
      <trkpt lat="44.08789" lon="7.09562">
        <ele>850</ele>
        <time>2022-07-26T14:56:53Z</time>
      </trkpt>
      <trkpt lat="44.08789" lon="7.09561">
        <ele>850</ele>
        <time>2022-07-26T14:56:54Z</time>
      </trkpt>
      <trkpt lat="44.0879" lon="7.09559">
        <ele>850</ele>
        <time>2022-07-26T14:56:55Z</time>
      </trkpt>
      <trkpt lat="44.0879" lon="7.09558">
        <ele>850</ele>
        <time>2022-07-26T14:56:56Z</time>
      </trkpt>
      <trkpt lat="44.0879" lon="7.09557">
        <ele>850</ele>
        <time>2022-07-26T14:56:57Z</time>
      </trkpt>
      <trkpt lat="44.08791" lon="7.09555">
        <ele>849</ele>
        <time>2022-07-26T14:56:58Z</time>
      </trkpt>
      <trkpt lat="44.08791" lon="7.09553">
        <ele>849</ele>
        <time>2022-07-26T14:56:59Z</time>
      </trkpt>
      <trkpt lat="44.08791" lon="7.09552">
        <ele>849</ele>
        <time>2022-07-26T14:57:00Z</time>
      </trkpt>
      <trkpt lat="44.08792" lon="7.0955">
        <ele>849</ele>
        <time>2022-07-26T14:57:01Z</time>
      </trkpt>
      <trkpt lat="44.08792" lon="7.09549">
        <ele>849</ele>
        <time>2022-07-26T14:57:02Z</time>
      </trkpt>
      <trkpt lat="44.08792" lon="7.09547">
        <ele>849</ele>
        <time>2022-07-26T14:57:03Z</time>
      </trkpt>
      <trkpt lat="44.08792" lon="7.09546">
        <ele>849</ele>
        <time>2022-07-26T14:57:04Z</time>
      </trkpt>
      <trkpt lat="44.08792" lon="7.09544">
        <ele>849</ele>
        <time>2022-07-26T14:57:05Z</time>
      </trkpt>
      <trkpt lat="44.08792" lon="7.09543">
        <ele>849</ele>
        <time>2022-07-26T14:57:06Z</time>
      </trkpt>
      <trkpt lat="44.08792" lon="7.09541">
        <ele>849</ele>
        <time>2022-07-26T14:57:07Z</time>
      </trkpt>
      <trkpt lat="44.08793" lon="7.0954">
        <ele>848</ele>
        <time>2022-07-26T14:57:08Z</time>
      </trkpt>
      <trkpt lat="44.08793" lon="7.09538">
        <ele>848</ele>
        <time>2022-07-26T14:57:09Z</time>
      </trkpt>
      <trkpt lat="44.08793" lon="7.09537">
        <ele>848</ele>
        <time>2022-07-26T14:57:10Z</time>
      </trkpt>
      <trkpt lat="44.08793" lon="7.09535">
        <ele>848</ele>
        <time>2022-07-26T14:57:11Z</time>
      </trkpt>
      <trkpt lat="44.08793" lon="7.09534">
        <ele>848</ele>
        <time>2022-07-26T14:57:12Z</time>
      </trkpt>
      <trkpt lat="44.08793" lon="7.09532">
        <ele>847</ele>
        <time>2022-07-26T14:57:13Z</time>
      </trkpt>
      <trkpt lat="44.08793" lon="7.09531">
        <ele>847</ele>
        <time>2022-07-26T14:57:14Z</time>
      </trkpt>
      <trkpt lat="44.08793" lon="7.09529">
        <ele>847</ele>
        <time>2022-07-26T14:57:15Z</time>
      </trkpt>
      <trkpt lat="44.08794" lon="7.09528">
        <ele>847</ele>
        <time>2022-07-26T14:57:16Z</time>
      </trkpt>
      <trkpt lat="44.08794" lon="7.09526">
        <ele>847</ele>
        <time>2022-07-26T14:57:17Z</time>
      </trkpt>
      <trkpt lat="44.08794" lon="7.09525">
        <ele>847</ele>
        <time>2022-07-26T14:57:18Z</time>
      </trkpt>
      <trkpt lat="44.08795" lon="7.09523">
        <ele>847</ele>
        <time>2022-07-26T14:57:19Z</time>
      </trkpt>
      <trkpt lat="44.08795" lon="7.09522">
        <ele>847</ele>
        <time>2022-07-26T14:57:20Z</time>
      </trkpt>
      <trkpt lat="44.08795" lon="7.09521">
        <ele>847</ele>
        <time>2022-07-26T14:57:21Z</time>
      </trkpt>
      <trkpt lat="44.08796" lon="7.0952">
        <ele>847</ele>
        <time>2022-07-26T14:57:22Z</time>
      </trkpt>
      <trkpt lat="44.08796" lon="7.09518">
        <ele>846</ele>
        <time>2022-07-26T14:57:23Z</time>
      </trkpt>
      <trkpt lat="44.08797" lon="7.09517">
        <ele>846</ele>
        <time>2022-07-26T14:57:24Z</time>
      </trkpt>
      <trkpt lat="44.08797" lon="7.09516">
        <ele>846</ele>
        <time>2022-07-26T14:57:25Z</time>
      </trkpt>
      <trkpt lat="44.08798" lon="7.09514">
        <ele>846</ele>
        <time>2022-07-26T14:57:26Z</time>
      </trkpt>
      <trkpt lat="44.08798" lon="7.09513">
        <ele>846</ele>
        <time>2022-07-26T14:57:27Z</time>
      </trkpt>
      <trkpt lat="44.08799" lon="7.09512">
        <ele>845</ele>
        <time>2022-07-26T14:57:28Z</time>
      </trkpt>
      <trkpt lat="44.08799" lon="7.09511">
        <ele>845</ele>
        <time>2022-07-26T14:57:29Z</time>
      </trkpt>
      <trkpt lat="44.088" lon="7.09509">
        <ele>845</ele>
        <time>2022-07-26T14:57:30Z</time>
      </trkpt>
      <trkpt lat="44.088" lon="7.09508">
        <ele>845</ele>
        <time>2022-07-26T14:57:31Z</time>
      </trkpt>
      <trkpt lat="44.08801" lon="7.09507">
        <ele>845</ele>
        <time>2022-07-26T14:57:32Z</time>
      </trkpt>
      <trkpt lat="44.08801" lon="7.09505">
        <ele>845</ele>
        <time>2022-07-26T14:57:33Z</time>
      </trkpt>
      <trkpt lat="44.08802" lon="7.09504">
        <ele>845</ele>
        <time>2022-07-26T14:57:34Z</time>
      </trkpt>
      <trkpt lat="44.08802" lon="7.09503">
        <ele>845</ele>
        <time>2022-07-26T14:57:35Z</time>
      </trkpt>
      <trkpt lat="44.08803" lon="7.09501">
        <ele>845</ele>
        <time>2022-07-26T14:57:36Z</time>
      </trkpt>
      <trkpt lat="44.08804" lon="7.095">
        <ele>845</ele>
        <time>2022-07-26T14:57:37Z</time>
      </trkpt>
      <trkpt lat="44.08804" lon="7.09499">
        <ele>844</ele>
        <time>2022-07-26T14:57:38Z</time>
      </trkpt>
      <trkpt lat="44.08805" lon="7.09498">
        <ele>844</ele>
        <time>2022-07-26T14:57:39Z</time>
      </trkpt>
      <trkpt lat="44.08806" lon="7.09497">
        <ele>844</ele>
        <time>2022-07-26T14:57:40Z</time>
      </trkpt>
      <trkpt lat="44.08807" lon="7.09496">
        <ele>844</ele>
        <time>2022-07-26T14:57:41Z</time>
      </trkpt>
      <trkpt lat="44.08808" lon="7.09494">
        <ele>844</ele>
        <time>2022-07-26T14:57:42Z</time>
      </trkpt>
      <trkpt lat="44.08809" lon="7.09493">
        <ele>843</ele>
        <time>2022-07-26T14:57:43Z</time>
      </trkpt>
      <trkpt lat="44.08809" lon="7.09492">
        <ele>843</ele>
        <time>2022-07-26T14:57:44Z</time>
      </trkpt>
      <trkpt lat="44.0881" lon="7.0949">
        <ele>843</ele>
        <time>2022-07-26T14:57:45Z</time>
      </trkpt>
      <trkpt lat="44.08811" lon="7.09489">
        <ele>843</ele>
        <time>2022-07-26T14:57:46Z</time>
      </trkpt>
      <trkpt lat="44.08811" lon="7.09488">
        <ele>843</ele>
        <time>2022-07-26T14:57:47Z</time>
      </trkpt>
      <trkpt lat="44.08812" lon="7.09487">
        <ele>843</ele>
        <time>2022-07-26T14:57:48Z</time>
      </trkpt>
      <trkpt lat="44.08812" lon="7.09485">
        <ele>843</ele>
        <time>2022-07-26T14:57:49Z</time>
      </trkpt>
      <trkpt lat="44.08813" lon="7.09484">
        <ele>843</ele>
        <time>2022-07-26T14:57:50Z</time>
      </trkpt>
      <trkpt lat="44.08813" lon="7.09483">
        <ele>843</ele>
        <time>2022-07-26T14:57:51Z</time>
      </trkpt>
      <trkpt lat="44.08813" lon="7.09482">
        <ele>843</ele>
        <time>2022-07-26T14:57:52Z</time>
      </trkpt>
      <trkpt lat="44.08814" lon="7.09481">
        <ele>842</ele>
        <time>2022-07-26T14:57:53Z</time>
      </trkpt>
      <trkpt lat="44.08814" lon="7.0948">
        <ele>842</ele>
        <time>2022-07-26T14:57:54Z</time>
      </trkpt>
      <trkpt lat="44.08815" lon="7.09478">
        <ele>842</ele>
        <time>2022-07-26T14:57:55Z</time>
      </trkpt>
      <trkpt lat="44.08815" lon="7.09477">
        <ele>842</ele>
        <time>2022-07-26T14:57:56Z</time>
      </trkpt>
      <trkpt lat="44.08816" lon="7.09476">
        <ele>842</ele>
        <time>2022-07-26T14:57:57Z</time>
      </trkpt>
      <trkpt lat="44.08816" lon="7.09476">
        <ele>841</ele>
        <time>2022-07-26T14:57:58Z</time>
      </trkpt>
      <trkpt lat="44.08817" lon="7.09475">
        <ele>841</ele>
        <time>2022-07-26T14:57:59Z</time>
      </trkpt>
      <trkpt lat="44.08818" lon="7.09474">
        <ele>841</ele>
        <time>2022-07-26T14:58:00Z</time>
      </trkpt>
      <trkpt lat="44.08819" lon="7.09473">
        <ele>841</ele>
        <time>2022-07-26T14:58:01Z</time>
      </trkpt>
      <trkpt lat="44.08819" lon="7.09472">
        <ele>841</ele>
        <time>2022-07-26T14:58:02Z</time>
      </trkpt>
      <trkpt lat="44.0882" lon="7.09471">
        <ele>841</ele>
        <time>2022-07-26T14:58:03Z</time>
      </trkpt>
      <trkpt lat="44.08821" lon="7.09469">
        <ele>841</ele>
        <time>2022-07-26T14:58:04Z</time>
      </trkpt>
      <trkpt lat="44.08821" lon="7.09468">
        <ele>841</ele>
        <time>2022-07-26T14:58:05Z</time>
      </trkpt>
      <trkpt lat="44.08822" lon="7.09466">
        <ele>841</ele>
        <time>2022-07-26T14:58:06Z</time>
      </trkpt>
      <trkpt lat="44.08822" lon="7.09465">
        <ele>841</ele>
        <time>2022-07-26T14:58:07Z</time>
      </trkpt>
      <trkpt lat="44.08823" lon="7.09464">
        <ele>840</ele>
        <time>2022-07-26T14:58:08Z</time>
      </trkpt>
      <trkpt lat="44.08823" lon="7.09462">
        <ele>840</ele>
        <time>2022-07-26T14:58:09Z</time>
      </trkpt>
      <trkpt lat="44.08824" lon="7.09461">
        <ele>840</ele>
        <time>2022-07-26T14:58:10Z</time>
      </trkpt>
      <trkpt lat="44.08824" lon="7.09459">
        <ele>840</ele>
        <time>2022-07-26T14:58:11Z</time>
      </trkpt>
      <trkpt lat="44.08824" lon="7.09458">
        <ele>840</ele>
        <time>2022-07-26T14:58:12Z</time>
      </trkpt>
      <trkpt lat="44.08825" lon="7.09456">
        <ele>840</ele>
        <time>2022-07-26T14:58:13Z</time>
      </trkpt>
      <trkpt lat="44.08825" lon="7.09454">
        <ele>840</ele>
        <time>2022-07-26T14:58:14Z</time>
      </trkpt>
      <trkpt lat="44.08826" lon="7.09452">
        <ele>840</ele>
        <time>2022-07-26T14:58:15Z</time>
      </trkpt>
      <trkpt lat="44.08826" lon="7.09451">
        <ele>840</ele>
        <time>2022-07-26T14:58:16Z</time>
      </trkpt>
      <trkpt lat="44.08826" lon="7.09449">
        <ele>840</ele>
        <time>2022-07-26T14:58:17Z</time>
      </trkpt>
      <trkpt lat="44.08827" lon="7.09448">
        <ele>839</ele>
        <time>2022-07-26T14:58:18Z</time>
      </trkpt>
      <trkpt lat="44.08827" lon="7.09446">
        <ele>839</ele>
        <time>2022-07-26T14:58:19Z</time>
      </trkpt>
      <trkpt lat="44.08827" lon="7.09445">
        <ele>839</ele>
        <time>2022-07-26T14:58:20Z</time>
      </trkpt>
      <trkpt lat="44.08827" lon="7.09443">
        <ele>839</ele>
        <time>2022-07-26T14:58:21Z</time>
      </trkpt>
      <trkpt lat="44.08827" lon="7.09442">
        <ele>839</ele>
        <time>2022-07-26T14:58:22Z</time>
      </trkpt>
      <trkpt lat="44.08828" lon="7.09441">
        <ele>838</ele>
        <time>2022-07-26T14:58:23Z</time>
      </trkpt>
      <trkpt lat="44.08828" lon="7.09439">
        <ele>838</ele>
        <time>2022-07-26T14:58:24Z</time>
      </trkpt>
      <trkpt lat="44.08828" lon="7.09438">
        <ele>838</ele>
        <time>2022-07-26T14:58:25Z</time>
      </trkpt>
      <trkpt lat="44.08828" lon="7.09436">
        <ele>838</ele>
        <time>2022-07-26T14:58:26Z</time>
      </trkpt>
      <trkpt lat="44.08828" lon="7.09435">
        <ele>838</ele>
        <time>2022-07-26T14:58:27Z</time>
      </trkpt>
      <trkpt lat="44.08828" lon="7.09433">
        <ele>837</ele>
        <time>2022-07-26T14:58:28Z</time>
      </trkpt>
      <trkpt lat="44.08828" lon="7.09432">
        <ele>837</ele>
        <time>2022-07-26T14:58:29Z</time>
      </trkpt>
      <trkpt lat="44.08829" lon="7.09431">
        <ele>837</ele>
        <time>2022-07-26T14:58:30Z</time>
      </trkpt>
      <trkpt lat="44.08829" lon="7.09429">
        <ele>837</ele>
        <time>2022-07-26T14:58:31Z</time>
      </trkpt>
      <trkpt lat="44.08829" lon="7.09428">
        <ele>837</ele>
        <time>2022-07-26T14:58:32Z</time>
      </trkpt>
      <trkpt lat="44.08829" lon="7.09427">
        <ele>836</ele>
        <time>2022-07-26T14:58:33Z</time>
      </trkpt>
      <trkpt lat="44.0883" lon="7.09425">
        <ele>836</ele>
        <time>2022-07-26T14:58:34Z</time>
      </trkpt>
      <trkpt lat="44.0883" lon="7.09424">
        <ele>835</ele>
        <time>2022-07-26T14:58:35Z</time>
      </trkpt>
      <trkpt lat="44.0883" lon="7.09422">
        <ele>835</ele>
        <time>2022-07-26T14:58:36Z</time>
      </trkpt>
      <trkpt lat="44.0883" lon="7.09421">
        <ele>835</ele>
        <time>2022-07-26T14:58:37Z</time>
      </trkpt>
      <trkpt lat="44.08831" lon="7.09419">
        <ele>835</ele>
        <time>2022-07-26T14:58:38Z</time>
      </trkpt>
      <trkpt lat="44.08831" lon="7.09417">
        <ele>835</ele>
        <time>2022-07-26T14:58:39Z</time>
      </trkpt>
      <trkpt lat="44.08831" lon="7.09415">
        <ele>835</ele>
        <time>2022-07-26T14:58:40Z</time>
      </trkpt>
      <trkpt lat="44.0883" lon="7.09413">
        <ele>835</ele>
        <time>2022-07-26T14:58:41Z</time>
      </trkpt>
      <trkpt lat="44.0883" lon="7.09412">
        <ele>835</ele>
        <time>2022-07-26T14:58:42Z</time>
      </trkpt>
      <trkpt lat="44.0883" lon="7.0941">
        <ele>834</ele>
        <time>2022-07-26T14:58:43Z</time>
      </trkpt>
      <trkpt lat="44.0883" lon="7.09409">
        <ele>834</ele>
        <time>2022-07-26T14:58:44Z</time>
      </trkpt>
      <trkpt lat="44.0883" lon="7.09407">
        <ele>834</ele>
        <time>2022-07-26T14:58:45Z</time>
      </trkpt>
      <trkpt lat="44.0883" lon="7.09405">
        <ele>834</ele>
        <time>2022-07-26T14:58:46Z</time>
      </trkpt>
      <trkpt lat="44.0883" lon="7.09404">
        <ele>834</ele>
        <time>2022-07-26T14:58:47Z</time>
      </trkpt>
      <trkpt lat="44.0883" lon="7.09402">
        <ele>833</ele>
        <time>2022-07-26T14:58:48Z</time>
      </trkpt>
      <trkpt lat="44.0883" lon="7.09401">
        <ele>833</ele>
        <time>2022-07-26T14:58:49Z</time>
      </trkpt>
      <trkpt lat="44.0883" lon="7.09399">
        <ele>833</ele>
        <time>2022-07-26T14:58:50Z</time>
      </trkpt>
      <trkpt lat="44.0883" lon="7.09397">
        <ele>833</ele>
        <time>2022-07-26T14:58:51Z</time>
      </trkpt>
      <trkpt lat="44.0883" lon="7.09396">
        <ele>833</ele>
        <time>2022-07-26T14:58:52Z</time>
      </trkpt>
      <trkpt lat="44.0883" lon="7.09394">
        <ele>832</ele>
        <time>2022-07-26T14:58:53Z</time>
      </trkpt>
      <trkpt lat="44.0883" lon="7.09393">
        <ele>832</ele>
        <time>2022-07-26T14:58:54Z</time>
      </trkpt>
      <trkpt lat="44.0883" lon="7.09391">
        <ele>832</ele>
        <time>2022-07-26T14:58:55Z</time>
      </trkpt>
      <trkpt lat="44.0883" lon="7.0939">
        <ele>832</ele>
        <time>2022-07-26T14:58:56Z</time>
      </trkpt>
      <trkpt lat="44.0883" lon="7.09388">
        <ele>832</ele>
        <time>2022-07-26T14:58:57Z</time>
      </trkpt>
      <trkpt lat="44.0883" lon="7.09387">
        <ele>832</ele>
        <time>2022-07-26T14:58:58Z</time>
      </trkpt>
      <trkpt lat="44.0883" lon="7.09386">
        <ele>832</ele>
        <time>2022-07-26T14:58:59Z</time>
      </trkpt>
      <trkpt lat="44.0883" lon="7.09384">
        <ele>832</ele>
        <time>2022-07-26T14:59:00Z</time>
      </trkpt>
      <trkpt lat="44.0883" lon="7.09383">
        <ele>832</ele>
        <time>2022-07-26T14:59:01Z</time>
      </trkpt>
      <trkpt lat="44.0883" lon="7.09381">
        <ele>832</ele>
        <time>2022-07-26T14:59:02Z</time>
      </trkpt>
      <trkpt lat="44.0883" lon="7.0938">
        <ele>831</ele>
        <time>2022-07-26T14:59:03Z</time>
      </trkpt>
      <trkpt lat="44.0883" lon="7.09379">
        <ele>831</ele>
        <time>2022-07-26T14:59:04Z</time>
      </trkpt>
      <trkpt lat="44.0883" lon="7.09377">
        <ele>831</ele>
        <time>2022-07-26T14:59:05Z</time>
      </trkpt>
      <trkpt lat="44.0883" lon="7.09376">
        <ele>831</ele>
        <time>2022-07-26T14:59:06Z</time>
      </trkpt>
      <trkpt lat="44.0883" lon="7.09374">
        <ele>831</ele>
        <time>2022-07-26T14:59:07Z</time>
      </trkpt>
      <trkpt lat="44.08829" lon="7.09373">
        <ele>830</ele>
        <time>2022-07-26T14:59:08Z</time>
      </trkpt>
      <trkpt lat="44.08828" lon="7.09372">
        <ele>830</ele>
        <time>2022-07-26T14:59:09Z</time>
      </trkpt>
      <trkpt lat="44.08827" lon="7.09373">
        <ele>830</ele>
        <time>2022-07-26T14:59:10Z</time>
      </trkpt>
      <trkpt lat="44.08826" lon="7.09373">
        <ele>830</ele>
        <time>2022-07-26T14:59:11Z</time>
      </trkpt>
      <trkpt lat="44.08826" lon="7.09374">
        <ele>830</ele>
        <time>2022-07-26T14:59:12Z</time>
      </trkpt>
      <trkpt lat="44.08825" lon="7.09374">
        <ele>829</ele>
        <time>2022-07-26T14:59:13Z</time>
      </trkpt>
      <trkpt lat="44.08825" lon="7.09376">
        <ele>829</ele>
        <time>2022-07-26T14:59:14Z</time>
      </trkpt>
      <trkpt lat="44.08825" lon="7.09377">
        <ele>829</ele>
        <time>2022-07-26T14:59:15Z</time>
      </trkpt>
      <trkpt lat="44.08825" lon="7.09379">
        <ele>829</ele>
        <time>2022-07-26T14:59:16Z</time>
      </trkpt>
      <trkpt lat="44.08824" lon="7.0938">
        <ele>829</ele>
        <time>2022-07-26T14:59:17Z</time>
      </trkpt>
      <trkpt lat="44.08824" lon="7.09381">
        <ele>828</ele>
        <time>2022-07-26T14:59:18Z</time>
      </trkpt>
      <trkpt lat="44.08824" lon="7.09383">
        <ele>828</ele>
        <time>2022-07-26T14:59:19Z</time>
      </trkpt>
      <trkpt lat="44.08824" lon="7.09384">
        <ele>828</ele>
        <time>2022-07-26T14:59:20Z</time>
      </trkpt>
      <trkpt lat="44.08823" lon="7.09385">
        <ele>828</ele>
        <time>2022-07-26T14:59:21Z</time>
      </trkpt>
      <trkpt lat="44.08823" lon="7.09387">
        <ele>828</ele>
        <time>2022-07-26T14:59:22Z</time>
      </trkpt>
      <trkpt lat="44.08823" lon="7.09388">
        <ele>828</ele>
        <time>2022-07-26T14:59:23Z</time>
      </trkpt>
      <trkpt lat="44.08823" lon="7.09389">
        <ele>828</ele>
        <time>2022-07-26T14:59:24Z</time>
      </trkpt>
      <trkpt lat="44.08822" lon="7.0939">
        <ele>828</ele>
        <time>2022-07-26T14:59:25Z</time>
      </trkpt>
      <trkpt lat="44.08822" lon="7.09391">
        <ele>828</ele>
        <time>2022-07-26T14:59:26Z</time>
      </trkpt>
      <trkpt lat="44.08822" lon="7.09393">
        <ele>828</ele>
        <time>2022-07-26T14:59:27Z</time>
      </trkpt>
      <trkpt lat="44.08821" lon="7.09394">
        <ele>827</ele>
        <time>2022-07-26T14:59:28Z</time>
      </trkpt>
      <trkpt lat="44.08821" lon="7.09395">
        <ele>827</ele>
        <time>2022-07-26T14:59:29Z</time>
      </trkpt>
      <trkpt lat="44.08821" lon="7.09397">
        <ele>827</ele>
        <time>2022-07-26T14:59:30Z</time>
      </trkpt>
      <trkpt lat="44.0882" lon="7.09398">
        <ele>827</ele>
        <time>2022-07-26T14:59:31Z</time>
      </trkpt>
      <trkpt lat="44.0882" lon="7.094">
        <ele>827</ele>
        <time>2022-07-26T14:59:32Z</time>
      </trkpt>
      <trkpt lat="44.0882" lon="7.09401">
        <ele>826</ele>
        <time>2022-07-26T14:59:33Z</time>
      </trkpt>
      <trkpt lat="44.08819" lon="7.09402">
        <ele>826</ele>
        <time>2022-07-26T14:59:34Z</time>
      </trkpt>
      <trkpt lat="44.08818" lon="7.09404">
        <ele>826</ele>
        <time>2022-07-26T14:59:35Z</time>
      </trkpt>
      <trkpt lat="44.08818" lon="7.09405">
        <ele>826</ele>
        <time>2022-07-26T14:59:36Z</time>
      </trkpt>
      <trkpt lat="44.08817" lon="7.09406">
        <ele>826</ele>
        <time>2022-07-26T14:59:37Z</time>
      </trkpt>
      <trkpt lat="44.08817" lon="7.09408">
        <ele>826</ele>
        <time>2022-07-26T14:59:38Z</time>
      </trkpt>
      <trkpt lat="44.08816" lon="7.09409">
        <ele>826</ele>
        <time>2022-07-26T14:59:39Z</time>
      </trkpt>
      <trkpt lat="44.08816" lon="7.0941">
        <ele>826</ele>
        <time>2022-07-26T14:59:40Z</time>
      </trkpt>
      <trkpt lat="44.08816" lon="7.09412">
        <ele>826</ele>
        <time>2022-07-26T14:59:41Z</time>
      </trkpt>
      <trkpt lat="44.08816" lon="7.09413">
        <ele>826</ele>
        <time>2022-07-26T14:59:42Z</time>
      </trkpt>
      <trkpt lat="44.08815" lon="7.09415">
        <ele>825</ele>
        <time>2022-07-26T14:59:43Z</time>
      </trkpt>
      <trkpt lat="44.08815" lon="7.09416">
        <ele>825</ele>
        <time>2022-07-26T14:59:44Z</time>
      </trkpt>
      <trkpt lat="44.08814" lon="7.09417">
        <ele>825</ele>
        <time>2022-07-26T14:59:45Z</time>
      </trkpt>
      <trkpt lat="44.08814" lon="7.09419">
        <ele>825</ele>
        <time>2022-07-26T14:59:46Z</time>
      </trkpt>
      <trkpt lat="44.08813" lon="7.0942">
        <ele>825</ele>
        <time>2022-07-26T14:59:47Z</time>
      </trkpt>
      <trkpt lat="44.08813" lon="7.09421">
        <ele>824</ele>
        <time>2022-07-26T14:59:48Z</time>
      </trkpt>
      <trkpt lat="44.08812" lon="7.09423">
        <ele>824</ele>
        <time>2022-07-26T14:59:49Z</time>
      </trkpt>
      <trkpt lat="44.08811" lon="7.09424">
        <ele>824</ele>
        <time>2022-07-26T14:59:50Z</time>
      </trkpt>
      <trkpt lat="44.08811" lon="7.09425">
        <ele>824</ele>
        <time>2022-07-26T14:59:51Z</time>
      </trkpt>
      <trkpt lat="44.0881" lon="7.09426">
        <ele>824</ele>
        <time>2022-07-26T14:59:52Z</time>
      </trkpt>
      <trkpt lat="44.0881" lon="7.09428">
        <ele>823</ele>
        <time>2022-07-26T14:59:53Z</time>
      </trkpt>
      <trkpt lat="44.0881" lon="7.09429">
        <ele>823</ele>
        <time>2022-07-26T14:59:54Z</time>
      </trkpt>
      <trkpt lat="44.08809" lon="7.0943">
        <ele>823</ele>
        <time>2022-07-26T14:59:55Z</time>
      </trkpt>
      <trkpt lat="44.08809" lon="7.09431">
        <ele>823</ele>
        <time>2022-07-26T14:59:56Z</time>
      </trkpt>
      <trkpt lat="44.08808" lon="7.09433">
        <ele>823</ele>
        <time>2022-07-26T14:59:57Z</time>
      </trkpt>
      <trkpt lat="44.08807" lon="7.09434">
        <ele>823</ele>
        <time>2022-07-26T14:59:58Z</time>
      </trkpt>
      <trkpt lat="44.08807" lon="7.09435">
        <ele>823</ele>
        <time>2022-07-26T14:59:59Z</time>
      </trkpt>
      <trkpt lat="44.08806" lon="7.09436">
        <ele>823</ele>
        <time>2022-07-26T15:00:00Z</time>
      </trkpt>
      <trkpt lat="44.08806" lon="7.09438">
        <ele>823</ele>
        <time>2022-07-26T15:00:01Z</time>
      </trkpt>
      <trkpt lat="44.08805" lon="7.09439">
        <ele>823</ele>
        <time>2022-07-26T15:00:02Z</time>
      </trkpt>
      <trkpt lat="44.08804" lon="7.0944">
        <ele>822</ele>
        <time>2022-07-26T15:00:03Z</time>
      </trkpt>
      <trkpt lat="44.08804" lon="7.09442">
        <ele>822</ele>
        <time>2022-07-26T15:00:04Z</time>
      </trkpt>
      <trkpt lat="44.08803" lon="7.09443">
        <ele>822</ele>
        <time>2022-07-26T15:00:05Z</time>
      </trkpt>
      <trkpt lat="44.08803" lon="7.09444">
        <ele>822</ele>
        <time>2022-07-26T15:00:06Z</time>
      </trkpt>
      <trkpt lat="44.08802" lon="7.09446">
        <ele>822</ele>
        <time>2022-07-26T15:00:07Z</time>
      </trkpt>
      <trkpt lat="44.08802" lon="7.09447">
        <ele>821</ele>
        <time>2022-07-26T15:00:08Z</time>
      </trkpt>
      <trkpt lat="44.08801" lon="7.09448">
        <ele>821</ele>
        <time>2022-07-26T15:00:09Z</time>
      </trkpt>
      <trkpt lat="44.08801" lon="7.09449">
        <ele>821</ele>
        <time>2022-07-26T15:00:10Z</time>
      </trkpt>
      <trkpt lat="44.08801" lon="7.09451">
        <ele>821</ele>
        <time>2022-07-26T15:00:11Z</time>
      </trkpt>
      <trkpt lat="44.088" lon="7.09452">
        <ele>821</ele>
        <time>2022-07-26T15:00:12Z</time>
      </trkpt>
      <trkpt lat="44.088" lon="7.09453">
        <ele>820</ele>
        <time>2022-07-26T15:00:13Z</time>
      </trkpt>
      <trkpt lat="44.08799" lon="7.09454">
        <ele>820</ele>
        <time>2022-07-26T15:00:14Z</time>
      </trkpt>
      <trkpt lat="44.08798" lon="7.09455">
        <ele>820</ele>
        <time>2022-07-26T15:00:15Z</time>
      </trkpt>
      <trkpt lat="44.08798" lon="7.09456">
        <ele>820</ele>
        <time>2022-07-26T15:00:16Z</time>
      </trkpt>
      <trkpt lat="44.08797" lon="7.09457">
        <ele>820</ele>
        <time>2022-07-26T15:00:17Z</time>
      </trkpt>
      <trkpt lat="44.08796" lon="7.09458">
        <ele>819</ele>
        <time>2022-07-26T15:00:18Z</time>
      </trkpt>
      <trkpt lat="44.08796" lon="7.09459">
        <ele>819</ele>
        <time>2022-07-26T15:00:19Z</time>
      </trkpt>
      <trkpt lat="44.08795" lon="7.0946">
        <ele>818</ele>
        <time>2022-07-26T15:00:20Z</time>
      </trkpt>
      <trkpt lat="44.08794" lon="7.09461">
        <ele>818</ele>
        <time>2022-07-26T15:00:21Z</time>
      </trkpt>
      <trkpt lat="44.08793" lon="7.09462">
        <ele>818</ele>
        <time>2022-07-26T15:00:22Z</time>
      </trkpt>
      <trkpt lat="44.08793" lon="7.09463">
        <ele>817</ele>
        <time>2022-07-26T15:00:23Z</time>
      </trkpt>
      <trkpt lat="44.08792" lon="7.09464">
        <ele>817</ele>
        <time>2022-07-26T15:00:24Z</time>
      </trkpt>
      <trkpt lat="44.08791" lon="7.09465">
        <ele>817</ele>
        <time>2022-07-26T15:00:25Z</time>
      </trkpt>
      <trkpt lat="44.08791" lon="7.09466">
        <ele>817</ele>
        <time>2022-07-26T15:00:26Z</time>
      </trkpt>
      <trkpt lat="44.0879" lon="7.09467">
        <ele>817</ele>
        <time>2022-07-26T15:00:27Z</time>
      </trkpt>
      <trkpt lat="44.08789" lon="7.09468">
        <ele>817</ele>
        <time>2022-07-26T15:00:28Z</time>
      </trkpt>
      <trkpt lat="44.08789" lon="7.0947">
        <ele>817</ele>
        <time>2022-07-26T15:00:29Z</time>
      </trkpt>
      <trkpt lat="44.08788" lon="7.09471">
        <ele>817</ele>
        <time>2022-07-26T15:00:30Z</time>
      </trkpt>
      <trkpt lat="44.08788" lon="7.09472">
        <ele>817</ele>
        <time>2022-07-26T15:00:31Z</time>
      </trkpt>
      <trkpt lat="44.08787" lon="7.09473">
        <ele>817</ele>
        <time>2022-07-26T15:00:32Z</time>
      </trkpt>
      <trkpt lat="44.08786" lon="7.09474">
        <ele>816</ele>
        <time>2022-07-26T15:00:33Z</time>
      </trkpt>
      <trkpt lat="44.08785" lon="7.09475">
        <ele>816</ele>
        <time>2022-07-26T15:00:34Z</time>
      </trkpt>
      <trkpt lat="44.08785" lon="7.09476">
        <ele>816</ele>
        <time>2022-07-26T15:00:35Z</time>
      </trkpt>
      <trkpt lat="44.08784" lon="7.09477">
        <ele>816</ele>
        <time>2022-07-26T15:00:36Z</time>
      </trkpt>
      <trkpt lat="44.08783" lon="7.09478">
        <ele>816</ele>
        <time>2022-07-26T15:00:37Z</time>
      </trkpt>
      <trkpt lat="44.08782" lon="7.09479">
        <ele>815</ele>
        <time>2022-07-26T15:00:38Z</time>
      </trkpt>
      <trkpt lat="44.08781" lon="7.0948">
        <ele>815</ele>
        <time>2022-07-26T15:00:39Z</time>
      </trkpt>
      <trkpt lat="44.08781" lon="7.09481">
        <ele>815</ele>
        <time>2022-07-26T15:00:40Z</time>
      </trkpt>
      <trkpt lat="44.0878" lon="7.09482">
        <ele>815</ele>
        <time>2022-07-26T15:00:41Z</time>
      </trkpt>
      <trkpt lat="44.08779" lon="7.09483">
        <ele>815</ele>
        <time>2022-07-26T15:00:42Z</time>
      </trkpt>
      <trkpt lat="44.08779" lon="7.09484">
        <ele>815</ele>
        <time>2022-07-26T15:00:43Z</time>
      </trkpt>
      <trkpt lat="44.08778" lon="7.09485">
        <ele>815</ele>
        <time>2022-07-26T15:00:44Z</time>
      </trkpt>
      <trkpt lat="44.08777" lon="7.09486">
        <ele>815</ele>
        <time>2022-07-26T15:00:45Z</time>
      </trkpt>
      <trkpt lat="44.08776" lon="7.09487">
        <ele>815</ele>
        <time>2022-07-26T15:00:46Z</time>
      </trkpt>
      <trkpt lat="44.08775" lon="7.09488">
        <ele>815</ele>
        <time>2022-07-26T15:00:47Z</time>
      </trkpt>
      <trkpt lat="44.08774" lon="7.09489">
        <ele>814</ele>
        <time>2022-07-26T15:00:48Z</time>
      </trkpt>
      <trkpt lat="44.08773" lon="7.0949">
        <ele>814</ele>
        <time>2022-07-26T15:00:49Z</time>
      </trkpt>
      <trkpt lat="44.08772" lon="7.09491">
        <ele>814</ele>
        <time>2022-07-26T15:00:50Z</time>
      </trkpt>
      <trkpt lat="44.08771" lon="7.09492">
        <ele>814</ele>
        <time>2022-07-26T15:00:51Z</time>
      </trkpt>
      <trkpt lat="44.08771" lon="7.09493">
        <ele>814</ele>
        <time>2022-07-26T15:00:52Z</time>
      </trkpt>
      <trkpt lat="44.0877" lon="7.09494">
        <ele>814</ele>
        <time>2022-07-26T15:00:53Z</time>
      </trkpt>
      <trkpt lat="44.08769" lon="7.09495">
        <ele>814</ele>
        <time>2022-07-26T15:00:54Z</time>
      </trkpt>
      <trkpt lat="44.08768" lon="7.09496">
        <ele>814</ele>
        <time>2022-07-26T15:00:55Z</time>
      </trkpt>
      <trkpt lat="44.08767" lon="7.09497">
        <ele>814</ele>
        <time>2022-07-26T15:00:56Z</time>
      </trkpt>
      <trkpt lat="44.08767" lon="7.09498">
        <ele>814</ele>
        <time>2022-07-26T15:00:57Z</time>
      </trkpt>
      <trkpt lat="44.08766" lon="7.09499">
        <ele>813</ele>
        <time>2022-07-26T15:00:58Z</time>
      </trkpt>
      <trkpt lat="44.08765" lon="7.095">
        <ele>813</ele>
        <time>2022-07-26T15:00:59Z</time>
      </trkpt>
      <trkpt lat="44.08764" lon="7.09501">
        <ele>813</ele>
        <time>2022-07-26T15:01:00Z</time>
      </trkpt>
      <trkpt lat="44.08763" lon="7.09501">
        <ele>813</ele>
        <time>2022-07-26T15:01:01Z</time>
      </trkpt>
      <trkpt lat="44.08762" lon="7.09502">
        <ele>813</ele>
        <time>2022-07-26T15:01:02Z</time>
      </trkpt>
      <trkpt lat="44.08761" lon="7.09503">
        <ele>812</ele>
        <time>2022-07-26T15:01:03Z</time>
      </trkpt>
      <trkpt lat="44.08761" lon="7.09504">
        <ele>812</ele>
        <time>2022-07-26T15:01:04Z</time>
      </trkpt>
      <trkpt lat="44.0876" lon="7.09505">
        <ele>812</ele>
        <time>2022-07-26T15:01:05Z</time>
      </trkpt>
      <trkpt lat="44.08759" lon="7.09506">
        <ele>812</ele>
        <time>2022-07-26T15:01:06Z</time>
      </trkpt>
      <trkpt lat="44.08758" lon="7.09507">
        <ele>812</ele>
        <time>2022-07-26T15:01:07Z</time>
      </trkpt>
      <trkpt lat="44.08757" lon="7.09508">
        <ele>812</ele>
        <time>2022-07-26T15:01:08Z</time>
      </trkpt>
      <trkpt lat="44.08757" lon="7.09509">
        <ele>812</ele>
        <time>2022-07-26T15:01:09Z</time>
      </trkpt>
      <trkpt lat="44.08756" lon="7.09511">
        <ele>812</ele>
        <time>2022-07-26T15:01:10Z</time>
      </trkpt>
      <trkpt lat="44.08755" lon="7.09512">
        <ele>812</ele>
        <time>2022-07-26T15:01:11Z</time>
      </trkpt>
      <trkpt lat="44.08755" lon="7.09512">
        <ele>812</ele>
        <time>2022-07-26T15:01:12Z</time>
      </trkpt>
      <trkpt lat="44.08754" lon="7.09513">
        <ele>811</ele>
        <time>2022-07-26T15:01:13Z</time>
      </trkpt>
      <trkpt lat="44.08753" lon="7.09514">
        <ele>811</ele>
        <time>2022-07-26T15:01:14Z</time>
      </trkpt>
      <trkpt lat="44.08752" lon="7.09514">
        <ele>811</ele>
        <time>2022-07-26T15:01:15Z</time>
      </trkpt>
      <trkpt lat="44.08751" lon="7.09515">
        <ele>811</ele>
        <time>2022-07-26T15:01:16Z</time>
      </trkpt>
      <trkpt lat="44.0875" lon="7.09516">
        <ele>811</ele>
        <time>2022-07-26T15:01:17Z</time>
      </trkpt>
      <trkpt lat="44.0875" lon="7.09516">
        <ele>811</ele>
        <time>2022-07-26T15:01:18Z</time>
      </trkpt>
      <trkpt lat="44.08749" lon="7.09517">
        <ele>811</ele>
        <time>2022-07-26T15:01:19Z</time>
      </trkpt>
      <trkpt lat="44.08748" lon="7.09517">
        <ele>811</ele>
        <time>2022-07-26T15:01:20Z</time>
      </trkpt>
      <trkpt lat="44.08747" lon="7.09518">
        <ele>811</ele>
        <time>2022-07-26T15:01:21Z</time>
      </trkpt>
      <trkpt lat="44.08746" lon="7.09519">
        <ele>811</ele>
        <time>2022-07-26T15:01:22Z</time>
      </trkpt>
      <trkpt lat="44.08746" lon="7.09519">
        <ele>810</ele>
        <time>2022-07-26T15:01:23Z</time>
      </trkpt>
      <trkpt lat="44.08745" lon="7.0952">
        <ele>810</ele>
        <time>2022-07-26T15:01:24Z</time>
      </trkpt>
      <trkpt lat="44.08744" lon="7.09521">
        <ele>810</ele>
        <time>2022-07-26T15:01:25Z</time>
      </trkpt>
      <trkpt lat="44.08743" lon="7.09521">
        <ele>810</ele>
        <time>2022-07-26T15:01:26Z</time>
      </trkpt>
      <trkpt lat="44.08743" lon="7.09522">
        <ele>810</ele>
        <time>2022-07-26T15:01:27Z</time>
      </trkpt>
      <trkpt lat="44.08742" lon="7.09523">
        <ele>809</ele>
        <time>2022-07-26T15:01:28Z</time>
      </trkpt>
      <trkpt lat="44.08741" lon="7.09523">
        <ele>809</ele>
        <time>2022-07-26T15:01:29Z</time>
      </trkpt>
      <trkpt lat="44.0874" lon="7.09524">
        <ele>809</ele>
        <time>2022-07-26T15:01:30Z</time>
      </trkpt>
      <trkpt lat="44.08739" lon="7.09525">
        <ele>809</ele>
        <time>2022-07-26T15:01:31Z</time>
      </trkpt>
      <trkpt lat="44.08738" lon="7.09525">
        <ele>809</ele>
        <time>2022-07-26T15:01:32Z</time>
      </trkpt>
      <trkpt lat="44.08737" lon="7.09526">
        <ele>808</ele>
        <time>2022-07-26T15:01:33Z</time>
      </trkpt>
      <trkpt lat="44.08737" lon="7.09527">
        <ele>808</ele>
        <time>2022-07-26T15:01:34Z</time>
      </trkpt>
      <trkpt lat="44.08736" lon="7.09528">
        <ele>808</ele>
        <time>2022-07-26T15:01:35Z</time>
      </trkpt>
      <trkpt lat="44.08735" lon="7.09529">
        <ele>808</ele>
        <time>2022-07-26T15:01:36Z</time>
      </trkpt>
      <trkpt lat="44.08734" lon="7.09529">
        <ele>808</ele>
        <time>2022-07-26T15:01:37Z</time>
      </trkpt>
      <trkpt lat="44.08733" lon="7.0953">
        <ele>807</ele>
        <time>2022-07-26T15:01:38Z</time>
      </trkpt>
      <trkpt lat="44.08732" lon="7.09531">
        <ele>807</ele>
        <time>2022-07-26T15:01:39Z</time>
      </trkpt>
      <trkpt lat="44.08732" lon="7.09532">
        <ele>807</ele>
        <time>2022-07-26T15:01:40Z</time>
      </trkpt>
      <trkpt lat="44.08731" lon="7.09533">
        <ele>807</ele>
        <time>2022-07-26T15:01:41Z</time>
      </trkpt>
      <trkpt lat="44.0873" lon="7.09535">
        <ele>807</ele>
        <time>2022-07-26T15:01:42Z</time>
      </trkpt>
      <trkpt lat="44.0873" lon="7.09536">
        <ele>807</ele>
        <time>2022-07-26T15:01:43Z</time>
      </trkpt>
      <trkpt lat="44.08729" lon="7.09537">
        <ele>807</ele>
        <time>2022-07-26T15:01:44Z</time>
      </trkpt>
      <trkpt lat="44.08729" lon="7.09538">
        <ele>807</ele>
        <time>2022-07-26T15:01:45Z</time>
      </trkpt>
      <trkpt lat="44.08728" lon="7.0954">
        <ele>807</ele>
        <time>2022-07-26T15:01:46Z</time>
      </trkpt>
      <trkpt lat="44.08728" lon="7.09541">
        <ele>807</ele>
        <time>2022-07-26T15:01:47Z</time>
      </trkpt>
      <trkpt lat="44.08727" lon="7.09542">
        <ele>806</ele>
        <time>2022-07-26T15:01:48Z</time>
      </trkpt>
      <trkpt lat="44.08727" lon="7.09544">
        <ele>806</ele>
        <time>2022-07-26T15:01:49Z</time>
      </trkpt>
      <trkpt lat="44.08727" lon="7.09545">
        <ele>806</ele>
        <time>2022-07-26T15:01:50Z</time>
      </trkpt>
      <trkpt lat="44.08726" lon="7.09547">
        <ele>806</ele>
        <time>2022-07-26T15:01:51Z</time>
      </trkpt>
      <trkpt lat="44.08726" lon="7.09548">
        <ele>806</ele>
        <time>2022-07-26T15:01:52Z</time>
      </trkpt>
      <trkpt lat="44.08726" lon="7.09549">
        <ele>805</ele>
        <time>2022-07-26T15:01:53Z</time>
      </trkpt>
      <trkpt lat="44.08725" lon="7.09551">
        <ele>805</ele>
        <time>2022-07-26T15:01:54Z</time>
      </trkpt>
      <trkpt lat="44.08725" lon="7.09552">
        <ele>805</ele>
        <time>2022-07-26T15:01:55Z</time>
      </trkpt>
      <trkpt lat="44.08724" lon="7.09553">
        <ele>805</ele>
        <time>2022-07-26T15:01:56Z</time>
      </trkpt>
      <trkpt lat="44.08723" lon="7.09554">
        <ele>805</ele>
        <time>2022-07-26T15:01:57Z</time>
      </trkpt>
      <trkpt lat="44.08723" lon="7.09555">
        <ele>805</ele>
        <time>2022-07-26T15:01:58Z</time>
      </trkpt>
      <trkpt lat="44.08722" lon="7.09557">
        <ele>805</ele>
        <time>2022-07-26T15:01:59Z</time>
      </trkpt>
      <trkpt lat="44.08721" lon="7.09558">
        <ele>805</ele>
        <time>2022-07-26T15:02:00Z</time>
      </trkpt>
      <trkpt lat="44.0872" lon="7.09559">
        <ele>805</ele>
        <time>2022-07-26T15:02:01Z</time>
      </trkpt>
      <trkpt lat="44.0872" lon="7.0956">
        <ele>805</ele>
        <time>2022-07-26T15:02:02Z</time>
      </trkpt>
      <trkpt lat="44.08719" lon="7.09561">
        <ele>804</ele>
        <time>2022-07-26T15:02:03Z</time>
      </trkpt>
      <trkpt lat="44.08719" lon="7.09562">
        <ele>804</ele>
        <time>2022-07-26T15:02:04Z</time>
      </trkpt>
      <trkpt lat="44.08718" lon="7.09563">
        <ele>804</ele>
        <time>2022-07-26T15:02:05Z</time>
      </trkpt>
      <trkpt lat="44.08717" lon="7.09564">
        <ele>804</ele>
        <time>2022-07-26T15:02:06Z</time>
      </trkpt>
      <trkpt lat="44.08717" lon="7.09566">
        <ele>804</ele>
        <time>2022-07-26T15:02:07Z</time>
      </trkpt>
      <trkpt lat="44.08716" lon="7.09567">
        <ele>803</ele>
        <time>2022-07-26T15:02:08Z</time>
      </trkpt>
      <trkpt lat="44.08716" lon="7.09568">
        <ele>803</ele>
        <time>2022-07-26T15:02:09Z</time>
      </trkpt>
      <trkpt lat="44.08715" lon="7.09569">
        <ele>803</ele>
        <time>2022-07-26T15:02:10Z</time>
      </trkpt>
      <trkpt lat="44.08715" lon="7.0957">
        <ele>803</ele>
        <time>2022-07-26T15:02:11Z</time>
      </trkpt>
      <trkpt lat="44.08714" lon="7.09571">
        <ele>803</ele>
        <time>2022-07-26T15:02:12Z</time>
      </trkpt>
      <trkpt lat="44.08713" lon="7.09572">
        <ele>802</ele>
        <time>2022-07-26T15:02:13Z</time>
      </trkpt>
      <trkpt lat="44.08713" lon="7.09573">
        <ele>802</ele>
        <time>2022-07-26T15:02:14Z</time>
      </trkpt>
      <trkpt lat="44.08712" lon="7.09573">
        <ele>802</ele>
        <time>2022-07-26T15:02:15Z</time>
      </trkpt>
      <trkpt lat="44.08711" lon="7.09574">
        <ele>802</ele>
        <time>2022-07-26T15:02:16Z</time>
      </trkpt>
      <trkpt lat="44.0871" lon="7.09575">
        <ele>802</ele>
        <time>2022-07-26T15:02:17Z</time>
      </trkpt>
      <trkpt lat="44.0871" lon="7.09576">
        <ele>801</ele>
        <time>2022-07-26T15:02:18Z</time>
      </trkpt>
      <trkpt lat="44.08709" lon="7.09578">
        <ele>801</ele>
        <time>2022-07-26T15:02:19Z</time>
      </trkpt>
      <trkpt lat="44.08708" lon="7.09579">
        <ele>800</ele>
        <time>2022-07-26T15:02:20Z</time>
      </trkpt>
      <trkpt lat="44.08707" lon="7.0958">
        <ele>800</ele>
        <time>2022-07-26T15:02:21Z</time>
      </trkpt>
      <trkpt lat="44.08706" lon="7.09581">
        <ele>800</ele>
        <time>2022-07-26T15:02:22Z</time>
      </trkpt>
      <trkpt lat="44.08705" lon="7.09582">
        <ele>800</ele>
        <time>2022-07-26T15:02:23Z</time>
      </trkpt>
      <trkpt lat="44.08705" lon="7.09583">
        <ele>800</ele>
        <time>2022-07-26T15:02:24Z</time>
      </trkpt>
      <trkpt lat="44.08704" lon="7.09584">
        <ele>800</ele>
        <time>2022-07-26T15:02:25Z</time>
      </trkpt>
      <trkpt lat="44.08703" lon="7.09585">
        <ele>800</ele>
        <time>2022-07-26T15:02:26Z</time>
      </trkpt>
      <trkpt lat="44.08702" lon="7.09586">
        <ele>800</ele>
        <time>2022-07-26T15:02:27Z</time>
      </trkpt>
      <trkpt lat="44.08701" lon="7.09587">
        <ele>799</ele>
        <time>2022-07-26T15:02:28Z</time>
      </trkpt>
      <trkpt lat="44.08701" lon="7.09588">
        <ele>799</ele>
        <time>2022-07-26T15:02:29Z</time>
      </trkpt>
      <trkpt lat="44.087" lon="7.09589">
        <ele>799</ele>
        <time>2022-07-26T15:02:30Z</time>
      </trkpt>
      <trkpt lat="44.08699" lon="7.0959">
        <ele>799</ele>
        <time>2022-07-26T15:02:31Z</time>
      </trkpt>
      <trkpt lat="44.08698" lon="7.09591">
        <ele>799</ele>
        <time>2022-07-26T15:02:32Z</time>
      </trkpt>
      <trkpt lat="44.08698" lon="7.09592">
        <ele>798</ele>
        <time>2022-07-26T15:02:33Z</time>
      </trkpt>
      <trkpt lat="44.08697" lon="7.09593">
        <ele>798</ele>
        <time>2022-07-26T15:02:34Z</time>
      </trkpt>
      <trkpt lat="44.08696" lon="7.09594">
        <ele>798</ele>
        <time>2022-07-26T15:02:35Z</time>
      </trkpt>
      <trkpt lat="44.08695" lon="7.09595">
        <ele>798</ele>
        <time>2022-07-26T15:02:36Z</time>
      </trkpt>
      <trkpt lat="44.08694" lon="7.09596">
        <ele>798</ele>
        <time>2022-07-26T15:02:37Z</time>
      </trkpt>
      <trkpt lat="44.08693" lon="7.09596">
        <ele>797</ele>
        <time>2022-07-26T15:02:38Z</time>
      </trkpt>
      <trkpt lat="44.08693" lon="7.09597">
        <ele>797</ele>
        <time>2022-07-26T15:02:39Z</time>
      </trkpt>
      <trkpt lat="44.08691" lon="7.09597">
        <ele>797</ele>
        <time>2022-07-26T15:02:40Z</time>
      </trkpt>
      <trkpt lat="44.0869" lon="7.09598">
        <ele>797</ele>
        <time>2022-07-26T15:02:41Z</time>
      </trkpt>
      <trkpt lat="44.0869" lon="7.09599">
        <ele>797</ele>
        <time>2022-07-26T15:02:42Z</time>
      </trkpt>
      <trkpt lat="44.08689" lon="7.096">
        <ele>797</ele>
        <time>2022-07-26T15:02:43Z</time>
      </trkpt>
      <trkpt lat="44.08688" lon="7.096">
        <ele>797</ele>
        <time>2022-07-26T15:02:44Z</time>
      </trkpt>
      <trkpt lat="44.08687" lon="7.09601">
        <ele>797</ele>
        <time>2022-07-26T15:02:45Z</time>
      </trkpt>
      <trkpt lat="44.08686" lon="7.09602">
        <ele>797</ele>
        <time>2022-07-26T15:02:46Z</time>
      </trkpt>
      <trkpt lat="44.08685" lon="7.09604">
        <ele>797</ele>
        <time>2022-07-26T15:02:47Z</time>
      </trkpt>
      <trkpt lat="44.08684" lon="7.09605">
        <ele>796</ele>
        <time>2022-07-26T15:02:48Z</time>
      </trkpt>
      <trkpt lat="44.08683" lon="7.09606">
        <ele>796</ele>
        <time>2022-07-26T15:02:49Z</time>
      </trkpt>
      <trkpt lat="44.08682" lon="7.09607">
        <ele>796</ele>
        <time>2022-07-26T15:02:50Z</time>
      </trkpt>
      <trkpt lat="44.08682" lon="7.09608">
        <ele>796</ele>
        <time>2022-07-26T15:02:51Z</time>
      </trkpt>
      <trkpt lat="44.08681" lon="7.09608">
        <ele>796</ele>
        <time>2022-07-26T15:02:52Z</time>
      </trkpt>
      <trkpt lat="44.0868" lon="7.09609">
        <ele>796</ele>
        <time>2022-07-26T15:02:53Z</time>
      </trkpt>
      <trkpt lat="44.08679" lon="7.0961">
        <ele>796</ele>
        <time>2022-07-26T15:02:54Z</time>
      </trkpt>
      <trkpt lat="44.08678" lon="7.09611">
        <ele>796</ele>
        <time>2022-07-26T15:02:55Z</time>
      </trkpt>
      <trkpt lat="44.08677" lon="7.09612">
        <ele>796</ele>
        <time>2022-07-26T15:02:56Z</time>
      </trkpt>
      <trkpt lat="44.08676" lon="7.09612">
        <ele>796</ele>
        <time>2022-07-26T15:02:57Z</time>
      </trkpt>
      <trkpt lat="44.08675" lon="7.09613">
        <ele>795</ele>
        <time>2022-07-26T15:02:58Z</time>
      </trkpt>
      <trkpt lat="44.08674" lon="7.09614">
        <ele>795</ele>
        <time>2022-07-26T15:02:59Z</time>
      </trkpt>
      <trkpt lat="44.08674" lon="7.09614">
        <ele>795</ele>
        <time>2022-07-26T15:03:00Z</time>
      </trkpt>
      <trkpt lat="44.08673" lon="7.09615">
        <ele>795</ele>
        <time>2022-07-26T15:03:01Z</time>
      </trkpt>
      <trkpt lat="44.08672" lon="7.09616">
        <ele>795</ele>
        <time>2022-07-26T15:03:02Z</time>
      </trkpt>
      <trkpt lat="44.08672" lon="7.09617">
        <ele>794</ele>
        <time>2022-07-26T15:03:03Z</time>
      </trkpt>
      <trkpt lat="44.08671" lon="7.09618">
        <ele>794</ele>
        <time>2022-07-26T15:03:04Z</time>
      </trkpt>
      <trkpt lat="44.0867" lon="7.0962">
        <ele>794</ele>
        <time>2022-07-26T15:03:05Z</time>
      </trkpt>
      <trkpt lat="44.08669" lon="7.09621">
        <ele>794</ele>
        <time>2022-07-26T15:03:06Z</time>
      </trkpt>
      <trkpt lat="44.08669" lon="7.09622">
        <ele>794</ele>
        <time>2022-07-26T15:03:07Z</time>
      </trkpt>
      <trkpt lat="44.08668" lon="7.09623">
        <ele>793</ele>
        <time>2022-07-26T15:03:08Z</time>
      </trkpt>
      <trkpt lat="44.08668" lon="7.09625">
        <ele>793</ele>
        <time>2022-07-26T15:03:09Z</time>
      </trkpt>
      <trkpt lat="44.08667" lon="7.09626">
        <ele>793</ele>
        <time>2022-07-26T15:03:10Z</time>
      </trkpt>
      <trkpt lat="44.08667" lon="7.09627">
        <ele>793</ele>
        <time>2022-07-26T15:03:11Z</time>
      </trkpt>
      <trkpt lat="44.08667" lon="7.09629">
        <ele>793</ele>
        <time>2022-07-26T15:03:12Z</time>
      </trkpt>
      <trkpt lat="44.08666" lon="7.0963">
        <ele>793</ele>
        <time>2022-07-26T15:03:13Z</time>
      </trkpt>
      <trkpt lat="44.08666" lon="7.09632">
        <ele>793</ele>
        <time>2022-07-26T15:03:14Z</time>
      </trkpt>
      <trkpt lat="44.08666" lon="7.09633">
        <ele>793</ele>
        <time>2022-07-26T15:03:15Z</time>
      </trkpt>
      <trkpt lat="44.08665" lon="7.09634">
        <ele>793</ele>
        <time>2022-07-26T15:03:16Z</time>
      </trkpt>
      <trkpt lat="44.08665" lon="7.09636">
        <ele>793</ele>
        <time>2022-07-26T15:03:17Z</time>
      </trkpt>
      <trkpt lat="44.08664" lon="7.09637">
        <ele>792</ele>
        <time>2022-07-26T15:03:18Z</time>
      </trkpt>
      <trkpt lat="44.08664" lon="7.09639">
        <ele>792</ele>
        <time>2022-07-26T15:03:19Z</time>
      </trkpt>
      <trkpt lat="44.08664" lon="7.0964">
        <ele>792</ele>
        <time>2022-07-26T15:03:20Z</time>
      </trkpt>
      <trkpt lat="44.08663" lon="7.09641">
        <ele>792</ele>
        <time>2022-07-26T15:03:21Z</time>
      </trkpt>
      <trkpt lat="44.08663" lon="7.09643">
        <ele>792</ele>
        <time>2022-07-26T15:03:22Z</time>
      </trkpt>
      <trkpt lat="44.08662" lon="7.09644">
        <ele>792</ele>
        <time>2022-07-26T15:03:23Z</time>
      </trkpt>
      <trkpt lat="44.08662" lon="7.09646">
        <ele>792</ele>
        <time>2022-07-26T15:03:24Z</time>
      </trkpt>
      <trkpt lat="44.08662" lon="7.09647">
        <ele>792</ele>
        <time>2022-07-26T15:03:25Z</time>
      </trkpt>
      <trkpt lat="44.08661" lon="7.09649">
        <ele>792</ele>
        <time>2022-07-26T15:03:26Z</time>
      </trkpt>
      <trkpt lat="44.08661" lon="7.0965">
        <ele>792</ele>
        <time>2022-07-26T15:03:27Z</time>
      </trkpt>
      <trkpt lat="44.0866" lon="7.09651">
        <ele>791</ele>
        <time>2022-07-26T15:03:28Z</time>
      </trkpt>
      <trkpt lat="44.0866" lon="7.09653">
        <ele>791</ele>
        <time>2022-07-26T15:03:29Z</time>
      </trkpt>
      <trkpt lat="44.08659" lon="7.09654">
        <ele>791</ele>
        <time>2022-07-26T15:03:30Z</time>
      </trkpt>
      <trkpt lat="44.08658" lon="7.09655">
        <ele>791</ele>
        <time>2022-07-26T15:03:31Z</time>
      </trkpt>
      <trkpt lat="44.08658" lon="7.09656">
        <ele>791</ele>
        <time>2022-07-26T15:03:32Z</time>
      </trkpt>
      <trkpt lat="44.08657" lon="7.09658">
        <ele>790</ele>
        <time>2022-07-26T15:03:33Z</time>
      </trkpt>
      <trkpt lat="44.08656" lon="7.09659">
        <ele>790</ele>
        <time>2022-07-26T15:03:34Z</time>
      </trkpt>
      <trkpt lat="44.08656" lon="7.0966">
        <ele>790</ele>
        <time>2022-07-26T15:03:35Z</time>
      </trkpt>
      <trkpt lat="44.08655" lon="7.09661">
        <ele>790</ele>
        <time>2022-07-26T15:03:36Z</time>
      </trkpt>
      <trkpt lat="44.08654" lon="7.09662">
        <ele>790</ele>
        <time>2022-07-26T15:03:37Z</time>
      </trkpt>
      <trkpt lat="44.08653" lon="7.09663">
        <ele>790</ele>
        <time>2022-07-26T15:03:38Z</time>
      </trkpt>
      <trkpt lat="44.08652" lon="7.09664">
        <ele>790</ele>
        <time>2022-07-26T15:03:39Z</time>
      </trkpt>
      <trkpt lat="44.08652" lon="7.09665">
        <ele>790</ele>
        <time>2022-07-26T15:03:40Z</time>
      </trkpt>
      <trkpt lat="44.08651" lon="7.09666">
        <ele>790</ele>
        <time>2022-07-26T15:03:41Z</time>
      </trkpt>
      <trkpt lat="44.0865" lon="7.09667">
        <ele>790</ele>
        <time>2022-07-26T15:03:42Z</time>
      </trkpt>
      <trkpt lat="44.0865" lon="7.09668">
        <ele>789</ele>
        <time>2022-07-26T15:03:43Z</time>
      </trkpt>
      <trkpt lat="44.08649" lon="7.09669">
        <ele>789</ele>
        <time>2022-07-26T15:03:44Z</time>
      </trkpt>
      <trkpt lat="44.08648" lon="7.0967">
        <ele>789</ele>
        <time>2022-07-26T15:03:45Z</time>
      </trkpt>
      <trkpt lat="44.08648" lon="7.09671">
        <ele>789</ele>
        <time>2022-07-26T15:03:46Z</time>
      </trkpt>
      <trkpt lat="44.08647" lon="7.09672">
        <ele>789</ele>
        <time>2022-07-26T15:03:47Z</time>
      </trkpt>
      <trkpt lat="44.08647" lon="7.09673">
        <ele>788</ele>
        <time>2022-07-26T15:03:48Z</time>
      </trkpt>
      <trkpt lat="44.08646" lon="7.09674">
        <ele>788</ele>
        <time>2022-07-26T15:03:49Z</time>
      </trkpt>
      <trkpt lat="44.08646" lon="7.09676">
        <ele>788</ele>
        <time>2022-07-26T15:03:50Z</time>
      </trkpt>
      <trkpt lat="44.08645" lon="7.09677">
        <ele>788</ele>
        <time>2022-07-26T15:03:51Z</time>
      </trkpt>
      <trkpt lat="44.08644" lon="7.09678">
        <ele>788</ele>
        <time>2022-07-26T15:03:52Z</time>
      </trkpt>
      <trkpt lat="44.08644" lon="7.09679">
        <ele>787</ele>
        <time>2022-07-26T15:03:53Z</time>
      </trkpt>
      <trkpt lat="44.08643" lon="7.0968">
        <ele>787</ele>
        <time>2022-07-26T15:03:54Z</time>
      </trkpt>
      <trkpt lat="44.08643" lon="7.0968">
        <ele>787</ele>
        <time>2022-07-26T15:03:55Z</time>
      </trkpt>
      <trkpt lat="44.08642" lon="7.09681">
        <ele>787</ele>
        <time>2022-07-26T15:03:56Z</time>
      </trkpt>
      <trkpt lat="44.08641" lon="7.09682">
        <ele>787</ele>
        <time>2022-07-26T15:03:57Z</time>
      </trkpt>
      <trkpt lat="44.0864" lon="7.09683">
        <ele>787</ele>
        <time>2022-07-26T15:03:58Z</time>
      </trkpt>
      <trkpt lat="44.08639" lon="7.09683">
        <ele>787</ele>
        <time>2022-07-26T15:03:59Z</time>
      </trkpt>
      <trkpt lat="44.08638" lon="7.09684">
        <ele>787</ele>
        <time>2022-07-26T15:04:00Z</time>
      </trkpt>
      <trkpt lat="44.08637" lon="7.09685">
        <ele>787</ele>
        <time>2022-07-26T15:04:01Z</time>
      </trkpt>
      <trkpt lat="44.08636" lon="7.09686">
        <ele>787</ele>
        <time>2022-07-26T15:04:02Z</time>
      </trkpt>
      <trkpt lat="44.08635" lon="7.09686">
        <ele>786</ele>
        <time>2022-07-26T15:04:03Z</time>
      </trkpt>
      <trkpt lat="44.08634" lon="7.09687">
        <ele>786</ele>
        <time>2022-07-26T15:04:04Z</time>
      </trkpt>
      <trkpt lat="44.08633" lon="7.09687">
        <ele>786</ele>
        <time>2022-07-26T15:04:05Z</time>
      </trkpt>
      <trkpt lat="44.08632" lon="7.09688">
        <ele>786</ele>
        <time>2022-07-26T15:04:06Z</time>
      </trkpt>
      <trkpt lat="44.08632" lon="7.09689">
        <ele>786</ele>
        <time>2022-07-26T15:04:07Z</time>
      </trkpt>
      <trkpt lat="44.0863" lon="7.09689">
        <ele>785</ele>
        <time>2022-07-26T15:04:08Z</time>
      </trkpt>
      <trkpt lat="44.08629" lon="7.0969">
        <ele>785</ele>
        <time>2022-07-26T15:04:09Z</time>
      </trkpt>
      <trkpt lat="44.08628" lon="7.0969">
        <ele>785</ele>
        <time>2022-07-26T15:04:10Z</time>
      </trkpt>
      <trkpt lat="44.08627" lon="7.09691">
        <ele>785</ele>
        <time>2022-07-26T15:04:11Z</time>
      </trkpt>
      <trkpt lat="44.08626" lon="7.09692">
        <ele>785</ele>
        <time>2022-07-26T15:04:12Z</time>
      </trkpt>
      <trkpt lat="44.08625" lon="7.09693">
        <ele>784</ele>
        <time>2022-07-26T15:04:13Z</time>
      </trkpt>
      <trkpt lat="44.08624" lon="7.09694">
        <ele>784</ele>
        <time>2022-07-26T15:04:14Z</time>
      </trkpt>
      <trkpt lat="44.08623" lon="7.09695">
        <ele>783</ele>
        <time>2022-07-26T15:04:15Z</time>
      </trkpt>
      <trkpt lat="44.08622" lon="7.09696">
        <ele>783</ele>
        <time>2022-07-26T15:04:16Z</time>
      </trkpt>
      <trkpt lat="44.08621" lon="7.09697">
        <ele>783</ele>
        <time>2022-07-26T15:04:17Z</time>
      </trkpt>
      <trkpt lat="44.0862" lon="7.09699">
        <ele>782</ele>
        <time>2022-07-26T15:04:18Z</time>
      </trkpt>
      <trkpt lat="44.0862" lon="7.097">
        <ele>782</ele>
        <time>2022-07-26T15:04:19Z</time>
      </trkpt>
      <trkpt lat="44.08619" lon="7.09702">
        <ele>782</ele>
        <time>2022-07-26T15:04:20Z</time>
      </trkpt>
      <trkpt lat="44.08618" lon="7.09703">
        <ele>782</ele>
        <time>2022-07-26T15:04:21Z</time>
      </trkpt>
      <trkpt lat="44.08618" lon="7.09705">
        <ele>782</ele>
        <time>2022-07-26T15:04:22Z</time>
      </trkpt>
      <trkpt lat="44.08617" lon="7.09707">
        <ele>781</ele>
        <time>2022-07-26T15:04:23Z</time>
      </trkpt>
      <trkpt lat="44.08616" lon="7.09708">
        <ele>781</ele>
        <time>2022-07-26T15:04:24Z</time>
      </trkpt>
      <trkpt lat="44.08615" lon="7.0971">
        <ele>781</ele>
        <time>2022-07-26T15:04:25Z</time>
      </trkpt>
      <trkpt lat="44.08615" lon="7.09711">
        <ele>781</ele>
        <time>2022-07-26T15:04:26Z</time>
      </trkpt>
      <trkpt lat="44.08614" lon="7.09713">
        <ele>781</ele>
        <time>2022-07-26T15:04:27Z</time>
      </trkpt>
      <trkpt lat="44.08614" lon="7.09714">
        <ele>780</ele>
        <time>2022-07-26T15:04:28Z</time>
      </trkpt>
      <trkpt lat="44.08614" lon="7.09716">
        <ele>780</ele>
        <time>2022-07-26T15:04:29Z</time>
      </trkpt>
      <trkpt lat="44.08615" lon="7.09718">
        <ele>780</ele>
        <time>2022-07-26T15:04:30Z</time>
      </trkpt>
      <trkpt lat="44.08615" lon="7.09719">
        <ele>780</ele>
        <time>2022-07-26T15:04:31Z</time>
      </trkpt>
      <trkpt lat="44.08616" lon="7.09721">
        <ele>780</ele>
        <time>2022-07-26T15:04:32Z</time>
      </trkpt>
      <trkpt lat="44.08616" lon="7.09723">
        <ele>780</ele>
        <time>2022-07-26T15:04:33Z</time>
      </trkpt>
      <trkpt lat="44.08617" lon="7.09724">
        <ele>780</ele>
        <time>2022-07-26T15:04:34Z</time>
      </trkpt>
      <trkpt lat="44.08618" lon="7.09725">
        <ele>780</ele>
        <time>2022-07-26T15:04:35Z</time>
      </trkpt>
      <trkpt lat="44.08619" lon="7.09726">
        <ele>780</ele>
        <time>2022-07-26T15:04:36Z</time>
      </trkpt>
      <trkpt lat="44.0862" lon="7.09727">
        <ele>780</ele>
        <time>2022-07-26T15:04:37Z</time>
      </trkpt>
      <trkpt lat="44.0862" lon="7.09728">
        <ele>779</ele>
        <time>2022-07-26T15:04:38Z</time>
      </trkpt>
      <trkpt lat="44.08621" lon="7.09729">
        <ele>779</ele>
        <time>2022-07-26T15:04:39Z</time>
      </trkpt>
      <trkpt lat="44.08622" lon="7.0973">
        <ele>779</ele>
        <time>2022-07-26T15:04:40Z</time>
      </trkpt>
      <trkpt lat="44.08622" lon="7.09732">
        <ele>779</ele>
        <time>2022-07-26T15:04:41Z</time>
      </trkpt>
      <trkpt lat="44.08622" lon="7.09733">
        <ele>779</ele>
        <time>2022-07-26T15:04:42Z</time>
      </trkpt>
      <trkpt lat="44.08623" lon="7.09735">
        <ele>778</ele>
        <time>2022-07-26T15:04:43Z</time>
      </trkpt>
      <trkpt lat="44.08623" lon="7.09736">
        <ele>778</ele>
        <time>2022-07-26T15:04:44Z</time>
      </trkpt>
      <trkpt lat="44.08623" lon="7.09737">
        <ele>778</ele>
        <time>2022-07-26T15:04:45Z</time>
      </trkpt>
      <trkpt lat="44.08624" lon="7.09739">
        <ele>778</ele>
        <time>2022-07-26T15:04:46Z</time>
      </trkpt>
      <trkpt lat="44.08624" lon="7.0974">
        <ele>778</ele>
        <time>2022-07-26T15:04:47Z</time>
      </trkpt>
      <trkpt lat="44.08625" lon="7.09741">
        <ele>778</ele>
        <time>2022-07-26T15:04:48Z</time>
      </trkpt>
      <trkpt lat="44.08625" lon="7.09743">
        <ele>778</ele>
        <time>2022-07-26T15:04:49Z</time>
      </trkpt>
      <trkpt lat="44.08626" lon="7.09744">
        <ele>778</ele>
        <time>2022-07-26T15:04:50Z</time>
      </trkpt>
      <trkpt lat="44.08626" lon="7.09745">
        <ele>778</ele>
        <time>2022-07-26T15:04:51Z</time>
      </trkpt>
      <trkpt lat="44.08627" lon="7.09747">
        <ele>778</ele>
        <time>2022-07-26T15:04:52Z</time>
      </trkpt>
      <trkpt lat="44.08627" lon="7.09748">
        <ele>777</ele>
        <time>2022-07-26T15:04:53Z</time>
      </trkpt>
      <trkpt lat="44.08628" lon="7.0975">
        <ele>777</ele>
        <time>2022-07-26T15:04:54Z</time>
      </trkpt>
      <trkpt lat="44.08629" lon="7.09751">
        <ele>777</ele>
        <time>2022-07-26T15:04:55Z</time>
      </trkpt>
      <trkpt lat="44.0863" lon="7.09753">
        <ele>777</ele>
        <time>2022-07-26T15:04:56Z</time>
      </trkpt>
      <trkpt lat="44.0863" lon="7.09754">
        <ele>777</ele>
        <time>2022-07-26T15:04:57Z</time>
      </trkpt>
      <trkpt lat="44.08631" lon="7.09755">
        <ele>776</ele>
        <time>2022-07-26T15:04:58Z</time>
      </trkpt>
      <trkpt lat="44.08631" lon="7.09757">
        <ele>776</ele>
        <time>2022-07-26T15:04:59Z</time>
      </trkpt>
      <trkpt lat="44.08632" lon="7.09758">
        <ele>776</ele>
        <time>2022-07-26T15:05:00Z</time>
      </trkpt>
      <trkpt lat="44.08632" lon="7.0976">
        <ele>776</ele>
        <time>2022-07-26T15:05:01Z</time>
      </trkpt>
      <trkpt lat="44.08632" lon="7.09761">
        <ele>776</ele>
        <time>2022-07-26T15:05:02Z</time>
      </trkpt>
      <trkpt lat="44.08633" lon="7.09763">
        <ele>776</ele>
        <time>2022-07-26T15:05:03Z</time>
      </trkpt>
      <trkpt lat="44.08633" lon="7.09765">
        <ele>776</ele>
        <time>2022-07-26T15:05:04Z</time>
      </trkpt>
      <trkpt lat="44.08634" lon="7.09766">
        <ele>776</ele>
        <time>2022-07-26T15:05:05Z</time>
      </trkpt>
      <trkpt lat="44.08634" lon="7.09768">
        <ele>776</ele>
        <time>2022-07-26T15:05:06Z</time>
      </trkpt>
      <trkpt lat="44.08635" lon="7.09769">
        <ele>776</ele>
        <time>2022-07-26T15:05:07Z</time>
      </trkpt>
      <trkpt lat="44.08636" lon="7.0977">
        <ele>775</ele>
        <time>2022-07-26T15:05:08Z</time>
      </trkpt>
      <trkpt lat="44.08636" lon="7.09771">
        <ele>775</ele>
        <time>2022-07-26T15:05:09Z</time>
      </trkpt>
      <trkpt lat="44.08637" lon="7.09772">
        <ele>775</ele>
        <time>2022-07-26T15:05:10Z</time>
      </trkpt>
      <trkpt lat="44.08638" lon="7.09773">
        <ele>775</ele>
        <time>2022-07-26T15:05:11Z</time>
      </trkpt>
      <trkpt lat="44.08639" lon="7.09774">
        <ele>775</ele>
        <time>2022-07-26T15:05:12Z</time>
      </trkpt>
      <trkpt lat="44.0864" lon="7.09775">
        <ele>774</ele>
        <time>2022-07-26T15:05:13Z</time>
      </trkpt>
      <trkpt lat="44.08641" lon="7.09776">
        <ele>774</ele>
        <time>2022-07-26T15:05:14Z</time>
      </trkpt>
      <trkpt lat="44.08642" lon="7.09777">
        <ele>774</ele>
        <time>2022-07-26T15:05:15Z</time>
      </trkpt>
      <trkpt lat="44.08643" lon="7.09778">
        <ele>774</ele>
        <time>2022-07-26T15:05:16Z</time>
      </trkpt>
      <trkpt lat="44.08644" lon="7.09779">
        <ele>774</ele>
        <time>2022-07-26T15:05:17Z</time>
      </trkpt>
      <trkpt lat="44.08645" lon="7.09779">
        <ele>774</ele>
        <time>2022-07-26T15:05:18Z</time>
      </trkpt>
      <trkpt lat="44.08646" lon="7.0978">
        <ele>774</ele>
        <time>2022-07-26T15:05:19Z</time>
      </trkpt>
      <trkpt lat="44.08648" lon="7.0978">
        <ele>774</ele>
        <time>2022-07-26T15:05:20Z</time>
      </trkpt>
      <trkpt lat="44.08649" lon="7.09781">
        <ele>774</ele>
        <time>2022-07-26T15:05:21Z</time>
      </trkpt>
      <trkpt lat="44.0865" lon="7.09781">
        <ele>774</ele>
        <time>2022-07-26T15:05:22Z</time>
      </trkpt>
      <trkpt lat="44.08651" lon="7.09782">
        <ele>773</ele>
        <time>2022-07-26T15:05:23Z</time>
      </trkpt>
      <trkpt lat="44.08652" lon="7.09783">
        <ele>773</ele>
        <time>2022-07-26T15:05:24Z</time>
      </trkpt>
      <trkpt lat="44.08653" lon="7.09784">
        <ele>773</ele>
        <time>2022-07-26T15:05:25Z</time>
      </trkpt>
      <trkpt lat="44.08654" lon="7.09785">
        <ele>773</ele>
        <time>2022-07-26T15:05:26Z</time>
      </trkpt>
      <trkpt lat="44.08654" lon="7.09785">
        <ele>773</ele>
        <time>2022-07-26T15:05:27Z</time>
      </trkpt>
      <trkpt lat="44.08655" lon="7.09787">
        <ele>773</ele>
        <time>2022-07-26T15:05:28Z</time>
      </trkpt>
      <trkpt lat="44.08655" lon="7.09788">
        <ele>773</ele>
        <time>2022-07-26T15:05:29Z</time>
      </trkpt>
      <trkpt lat="44.08656" lon="7.0979">
        <ele>773</ele>
        <time>2022-07-26T15:05:30Z</time>
      </trkpt>
      <trkpt lat="44.08656" lon="7.09791">
        <ele>773</ele>
        <time>2022-07-26T15:05:31Z</time>
      </trkpt>
      <trkpt lat="44.08657" lon="7.09793">
        <ele>773</ele>
        <time>2022-07-26T15:05:32Z</time>
      </trkpt>
      <trkpt lat="44.08657" lon="7.09794">
        <ele>772</ele>
        <time>2022-07-26T15:05:33Z</time>
      </trkpt>
      <trkpt lat="44.08657" lon="7.09796">
        <ele>772</ele>
        <time>2022-07-26T15:05:34Z</time>
      </trkpt>
      <trkpt lat="44.08657" lon="7.09798">
        <ele>772</ele>
        <time>2022-07-26T15:05:35Z</time>
      </trkpt>
      <trkpt lat="44.08658" lon="7.09799">
        <ele>772</ele>
        <time>2022-07-26T15:05:36Z</time>
      </trkpt>
      <trkpt lat="44.08658" lon="7.09801">
        <ele>772</ele>
        <time>2022-07-26T15:05:37Z</time>
      </trkpt>
      <trkpt lat="44.08659" lon="7.09802">
        <ele>771</ele>
        <time>2022-07-26T15:05:38Z</time>
      </trkpt>
      <trkpt lat="44.08659" lon="7.09804">
        <ele>771</ele>
        <time>2022-07-26T15:05:39Z</time>
      </trkpt>
      <trkpt lat="44.0866" lon="7.09806">
        <ele>771</ele>
        <time>2022-07-26T15:05:40Z</time>
      </trkpt>
      <trkpt lat="44.0866" lon="7.09807">
        <ele>771</ele>
        <time>2022-07-26T15:05:41Z</time>
      </trkpt>
      <trkpt lat="44.08661" lon="7.09809">
        <ele>771</ele>
        <time>2022-07-26T15:05:42Z</time>
      </trkpt>
      <trkpt lat="44.08662" lon="7.09811">
        <ele>770</ele>
        <time>2022-07-26T15:05:43Z</time>
      </trkpt>
      <trkpt lat="44.08662" lon="7.09812">
        <ele>770</ele>
        <time>2022-07-26T15:05:44Z</time>
      </trkpt>
      <trkpt lat="44.08663" lon="7.09813">
        <ele>770</ele>
        <time>2022-07-26T15:05:45Z</time>
      </trkpt>
      <trkpt lat="44.08664" lon="7.09814">
        <ele>770</ele>
        <time>2022-07-26T15:05:46Z</time>
      </trkpt>
      <trkpt lat="44.08664" lon="7.09815">
        <ele>770</ele>
        <time>2022-07-26T15:05:47Z</time>
      </trkpt>
      <trkpt lat="44.08665" lon="7.09816">
        <ele>770</ele>
        <time>2022-07-26T15:05:48Z</time>
      </trkpt>
      <trkpt lat="44.08665" lon="7.09817">
        <ele>770</ele>
        <time>2022-07-26T15:05:49Z</time>
      </trkpt>
      <trkpt lat="44.08665" lon="7.09817">
        <ele>770</ele>
        <time>2022-07-26T15:05:50Z</time>
      </trkpt>
      <trkpt lat="44.08665" lon="7.09817">
        <ele>770</ele>
        <time>2022-07-26T15:05:51Z</time>
      </trkpt>
      <trkpt lat="44.08664" lon="7.09817">
        <ele>770</ele>
        <time>2022-07-26T15:05:52Z</time>
      </trkpt>
      <trkpt lat="44.08663" lon="7.09817">
        <ele>769</ele>
        <time>2022-07-26T15:05:53Z</time>
      </trkpt>
      <trkpt lat="44.08663" lon="7.09816">
        <ele>769</ele>
        <time>2022-07-26T15:05:54Z</time>
      </trkpt>
      <trkpt lat="44.08662" lon="7.09815">
        <ele>769</ele>
        <time>2022-07-26T15:05:55Z</time>
      </trkpt>
      <trkpt lat="44.08661" lon="7.09814">
        <ele>769</ele>
        <time>2022-07-26T15:05:56Z</time>
      </trkpt>
      <trkpt lat="44.0866" lon="7.09813">
        <ele>769</ele>
        <time>2022-07-26T15:05:57Z</time>
      </trkpt>
      <trkpt lat="44.08659" lon="7.09811">
        <ele>768</ele>
        <time>2022-07-26T15:05:58Z</time>
      </trkpt>
      <trkpt lat="44.08659" lon="7.0981">
        <ele>768</ele>
        <time>2022-07-26T15:05:59Z</time>
      </trkpt>
      <trkpt lat="44.08658" lon="7.09809">
        <ele>768</ele>
        <time>2022-07-26T15:06:00Z</time>
      </trkpt>
      <trkpt lat="44.08657" lon="7.09808">
        <ele>768</ele>
        <time>2022-07-26T15:06:01Z</time>
      </trkpt>
      <trkpt lat="44.08656" lon="7.09807">
        <ele>768</ele>
        <time>2022-07-26T15:06:02Z</time>
      </trkpt>
      <trkpt lat="44.08655" lon="7.09806">
        <ele>767</ele>
        <time>2022-07-26T15:06:03Z</time>
      </trkpt>
      <trkpt lat="44.08654" lon="7.09805">
        <ele>767</ele>
        <time>2022-07-26T15:06:04Z</time>
      </trkpt>
      <trkpt lat="44.08654" lon="7.09804">
        <ele>766</ele>
        <time>2022-07-26T15:06:05Z</time>
      </trkpt>
      <trkpt lat="44.08653" lon="7.09803">
        <ele>766</ele>
        <time>2022-07-26T15:06:06Z</time>
      </trkpt>
      <trkpt lat="44.08653" lon="7.09801">
        <ele>766</ele>
        <time>2022-07-26T15:06:07Z</time>
      </trkpt>
      <trkpt lat="44.08652" lon="7.098">
        <ele>766</ele>
        <time>2022-07-26T15:06:08Z</time>
      </trkpt>
      <trkpt lat="44.08651" lon="7.09798">
        <ele>766</ele>
        <time>2022-07-26T15:06:09Z</time>
      </trkpt>
      <trkpt lat="44.08651" lon="7.09797">
        <ele>766</ele>
        <time>2022-07-26T15:06:10Z</time>
      </trkpt>
      <trkpt lat="44.0865" lon="7.09796">
        <ele>766</ele>
        <time>2022-07-26T15:06:11Z</time>
      </trkpt>
      <trkpt lat="44.08649" lon="7.09796">
        <ele>766</ele>
        <time>2022-07-26T15:06:12Z</time>
      </trkpt>
      <trkpt lat="44.08649" lon="7.09796">
        <ele>765</ele>
        <time>2022-07-26T15:06:13Z</time>
      </trkpt>
      <trkpt lat="44.08648" lon="7.09797">
        <ele>765</ele>
        <time>2022-07-26T15:06:14Z</time>
      </trkpt>
      <trkpt lat="44.08648" lon="7.09797">
        <ele>765</ele>
        <time>2022-07-26T15:06:15Z</time>
      </trkpt>
      <trkpt lat="44.08649" lon="7.09798">
        <ele>765</ele>
        <time>2022-07-26T15:06:16Z</time>
      </trkpt>
      <trkpt lat="44.08649" lon="7.09799">
        <ele>765</ele>
        <time>2022-07-26T15:06:17Z</time>
      </trkpt>
      <trkpt lat="44.08649" lon="7.098">
        <ele>764</ele>
        <time>2022-07-26T15:06:18Z</time>
      </trkpt>
      <trkpt lat="44.0865" lon="7.09802">
        <ele>764</ele>
        <time>2022-07-26T15:06:19Z</time>
      </trkpt>
      <trkpt lat="44.0865" lon="7.09803">
        <ele>764</ele>
        <time>2022-07-26T15:06:20Z</time>
      </trkpt>
      <trkpt lat="44.0865" lon="7.09804">
        <ele>764</ele>
        <time>2022-07-26T15:06:21Z</time>
      </trkpt>
      <trkpt lat="44.0865" lon="7.09805">
        <ele>764</ele>
        <time>2022-07-26T15:06:22Z</time>
      </trkpt>
      <trkpt lat="44.0865" lon="7.09806">
        <ele>763</ele>
        <time>2022-07-26T15:06:23Z</time>
      </trkpt>
      <trkpt lat="44.0865" lon="7.09807">
        <ele>763</ele>
        <time>2022-07-26T15:06:24Z</time>
      </trkpt>
      <trkpt lat="44.0865" lon="7.09808">
        <ele>763</ele>
        <time>2022-07-26T15:06:25Z</time>
      </trkpt>
      <trkpt lat="44.0865" lon="7.09809">
        <ele>763</ele>
        <time>2022-07-26T15:06:26Z</time>
      </trkpt>
      <trkpt lat="44.08651" lon="7.09811">
        <ele>763</ele>
        <time>2022-07-26T15:06:27Z</time>
      </trkpt>
      <trkpt lat="44.08651" lon="7.09812">
        <ele>762</ele>
        <time>2022-07-26T15:06:28Z</time>
      </trkpt>
      <trkpt lat="44.08651" lon="7.09813">
        <ele>762</ele>
        <time>2022-07-26T15:06:29Z</time>
      </trkpt>
      <trkpt lat="44.08651" lon="7.09813">
        <ele>762</ele>
        <time>2022-07-26T15:06:30Z</time>
      </trkpt>
      <trkpt lat="44.08652" lon="7.09814">
        <ele>762</ele>
        <time>2022-07-26T15:06:31Z</time>
      </trkpt>
      <trkpt lat="44.08652" lon="7.09815">
        <ele>762</ele>
        <time>2022-07-26T15:06:32Z</time>
      </trkpt>
      <trkpt lat="44.08652" lon="7.09815">
        <ele>762</ele>
        <time>2022-07-26T15:06:33Z</time>
      </trkpt>
      <trkpt lat="44.08652" lon="7.09816">
        <ele>762</ele>
        <time>2022-07-26T15:06:34Z</time>
      </trkpt>
      <trkpt lat="44.08653" lon="7.09817">
        <ele>762</ele>
        <time>2022-07-26T15:06:35Z</time>
      </trkpt>
      <trkpt lat="44.08653" lon="7.09818">
        <ele>762</ele>
        <time>2022-07-26T15:06:36Z</time>
      </trkpt>
      <trkpt lat="44.08653" lon="7.0982">
        <ele>762</ele>
        <time>2022-07-26T15:06:37Z</time>
      </trkpt>
      <trkpt lat="44.08654" lon="7.09821">
        <ele>761</ele>
        <time>2022-07-26T15:06:38Z</time>
      </trkpt>
      <trkpt lat="44.08654" lon="7.09823">
        <ele>761</ele>
        <time>2022-07-26T15:06:39Z</time>
      </trkpt>
      <trkpt lat="44.08655" lon="7.09824">
        <ele>761</ele>
        <time>2022-07-26T15:06:40Z</time>
      </trkpt>
      <trkpt lat="44.08655" lon="7.09826">
        <ele>761</ele>
        <time>2022-07-26T15:06:41Z</time>
      </trkpt>
      <trkpt lat="44.08656" lon="7.09828">
        <ele>761</ele>
        <time>2022-07-26T15:06:42Z</time>
      </trkpt>
      <trkpt lat="44.08656" lon="7.09829">
        <ele>760</ele>
        <time>2022-07-26T15:06:43Z</time>
      </trkpt>
      <trkpt lat="44.08657" lon="7.09831">
        <ele>760</ele>
        <time>2022-07-26T15:06:44Z</time>
      </trkpt>
      <trkpt lat="44.08657" lon="7.09832">
        <ele>760</ele>
        <time>2022-07-26T15:06:45Z</time>
      </trkpt>
      <trkpt lat="44.08657" lon="7.09833">
        <ele>760</ele>
        <time>2022-07-26T15:06:46Z</time>
      </trkpt>
      <trkpt lat="44.08658" lon="7.09835">
        <ele>760</ele>
        <time>2022-07-26T15:06:47Z</time>
      </trkpt>
      <trkpt lat="44.08658" lon="7.09836">
        <ele>759</ele>
        <time>2022-07-26T15:06:48Z</time>
      </trkpt>
      <trkpt lat="44.08658" lon="7.09837">
        <ele>759</ele>
        <time>2022-07-26T15:06:49Z</time>
      </trkpt>
      <trkpt lat="44.08658" lon="7.09839">
        <ele>759</ele>
        <time>2022-07-26T15:06:50Z</time>
      </trkpt>
      <trkpt lat="44.08658" lon="7.0984">
        <ele>759</ele>
        <time>2022-07-26T15:06:51Z</time>
      </trkpt>
      <trkpt lat="44.08658" lon="7.09841">
        <ele>759</ele>
        <time>2022-07-26T15:06:52Z</time>
      </trkpt>
      <trkpt lat="44.08657" lon="7.09843">
        <ele>758</ele>
        <time>2022-07-26T15:06:53Z</time>
      </trkpt>
      <trkpt lat="44.08657" lon="7.09844">
        <ele>758</ele>
        <time>2022-07-26T15:06:54Z</time>
      </trkpt>
      <trkpt lat="44.08656" lon="7.09845">
        <ele>758</ele>
        <time>2022-07-26T15:06:55Z</time>
      </trkpt>
      <trkpt lat="44.08656" lon="7.09847">
        <ele>758</ele>
        <time>2022-07-26T15:06:56Z</time>
      </trkpt>
      <trkpt lat="44.08656" lon="7.09848">
        <ele>758</ele>
        <time>2022-07-26T15:06:57Z</time>
      </trkpt>
      <trkpt lat="44.08656" lon="7.09849">
        <ele>757</ele>
        <time>2022-07-26T15:06:58Z</time>
      </trkpt>
      <trkpt lat="44.08656" lon="7.09851">
        <ele>757</ele>
        <time>2022-07-26T15:06:59Z</time>
      </trkpt>
      <trkpt lat="44.08656" lon="7.09852">
        <ele>757</ele>
        <time>2022-07-26T15:07:00Z</time>
      </trkpt>
      <trkpt lat="44.08656" lon="7.09854">
        <ele>757</ele>
        <time>2022-07-26T15:07:01Z</time>
      </trkpt>
      <trkpt lat="44.08656" lon="7.09855">
        <ele>757</ele>
        <time>2022-07-26T15:07:02Z</time>
      </trkpt>
      <trkpt lat="44.08656" lon="7.09857">
        <ele>756</ele>
        <time>2022-07-26T15:07:03Z</time>
      </trkpt>
      <trkpt lat="44.08656" lon="7.09858">
        <ele>756</ele>
        <time>2022-07-26T15:07:04Z</time>
      </trkpt>
      <trkpt lat="44.08657" lon="7.09859">
        <ele>755</ele>
        <time>2022-07-26T15:07:05Z</time>
      </trkpt>
      <trkpt lat="44.08657" lon="7.0986">
        <ele>755</ele>
        <time>2022-07-26T15:07:06Z</time>
      </trkpt>
      <trkpt lat="44.08657" lon="7.09861">
        <ele>755</ele>
        <time>2022-07-26T15:07:07Z</time>
      </trkpt>
      <trkpt lat="44.08658" lon="7.09862">
        <ele>754</ele>
        <time>2022-07-26T15:07:08Z</time>
      </trkpt>
      <trkpt lat="44.08658" lon="7.09863">
        <ele>754</ele>
        <time>2022-07-26T15:07:09Z</time>
      </trkpt>
      <trkpt lat="44.08658" lon="7.09864">
        <ele>754</ele>
        <time>2022-07-26T15:07:10Z</time>
      </trkpt>
      <trkpt lat="44.08659" lon="7.09865">
        <ele>754</ele>
        <time>2022-07-26T15:07:11Z</time>
      </trkpt>
      <trkpt lat="44.0866" lon="7.09866">
        <ele>754</ele>
        <time>2022-07-26T15:07:12Z</time>
      </trkpt>
      <trkpt lat="44.0866" lon="7.09867">
        <ele>753</ele>
        <time>2022-07-26T15:07:13Z</time>
      </trkpt>
      <trkpt lat="44.08661" lon="7.09868">
        <ele>753</ele>
        <time>2022-07-26T15:07:14Z</time>
      </trkpt>
      <trkpt lat="44.08662" lon="7.09869">
        <ele>753</ele>
        <time>2022-07-26T15:07:15Z</time>
      </trkpt>
      <trkpt lat="44.08662" lon="7.09871">
        <ele>753</ele>
        <time>2022-07-26T15:07:16Z</time>
      </trkpt>
      <trkpt lat="44.08663" lon="7.09872">
        <ele>753</ele>
        <time>2022-07-26T15:07:17Z</time>
      </trkpt>
      <trkpt lat="44.08663" lon="7.09873">
        <ele>752</ele>
        <time>2022-07-26T15:07:18Z</time>
      </trkpt>
      <trkpt lat="44.08664" lon="7.09875">
        <ele>752</ele>
        <time>2022-07-26T15:07:19Z</time>
      </trkpt>
      <trkpt lat="44.08664" lon="7.09877">
        <ele>752</ele>
        <time>2022-07-26T15:07:20Z</time>
      </trkpt>
      <trkpt lat="44.08664" lon="7.09878">
        <ele>752</ele>
        <time>2022-07-26T15:07:21Z</time>
      </trkpt>
      <trkpt lat="44.08665" lon="7.0988">
        <ele>752</ele>
        <time>2022-07-26T15:07:22Z</time>
      </trkpt>
      <trkpt lat="44.08665" lon="7.09881">
        <ele>751</ele>
        <time>2022-07-26T15:07:23Z</time>
      </trkpt>
      <trkpt lat="44.08666" lon="7.09883">
        <ele>751</ele>
        <time>2022-07-26T15:07:24Z</time>
      </trkpt>
      <trkpt lat="44.08666" lon="7.09884">
        <ele>751</ele>
        <time>2022-07-26T15:07:25Z</time>
      </trkpt>
      <trkpt lat="44.08667" lon="7.09885">
        <ele>751</ele>
        <time>2022-07-26T15:07:26Z</time>
      </trkpt>
      <trkpt lat="44.08667" lon="7.09886">
        <ele>751</ele>
        <time>2022-07-26T15:07:27Z</time>
      </trkpt>
      <trkpt lat="44.08668" lon="7.09887">
        <ele>750</ele>
        <time>2022-07-26T15:07:28Z</time>
      </trkpt>
      <trkpt lat="44.08668" lon="7.09888">
        <ele>750</ele>
        <time>2022-07-26T15:07:29Z</time>
      </trkpt>
      <trkpt lat="44.08668" lon="7.09889">
        <ele>749</ele>
        <time>2022-07-26T15:07:30Z</time>
      </trkpt>
      <trkpt lat="44.08669" lon="7.09889">
        <ele>749</ele>
        <time>2022-07-26T15:07:31Z</time>
      </trkpt>
      <trkpt lat="44.0867" lon="7.0989">
        <ele>749</ele>
        <time>2022-07-26T15:07:32Z</time>
      </trkpt>
      <trkpt lat="44.0867" lon="7.09891">
        <ele>748</ele>
        <time>2022-07-26T15:07:33Z</time>
      </trkpt>
      <trkpt lat="44.08671" lon="7.09892">
        <ele>748</ele>
        <time>2022-07-26T15:07:34Z</time>
      </trkpt>
      <trkpt lat="44.08672" lon="7.09892">
        <ele>748</ele>
        <time>2022-07-26T15:07:35Z</time>
      </trkpt>
      <trkpt lat="44.08672" lon="7.09893">
        <ele>748</ele>
        <time>2022-07-26T15:07:36Z</time>
      </trkpt>
      <trkpt lat="44.08673" lon="7.09894">
        <ele>748</ele>
        <time>2022-07-26T15:07:37Z</time>
      </trkpt>
      <trkpt lat="44.08673" lon="7.09894">
        <ele>747</ele>
        <time>2022-07-26T15:07:38Z</time>
      </trkpt>
      <trkpt lat="44.08673" lon="7.09895">
        <ele>747</ele>
        <time>2022-07-26T15:07:39Z</time>
      </trkpt>
      <trkpt lat="44.08673" lon="7.09896">
        <ele>747</ele>
        <time>2022-07-26T15:07:40Z</time>
      </trkpt>
      <trkpt lat="44.08672" lon="7.09896">
        <ele>747</ele>
        <time>2022-07-26T15:07:41Z</time>
      </trkpt>
      <trkpt lat="44.08671" lon="7.09896">
        <ele>747</ele>
        <time>2022-07-26T15:07:42Z</time>
      </trkpt>
      <trkpt lat="44.0867" lon="7.09897">
        <ele>746</ele>
        <time>2022-07-26T15:07:43Z</time>
      </trkpt>
      <trkpt lat="44.08669" lon="7.09897">
        <ele>746</ele>
        <time>2022-07-26T15:07:44Z</time>
      </trkpt>
      <trkpt lat="44.08668" lon="7.09898">
        <ele>746</ele>
        <time>2022-07-26T15:07:45Z</time>
      </trkpt>
      <trkpt lat="44.08667" lon="7.09898">
        <ele>746</ele>
        <time>2022-07-26T15:07:46Z</time>
      </trkpt>
      <trkpt lat="44.08666" lon="7.09899">
        <ele>746</ele>
        <time>2022-07-26T15:07:47Z</time>
      </trkpt>
      <trkpt lat="44.08665" lon="7.099">
        <ele>745</ele>
        <time>2022-07-26T15:07:48Z</time>
      </trkpt>
      <trkpt lat="44.08664" lon="7.099">
        <ele>745</ele>
        <time>2022-07-26T15:07:49Z</time>
      </trkpt>
      <trkpt lat="44.08663" lon="7.09901">
        <ele>745</ele>
        <time>2022-07-26T15:07:50Z</time>
      </trkpt>
      <trkpt lat="44.08662" lon="7.09903">
        <ele>741</ele>
        <time>2022-07-26T15:08:13Z</time>
      </trkpt>
      <trkpt lat="44.08662" lon="7.09904">
        <ele>741</ele>
        <time>2022-07-26T15:08:14Z</time>
      </trkpt>
      <trkpt lat="44.08663" lon="7.09904">
        <ele>741</ele>
        <time>2022-07-26T15:08:15Z</time>
      </trkpt>
      <trkpt lat="44.08663" lon="7.09904">
        <ele>741</ele>
        <time>2022-07-26T15:08:16Z</time>
      </trkpt>
      <trkpt lat="44.08664" lon="7.09904">
        <ele>741</ele>
        <time>2022-07-26T15:08:17Z</time>
      </trkpt>
      <trkpt lat="44.08665" lon="7.09904">
        <ele>741</ele>
        <time>2022-07-26T15:08:18Z</time>
      </trkpt>
      <trkpt lat="44.08666" lon="7.09904">
        <ele>741</ele>
        <time>2022-07-26T15:08:19Z</time>
      </trkpt>
      <trkpt lat="44.08667" lon="7.09903">
        <ele>741</ele>
        <time>2022-07-26T15:08:20Z</time>
      </trkpt>
      <trkpt lat="44.08668" lon="7.09903">
        <ele>741</ele>
        <time>2022-07-26T15:08:21Z</time>
      </trkpt>
      <trkpt lat="44.08669" lon="7.09903">
        <ele>741</ele>
        <time>2022-07-26T15:08:22Z</time>
      </trkpt>
      <trkpt lat="44.08669" lon="7.09903">
        <ele>740</ele>
        <time>2022-07-26T15:08:23Z</time>
      </trkpt>
      <trkpt lat="44.0867" lon="7.09903">
        <ele>740</ele>
        <time>2022-07-26T15:08:24Z</time>
      </trkpt>
      <trkpt lat="44.0867" lon="7.09903">
        <ele>740</ele>
        <time>2022-07-26T15:08:25Z</time>
      </trkpt>
      <trkpt lat="44.0867" lon="7.09904">
        <ele>740</ele>
        <time>2022-07-26T15:08:26Z</time>
      </trkpt>
      <trkpt lat="44.08671" lon="7.09905">
        <ele>740</ele>
        <time>2022-07-26T15:08:27Z</time>
      </trkpt>
      <trkpt lat="44.08671" lon="7.09906">
        <ele>740</ele>
        <time>2022-07-26T15:08:28Z</time>
      </trkpt>
      <trkpt lat="44.0867" lon="7.09907">
        <ele>740</ele>
        <time>2022-07-26T15:08:29Z</time>
      </trkpt>
      <trkpt lat="44.0867" lon="7.09907">
        <ele>740</ele>
        <time>2022-07-26T15:08:30Z</time>
      </trkpt>
      <trkpt lat="44.08669" lon="7.09908">
        <ele>740</ele>
        <time>2022-07-26T15:08:31Z</time>
      </trkpt>
      <trkpt lat="44.08668" lon="7.09908">
        <ele>740</ele>
        <time>2022-07-26T15:08:32Z</time>
      </trkpt>
      <trkpt lat="44.08667" lon="7.09908">
        <ele>739</ele>
        <time>2022-07-26T15:08:33Z</time>
      </trkpt>
      <trkpt lat="44.08666" lon="7.09909">
        <ele>739</ele>
        <time>2022-07-26T15:08:34Z</time>
      </trkpt>
      <trkpt lat="44.08665" lon="7.09909">
        <ele>739</ele>
        <time>2022-07-26T15:08:35Z</time>
      </trkpt>
      <trkpt lat="44.08664" lon="7.0991">
        <ele>739</ele>
        <time>2022-07-26T15:08:36Z</time>
      </trkpt>
      <trkpt lat="44.08663" lon="7.0991">
        <ele>739</ele>
        <time>2022-07-26T15:08:37Z</time>
      </trkpt>
      <trkpt lat="44.08662" lon="7.09911">
        <ele>738</ele>
        <time>2022-07-26T15:08:38Z</time>
      </trkpt>
      <trkpt lat="44.08662" lon="7.09912">
        <ele>738</ele>
        <time>2022-07-26T15:08:39Z</time>
      </trkpt>
      <trkpt lat="44.08663" lon="7.09913">
        <ele>738</ele>
        <time>2022-07-26T15:08:40Z</time>
      </trkpt>
      <trkpt lat="44.08663" lon="7.09914">
        <ele>738</ele>
        <time>2022-07-26T15:08:41Z</time>
      </trkpt>
      <trkpt lat="44.08664" lon="7.09914">
        <ele>738</ele>
        <time>2022-07-26T15:08:42Z</time>
      </trkpt>
      <trkpt lat="44.08665" lon="7.09915">
        <ele>737</ele>
        <time>2022-07-26T15:08:43Z</time>
      </trkpt>
      <trkpt lat="44.08666" lon="7.09915">
        <ele>737</ele>
        <time>2022-07-26T15:08:44Z</time>
      </trkpt>
      <trkpt lat="44.08667" lon="7.09915">
        <ele>737</ele>
        <time>2022-07-26T15:08:45Z</time>
      </trkpt>
      <trkpt lat="44.08669" lon="7.09915">
        <ele>737</ele>
        <time>2022-07-26T15:08:46Z</time>
      </trkpt>
      <trkpt lat="44.0867" lon="7.09915">
        <ele>737</ele>
        <time>2022-07-26T15:08:47Z</time>
      </trkpt>
      <trkpt lat="44.08671" lon="7.09915">
        <ele>736</ele>
        <time>2022-07-26T15:08:48Z</time>
      </trkpt>
      <trkpt lat="44.08672" lon="7.09915">
        <ele>736</ele>
        <time>2022-07-26T15:08:49Z</time>
      </trkpt>
      <trkpt lat="44.08674" lon="7.09915">
        <ele>736</ele>
        <time>2022-07-26T15:08:50Z</time>
      </trkpt>
      <trkpt lat="44.08675" lon="7.09915">
        <ele>736</ele>
        <time>2022-07-26T15:08:51Z</time>
      </trkpt>
      <trkpt lat="44.08676" lon="7.09915">
        <ele>736</ele>
        <time>2022-07-26T15:08:52Z</time>
      </trkpt>
      <trkpt lat="44.08677" lon="7.09914">
        <ele>735</ele>
        <time>2022-07-26T15:08:53Z</time>
      </trkpt>
      <trkpt lat="44.08679" lon="7.09914">
        <ele>735</ele>
        <time>2022-07-26T15:08:54Z</time>
      </trkpt>
      <trkpt lat="44.0868" lon="7.09914">
        <ele>735</ele>
        <time>2022-07-26T15:08:55Z</time>
      </trkpt>
      <trkpt lat="44.08681" lon="7.09914">
        <ele>735</ele>
        <time>2022-07-26T15:08:56Z</time>
      </trkpt>
      <trkpt lat="44.08682" lon="7.09915">
        <ele>735</ele>
        <time>2022-07-26T15:08:57Z</time>
      </trkpt>
      <trkpt lat="44.08683" lon="7.09915">
        <ele>734</ele>
        <time>2022-07-26T15:08:58Z</time>
      </trkpt>
      <trkpt lat="44.08684" lon="7.09916">
        <ele>733</ele>
        <time>2022-07-26T15:08:59Z</time>
      </trkpt>
      <trkpt lat="44.08685" lon="7.09916">
        <ele>733</ele>
        <time>2022-07-26T15:09:00Z</time>
      </trkpt>
      <trkpt lat="44.08686" lon="7.09917">
        <ele>732</ele>
        <time>2022-07-26T15:09:01Z</time>
      </trkpt>
      <trkpt lat="44.08687" lon="7.09917">
        <ele>732</ele>
        <time>2022-07-26T15:09:02Z</time>
      </trkpt>
      <trkpt lat="44.08687" lon="7.09918">
        <ele>731</ele>
        <time>2022-07-26T15:09:03Z</time>
      </trkpt>
      <trkpt lat="44.08688" lon="7.09918">
        <ele>731</ele>
        <time>2022-07-26T15:09:04Z</time>
      </trkpt>
      <trkpt lat="44.08689" lon="7.09918">
        <ele>731</ele>
        <time>2022-07-26T15:09:05Z</time>
      </trkpt>
      <trkpt lat="44.08689" lon="7.09918">
        <ele>731</ele>
        <time>2022-07-26T15:09:06Z</time>
      </trkpt>
      <trkpt lat="44.08689" lon="7.09918">
        <ele>731</ele>
        <time>2022-07-26T15:09:07Z</time>
      </trkpt>
      <trkpt lat="44.0869" lon="7.09919">
        <ele>730</ele>
        <time>2022-07-26T15:09:08Z</time>
      </trkpt>
      <trkpt lat="44.0869" lon="7.09919">
        <ele>730</ele>
        <time>2022-07-26T15:09:09Z</time>
      </trkpt>
      <trkpt lat="44.08691" lon="7.09919">
        <ele>730</ele>
        <time>2022-07-26T15:09:10Z</time>
      </trkpt>
      <trkpt lat="44.08692" lon="7.0992">
        <ele>730</ele>
        <time>2022-07-26T15:09:11Z</time>
      </trkpt>
      <trkpt lat="44.08692" lon="7.09921">
        <ele>730</ele>
        <time>2022-07-26T15:09:12Z</time>
      </trkpt>
      <trkpt lat="44.08693" lon="7.09922">
        <ele>729</ele>
        <time>2022-07-26T15:09:13Z</time>
      </trkpt>
      <trkpt lat="44.08694" lon="7.09923">
        <ele>729</ele>
        <time>2022-07-26T15:09:14Z</time>
      </trkpt>
      <trkpt lat="44.08694" lon="7.09924">
        <ele>729</ele>
        <time>2022-07-26T15:09:15Z</time>
      </trkpt>
      <trkpt lat="44.08694" lon="7.09924">
        <ele>729</ele>
        <time>2022-07-26T15:09:16Z</time>
      </trkpt>
      <trkpt lat="44.08695" lon="7.09925">
        <ele>729</ele>
        <time>2022-07-26T15:09:17Z</time>
      </trkpt>
      <trkpt lat="44.08695" lon="7.09926">
        <ele>728</ele>
        <time>2022-07-26T15:09:18Z</time>
      </trkpt>
      <trkpt lat="44.08695" lon="7.09927">
        <ele>728</ele>
        <time>2022-07-26T15:09:19Z</time>
      </trkpt>
      <trkpt lat="44.08696" lon="7.09927">
        <ele>728</ele>
        <time>2022-07-26T15:09:20Z</time>
      </trkpt>
      <trkpt lat="44.08696" lon="7.09928">
        <ele>728</ele>
        <time>2022-07-26T15:09:21Z</time>
      </trkpt>
      <trkpt lat="44.08697" lon="7.09929">
        <ele>728</ele>
        <time>2022-07-26T15:09:22Z</time>
      </trkpt>
      <trkpt lat="44.08697" lon="7.0993">
        <ele>727</ele>
        <time>2022-07-26T15:09:23Z</time>
      </trkpt>
      <trkpt lat="44.08697" lon="7.09931">
        <ele>727</ele>
        <time>2022-07-26T15:09:24Z</time>
      </trkpt>
      <trkpt lat="44.08698" lon="7.09933">
        <ele>726</ele>
        <time>2022-07-26T15:09:25Z</time>
      </trkpt>
      <trkpt lat="44.08698" lon="7.09934">
        <ele>726</ele>
        <time>2022-07-26T15:09:26Z</time>
      </trkpt>
      <trkpt lat="44.08698" lon="7.09935">
        <ele>726</ele>
        <time>2022-07-26T15:09:27Z</time>
      </trkpt>
      <trkpt lat="44.08699" lon="7.09936">
        <ele>725</ele>
        <time>2022-07-26T15:09:28Z</time>
      </trkpt>
      <trkpt lat="44.08699" lon="7.09937">
        <ele>725</ele>
        <time>2022-07-26T15:09:29Z</time>
      </trkpt>
      <trkpt lat="44.08699" lon="7.09938">
        <ele>725</ele>
        <time>2022-07-26T15:09:30Z</time>
      </trkpt>
      <trkpt lat="44.08699" lon="7.0994">
        <ele>725</ele>
        <time>2022-07-26T15:09:31Z</time>
      </trkpt>
      <trkpt lat="44.08699" lon="7.09941">
        <ele>725</ele>
        <time>2022-07-26T15:09:32Z</time>
      </trkpt>
      <trkpt lat="44.08699" lon="7.09942">
        <ele>724</ele>
        <time>2022-07-26T15:09:33Z</time>
      </trkpt>
      <trkpt lat="44.08699" lon="7.09943">
        <ele>724</ele>
        <time>2022-07-26T15:09:34Z</time>
      </trkpt>
      <trkpt lat="44.087" lon="7.09945">
        <ele>724</ele>
        <time>2022-07-26T15:09:35Z</time>
      </trkpt>
      <trkpt lat="44.087" lon="7.09946">
        <ele>724</ele>
        <time>2022-07-26T15:09:36Z</time>
      </trkpt>
      <trkpt lat="44.087" lon="7.09947">
        <ele>724</ele>
        <time>2022-07-26T15:09:37Z</time>
      </trkpt>
      <trkpt lat="44.08701" lon="7.09948">
        <ele>723</ele>
        <time>2022-07-26T15:09:38Z</time>
      </trkpt>
      <trkpt lat="44.08701" lon="7.09949">
        <ele>723</ele>
        <time>2022-07-26T15:09:39Z</time>
      </trkpt>
      <trkpt lat="44.08702" lon="7.09949">
        <ele>722</ele>
        <time>2022-07-26T15:09:40Z</time>
      </trkpt>
      <trkpt lat="44.08703" lon="7.0995">
        <ele>722</ele>
        <time>2022-07-26T15:09:41Z</time>
      </trkpt>
      <trkpt lat="44.08703" lon="7.09951">
        <ele>722</ele>
        <time>2022-07-26T15:09:42Z</time>
      </trkpt>
      <trkpt lat="44.08704" lon="7.09952">
        <ele>721</ele>
        <time>2022-07-26T15:09:43Z</time>
      </trkpt>
      <trkpt lat="44.08705" lon="7.09953">
        <ele>721</ele>
        <time>2022-07-26T15:09:44Z</time>
      </trkpt>
      <trkpt lat="44.08705" lon="7.09954">
        <ele>721</ele>
        <time>2022-07-26T15:09:45Z</time>
      </trkpt>
      <trkpt lat="44.08706" lon="7.09955">
        <ele>721</ele>
        <time>2022-07-26T15:09:46Z</time>
      </trkpt>
      <trkpt lat="44.08706" lon="7.09956">
        <ele>721</ele>
        <time>2022-07-26T15:09:47Z</time>
      </trkpt>
      <trkpt lat="44.08707" lon="7.09958">
        <ele>720</ele>
        <time>2022-07-26T15:09:48Z</time>
      </trkpt>
      <trkpt lat="44.08707" lon="7.09959">
        <ele>720</ele>
        <time>2022-07-26T15:09:49Z</time>
      </trkpt>
      <trkpt lat="44.08707" lon="7.09961">
        <ele>719</ele>
        <time>2022-07-26T15:09:50Z</time>
      </trkpt>
      <trkpt lat="44.08707" lon="7.09963">
        <ele>719</ele>
        <time>2022-07-26T15:09:51Z</time>
      </trkpt>
      <trkpt lat="44.08708" lon="7.09964">
        <ele>719</ele>
        <time>2022-07-26T15:09:52Z</time>
      </trkpt>
      <trkpt lat="44.08708" lon="7.09966">
        <ele>718</ele>
        <time>2022-07-26T15:09:53Z</time>
      </trkpt>
      <trkpt lat="44.08708" lon="7.09968">
        <ele>718</ele>
        <time>2022-07-26T15:09:54Z</time>
      </trkpt>
      <trkpt lat="44.08708" lon="7.0997">
        <ele>718</ele>
        <time>2022-07-26T15:09:55Z</time>
      </trkpt>
      <trkpt lat="44.08709" lon="7.09971">
        <ele>718</ele>
        <time>2022-07-26T15:09:56Z</time>
      </trkpt>
      <trkpt lat="44.08709" lon="7.09973">
        <ele>718</ele>
        <time>2022-07-26T15:09:57Z</time>
      </trkpt>
      <trkpt lat="44.08709" lon="7.09975">
        <ele>717</ele>
        <time>2022-07-26T15:09:58Z</time>
      </trkpt>
      <trkpt lat="44.08709" lon="7.09976">
        <ele>716</ele>
        <time>2022-07-26T15:09:59Z</time>
      </trkpt>
      <trkpt lat="44.08709" lon="7.09978">
        <ele>716</ele>
        <time>2022-07-26T15:10:00Z</time>
      </trkpt>
      <trkpt lat="44.08709" lon="7.09979">
        <ele>715</ele>
        <time>2022-07-26T15:10:01Z</time>
      </trkpt>
      <trkpt lat="44.0871" lon="7.0998">
        <ele>715</ele>
        <time>2022-07-26T15:10:02Z</time>
      </trkpt>
      <trkpt lat="44.0871" lon="7.09982">
        <ele>714</ele>
        <time>2022-07-26T15:10:03Z</time>
      </trkpt>
      <trkpt lat="44.0871" lon="7.09983">
        <ele>714</ele>
        <time>2022-07-26T15:10:04Z</time>
      </trkpt>
      <trkpt lat="44.0871" lon="7.09985">
        <ele>714</ele>
        <time>2022-07-26T15:10:05Z</time>
      </trkpt>
      <trkpt lat="44.0871" lon="7.09986">
        <ele>714</ele>
        <time>2022-07-26T15:10:06Z</time>
      </trkpt>
      <trkpt lat="44.0871" lon="7.09988">
        <ele>714</ele>
        <time>2022-07-26T15:10:07Z</time>
      </trkpt>
      <trkpt lat="44.0871" lon="7.09989">
        <ele>713</ele>
        <time>2022-07-26T15:10:08Z</time>
      </trkpt>
      <trkpt lat="44.0871" lon="7.09991">
        <ele>713</ele>
        <time>2022-07-26T15:10:09Z</time>
      </trkpt>
      <trkpt lat="44.08709" lon="7.09992">
        <ele>713</ele>
        <time>2022-07-26T15:10:10Z</time>
      </trkpt>
      <trkpt lat="44.08709" lon="7.09993">
        <ele>713</ele>
        <time>2022-07-26T15:10:11Z</time>
      </trkpt>
      <trkpt lat="44.08708" lon="7.09995">
        <ele>713</ele>
        <time>2022-07-26T15:10:12Z</time>
      </trkpt>
      <trkpt lat="44.08708" lon="7.09996">
        <ele>712</ele>
        <time>2022-07-26T15:10:13Z</time>
      </trkpt>
      <trkpt lat="44.08707" lon="7.09998">
        <ele>712</ele>
        <time>2022-07-26T15:10:14Z</time>
      </trkpt>
      <trkpt lat="44.08707" lon="7.09999">
        <ele>711</ele>
        <time>2022-07-26T15:10:15Z</time>
      </trkpt>
      <trkpt lat="44.08706" lon="7.1">
        <ele>711</ele>
        <time>2022-07-26T15:10:16Z</time>
      </trkpt>
      <trkpt lat="44.08706" lon="7.10001">
        <ele>711</ele>
        <time>2022-07-26T15:10:17Z</time>
      </trkpt>
      <trkpt lat="44.08705" lon="7.10002">
        <ele>710</ele>
        <time>2022-07-26T15:10:18Z</time>
      </trkpt>
      <trkpt lat="44.08705" lon="7.10003">
        <ele>710</ele>
        <time>2022-07-26T15:10:19Z</time>
      </trkpt>
      <trkpt lat="44.08704" lon="7.10004">
        <ele>710</ele>
        <time>2022-07-26T15:10:20Z</time>
      </trkpt>
      <trkpt lat="44.08704" lon="7.10005">
        <ele>710</ele>
        <time>2022-07-26T15:10:21Z</time>
      </trkpt>
      <trkpt lat="44.08703" lon="7.10006">
        <ele>710</ele>
        <time>2022-07-26T15:10:22Z</time>
      </trkpt>
      <trkpt lat="44.08703" lon="7.10007">
        <ele>709</ele>
        <time>2022-07-26T15:10:23Z</time>
      </trkpt>
      <trkpt lat="44.08702" lon="7.10008">
        <ele>709</ele>
        <time>2022-07-26T15:10:24Z</time>
      </trkpt>
      <trkpt lat="44.08702" lon="7.10008">
        <ele>708</ele>
        <time>2022-07-26T15:10:25Z</time>
      </trkpt>
      <trkpt lat="44.08701" lon="7.1001">
        <ele>708</ele>
        <time>2022-07-26T15:10:26Z</time>
      </trkpt>
      <trkpt lat="44.08701" lon="7.10011">
        <ele>708</ele>
        <time>2022-07-26T15:10:27Z</time>
      </trkpt>
      <trkpt lat="44.087" lon="7.10011">
        <ele>707</ele>
        <time>2022-07-26T15:10:28Z</time>
      </trkpt>
      <trkpt lat="44.087" lon="7.10012">
        <ele>707</ele>
        <time>2022-07-26T15:10:29Z</time>
      </trkpt>
      <trkpt lat="44.08699" lon="7.10013">
        <ele>707</ele>
        <time>2022-07-26T15:10:30Z</time>
      </trkpt>
      <trkpt lat="44.08699" lon="7.10014">
        <ele>707</ele>
        <time>2022-07-26T15:10:31Z</time>
      </trkpt>
      <trkpt lat="44.08698" lon="7.10014">
        <ele>707</ele>
        <time>2022-07-26T15:10:32Z</time>
      </trkpt>
      <trkpt lat="44.08698" lon="7.10014">
        <ele>706</ele>
        <time>2022-07-26T15:10:33Z</time>
      </trkpt>
      <trkpt lat="44.08697" lon="7.10014">
        <ele>706</ele>
        <time>2022-07-26T15:10:34Z</time>
      </trkpt>
      <trkpt lat="44.08696" lon="7.10013">
        <ele>706</ele>
        <time>2022-07-26T15:10:35Z</time>
      </trkpt>
      <trkpt lat="44.08696" lon="7.10013">
        <ele>706</ele>
        <time>2022-07-26T15:10:36Z</time>
      </trkpt>
      <trkpt lat="44.08695" lon="7.10014">
        <ele>706</ele>
        <time>2022-07-26T15:10:37Z</time>
      </trkpt>
      <trkpt lat="44.08695" lon="7.10014">
        <ele>705</ele>
        <time>2022-07-26T15:10:38Z</time>
      </trkpt>
      <trkpt lat="44.08695" lon="7.10014">
        <ele>705</ele>
        <time>2022-07-26T15:10:39Z</time>
      </trkpt>
      <trkpt lat="44.08694" lon="7.10016">
        <ele>702</ele>
        <time>2022-07-26T15:10:48Z</time>
      </trkpt>
      <trkpt lat="44.08694" lon="7.10017">
        <ele>702</ele>
        <time>2022-07-26T15:10:49Z</time>
      </trkpt>
      <trkpt lat="44.08694" lon="7.10018">
        <ele>702</ele>
        <time>2022-07-26T15:10:50Z</time>
      </trkpt>
      <trkpt lat="44.08693" lon="7.10019">
        <ele>702</ele>
        <time>2022-07-26T15:10:51Z</time>
      </trkpt>
      <trkpt lat="44.08693" lon="7.10019">
        <ele>702</ele>
        <time>2022-07-26T15:10:52Z</time>
      </trkpt>
      <trkpt lat="44.08693" lon="7.1002">
        <ele>701</ele>
        <time>2022-07-26T15:10:53Z</time>
      </trkpt>
      <trkpt lat="44.08693" lon="7.1002">
        <ele>701</ele>
        <time>2022-07-26T15:10:54Z</time>
      </trkpt>
      <trkpt lat="44.08692" lon="7.10021">
        <ele>701</ele>
        <time>2022-07-26T15:10:55Z</time>
      </trkpt>
      <trkpt lat="44.08692" lon="7.10022">
        <ele>701</ele>
        <time>2022-07-26T15:10:56Z</time>
      </trkpt>
      <trkpt lat="44.08692" lon="7.10023">
        <ele>701</ele>
        <time>2022-07-26T15:10:57Z</time>
      </trkpt>
      <trkpt lat="44.08692" lon="7.10024">
        <ele>701</ele>
        <time>2022-07-26T15:10:58Z</time>
      </trkpt>
      <trkpt lat="44.08692" lon="7.10025">
        <ele>701</ele>
        <time>2022-07-26T15:10:59Z</time>
      </trkpt>
      <trkpt lat="44.08692" lon="7.10026">
        <ele>701</ele>
        <time>2022-07-26T15:11:00Z</time>
      </trkpt>
      <trkpt lat="44.08692" lon="7.10027">
        <ele>701</ele>
        <time>2022-07-26T15:11:01Z</time>
      </trkpt>
      <trkpt lat="44.08692" lon="7.10028">
        <ele>701</ele>
        <time>2022-07-26T15:11:02Z</time>
      </trkpt>
      <trkpt lat="44.08692" lon="7.10029">
        <ele>700</ele>
        <time>2022-07-26T15:11:03Z</time>
      </trkpt>
      <trkpt lat="44.08692" lon="7.1003">
        <ele>700</ele>
        <time>2022-07-26T15:11:04Z</time>
      </trkpt>
      <trkpt lat="44.08691" lon="7.10031">
        <ele>700</ele>
        <time>2022-07-26T15:11:05Z</time>
      </trkpt>
      <trkpt lat="44.08691" lon="7.10033">
        <ele>700</ele>
        <time>2022-07-26T15:11:06Z</time>
      </trkpt>
      <trkpt lat="44.08691" lon="7.10034">
        <ele>700</ele>
        <time>2022-07-26T15:11:07Z</time>
      </trkpt>
      <trkpt lat="44.08691" lon="7.10036">
        <ele>699</ele>
        <time>2022-07-26T15:11:08Z</time>
      </trkpt>
      <trkpt lat="44.08691" lon="7.10037">
        <ele>699</ele>
        <time>2022-07-26T15:11:09Z</time>
      </trkpt>
      <trkpt lat="44.08691" lon="7.10039">
        <ele>699</ele>
        <time>2022-07-26T15:11:10Z</time>
      </trkpt>
      <trkpt lat="44.08691" lon="7.1004">
        <ele>699</ele>
        <time>2022-07-26T15:11:11Z</time>
      </trkpt>
      <trkpt lat="44.08691" lon="7.10042">
        <ele>699</ele>
        <time>2022-07-26T15:11:12Z</time>
      </trkpt>
      <trkpt lat="44.08692" lon="7.10044">
        <ele>698</ele>
        <time>2022-07-26T15:11:13Z</time>
      </trkpt>
      <trkpt lat="44.08692" lon="7.10045">
        <ele>698</ele>
        <time>2022-07-26T15:11:14Z</time>
      </trkpt>
      <trkpt lat="44.08692" lon="7.10047">
        <ele>697</ele>
        <time>2022-07-26T15:11:15Z</time>
      </trkpt>
      <trkpt lat="44.08692" lon="7.10048">
        <ele>697</ele>
        <time>2022-07-26T15:11:16Z</time>
      </trkpt>
      <trkpt lat="44.08693" lon="7.1005">
        <ele>697</ele>
        <time>2022-07-26T15:11:17Z</time>
      </trkpt>
      <trkpt lat="44.08693" lon="7.10051">
        <ele>696</ele>
        <time>2022-07-26T15:11:18Z</time>
      </trkpt>
      <trkpt lat="44.08694" lon="7.10053">
        <ele>696</ele>
        <time>2022-07-26T15:11:19Z</time>
      </trkpt>
      <trkpt lat="44.08694" lon="7.10054">
        <ele>696</ele>
        <time>2022-07-26T15:11:20Z</time>
      </trkpt>
      <trkpt lat="44.08695" lon="7.10055">
        <ele>696</ele>
        <time>2022-07-26T15:11:21Z</time>
      </trkpt>
      <trkpt lat="44.08695" lon="7.10056">
        <ele>696</ele>
        <time>2022-07-26T15:11:22Z</time>
      </trkpt>
      <trkpt lat="44.08695" lon="7.10057">
        <ele>695</ele>
        <time>2022-07-26T15:11:23Z</time>
      </trkpt>
      <trkpt lat="44.08696" lon="7.10057">
        <ele>695</ele>
        <time>2022-07-26T15:11:24Z</time>
      </trkpt>
      <trkpt lat="44.08696" lon="7.10058">
        <ele>695</ele>
        <time>2022-07-26T15:11:25Z</time>
      </trkpt>
      <trkpt lat="44.08696" lon="7.10059">
        <ele>695</ele>
        <time>2022-07-26T15:11:26Z</time>
      </trkpt>
      <trkpt lat="44.08697" lon="7.1006">
        <ele>695</ele>
        <time>2022-07-26T15:11:27Z</time>
      </trkpt>
      <trkpt lat="44.08697" lon="7.10061">
        <ele>694</ele>
        <time>2022-07-26T15:11:28Z</time>
      </trkpt>
      <trkpt lat="44.08697" lon="7.10062">
        <ele>694</ele>
        <time>2022-07-26T15:11:29Z</time>
      </trkpt>
      <trkpt lat="44.08698" lon="7.10063">
        <ele>694</ele>
        <time>2022-07-26T15:11:30Z</time>
      </trkpt>
      <trkpt lat="44.08698" lon="7.10064">
        <ele>694</ele>
        <time>2022-07-26T15:11:31Z</time>
      </trkpt>
      <trkpt lat="44.08698" lon="7.10065">
        <ele>694</ele>
        <time>2022-07-26T15:11:32Z</time>
      </trkpt>
      <trkpt lat="44.08698" lon="7.10066">
        <ele>693</ele>
        <time>2022-07-26T15:11:33Z</time>
      </trkpt>
      <trkpt lat="44.08698" lon="7.10067">
        <ele>693</ele>
        <time>2022-07-26T15:11:34Z</time>
      </trkpt>
      <trkpt lat="44.08698" lon="7.10069">
        <ele>693</ele>
        <time>2022-07-26T15:11:35Z</time>
      </trkpt>
      <trkpt lat="44.08698" lon="7.1007">
        <ele>693</ele>
        <time>2022-07-26T15:11:36Z</time>
      </trkpt>
      <trkpt lat="44.08698" lon="7.10071">
        <ele>693</ele>
        <time>2022-07-26T15:11:37Z</time>
      </trkpt>
      <trkpt lat="44.08698" lon="7.10073">
        <ele>692</ele>
        <time>2022-07-26T15:11:38Z</time>
      </trkpt>
      <trkpt lat="44.08698" lon="7.10074">
        <ele>692</ele>
        <time>2022-07-26T15:11:39Z</time>
      </trkpt>
      <trkpt lat="44.08698" lon="7.10075">
        <ele>692</ele>
        <time>2022-07-26T15:11:40Z</time>
      </trkpt>
      <trkpt lat="44.08699" lon="7.10076">
        <ele>692</ele>
        <time>2022-07-26T15:11:41Z</time>
      </trkpt>
      <trkpt lat="44.08699" lon="7.10077">
        <ele>692</ele>
        <time>2022-07-26T15:11:42Z</time>
      </trkpt>
      <trkpt lat="44.08699" lon="7.10078">
        <ele>691</ele>
        <time>2022-07-26T15:11:43Z</time>
      </trkpt>
      <trkpt lat="44.08699" lon="7.10079">
        <ele>691</ele>
        <time>2022-07-26T15:11:44Z</time>
      </trkpt>
      <trkpt lat="44.08699" lon="7.1008">
        <ele>691</ele>
        <time>2022-07-26T15:11:45Z</time>
      </trkpt>
      <trkpt lat="44.08699" lon="7.10081">
        <ele>691</ele>
        <time>2022-07-26T15:11:46Z</time>
      </trkpt>
      <trkpt lat="44.08699" lon="7.10082">
        <ele>691</ele>
        <time>2022-07-26T15:11:47Z</time>
      </trkpt>
      <trkpt lat="44.08699" lon="7.10082">
        <ele>690</ele>
        <time>2022-07-26T15:11:48Z</time>
      </trkpt>
      <trkpt lat="44.08699" lon="7.10083">
        <ele>690</ele>
        <time>2022-07-26T15:11:49Z</time>
      </trkpt>
      <trkpt lat="44.08699" lon="7.10084">
        <ele>690</ele>
        <time>2022-07-26T15:11:50Z</time>
      </trkpt>
      <trkpt lat="44.08698" lon="7.10085">
        <ele>690</ele>
        <time>2022-07-26T15:11:51Z</time>
      </trkpt>
      <trkpt lat="44.08698" lon="7.10086">
        <ele>690</ele>
        <time>2022-07-26T15:11:52Z</time>
      </trkpt>
      <trkpt lat="44.08698" lon="7.10088">
        <ele>689</ele>
        <time>2022-07-26T15:11:53Z</time>
      </trkpt>
      <trkpt lat="44.08697" lon="7.10089">
        <ele>689</ele>
        <time>2022-07-26T15:11:54Z</time>
      </trkpt>
      <trkpt lat="44.08697" lon="7.1009">
        <ele>689</ele>
        <time>2022-07-26T15:11:55Z</time>
      </trkpt>
      <trkpt lat="44.08696" lon="7.1009">
        <ele>689</ele>
        <time>2022-07-26T15:11:56Z</time>
      </trkpt>
      <trkpt lat="44.08695" lon="7.10091">
        <ele>689</ele>
        <time>2022-07-26T15:11:57Z</time>
      </trkpt>
      <trkpt lat="44.08694" lon="7.10091">
        <ele>688</ele>
        <time>2022-07-26T15:11:58Z</time>
      </trkpt>
      <trkpt lat="44.08694" lon="7.10092">
        <ele>688</ele>
        <time>2022-07-26T15:11:59Z</time>
      </trkpt>
      <trkpt lat="44.08693" lon="7.10092">
        <ele>688</ele>
        <time>2022-07-26T15:12:00Z</time>
      </trkpt>
      <trkpt lat="44.08692" lon="7.10092">
        <ele>688</ele>
        <time>2022-07-26T15:12:01Z</time>
      </trkpt>
      <trkpt lat="44.08691" lon="7.10092">
        <ele>688</ele>
        <time>2022-07-26T15:12:02Z</time>
      </trkpt>
      <trkpt lat="44.0869" lon="7.10092">
        <ele>687</ele>
        <time>2022-07-26T15:12:03Z</time>
      </trkpt>
      <trkpt lat="44.08689" lon="7.10092">
        <ele>687</ele>
        <time>2022-07-26T15:12:04Z</time>
      </trkpt>
      <trkpt lat="44.08688" lon="7.10092">
        <ele>687</ele>
        <time>2022-07-26T15:12:05Z</time>
      </trkpt>
      <trkpt lat="44.08688" lon="7.10093">
        <ele>687</ele>
        <time>2022-07-26T15:12:06Z</time>
      </trkpt>
      <trkpt lat="44.08687" lon="7.10093">
        <ele>687</ele>
        <time>2022-07-26T15:12:07Z</time>
      </trkpt>
      <trkpt lat="44.08687" lon="7.10094">
        <ele>686</ele>
        <time>2022-07-26T15:12:08Z</time>
      </trkpt>
      <trkpt lat="44.08687" lon="7.10095">
        <ele>686</ele>
        <time>2022-07-26T15:12:09Z</time>
      </trkpt>
      <trkpt lat="44.08687" lon="7.10096">
        <ele>686</ele>
        <time>2022-07-26T15:12:10Z</time>
      </trkpt>
      <trkpt lat="44.08687" lon="7.10097">
        <ele>686</ele>
        <time>2022-07-26T15:12:11Z</time>
      </trkpt>
      <trkpt lat="44.08687" lon="7.10098">
        <ele>686</ele>
        <time>2022-07-26T15:12:12Z</time>
      </trkpt>
      <trkpt lat="44.08688" lon="7.10099">
        <ele>685</ele>
        <time>2022-07-26T15:12:13Z</time>
      </trkpt>
      <trkpt lat="44.08688" lon="7.101">
        <ele>685</ele>
        <time>2022-07-26T15:12:14Z</time>
      </trkpt>
      <trkpt lat="44.08689" lon="7.10101">
        <ele>685</ele>
        <time>2022-07-26T15:12:15Z</time>
      </trkpt>
      <trkpt lat="44.08689" lon="7.10102">
        <ele>685</ele>
        <time>2022-07-26T15:12:16Z</time>
      </trkpt>
      <trkpt lat="44.0869" lon="7.10103">
        <ele>685</ele>
        <time>2022-07-26T15:12:17Z</time>
      </trkpt>
      <trkpt lat="44.0869" lon="7.10104">
        <ele>684</ele>
        <time>2022-07-26T15:12:18Z</time>
      </trkpt>
      <trkpt lat="44.08691" lon="7.10105">
        <ele>684</ele>
        <time>2022-07-26T15:12:19Z</time>
      </trkpt>
      <trkpt lat="44.08692" lon="7.10106">
        <ele>684</ele>
        <time>2022-07-26T15:12:20Z</time>
      </trkpt>
      <trkpt lat="44.08693" lon="7.10107">
        <ele>684</ele>
        <time>2022-07-26T15:12:21Z</time>
      </trkpt>
      <trkpt lat="44.08694" lon="7.10107">
        <ele>684</ele>
        <time>2022-07-26T15:12:22Z</time>
      </trkpt>
      <trkpt lat="44.08694" lon="7.10108">
        <ele>683</ele>
        <time>2022-07-26T15:12:23Z</time>
      </trkpt>
      <trkpt lat="44.08695" lon="7.10109">
        <ele>683</ele>
        <time>2022-07-26T15:12:24Z</time>
      </trkpt>
      <trkpt lat="44.08696" lon="7.10109">
        <ele>683</ele>
        <time>2022-07-26T15:12:25Z</time>
      </trkpt>
      <trkpt lat="44.08697" lon="7.1011">
        <ele>683</ele>
        <time>2022-07-26T15:12:26Z</time>
      </trkpt>
      <trkpt lat="44.08698" lon="7.10111">
        <ele>683</ele>
        <time>2022-07-26T15:12:27Z</time>
      </trkpt>
      <trkpt lat="44.08699" lon="7.10111">
        <ele>682</ele>
        <time>2022-07-26T15:12:28Z</time>
      </trkpt>
      <trkpt lat="44.08699" lon="7.10112">
        <ele>682</ele>
        <time>2022-07-26T15:12:29Z</time>
      </trkpt>
      <trkpt lat="44.087" lon="7.10113">
        <ele>682</ele>
        <time>2022-07-26T15:12:30Z</time>
      </trkpt>
      <trkpt lat="44.08701" lon="7.10114">
        <ele>682</ele>
        <time>2022-07-26T15:12:31Z</time>
      </trkpt>
      <trkpt lat="44.08702" lon="7.10115">
        <ele>682</ele>
        <time>2022-07-26T15:12:32Z</time>
      </trkpt>
      <trkpt lat="44.08702" lon="7.10116">
        <ele>681</ele>
        <time>2022-07-26T15:12:33Z</time>
      </trkpt>
      <trkpt lat="44.08703" lon="7.10117">
        <ele>681</ele>
        <time>2022-07-26T15:12:34Z</time>
      </trkpt>
      <trkpt lat="44.08703" lon="7.10117">
        <ele>677</ele>
        <time>2022-07-26T15:15:44Z</time>
      </trkpt>
      <trkpt lat="44.08703" lon="7.10117">
        <ele>677</ele>
        <time>2022-07-26T15:15:45Z</time>
      </trkpt>
      <trkpt lat="44.08702" lon="7.10117">
        <ele>677</ele>
        <time>2022-07-26T15:15:46Z</time>
      </trkpt>
      <trkpt lat="44.08702" lon="7.10117">
        <ele>677</ele>
        <time>2022-07-26T15:15:47Z</time>
      </trkpt>
      <trkpt lat="44.08702" lon="7.10117">
        <ele>677</ele>
        <time>2022-07-26T15:15:48Z</time>
      </trkpt>
      <trkpt lat="44.08701" lon="7.10117">
        <ele>677</ele>
        <time>2022-07-26T15:15:49Z</time>
      </trkpt>
      <trkpt lat="44.087" lon="7.10116">
        <ele>677</ele>
        <time>2022-07-26T15:15:50Z</time>
      </trkpt>
      <trkpt lat="44.087" lon="7.10117">
        <ele>677</ele>
        <time>2022-07-26T15:15:51Z</time>
      </trkpt>
      <trkpt lat="44.08699" lon="7.10117">
        <ele>677</ele>
        <time>2022-07-26T15:15:52Z</time>
      </trkpt>
      <trkpt lat="44.08699" lon="7.10117">
        <ele>676</ele>
        <time>2022-07-26T15:15:53Z</time>
      </trkpt>
      <trkpt lat="44.08698" lon="7.10118">
        <ele>676</ele>
        <time>2022-07-26T15:15:54Z</time>
      </trkpt>
      <trkpt lat="44.08698" lon="7.10119">
        <ele>676</ele>
        <time>2022-07-26T15:15:55Z</time>
      </trkpt>
      <trkpt lat="44.08698" lon="7.1012">
        <ele>676</ele>
        <time>2022-07-26T15:15:56Z</time>
      </trkpt>
      <trkpt lat="44.08698" lon="7.10121">
        <ele>676</ele>
        <time>2022-07-26T15:15:57Z</time>
      </trkpt>
      <trkpt lat="44.08697" lon="7.10122">
        <ele>676</ele>
        <time>2022-07-26T15:15:58Z</time>
      </trkpt>
      <trkpt lat="44.08697" lon="7.10122">
        <ele>676</ele>
        <time>2022-07-26T15:15:59Z</time>
      </trkpt>
      <trkpt lat="44.08696" lon="7.10123">
        <ele>676</ele>
        <time>2022-07-26T15:16:00Z</time>
      </trkpt>
      <trkpt lat="44.08696" lon="7.10123">
        <ele>676</ele>
        <time>2022-07-26T15:16:01Z</time>
      </trkpt>
      <trkpt lat="44.08695" lon="7.10123">
        <ele>676</ele>
        <time>2022-07-26T15:16:02Z</time>
      </trkpt>
      <trkpt lat="44.08694" lon="7.10123">
        <ele>676</ele>
        <time>2022-07-26T15:16:03Z</time>
      </trkpt>
      <trkpt lat="44.08693" lon="7.10123">
        <ele>676</ele>
        <time>2022-07-26T15:16:04Z</time>
      </trkpt>
      <trkpt lat="44.08693" lon="7.10123">
        <ele>676</ele>
        <time>2022-07-26T15:16:05Z</time>
      </trkpt>
      <trkpt lat="44.08692" lon="7.10123">
        <ele>676</ele>
        <time>2022-07-26T15:16:06Z</time>
      </trkpt>
      <trkpt lat="44.08692" lon="7.10124">
        <ele>676</ele>
        <time>2022-07-26T15:16:07Z</time>
      </trkpt>
      <trkpt lat="44.08691" lon="7.10124">
        <ele>675</ele>
        <time>2022-07-26T15:16:08Z</time>
      </trkpt>
      <trkpt lat="44.08691" lon="7.10123">
        <ele>675</ele>
        <time>2022-07-26T15:16:09Z</time>
      </trkpt>
      <trkpt lat="44.0869" lon="7.10123">
        <ele>675</ele>
        <time>2022-07-26T15:16:10Z</time>
      </trkpt>
      <trkpt lat="44.08689" lon="7.10123">
        <ele>675</ele>
        <time>2022-07-26T15:16:11Z</time>
      </trkpt>
      <trkpt lat="44.08689" lon="7.10123">
        <ele>675</ele>
        <time>2022-07-26T15:16:12Z</time>
      </trkpt>
      <trkpt lat="44.08688" lon="7.10123">
        <ele>674</ele>
        <time>2022-07-26T15:16:13Z</time>
      </trkpt>
      <trkpt lat="44.08687" lon="7.10124">
        <ele>674</ele>
        <time>2022-07-26T15:16:14Z</time>
      </trkpt>
      <trkpt lat="44.08687" lon="7.10124">
        <ele>674</ele>
        <time>2022-07-26T15:16:15Z</time>
      </trkpt>
      <trkpt lat="44.08687" lon="7.10125">
        <ele>674</ele>
        <time>2022-07-26T15:16:16Z</time>
      </trkpt>
      <trkpt lat="44.08687" lon="7.10127">
        <ele>674</ele>
        <time>2022-07-26T15:16:17Z</time>
      </trkpt>
      <trkpt lat="44.08687" lon="7.10128">
        <ele>673</ele>
        <time>2022-07-26T15:16:18Z</time>
      </trkpt>
      <trkpt lat="44.08687" lon="7.10129">
        <ele>673</ele>
        <time>2022-07-26T15:16:19Z</time>
      </trkpt>
      <trkpt lat="44.08688" lon="7.10131">
        <ele>673</ele>
        <time>2022-07-26T15:16:20Z</time>
      </trkpt>
      <trkpt lat="44.08688" lon="7.10132">
        <ele>673</ele>
        <time>2022-07-26T15:16:21Z</time>
      </trkpt>
      <trkpt lat="44.08688" lon="7.10134">
        <ele>673</ele>
        <time>2022-07-26T15:16:22Z</time>
      </trkpt>
      <trkpt lat="44.08689" lon="7.10135">
        <ele>672</ele>
        <time>2022-07-26T15:16:23Z</time>
      </trkpt>
      <trkpt lat="44.08689" lon="7.10136">
        <ele>672</ele>
        <time>2022-07-26T15:16:24Z</time>
      </trkpt>
      <trkpt lat="44.0869" lon="7.10137">
        <ele>672</ele>
        <time>2022-07-26T15:16:25Z</time>
      </trkpt>
      <trkpt lat="44.0869" lon="7.10139">
        <ele>672</ele>
        <time>2022-07-26T15:16:26Z</time>
      </trkpt>
      <trkpt lat="44.0869" lon="7.1014">
        <ele>672</ele>
        <time>2022-07-26T15:16:27Z</time>
      </trkpt>
      <trkpt lat="44.0869" lon="7.10141">
        <ele>671</ele>
        <time>2022-07-26T15:16:28Z</time>
      </trkpt>
      <trkpt lat="44.0869" lon="7.10143">
        <ele>671</ele>
        <time>2022-07-26T15:16:29Z</time>
      </trkpt>
      <trkpt lat="44.0869" lon="7.10144">
        <ele>670</ele>
        <time>2022-07-26T15:16:30Z</time>
      </trkpt>
      <trkpt lat="44.0869" lon="7.10146">
        <ele>670</ele>
        <time>2022-07-26T15:16:31Z</time>
      </trkpt>
      <trkpt lat="44.0869" lon="7.10147">
        <ele>670</ele>
        <time>2022-07-26T15:16:32Z</time>
      </trkpt>
      <trkpt lat="44.0869" lon="7.10149">
        <ele>669</ele>
        <time>2022-07-26T15:16:33Z</time>
      </trkpt>
      <trkpt lat="44.0869" lon="7.1015">
        <ele>669</ele>
        <time>2022-07-26T15:16:34Z</time>
      </trkpt>
      <trkpt lat="44.0869" lon="7.10151">
        <ele>669</ele>
        <time>2022-07-26T15:16:35Z</time>
      </trkpt>
      <trkpt lat="44.0869" lon="7.10153">
        <ele>669</ele>
        <time>2022-07-26T15:16:36Z</time>
      </trkpt>
      <trkpt lat="44.0869" lon="7.10154">
        <ele>669</ele>
        <time>2022-07-26T15:16:37Z</time>
      </trkpt>
      <trkpt lat="44.08689" lon="7.10155">
        <ele>668</ele>
        <time>2022-07-26T15:16:38Z</time>
      </trkpt>
      <trkpt lat="44.08689" lon="7.10157">
        <ele>668</ele>
        <time>2022-07-26T15:16:39Z</time>
      </trkpt>
      <trkpt lat="44.08689" lon="7.10158">
        <ele>667</ele>
        <time>2022-07-26T15:16:40Z</time>
      </trkpt>
      <trkpt lat="44.08689" lon="7.10159">
        <ele>667</ele>
        <time>2022-07-26T15:16:41Z</time>
      </trkpt>
      <trkpt lat="44.08689" lon="7.1016">
        <ele>667</ele>
        <time>2022-07-26T15:16:42Z</time>
      </trkpt>
      <trkpt lat="44.08689" lon="7.10161">
        <ele>666</ele>
        <time>2022-07-26T15:16:43Z</time>
      </trkpt>
      <trkpt lat="44.08688" lon="7.10161">
        <ele>666</ele>
        <time>2022-07-26T15:16:44Z</time>
      </trkpt>
      <trkpt lat="44.08688" lon="7.10162">
        <ele>666</ele>
        <time>2022-07-26T15:16:45Z</time>
      </trkpt>
      <trkpt lat="44.08688" lon="7.10163">
        <ele>666</ele>
        <time>2022-07-26T15:16:46Z</time>
      </trkpt>
      <trkpt lat="44.08688" lon="7.10164">
        <ele>666</ele>
        <time>2022-07-26T15:16:47Z</time>
      </trkpt>
      <trkpt lat="44.08688" lon="7.10165">
        <ele>665</ele>
        <time>2022-07-26T15:16:48Z</time>
      </trkpt>
      <trkpt lat="44.08689" lon="7.10165">
        <ele>664</ele>
        <time>2022-07-26T15:16:49Z</time>
      </trkpt>
      <trkpt lat="44.0869" lon="7.10166">
        <ele>664</ele>
        <time>2022-07-26T15:16:50Z</time>
      </trkpt>
      <trkpt lat="44.08691" lon="7.10166">
        <ele>663</ele>
        <time>2022-07-26T15:16:51Z</time>
      </trkpt>
      <trkpt lat="44.08692" lon="7.10167">
        <ele>663</ele>
        <time>2022-07-26T15:16:52Z</time>
      </trkpt>
      <trkpt lat="44.08693" lon="7.10168">
        <ele>662</ele>
        <time>2022-07-26T15:16:53Z</time>
      </trkpt>
      <trkpt lat="44.08694" lon="7.10168">
        <ele>662</ele>
        <time>2022-07-26T15:16:54Z</time>
      </trkpt>
      <trkpt lat="44.08696" lon="7.10169">
        <ele>662</ele>
        <time>2022-07-26T15:16:55Z</time>
      </trkpt>
      <trkpt lat="44.08697" lon="7.1017">
        <ele>662</ele>
        <time>2022-07-26T15:16:56Z</time>
      </trkpt>
      <trkpt lat="44.08697" lon="7.10171">
        <ele>662</ele>
        <time>2022-07-26T15:16:57Z</time>
      </trkpt>
      <trkpt lat="44.08698" lon="7.10172">
        <ele>661</ele>
        <time>2022-07-26T15:16:58Z</time>
      </trkpt>
      <trkpt lat="44.08699" lon="7.10172">
        <ele>661</ele>
        <time>2022-07-26T15:16:59Z</time>
      </trkpt>
      <trkpt lat="44.087" lon="7.10173">
        <ele>660</ele>
        <time>2022-07-26T15:17:00Z</time>
      </trkpt>
      <trkpt lat="44.08701" lon="7.10173">
        <ele>660</ele>
        <time>2022-07-26T15:17:01Z</time>
      </trkpt>
      <trkpt lat="44.08702" lon="7.10174">
        <ele>660</ele>
        <time>2022-07-26T15:17:02Z</time>
      </trkpt>
      <trkpt lat="44.08702" lon="7.10175">
        <ele>659</ele>
        <time>2022-07-26T15:17:03Z</time>
      </trkpt>
      <trkpt lat="44.08702" lon="7.10175">
        <ele>659</ele>
        <time>2022-07-26T15:17:04Z</time>
      </trkpt>
      <trkpt lat="44.08702" lon="7.10176">
        <ele>659</ele>
        <time>2022-07-26T15:17:05Z</time>
      </trkpt>
      <trkpt lat="44.08701" lon="7.10177">
        <ele>659</ele>
        <time>2022-07-26T15:17:06Z</time>
      </trkpt>
      <trkpt lat="44.08701" lon="7.10178">
        <ele>659</ele>
        <time>2022-07-26T15:17:07Z</time>
      </trkpt>
      <trkpt lat="44.087" lon="7.10179">
        <ele>658</ele>
        <time>2022-07-26T15:17:08Z</time>
      </trkpt>
      <trkpt lat="44.08699" lon="7.10179">
        <ele>658</ele>
        <time>2022-07-26T15:17:09Z</time>
      </trkpt>
      <trkpt lat="44.08698" lon="7.1018">
        <ele>657</ele>
        <time>2022-07-26T15:17:10Z</time>
      </trkpt>
      <trkpt lat="44.08698" lon="7.1018">
        <ele>657</ele>
        <time>2022-07-26T15:17:11Z</time>
      </trkpt>
      <trkpt lat="44.08697" lon="7.10181">
        <ele>657</ele>
        <time>2022-07-26T15:17:12Z</time>
      </trkpt>
      <trkpt lat="44.08697" lon="7.10182">
        <ele>656</ele>
        <time>2022-07-26T15:17:13Z</time>
      </trkpt>
      <trkpt lat="44.08696" lon="7.10183">
        <ele>656</ele>
        <time>2022-07-26T15:17:14Z</time>
      </trkpt>
      <trkpt lat="44.08696" lon="7.10184">
        <ele>656</ele>
        <time>2022-07-26T15:17:15Z</time>
      </trkpt>
      <trkpt lat="44.08696" lon="7.10185">
        <ele>656</ele>
        <time>2022-07-26T15:17:16Z</time>
      </trkpt>
      <trkpt lat="44.08696" lon="7.10186">
        <ele>656</ele>
        <time>2022-07-26T15:17:17Z</time>
      </trkpt>
      <trkpt lat="44.08696" lon="7.10187">
        <ele>655</ele>
        <time>2022-07-26T15:17:18Z</time>
      </trkpt>
      <trkpt lat="44.08696" lon="7.10188">
        <ele>655</ele>
        <time>2022-07-26T15:17:19Z</time>
      </trkpt>
      <trkpt lat="44.08697" lon="7.10189">
        <ele>654</ele>
        <time>2022-07-26T15:17:20Z</time>
      </trkpt>
      <trkpt lat="44.08697" lon="7.10189">
        <ele>654</ele>
        <time>2022-07-26T15:17:21Z</time>
      </trkpt>
      <trkpt lat="44.08698" lon="7.1019">
        <ele>654</ele>
        <time>2022-07-26T15:17:22Z</time>
      </trkpt>
      <trkpt lat="44.08698" lon="7.10191">
        <ele>653</ele>
        <time>2022-07-26T15:17:23Z</time>
      </trkpt>
      <trkpt lat="44.08698" lon="7.10191">
        <ele>653</ele>
        <time>2022-07-26T15:17:24Z</time>
      </trkpt>
      <trkpt lat="44.08698" lon="7.10192">
        <ele>653</ele>
        <time>2022-07-26T15:17:25Z</time>
      </trkpt>
      <trkpt lat="44.08698" lon="7.10192">
        <ele>653</ele>
        <time>2022-07-26T15:17:26Z</time>
      </trkpt>
      <trkpt lat="44.08697" lon="7.10193">
        <ele>653</ele>
        <time>2022-07-26T15:17:27Z</time>
      </trkpt>
      <trkpt lat="44.08697" lon="7.10193">
        <ele>652</ele>
        <time>2022-07-26T15:17:28Z</time>
      </trkpt>
      <trkpt lat="44.08696" lon="7.10193">
        <ele>652</ele>
        <time>2022-07-26T15:17:29Z</time>
      </trkpt>
      <trkpt lat="44.08695" lon="7.10194">
        <ele>651</ele>
        <time>2022-07-26T15:17:30Z</time>
      </trkpt>
      <trkpt lat="44.08694" lon="7.10194">
        <ele>651</ele>
        <time>2022-07-26T15:17:31Z</time>
      </trkpt>
      <trkpt lat="44.08692" lon="7.10195">
        <ele>651</ele>
        <time>2022-07-26T15:17:32Z</time>
      </trkpt>
      <trkpt lat="44.08691" lon="7.10195">
        <ele>650</ele>
        <time>2022-07-26T15:17:33Z</time>
      </trkpt>
      <trkpt lat="44.0869" lon="7.10196">
        <ele>650</ele>
        <time>2022-07-26T15:17:34Z</time>
      </trkpt>
      <trkpt lat="44.08689" lon="7.10196">
        <ele>650</ele>
        <time>2022-07-26T15:17:35Z</time>
      </trkpt>
      <trkpt lat="44.08688" lon="7.10197">
        <ele>650</ele>
        <time>2022-07-26T15:17:36Z</time>
      </trkpt>
      <trkpt lat="44.08687" lon="7.10197">
        <ele>650</ele>
        <time>2022-07-26T15:17:37Z</time>
      </trkpt>
      <trkpt lat="44.08687" lon="7.10198">
        <ele>649</ele>
        <time>2022-07-26T15:17:38Z</time>
      </trkpt>
      <trkpt lat="44.08686" lon="7.10199">
        <ele>649</ele>
        <time>2022-07-26T15:17:39Z</time>
      </trkpt>
      <trkpt lat="44.08686" lon="7.102">
        <ele>649</ele>
        <time>2022-07-26T15:17:40Z</time>
      </trkpt>
      <trkpt lat="44.08686" lon="7.10201">
        <ele>649</ele>
        <time>2022-07-26T15:17:41Z</time>
      </trkpt>
      <trkpt lat="44.08686" lon="7.10202">
        <ele>649</ele>
        <time>2022-07-26T15:17:42Z</time>
      </trkpt>
      <trkpt lat="44.08687" lon="7.10203">
        <ele>648</ele>
        <time>2022-07-26T15:17:43Z</time>
      </trkpt>
      <trkpt lat="44.08688" lon="7.10203">
        <ele>647</ele>
        <time>2022-07-26T15:17:44Z</time>
      </trkpt>
      <trkpt lat="44.08689" lon="7.10204">
        <ele>647</ele>
        <time>2022-07-26T15:17:45Z</time>
      </trkpt>
      <trkpt lat="44.0869" lon="7.10204">
        <ele>646</ele>
        <time>2022-07-26T15:17:46Z</time>
      </trkpt>
      <trkpt lat="44.08691" lon="7.10204">
        <ele>646</ele>
        <time>2022-07-26T15:17:47Z</time>
      </trkpt>
      <trkpt lat="44.08692" lon="7.10204">
        <ele>645</ele>
        <time>2022-07-26T15:17:48Z</time>
      </trkpt>
      <trkpt lat="44.08693" lon="7.10204">
        <ele>645</ele>
        <time>2022-07-26T15:17:49Z</time>
      </trkpt>
      <trkpt lat="44.08694" lon="7.10204">
        <ele>645</ele>
        <time>2022-07-26T15:17:50Z</time>
      </trkpt>
      <trkpt lat="44.08694" lon="7.10205">
        <ele>645</ele>
        <time>2022-07-26T15:17:51Z</time>
      </trkpt>
      <trkpt lat="44.08695" lon="7.10205">
        <ele>645</ele>
        <time>2022-07-26T15:17:52Z</time>
      </trkpt>
      <trkpt lat="44.08695" lon="7.10206">
        <ele>644</ele>
        <time>2022-07-26T15:17:53Z</time>
      </trkpt>
      <trkpt lat="44.08695" lon="7.10207">
        <ele>644</ele>
        <time>2022-07-26T15:17:54Z</time>
      </trkpt>
      <trkpt lat="44.08694" lon="7.10208">
        <ele>644</ele>
        <time>2022-07-26T15:17:55Z</time>
      </trkpt>
      <trkpt lat="44.08694" lon="7.10208">
        <ele>644</ele>
        <time>2022-07-26T15:17:56Z</time>
      </trkpt>
      <trkpt lat="44.08693" lon="7.10209">
        <ele>644</ele>
        <time>2022-07-26T15:17:57Z</time>
      </trkpt>
      <trkpt lat="44.08692" lon="7.10209">
        <ele>643</ele>
        <time>2022-07-26T15:17:58Z</time>
      </trkpt>
      <trkpt lat="44.08692" lon="7.1021">
        <ele>643</ele>
        <time>2022-07-26T15:17:59Z</time>
      </trkpt>
      <trkpt lat="44.08691" lon="7.1021">
        <ele>643</ele>
        <time>2022-07-26T15:18:00Z</time>
      </trkpt>
      <trkpt lat="44.0869" lon="7.10211">
        <ele>643</ele>
        <time>2022-07-26T15:18:01Z</time>
      </trkpt>
      <trkpt lat="44.08689" lon="7.10211">
        <ele>643</ele>
        <time>2022-07-26T15:18:02Z</time>
      </trkpt>
      <trkpt lat="44.08688" lon="7.10212">
        <ele>642</ele>
        <time>2022-07-26T15:18:03Z</time>
      </trkpt>
      <trkpt lat="44.08687" lon="7.10213">
        <ele>642</ele>
        <time>2022-07-26T15:18:04Z</time>
      </trkpt>
      <trkpt lat="44.08687" lon="7.10213">
        <ele>641</ele>
        <time>2022-07-26T15:18:05Z</time>
      </trkpt>
      <trkpt lat="44.08686" lon="7.10213">
        <ele>641</ele>
        <time>2022-07-26T15:18:06Z</time>
      </trkpt>
      <trkpt lat="44.08686" lon="7.10214">
        <ele>641</ele>
        <time>2022-07-26T15:18:07Z</time>
      </trkpt>
      <trkpt lat="44.08685" lon="7.10215">
        <ele>640</ele>
        <time>2022-07-26T15:18:08Z</time>
      </trkpt>
      <trkpt lat="44.08685" lon="7.10215">
        <ele>640</ele>
        <time>2022-07-26T15:18:09Z</time>
      </trkpt>
      <trkpt lat="44.08684" lon="7.10216">
        <ele>640</ele>
        <time>2022-07-26T15:18:10Z</time>
      </trkpt>
      <trkpt lat="44.08683" lon="7.10217">
        <ele>640</ele>
        <time>2022-07-26T15:18:11Z</time>
      </trkpt>
      <trkpt lat="44.08682" lon="7.10217">
        <ele>640</ele>
        <time>2022-07-26T15:18:12Z</time>
      </trkpt>
      <trkpt lat="44.08681" lon="7.10218">
        <ele>639</ele>
        <time>2022-07-26T15:18:13Z</time>
      </trkpt>
      <trkpt lat="44.0868" lon="7.10218">
        <ele>639</ele>
        <time>2022-07-26T15:18:14Z</time>
      </trkpt>
      <trkpt lat="44.08679" lon="7.10218">
        <ele>639</ele>
        <time>2022-07-26T15:18:15Z</time>
      </trkpt>
      <trkpt lat="44.08678" lon="7.10218">
        <ele>639</ele>
        <time>2022-07-26T15:18:16Z</time>
      </trkpt>
      <trkpt lat="44.08677" lon="7.10218">
        <ele>639</ele>
        <time>2022-07-26T15:18:17Z</time>
      </trkpt>
      <trkpt lat="44.08676" lon="7.10219">
        <ele>638</ele>
        <time>2022-07-26T15:18:18Z</time>
      </trkpt>
      <trkpt lat="44.08675" lon="7.10219">
        <ele>638</ele>
        <time>2022-07-26T15:18:19Z</time>
      </trkpt>
      <trkpt lat="44.08674" lon="7.10219">
        <ele>637</ele>
        <time>2022-07-26T15:18:20Z</time>
      </trkpt>
      <trkpt lat="44.08673" lon="7.10219">
        <ele>637</ele>
        <time>2022-07-26T15:18:21Z</time>
      </trkpt>
      <trkpt lat="44.08673" lon="7.10219">
        <ele>637</ele>
        <time>2022-07-26T15:18:22Z</time>
      </trkpt>
      <trkpt lat="44.08672" lon="7.10219">
        <ele>637</ele>
        <time>2022-07-26T15:18:23Z</time>
      </trkpt>
      <trkpt lat="44.08671" lon="7.10218">
        <ele>637</ele>
        <time>2022-07-26T15:18:24Z</time>
      </trkpt>
      <trkpt lat="44.08671" lon="7.10218">
        <ele>637</ele>
        <time>2022-07-26T15:18:25Z</time>
      </trkpt>
      <trkpt lat="44.0867" lon="7.10218">
        <ele>637</ele>
        <time>2022-07-26T15:18:26Z</time>
      </trkpt>
      <trkpt lat="44.08669" lon="7.10218">
        <ele>637</ele>
        <time>2022-07-26T15:18:27Z</time>
      </trkpt>
      <trkpt lat="44.08669" lon="7.10218">
        <ele>636</ele>
        <time>2022-07-26T15:18:28Z</time>
      </trkpt>
      <trkpt lat="44.08668" lon="7.10219">
        <ele>636</ele>
        <time>2022-07-26T15:18:29Z</time>
      </trkpt>
      <trkpt lat="44.08668" lon="7.1022">
        <ele>635</ele>
        <time>2022-07-26T15:18:30Z</time>
      </trkpt>
      <trkpt lat="44.08668" lon="7.10221">
        <ele>635</ele>
        <time>2022-07-26T15:18:31Z</time>
      </trkpt>
      <trkpt lat="44.08668" lon="7.10222">
        <ele>635</ele>
        <time>2022-07-26T15:18:32Z</time>
      </trkpt>
      <trkpt lat="44.08668" lon="7.10223">
        <ele>634</ele>
        <time>2022-07-26T15:18:33Z</time>
      </trkpt>
      <trkpt lat="44.08669" lon="7.10224">
        <ele>634</ele>
        <time>2022-07-26T15:18:34Z</time>
      </trkpt>
      <trkpt lat="44.08669" lon="7.10225">
        <ele>632</ele>
        <time>2022-07-26T15:19:26Z</time>
      </trkpt>
      <trkpt lat="44.0867" lon="7.10225">
        <ele>632</ele>
        <time>2022-07-26T15:19:27Z</time>
      </trkpt>
      <trkpt lat="44.0867" lon="7.10226">
        <ele>631</ele>
        <time>2022-07-26T15:19:28Z</time>
      </trkpt>
      <trkpt lat="44.08671" lon="7.10226">
        <ele>631</ele>
        <time>2022-07-26T15:19:29Z</time>
      </trkpt>
      <trkpt lat="44.08671" lon="7.10227">
        <ele>631</ele>
        <time>2022-07-26T15:19:30Z</time>
      </trkpt>
      <trkpt lat="44.08672" lon="7.10228">
        <ele>631</ele>
        <time>2022-07-26T15:19:31Z</time>
      </trkpt>
      <trkpt lat="44.08673" lon="7.10229">
        <ele>631</ele>
        <time>2022-07-26T15:19:32Z</time>
      </trkpt>
      <trkpt lat="44.08674" lon="7.1023">
        <ele>631</ele>
        <time>2022-07-26T15:19:33Z</time>
      </trkpt>
      <trkpt lat="44.08675" lon="7.10231">
        <ele>631</ele>
        <time>2022-07-26T15:19:34Z</time>
      </trkpt>
      <trkpt lat="44.08676" lon="7.10232">
        <ele>631</ele>
        <time>2022-07-26T15:19:35Z</time>
      </trkpt>
      <trkpt lat="44.08677" lon="7.10233">
        <ele>631</ele>
        <time>2022-07-26T15:19:36Z</time>
      </trkpt>
      <trkpt lat="44.08679" lon="7.10234">
        <ele>631</ele>
        <time>2022-07-26T15:19:37Z</time>
      </trkpt>
      <trkpt lat="44.0868" lon="7.10235">
        <ele>630</ele>
        <time>2022-07-26T15:19:38Z</time>
      </trkpt>
      <trkpt lat="44.08681" lon="7.10236">
        <ele>630</ele>
        <time>2022-07-26T15:19:39Z</time>
      </trkpt>
      <trkpt lat="44.08682" lon="7.10237">
        <ele>629</ele>
        <time>2022-07-26T15:19:40Z</time>
      </trkpt>
      <trkpt lat="44.08682" lon="7.10238">
        <ele>629</ele>
        <time>2022-07-26T15:19:41Z</time>
      </trkpt>
      <trkpt lat="44.08683" lon="7.10239">
        <ele>629</ele>
        <time>2022-07-26T15:19:42Z</time>
      </trkpt>
      <trkpt lat="44.08684" lon="7.1024">
        <ele>628</ele>
        <time>2022-07-26T15:19:43Z</time>
      </trkpt>
      <trkpt lat="44.08684" lon="7.10242">
        <ele>628</ele>
        <time>2022-07-26T15:19:44Z</time>
      </trkpt>
      <trkpt lat="44.08684" lon="7.10243">
        <ele>628</ele>
        <time>2022-07-26T15:19:45Z</time>
      </trkpt>
      <trkpt lat="44.08684" lon="7.10245">
        <ele>628</ele>
        <time>2022-07-26T15:19:46Z</time>
      </trkpt>
      <trkpt lat="44.08684" lon="7.10247">
        <ele>628</ele>
        <time>2022-07-26T15:19:47Z</time>
      </trkpt>
      <trkpt lat="44.08683" lon="7.10249">
        <ele>627</ele>
        <time>2022-07-26T15:19:48Z</time>
      </trkpt>
      <trkpt lat="44.08683" lon="7.10251">
        <ele>627</ele>
        <time>2022-07-26T15:19:49Z</time>
      </trkpt>
      <trkpt lat="44.08683" lon="7.10253">
        <ele>627</ele>
        <time>2022-07-26T15:19:50Z</time>
      </trkpt>
      <trkpt lat="44.08683" lon="7.10255">
        <ele>627</ele>
        <time>2022-07-26T15:19:51Z</time>
      </trkpt>
      <trkpt lat="44.08683" lon="7.10256">
        <ele>627</ele>
        <time>2022-07-26T15:19:52Z</time>
      </trkpt>
      <trkpt lat="44.08684" lon="7.10258">
        <ele>626</ele>
        <time>2022-07-26T15:19:53Z</time>
      </trkpt>
      <trkpt lat="44.08684" lon="7.10259">
        <ele>626</ele>
        <time>2022-07-26T15:19:54Z</time>
      </trkpt>
      <trkpt lat="44.08685" lon="7.1026">
        <ele>625</ele>
        <time>2022-07-26T15:19:55Z</time>
      </trkpt>
      <trkpt lat="44.08686" lon="7.10261">
        <ele>625</ele>
        <time>2022-07-26T15:19:56Z</time>
      </trkpt>
      <trkpt lat="44.08686" lon="7.10261">
        <ele>625</ele>
        <time>2022-07-26T15:19:57Z</time>
      </trkpt>
      <trkpt lat="44.08687" lon="7.10262">
        <ele>624</ele>
        <time>2022-07-26T15:19:58Z</time>
      </trkpt>
      <trkpt lat="44.08687" lon="7.10263">
        <ele>624</ele>
        <time>2022-07-26T15:19:59Z</time>
      </trkpt>
      <trkpt lat="44.08687" lon="7.10264">
        <ele>623</ele>
        <time>2022-07-26T15:20:00Z</time>
      </trkpt>
      <trkpt lat="44.08687" lon="7.10265">
        <ele>623</ele>
        <time>2022-07-26T15:20:01Z</time>
      </trkpt>
      <trkpt lat="44.08686" lon="7.10266">
        <ele>623</ele>
        <time>2022-07-26T15:20:02Z</time>
      </trkpt>
      <trkpt lat="44.08686" lon="7.10267">
        <ele>622</ele>
        <time>2022-07-26T15:20:03Z</time>
      </trkpt>
      <trkpt lat="44.08687" lon="7.10269">
        <ele>622</ele>
        <time>2022-07-26T15:20:04Z</time>
      </trkpt>
      <trkpt lat="44.08687" lon="7.1027">
        <ele>621</ele>
        <time>2022-07-26T15:20:05Z</time>
      </trkpt>
      <trkpt lat="44.08688" lon="7.1027">
        <ele>621</ele>
        <time>2022-07-26T15:20:06Z</time>
      </trkpt>
      <trkpt lat="44.08689" lon="7.1027">
        <ele>621</ele>
        <time>2022-07-26T15:20:07Z</time>
      </trkpt>
      <trkpt lat="44.0869" lon="7.1027">
        <ele>620</ele>
        <time>2022-07-26T15:20:08Z</time>
      </trkpt>
      <trkpt lat="44.0869" lon="7.1027">
        <ele>620</ele>
        <time>2022-07-26T15:20:09Z</time>
      </trkpt>
      <trkpt lat="44.0869" lon="7.1027">
        <ele>619</ele>
        <time>2022-07-26T15:20:10Z</time>
      </trkpt>
      <trkpt lat="44.0869" lon="7.10271">
        <ele>619</ele>
        <time>2022-07-26T15:20:11Z</time>
      </trkpt>
      <trkpt lat="44.0869" lon="7.10271">
        <ele>619</ele>
        <time>2022-07-26T15:20:12Z</time>
      </trkpt>
      <trkpt lat="44.08689" lon="7.10272">
        <ele>618</ele>
        <time>2022-07-26T15:20:13Z</time>
      </trkpt>
      <trkpt lat="44.08688" lon="7.10272">
        <ele>618</ele>
        <time>2022-07-26T15:20:14Z</time>
      </trkpt>
      <trkpt lat="44.08687" lon="7.10273">
        <ele>618</ele>
        <time>2022-07-26T15:20:15Z</time>
      </trkpt>
      <trkpt lat="44.08686" lon="7.10275">
        <ele>618</ele>
        <time>2022-07-26T15:20:16Z</time>
      </trkpt>
      <trkpt lat="44.08685" lon="7.10276">
        <ele>618</ele>
        <time>2022-07-26T15:20:17Z</time>
      </trkpt>
      <trkpt lat="44.08684" lon="7.10277">
        <ele>617</ele>
        <time>2022-07-26T15:20:18Z</time>
      </trkpt>
      <trkpt lat="44.08684" lon="7.10278">
        <ele>617</ele>
        <time>2022-07-26T15:20:19Z</time>
      </trkpt>
      <trkpt lat="44.08683" lon="7.10279">
        <ele>616</ele>
        <time>2022-07-26T15:20:20Z</time>
      </trkpt>
      <trkpt lat="44.08682" lon="7.1028">
        <ele>616</ele>
        <time>2022-07-26T15:20:21Z</time>
      </trkpt>
      <trkpt lat="44.08681" lon="7.1028">
        <ele>616</ele>
        <time>2022-07-26T15:20:22Z</time>
      </trkpt>
      <trkpt lat="44.0868" lon="7.10281">
        <ele>615</ele>
        <time>2022-07-26T15:20:23Z</time>
      </trkpt>
      <trkpt lat="44.0868" lon="7.10282">
        <ele>615</ele>
        <time>2022-07-26T15:20:24Z</time>
      </trkpt>
      <trkpt lat="44.08679" lon="7.10283">
        <ele>614</ele>
        <time>2022-07-26T15:20:25Z</time>
      </trkpt>
      <trkpt lat="44.08678" lon="7.10284">
        <ele>614</ele>
        <time>2022-07-26T15:20:26Z</time>
      </trkpt>
      <trkpt lat="44.08678" lon="7.10285">
        <ele>614</ele>
        <time>2022-07-26T15:20:27Z</time>
      </trkpt>
      <trkpt lat="44.08677" lon="7.10286">
        <ele>613</ele>
        <time>2022-07-26T15:20:28Z</time>
      </trkpt>
      <trkpt lat="44.08676" lon="7.10286">
        <ele>613</ele>
        <time>2022-07-26T15:20:29Z</time>
      </trkpt>
      <trkpt lat="44.08676" lon="7.10287">
        <ele>612</ele>
        <time>2022-07-26T15:20:30Z</time>
      </trkpt>
      <trkpt lat="44.08675" lon="7.10288">
        <ele>612</ele>
        <time>2022-07-26T15:20:31Z</time>
      </trkpt>
      <trkpt lat="44.08674" lon="7.10289">
        <ele>612</ele>
        <time>2022-07-26T15:20:32Z</time>
      </trkpt>
      <trkpt lat="44.08672" lon="7.10291">
        <ele>609</ele>
        <time>2022-07-26T15:20:40Z</time>
      </trkpt>
      <trkpt lat="44.08672" lon="7.10291">
        <ele>609</ele>
        <time>2022-07-26T15:20:41Z</time>
      </trkpt>
      <trkpt lat="44.08671" lon="7.10292">
        <ele>609</ele>
        <time>2022-07-26T15:20:42Z</time>
      </trkpt>
      <trkpt lat="44.0867" lon="7.10293">
        <ele>608</ele>
        <time>2022-07-26T15:20:52Z</time>
      </trkpt>
      <trkpt lat="44.0867" lon="7.10293">
        <ele>607</ele>
        <time>2022-07-26T15:20:53Z</time>
      </trkpt>
      <trkpt lat="44.08669" lon="7.10293">
        <ele>607</ele>
        <time>2022-07-26T15:20:54Z</time>
      </trkpt>
      <trkpt lat="44.08669" lon="7.10293">
        <ele>607</ele>
        <time>2022-07-26T15:20:55Z</time>
      </trkpt>
      <trkpt lat="44.08668" lon="7.10292">
        <ele>607</ele>
        <time>2022-07-26T15:20:56Z</time>
      </trkpt>
      <trkpt lat="44.08668" lon="7.10292">
        <ele>607</ele>
        <time>2022-07-26T15:20:57Z</time>
      </trkpt>
      <trkpt lat="44.08667" lon="7.10292">
        <ele>607</ele>
        <time>2022-07-26T15:20:58Z</time>
      </trkpt>
      <trkpt lat="44.08666" lon="7.10292">
        <ele>607</ele>
        <time>2022-07-26T15:20:59Z</time>
      </trkpt>
      <trkpt lat="44.08665" lon="7.10292">
        <ele>607</ele>
        <time>2022-07-26T15:21:00Z</time>
      </trkpt>
      <trkpt lat="44.08664" lon="7.10292">
        <ele>607</ele>
        <time>2022-07-26T15:21:01Z</time>
      </trkpt>
      <trkpt lat="44.08663" lon="7.10292">
        <ele>607</ele>
        <time>2022-07-26T15:21:02Z</time>
      </trkpt>
      <trkpt lat="44.08662" lon="7.10293">
        <ele>606</ele>
        <time>2022-07-26T15:21:03Z</time>
      </trkpt>
      <trkpt lat="44.08661" lon="7.10294">
        <ele>606</ele>
        <time>2022-07-26T15:21:04Z</time>
      </trkpt>
      <trkpt lat="44.0866" lon="7.10295">
        <ele>606</ele>
        <time>2022-07-26T15:21:05Z</time>
      </trkpt>
      <trkpt lat="44.08659" lon="7.10296">
        <ele>606</ele>
        <time>2022-07-26T15:21:06Z</time>
      </trkpt>
      <trkpt lat="44.08658" lon="7.10297">
        <ele>606</ele>
        <time>2022-07-26T15:21:07Z</time>
      </trkpt>
      <trkpt lat="44.08657" lon="7.10297">
        <ele>605</ele>
        <time>2022-07-26T15:21:08Z</time>
      </trkpt>
      <trkpt lat="44.08656" lon="7.10298">
        <ele>605</ele>
        <time>2022-07-26T15:21:09Z</time>
      </trkpt>
      <trkpt lat="44.08655" lon="7.10298">
        <ele>605</ele>
        <time>2022-07-26T15:21:10Z</time>
      </trkpt>
      <trkpt lat="44.08654" lon="7.10299">
        <ele>605</ele>
        <time>2022-07-26T15:21:11Z</time>
      </trkpt>
      <trkpt lat="44.08652" lon="7.103">
        <ele>605</ele>
        <time>2022-07-26T15:21:12Z</time>
      </trkpt>
      <trkpt lat="44.08651" lon="7.10301">
        <ele>604</ele>
        <time>2022-07-26T15:21:13Z</time>
      </trkpt>
      <trkpt lat="44.0865" lon="7.10301">
        <ele>604</ele>
        <time>2022-07-26T15:21:14Z</time>
      </trkpt>
      <trkpt lat="44.08649" lon="7.10301">
        <ele>604</ele>
        <time>2022-07-26T15:21:15Z</time>
      </trkpt>
      <trkpt lat="44.08648" lon="7.10302">
        <ele>604</ele>
        <time>2022-07-26T15:21:16Z</time>
      </trkpt>
      <trkpt lat="44.08647" lon="7.10302">
        <ele>604</ele>
        <time>2022-07-26T15:21:17Z</time>
      </trkpt>
      <trkpt lat="44.08647" lon="7.10302">
        <ele>603</ele>
        <time>2022-07-26T15:21:18Z</time>
      </trkpt>
      <trkpt lat="44.08646" lon="7.10302">
        <ele>603</ele>
        <time>2022-07-26T15:21:19Z</time>
      </trkpt>
      <trkpt lat="44.08645" lon="7.10301">
        <ele>602</ele>
        <time>2022-07-26T15:21:20Z</time>
      </trkpt>
      <trkpt lat="44.08645" lon="7.10301">
        <ele>602</ele>
        <time>2022-07-26T15:21:21Z</time>
      </trkpt>
      <trkpt lat="44.08644" lon="7.10301">
        <ele>602</ele>
        <time>2022-07-26T15:21:22Z</time>
      </trkpt>
      <trkpt lat="44.08643" lon="7.10301">
        <ele>601</ele>
        <time>2022-07-26T15:21:23Z</time>
      </trkpt>
      <trkpt lat="44.08642" lon="7.10301">
        <ele>601</ele>
        <time>2022-07-26T15:21:24Z</time>
      </trkpt>
      <trkpt lat="44.0864" lon="7.10301">
        <ele>601</ele>
        <time>2022-07-26T15:21:25Z</time>
      </trkpt>
      <trkpt lat="44.08639" lon="7.10301">
        <ele>601</ele>
        <time>2022-07-26T15:21:26Z</time>
      </trkpt>
      <trkpt lat="44.08638" lon="7.10301">
        <ele>601</ele>
        <time>2022-07-26T15:21:27Z</time>
      </trkpt>
      <trkpt lat="44.08637" lon="7.10301">
        <ele>600</ele>
        <time>2022-07-26T15:21:28Z</time>
      </trkpt>
      <trkpt lat="44.08637" lon="7.10301">
        <ele>600</ele>
        <time>2022-07-26T15:21:29Z</time>
      </trkpt>
      <trkpt lat="44.08636" lon="7.103">
        <ele>599</ele>
        <time>2022-07-26T15:21:30Z</time>
      </trkpt>
      <trkpt lat="44.08635" lon="7.103">
        <ele>599</ele>
        <time>2022-07-26T15:21:31Z</time>
      </trkpt>
      <trkpt lat="44.08634" lon="7.10299">
        <ele>599</ele>
        <time>2022-07-26T15:21:32Z</time>
      </trkpt>
      <trkpt lat="44.08633" lon="7.10299">
        <ele>598</ele>
        <time>2022-07-26T15:21:33Z</time>
      </trkpt>
      <trkpt lat="44.08632" lon="7.10298">
        <ele>598</ele>
        <time>2022-07-26T15:21:34Z</time>
      </trkpt>
      <trkpt lat="44.08631" lon="7.10297">
        <ele>598</ele>
        <time>2022-07-26T15:21:35Z</time>
      </trkpt>
      <trkpt lat="44.0863" lon="7.10297">
        <ele>598</ele>
        <time>2022-07-26T15:21:36Z</time>
      </trkpt>
      <trkpt lat="44.08629" lon="7.10296">
        <ele>598</ele>
        <time>2022-07-26T15:21:37Z</time>
      </trkpt>
      <trkpt lat="44.08628" lon="7.10295">
        <ele>597</ele>
        <time>2022-07-26T15:21:38Z</time>
      </trkpt>
      <trkpt lat="44.08626" lon="7.10294">
        <ele>597</ele>
        <time>2022-07-26T15:21:39Z</time>
      </trkpt>
      <trkpt lat="44.08625" lon="7.10293">
        <ele>597</ele>
        <time>2022-07-26T15:21:40Z</time>
      </trkpt>
      <trkpt lat="44.08624" lon="7.10292">
        <ele>597</ele>
        <time>2022-07-26T15:21:41Z</time>
      </trkpt>
      <trkpt lat="44.08623" lon="7.10292">
        <ele>597</ele>
        <time>2022-07-26T15:21:42Z</time>
      </trkpt>
      <trkpt lat="44.08622" lon="7.10292">
        <ele>596</ele>
        <time>2022-07-26T15:21:43Z</time>
      </trkpt>
      <trkpt lat="44.0862" lon="7.10292">
        <ele>595</ele>
        <time>2022-07-26T15:21:44Z</time>
      </trkpt>
      <trkpt lat="44.08619" lon="7.10295">
        <ele>592</ele>
        <time>2022-07-26T15:21:58Z</time>
      </trkpt>
      <trkpt lat="44.08619" lon="7.10296">
        <ele>592</ele>
        <time>2022-07-26T15:21:59Z</time>
      </trkpt>
      <trkpt lat="44.08619" lon="7.10297">
        <ele>592</ele>
        <time>2022-07-26T15:22:00Z</time>
      </trkpt>
      <trkpt lat="44.08619" lon="7.10297">
        <ele>592</ele>
        <time>2022-07-26T15:22:01Z</time>
      </trkpt>
      <trkpt lat="44.08619" lon="7.10296">
        <ele>592</ele>
        <time>2022-07-26T15:22:02Z</time>
      </trkpt>
      <trkpt lat="44.08618" lon="7.10295">
        <ele>591</ele>
        <time>2022-07-26T15:22:03Z</time>
      </trkpt>
      <trkpt lat="44.08618" lon="7.10295">
        <ele>591</ele>
        <time>2022-07-26T15:22:04Z</time>
      </trkpt>
      <trkpt lat="44.08617" lon="7.10294">
        <ele>591</ele>
        <time>2022-07-26T15:22:05Z</time>
      </trkpt>
      <trkpt lat="44.08617" lon="7.10293">
        <ele>591</ele>
        <time>2022-07-26T15:22:06Z</time>
      </trkpt>
      <trkpt lat="44.08616" lon="7.10292">
        <ele>591</ele>
        <time>2022-07-26T15:22:07Z</time>
      </trkpt>
      <trkpt lat="44.08615" lon="7.1029">
        <ele>591</ele>
        <time>2022-07-26T15:22:08Z</time>
      </trkpt>
      <trkpt lat="44.08613" lon="7.10289">
        <ele>591</ele>
        <time>2022-07-26T15:22:09Z</time>
      </trkpt>
      <trkpt lat="44.08612" lon="7.10288">
        <ele>591</ele>
        <time>2022-07-26T15:22:10Z</time>
      </trkpt>
      <trkpt lat="44.08611" lon="7.10287">
        <ele>591</ele>
        <time>2022-07-26T15:22:11Z</time>
      </trkpt>
      <trkpt lat="44.0861" lon="7.10286">
        <ele>591</ele>
        <time>2022-07-26T15:22:12Z</time>
      </trkpt>
      <trkpt lat="44.08609" lon="7.10284">
        <ele>590</ele>
        <time>2022-07-26T15:22:13Z</time>
      </trkpt>
      <trkpt lat="44.08607" lon="7.10283">
        <ele>590</ele>
        <time>2022-07-26T15:22:14Z</time>
      </trkpt>
      <trkpt lat="44.08605" lon="7.10281">
        <ele>589</ele>
        <time>2022-07-26T15:22:33Z</time>
      </trkpt>
      <trkpt lat="44.08604" lon="7.1028">
        <ele>589</ele>
        <time>2022-07-26T15:22:34Z</time>
      </trkpt>
      <trkpt lat="44.08603" lon="7.1028">
        <ele>589</ele>
        <time>2022-07-26T15:22:35Z</time>
      </trkpt>
      <trkpt lat="44.08603" lon="7.10279">
        <ele>589</ele>
        <time>2022-07-26T15:22:36Z</time>
      </trkpt>
      <trkpt lat="44.08602" lon="7.10278">
        <ele>589</ele>
        <time>2022-07-26T15:22:37Z</time>
      </trkpt>
      <trkpt lat="44.08602" lon="7.10277">
        <ele>589</ele>
        <time>2022-07-26T15:22:38Z</time>
      </trkpt>
      <trkpt lat="44.08601" lon="7.10276">
        <ele>589</ele>
        <time>2022-07-26T15:22:39Z</time>
      </trkpt>
      <trkpt lat="44.086" lon="7.10274">
        <ele>589</ele>
        <time>2022-07-26T15:22:40Z</time>
      </trkpt>
      <trkpt lat="44.08599" lon="7.10273">
        <ele>589</ele>
        <time>2022-07-26T15:22:41Z</time>
      </trkpt>
      <trkpt lat="44.08598" lon="7.10272">
        <ele>589</ele>
        <time>2022-07-26T15:22:42Z</time>
      </trkpt>
      <trkpt lat="44.08597" lon="7.10271">
        <ele>588</ele>
        <time>2022-07-26T15:22:43Z</time>
      </trkpt>
      <trkpt lat="44.08596" lon="7.10269">
        <ele>588</ele>
        <time>2022-07-26T15:22:44Z</time>
      </trkpt>
      <trkpt lat="44.08596" lon="7.10268">
        <ele>588</ele>
        <time>2022-07-26T15:22:45Z</time>
      </trkpt>
      <trkpt lat="44.08595" lon="7.10267">
        <ele>588</ele>
        <time>2022-07-26T15:22:46Z</time>
      </trkpt>
      <trkpt lat="44.08595" lon="7.10265">
        <ele>588</ele>
        <time>2022-07-26T15:22:47Z</time>
      </trkpt>
      <trkpt lat="44.08595" lon="7.10265">
        <ele>587</ele>
        <time>2022-07-26T15:22:48Z</time>
      </trkpt>
      <trkpt lat="44.08595" lon="7.10264">
        <ele>587</ele>
        <time>2022-07-26T15:22:49Z</time>
      </trkpt>
      <trkpt lat="44.08595" lon="7.10263">
        <ele>587</ele>
        <time>2022-07-26T15:22:50Z</time>
      </trkpt>
      <trkpt lat="44.08595" lon="7.10262">
        <ele>587</ele>
        <time>2022-07-26T15:22:51Z</time>
      </trkpt>
      <trkpt lat="44.08595" lon="7.10261">
        <ele>587</ele>
        <time>2022-07-26T15:22:52Z</time>
      </trkpt>
      <trkpt lat="44.08595" lon="7.10261">
        <ele>586</ele>
        <time>2022-07-26T15:22:53Z</time>
      </trkpt>
      <trkpt lat="44.08596" lon="7.1026">
        <ele>586</ele>
        <time>2022-07-26T15:22:54Z</time>
      </trkpt>
      <trkpt lat="44.08596" lon="7.10259">
        <ele>586</ele>
        <time>2022-07-26T15:22:55Z</time>
      </trkpt>
      <trkpt lat="44.08596" lon="7.10258">
        <ele>586</ele>
        <time>2022-07-26T15:22:56Z</time>
      </trkpt>
      <trkpt lat="44.08596" lon="7.10256">
        <ele>586</ele>
        <time>2022-07-26T15:22:57Z</time>
      </trkpt>
      <trkpt lat="44.08596" lon="7.10256">
        <ele>585</ele>
        <time>2022-07-26T15:22:58Z</time>
      </trkpt>
      <trkpt lat="44.08595" lon="7.10256">
        <ele>585</ele>
        <time>2022-07-26T15:22:59Z</time>
      </trkpt>
      <trkpt lat="44.08595" lon="7.10255">
        <ele>585</ele>
        <time>2022-07-26T15:23:00Z</time>
      </trkpt>
      <trkpt lat="44.08594" lon="7.10255">
        <ele>585</ele>
        <time>2022-07-26T15:23:01Z</time>
      </trkpt>
      <trkpt lat="44.08594" lon="7.10256">
        <ele>585</ele>
        <time>2022-07-26T15:23:02Z</time>
      </trkpt>
      <trkpt lat="44.08593" lon="7.10256">
        <ele>584</ele>
        <time>2022-07-26T15:23:03Z</time>
      </trkpt>
      <trkpt lat="44.08592" lon="7.10257">
        <ele>584</ele>
        <time>2022-07-26T15:23:04Z</time>
      </trkpt>
      <trkpt lat="44.08592" lon="7.10258">
        <ele>584</ele>
        <time>2022-07-26T15:23:05Z</time>
      </trkpt>
      <trkpt lat="44.08591" lon="7.10259">
        <ele>584</ele>
        <time>2022-07-26T15:23:06Z</time>
      </trkpt>
      <trkpt lat="44.0859" lon="7.10259">
        <ele>584</ele>
        <time>2022-07-26T15:23:07Z</time>
      </trkpt>
      <trkpt lat="44.08589" lon="7.1026">
        <ele>583</ele>
        <time>2022-07-26T15:23:08Z</time>
      </trkpt>
      <trkpt lat="44.08589" lon="7.1026">
        <ele>583</ele>
        <time>2022-07-26T15:23:09Z</time>
      </trkpt>
      <trkpt lat="44.08589" lon="7.1026">
        <ele>583</ele>
        <time>2022-07-26T15:23:10Z</time>
      </trkpt>
      <trkpt lat="44.08589" lon="7.1026">
        <ele>583</ele>
        <time>2022-07-26T15:23:11Z</time>
      </trkpt>
      <trkpt lat="44.08589" lon="7.1026">
        <ele>583</ele>
        <time>2022-07-26T15:23:12Z</time>
      </trkpt>
      <trkpt lat="44.0859" lon="7.10259">
        <ele>582</ele>
        <time>2022-07-26T15:23:13Z</time>
      </trkpt>
      <trkpt lat="44.0859" lon="7.10259">
        <ele>582</ele>
        <time>2022-07-26T15:23:14Z</time>
      </trkpt>
      <trkpt lat="44.0859" lon="7.10258">
        <ele>582</ele>
        <time>2022-07-26T15:23:15Z</time>
      </trkpt>
      <trkpt lat="44.0859" lon="7.10257">
        <ele>582</ele>
        <time>2022-07-26T15:23:16Z</time>
      </trkpt>
      <trkpt lat="44.0859" lon="7.10256">
        <ele>582</ele>
        <time>2022-07-26T15:23:17Z</time>
      </trkpt>
      <trkpt lat="44.08589" lon="7.10256">
        <ele>581</ele>
        <time>2022-07-26T15:23:18Z</time>
      </trkpt>
      <trkpt lat="44.08588" lon="7.10255">
        <ele>581</ele>
        <time>2022-07-26T15:23:19Z</time>
      </trkpt>
      <trkpt lat="44.08588" lon="7.10255">
        <ele>581</ele>
        <time>2022-07-26T15:23:20Z</time>
      </trkpt>
      <trkpt lat="44.08587" lon="7.10256">
        <ele>581</ele>
        <time>2022-07-26T15:23:21Z</time>
      </trkpt>
      <trkpt lat="44.08587" lon="7.10256">
        <ele>581</ele>
        <time>2022-07-26T15:23:22Z</time>
      </trkpt>
      <trkpt lat="44.08587" lon="7.10257">
        <ele>580</ele>
        <time>2022-07-26T15:23:23Z</time>
      </trkpt>
      <trkpt lat="44.08586" lon="7.10258">
        <ele>580</ele>
        <time>2022-07-26T15:23:24Z</time>
      </trkpt>
      <trkpt lat="44.08585" lon="7.10259">
        <ele>580</ele>
        <time>2022-07-26T15:23:25Z</time>
      </trkpt>
      <trkpt lat="44.08585" lon="7.1026">
        <ele>580</ele>
        <time>2022-07-26T15:23:26Z</time>
      </trkpt>
      <trkpt lat="44.08584" lon="7.10261">
        <ele>580</ele>
        <time>2022-07-26T15:23:27Z</time>
      </trkpt>
      <trkpt lat="44.08584" lon="7.10262">
        <ele>579</ele>
        <time>2022-07-26T15:23:28Z</time>
      </trkpt>
      <trkpt lat="44.08583" lon="7.10264">
        <ele>578</ele>
        <time>2022-07-26T15:23:29Z</time>
      </trkpt>
      <trkpt lat="44.08583" lon="7.10265">
        <ele>578</ele>
        <time>2022-07-26T15:23:30Z</time>
      </trkpt>
      <trkpt lat="44.08582" lon="7.10266">
        <ele>577</ele>
        <time>2022-07-26T15:23:31Z</time>
      </trkpt>
      <trkpt lat="44.08582" lon="7.10267">
        <ele>577</ele>
        <time>2022-07-26T15:23:32Z</time>
      </trkpt>
      <trkpt lat="44.08581" lon="7.10268">
        <ele>576</ele>
        <time>2022-07-26T15:23:33Z</time>
      </trkpt>
      <trkpt lat="44.08581" lon="7.1027">
        <ele>576</ele>
        <time>2022-07-26T15:23:34Z</time>
      </trkpt>
      <trkpt lat="44.0858" lon="7.10271">
        <ele>576</ele>
        <time>2022-07-26T15:23:35Z</time>
      </trkpt>
      <trkpt lat="44.08579" lon="7.10272">
        <ele>576</ele>
        <time>2022-07-26T15:23:36Z</time>
      </trkpt>
      <trkpt lat="44.08579" lon="7.10274">
        <ele>576</ele>
        <time>2022-07-26T15:23:37Z</time>
      </trkpt>
      <trkpt lat="44.08578" lon="7.10275">
        <ele>575</ele>
        <time>2022-07-26T15:23:38Z</time>
      </trkpt>
      <trkpt lat="44.08577" lon="7.10277">
        <ele>575</ele>
        <time>2022-07-26T15:23:39Z</time>
      </trkpt>
      <trkpt lat="44.08577" lon="7.10278">
        <ele>575</ele>
        <time>2022-07-26T15:23:40Z</time>
      </trkpt>
      <trkpt lat="44.08576" lon="7.1028">
        <ele>575</ele>
        <time>2022-07-26T15:23:41Z</time>
      </trkpt>
      <trkpt lat="44.08576" lon="7.10281">
        <ele>575</ele>
        <time>2022-07-26T15:23:42Z</time>
      </trkpt>
      <trkpt lat="44.08576" lon="7.10283">
        <ele>574</ele>
        <time>2022-07-26T15:23:43Z</time>
      </trkpt>
      <trkpt lat="44.08575" lon="7.10284">
        <ele>574</ele>
        <time>2022-07-26T15:23:44Z</time>
      </trkpt>
      <trkpt lat="44.08575" lon="7.10286">
        <ele>573</ele>
        <time>2022-07-26T15:23:45Z</time>
      </trkpt>
      <trkpt lat="44.08574" lon="7.10287">
        <ele>573</ele>
        <time>2022-07-26T15:23:46Z</time>
      </trkpt>
      <trkpt lat="44.08574" lon="7.10289">
        <ele>573</ele>
        <time>2022-07-26T15:23:47Z</time>
      </trkpt>
      <trkpt lat="44.08574" lon="7.1029">
        <ele>572</ele>
        <time>2022-07-26T15:23:48Z</time>
      </trkpt>
      <trkpt lat="44.08573" lon="7.10292">
        <ele>572</ele>
        <time>2022-07-26T15:23:49Z</time>
      </trkpt>
      <trkpt lat="44.08573" lon="7.10293">
        <ele>571</ele>
        <time>2022-07-26T15:23:50Z</time>
      </trkpt>
      <trkpt lat="44.08573" lon="7.10294">
        <ele>571</ele>
        <time>2022-07-26T15:23:51Z</time>
      </trkpt>
      <trkpt lat="44.08574" lon="7.10295">
        <ele>571</ele>
        <time>2022-07-26T15:23:52Z</time>
      </trkpt>
      <trkpt lat="44.08574" lon="7.10297">
        <ele>570</ele>
        <time>2022-07-26T15:23:53Z</time>
      </trkpt>
      <trkpt lat="44.08575" lon="7.10298">
        <ele>570</ele>
        <time>2022-07-26T15:23:54Z</time>
      </trkpt>
      <trkpt lat="44.08575" lon="7.10299">
        <ele>570</ele>
        <time>2022-07-26T15:23:55Z</time>
      </trkpt>
      <trkpt lat="44.08576" lon="7.103">
        <ele>570</ele>
        <time>2022-07-26T15:23:56Z</time>
      </trkpt>
      <trkpt lat="44.08576" lon="7.10301">
        <ele>570</ele>
        <time>2022-07-26T15:23:57Z</time>
      </trkpt>
      <trkpt lat="44.08576" lon="7.10301">
        <ele>569</ele>
        <time>2022-07-26T15:23:58Z</time>
      </trkpt>
      <trkpt lat="44.08576" lon="7.10302">
        <ele>569</ele>
        <time>2022-07-26T15:23:59Z</time>
      </trkpt>
      <trkpt lat="44.08576" lon="7.10301">
        <ele>568</ele>
        <time>2022-07-26T15:24:00Z</time>
      </trkpt>
      <trkpt lat="44.08576" lon="7.10301">
        <ele>568</ele>
        <time>2022-07-26T15:24:01Z</time>
      </trkpt>
      <trkpt lat="44.08575" lon="7.103">
        <ele>568</ele>
        <time>2022-07-26T15:24:02Z</time>
      </trkpt>
      <trkpt lat="44.08575" lon="7.10298">
        <ele>567</ele>
        <time>2022-07-26T15:24:03Z</time>
      </trkpt>
      <trkpt lat="44.08574" lon="7.10298">
        <ele>567</ele>
        <time>2022-07-26T15:24:04Z</time>
      </trkpt>
      <trkpt lat="44.08573" lon="7.10297">
        <ele>567</ele>
        <time>2022-07-26T15:24:05Z</time>
      </trkpt>
      <trkpt lat="44.08572" lon="7.10297">
        <ele>565</ele>
        <time>2022-07-26T15:24:11Z</time>
      </trkpt>
      <trkpt lat="44.08572" lon="7.10298">
        <ele>565</ele>
        <time>2022-07-26T15:24:12Z</time>
      </trkpt>
      <trkpt lat="44.08572" lon="7.10299">
        <ele>564</ele>
        <time>2022-07-26T15:24:13Z</time>
      </trkpt>
      <trkpt lat="44.08572" lon="7.103">
        <ele>564</ele>
        <time>2022-07-26T15:24:14Z</time>
      </trkpt>
      <trkpt lat="44.08573" lon="7.103">
        <ele>564</ele>
        <time>2022-07-26T15:24:15Z</time>
      </trkpt>
      <trkpt lat="44.08573" lon="7.10302">
        <ele>564</ele>
        <time>2022-07-26T15:24:16Z</time>
      </trkpt>
      <trkpt lat="44.08574" lon="7.10303">
        <ele>564</ele>
        <time>2022-07-26T15:24:17Z</time>
      </trkpt>
      <trkpt lat="44.08574" lon="7.10304">
        <ele>563</ele>
        <time>2022-07-26T15:24:18Z</time>
      </trkpt>
      <trkpt lat="44.08575" lon="7.10305">
        <ele>563</ele>
        <time>2022-07-26T15:24:19Z</time>
      </trkpt>
      <trkpt lat="44.08575" lon="7.10306">
        <ele>563</ele>
        <time>2022-07-26T15:24:20Z</time>
      </trkpt>
      <trkpt lat="44.08576" lon="7.10307">
        <ele>563</ele>
        <time>2022-07-26T15:24:21Z</time>
      </trkpt>
      <trkpt lat="44.08576" lon="7.10308">
        <ele>563</ele>
        <time>2022-07-26T15:24:22Z</time>
      </trkpt>
      <trkpt lat="44.08575" lon="7.10309">
        <ele>562</ele>
        <time>2022-07-26T15:24:23Z</time>
      </trkpt>
      <trkpt lat="44.08575" lon="7.10309">
        <ele>562</ele>
        <time>2022-07-26T15:24:24Z</time>
      </trkpt>
      <trkpt lat="44.08574" lon="7.10309">
        <ele>562</ele>
        <time>2022-07-26T15:24:25Z</time>
      </trkpt>
      <trkpt lat="44.08573" lon="7.10309">
        <ele>562</ele>
        <time>2022-07-26T15:24:26Z</time>
      </trkpt>
      <trkpt lat="44.08573" lon="7.10308">
        <ele>562</ele>
        <time>2022-07-26T15:24:27Z</time>
      </trkpt>
      <trkpt lat="44.08571" lon="7.10308">
        <ele>561</ele>
        <time>2022-07-26T15:24:28Z</time>
      </trkpt>
      <trkpt lat="44.0857" lon="7.10308">
        <ele>561</ele>
        <time>2022-07-26T15:24:29Z</time>
      </trkpt>
      <trkpt lat="44.0857" lon="7.10309">
        <ele>560</ele>
        <time>2022-07-26T15:24:30Z</time>
      </trkpt>
      <trkpt lat="44.08569" lon="7.10309">
        <ele>560</ele>
        <time>2022-07-26T15:24:31Z</time>
      </trkpt>
      <trkpt lat="44.08569" lon="7.10311">
        <ele>560</ele>
        <time>2022-07-26T15:24:32Z</time>
      </trkpt>
      <trkpt lat="44.08569" lon="7.10312">
        <ele>559</ele>
        <time>2022-07-26T15:24:33Z</time>
      </trkpt>
      <trkpt lat="44.08569" lon="7.10314">
        <ele>559</ele>
        <time>2022-07-26T15:24:34Z</time>
      </trkpt>
      <trkpt lat="44.08569" lon="7.10316">
        <ele>559</ele>
        <time>2022-07-26T15:24:35Z</time>
      </trkpt>
      <trkpt lat="44.08569" lon="7.10317">
        <ele>559</ele>
        <time>2022-07-26T15:24:36Z</time>
      </trkpt>
      <trkpt lat="44.0857" lon="7.10317">
        <ele>559</ele>
        <time>2022-07-26T15:24:37Z</time>
      </trkpt>
      <trkpt lat="44.0857" lon="7.10319">
        <ele>558</ele>
        <time>2022-07-26T15:24:38Z</time>
      </trkpt>
      <trkpt lat="44.0857" lon="7.1032">
        <ele>558</ele>
        <time>2022-07-26T15:24:39Z</time>
      </trkpt>
      <trkpt lat="44.08571" lon="7.1032">
        <ele>557</ele>
        <time>2022-07-26T15:25:30Z</time>
      </trkpt>
      <trkpt lat="44.08571" lon="7.1032">
        <ele>557</ele>
        <time>2022-07-26T15:25:31Z</time>
      </trkpt>
      <trkpt lat="44.08571" lon="7.1032">
        <ele>557</ele>
        <time>2022-07-26T15:25:32Z</time>
      </trkpt>
      <trkpt lat="44.08571" lon="7.10318">
        <ele>556</ele>
        <time>2022-07-26T15:25:33Z</time>
      </trkpt>
      <trkpt lat="44.08571" lon="7.10317">
        <ele>556</ele>
        <time>2022-07-26T15:25:34Z</time>
      </trkpt>
      <trkpt lat="44.0857" lon="7.10315">
        <ele>556</ele>
        <time>2022-07-26T15:25:35Z</time>
      </trkpt>
      <trkpt lat="44.08569" lon="7.10313">
        <ele>556</ele>
        <time>2022-07-26T15:25:36Z</time>
      </trkpt>
      <trkpt lat="44.08567" lon="7.1031">
        <ele>556</ele>
        <time>2022-07-26T15:25:37Z</time>
      </trkpt>
      <trkpt lat="44.08566" lon="7.10308">
        <ele>555</ele>
        <time>2022-07-26T15:25:38Z</time>
      </trkpt>
      <trkpt lat="44.08564" lon="7.10306">
        <ele>555</ele>
        <time>2022-07-26T15:25:39Z</time>
      </trkpt>
      <trkpt lat="44.08562" lon="7.10304">
        <ele>555</ele>
        <time>2022-07-26T15:25:40Z</time>
      </trkpt>
      <trkpt lat="44.0856" lon="7.10302">
        <ele>555</ele>
        <time>2022-07-26T15:25:41Z</time>
      </trkpt>
      <trkpt lat="44.08559" lon="7.10301">
        <ele>555</ele>
        <time>2022-07-26T15:25:42Z</time>
      </trkpt>
      <trkpt lat="44.08557" lon="7.103">
        <ele>554</ele>
        <time>2022-07-26T15:25:43Z</time>
      </trkpt>
      <trkpt lat="44.08556" lon="7.103">
        <ele>554</ele>
        <time>2022-07-26T15:25:44Z</time>
      </trkpt>
      <trkpt lat="44.08556" lon="7.10302">
        <ele>554</ele>
        <time>2022-07-26T15:25:45Z</time>
      </trkpt>
      <trkpt lat="44.08556" lon="7.10303">
        <ele>554</ele>
        <time>2022-07-26T15:25:46Z</time>
      </trkpt>
      <trkpt lat="44.08556" lon="7.10306">
        <ele>554</ele>
        <time>2022-07-26T15:25:47Z</time>
      </trkpt>
      <trkpt lat="44.08557" lon="7.10309">
        <ele>553</ele>
        <time>2022-07-26T15:25:48Z</time>
      </trkpt>
      <trkpt lat="44.08558" lon="7.10312">
        <ele>553</ele>
        <time>2022-07-26T15:25:49Z</time>
      </trkpt>
      <trkpt lat="44.08558" lon="7.10315">
        <ele>552</ele>
        <time>2022-07-26T15:25:50Z</time>
      </trkpt>
      <trkpt lat="44.08559" lon="7.10317">
        <ele>552</ele>
        <time>2022-07-26T15:25:51Z</time>
      </trkpt>
      <trkpt lat="44.08559" lon="7.1032">
        <ele>552</ele>
        <time>2022-07-26T15:25:52Z</time>
      </trkpt>
      <trkpt lat="44.08559" lon="7.10321">
        <ele>551</ele>
        <time>2022-07-26T15:25:53Z</time>
      </trkpt>
      <trkpt lat="44.08558" lon="7.10323">
        <ele>551</ele>
        <time>2022-07-26T15:25:54Z</time>
      </trkpt>
      <trkpt lat="44.08558" lon="7.10325">
        <ele>550</ele>
        <time>2022-07-26T15:25:55Z</time>
      </trkpt>
      <trkpt lat="44.08557" lon="7.10327">
        <ele>550</ele>
        <time>2022-07-26T15:25:56Z</time>
      </trkpt>
      <trkpt lat="44.08557" lon="7.10329">
        <ele>550</ele>
        <time>2022-07-26T15:25:57Z</time>
      </trkpt>
      <trkpt lat="44.08556" lon="7.10332">
        <ele>549</ele>
        <time>2022-07-26T15:25:58Z</time>
      </trkpt>
      <trkpt lat="44.08556" lon="7.10335">
        <ele>549</ele>
        <time>2022-07-26T15:25:59Z</time>
      </trkpt>
      <trkpt lat="44.08556" lon="7.10338">
        <ele>548</ele>
        <time>2022-07-26T15:26:00Z</time>
      </trkpt>
      <trkpt lat="44.08555" lon="7.10341">
        <ele>548</ele>
        <time>2022-07-26T15:26:01Z</time>
      </trkpt>
      <trkpt lat="44.08555" lon="7.10344">
        <ele>548</ele>
        <time>2022-07-26T15:26:02Z</time>
      </trkpt>
      <trkpt lat="44.08555" lon="7.10347">
        <ele>547</ele>
        <time>2022-07-26T15:26:03Z</time>
      </trkpt>
      <trkpt lat="44.08554" lon="7.1035">
        <ele>546</ele>
        <time>2022-07-26T15:26:04Z</time>
      </trkpt>
      <trkpt lat="44.08554" lon="7.10353">
        <ele>546</ele>
        <time>2022-07-26T15:26:05Z</time>
      </trkpt>
      <trkpt lat="44.08554" lon="7.10356">
        <ele>545</ele>
        <time>2022-07-26T15:26:06Z</time>
      </trkpt>
      <trkpt lat="44.08553" lon="7.10358">
        <ele>545</ele>
        <time>2022-07-26T15:26:07Z</time>
      </trkpt>
      <trkpt lat="44.08553" lon="7.1036">
        <ele>544</ele>
        <time>2022-07-26T15:26:08Z</time>
      </trkpt>
      <trkpt lat="44.08553" lon="7.10361">
        <ele>543</ele>
        <time>2022-07-26T15:26:09Z</time>
      </trkpt>
      <trkpt lat="44.08552" lon="7.10363">
        <ele>543</ele>
        <time>2022-07-26T15:26:10Z</time>
      </trkpt>
      <trkpt lat="44.08552" lon="7.10365">
        <ele>542</ele>
        <time>2022-07-26T15:26:11Z</time>
      </trkpt>
      <trkpt lat="44.08551" lon="7.10366">
        <ele>542</ele>
        <time>2022-07-26T15:26:12Z</time>
      </trkpt>
      <trkpt lat="44.0855" lon="7.10368">
        <ele>541</ele>
        <time>2022-07-26T15:26:13Z</time>
      </trkpt>
      <trkpt lat="44.0855" lon="7.1037">
        <ele>541</ele>
        <time>2022-07-26T15:26:14Z</time>
      </trkpt>
      <trkpt lat="44.08549" lon="7.10372">
        <ele>540</ele>
        <time>2022-07-26T15:26:15Z</time>
      </trkpt>
      <trkpt lat="44.08548" lon="7.10374">
        <ele>540</ele>
        <time>2022-07-26T15:26:16Z</time>
      </trkpt>
      <trkpt lat="44.08547" lon="7.10376">
        <ele>540</ele>
        <time>2022-07-26T15:26:17Z</time>
      </trkpt>
      <trkpt lat="44.08546" lon="7.10379">
        <ele>539</ele>
        <time>2022-07-26T15:26:18Z</time>
      </trkpt>
      <trkpt lat="44.08546" lon="7.10381">
        <ele>538</ele>
        <time>2022-07-26T15:26:19Z</time>
      </trkpt>
      <trkpt lat="44.08546" lon="7.10383">
        <ele>538</ele>
        <time>2022-07-26T15:26:20Z</time>
      </trkpt>
      <trkpt lat="44.08546" lon="7.10385">
        <ele>537</ele>
        <time>2022-07-26T15:26:21Z</time>
      </trkpt>
      <trkpt lat="44.08546" lon="7.10387">
        <ele>537</ele>
        <time>2022-07-26T15:26:22Z</time>
      </trkpt>
      <trkpt lat="44.08545" lon="7.10389">
        <ele>536</ele>
        <time>2022-07-26T15:26:23Z</time>
      </trkpt>
      <trkpt lat="44.08545" lon="7.10391">
        <ele>536</ele>
        <time>2022-07-26T15:26:24Z</time>
      </trkpt>
      <trkpt lat="44.08545" lon="7.10393">
        <ele>536</ele>
        <time>2022-07-26T15:26:25Z</time>
      </trkpt>
      <trkpt lat="44.08545" lon="7.10394">
        <ele>536</ele>
        <time>2022-07-26T15:26:26Z</time>
      </trkpt>
      <trkpt lat="44.08545" lon="7.10396">
        <ele>536</ele>
        <time>2022-07-26T15:26:27Z</time>
      </trkpt>
      <trkpt lat="44.08545" lon="7.10398">
        <ele>535</ele>
        <time>2022-07-26T15:26:28Z</time>
      </trkpt>
      <trkpt lat="44.08545" lon="7.10399">
        <ele>535</ele>
        <time>2022-07-26T15:26:29Z</time>
      </trkpt>
      <trkpt lat="44.08545" lon="7.10401">
        <ele>534</ele>
        <time>2022-07-26T15:26:30Z</time>
      </trkpt>
      <trkpt lat="44.08545" lon="7.10402">
        <ele>534</ele>
        <time>2022-07-26T15:26:31Z</time>
      </trkpt>
      <trkpt lat="44.08546" lon="7.10404">
        <ele>534</ele>
        <time>2022-07-26T15:26:32Z</time>
      </trkpt>
      <trkpt lat="44.08546" lon="7.10406">
        <ele>533</ele>
        <time>2022-07-26T15:26:33Z</time>
      </trkpt>
      <trkpt lat="44.08546" lon="7.10407">
        <ele>533</ele>
        <time>2022-07-26T15:26:34Z</time>
      </trkpt>
      <trkpt lat="44.08547" lon="7.10409">
        <ele>533</ele>
        <time>2022-07-26T15:26:35Z</time>
      </trkpt>
      <trkpt lat="44.08547" lon="7.10411">
        <ele>533</ele>
        <time>2022-07-26T15:26:36Z</time>
      </trkpt>
      <trkpt lat="44.08547" lon="7.10413">
        <ele>533</ele>
        <time>2022-07-26T15:26:37Z</time>
      </trkpt>
      <trkpt lat="44.08547" lon="7.10415">
        <ele>532</ele>
        <time>2022-07-26T15:26:38Z</time>
      </trkpt>
      <trkpt lat="44.08547" lon="7.10417">
        <ele>532</ele>
        <time>2022-07-26T15:26:39Z</time>
      </trkpt>
      <trkpt lat="44.08547" lon="7.1042">
        <ele>531</ele>
        <time>2022-07-26T15:26:40Z</time>
      </trkpt>
      <trkpt lat="44.08547" lon="7.10421">
        <ele>531</ele>
        <time>2022-07-26T15:26:41Z</time>
      </trkpt>
      <trkpt lat="44.08547" lon="7.10422">
        <ele>531</ele>
        <time>2022-07-26T15:26:42Z</time>
      </trkpt>
      <trkpt lat="44.08547" lon="7.10424">
        <ele>530</ele>
        <time>2022-07-26T15:26:43Z</time>
      </trkpt>
      <trkpt lat="44.08547" lon="7.10425">
        <ele>530</ele>
        <time>2022-07-26T15:26:44Z</time>
      </trkpt>
      <trkpt lat="44.08548" lon="7.10427">
        <ele>530</ele>
        <time>2022-07-26T15:26:45Z</time>
      </trkpt>
      <trkpt lat="44.08548" lon="7.10429">
        <ele>530</ele>
        <time>2022-07-26T15:26:46Z</time>
      </trkpt>
      <trkpt lat="44.08548" lon="7.10431">
        <ele>530</ele>
        <time>2022-07-26T15:26:47Z</time>
      </trkpt>
      <trkpt lat="44.08548" lon="7.10433">
        <ele>529</ele>
        <time>2022-07-26T15:26:48Z</time>
      </trkpt>
      <trkpt lat="44.08549" lon="7.10435">
        <ele>529</ele>
        <time>2022-07-26T15:26:49Z</time>
      </trkpt>
      <trkpt lat="44.0855" lon="7.10437">
        <ele>529</ele>
        <time>2022-07-26T15:26:50Z</time>
      </trkpt>
      <trkpt lat="44.0855" lon="7.10438">
        <ele>529</ele>
        <time>2022-07-26T15:26:51Z</time>
      </trkpt>
      <trkpt lat="44.08551" lon="7.1044">
        <ele>529</ele>
        <time>2022-07-26T15:26:52Z</time>
      </trkpt>
      <trkpt lat="44.08552" lon="7.10442">
        <ele>528</ele>
        <time>2022-07-26T15:26:53Z</time>
      </trkpt>
      <trkpt lat="44.08553" lon="7.10443">
        <ele>528</ele>
        <time>2022-07-26T15:26:54Z</time>
      </trkpt>
      <trkpt lat="44.08554" lon="7.10444">
        <ele>528</ele>
        <time>2022-07-26T15:26:55Z</time>
      </trkpt>
      <trkpt lat="44.08556" lon="7.10445">
        <ele>528</ele>
        <time>2022-07-26T15:26:56Z</time>
      </trkpt>
      <trkpt lat="44.08557" lon="7.10446">
        <ele>528</ele>
        <time>2022-07-26T15:26:57Z</time>
      </trkpt>
      <trkpt lat="44.08558" lon="7.10447">
        <ele>527</ele>
        <time>2022-07-26T15:26:58Z</time>
      </trkpt>
      <trkpt lat="44.08559" lon="7.10447">
        <ele>527</ele>
        <time>2022-07-26T15:26:59Z</time>
      </trkpt>
      <trkpt lat="44.0856" lon="7.10447">
        <ele>526</ele>
        <time>2022-07-26T15:27:00Z</time>
      </trkpt>
      <trkpt lat="44.08561" lon="7.10448">
        <ele>526</ele>
        <time>2022-07-26T15:27:01Z</time>
      </trkpt>
      <trkpt lat="44.08562" lon="7.10448">
        <ele>526</ele>
        <time>2022-07-26T15:27:02Z</time>
      </trkpt>
      <trkpt lat="44.08563" lon="7.10449">
        <ele>525</ele>
        <time>2022-07-26T15:27:03Z</time>
      </trkpt>
      <trkpt lat="44.08563" lon="7.1045">
        <ele>525</ele>
        <time>2022-07-26T15:27:04Z</time>
      </trkpt>
      <trkpt lat="44.08563" lon="7.10451">
        <ele>525</ele>
        <time>2022-07-26T15:27:05Z</time>
      </trkpt>
      <trkpt lat="44.08562" lon="7.10452">
        <ele>525</ele>
        <time>2022-07-26T15:27:06Z</time>
      </trkpt>
      <trkpt lat="44.08562" lon="7.10454">
        <ele>525</ele>
        <time>2022-07-26T15:27:07Z</time>
      </trkpt>
      <trkpt lat="44.08561" lon="7.10455">
        <ele>524</ele>
        <time>2022-07-26T15:27:08Z</time>
      </trkpt>
      <trkpt lat="44.0856" lon="7.10457">
        <ele>524</ele>
        <time>2022-07-26T15:27:09Z</time>
      </trkpt>
      <trkpt lat="44.0856" lon="7.10458">
        <ele>523</ele>
        <time>2022-07-26T15:27:10Z</time>
      </trkpt>
      <trkpt lat="44.08559" lon="7.10459">
        <ele>523</ele>
        <time>2022-07-26T15:27:11Z</time>
      </trkpt>
      <trkpt lat="44.08558" lon="7.10461">
        <ele>523</ele>
        <time>2022-07-26T15:27:12Z</time>
      </trkpt>
      <trkpt lat="44.08557" lon="7.10462">
        <ele>522</ele>
        <time>2022-07-26T15:27:13Z</time>
      </trkpt>
      <trkpt lat="44.08556" lon="7.10464">
        <ele>522</ele>
        <time>2022-07-26T15:27:14Z</time>
      </trkpt>
      <trkpt lat="44.08555" lon="7.10465">
        <ele>522</ele>
        <time>2022-07-26T15:27:15Z</time>
      </trkpt>
      <trkpt lat="44.08554" lon="7.10466">
        <ele>522</ele>
        <time>2022-07-26T15:27:16Z</time>
      </trkpt>
      <trkpt lat="44.08553" lon="7.10467">
        <ele>522</ele>
        <time>2022-07-26T15:27:17Z</time>
      </trkpt>
      <trkpt lat="44.08552" lon="7.10468">
        <ele>521</ele>
        <time>2022-07-26T15:27:18Z</time>
      </trkpt>
      <trkpt lat="44.0855" lon="7.10469">
        <ele>521</ele>
        <time>2022-07-26T15:27:19Z</time>
      </trkpt>
      <trkpt lat="44.08549" lon="7.10469">
        <ele>520</ele>
        <time>2022-07-26T15:27:20Z</time>
      </trkpt>
      <trkpt lat="44.08548" lon="7.10469">
        <ele>520</ele>
        <time>2022-07-26T15:27:21Z</time>
      </trkpt>
      <trkpt lat="44.08546" lon="7.1047">
        <ele>520</ele>
        <time>2022-07-26T15:27:22Z</time>
      </trkpt>
      <trkpt lat="44.08545" lon="7.10469">
        <ele>519</ele>
        <time>2022-07-26T15:27:23Z</time>
      </trkpt>
      <trkpt lat="44.08544" lon="7.10469">
        <ele>519</ele>
        <time>2022-07-26T15:27:24Z</time>
      </trkpt>
      <trkpt lat="44.08543" lon="7.10469">
        <ele>519</ele>
        <time>2022-07-26T15:27:25Z</time>
      </trkpt>
      <trkpt lat="44.08542" lon="7.10468">
        <ele>519</ele>
        <time>2022-07-26T15:27:26Z</time>
      </trkpt>
      <trkpt lat="44.08542" lon="7.10467">
        <ele>519</ele>
        <time>2022-07-26T15:27:27Z</time>
      </trkpt>
      <trkpt lat="44.08541" lon="7.10465">
        <ele>518</ele>
        <time>2022-07-26T15:27:28Z</time>
      </trkpt>
      <trkpt lat="44.08541" lon="7.10465">
        <ele>518</ele>
        <time>2022-07-26T15:27:29Z</time>
      </trkpt>
      <trkpt lat="44.08541" lon="7.10464">
        <ele>518</ele>
        <time>2022-07-26T15:27:30Z</time>
      </trkpt>
      <trkpt lat="44.08541" lon="7.10463">
        <ele>518</ele>
        <time>2022-07-26T15:27:31Z</time>
      </trkpt>
      <trkpt lat="44.08541" lon="7.10462">
        <ele>518</ele>
        <time>2022-07-26T15:27:32Z</time>
      </trkpt>
      <trkpt lat="44.08541" lon="7.10462">
        <ele>517</ele>
        <time>2022-07-26T15:27:33Z</time>
      </trkpt>
      <trkpt lat="44.08541" lon="7.10462">
        <ele>517</ele>
        <time>2022-07-26T15:27:34Z</time>
      </trkpt>
      <trkpt lat="44.08541" lon="7.10461">
        <ele>517</ele>
        <time>2022-07-26T15:27:35Z</time>
      </trkpt>
      <trkpt lat="44.08541" lon="7.10462">
        <ele>517</ele>
        <time>2022-07-26T15:27:36Z</time>
      </trkpt>
      <trkpt lat="44.0854" lon="7.10462">
        <ele>517</ele>
        <time>2022-07-26T15:27:37Z</time>
      </trkpt>
      <trkpt lat="44.08541" lon="7.10463">
        <ele>516</ele>
        <time>2022-07-26T15:27:38Z</time>
      </trkpt>
      <trkpt lat="44.08541" lon="7.10464">
        <ele>516</ele>
        <time>2022-07-26T15:27:39Z</time>
      </trkpt>
      <trkpt lat="44.08541" lon="7.10465">
        <ele>516</ele>
        <time>2022-07-26T15:27:40Z</time>
      </trkpt>
      <trkpt lat="44.08541" lon="7.10466">
        <ele>516</ele>
        <time>2022-07-26T15:27:41Z</time>
      </trkpt>
      <trkpt lat="44.08541" lon="7.10467">
        <ele>516</ele>
        <time>2022-07-26T15:27:42Z</time>
      </trkpt>
      <trkpt lat="44.08542" lon="7.10469">
        <ele>515</ele>
        <time>2022-07-26T15:27:43Z</time>
      </trkpt>
      <trkpt lat="44.08541" lon="7.1047">
        <ele>512</ele>
        <time>2022-07-26T15:28:06Z</time>
      </trkpt>
      <trkpt lat="44.0854" lon="7.1047">
        <ele>512</ele>
        <time>2022-07-26T15:28:07Z</time>
      </trkpt>
      <trkpt lat="44.0854" lon="7.1047">
        <ele>512</ele>
        <time>2022-07-26T15:28:08Z</time>
      </trkpt>
      <trkpt lat="44.08539" lon="7.10471">
        <ele>512</ele>
        <time>2022-07-26T15:28:09Z</time>
      </trkpt>
      <trkpt lat="44.08538" lon="7.10471">
        <ele>512</ele>
        <time>2022-07-26T15:28:10Z</time>
      </trkpt>
      <trkpt lat="44.08538" lon="7.10471">
        <ele>512</ele>
        <time>2022-07-26T15:28:11Z</time>
      </trkpt>
      <trkpt lat="44.08537" lon="7.10471">
        <ele>512</ele>
        <time>2022-07-26T15:28:12Z</time>
      </trkpt>
      <trkpt lat="44.08536" lon="7.10471">
        <ele>511</ele>
        <time>2022-07-26T15:28:13Z</time>
      </trkpt>
      <trkpt lat="44.08535" lon="7.10471">
        <ele>511</ele>
        <time>2022-07-26T15:28:14Z</time>
      </trkpt>
      <trkpt lat="44.08534" lon="7.10471">
        <ele>511</ele>
        <time>2022-07-26T15:28:15Z</time>
      </trkpt>
      <trkpt lat="44.08532" lon="7.10472">
        <ele>511</ele>
        <time>2022-07-26T15:28:16Z</time>
      </trkpt>
      <trkpt lat="44.08531" lon="7.10472">
        <ele>511</ele>
        <time>2022-07-26T15:28:17Z</time>
      </trkpt>
      <trkpt lat="44.0853" lon="7.10473">
        <ele>511</ele>
        <time>2022-07-26T15:28:18Z</time>
      </trkpt>
      <trkpt lat="44.08529" lon="7.10474">
        <ele>511</ele>
        <time>2022-07-26T15:28:19Z</time>
      </trkpt>
      <trkpt lat="44.08528" lon="7.10475">
        <ele>511</ele>
        <time>2022-07-26T15:28:20Z</time>
      </trkpt>
      <trkpt lat="44.08527" lon="7.10476">
        <ele>511</ele>
        <time>2022-07-26T15:28:21Z</time>
      </trkpt>
      <trkpt lat="44.08526" lon="7.10477">
        <ele>511</ele>
        <time>2022-07-26T15:28:22Z</time>
      </trkpt>
      <trkpt lat="44.08524" lon="7.10478">
        <ele>511</ele>
        <time>2022-07-26T15:28:23Z</time>
      </trkpt>
      <trkpt lat="44.08523" lon="7.1048">
        <ele>511</ele>
        <time>2022-07-26T15:28:24Z</time>
      </trkpt>
      <trkpt lat="44.08521" lon="7.1048">
        <ele>511</ele>
        <time>2022-07-26T15:28:25Z</time>
      </trkpt>
      <trkpt lat="44.08519" lon="7.10481">
        <ele>511</ele>
        <time>2022-07-26T15:28:26Z</time>
      </trkpt>
      <trkpt lat="44.08518" lon="7.10482">
        <ele>511</ele>
        <time>2022-07-26T15:28:27Z</time>
      </trkpt>
      <trkpt lat="44.08516" lon="7.10483">
        <ele>511</ele>
        <time>2022-07-26T15:28:28Z</time>
      </trkpt>
      <trkpt lat="44.08515" lon="7.10484">
        <ele>511</ele>
        <time>2022-07-26T15:28:29Z</time>
      </trkpt>
      <trkpt lat="44.08513" lon="7.10485">
        <ele>511</ele>
        <time>2022-07-26T15:28:30Z</time>
      </trkpt>
      <trkpt lat="44.08512" lon="7.10486">
        <ele>511</ele>
        <time>2022-07-26T15:28:31Z</time>
      </trkpt>
      <trkpt lat="44.08511" lon="7.10486">
        <ele>511</ele>
        <time>2022-07-26T15:28:32Z</time>
      </trkpt>
      <trkpt lat="44.0851" lon="7.10487">
        <ele>511</ele>
        <time>2022-07-26T15:28:33Z</time>
      </trkpt>
      <trkpt lat="44.08509" lon="7.10488">
        <ele>511</ele>
        <time>2022-07-26T15:28:34Z</time>
      </trkpt>
      <trkpt lat="44.08507" lon="7.10488">
        <ele>511</ele>
        <time>2022-07-26T15:28:35Z</time>
      </trkpt>
      <trkpt lat="44.08506" lon="7.10489">
        <ele>511</ele>
        <time>2022-07-26T15:28:36Z</time>
      </trkpt>
      <trkpt lat="44.08505" lon="7.10489">
        <ele>511</ele>
        <time>2022-07-26T15:28:37Z</time>
      </trkpt>
      <trkpt lat="44.08505" lon="7.1049">
        <ele>511</ele>
        <time>2022-07-26T15:28:38Z</time>
      </trkpt>
      <trkpt lat="44.08505" lon="7.1049">
        <ele>511</ele>
        <time>2022-07-26T15:28:39Z</time>
      </trkpt>
      <trkpt lat="44.08505" lon="7.1049">
        <ele>511</ele>
        <time>2022-07-26T15:28:40Z</time>
      </trkpt>
      <trkpt lat="44.08506" lon="7.10491">
        <ele>511</ele>
        <time>2022-07-26T15:28:41Z</time>
      </trkpt>
      <trkpt lat="44.08507" lon="7.10491">
        <ele>511</ele>
        <time>2022-07-26T15:28:42Z</time>
      </trkpt>
      <trkpt lat="44.0851" lon="7.1049">
        <ele>510</ele>
        <time>2022-07-26T15:29:27Z</time>
      </trkpt>
      <trkpt lat="44.08511" lon="7.1049">
        <ele>510</ele>
        <time>2022-07-26T15:29:28Z</time>
      </trkpt>
      <trkpt lat="44.08512" lon="7.10489">
        <ele>510</ele>
        <time>2022-07-26T15:29:29Z</time>
      </trkpt>
      <trkpt lat="44.08513" lon="7.10489">
        <ele>510</ele>
        <time>2022-07-26T15:29:30Z</time>
      </trkpt>
      <trkpt lat="44.08514" lon="7.10489">
        <ele>510</ele>
        <time>2022-07-26T15:29:31Z</time>
      </trkpt>
      <trkpt lat="44.08515" lon="7.10488">
        <ele>510</ele>
        <time>2022-07-26T15:29:32Z</time>
      </trkpt>
      <trkpt lat="44.08516" lon="7.10488">
        <ele>510</ele>
        <time>2022-07-26T15:29:33Z</time>
      </trkpt>
      <trkpt lat="44.08518" lon="7.10488">
        <ele>510</ele>
        <time>2022-07-26T15:29:34Z</time>
      </trkpt>
      <trkpt lat="44.08519" lon="7.10488">
        <ele>510</ele>
        <time>2022-07-26T15:29:35Z</time>
      </trkpt>
      <trkpt lat="44.0852" lon="7.10488">
        <ele>510</ele>
        <time>2022-07-26T15:29:36Z</time>
      </trkpt>
      <trkpt lat="44.08521" lon="7.10488">
        <ele>510</ele>
        <time>2022-07-26T15:29:37Z</time>
      </trkpt>
      <trkpt lat="44.08523" lon="7.10488">
        <ele>510</ele>
        <time>2022-07-26T15:29:38Z</time>
      </trkpt>
      <trkpt lat="44.08524" lon="7.10489">
        <ele>510</ele>
        <time>2022-07-26T15:29:39Z</time>
      </trkpt>
      <trkpt lat="44.08525" lon="7.10489">
        <ele>510</ele>
        <time>2022-07-26T15:29:40Z</time>
      </trkpt>
      <trkpt lat="44.08527" lon="7.10489">
        <ele>510</ele>
        <time>2022-07-26T15:29:41Z</time>
      </trkpt>
      <trkpt lat="44.08528" lon="7.10489">
        <ele>510</ele>
        <time>2022-07-26T15:29:42Z</time>
      </trkpt>
      <trkpt lat="44.0853" lon="7.10489">
        <ele>510</ele>
        <time>2022-07-26T15:29:43Z</time>
      </trkpt>
      <trkpt lat="44.08531" lon="7.10489">
        <ele>510</ele>
        <time>2022-07-26T15:29:44Z</time>
      </trkpt>
      <trkpt lat="44.08533" lon="7.10489">
        <ele>510</ele>
        <time>2022-07-26T15:29:45Z</time>
      </trkpt>
      <trkpt lat="44.08535" lon="7.10489">
        <ele>510</ele>
        <time>2022-07-26T15:29:46Z</time>
      </trkpt>
      <trkpt lat="44.08537" lon="7.10489">
        <ele>510</ele>
        <time>2022-07-26T15:29:47Z</time>
      </trkpt>
      <trkpt lat="44.08538" lon="7.10488">
        <ele>510</ele>
        <time>2022-07-26T15:29:48Z</time>
      </trkpt>
      <trkpt lat="44.0854" lon="7.10488">
        <ele>510</ele>
        <time>2022-07-26T15:29:49Z</time>
      </trkpt>
      <trkpt lat="44.08541" lon="7.10488">
        <ele>510</ele>
        <time>2022-07-26T15:29:50Z</time>
      </trkpt>
      <trkpt lat="44.08542" lon="7.10487">
        <ele>510</ele>
        <time>2022-07-26T15:29:51Z</time>
      </trkpt>
      <trkpt lat="44.08543" lon="7.10487">
        <ele>510</ele>
        <time>2022-07-26T15:29:52Z</time>
      </trkpt>
      <trkpt lat="44.08544" lon="7.10487">
        <ele>510</ele>
        <time>2022-07-26T15:29:53Z</time>
      </trkpt>
      <trkpt lat="44.08546" lon="7.10486">
        <ele>510</ele>
        <time>2022-07-26T15:29:54Z</time>
      </trkpt>
      <trkpt lat="44.08547" lon="7.10486">
        <ele>510</ele>
        <time>2022-07-26T15:29:55Z</time>
      </trkpt>
      <trkpt lat="44.08548" lon="7.10486">
        <ele>510</ele>
        <time>2022-07-26T15:29:56Z</time>
      </trkpt>
      <trkpt lat="44.0855" lon="7.10486">
        <ele>510</ele>
        <time>2022-07-26T15:29:57Z</time>
      </trkpt>
      <trkpt lat="44.08551" lon="7.10485">
        <ele>510</ele>
        <time>2022-07-26T15:29:58Z</time>
      </trkpt>
      <trkpt lat="44.08552" lon="7.10485">
        <ele>510</ele>
        <time>2022-07-26T15:29:59Z</time>
      </trkpt>
      <trkpt lat="44.08553" lon="7.10484">
        <ele>510</ele>
        <time>2022-07-26T15:30:00Z</time>
      </trkpt>
      <trkpt lat="44.08554" lon="7.10483">
        <ele>510</ele>
        <time>2022-07-26T15:30:01Z</time>
      </trkpt>
      <trkpt lat="44.08555" lon="7.10483">
        <ele>510</ele>
        <time>2022-07-26T15:30:02Z</time>
      </trkpt>
      <trkpt lat="44.08557" lon="7.10482">
        <ele>510</ele>
        <time>2022-07-26T15:30:03Z</time>
      </trkpt>
      <trkpt lat="44.08558" lon="7.10481">
        <ele>510</ele>
        <time>2022-07-26T15:30:04Z</time>
      </trkpt>
      <trkpt lat="44.08559" lon="7.10481">
        <ele>510</ele>
        <time>2022-07-26T15:30:05Z</time>
      </trkpt>
      <trkpt lat="44.0856" lon="7.1048">
        <ele>510</ele>
        <time>2022-07-26T15:30:06Z</time>
      </trkpt>
      <trkpt lat="44.08561" lon="7.1048">
        <ele>510</ele>
        <time>2022-07-26T15:30:07Z</time>
      </trkpt>
      <trkpt lat="44.08562" lon="7.10479">
        <ele>510</ele>
        <time>2022-07-26T15:30:08Z</time>
      </trkpt>
      <trkpt lat="44.08563" lon="7.10479">
        <ele>510</ele>
        <time>2022-07-26T15:30:09Z</time>
      </trkpt>
      <trkpt lat="44.08564" lon="7.10479">
        <ele>510</ele>
        <time>2022-07-26T15:30:10Z</time>
      </trkpt>
      <trkpt lat="44.08565" lon="7.10478">
        <ele>510</ele>
        <time>2022-07-26T15:30:11Z</time>
      </trkpt>
      <trkpt lat="44.08566" lon="7.10478">
        <ele>511</ele>
        <time>2022-07-26T15:30:12Z</time>
      </trkpt>
      <trkpt lat="44.08567" lon="7.10477">
        <ele>511</ele>
        <time>2022-07-26T15:30:13Z</time>
      </trkpt>
      <trkpt lat="44.08568" lon="7.10477">
        <ele>511</ele>
        <time>2022-07-26T15:30:14Z</time>
      </trkpt>
      <trkpt lat="44.08569" lon="7.10476">
        <ele>511</ele>
        <time>2022-07-26T15:30:15Z</time>
      </trkpt>
      <trkpt lat="44.0857" lon="7.10476">
        <ele>511</ele>
        <time>2022-07-26T15:30:16Z</time>
      </trkpt>
      <trkpt lat="44.08571" lon="7.10475">
        <ele>511</ele>
        <time>2022-07-26T15:30:17Z</time>
      </trkpt>
      <trkpt lat="44.08572" lon="7.10474">
        <ele>511</ele>
        <time>2022-07-26T15:30:18Z</time>
      </trkpt>
      <trkpt lat="44.08574" lon="7.10473">
        <ele>511</ele>
        <time>2022-07-26T15:30:19Z</time>
      </trkpt>
      <trkpt lat="44.08575" lon="7.10472">
        <ele>511</ele>
        <time>2022-07-26T15:30:20Z</time>
      </trkpt>
      <trkpt lat="44.08576" lon="7.10472">
        <ele>511</ele>
        <time>2022-07-26T15:30:21Z</time>
      </trkpt>
      <trkpt lat="44.08578" lon="7.10471">
        <ele>511</ele>
        <time>2022-07-26T15:30:22Z</time>
      </trkpt>
      <trkpt lat="44.08578" lon="7.1047">
        <ele>511</ele>
        <time>2022-07-26T15:30:23Z</time>
      </trkpt>
      <trkpt lat="44.08579" lon="7.10469">
        <ele>511</ele>
        <time>2022-07-26T15:30:24Z</time>
      </trkpt>
      <trkpt lat="44.0858" lon="7.10469">
        <ele>511</ele>
        <time>2022-07-26T15:30:25Z</time>
      </trkpt>
      <trkpt lat="44.08581" lon="7.10468">
        <ele>511</ele>
        <time>2022-07-26T15:30:26Z</time>
      </trkpt>
      <trkpt lat="44.08582" lon="7.10467">
        <ele>511</ele>
        <time>2022-07-26T15:30:27Z</time>
      </trkpt>
      <trkpt lat="44.08583" lon="7.10466">
        <ele>511</ele>
        <time>2022-07-26T15:30:28Z</time>
      </trkpt>
      <trkpt lat="44.08584" lon="7.10466">
        <ele>511</ele>
        <time>2022-07-26T15:30:29Z</time>
      </trkpt>
      <trkpt lat="44.08585" lon="7.10465">
        <ele>511</ele>
        <time>2022-07-26T15:30:30Z</time>
      </trkpt>
      <trkpt lat="44.08586" lon="7.10465">
        <ele>511</ele>
        <time>2022-07-26T15:30:31Z</time>
      </trkpt>
      <trkpt lat="44.08587" lon="7.10464">
        <ele>511</ele>
        <time>2022-07-26T15:30:32Z</time>
      </trkpt>
      <trkpt lat="44.08588" lon="7.10464">
        <ele>511</ele>
        <time>2022-07-26T15:30:33Z</time>
      </trkpt>
      <trkpt lat="44.08589" lon="7.10464">
        <ele>511</ele>
        <time>2022-07-26T15:30:34Z</time>
      </trkpt>
      <trkpt lat="44.0859" lon="7.10464">
        <ele>511</ele>
        <time>2022-07-26T15:30:35Z</time>
      </trkpt>
      <trkpt lat="44.08591" lon="7.10464">
        <ele>511</ele>
        <time>2022-07-26T15:30:36Z</time>
      </trkpt>
      <trkpt lat="44.08592" lon="7.10464">
        <ele>512</ele>
        <time>2022-07-26T15:30:37Z</time>
      </trkpt>
      <trkpt lat="44.08593" lon="7.10464">
        <ele>512</ele>
        <time>2022-07-26T15:30:38Z</time>
      </trkpt>
      <trkpt lat="44.08595" lon="7.10464">
        <ele>512</ele>
        <time>2022-07-26T15:30:39Z</time>
      </trkpt>
      <trkpt lat="44.08596" lon="7.10464">
        <ele>512</ele>
        <time>2022-07-26T15:30:40Z</time>
      </trkpt>
      <trkpt lat="44.08597" lon="7.10465">
        <ele>512</ele>
        <time>2022-07-26T15:30:41Z</time>
      </trkpt>
      <trkpt lat="44.08599" lon="7.10465">
        <ele>512</ele>
        <time>2022-07-26T15:30:42Z</time>
      </trkpt>
      <trkpt lat="44.086" lon="7.10465">
        <ele>512</ele>
        <time>2022-07-26T15:30:43Z</time>
      </trkpt>
      <trkpt lat="44.08602" lon="7.10466">
        <ele>512</ele>
        <time>2022-07-26T15:30:44Z</time>
      </trkpt>
      <trkpt lat="44.08603" lon="7.10465">
        <ele>512</ele>
        <time>2022-07-26T15:30:45Z</time>
      </trkpt>
      <trkpt lat="44.08605" lon="7.10465">
        <ele>512</ele>
        <time>2022-07-26T15:30:46Z</time>
      </trkpt>
      <trkpt lat="44.08606" lon="7.10464">
        <ele>512</ele>
        <time>2022-07-26T15:30:47Z</time>
      </trkpt>
      <trkpt lat="44.08608" lon="7.10462">
        <ele>512</ele>
        <time>2022-07-26T15:30:48Z</time>
      </trkpt>
      <trkpt lat="44.08609" lon="7.10462">
        <ele>512</ele>
        <time>2022-07-26T15:30:49Z</time>
      </trkpt>
      <trkpt lat="44.0861" lon="7.10461">
        <ele>512</ele>
        <time>2022-07-26T15:30:50Z</time>
      </trkpt>
      <trkpt lat="44.08612" lon="7.1046">
        <ele>512</ele>
        <time>2022-07-26T15:30:51Z</time>
      </trkpt>
      <trkpt lat="44.08613" lon="7.1046">
        <ele>512</ele>
        <time>2022-07-26T15:30:52Z</time>
      </trkpt>
      <trkpt lat="44.08615" lon="7.10459">
        <ele>512</ele>
        <time>2022-07-26T15:30:53Z</time>
      </trkpt>
      <trkpt lat="44.08617" lon="7.10458">
        <ele>512</ele>
        <time>2022-07-26T15:30:54Z</time>
      </trkpt>
      <trkpt lat="44.08618" lon="7.10458">
        <ele>512</ele>
        <time>2022-07-26T15:30:55Z</time>
      </trkpt>
      <trkpt lat="44.0862" lon="7.10457">
        <ele>512</ele>
        <time>2022-07-26T15:30:56Z</time>
      </trkpt>
      <trkpt lat="44.08621" lon="7.10456">
        <ele>513</ele>
        <time>2022-07-26T15:30:57Z</time>
      </trkpt>
      <trkpt lat="44.08623" lon="7.10455">
        <ele>513</ele>
        <time>2022-07-26T15:30:58Z</time>
      </trkpt>
      <trkpt lat="44.08624" lon="7.10454">
        <ele>513</ele>
        <time>2022-07-26T15:30:59Z</time>
      </trkpt>
      <trkpt lat="44.08625" lon="7.10453">
        <ele>513</ele>
        <time>2022-07-26T15:31:00Z</time>
      </trkpt>
      <trkpt lat="44.08626" lon="7.10453">
        <ele>513</ele>
        <time>2022-07-26T15:31:01Z</time>
      </trkpt>
      <trkpt lat="44.08626" lon="7.10453">
        <ele>513</ele>
        <time>2022-07-26T15:31:02Z</time>
      </trkpt>
      <trkpt lat="44.08627" lon="7.10454">
        <ele>513</ele>
        <time>2022-07-26T15:31:03Z</time>
      </trkpt>
      <trkpt lat="44.08627" lon="7.10454">
        <ele>513</ele>
        <time>2022-07-26T15:31:04Z</time>
      </trkpt>
      <trkpt lat="44.08628" lon="7.10455">
        <ele>513</ele>
        <time>2022-07-26T15:31:05Z</time>
      </trkpt>
      <trkpt lat="44.08628" lon="7.10456">
        <ele>513</ele>
        <time>2022-07-26T15:31:06Z</time>
      </trkpt>
      <trkpt lat="44.08629" lon="7.10457">
        <ele>513</ele>
        <time>2022-07-26T15:31:07Z</time>
      </trkpt>
      <trkpt lat="44.0863" lon="7.10458">
        <ele>512</ele>
        <time>2022-07-26T15:31:08Z</time>
      </trkpt>
      <trkpt lat="44.08631" lon="7.10459">
        <ele>512</ele>
        <time>2022-07-26T15:31:09Z</time>
      </trkpt>
      <trkpt lat="44.08632" lon="7.1046">
        <ele>512</ele>
        <time>2022-07-26T15:31:10Z</time>
      </trkpt>
      <trkpt lat="44.08632" lon="7.10462">
        <ele>512</ele>
        <time>2022-07-26T15:31:11Z</time>
      </trkpt>
      <trkpt lat="44.08633" lon="7.10463">
        <ele>512</ele>
        <time>2022-07-26T15:31:12Z</time>
      </trkpt>
      <trkpt lat="44.08634" lon="7.10464">
        <ele>511</ele>
        <time>2022-07-26T15:31:13Z</time>
      </trkpt>
      <trkpt lat="44.08634" lon="7.10465">
        <ele>511</ele>
        <time>2022-07-26T15:31:14Z</time>
      </trkpt>
      <trkpt lat="44.08635" lon="7.10466">
        <ele>511</ele>
        <time>2022-07-26T15:31:15Z</time>
      </trkpt>
      <trkpt lat="44.08636" lon="7.10467">
        <ele>511</ele>
        <time>2022-07-26T15:31:16Z</time>
      </trkpt>
      <trkpt lat="44.08637" lon="7.10467">
        <ele>511</ele>
        <time>2022-07-26T15:31:17Z</time>
      </trkpt>
      <trkpt lat="44.08638" lon="7.10467">
        <ele>511</ele>
        <time>2022-07-26T15:31:18Z</time>
      </trkpt>
      <trkpt lat="44.08639" lon="7.10466">
        <ele>511</ele>
        <time>2022-07-26T15:31:19Z</time>
      </trkpt>
      <trkpt lat="44.0864" lon="7.10465">
        <ele>511</ele>
        <time>2022-07-26T15:31:20Z</time>
      </trkpt>
      <trkpt lat="44.08641" lon="7.10464">
        <ele>511</ele>
        <time>2022-07-26T15:31:21Z</time>
      </trkpt>
      <trkpt lat="44.08641" lon="7.10462">
        <ele>511</ele>
        <time>2022-07-26T15:31:22Z</time>
      </trkpt>
      <trkpt lat="44.08642" lon="7.10461">
        <ele>511</ele>
        <time>2022-07-26T15:31:23Z</time>
      </trkpt>
      <trkpt lat="44.08643" lon="7.1046">
        <ele>511</ele>
        <time>2022-07-26T15:31:24Z</time>
      </trkpt>
      <trkpt lat="44.08645" lon="7.10459">
        <ele>511</ele>
        <time>2022-07-26T15:31:25Z</time>
      </trkpt>
      <trkpt lat="44.08646" lon="7.10458">
        <ele>511</ele>
        <time>2022-07-26T15:31:26Z</time>
      </trkpt>
      <trkpt lat="44.08647" lon="7.10458">
        <ele>511</ele>
        <time>2022-07-26T15:31:27Z</time>
      </trkpt>
      <trkpt lat="44.08648" lon="7.10457">
        <ele>511</ele>
        <time>2022-07-26T15:31:28Z</time>
      </trkpt>
      <trkpt lat="44.08649" lon="7.10457">
        <ele>511</ele>
        <time>2022-07-26T15:31:29Z</time>
      </trkpt>
      <trkpt lat="44.08651" lon="7.10457">
        <ele>511</ele>
        <time>2022-07-26T15:31:30Z</time>
      </trkpt>
      <trkpt lat="44.08652" lon="7.10457">
        <ele>511</ele>
        <time>2022-07-26T15:31:31Z</time>
      </trkpt>
      <trkpt lat="44.08654" lon="7.10458">
        <ele>511</ele>
        <time>2022-07-26T15:31:32Z</time>
      </trkpt>
      <trkpt lat="44.08655" lon="7.10458">
        <ele>510</ele>
        <time>2022-07-26T15:31:33Z</time>
      </trkpt>
      <trkpt lat="44.08656" lon="7.10458">
        <ele>510</ele>
        <time>2022-07-26T15:31:34Z</time>
      </trkpt>
      <trkpt lat="44.08658" lon="7.10459">
        <ele>510</ele>
        <time>2022-07-26T15:31:35Z</time>
      </trkpt>
      <trkpt lat="44.08659" lon="7.10459">
        <ele>510</ele>
        <time>2022-07-26T15:31:36Z</time>
      </trkpt>
      <trkpt lat="44.0866" lon="7.1046">
        <ele>510</ele>
        <time>2022-07-26T15:31:37Z</time>
      </trkpt>
      <trkpt lat="44.08662" lon="7.1046">
        <ele>510</ele>
        <time>2022-07-26T15:31:38Z</time>
      </trkpt>
      <trkpt lat="44.08663" lon="7.10461">
        <ele>510</ele>
        <time>2022-07-26T15:31:39Z</time>
      </trkpt>
      <trkpt lat="44.08664" lon="7.10462">
        <ele>510</ele>
        <time>2022-07-26T15:31:40Z</time>
      </trkpt>
      <trkpt lat="44.08665" lon="7.10463">
        <ele>510</ele>
        <time>2022-07-26T15:31:41Z</time>
      </trkpt>
      <trkpt lat="44.08666" lon="7.10463">
        <ele>510</ele>
        <time>2022-07-26T15:31:42Z</time>
      </trkpt>
      <trkpt lat="44.08667" lon="7.10464">
        <ele>510</ele>
        <time>2022-07-26T15:31:43Z</time>
      </trkpt>
      <trkpt lat="44.08668" lon="7.10465">
        <ele>510</ele>
        <time>2022-07-26T15:31:44Z</time>
      </trkpt>
      <trkpt lat="44.08669" lon="7.10465">
        <ele>510</ele>
        <time>2022-07-26T15:31:45Z</time>
      </trkpt>
      <trkpt lat="44.0867" lon="7.10466">
        <ele>510</ele>
        <time>2022-07-26T15:31:46Z</time>
      </trkpt>
      <trkpt lat="44.08671" lon="7.10467">
        <ele>510</ele>
        <time>2022-07-26T15:31:47Z</time>
      </trkpt>
      <trkpt lat="44.08672" lon="7.10468">
        <ele>510</ele>
        <time>2022-07-26T15:31:48Z</time>
      </trkpt>
      <trkpt lat="44.08673" lon="7.10469">
        <ele>510</ele>
        <time>2022-07-26T15:31:49Z</time>
      </trkpt>
      <trkpt lat="44.08674" lon="7.1047">
        <ele>510</ele>
        <time>2022-07-26T15:31:50Z</time>
      </trkpt>
      <trkpt lat="44.08675" lon="7.10471">
        <ele>510</ele>
        <time>2022-07-26T15:31:51Z</time>
      </trkpt>
      <trkpt lat="44.08676" lon="7.10472">
        <ele>510</ele>
        <time>2022-07-26T15:31:52Z</time>
      </trkpt>
      <trkpt lat="44.08677" lon="7.10473">
        <ele>510</ele>
        <time>2022-07-26T15:31:53Z</time>
      </trkpt>
      <trkpt lat="44.08678" lon="7.10473">
        <ele>510</ele>
        <time>2022-07-26T15:31:54Z</time>
      </trkpt>
      <trkpt lat="44.08679" lon="7.10474">
        <ele>510</ele>
        <time>2022-07-26T15:31:55Z</time>
      </trkpt>
      <trkpt lat="44.0868" lon="7.10475">
        <ele>510</ele>
        <time>2022-07-26T15:31:56Z</time>
      </trkpt>
      <trkpt lat="44.08681" lon="7.10475">
        <ele>510</ele>
        <time>2022-07-26T15:31:57Z</time>
      </trkpt>
      <trkpt lat="44.08682" lon="7.10476">
        <ele>510</ele>
        <time>2022-07-26T15:31:58Z</time>
      </trkpt>
      <trkpt lat="44.08683" lon="7.10477">
        <ele>510</ele>
        <time>2022-07-26T15:31:59Z</time>
      </trkpt>
      <trkpt lat="44.08684" lon="7.10477">
        <ele>510</ele>
        <time>2022-07-26T15:32:00Z</time>
      </trkpt>
      <trkpt lat="44.08686" lon="7.10478">
        <ele>510</ele>
        <time>2022-07-26T15:32:01Z</time>
      </trkpt>
      <trkpt lat="44.08687" lon="7.10479">
        <ele>510</ele>
        <time>2022-07-26T15:32:02Z</time>
      </trkpt>
      <trkpt lat="44.08688" lon="7.1048">
        <ele>510</ele>
        <time>2022-07-26T15:32:03Z</time>
      </trkpt>
      <trkpt lat="44.0869" lon="7.10481">
        <ele>510</ele>
        <time>2022-07-26T15:32:04Z</time>
      </trkpt>
      <trkpt lat="44.0869" lon="7.10481">
        <ele>510</ele>
        <time>2022-07-26T15:32:05Z</time>
      </trkpt>
      <trkpt lat="44.08691" lon="7.10482">
        <ele>510</ele>
        <time>2022-07-26T15:32:06Z</time>
      </trkpt>
      <trkpt lat="44.08692" lon="7.10482">
        <ele>510</ele>
        <time>2022-07-26T15:32:07Z</time>
      </trkpt>
      <trkpt lat="44.08692" lon="7.10483">
        <ele>510</ele>
        <time>2022-07-26T15:32:08Z</time>
      </trkpt>
      <trkpt lat="44.08693" lon="7.10483">
        <ele>510</ele>
        <time>2022-07-26T15:32:09Z</time>
      </trkpt>
      <trkpt lat="44.08694" lon="7.10484">
        <ele>510</ele>
        <time>2022-07-26T15:32:10Z</time>
      </trkpt>
      <trkpt lat="44.08694" lon="7.10484">
        <ele>510</ele>
        <time>2022-07-26T15:32:11Z</time>
      </trkpt>
      <trkpt lat="44.08695" lon="7.10485">
        <ele>510</ele>
        <time>2022-07-26T15:32:12Z</time>
      </trkpt>
      <trkpt lat="44.08696" lon="7.10485">
        <ele>510</ele>
        <time>2022-07-26T15:32:13Z</time>
      </trkpt>
      <trkpt lat="44.08697" lon="7.10486">
        <ele>510</ele>
        <time>2022-07-26T15:32:14Z</time>
      </trkpt>
      <trkpt lat="44.08698" lon="7.10486">
        <ele>510</ele>
        <time>2022-07-26T15:32:15Z</time>
      </trkpt>
      <trkpt lat="44.08699" lon="7.10487">
        <ele>510</ele>
        <time>2022-07-26T15:32:16Z</time>
      </trkpt>
      <trkpt lat="44.08699" lon="7.10487">
        <ele>510</ele>
        <time>2022-07-26T15:32:17Z</time>
      </trkpt>
      <trkpt lat="44.087" lon="7.10488">
        <ele>510</ele>
        <time>2022-07-26T15:32:18Z</time>
      </trkpt>
      <trkpt lat="44.08701" lon="7.10489">
        <ele>510</ele>
        <time>2022-07-26T15:32:19Z</time>
      </trkpt>
      <trkpt lat="44.08702" lon="7.1049">
        <ele>510</ele>
        <time>2022-07-26T15:32:20Z</time>
      </trkpt>
      <trkpt lat="44.08704" lon="7.1049">
        <ele>510</ele>
        <time>2022-07-26T15:32:21Z</time>
      </trkpt>
      <trkpt lat="44.08705" lon="7.10491">
        <ele>510</ele>
        <time>2022-07-26T15:32:22Z</time>
      </trkpt>
      <trkpt lat="44.08706" lon="7.10492">
        <ele>510</ele>
        <time>2022-07-26T15:32:23Z</time>
      </trkpt>
      <trkpt lat="44.08707" lon="7.10493">
        <ele>510</ele>
        <time>2022-07-26T15:32:24Z</time>
      </trkpt>
      <trkpt lat="44.08708" lon="7.10493">
        <ele>510</ele>
        <time>2022-07-26T15:32:25Z</time>
      </trkpt>
      <trkpt lat="44.08708" lon="7.10494">
        <ele>510</ele>
        <time>2022-07-26T15:32:26Z</time>
      </trkpt>
      <trkpt lat="44.08709" lon="7.10494">
        <ele>510</ele>
        <time>2022-07-26T15:32:27Z</time>
      </trkpt>
      <trkpt lat="44.0871" lon="7.10494">
        <ele>510</ele>
        <time>2022-07-26T15:32:28Z</time>
      </trkpt>
      <trkpt lat="44.0871" lon="7.10495">
        <ele>510</ele>
        <time>2022-07-26T15:32:29Z</time>
      </trkpt>
      <trkpt lat="44.08711" lon="7.10496">
        <ele>510</ele>
        <time>2022-07-26T15:32:30Z</time>
      </trkpt>
      <trkpt lat="44.08711" lon="7.10496">
        <ele>510</ele>
        <time>2022-07-26T15:32:31Z</time>
      </trkpt>
      <trkpt lat="44.08712" lon="7.10497">
        <ele>510</ele>
        <time>2022-07-26T15:32:32Z</time>
      </trkpt>
      <trkpt lat="44.08713" lon="7.10499">
        <ele>510</ele>
        <time>2022-07-26T15:32:33Z</time>
      </trkpt>
      <trkpt lat="44.08714" lon="7.105">
        <ele>510</ele>
        <time>2022-07-26T15:32:34Z</time>
      </trkpt>
      <trkpt lat="44.08715" lon="7.10501">
        <ele>510</ele>
        <time>2022-07-26T15:32:35Z</time>
      </trkpt>
      <trkpt lat="44.08717" lon="7.10502">
        <ele>510</ele>
        <time>2022-07-26T15:32:36Z</time>
      </trkpt>
      <trkpt lat="44.08718" lon="7.10503">
        <ele>510</ele>
        <time>2022-07-26T15:32:37Z</time>
      </trkpt>
      <trkpt lat="44.08719" lon="7.10504">
        <ele>510</ele>
        <time>2022-07-26T15:32:38Z</time>
      </trkpt>
      <trkpt lat="44.08721" lon="7.10505">
        <ele>510</ele>
        <time>2022-07-26T15:32:39Z</time>
      </trkpt>
      <trkpt lat="44.08722" lon="7.10506">
        <ele>510</ele>
        <time>2022-07-26T15:32:40Z</time>
      </trkpt>
      <trkpt lat="44.08723" lon="7.10507">
        <ele>510</ele>
        <time>2022-07-26T15:32:41Z</time>
      </trkpt>
      <trkpt lat="44.08724" lon="7.10507">
        <ele>511</ele>
        <time>2022-07-26T15:32:42Z</time>
      </trkpt>
      <trkpt lat="44.08725" lon="7.10508">
        <ele>511</ele>
        <time>2022-07-26T15:32:43Z</time>
      </trkpt>
      <trkpt lat="44.08726" lon="7.10509">
        <ele>511</ele>
        <time>2022-07-26T15:32:44Z</time>
      </trkpt>
      <trkpt lat="44.08726" lon="7.1051">
        <ele>511</ele>
        <time>2022-07-26T15:32:45Z</time>
      </trkpt>
      <trkpt lat="44.08727" lon="7.10511">
        <ele>511</ele>
        <time>2022-07-26T15:32:46Z</time>
      </trkpt>
      <trkpt lat="44.08728" lon="7.10511">
        <ele>511</ele>
        <time>2022-07-26T15:32:47Z</time>
      </trkpt>
      <trkpt lat="44.08729" lon="7.10512">
        <ele>511</ele>
        <time>2022-07-26T15:32:48Z</time>
      </trkpt>
      <trkpt lat="44.0873" lon="7.10513">
        <ele>511</ele>
        <time>2022-07-26T15:32:49Z</time>
      </trkpt>
      <trkpt lat="44.08731" lon="7.10514">
        <ele>511</ele>
        <time>2022-07-26T15:32:50Z</time>
      </trkpt>
      <trkpt lat="44.08732" lon="7.10515">
        <ele>511</ele>
        <time>2022-07-26T15:32:51Z</time>
      </trkpt>
      <trkpt lat="44.08732" lon="7.10516">
        <ele>511</ele>
        <time>2022-07-26T15:32:52Z</time>
      </trkpt>
      <trkpt lat="44.08733" lon="7.10517">
        <ele>511</ele>
        <time>2022-07-26T15:32:53Z</time>
      </trkpt>
      <trkpt lat="44.08734" lon="7.10518">
        <ele>511</ele>
        <time>2022-07-26T15:32:54Z</time>
      </trkpt>
      <trkpt lat="44.08735" lon="7.10519">
        <ele>511</ele>
        <time>2022-07-26T15:32:55Z</time>
      </trkpt>
      <trkpt lat="44.08736" lon="7.10521">
        <ele>511</ele>
        <time>2022-07-26T15:32:56Z</time>
      </trkpt>
      <trkpt lat="44.08736" lon="7.10522">
        <ele>511</ele>
        <time>2022-07-26T15:32:57Z</time>
      </trkpt>
      <trkpt lat="44.08737" lon="7.10523">
        <ele>511</ele>
        <time>2022-07-26T15:32:58Z</time>
      </trkpt>
      <trkpt lat="44.08738" lon="7.10525">
        <ele>511</ele>
        <time>2022-07-26T15:32:59Z</time>
      </trkpt>
      <trkpt lat="44.08739" lon="7.10526">
        <ele>511</ele>
        <time>2022-07-26T15:33:00Z</time>
      </trkpt>
      <trkpt lat="44.08739" lon="7.10528">
        <ele>511</ele>
        <time>2022-07-26T15:33:01Z</time>
      </trkpt>
      <trkpt lat="44.0874" lon="7.1053">
        <ele>511</ele>
        <time>2022-07-26T15:33:02Z</time>
      </trkpt>
      <trkpt lat="44.08741" lon="7.10531">
        <ele>511</ele>
        <time>2022-07-26T15:33:03Z</time>
      </trkpt>
      <trkpt lat="44.08742" lon="7.10533">
        <ele>511</ele>
        <time>2022-07-26T15:33:04Z</time>
      </trkpt>
      <trkpt lat="44.08742" lon="7.10534">
        <ele>511</ele>
        <time>2022-07-26T15:33:05Z</time>
      </trkpt>
      <trkpt lat="44.08743" lon="7.10536">
        <ele>511</ele>
        <time>2022-07-26T15:33:06Z</time>
      </trkpt>
      <trkpt lat="44.08744" lon="7.10537">
        <ele>511</ele>
        <time>2022-07-26T15:33:07Z</time>
      </trkpt>
      <trkpt lat="44.08745" lon="7.10538">
        <ele>511</ele>
        <time>2022-07-26T15:33:08Z</time>
      </trkpt>
      <trkpt lat="44.08746" lon="7.1054">
        <ele>511</ele>
        <time>2022-07-26T15:33:09Z</time>
      </trkpt>
      <trkpt lat="44.08746" lon="7.10541">
        <ele>511</ele>
        <time>2022-07-26T15:33:10Z</time>
      </trkpt>
      <trkpt lat="44.08747" lon="7.10543">
        <ele>511</ele>
        <time>2022-07-26T15:33:11Z</time>
      </trkpt>
      <trkpt lat="44.08747" lon="7.10544">
        <ele>511</ele>
        <time>2022-07-26T15:33:12Z</time>
      </trkpt>
      <trkpt lat="44.08748" lon="7.10545">
        <ele>511</ele>
        <time>2022-07-26T15:33:13Z</time>
      </trkpt>
      <trkpt lat="44.08749" lon="7.10547">
        <ele>511</ele>
        <time>2022-07-26T15:33:14Z</time>
      </trkpt>
      <trkpt lat="44.08749" lon="7.10548">
        <ele>511</ele>
        <time>2022-07-26T15:33:15Z</time>
      </trkpt>
      <trkpt lat="44.0875" lon="7.1055">
        <ele>511</ele>
        <time>2022-07-26T15:33:16Z</time>
      </trkpt>
      <trkpt lat="44.0875" lon="7.10551">
        <ele>511</ele>
        <time>2022-07-26T15:33:17Z</time>
      </trkpt>
      <trkpt lat="44.08751" lon="7.10553">
        <ele>511</ele>
        <time>2022-07-26T15:33:18Z</time>
      </trkpt>
      <trkpt lat="44.08752" lon="7.10555">
        <ele>511</ele>
        <time>2022-07-26T15:33:19Z</time>
      </trkpt>
      <trkpt lat="44.08752" lon="7.10556">
        <ele>511</ele>
        <time>2022-07-26T15:33:20Z</time>
      </trkpt>
      <trkpt lat="44.08753" lon="7.10558">
        <ele>511</ele>
        <time>2022-07-26T15:33:21Z</time>
      </trkpt>
      <trkpt lat="44.08754" lon="7.10559">
        <ele>511</ele>
        <time>2022-07-26T15:33:22Z</time>
      </trkpt>
      <trkpt lat="44.08755" lon="7.1056">
        <ele>511</ele>
        <time>2022-07-26T15:33:23Z</time>
      </trkpt>
      <trkpt lat="44.08755" lon="7.10561">
        <ele>511</ele>
        <time>2022-07-26T15:33:24Z</time>
      </trkpt>
      <trkpt lat="44.08756" lon="7.10563">
        <ele>511</ele>
        <time>2022-07-26T15:33:25Z</time>
      </trkpt>
      <trkpt lat="44.08756" lon="7.10564">
        <ele>511</ele>
        <time>2022-07-26T15:33:26Z</time>
      </trkpt>
      <trkpt lat="44.08756" lon="7.10565">
        <ele>511</ele>
        <time>2022-07-26T15:33:27Z</time>
      </trkpt>
      <trkpt lat="44.08757" lon="7.10566">
        <ele>511</ele>
        <time>2022-07-26T15:33:28Z</time>
      </trkpt>
      <trkpt lat="44.08757" lon="7.10568">
        <ele>511</ele>
        <time>2022-07-26T15:33:29Z</time>
      </trkpt>
      <trkpt lat="44.08758" lon="7.10569">
        <ele>511</ele>
        <time>2022-07-26T15:33:30Z</time>
      </trkpt>
      <trkpt lat="44.08759" lon="7.10571">
        <ele>511</ele>
        <time>2022-07-26T15:33:31Z</time>
      </trkpt>
      <trkpt lat="44.0876" lon="7.10573">
        <ele>511</ele>
        <time>2022-07-26T15:33:32Z</time>
      </trkpt>
      <trkpt lat="44.08761" lon="7.10574">
        <ele>511</ele>
        <time>2022-07-26T15:33:33Z</time>
      </trkpt>
      <trkpt lat="44.08762" lon="7.10576">
        <ele>511</ele>
        <time>2022-07-26T15:33:34Z</time>
      </trkpt>
      <trkpt lat="44.08763" lon="7.10577">
        <ele>511</ele>
        <time>2022-07-26T15:33:35Z</time>
      </trkpt>
      <trkpt lat="44.08764" lon="7.10579">
        <ele>511</ele>
        <time>2022-07-26T15:33:36Z</time>
      </trkpt>
      <trkpt lat="44.08765" lon="7.1058">
        <ele>511</ele>
        <time>2022-07-26T15:33:37Z</time>
      </trkpt>
      <trkpt lat="44.08766" lon="7.10581">
        <ele>511</ele>
        <time>2022-07-26T15:33:38Z</time>
      </trkpt>
      <trkpt lat="44.08766" lon="7.10583">
        <ele>511</ele>
        <time>2022-07-26T15:33:39Z</time>
      </trkpt>
      <trkpt lat="44.08767" lon="7.10584">
        <ele>511</ele>
        <time>2022-07-26T15:33:40Z</time>
      </trkpt>
      <trkpt lat="44.08768" lon="7.10586">
        <ele>511</ele>
        <time>2022-07-26T15:33:41Z</time>
      </trkpt>
      <trkpt lat="44.08769" lon="7.10587">
        <ele>512</ele>
        <time>2022-07-26T15:33:42Z</time>
      </trkpt>
      <trkpt lat="44.0877" lon="7.10588">
        <ele>512</ele>
        <time>2022-07-26T15:33:43Z</time>
      </trkpt>
      <trkpt lat="44.08771" lon="7.1059">
        <ele>512</ele>
        <time>2022-07-26T15:33:44Z</time>
      </trkpt>
      <trkpt lat="44.08772" lon="7.10591">
        <ele>512</ele>
        <time>2022-07-26T15:33:45Z</time>
      </trkpt>
      <trkpt lat="44.08773" lon="7.10592">
        <ele>512</ele>
        <time>2022-07-26T15:33:46Z</time>
      </trkpt>
      <trkpt lat="44.08774" lon="7.10593">
        <ele>512</ele>
        <time>2022-07-26T15:33:47Z</time>
      </trkpt>
      <trkpt lat="44.08775" lon="7.10595">
        <ele>512</ele>
        <time>2022-07-26T15:33:48Z</time>
      </trkpt>
      <trkpt lat="44.08776" lon="7.10596">
        <ele>512</ele>
        <time>2022-07-26T15:33:49Z</time>
      </trkpt>
      <trkpt lat="44.08777" lon="7.10597">
        <ele>512</ele>
        <time>2022-07-26T15:33:50Z</time>
      </trkpt>
      <trkpt lat="44.08778" lon="7.10598">
        <ele>512</ele>
        <time>2022-07-26T15:33:51Z</time>
      </trkpt>
      <trkpt lat="44.08779" lon="7.106">
        <ele>512</ele>
        <time>2022-07-26T15:33:52Z</time>
      </trkpt>
      <trkpt lat="44.0878" lon="7.10601">
        <ele>512</ele>
        <time>2022-07-26T15:33:53Z</time>
      </trkpt>
      <trkpt lat="44.08781" lon="7.10602">
        <ele>512</ele>
        <time>2022-07-26T15:33:54Z</time>
      </trkpt>
      <trkpt lat="44.08781" lon="7.10603">
        <ele>512</ele>
        <time>2022-07-26T15:33:55Z</time>
      </trkpt>
      <trkpt lat="44.08782" lon="7.10605">
        <ele>512</ele>
        <time>2022-07-26T15:33:56Z</time>
      </trkpt>
      <trkpt lat="44.08782" lon="7.10607">
        <ele>512</ele>
        <time>2022-07-26T15:33:57Z</time>
      </trkpt>
      <trkpt lat="44.08783" lon="7.10608">
        <ele>512</ele>
        <time>2022-07-26T15:33:58Z</time>
      </trkpt>
      <trkpt lat="44.08783" lon="7.1061">
        <ele>512</ele>
        <time>2022-07-26T15:33:59Z</time>
      </trkpt>
      <trkpt lat="44.08783" lon="7.10612">
        <ele>512</ele>
        <time>2022-07-26T15:34:00Z</time>
      </trkpt>
      <trkpt lat="44.08782" lon="7.10614">
        <ele>512</ele>
        <time>2022-07-26T15:34:01Z</time>
      </trkpt>
      <trkpt lat="44.08782" lon="7.10615">
        <ele>512</ele>
        <time>2022-07-26T15:34:02Z</time>
      </trkpt>
      <trkpt lat="44.08782" lon="7.10617">
        <ele>512</ele>
        <time>2022-07-26T15:34:03Z</time>
      </trkpt>
      <trkpt lat="44.08781" lon="7.10619">
        <ele>512</ele>
        <time>2022-07-26T15:34:04Z</time>
      </trkpt>
      <trkpt lat="44.08781" lon="7.1062">
        <ele>512</ele>
        <time>2022-07-26T15:34:05Z</time>
      </trkpt>
      <trkpt lat="44.08781" lon="7.10622">
        <ele>512</ele>
        <time>2022-07-26T15:34:06Z</time>
      </trkpt>
      <trkpt lat="44.08781" lon="7.10623">
        <ele>512</ele>
        <time>2022-07-26T15:34:07Z</time>
      </trkpt>
      <trkpt lat="44.08781" lon="7.10624">
        <ele>512</ele>
        <time>2022-07-26T15:34:08Z</time>
      </trkpt>
      <trkpt lat="44.08782" lon="7.10626">
        <ele>512</ele>
        <time>2022-07-26T15:34:09Z</time>
      </trkpt>
      <trkpt lat="44.08782" lon="7.10627">
        <ele>512</ele>
        <time>2022-07-26T15:34:10Z</time>
      </trkpt>
      <trkpt lat="44.08782" lon="7.10628">
        <ele>512</ele>
        <time>2022-07-26T15:34:11Z</time>
      </trkpt>
      <trkpt lat="44.08783" lon="7.10629">
        <ele>512</ele>
        <time>2022-07-26T15:34:12Z</time>
      </trkpt>
      <trkpt lat="44.08783" lon="7.1063">
        <ele>512</ele>
        <time>2022-07-26T15:34:13Z</time>
      </trkpt>
      <trkpt lat="44.08783" lon="7.10631">
        <ele>512</ele>
        <time>2022-07-26T15:34:14Z</time>
      </trkpt>
      <trkpt lat="44.08784" lon="7.10632">
        <ele>512</ele>
        <time>2022-07-26T15:34:15Z</time>
      </trkpt>
      <trkpt lat="44.08784" lon="7.10633">
        <ele>512</ele>
        <time>2022-07-26T15:34:16Z</time>
      </trkpt>
      <trkpt lat="44.08785" lon="7.10634">
        <ele>513</ele>
        <time>2022-07-26T15:34:35Z</time>
      </trkpt>
      <trkpt lat="44.08786" lon="7.10635">
        <ele>513</ele>
        <time>2022-07-26T15:34:36Z</time>
      </trkpt>
      <trkpt lat="44.08786" lon="7.10635">
        <ele>513</ele>
        <time>2022-07-26T15:34:37Z</time>
      </trkpt>
      <trkpt lat="44.08787" lon="7.10636">
        <ele>513</ele>
        <time>2022-07-26T15:34:38Z</time>
      </trkpt>
      <trkpt lat="44.08787" lon="7.10637">
        <ele>513</ele>
        <time>2022-07-26T15:34:39Z</time>
      </trkpt>
      <trkpt lat="44.08787" lon="7.10638">
        <ele>513</ele>
        <time>2022-07-26T15:34:40Z</time>
      </trkpt>
      <trkpt lat="44.08788" lon="7.10639">
        <ele>513</ele>
        <time>2022-07-26T15:34:41Z</time>
      </trkpt>
      <trkpt lat="44.08788" lon="7.10641">
        <ele>513</ele>
        <time>2022-07-26T15:34:42Z</time>
      </trkpt>
    </trkseg>
  </trk>
</gpx>